<?xml version="1.0" encoding="UTF-8" standalone="no" ?>
<gpx xmlns="http://www.topografix.com/GPX/1/1" xmlns:xsi="http://www.w3.org/2001/XMLSchema-instance" xsi:schemaLocation="http://www.topografix.com/GPX/1/1 http://www.topografix.com/GPX/1/1/gpx.xsd" version="1.1" creator="VisuGPX - https://www.visugpx.com">
  <metadata>
    <name>GR3 jour 1</name>
    <desc><![CDATA[GR3 Loge des Gardes - Viscomtat]]></desc>
  </metadata>
  <trk>
    <name><![CDATA[GR3 jour 1_1]]></name>
    <trkseg>
      <trkpt lat="46.00504" lon="3.79583">
        <ele>1093</ele>
        <time>2015-08-05T05:32:18Z</time>
      </trkpt>
      <trkpt lat="46.00505" lon="3.79543">
        <ele>1085</ele>
        <time>2015-08-05T05:32:41Z</time>
      </trkpt>
      <trkpt lat="46.00505" lon="3.79539">
        <ele>1084</ele>
        <time>2015-08-05T05:32:44Z</time>
      </trkpt>
      <trkpt lat="46.00503" lon="3.79537">
        <ele>1083</ele>
        <time>2015-08-05T05:32:47Z</time>
      </trkpt>
      <trkpt lat="46.00506" lon="3.79531">
        <ele>1083</ele>
        <time>2015-08-05T05:32:49Z</time>
      </trkpt>
      <trkpt lat="46.00506" lon="3.79523">
        <ele>1083</ele>
        <time>2015-08-05T05:32:53Z</time>
      </trkpt>
      <trkpt lat="46.00505" lon="3.79521">
        <ele>1082</ele>
        <time>2015-08-05T05:32:56Z</time>
      </trkpt>
      <trkpt lat="46.00501" lon="3.79519">
        <ele>1082</ele>
        <time>2015-08-05T05:32:59Z</time>
      </trkpt>
      <trkpt lat="46.00499" lon="3.79516">
        <ele>1084</ele>
        <time>2015-08-05T05:33:02Z</time>
      </trkpt>
      <trkpt lat="46.00499" lon="3.79513">
        <ele>1086</ele>
        <time>2015-08-05T05:33:04Z</time>
      </trkpt>
      <trkpt lat="46.00497" lon="3.79511">
        <ele>1088</ele>
        <time>2015-08-05T05:33:06Z</time>
      </trkpt>
      <trkpt lat="46.00495" lon="3.79505">
        <ele>1093</ele>
        <time>2015-08-05T05:33:11Z</time>
      </trkpt>
      <trkpt lat="46.00493" lon="3.79503">
        <ele>1095</ele>
        <time>2015-08-05T05:33:13Z</time>
      </trkpt>
      <trkpt lat="46.00492" lon="3.795">
        <ele>1097</ele>
        <time>2015-08-05T05:33:15Z</time>
      </trkpt>
      <trkpt lat="46.00494" lon="3.79497">
        <ele>1099</ele>
        <time>2015-08-05T05:33:17Z</time>
      </trkpt>
      <trkpt lat="46.00493" lon="3.79493">
        <ele>1102</ele>
        <time>2015-08-05T05:33:20Z</time>
      </trkpt>
      <trkpt lat="46.00494" lon="3.79488">
        <ele>1104</ele>
        <time>2015-08-05T05:33:22Z</time>
      </trkpt>
      <trkpt lat="46.00495" lon="3.79484">
        <ele>1104</ele>
        <time>2015-08-05T05:33:24Z</time>
      </trkpt>
      <trkpt lat="46.00494" lon="3.79481">
        <ele>1104</ele>
        <time>2015-08-05T05:33:26Z</time>
      </trkpt>
      <trkpt lat="46.00497" lon="3.79468">
        <ele>1103</ele>
        <time>2015-08-05T05:33:32Z</time>
      </trkpt>
      <trkpt lat="46.00498" lon="3.79461">
        <ele>1100</ele>
        <time>2015-08-05T05:33:35Z</time>
      </trkpt>
      <trkpt lat="46.00496" lon="3.79458">
        <ele>1099</ele>
        <time>2015-08-05T05:33:38Z</time>
      </trkpt>
      <trkpt lat="46.00493" lon="3.79457">
        <ele>1099</ele>
        <time>2015-08-05T05:33:40Z</time>
      </trkpt>
      <trkpt lat="46.00491" lon="3.79457">
        <ele>1099</ele>
        <time>2015-08-05T05:33:42Z</time>
      </trkpt>
      <trkpt lat="46.00483" lon="3.79449">
        <ele>1101</ele>
        <time>2015-08-05T05:33:50Z</time>
      </trkpt>
      <trkpt lat="46.0048" lon="3.79444">
        <ele>1104</ele>
        <time>2015-08-05T05:33:55Z</time>
      </trkpt>
      <trkpt lat="46.00475" lon="3.79438">
        <ele>1104</ele>
        <time>2015-08-05T05:34:01Z</time>
      </trkpt>
      <trkpt lat="46.0047" lon="3.79434">
        <ele>1104</ele>
        <time>2015-08-05T05:34:05Z</time>
      </trkpt>
      <trkpt lat="46.00467" lon="3.79433">
        <ele>1104</ele>
        <time>2015-08-05T05:34:08Z</time>
      </trkpt>
      <trkpt lat="46.00457" lon="3.7943">
        <ele>1105</ele>
        <time>2015-08-05T05:34:17Z</time>
      </trkpt>
      <trkpt lat="46.00454" lon="3.79428">
        <ele>1106</ele>
        <time>2015-08-05T05:34:19Z</time>
      </trkpt>
      <trkpt lat="46.00452" lon="3.79428">
        <ele>1106</ele>
        <time>2015-08-05T05:34:21Z</time>
      </trkpt>
      <trkpt lat="46.00447" lon="3.79424">
        <ele>1108</ele>
        <time>2015-08-05T05:34:25Z</time>
      </trkpt>
      <trkpt lat="46.00445" lon="3.79422">
        <ele>1109</ele>
        <time>2015-08-05T05:34:27Z</time>
      </trkpt>
      <trkpt lat="46.00443" lon="3.79422">
        <ele>1109</ele>
        <time>2015-08-05T05:34:29Z</time>
      </trkpt>
      <trkpt lat="46.00439" lon="3.79421">
        <ele>1109</ele>
        <time>2015-08-05T05:34:32Z</time>
      </trkpt>
      <trkpt lat="46.00436" lon="3.79419">
        <ele>1110</ele>
        <time>2015-08-05T05:34:34Z</time>
      </trkpt>
      <trkpt lat="46.00432" lon="3.79417">
        <ele>1111</ele>
        <time>2015-08-05T05:34:38Z</time>
      </trkpt>
      <trkpt lat="46.00426" lon="3.79414">
        <ele>1112</ele>
        <time>2015-08-05T05:34:42Z</time>
      </trkpt>
      <trkpt lat="46.00417" lon="3.79411">
        <ele>1113</ele>
        <time>2015-08-05T05:34:51Z</time>
      </trkpt>
      <trkpt lat="46.00415" lon="3.7941">
        <ele>1113</ele>
        <time>2015-08-05T05:34:53Z</time>
      </trkpt>
      <trkpt lat="46.00413" lon="3.7941">
        <ele>1113</ele>
        <time>2015-08-05T05:34:55Z</time>
      </trkpt>
      <trkpt lat="46.00411" lon="3.79409">
        <ele>1113</ele>
        <time>2015-08-05T05:34:57Z</time>
      </trkpt>
      <trkpt lat="46.00399" lon="3.79406">
        <ele>1113</ele>
        <time>2015-08-05T05:35:08Z</time>
      </trkpt>
      <trkpt lat="46.00395" lon="3.79407">
        <ele>1113</ele>
        <time>2015-08-05T05:35:13Z</time>
      </trkpt>
      <trkpt lat="46.00391" lon="3.79406">
        <ele>1113</ele>
        <time>2015-08-05T05:35:16Z</time>
      </trkpt>
      <trkpt lat="46.00388" lon="3.79404">
        <ele>1113</ele>
        <time>2015-08-05T05:35:18Z</time>
      </trkpt>
      <trkpt lat="46.0038" lon="3.79399">
        <ele>1116</ele>
        <time>2015-08-05T05:35:25Z</time>
      </trkpt>
      <trkpt lat="46.00376" lon="3.79399">
        <ele>1117</ele>
        <time>2015-08-05T05:35:29Z</time>
      </trkpt>
      <trkpt lat="46.00371" lon="3.79398">
        <ele>1117</ele>
        <time>2015-08-05T05:35:33Z</time>
      </trkpt>
      <trkpt lat="46.00368" lon="3.79398">
        <ele>1117</ele>
        <time>2015-08-05T05:35:35Z</time>
      </trkpt>
      <trkpt lat="46.00366" lon="3.79397">
        <ele>1118</ele>
        <time>2015-08-05T05:35:37Z</time>
      </trkpt>
      <trkpt lat="46.00364" lon="3.79398">
        <ele>1118</ele>
        <time>2015-08-05T05:35:39Z</time>
      </trkpt>
      <trkpt lat="46.0036" lon="3.79398">
        <ele>1118</ele>
        <time>2015-08-05T05:35:43Z</time>
      </trkpt>
      <trkpt lat="46.00358" lon="3.79398">
        <ele>1118</ele>
        <time>2015-08-05T05:35:45Z</time>
      </trkpt>
      <trkpt lat="46.00352" lon="3.79398">
        <ele>1118</ele>
        <time>2015-08-05T05:35:51Z</time>
      </trkpt>
      <trkpt lat="46.00348" lon="3.79397">
        <ele>1118</ele>
        <time>2015-08-05T05:35:56Z</time>
      </trkpt>
      <trkpt lat="46.00346" lon="3.79398">
        <ele>1118</ele>
        <time>2015-08-05T05:35:58Z</time>
      </trkpt>
      <trkpt lat="46.00331" lon="3.79396">
        <ele>1118</ele>
        <time>2015-08-05T05:36:13Z</time>
      </trkpt>
      <trkpt lat="46.00327" lon="3.79393">
        <ele>1118</ele>
        <time>2015-08-05T05:36:15Z</time>
      </trkpt>
      <trkpt lat="46.00325" lon="3.79392">
        <ele>1118</ele>
        <time>2015-08-05T05:36:17Z</time>
      </trkpt>
      <trkpt lat="46.0032" lon="3.79392">
        <ele>1118</ele>
        <time>2015-08-05T05:36:22Z</time>
      </trkpt>
      <trkpt lat="46.00317" lon="3.79392">
        <ele>1118</ele>
        <time>2015-08-05T05:36:24Z</time>
      </trkpt>
      <trkpt lat="46.00314" lon="3.7939">
        <ele>1118</ele>
        <time>2015-08-05T05:36:26Z</time>
      </trkpt>
      <trkpt lat="46.00308" lon="3.79388">
        <ele>1118</ele>
        <time>2015-08-05T05:36:31Z</time>
      </trkpt>
      <trkpt lat="46.003" lon="3.79391">
        <ele>1120</ele>
        <time>2015-08-05T05:36:39Z</time>
      </trkpt>
      <trkpt lat="46.00297" lon="3.7939">
        <ele>1120</ele>
        <time>2015-08-05T05:36:41Z</time>
      </trkpt>
      <trkpt lat="46.00291" lon="3.7939">
        <ele>1122</ele>
        <time>2015-08-05T05:36:45Z</time>
      </trkpt>
      <trkpt lat="46.0029" lon="3.79392">
        <ele>1122</ele>
        <time>2015-08-05T05:36:47Z</time>
      </trkpt>
      <trkpt lat="46.00286" lon="3.79393">
        <ele>1123</ele>
        <time>2015-08-05T05:36:50Z</time>
      </trkpt>
      <trkpt lat="46.0028" lon="3.79394">
        <ele>1125</ele>
        <time>2015-08-05T05:36:54Z</time>
      </trkpt>
      <trkpt lat="46.00277" lon="3.79396">
        <ele>1127</ele>
        <time>2015-08-05T05:36:57Z</time>
      </trkpt>
      <trkpt lat="46.00272" lon="3.79402">
        <ele>1128</ele>
        <time>2015-08-05T05:37:03Z</time>
      </trkpt>
      <trkpt lat="46.0027" lon="3.79404">
        <ele>1128</ele>
        <time>2015-08-05T05:37:05Z</time>
      </trkpt>
      <trkpt lat="46.00267" lon="3.79409">
        <ele>1128</ele>
        <time>2015-08-05T05:37:09Z</time>
      </trkpt>
      <trkpt lat="46.00266" lon="3.79412">
        <ele>1128</ele>
        <time>2015-08-05T05:37:11Z</time>
      </trkpt>
      <trkpt lat="46.00265" lon="3.79414">
        <ele>1128</ele>
        <time>2015-08-05T05:37:13Z</time>
      </trkpt>
      <trkpt lat="46.00263" lon="3.79416">
        <ele>1128</ele>
        <time>2015-08-05T05:37:15Z</time>
      </trkpt>
      <trkpt lat="46.0026" lon="3.79416">
        <ele>1128</ele>
        <time>2015-08-05T05:37:17Z</time>
      </trkpt>
      <trkpt lat="46.00258" lon="3.79418">
        <ele>1128</ele>
        <time>2015-08-05T05:37:19Z</time>
      </trkpt>
      <trkpt lat="46.00255" lon="3.79419">
        <ele>1128</ele>
        <time>2015-08-05T05:37:21Z</time>
      </trkpt>
      <trkpt lat="46.00252" lon="3.79421">
        <ele>1129</ele>
        <time>2015-08-05T05:37:24Z</time>
      </trkpt>
      <trkpt lat="46.00252" lon="3.79424">
        <ele>1129</ele>
        <time>2015-08-05T05:37:26Z</time>
      </trkpt>
      <trkpt lat="46.00255" lon="3.79431">
        <ele>1129</ele>
        <time>2015-08-05T05:37:30Z</time>
      </trkpt>
      <trkpt lat="46.00256" lon="3.79432">
        <ele>1129</ele>
        <time>2015-08-05T05:37:34Z</time>
      </trkpt>
      <trkpt lat="46.00254" lon="3.79432">
        <ele>1129</ele>
        <time>2015-08-05T05:37:36Z</time>
      </trkpt>
      <trkpt lat="46.00252" lon="3.79434">
        <ele>1129</ele>
        <time>2015-08-05T05:37:38Z</time>
      </trkpt>
      <trkpt lat="46.00251" lon="3.79434">
        <ele>1129</ele>
        <time>2015-08-05T05:37:40Z</time>
      </trkpt>
      <trkpt lat="46.00243" lon="3.79437">
        <ele>1129</ele>
        <time>2015-08-05T05:37:46Z</time>
      </trkpt>
      <trkpt lat="46.0024" lon="3.79437">
        <ele>1129</ele>
        <time>2015-08-05T05:37:48Z</time>
      </trkpt>
      <trkpt lat="46.00235" lon="3.79445">
        <ele>1129</ele>
        <time>2015-08-05T05:37:54Z</time>
      </trkpt>
      <trkpt lat="46.00234" lon="3.7945">
        <ele>1129</ele>
        <time>2015-08-05T05:37:56Z</time>
      </trkpt>
      <trkpt lat="46.0023" lon="3.79456">
        <ele>1126</ele>
        <time>2015-08-05T05:37:59Z</time>
      </trkpt>
      <trkpt lat="46.00227" lon="3.79458">
        <ele>1124</ele>
        <time>2015-08-05T05:38:02Z</time>
      </trkpt>
      <trkpt lat="46.00225" lon="3.79462">
        <ele>1123</ele>
        <time>2015-08-05T05:38:04Z</time>
      </trkpt>
      <trkpt lat="46.00223" lon="3.79464">
        <ele>1123</ele>
        <time>2015-08-05T05:38:06Z</time>
      </trkpt>
      <trkpt lat="46.00223" lon="3.79466">
        <ele>1122</ele>
        <time>2015-08-05T05:38:08Z</time>
      </trkpt>
      <trkpt lat="46.00221" lon="3.79468">
        <ele>1121</ele>
        <time>2015-08-05T05:38:10Z</time>
      </trkpt>
      <trkpt lat="46.00215" lon="3.79474">
        <ele>1120</ele>
        <time>2015-08-05T05:38:15Z</time>
      </trkpt>
      <trkpt lat="46.00208" lon="3.79483">
        <ele>1119</ele>
        <time>2015-08-05T05:38:22Z</time>
      </trkpt>
      <trkpt lat="46.00198" lon="3.79489">
        <ele>1118</ele>
        <time>2015-08-05T05:38:28Z</time>
      </trkpt>
      <trkpt lat="46.00195" lon="3.79491">
        <ele>1118</ele>
        <time>2015-08-05T05:38:30Z</time>
      </trkpt>
      <trkpt lat="46.00191" lon="3.79491">
        <ele>1118</ele>
        <time>2015-08-05T05:38:32Z</time>
      </trkpt>
      <trkpt lat="46.00187" lon="3.79494">
        <ele>1118</ele>
        <time>2015-08-05T05:38:35Z</time>
      </trkpt>
      <trkpt lat="46.00184" lon="3.79495">
        <ele>1118</ele>
        <time>2015-08-05T05:38:38Z</time>
      </trkpt>
      <trkpt lat="46.00182" lon="3.79495">
        <ele>1119</ele>
        <time>2015-08-05T05:38:41Z</time>
      </trkpt>
      <trkpt lat="46.00175" lon="3.79498">
        <ele>1119</ele>
        <time>2015-08-05T05:38:47Z</time>
      </trkpt>
      <trkpt lat="46.0017" lon="3.79497">
        <ele>1119</ele>
        <time>2015-08-05T05:38:51Z</time>
      </trkpt>
      <trkpt lat="46.00165" lon="3.79496">
        <ele>1119</ele>
        <time>2015-08-05T05:38:55Z</time>
      </trkpt>
      <trkpt lat="46.0016" lon="3.79496">
        <ele>1119</ele>
        <time>2015-08-05T05:38:59Z</time>
      </trkpt>
      <trkpt lat="46.00157" lon="3.79497">
        <ele>1119</ele>
        <time>2015-08-05T05:39:02Z</time>
      </trkpt>
      <trkpt lat="46.00154" lon="3.79497">
        <ele>1119</ele>
        <time>2015-08-05T05:39:04Z</time>
      </trkpt>
      <trkpt lat="46.00151" lon="3.79496">
        <ele>1119</ele>
        <time>2015-08-05T05:39:06Z</time>
      </trkpt>
      <trkpt lat="46.00145" lon="3.79495">
        <ele>1120</ele>
        <time>2015-08-05T05:39:10Z</time>
      </trkpt>
      <trkpt lat="46.00142" lon="3.79496">
        <ele>1120</ele>
        <time>2015-08-05T05:39:12Z</time>
      </trkpt>
      <trkpt lat="46.00139" lon="3.79497">
        <ele>1121</ele>
        <time>2015-08-05T05:39:14Z</time>
      </trkpt>
      <trkpt lat="46.00129" lon="3.79498">
        <ele>1123</ele>
        <time>2015-08-05T05:39:22Z</time>
      </trkpt>
      <trkpt lat="46.00123" lon="3.79497">
        <ele>1123</ele>
        <time>2015-08-05T05:39:26Z</time>
      </trkpt>
      <trkpt lat="46.0012" lon="3.79497">
        <ele>1124</ele>
        <time>2015-08-05T05:39:28Z</time>
      </trkpt>
      <trkpt lat="46.00118" lon="3.79497">
        <ele>1126</ele>
        <time>2015-08-05T05:39:30Z</time>
      </trkpt>
      <trkpt lat="46.00112" lon="3.79496">
        <ele>1127</ele>
        <time>2015-08-05T05:39:34Z</time>
      </trkpt>
      <trkpt lat="46.00105" lon="3.79496">
        <ele>1130</ele>
        <time>2015-08-05T05:39:38Z</time>
      </trkpt>
      <trkpt lat="46.00095" lon="3.79503">
        <ele>1131</ele>
        <time>2015-08-05T05:39:48Z</time>
      </trkpt>
      <trkpt lat="46.00083" lon="3.79504">
        <ele>1131</ele>
        <time>2015-08-05T05:39:58Z</time>
      </trkpt>
      <trkpt lat="46.00074" lon="3.79503">
        <ele>1131</ele>
        <time>2015-08-05T05:40:04Z</time>
      </trkpt>
      <trkpt lat="46.00072" lon="3.79503">
        <ele>1131</ele>
        <time>2015-08-05T05:40:06Z</time>
      </trkpt>
      <trkpt lat="46.00069" lon="3.79504">
        <ele>1131</ele>
        <time>2015-08-05T05:40:09Z</time>
      </trkpt>
      <trkpt lat="46.00067" lon="3.79505">
        <ele>1131</ele>
        <time>2015-08-05T05:40:11Z</time>
      </trkpt>
      <trkpt lat="46.00065" lon="3.79506">
        <ele>1129</ele>
        <time>2015-08-05T05:40:13Z</time>
      </trkpt>
      <trkpt lat="46.00056" lon="3.79506">
        <ele>1129</ele>
        <time>2015-08-05T05:40:20Z</time>
      </trkpt>
      <trkpt lat="46.0005" lon="3.79504">
        <ele>1129</ele>
        <time>2015-08-05T05:40:24Z</time>
      </trkpt>
      <trkpt lat="46.00045" lon="3.79505">
        <ele>1129</ele>
        <time>2015-08-05T05:40:28Z</time>
      </trkpt>
      <trkpt lat="46.00042" lon="3.79504">
        <ele>1129</ele>
        <time>2015-08-05T05:40:30Z</time>
      </trkpt>
      <trkpt lat="46.00037" lon="3.79504">
        <ele>1129</ele>
        <time>2015-08-05T05:40:34Z</time>
      </trkpt>
      <trkpt lat="46.00033" lon="3.79508">
        <ele>1129</ele>
        <time>2015-08-05T05:40:38Z</time>
      </trkpt>
      <trkpt lat="46.00031" lon="3.79509">
        <ele>1129</ele>
        <time>2015-08-05T05:40:40Z</time>
      </trkpt>
      <trkpt lat="46.00025" lon="3.7951">
        <ele>1129</ele>
        <time>2015-08-05T05:40:45Z</time>
      </trkpt>
      <trkpt lat="46.00023" lon="3.79511">
        <ele>1129</ele>
        <time>2015-08-05T05:40:47Z</time>
      </trkpt>
      <trkpt lat="46.0002" lon="3.7951">
        <ele>1129</ele>
        <time>2015-08-05T05:40:49Z</time>
      </trkpt>
      <trkpt lat="46.00015" lon="3.79511">
        <ele>1129</ele>
        <time>2015-08-05T05:40:53Z</time>
      </trkpt>
      <trkpt lat="46.0001" lon="3.7951">
        <ele>1129</ele>
        <time>2015-08-05T05:40:57Z</time>
      </trkpt>
      <trkpt lat="46.00004" lon="3.79513">
        <ele>1129</ele>
        <time>2015-08-05T05:41:02Z</time>
      </trkpt>
      <trkpt lat="45.99997" lon="3.79518">
        <ele>1126</ele>
        <time>2015-08-05T05:41:10Z</time>
      </trkpt>
      <trkpt lat="45.99991" lon="3.79522">
        <ele>1124</ele>
        <time>2015-08-05T05:41:16Z</time>
      </trkpt>
      <trkpt lat="45.99989" lon="3.79523">
        <ele>1123</ele>
        <time>2015-08-05T05:41:18Z</time>
      </trkpt>
      <trkpt lat="45.99986" lon="3.79525">
        <ele>1122</ele>
        <time>2015-08-05T05:41:21Z</time>
      </trkpt>
      <trkpt lat="45.99982" lon="3.79523">
        <ele>1122</ele>
        <time>2015-08-05T05:41:23Z</time>
      </trkpt>
      <trkpt lat="45.99973" lon="3.79528">
        <ele>1119</ele>
        <time>2015-08-05T05:41:31Z</time>
      </trkpt>
      <trkpt lat="45.99972" lon="3.79529">
        <ele>1118</ele>
        <time>2015-08-05T05:41:33Z</time>
      </trkpt>
      <trkpt lat="45.99968" lon="3.79528">
        <ele>1118</ele>
        <time>2015-08-05T05:41:35Z</time>
      </trkpt>
      <trkpt lat="45.99967" lon="3.7953">
        <ele>1118</ele>
        <time>2015-08-05T05:41:37Z</time>
      </trkpt>
      <trkpt lat="45.99958" lon="3.79526">
        <ele>1117</ele>
        <time>2015-08-05T05:41:43Z</time>
      </trkpt>
      <trkpt lat="45.99955" lon="3.79526">
        <ele>1117</ele>
        <time>2015-08-05T05:41:45Z</time>
      </trkpt>
      <trkpt lat="45.99953" lon="3.79528">
        <ele>1117</ele>
        <time>2015-08-05T05:41:47Z</time>
      </trkpt>
      <trkpt lat="45.9995" lon="3.79528">
        <ele>1117</ele>
        <time>2015-08-05T05:41:49Z</time>
      </trkpt>
      <trkpt lat="45.99947" lon="3.79527">
        <ele>1117</ele>
        <time>2015-08-05T05:41:51Z</time>
      </trkpt>
      <trkpt lat="45.99943" lon="3.79525">
        <ele>1117</ele>
        <time>2015-08-05T05:41:53Z</time>
      </trkpt>
      <trkpt lat="45.9994" lon="3.79525">
        <ele>1119</ele>
        <time>2015-08-05T05:41:55Z</time>
      </trkpt>
      <trkpt lat="45.99937" lon="3.79526">
        <ele>1120</ele>
        <time>2015-08-05T05:41:58Z</time>
      </trkpt>
      <trkpt lat="45.99931" lon="3.79528">
        <ele>1120</ele>
        <time>2015-08-05T05:42:03Z</time>
      </trkpt>
      <trkpt lat="45.99928" lon="3.79531">
        <ele>1120</ele>
        <time>2015-08-05T05:42:07Z</time>
      </trkpt>
      <trkpt lat="45.9992" lon="3.79532">
        <ele>1120</ele>
        <time>2015-08-05T05:42:14Z</time>
      </trkpt>
      <trkpt lat="45.99916" lon="3.79534">
        <ele>1117</ele>
        <time>2015-08-05T05:42:18Z</time>
      </trkpt>
      <trkpt lat="45.99908" lon="3.79534">
        <ele>1116</ele>
        <time>2015-08-05T05:42:24Z</time>
      </trkpt>
      <trkpt lat="45.99905" lon="3.79533">
        <ele>1116</ele>
        <time>2015-08-05T05:42:26Z</time>
      </trkpt>
      <trkpt lat="45.99902" lon="3.79532">
        <ele>1116</ele>
        <time>2015-08-05T05:42:28Z</time>
      </trkpt>
      <trkpt lat="45.99897" lon="3.79533">
        <ele>1116</ele>
        <time>2015-08-05T05:42:32Z</time>
      </trkpt>
      <trkpt lat="45.99895" lon="3.79534">
        <ele>1116</ele>
        <time>2015-08-05T05:42:34Z</time>
      </trkpt>
      <trkpt lat="45.99891" lon="3.79535">
        <ele>1116</ele>
        <time>2015-08-05T05:42:38Z</time>
      </trkpt>
      <trkpt lat="45.99888" lon="3.79535">
        <ele>1116</ele>
        <time>2015-08-05T05:42:40Z</time>
      </trkpt>
      <trkpt lat="45.99882" lon="3.79536">
        <ele>1116</ele>
        <time>2015-08-05T05:42:45Z</time>
      </trkpt>
      <trkpt lat="45.99875" lon="3.79538">
        <ele>1116</ele>
        <time>2015-08-05T05:42:51Z</time>
      </trkpt>
      <trkpt lat="45.99867" lon="3.79538">
        <ele>1116</ele>
        <time>2015-08-05T05:42:57Z</time>
      </trkpt>
      <trkpt lat="45.99863" lon="3.79538">
        <ele>1116</ele>
        <time>2015-08-05T05:43:00Z</time>
      </trkpt>
      <trkpt lat="45.99858" lon="3.79538">
        <ele>1116</ele>
        <time>2015-08-05T05:43:04Z</time>
      </trkpt>
      <trkpt lat="45.99855" lon="3.79538">
        <ele>1116</ele>
        <time>2015-08-05T05:43:06Z</time>
      </trkpt>
      <trkpt lat="45.99852" lon="3.79539">
        <ele>1116</ele>
        <time>2015-08-05T05:43:09Z</time>
      </trkpt>
      <trkpt lat="45.99846" lon="3.79542">
        <ele>1116</ele>
        <time>2015-08-05T05:43:14Z</time>
      </trkpt>
      <trkpt lat="45.99842" lon="3.79542">
        <ele>1116</ele>
        <time>2015-08-05T05:43:16Z</time>
      </trkpt>
      <trkpt lat="45.9984" lon="3.79544">
        <ele>1116</ele>
        <time>2015-08-05T05:43:18Z</time>
      </trkpt>
      <trkpt lat="45.99839" lon="3.79548">
        <ele>1116</ele>
        <time>2015-08-05T05:43:20Z</time>
      </trkpt>
      <trkpt lat="45.99834" lon="3.79554">
        <ele>1116</ele>
        <time>2015-08-05T05:43:26Z</time>
      </trkpt>
      <trkpt lat="45.99829" lon="3.79559">
        <ele>1116</ele>
        <time>2015-08-05T05:43:31Z</time>
      </trkpt>
      <trkpt lat="45.99826" lon="3.79566">
        <ele>1116</ele>
        <time>2015-08-05T05:43:36Z</time>
      </trkpt>
      <trkpt lat="45.99824" lon="3.7957">
        <ele>1116</ele>
        <time>2015-08-05T05:43:39Z</time>
      </trkpt>
      <trkpt lat="45.99823" lon="3.79573">
        <ele>1116</ele>
        <time>2015-08-05T05:43:41Z</time>
      </trkpt>
      <trkpt lat="45.99822" lon="3.79575">
        <ele>1116</ele>
        <time>2015-08-05T05:43:43Z</time>
      </trkpt>
      <trkpt lat="45.99821" lon="3.79578">
        <ele>1115</ele>
        <time>2015-08-05T05:43:45Z</time>
      </trkpt>
      <trkpt lat="45.99819" lon="3.79581">
        <ele>1115</ele>
        <time>2015-08-05T05:43:47Z</time>
      </trkpt>
      <trkpt lat="45.99817" lon="3.79583">
        <ele>1115</ele>
        <time>2015-08-05T05:43:49Z</time>
      </trkpt>
      <trkpt lat="45.99816" lon="3.79585">
        <ele>1115</ele>
        <time>2015-08-05T05:43:51Z</time>
      </trkpt>
      <trkpt lat="45.99815" lon="3.79589">
        <ele>1115</ele>
        <time>2015-08-05T05:43:53Z</time>
      </trkpt>
      <trkpt lat="45.99813" lon="3.79591">
        <ele>1115</ele>
        <time>2015-08-05T05:43:55Z</time>
      </trkpt>
      <trkpt lat="45.99809" lon="3.79593">
        <ele>1115</ele>
        <time>2015-08-05T05:43:58Z</time>
      </trkpt>
      <trkpt lat="45.99799" lon="3.79605">
        <ele>1113</ele>
        <time>2015-08-05T05:44:08Z</time>
      </trkpt>
      <trkpt lat="45.99797" lon="3.79609">
        <ele>1113</ele>
        <time>2015-08-05T05:44:10Z</time>
      </trkpt>
      <trkpt lat="45.99791" lon="3.79615">
        <ele>1113</ele>
        <time>2015-08-05T05:44:16Z</time>
      </trkpt>
      <trkpt lat="45.9979" lon="3.79617">
        <ele>1112</ele>
        <time>2015-08-05T05:44:18Z</time>
      </trkpt>
      <trkpt lat="45.99787" lon="3.79619">
        <ele>1111</ele>
        <time>2015-08-05T05:44:20Z</time>
      </trkpt>
      <trkpt lat="45.99785" lon="3.79621">
        <ele>1111</ele>
        <time>2015-08-05T05:44:22Z</time>
      </trkpt>
      <trkpt lat="45.99784" lon="3.79624">
        <ele>1111</ele>
        <time>2015-08-05T05:44:24Z</time>
      </trkpt>
      <trkpt lat="45.99781" lon="3.79626">
        <ele>1110</ele>
        <time>2015-08-05T05:44:26Z</time>
      </trkpt>
      <trkpt lat="45.99778" lon="3.79625">
        <ele>1110</ele>
        <time>2015-08-05T05:44:29Z</time>
      </trkpt>
      <trkpt lat="45.99775" lon="3.79626">
        <ele>1110</ele>
        <time>2015-08-05T05:44:31Z</time>
      </trkpt>
      <trkpt lat="45.99773" lon="3.79628">
        <ele>1110</ele>
        <time>2015-08-05T05:44:33Z</time>
      </trkpt>
      <trkpt lat="45.99771" lon="3.7963">
        <ele>1110</ele>
        <time>2015-08-05T05:44:35Z</time>
      </trkpt>
      <trkpt lat="45.99768" lon="3.79632">
        <ele>1110</ele>
        <time>2015-08-05T05:44:37Z</time>
      </trkpt>
      <trkpt lat="45.99766" lon="3.79633">
        <ele>1110</ele>
        <time>2015-08-05T05:44:39Z</time>
      </trkpt>
      <trkpt lat="45.99765" lon="3.79633">
        <ele>1110</ele>
        <time>2015-08-05T05:44:41Z</time>
      </trkpt>
      <trkpt lat="45.9976" lon="3.79636">
        <ele>1109</ele>
        <time>2015-08-05T05:44:45Z</time>
      </trkpt>
      <trkpt lat="45.99752" lon="3.79639">
        <ele>1108</ele>
        <time>2015-08-05T05:44:51Z</time>
      </trkpt>
      <trkpt lat="45.99749" lon="3.7964">
        <ele>1108</ele>
        <time>2015-08-05T05:44:53Z</time>
      </trkpt>
      <trkpt lat="45.99746" lon="3.79641">
        <ele>1108</ele>
        <time>2015-08-05T05:44:55Z</time>
      </trkpt>
      <trkpt lat="45.99739" lon="3.79644">
        <ele>1108</ele>
        <time>2015-08-05T05:45:01Z</time>
      </trkpt>
      <trkpt lat="45.99735" lon="3.79648">
        <ele>1106</ele>
        <time>2015-08-05T05:45:05Z</time>
      </trkpt>
      <trkpt lat="45.99732" lon="3.79647">
        <ele>1105</ele>
        <time>2015-08-05T05:45:07Z</time>
      </trkpt>
      <trkpt lat="45.99729" lon="3.79649">
        <ele>1105</ele>
        <time>2015-08-05T05:45:10Z</time>
      </trkpt>
      <trkpt lat="45.99724" lon="3.79653">
        <ele>1105</ele>
        <time>2015-08-05T05:45:14Z</time>
      </trkpt>
      <trkpt lat="45.99719" lon="3.79654">
        <ele>1104</ele>
        <time>2015-08-05T05:45:18Z</time>
      </trkpt>
      <trkpt lat="45.99716" lon="3.79655">
        <ele>1104</ele>
        <time>2015-08-05T05:45:21Z</time>
      </trkpt>
      <trkpt lat="45.99716" lon="3.79658">
        <ele>1104</ele>
        <time>2015-08-05T05:45:23Z</time>
      </trkpt>
      <trkpt lat="45.99715" lon="3.79662">
        <ele>1103</ele>
        <time>2015-08-05T05:45:25Z</time>
      </trkpt>
      <trkpt lat="45.99714" lon="3.79665">
        <ele>1101</ele>
        <time>2015-08-05T05:45:27Z</time>
      </trkpt>
      <trkpt lat="45.99712" lon="3.79669">
        <ele>1100</ele>
        <time>2015-08-05T05:45:29Z</time>
      </trkpt>
      <trkpt lat="45.9971" lon="3.79675">
        <ele>1099</ele>
        <time>2015-08-05T05:45:31Z</time>
      </trkpt>
      <trkpt lat="45.99708" lon="3.79679">
        <ele>1098</ele>
        <time>2015-08-05T05:45:34Z</time>
      </trkpt>
      <trkpt lat="45.99702" lon="3.79695">
        <ele>1098</ele>
        <time>2015-08-05T05:45:46Z</time>
      </trkpt>
      <trkpt lat="45.99701" lon="3.79697">
        <ele>1098</ele>
        <time>2015-08-05T05:45:49Z</time>
      </trkpt>
      <trkpt lat="45.997" lon="3.79699">
        <ele>1098</ele>
        <time>2015-08-05T05:45:51Z</time>
      </trkpt>
      <trkpt lat="45.99699" lon="3.79704">
        <ele>1098</ele>
        <time>2015-08-05T05:45:53Z</time>
      </trkpt>
      <trkpt lat="45.99696" lon="3.79706">
        <ele>1098</ele>
        <time>2015-08-05T05:45:55Z</time>
      </trkpt>
      <trkpt lat="45.99694" lon="3.79708">
        <ele>1098</ele>
        <time>2015-08-05T05:45:57Z</time>
      </trkpt>
      <trkpt lat="45.99691" lon="3.7971">
        <ele>1098</ele>
        <time>2015-08-05T05:45:59Z</time>
      </trkpt>
      <trkpt lat="45.99688" lon="3.79717">
        <ele>1098</ele>
        <time>2015-08-05T05:46:04Z</time>
      </trkpt>
      <trkpt lat="45.99686" lon="3.79722">
        <ele>1098</ele>
        <time>2015-08-05T05:46:08Z</time>
      </trkpt>
      <trkpt lat="45.99684" lon="3.79724">
        <ele>1098</ele>
        <time>2015-08-05T05:46:11Z</time>
      </trkpt>
      <trkpt lat="45.99683" lon="3.79728">
        <ele>1098</ele>
        <time>2015-08-05T05:46:13Z</time>
      </trkpt>
      <trkpt lat="45.9968" lon="3.79731">
        <ele>1098</ele>
        <time>2015-08-05T05:46:16Z</time>
      </trkpt>
      <trkpt lat="45.99677" lon="3.79738">
        <ele>1097</ele>
        <time>2015-08-05T05:46:20Z</time>
      </trkpt>
      <trkpt lat="45.99675" lon="3.79743">
        <ele>1097</ele>
        <time>2015-08-05T05:46:22Z</time>
      </trkpt>
      <trkpt lat="45.99674" lon="3.79745">
        <ele>1097</ele>
        <time>2015-08-05T05:46:25Z</time>
      </trkpt>
      <trkpt lat="45.99669" lon="3.79746">
        <ele>1097</ele>
        <time>2015-08-05T05:46:29Z</time>
      </trkpt>
      <trkpt lat="45.99667" lon="3.79747">
        <ele>1097</ele>
        <time>2015-08-05T05:46:31Z</time>
      </trkpt>
      <trkpt lat="45.99665" lon="3.79753">
        <ele>1097</ele>
        <time>2015-08-05T05:46:35Z</time>
      </trkpt>
      <trkpt lat="45.99662" lon="3.79759">
        <ele>1096</ele>
        <time>2015-08-05T05:46:39Z</time>
      </trkpt>
      <trkpt lat="45.9966" lon="3.79761">
        <ele>1095</ele>
        <time>2015-08-05T05:46:41Z</time>
      </trkpt>
      <trkpt lat="45.99658" lon="3.79765">
        <ele>1094</ele>
        <time>2015-08-05T05:46:43Z</time>
      </trkpt>
      <trkpt lat="45.99652" lon="3.79771">
        <ele>1093</ele>
        <time>2015-08-05T05:46:48Z</time>
      </trkpt>
      <trkpt lat="45.99635" lon="3.79786">
        <ele>1092</ele>
        <time>2015-08-05T05:47:03Z</time>
      </trkpt>
      <trkpt lat="45.9963" lon="3.79791">
        <ele>1092</ele>
        <time>2015-08-05T05:47:07Z</time>
      </trkpt>
      <trkpt lat="45.99628" lon="3.79791">
        <ele>1092</ele>
        <time>2015-08-05T05:47:09Z</time>
      </trkpt>
      <trkpt lat="45.99624" lon="3.79794">
        <ele>1092</ele>
        <time>2015-08-05T05:47:13Z</time>
      </trkpt>
      <trkpt lat="45.99621" lon="3.79793">
        <ele>1094</ele>
        <time>2015-08-05T05:47:16Z</time>
      </trkpt>
      <trkpt lat="45.99619" lon="3.79795">
        <ele>1096</ele>
        <time>2015-08-05T05:47:18Z</time>
      </trkpt>
      <trkpt lat="45.99617" lon="3.79797">
        <ele>1098</ele>
        <time>2015-08-05T05:47:23Z</time>
      </trkpt>
      <trkpt lat="45.99618" lon="3.79798">
        <ele>1099</ele>
        <time>2015-08-05T05:47:28Z</time>
      </trkpt>
      <trkpt lat="45.9962" lon="3.79794">
        <ele>1102</ele>
        <time>2015-08-05T05:47:33Z</time>
      </trkpt>
      <trkpt lat="45.99619" lon="3.79794">
        <ele>1104</ele>
        <time>2015-08-05T05:47:35Z</time>
      </trkpt>
      <trkpt lat="45.99617" lon="3.79794">
        <ele>1104</ele>
        <time>2015-08-05T05:47:37Z</time>
      </trkpt>
      <trkpt lat="45.99615" lon="3.79796">
        <ele>1104</ele>
        <time>2015-08-05T05:47:39Z</time>
      </trkpt>
      <trkpt lat="45.99613" lon="3.79802">
        <ele>1104</ele>
        <time>2015-08-05T05:47:43Z</time>
      </trkpt>
      <trkpt lat="45.99613" lon="3.79809">
        <ele>1104</ele>
        <time>2015-08-05T05:47:51Z</time>
      </trkpt>
      <trkpt lat="45.99613" lon="3.79812">
        <ele>1104</ele>
        <time>2015-08-05T05:47:53Z</time>
      </trkpt>
      <trkpt lat="45.99614" lon="3.79813">
        <ele>1102</ele>
        <time>2015-08-05T05:47:55Z</time>
      </trkpt>
      <trkpt lat="45.99614" lon="3.79815">
        <ele>1098</ele>
        <time>2015-08-05T05:47:59Z</time>
      </trkpt>
      <trkpt lat="45.99613" lon="3.79817">
        <ele>1097</ele>
        <time>2015-08-05T05:48:03Z</time>
      </trkpt>
      <trkpt lat="45.99612" lon="3.79819">
        <ele>1097</ele>
        <time>2015-08-05T05:48:05Z</time>
      </trkpt>
      <trkpt lat="45.99612" lon="3.79822">
        <ele>1097</ele>
        <time>2015-08-05T05:48:09Z</time>
      </trkpt>
      <trkpt lat="45.99612" lon="3.79823">
        <ele>1097</ele>
        <time>2015-08-05T05:48:11Z</time>
      </trkpt>
      <trkpt lat="45.99613" lon="3.79823">
        <ele>1097</ele>
        <time>2015-08-05T05:48:16Z</time>
      </trkpt>
      <trkpt lat="45.99612" lon="3.79823">
        <ele>1097</ele>
        <time>2015-08-05T05:48:21Z</time>
      </trkpt>
      <trkpt lat="45.99608" lon="3.79823">
        <ele>1097</ele>
        <time>2015-08-05T05:48:27Z</time>
      </trkpt>
      <trkpt lat="45.99608" lon="3.79821">
        <ele>1097</ele>
        <time>2015-08-05T05:48:29Z</time>
      </trkpt>
      <trkpt lat="45.99607" lon="3.79823">
        <ele>1097</ele>
        <time>2015-08-05T05:48:32Z</time>
      </trkpt>
      <trkpt lat="45.99609" lon="3.79823">
        <ele>1097</ele>
        <time>2015-08-05T05:48:35Z</time>
      </trkpt>
      <trkpt lat="45.99606" lon="3.79826">
        <ele>1098</ele>
        <time>2015-08-05T05:48:44Z</time>
      </trkpt>
      <trkpt lat="45.99605" lon="3.79825">
        <ele>1098</ele>
        <time>2015-08-05T05:48:47Z</time>
      </trkpt>
      <trkpt lat="45.99599" lon="3.79829">
        <ele>1098</ele>
        <time>2015-08-05T05:48:52Z</time>
      </trkpt>
      <trkpt lat="45.99595" lon="3.79828">
        <ele>1098</ele>
        <time>2015-08-05T05:48:54Z</time>
      </trkpt>
      <trkpt lat="45.99592" lon="3.79829">
        <ele>1098</ele>
        <time>2015-08-05T05:48:56Z</time>
      </trkpt>
      <trkpt lat="45.9958" lon="3.79826">
        <ele>1098</ele>
        <time>2015-08-05T05:49:03Z</time>
      </trkpt>
      <trkpt lat="45.99574" lon="3.79828">
        <ele>1098</ele>
        <time>2015-08-05T05:49:07Z</time>
      </trkpt>
      <trkpt lat="45.9957" lon="3.79831">
        <ele>1098</ele>
        <time>2015-08-05T05:49:11Z</time>
      </trkpt>
      <trkpt lat="45.99569" lon="3.79832">
        <ele>1098</ele>
        <time>2015-08-05T05:49:13Z</time>
      </trkpt>
      <trkpt lat="45.99566" lon="3.79835">
        <ele>1098</ele>
        <time>2015-08-05T05:49:15Z</time>
      </trkpt>
      <trkpt lat="45.99563" lon="3.79837">
        <ele>1098</ele>
        <time>2015-08-05T05:49:18Z</time>
      </trkpt>
      <trkpt lat="45.99561" lon="3.79836">
        <ele>1098</ele>
        <time>2015-08-05T05:49:20Z</time>
      </trkpt>
      <trkpt lat="45.9956" lon="3.79837">
        <ele>1098</ele>
        <time>2015-08-05T05:49:22Z</time>
      </trkpt>
      <trkpt lat="45.99558" lon="3.79837">
        <ele>1098</ele>
        <time>2015-08-05T05:49:24Z</time>
      </trkpt>
      <trkpt lat="45.99555" lon="3.79839">
        <ele>1097</ele>
        <time>2015-08-05T05:49:27Z</time>
      </trkpt>
      <trkpt lat="45.99547" lon="3.79839">
        <ele>1096</ele>
        <time>2015-08-05T05:49:33Z</time>
      </trkpt>
      <trkpt lat="45.99541" lon="3.79843">
        <ele>1093</ele>
        <time>2015-08-05T05:49:39Z</time>
      </trkpt>
      <trkpt lat="45.99539" lon="3.79844">
        <ele>1093</ele>
        <time>2015-08-05T05:49:41Z</time>
      </trkpt>
      <trkpt lat="45.99535" lon="3.79847">
        <ele>1093</ele>
        <time>2015-08-05T05:49:45Z</time>
      </trkpt>
      <trkpt lat="45.99533" lon="3.79848">
        <ele>1092</ele>
        <time>2015-08-05T05:49:47Z</time>
      </trkpt>
      <trkpt lat="45.9953" lon="3.79848">
        <ele>1092</ele>
        <time>2015-08-05T05:49:49Z</time>
      </trkpt>
      <trkpt lat="45.99527" lon="3.79851">
        <ele>1092</ele>
        <time>2015-08-05T05:49:52Z</time>
      </trkpt>
      <trkpt lat="45.99525" lon="3.79852">
        <ele>1091</ele>
        <time>2015-08-05T05:49:54Z</time>
      </trkpt>
      <trkpt lat="45.99521" lon="3.79853">
        <ele>1090</ele>
        <time>2015-08-05T05:49:57Z</time>
      </trkpt>
      <trkpt lat="45.99507" lon="3.79852">
        <ele>1090</ele>
        <time>2015-08-05T05:50:05Z</time>
      </trkpt>
      <trkpt lat="45.99501" lon="3.79851">
        <ele>1090</ele>
        <time>2015-08-05T05:50:09Z</time>
      </trkpt>
      <trkpt lat="45.99498" lon="3.79852">
        <ele>1090</ele>
        <time>2015-08-05T05:50:12Z</time>
      </trkpt>
      <trkpt lat="45.99496" lon="3.79853">
        <ele>1090</ele>
        <time>2015-08-05T05:50:14Z</time>
      </trkpt>
      <trkpt lat="45.99491" lon="3.79855">
        <ele>1090</ele>
        <time>2015-08-05T05:50:19Z</time>
      </trkpt>
      <trkpt lat="45.99486" lon="3.79858">
        <ele>1090</ele>
        <time>2015-08-05T05:50:24Z</time>
      </trkpt>
      <trkpt lat="45.99478" lon="3.79856">
        <ele>1090</ele>
        <time>2015-08-05T05:50:30Z</time>
      </trkpt>
      <trkpt lat="45.99472" lon="3.79854">
        <ele>1090</ele>
        <time>2015-08-05T05:50:34Z</time>
      </trkpt>
      <trkpt lat="45.99466" lon="3.79855">
        <ele>1090</ele>
        <time>2015-08-05T05:50:38Z</time>
      </trkpt>
      <trkpt lat="45.9946" lon="3.79854">
        <ele>1090</ele>
        <time>2015-08-05T05:50:42Z</time>
      </trkpt>
      <trkpt lat="45.99458" lon="3.79856">
        <ele>1090</ele>
        <time>2015-08-05T05:50:44Z</time>
      </trkpt>
      <trkpt lat="45.9945" lon="3.79855">
        <ele>1090</ele>
        <time>2015-08-05T05:50:50Z</time>
      </trkpt>
      <trkpt lat="45.99448" lon="3.79854">
        <ele>1090</ele>
        <time>2015-08-05T05:50:52Z</time>
      </trkpt>
      <trkpt lat="45.99444" lon="3.79854">
        <ele>1090</ele>
        <time>2015-08-05T05:50:56Z</time>
      </trkpt>
      <trkpt lat="45.99441" lon="3.79853">
        <ele>1090</ele>
        <time>2015-08-05T05:50:58Z</time>
      </trkpt>
      <trkpt lat="45.99437" lon="3.79853">
        <ele>1090</ele>
        <time>2015-08-05T05:51:01Z</time>
      </trkpt>
      <trkpt lat="45.99435" lon="3.79854">
        <ele>1090</ele>
        <time>2015-08-05T05:51:03Z</time>
      </trkpt>
      <trkpt lat="45.9943" lon="3.79855">
        <ele>1090</ele>
        <time>2015-08-05T05:51:08Z</time>
      </trkpt>
      <trkpt lat="45.99426" lon="3.79855">
        <ele>1090</ele>
        <time>2015-08-05T05:51:10Z</time>
      </trkpt>
      <trkpt lat="45.9942" lon="3.79857">
        <ele>1090</ele>
        <time>2015-08-05T05:51:15Z</time>
      </trkpt>
      <trkpt lat="45.99419" lon="3.79858">
        <ele>1089</ele>
        <time>2015-08-05T05:51:17Z</time>
      </trkpt>
      <trkpt lat="45.99416" lon="3.79859">
        <ele>1088</ele>
        <time>2015-08-05T05:51:19Z</time>
      </trkpt>
      <trkpt lat="45.99414" lon="3.79862">
        <ele>1086</ele>
        <time>2015-08-05T05:51:22Z</time>
      </trkpt>
      <trkpt lat="45.99408" lon="3.79862">
        <ele>1085</ele>
        <time>2015-08-05T05:51:26Z</time>
      </trkpt>
      <trkpt lat="45.99405" lon="3.79862">
        <ele>1085</ele>
        <time>2015-08-05T05:51:28Z</time>
      </trkpt>
      <trkpt lat="45.99401" lon="3.7986">
        <ele>1085</ele>
        <time>2015-08-05T05:51:30Z</time>
      </trkpt>
      <trkpt lat="45.99398" lon="3.7986">
        <ele>1085</ele>
        <time>2015-08-05T05:51:32Z</time>
      </trkpt>
      <trkpt lat="45.99395" lon="3.79861">
        <ele>1085</ele>
        <time>2015-08-05T05:51:35Z</time>
      </trkpt>
      <trkpt lat="45.99392" lon="3.7986">
        <ele>1086</ele>
        <time>2015-08-05T05:51:37Z</time>
      </trkpt>
      <trkpt lat="45.99387" lon="3.79866">
        <ele>1087</ele>
        <time>2015-08-05T05:51:42Z</time>
      </trkpt>
      <trkpt lat="45.99382" lon="3.79867">
        <ele>1087</ele>
        <time>2015-08-05T05:51:47Z</time>
      </trkpt>
      <trkpt lat="45.99378" lon="3.79868">
        <ele>1087</ele>
        <time>2015-08-05T05:51:50Z</time>
      </trkpt>
      <trkpt lat="45.99376" lon="3.79869">
        <ele>1087</ele>
        <time>2015-08-05T05:51:52Z</time>
      </trkpt>
      <trkpt lat="45.99374" lon="3.79868">
        <ele>1087</ele>
        <time>2015-08-05T05:51:54Z</time>
      </trkpt>
      <trkpt lat="45.99364" lon="3.79872">
        <ele>1087</ele>
        <time>2015-08-05T05:52:02Z</time>
      </trkpt>
      <trkpt lat="45.99362" lon="3.79872">
        <ele>1087</ele>
        <time>2015-08-05T05:52:04Z</time>
      </trkpt>
      <trkpt lat="45.99356" lon="3.79873">
        <ele>1087</ele>
        <time>2015-08-05T05:52:09Z</time>
      </trkpt>
      <trkpt lat="45.99351" lon="3.79876">
        <ele>1087</ele>
        <time>2015-08-05T05:52:14Z</time>
      </trkpt>
      <trkpt lat="45.99348" lon="3.79876">
        <ele>1087</ele>
        <time>2015-08-05T05:52:17Z</time>
      </trkpt>
      <trkpt lat="45.99346" lon="3.79877">
        <ele>1087</ele>
        <time>2015-08-05T05:52:19Z</time>
      </trkpt>
      <trkpt lat="45.9934" lon="3.79876">
        <ele>1087</ele>
        <time>2015-08-05T05:52:23Z</time>
      </trkpt>
      <trkpt lat="45.99337" lon="3.79877">
        <ele>1087</ele>
        <time>2015-08-05T05:52:26Z</time>
      </trkpt>
      <trkpt lat="45.99328" lon="3.79879">
        <ele>1087</ele>
        <time>2015-08-05T05:52:34Z</time>
      </trkpt>
      <trkpt lat="45.99325" lon="3.79879">
        <ele>1087</ele>
        <time>2015-08-05T05:52:36Z</time>
      </trkpt>
      <trkpt lat="45.99321" lon="3.79879">
        <ele>1087</ele>
        <time>2015-08-05T05:52:42Z</time>
      </trkpt>
      <trkpt lat="45.99319" lon="3.79881">
        <ele>1087</ele>
        <time>2015-08-05T05:52:44Z</time>
      </trkpt>
      <trkpt lat="45.99317" lon="3.79881">
        <ele>1087</ele>
        <time>2015-08-05T05:52:46Z</time>
      </trkpt>
      <trkpt lat="45.99314" lon="3.79883">
        <ele>1087</ele>
        <time>2015-08-05T05:52:48Z</time>
      </trkpt>
      <trkpt lat="45.99311" lon="3.79884">
        <ele>1087</ele>
        <time>2015-08-05T05:52:51Z</time>
      </trkpt>
      <trkpt lat="45.99309" lon="3.79885">
        <ele>1087</ele>
        <time>2015-08-05T05:52:53Z</time>
      </trkpt>
      <trkpt lat="45.99305" lon="3.79889">
        <ele>1087</ele>
        <time>2015-08-05T05:52:57Z</time>
      </trkpt>
      <trkpt lat="45.993" lon="3.79896">
        <ele>1084</ele>
        <time>2015-08-05T05:53:03Z</time>
      </trkpt>
      <trkpt lat="45.99294" lon="3.799">
        <ele>1083</ele>
        <time>2015-08-05T05:53:08Z</time>
      </trkpt>
      <trkpt lat="45.99293" lon="3.79902">
        <ele>1083</ele>
        <time>2015-08-05T05:53:10Z</time>
      </trkpt>
      <trkpt lat="45.99288" lon="3.79906">
        <ele>1083</ele>
        <time>2015-08-05T05:53:14Z</time>
      </trkpt>
      <trkpt lat="45.99286" lon="3.79907">
        <ele>1083</ele>
        <time>2015-08-05T05:53:16Z</time>
      </trkpt>
      <trkpt lat="45.99282" lon="3.79907">
        <ele>1083</ele>
        <time>2015-08-05T05:53:18Z</time>
      </trkpt>
      <trkpt lat="45.99276" lon="3.79907">
        <ele>1084</ele>
        <time>2015-08-05T05:53:22Z</time>
      </trkpt>
      <trkpt lat="45.99274" lon="3.79909">
        <ele>1085</ele>
        <time>2015-08-05T05:53:24Z</time>
      </trkpt>
      <trkpt lat="45.99271" lon="3.7991">
        <ele>1087</ele>
        <time>2015-08-05T05:53:26Z</time>
      </trkpt>
      <trkpt lat="45.99269" lon="3.79912">
        <ele>1088</ele>
        <time>2015-08-05T05:53:28Z</time>
      </trkpt>
      <trkpt lat="45.99266" lon="3.79916">
        <ele>1089</ele>
        <time>2015-08-05T05:53:31Z</time>
      </trkpt>
      <trkpt lat="45.99264" lon="3.7992">
        <ele>1089</ele>
        <time>2015-08-05T05:53:35Z</time>
      </trkpt>
      <trkpt lat="45.99263" lon="3.79921">
        <ele>1089</ele>
        <time>2015-08-05T05:53:37Z</time>
      </trkpt>
      <trkpt lat="45.99263" lon="3.79924">
        <ele>1089</ele>
        <time>2015-08-05T05:53:39Z</time>
      </trkpt>
      <trkpt lat="45.9926" lon="3.79926">
        <ele>1089</ele>
        <time>2015-08-05T05:53:42Z</time>
      </trkpt>
      <trkpt lat="45.99258" lon="3.79933">
        <ele>1089</ele>
        <time>2015-08-05T05:53:46Z</time>
      </trkpt>
      <trkpt lat="45.99257" lon="3.79936">
        <ele>1089</ele>
        <time>2015-08-05T05:53:48Z</time>
      </trkpt>
      <trkpt lat="45.99255" lon="3.79939">
        <ele>1089</ele>
        <time>2015-08-05T05:53:50Z</time>
      </trkpt>
      <trkpt lat="45.99255" lon="3.79943">
        <ele>1089</ele>
        <time>2015-08-05T05:53:52Z</time>
      </trkpt>
      <trkpt lat="45.99254" lon="3.79948">
        <ele>1089</ele>
        <time>2015-08-05T05:53:55Z</time>
      </trkpt>
      <trkpt lat="45.99251" lon="3.79955">
        <ele>1089</ele>
        <time>2015-08-05T05:54:00Z</time>
      </trkpt>
      <trkpt lat="45.99252" lon="3.79958">
        <ele>1089</ele>
        <time>2015-08-05T05:54:02Z</time>
      </trkpt>
      <trkpt lat="45.9925" lon="3.79959">
        <ele>1088</ele>
        <time>2015-08-05T05:54:04Z</time>
      </trkpt>
      <trkpt lat="45.99244" lon="3.79967">
        <ele>1088</ele>
        <time>2015-08-05T05:54:11Z</time>
      </trkpt>
      <trkpt lat="45.99244" lon="3.79973">
        <ele>1088</ele>
        <time>2015-08-05T05:54:14Z</time>
      </trkpt>
      <trkpt lat="45.99243" lon="3.79975">
        <ele>1088</ele>
        <time>2015-08-05T05:54:16Z</time>
      </trkpt>
      <trkpt lat="45.99242" lon="3.79978">
        <ele>1088</ele>
        <time>2015-08-05T05:54:18Z</time>
      </trkpt>
      <trkpt lat="45.99241" lon="3.79983">
        <ele>1088</ele>
        <time>2015-08-05T05:54:21Z</time>
      </trkpt>
      <trkpt lat="45.99239" lon="3.79989">
        <ele>1088</ele>
        <time>2015-08-05T05:54:25Z</time>
      </trkpt>
      <trkpt lat="45.99238" lon="3.79993">
        <ele>1088</ele>
        <time>2015-08-05T05:54:27Z</time>
      </trkpt>
      <trkpt lat="45.99238" lon="3.79997">
        <ele>1088</ele>
        <time>2015-08-05T05:54:29Z</time>
      </trkpt>
      <trkpt lat="45.99238" lon="3.80001">
        <ele>1088</ele>
        <time>2015-08-05T05:54:31Z</time>
      </trkpt>
      <trkpt lat="45.99235" lon="3.80009">
        <ele>1088</ele>
        <time>2015-08-05T05:54:35Z</time>
      </trkpt>
      <trkpt lat="45.99234" lon="3.80011">
        <ele>1088</ele>
        <time>2015-08-05T05:54:37Z</time>
      </trkpt>
      <trkpt lat="45.99232" lon="3.80013">
        <ele>1088</ele>
        <time>2015-08-05T05:54:40Z</time>
      </trkpt>
      <trkpt lat="45.99231" lon="3.80017">
        <ele>1088</ele>
        <time>2015-08-05T05:54:43Z</time>
      </trkpt>
      <trkpt lat="45.99229" lon="3.80023">
        <ele>1088</ele>
        <time>2015-08-05T05:54:46Z</time>
      </trkpt>
      <trkpt lat="45.99228" lon="3.80026">
        <ele>1088</ele>
        <time>2015-08-05T05:54:48Z</time>
      </trkpt>
      <trkpt lat="45.99225" lon="3.80031">
        <ele>1090</ele>
        <time>2015-08-05T05:54:54Z</time>
      </trkpt>
      <trkpt lat="45.99223" lon="3.80037">
        <ele>1092</ele>
        <time>2015-08-05T05:54:59Z</time>
      </trkpt>
      <trkpt lat="45.99221" lon="3.80044">
        <ele>1093</ele>
        <time>2015-08-05T05:55:02Z</time>
      </trkpt>
      <trkpt lat="45.99215" lon="3.80056">
        <ele>1096</ele>
        <time>2015-08-05T05:55:11Z</time>
      </trkpt>
      <trkpt lat="45.99215" lon="3.80058">
        <ele>1096</ele>
        <time>2015-08-05T05:55:13Z</time>
      </trkpt>
      <trkpt lat="45.99215" lon="3.80065">
        <ele>1096</ele>
        <time>2015-08-05T05:55:18Z</time>
      </trkpt>
      <trkpt lat="45.99212" lon="3.80069">
        <ele>1096</ele>
        <time>2015-08-05T05:55:23Z</time>
      </trkpt>
      <trkpt lat="45.99211" lon="3.80073">
        <ele>1096</ele>
        <time>2015-08-05T05:55:25Z</time>
      </trkpt>
      <trkpt lat="45.99211" lon="3.80082">
        <ele>1096</ele>
        <time>2015-08-05T05:55:29Z</time>
      </trkpt>
      <trkpt lat="45.99211" lon="3.80084">
        <ele>1096</ele>
        <time>2015-08-05T05:55:31Z</time>
      </trkpt>
      <trkpt lat="45.9921" lon="3.80088">
        <ele>1096</ele>
        <time>2015-08-05T05:55:33Z</time>
      </trkpt>
      <trkpt lat="45.99208" lon="3.8009">
        <ele>1096</ele>
        <time>2015-08-05T05:55:35Z</time>
      </trkpt>
      <trkpt lat="45.99207" lon="3.80095">
        <ele>1096</ele>
        <time>2015-08-05T05:55:38Z</time>
      </trkpt>
      <trkpt lat="45.99204" lon="3.80101">
        <ele>1096</ele>
        <time>2015-08-05T05:55:43Z</time>
      </trkpt>
      <trkpt lat="45.99203" lon="3.80108">
        <ele>1095</ele>
        <time>2015-08-05T05:55:48Z</time>
      </trkpt>
      <trkpt lat="45.99201" lon="3.80114">
        <ele>1095</ele>
        <time>2015-08-05T05:55:51Z</time>
      </trkpt>
      <trkpt lat="45.99202" lon="3.80116">
        <ele>1094</ele>
        <time>2015-08-05T05:55:53Z</time>
      </trkpt>
      <trkpt lat="45.99199" lon="3.80123">
        <ele>1094</ele>
        <time>2015-08-05T05:55:59Z</time>
      </trkpt>
      <trkpt lat="45.99199" lon="3.80128">
        <ele>1094</ele>
        <time>2015-08-05T05:56:01Z</time>
      </trkpt>
      <trkpt lat="45.99199" lon="3.80134">
        <ele>1094</ele>
        <time>2015-08-05T05:56:03Z</time>
      </trkpt>
      <trkpt lat="45.99198" lon="3.80139">
        <ele>1092</ele>
        <time>2015-08-05T05:56:06Z</time>
      </trkpt>
      <trkpt lat="45.99198" lon="3.80144">
        <ele>1090</ele>
        <time>2015-08-05T05:56:09Z</time>
      </trkpt>
      <trkpt lat="45.99197" lon="3.8015">
        <ele>1089</ele>
        <time>2015-08-05T05:56:11Z</time>
      </trkpt>
      <trkpt lat="45.99193" lon="3.80159">
        <ele>1089</ele>
        <time>2015-08-05T05:56:16Z</time>
      </trkpt>
      <trkpt lat="45.99191" lon="3.80167">
        <ele>1089</ele>
        <time>2015-08-05T05:56:20Z</time>
      </trkpt>
      <trkpt lat="45.9919" lon="3.80173">
        <ele>1090</ele>
        <time>2015-08-05T05:56:23Z</time>
      </trkpt>
      <trkpt lat="45.99191" lon="3.80178">
        <ele>1090</ele>
        <time>2015-08-05T05:56:25Z</time>
      </trkpt>
      <trkpt lat="45.9919" lon="3.80182">
        <ele>1090</ele>
        <time>2015-08-05T05:56:28Z</time>
      </trkpt>
      <trkpt lat="45.99189" lon="3.80186">
        <ele>1090</ele>
        <time>2015-08-05T05:56:31Z</time>
      </trkpt>
      <trkpt lat="45.99189" lon="3.8019">
        <ele>1090</ele>
        <time>2015-08-05T05:56:34Z</time>
      </trkpt>
      <trkpt lat="45.99189" lon="3.80193">
        <ele>1090</ele>
        <time>2015-08-05T05:56:36Z</time>
      </trkpt>
      <trkpt lat="45.9919" lon="3.80198">
        <ele>1090</ele>
        <time>2015-08-05T05:56:39Z</time>
      </trkpt>
      <trkpt lat="45.99188" lon="3.80203">
        <ele>1090</ele>
        <time>2015-08-05T05:56:42Z</time>
      </trkpt>
      <trkpt lat="45.99186" lon="3.80211">
        <ele>1090</ele>
        <time>2015-08-05T05:56:47Z</time>
      </trkpt>
      <trkpt lat="45.99186" lon="3.80217">
        <ele>1090</ele>
        <time>2015-08-05T05:56:50Z</time>
      </trkpt>
      <trkpt lat="45.99186" lon="3.80221">
        <ele>1090</ele>
        <time>2015-08-05T05:56:53Z</time>
      </trkpt>
      <trkpt lat="45.99186" lon="3.80225">
        <ele>1090</ele>
        <time>2015-08-05T05:56:55Z</time>
      </trkpt>
      <trkpt lat="45.99187" lon="3.80237">
        <ele>1088</ele>
        <time>2015-08-05T05:57:03Z</time>
      </trkpt>
      <trkpt lat="45.99186" lon="3.80242">
        <ele>1088</ele>
        <time>2015-08-05T05:57:06Z</time>
      </trkpt>
      <trkpt lat="45.99184" lon="3.80252">
        <ele>1088</ele>
        <time>2015-08-05T05:57:11Z</time>
      </trkpt>
      <trkpt lat="45.99182" lon="3.80267">
        <ele>1088</ele>
        <time>2015-08-05T05:57:19Z</time>
      </trkpt>
      <trkpt lat="45.9918" lon="3.80278">
        <ele>1088</ele>
        <time>2015-08-05T05:57:25Z</time>
      </trkpt>
      <trkpt lat="45.9918" lon="3.80281">
        <ele>1088</ele>
        <time>2015-08-05T05:57:27Z</time>
      </trkpt>
      <trkpt lat="45.99176" lon="3.80292">
        <ele>1088</ele>
        <time>2015-08-05T05:57:33Z</time>
      </trkpt>
      <trkpt lat="45.99175" lon="3.80296">
        <ele>1089</ele>
        <time>2015-08-05T05:57:36Z</time>
      </trkpt>
      <trkpt lat="45.99176" lon="3.80303">
        <ele>1090</ele>
        <time>2015-08-05T05:57:48Z</time>
      </trkpt>
      <trkpt lat="45.99179" lon="3.80305">
        <ele>1090</ele>
        <time>2015-08-05T05:57:55Z</time>
      </trkpt>
      <trkpt lat="45.99179" lon="3.80307">
        <ele>1090</ele>
        <time>2015-08-05T05:57:58Z</time>
      </trkpt>
      <trkpt lat="45.99178" lon="3.80311">
        <ele>1090</ele>
        <time>2015-08-05T05:58:03Z</time>
      </trkpt>
      <trkpt lat="45.99175" lon="3.80311">
        <ele>1090</ele>
        <time>2015-08-05T05:58:07Z</time>
      </trkpt>
      <trkpt lat="45.99174" lon="3.8031">
        <ele>1090</ele>
        <time>2015-08-05T05:58:09Z</time>
      </trkpt>
      <trkpt lat="45.99172" lon="3.80309">
        <ele>1090</ele>
        <time>2015-08-05T05:58:13Z</time>
      </trkpt>
      <trkpt lat="45.99172" lon="3.80311">
        <ele>1091</ele>
        <time>2015-08-05T05:58:20Z</time>
      </trkpt>
      <trkpt lat="45.99172" lon="3.80314">
        <ele>1091</ele>
        <time>2015-08-05T05:58:23Z</time>
      </trkpt>
      <trkpt lat="45.99171" lon="3.80314">
        <ele>1092</ele>
        <time>2015-08-05T05:58:30Z</time>
      </trkpt>
      <trkpt lat="45.99171" lon="3.80312">
        <ele>1092</ele>
        <time>2015-08-05T05:58:33Z</time>
      </trkpt>
      <trkpt lat="45.99172" lon="3.8031">
        <ele>1092</ele>
        <time>2015-08-05T05:58:40Z</time>
      </trkpt>
      <trkpt lat="45.99171" lon="3.80309">
        <ele>1092</ele>
        <time>2015-08-05T05:58:43Z</time>
      </trkpt>
      <trkpt lat="45.99173" lon="3.80309">
        <ele>1092</ele>
        <time>2015-08-05T05:58:48Z</time>
      </trkpt>
      <trkpt lat="45.99175" lon="3.80308">
        <ele>1092</ele>
        <time>2015-08-05T05:58:57Z</time>
      </trkpt>
      <trkpt lat="45.99176" lon="3.80306">
        <ele>1092</ele>
        <time>2015-08-05T05:59:03Z</time>
      </trkpt>
      <trkpt lat="45.99177" lon="3.80306">
        <ele>1092</ele>
        <time>2015-08-05T05:59:09Z</time>
      </trkpt>
      <trkpt lat="45.99177" lon="3.80304">
        <ele>1092</ele>
        <time>2015-08-05T05:59:19Z</time>
      </trkpt>
      <trkpt lat="45.99176" lon="3.80302">
        <ele>1092</ele>
        <time>2015-08-05T05:59:22Z</time>
      </trkpt>
      <trkpt lat="45.99174" lon="3.80301">
        <ele>1092</ele>
        <time>2015-08-05T05:59:29Z</time>
      </trkpt>
      <trkpt lat="45.99177" lon="3.80302">
        <ele>1092</ele>
        <time>2015-08-05T05:59:40Z</time>
      </trkpt>
      <trkpt lat="45.99175" lon="3.803">
        <ele>1092</ele>
        <time>2015-08-05T05:59:51Z</time>
      </trkpt>
      <trkpt lat="45.99175" lon="3.80302">
        <ele>1092</ele>
        <time>2015-08-05T05:59:58Z</time>
      </trkpt>
      <trkpt lat="45.99175" lon="3.80304">
        <ele>1092</ele>
        <time>2015-08-05T06:00:02Z</time>
      </trkpt>
      <trkpt lat="45.99176" lon="3.80306">
        <ele>1092</ele>
        <time>2015-08-05T06:00:06Z</time>
      </trkpt>
      <trkpt lat="45.99176" lon="3.80307">
        <ele>1092</ele>
        <time>2015-08-05T06:00:09Z</time>
      </trkpt>
      <trkpt lat="45.99176" lon="3.80309">
        <ele>1092</ele>
        <time>2015-08-05T06:00:12Z</time>
      </trkpt>
      <trkpt lat="45.99176" lon="3.8031">
        <ele>1091</ele>
        <time>2015-08-05T06:00:14Z</time>
      </trkpt>
      <trkpt lat="45.99175" lon="3.8031">
        <ele>1091</ele>
        <time>2015-08-05T06:00:16Z</time>
      </trkpt>
      <trkpt lat="45.99176" lon="3.80308">
        <ele>1091</ele>
        <time>2015-08-05T06:00:20Z</time>
      </trkpt>
      <trkpt lat="45.99175" lon="3.80304">
        <ele>1091</ele>
        <time>2015-08-05T06:00:25Z</time>
      </trkpt>
      <trkpt lat="45.99176" lon="3.80304">
        <ele>1091</ele>
        <time>2015-08-05T06:00:27Z</time>
      </trkpt>
      <trkpt lat="45.99177" lon="3.80306">
        <ele>1091</ele>
        <time>2015-08-05T06:00:34Z</time>
      </trkpt>
      <trkpt lat="45.99178" lon="3.80304">
        <ele>1091</ele>
        <time>2015-08-05T06:00:44Z</time>
      </trkpt>
      <trkpt lat="45.99178" lon="3.80301">
        <ele>1091</ele>
        <time>2015-08-05T06:00:47Z</time>
      </trkpt>
      <trkpt lat="45.99177" lon="3.80303">
        <ele>1091</ele>
        <time>2015-08-05T06:01:06Z</time>
      </trkpt>
      <trkpt lat="45.99174" lon="3.80308">
        <ele>1091</ele>
        <time>2015-08-05T06:01:16Z</time>
      </trkpt>
      <trkpt lat="45.99175" lon="3.80308">
        <ele>1091</ele>
        <time>2015-08-05T06:01:19Z</time>
      </trkpt>
      <trkpt lat="45.99175" lon="3.8031">
        <ele>1091</ele>
        <time>2015-08-05T06:01:25Z</time>
      </trkpt>
      <trkpt lat="45.99173" lon="3.80317">
        <ele>1091</ele>
        <time>2015-08-05T06:01:29Z</time>
      </trkpt>
      <trkpt lat="45.99173" lon="3.8032">
        <ele>1091</ele>
        <time>2015-08-05T06:01:31Z</time>
      </trkpt>
      <trkpt lat="45.99173" lon="3.80325">
        <ele>1091</ele>
        <time>2015-08-05T06:01:33Z</time>
      </trkpt>
      <trkpt lat="45.99173" lon="3.80328">
        <ele>1091</ele>
        <time>2015-08-05T06:01:35Z</time>
      </trkpt>
      <trkpt lat="45.99173" lon="3.80333">
        <ele>1091</ele>
        <time>2015-08-05T06:01:39Z</time>
      </trkpt>
      <trkpt lat="45.99173" lon="3.80336">
        <ele>1091</ele>
        <time>2015-08-05T06:01:41Z</time>
      </trkpt>
      <trkpt lat="45.99173" lon="3.8034">
        <ele>1091</ele>
        <time>2015-08-05T06:01:43Z</time>
      </trkpt>
      <trkpt lat="45.99171" lon="3.80346">
        <ele>1091</ele>
        <time>2015-08-05T06:01:47Z</time>
      </trkpt>
      <trkpt lat="45.99171" lon="3.80353">
        <ele>1091</ele>
        <time>2015-08-05T06:01:50Z</time>
      </trkpt>
      <trkpt lat="45.9917" lon="3.80363">
        <ele>1091</ele>
        <time>2015-08-05T06:01:55Z</time>
      </trkpt>
      <trkpt lat="45.99169" lon="3.80366">
        <ele>1091</ele>
        <time>2015-08-05T06:01:57Z</time>
      </trkpt>
      <trkpt lat="45.99165" lon="3.8038">
        <ele>1091</ele>
        <time>2015-08-05T06:02:07Z</time>
      </trkpt>
      <trkpt lat="45.99165" lon="3.80389">
        <ele>1091</ele>
        <time>2015-08-05T06:02:13Z</time>
      </trkpt>
      <trkpt lat="45.99163" lon="3.80394">
        <ele>1091</ele>
        <time>2015-08-05T06:02:16Z</time>
      </trkpt>
      <trkpt lat="45.99162" lon="3.80399">
        <ele>1091</ele>
        <time>2015-08-05T06:02:18Z</time>
      </trkpt>
      <trkpt lat="45.99162" lon="3.80405">
        <ele>1091</ele>
        <time>2015-08-05T06:02:21Z</time>
      </trkpt>
      <trkpt lat="45.99162" lon="3.8041">
        <ele>1091</ele>
        <time>2015-08-05T06:02:23Z</time>
      </trkpt>
      <trkpt lat="45.99162" lon="3.80413">
        <ele>1091</ele>
        <time>2015-08-05T06:02:25Z</time>
      </trkpt>
      <trkpt lat="45.9916" lon="3.80425">
        <ele>1091</ele>
        <time>2015-08-05T06:02:31Z</time>
      </trkpt>
      <trkpt lat="45.99158" lon="3.80429">
        <ele>1091</ele>
        <time>2015-08-05T06:02:34Z</time>
      </trkpt>
      <trkpt lat="45.99157" lon="3.80435">
        <ele>1091</ele>
        <time>2015-08-05T06:02:38Z</time>
      </trkpt>
      <trkpt lat="45.99155" lon="3.80439">
        <ele>1091</ele>
        <time>2015-08-05T06:02:40Z</time>
      </trkpt>
      <trkpt lat="45.99153" lon="3.80444">
        <ele>1091</ele>
        <time>2015-08-05T06:02:42Z</time>
      </trkpt>
      <trkpt lat="45.99152" lon="3.80446">
        <ele>1091</ele>
        <time>2015-08-05T06:02:44Z</time>
      </trkpt>
      <trkpt lat="45.99149" lon="3.80455">
        <ele>1091</ele>
        <time>2015-08-05T06:02:50Z</time>
      </trkpt>
      <trkpt lat="45.99148" lon="3.80461">
        <ele>1091</ele>
        <time>2015-08-05T06:02:54Z</time>
      </trkpt>
      <trkpt lat="45.99147" lon="3.80465">
        <ele>1091</ele>
        <time>2015-08-05T06:02:56Z</time>
      </trkpt>
      <trkpt lat="45.99147" lon="3.80467">
        <ele>1091</ele>
        <time>2015-08-05T06:02:58Z</time>
      </trkpt>
      <trkpt lat="45.99146" lon="3.80469">
        <ele>1091</ele>
        <time>2015-08-05T06:03:00Z</time>
      </trkpt>
      <trkpt lat="45.99146" lon="3.80472">
        <ele>1091</ele>
        <time>2015-08-05T06:03:02Z</time>
      </trkpt>
      <trkpt lat="45.99145" lon="3.80477">
        <ele>1091</ele>
        <time>2015-08-05T06:03:05Z</time>
      </trkpt>
      <trkpt lat="45.99143" lon="3.80481">
        <ele>1091</ele>
        <time>2015-08-05T06:03:08Z</time>
      </trkpt>
      <trkpt lat="45.99142" lon="3.80484">
        <ele>1091</ele>
        <time>2015-08-05T06:03:11Z</time>
      </trkpt>
      <trkpt lat="45.9914" lon="3.80487">
        <ele>1092</ele>
        <time>2015-08-05T06:03:14Z</time>
      </trkpt>
      <trkpt lat="45.99138" lon="3.80492">
        <ele>1093</ele>
        <time>2015-08-05T06:03:16Z</time>
      </trkpt>
      <trkpt lat="45.99132" lon="3.80501">
        <ele>1098</ele>
        <time>2015-08-05T06:03:22Z</time>
      </trkpt>
      <trkpt lat="45.99131" lon="3.80507">
        <ele>1099</ele>
        <time>2015-08-05T06:03:26Z</time>
      </trkpt>
      <trkpt lat="45.99127" lon="3.80517">
        <ele>1100</ele>
        <time>2015-08-05T06:03:33Z</time>
      </trkpt>
      <trkpt lat="45.99126" lon="3.80521">
        <ele>1101</ele>
        <time>2015-08-05T06:03:35Z</time>
      </trkpt>
      <trkpt lat="45.99125" lon="3.80524">
        <ele>1102</ele>
        <time>2015-08-05T06:03:37Z</time>
      </trkpt>
      <trkpt lat="45.99124" lon="3.80527">
        <ele>1102</ele>
        <time>2015-08-05T06:03:39Z</time>
      </trkpt>
      <trkpt lat="45.99124" lon="3.80532">
        <ele>1103</ele>
        <time>2015-08-05T06:03:41Z</time>
      </trkpt>
      <trkpt lat="45.99123" lon="3.80536">
        <ele>1103</ele>
        <time>2015-08-05T06:03:43Z</time>
      </trkpt>
      <trkpt lat="45.99123" lon="3.80539">
        <ele>1103</ele>
        <time>2015-08-05T06:03:45Z</time>
      </trkpt>
      <trkpt lat="45.99121" lon="3.80543">
        <ele>1103</ele>
        <time>2015-08-05T06:03:47Z</time>
      </trkpt>
      <trkpt lat="45.99119" lon="3.80556">
        <ele>1103</ele>
        <time>2015-08-05T06:03:53Z</time>
      </trkpt>
      <trkpt lat="45.99118" lon="3.80559">
        <ele>1103</ele>
        <time>2015-08-05T06:03:56Z</time>
      </trkpt>
      <trkpt lat="45.99116" lon="3.80562">
        <ele>1102</ele>
        <time>2015-08-05T06:03:58Z</time>
      </trkpt>
      <trkpt lat="45.99116" lon="3.80569">
        <ele>1102</ele>
        <time>2015-08-05T06:04:03Z</time>
      </trkpt>
      <trkpt lat="45.99112" lon="3.80582">
        <ele>1102</ele>
        <time>2015-08-05T06:04:11Z</time>
      </trkpt>
      <trkpt lat="45.99112" lon="3.8059">
        <ele>1101</ele>
        <time>2015-08-05T06:04:16Z</time>
      </trkpt>
      <trkpt lat="45.9911" lon="3.80594">
        <ele>1099</ele>
        <time>2015-08-05T06:04:19Z</time>
      </trkpt>
      <trkpt lat="45.99109" lon="3.80599">
        <ele>1099</ele>
        <time>2015-08-05T06:04:21Z</time>
      </trkpt>
      <trkpt lat="45.99108" lon="3.80604">
        <ele>1099</ele>
        <time>2015-08-05T06:04:24Z</time>
      </trkpt>
      <trkpt lat="45.99108" lon="3.80608">
        <ele>1099</ele>
        <time>2015-08-05T06:04:26Z</time>
      </trkpt>
      <trkpt lat="45.99107" lon="3.80615">
        <ele>1098</ele>
        <time>2015-08-05T06:04:30Z</time>
      </trkpt>
      <trkpt lat="45.99106" lon="3.80617">
        <ele>1098</ele>
        <time>2015-08-05T06:04:40Z</time>
      </trkpt>
      <trkpt lat="45.99104" lon="3.8062">
        <ele>1098</ele>
        <time>2015-08-05T06:04:45Z</time>
      </trkpt>
      <trkpt lat="45.99105" lon="3.80626">
        <ele>1098</ele>
        <time>2015-08-05T06:04:50Z</time>
      </trkpt>
      <trkpt lat="45.99104" lon="3.80628">
        <ele>1098</ele>
        <time>2015-08-05T06:04:54Z</time>
      </trkpt>
      <trkpt lat="45.99104" lon="3.8063">
        <ele>1098</ele>
        <time>2015-08-05T06:04:56Z</time>
      </trkpt>
      <trkpt lat="45.99102" lon="3.80632">
        <ele>1098</ele>
        <time>2015-08-05T06:04:59Z</time>
      </trkpt>
      <trkpt lat="45.99102" lon="3.80636">
        <ele>1098</ele>
        <time>2015-08-05T06:05:01Z</time>
      </trkpt>
      <trkpt lat="45.99102" lon="3.80641">
        <ele>1098</ele>
        <time>2015-08-05T06:05:04Z</time>
      </trkpt>
      <trkpt lat="45.99102" lon="3.80645">
        <ele>1098</ele>
        <time>2015-08-05T06:05:06Z</time>
      </trkpt>
      <trkpt lat="45.991" lon="3.80655">
        <ele>1098</ele>
        <time>2015-08-05T06:05:11Z</time>
      </trkpt>
      <trkpt lat="45.991" lon="3.80658">
        <ele>1098</ele>
        <time>2015-08-05T06:05:13Z</time>
      </trkpt>
      <trkpt lat="45.99099" lon="3.80665">
        <ele>1098</ele>
        <time>2015-08-05T06:05:17Z</time>
      </trkpt>
      <trkpt lat="45.99099" lon="3.80673">
        <ele>1098</ele>
        <time>2015-08-05T06:05:21Z</time>
      </trkpt>
      <trkpt lat="45.991" lon="3.80678">
        <ele>1097</ele>
        <time>2015-08-05T06:05:23Z</time>
      </trkpt>
      <trkpt lat="45.99102" lon="3.80684">
        <ele>1096</ele>
        <time>2015-08-05T06:05:33Z</time>
      </trkpt>
      <trkpt lat="45.991" lon="3.8069">
        <ele>1096</ele>
        <time>2015-08-05T06:05:55Z</time>
      </trkpt>
      <trkpt lat="45.99097" lon="3.80693">
        <ele>1096</ele>
        <time>2015-08-05T06:05:59Z</time>
      </trkpt>
      <trkpt lat="45.99097" lon="3.80695">
        <ele>1096</ele>
        <time>2015-08-05T06:06:02Z</time>
      </trkpt>
      <trkpt lat="45.99099" lon="3.80697">
        <ele>1096</ele>
        <time>2015-08-05T06:06:07Z</time>
      </trkpt>
      <trkpt lat="45.99103" lon="3.80697">
        <ele>1096</ele>
        <time>2015-08-05T06:06:10Z</time>
      </trkpt>
      <trkpt lat="45.99104" lon="3.80697">
        <ele>1096</ele>
        <time>2015-08-05T06:06:12Z</time>
      </trkpt>
      <trkpt lat="45.99103" lon="3.80698">
        <ele>1095</ele>
        <time>2015-08-05T06:06:15Z</time>
      </trkpt>
      <trkpt lat="45.99101" lon="3.807">
        <ele>1094</ele>
        <time>2015-08-05T06:06:17Z</time>
      </trkpt>
      <trkpt lat="45.991" lon="3.80704">
        <ele>1093</ele>
        <time>2015-08-05T06:06:20Z</time>
      </trkpt>
      <trkpt lat="45.99101" lon="3.80708">
        <ele>1093</ele>
        <time>2015-08-05T06:06:24Z</time>
      </trkpt>
      <trkpt lat="45.99099" lon="3.80709">
        <ele>1093</ele>
        <time>2015-08-05T06:06:34Z</time>
      </trkpt>
      <trkpt lat="45.991" lon="3.80712">
        <ele>1095</ele>
        <time>2015-08-05T06:06:42Z</time>
      </trkpt>
      <trkpt lat="45.99098" lon="3.80713">
        <ele>1095</ele>
        <time>2015-08-05T06:06:46Z</time>
      </trkpt>
      <trkpt lat="45.99095" lon="3.80712">
        <ele>1095</ele>
        <time>2015-08-05T06:06:48Z</time>
      </trkpt>
      <trkpt lat="45.99092" lon="3.80714">
        <ele>1095</ele>
        <time>2015-08-05T06:06:51Z</time>
      </trkpt>
      <trkpt lat="45.99092" lon="3.80716">
        <ele>1095</ele>
        <time>2015-08-05T06:06:53Z</time>
      </trkpt>
      <trkpt lat="45.99094" lon="3.80719">
        <ele>1095</ele>
        <time>2015-08-05T06:06:57Z</time>
      </trkpt>
      <trkpt lat="45.99095" lon="3.80722">
        <ele>1095</ele>
        <time>2015-08-05T06:06:59Z</time>
      </trkpt>
      <trkpt lat="45.99095" lon="3.80723">
        <ele>1095</ele>
        <time>2015-08-05T06:07:01Z</time>
      </trkpt>
      <trkpt lat="45.99097" lon="3.80724">
        <ele>1095</ele>
        <time>2015-08-05T06:07:08Z</time>
      </trkpt>
      <trkpt lat="45.99096" lon="3.80726">
        <ele>1095</ele>
        <time>2015-08-05T06:07:22Z</time>
      </trkpt>
      <trkpt lat="45.99097" lon="3.80728">
        <ele>1095</ele>
        <time>2015-08-05T06:07:38Z</time>
      </trkpt>
      <trkpt lat="45.99098" lon="3.80728">
        <ele>1095</ele>
        <time>2015-08-05T06:07:49Z</time>
      </trkpt>
      <trkpt lat="45.99099" lon="3.80727">
        <ele>1095</ele>
        <time>2015-08-05T06:08:03Z</time>
      </trkpt>
      <trkpt lat="45.99097" lon="3.80728">
        <ele>1093</ele>
        <time>2015-08-05T06:08:15Z</time>
      </trkpt>
      <trkpt lat="45.99096" lon="3.8073">
        <ele>1093</ele>
        <time>2015-08-05T06:08:17Z</time>
      </trkpt>
      <trkpt lat="45.99096" lon="3.80735">
        <ele>1093</ele>
        <time>2015-08-05T06:08:22Z</time>
      </trkpt>
      <trkpt lat="45.99092" lon="3.80739">
        <ele>1096</ele>
        <time>2015-08-05T06:08:30Z</time>
      </trkpt>
      <trkpt lat="45.9909" lon="3.80738">
        <ele>1099</ele>
        <time>2015-08-05T06:08:33Z</time>
      </trkpt>
      <trkpt lat="45.99089" lon="3.80739">
        <ele>1102</ele>
        <time>2015-08-05T06:08:36Z</time>
      </trkpt>
      <trkpt lat="45.99089" lon="3.80745">
        <ele>1103</ele>
        <time>2015-08-05T06:08:38Z</time>
      </trkpt>
      <trkpt lat="45.99091" lon="3.80744">
        <ele>1103</ele>
        <time>2015-08-05T06:08:42Z</time>
      </trkpt>
      <trkpt lat="45.99092" lon="3.80735">
        <ele>1103</ele>
        <time>2015-08-05T06:08:46Z</time>
      </trkpt>
      <trkpt lat="45.99092" lon="3.80731">
        <ele>1103</ele>
        <time>2015-08-05T06:08:48Z</time>
      </trkpt>
      <trkpt lat="45.9909" lon="3.8073">
        <ele>1103</ele>
        <time>2015-08-05T06:08:50Z</time>
      </trkpt>
      <trkpt lat="45.99089" lon="3.80731">
        <ele>1103</ele>
        <time>2015-08-05T06:08:52Z</time>
      </trkpt>
      <trkpt lat="45.99088" lon="3.80734">
        <ele>1102</ele>
        <time>2015-08-05T06:08:54Z</time>
      </trkpt>
      <trkpt lat="45.99088" lon="3.80737">
        <ele>1101</ele>
        <time>2015-08-05T06:08:56Z</time>
      </trkpt>
      <trkpt lat="45.99088" lon="3.80746">
        <ele>1098</ele>
        <time>2015-08-05T06:09:02Z</time>
      </trkpt>
      <trkpt lat="45.99087" lon="3.8075">
        <ele>1097</ele>
        <time>2015-08-05T06:09:05Z</time>
      </trkpt>
      <trkpt lat="45.99087" lon="3.80752">
        <ele>1097</ele>
        <time>2015-08-05T06:09:07Z</time>
      </trkpt>
      <trkpt lat="45.99086" lon="3.80758">
        <ele>1097</ele>
        <time>2015-08-05T06:09:11Z</time>
      </trkpt>
      <trkpt lat="45.99086" lon="3.80761">
        <ele>1096</ele>
        <time>2015-08-05T06:09:13Z</time>
      </trkpt>
      <trkpt lat="45.99084" lon="3.80768">
        <ele>1096</ele>
        <time>2015-08-05T06:09:18Z</time>
      </trkpt>
      <trkpt lat="45.99083" lon="3.80777">
        <ele>1094</ele>
        <time>2015-08-05T06:09:23Z</time>
      </trkpt>
      <trkpt lat="45.99083" lon="3.80781">
        <ele>1094</ele>
        <time>2015-08-05T06:09:25Z</time>
      </trkpt>
      <trkpt lat="45.99082" lon="3.80789">
        <ele>1093</ele>
        <time>2015-08-05T06:09:29Z</time>
      </trkpt>
      <trkpt lat="45.99082" lon="3.80796">
        <ele>1092</ele>
        <time>2015-08-05T06:09:33Z</time>
      </trkpt>
      <trkpt lat="45.9908" lon="3.80801">
        <ele>1092</ele>
        <time>2015-08-05T06:09:36Z</time>
      </trkpt>
      <trkpt lat="45.99079" lon="3.80804">
        <ele>1092</ele>
        <time>2015-08-05T06:09:38Z</time>
      </trkpt>
      <trkpt lat="45.99079" lon="3.80811">
        <ele>1091</ele>
        <time>2015-08-05T06:09:43Z</time>
      </trkpt>
      <trkpt lat="45.99078" lon="3.80816">
        <ele>1091</ele>
        <time>2015-08-05T06:09:46Z</time>
      </trkpt>
      <trkpt lat="45.99077" lon="3.80819">
        <ele>1090</ele>
        <time>2015-08-05T06:09:48Z</time>
      </trkpt>
      <trkpt lat="45.99077" lon="3.80822">
        <ele>1090</ele>
        <time>2015-08-05T06:09:50Z</time>
      </trkpt>
      <trkpt lat="45.99076" lon="3.80829">
        <ele>1090</ele>
        <time>2015-08-05T06:09:55Z</time>
      </trkpt>
      <trkpt lat="45.99075" lon="3.80835">
        <ele>1090</ele>
        <time>2015-08-05T06:09:58Z</time>
      </trkpt>
      <trkpt lat="45.99075" lon="3.80838">
        <ele>1090</ele>
        <time>2015-08-05T06:10:00Z</time>
      </trkpt>
      <trkpt lat="45.99073" lon="3.8084">
        <ele>1090</ele>
        <time>2015-08-05T06:10:02Z</time>
      </trkpt>
      <trkpt lat="45.99074" lon="3.80844">
        <ele>1090</ele>
        <time>2015-08-05T06:10:04Z</time>
      </trkpt>
      <trkpt lat="45.99073" lon="3.80848">
        <ele>1090</ele>
        <time>2015-08-05T06:10:06Z</time>
      </trkpt>
      <trkpt lat="45.99073" lon="3.80851">
        <ele>1090</ele>
        <time>2015-08-05T06:10:08Z</time>
      </trkpt>
      <trkpt lat="45.99072" lon="3.80854">
        <ele>1090</ele>
        <time>2015-08-05T06:10:10Z</time>
      </trkpt>
      <trkpt lat="45.99071" lon="3.80858">
        <ele>1090</ele>
        <time>2015-08-05T06:10:12Z</time>
      </trkpt>
      <trkpt lat="45.99071" lon="3.80862">
        <ele>1090</ele>
        <time>2015-08-05T06:10:14Z</time>
      </trkpt>
      <trkpt lat="45.9907" lon="3.80876">
        <ele>1089</ele>
        <time>2015-08-05T06:10:21Z</time>
      </trkpt>
      <trkpt lat="45.99069" lon="3.80879">
        <ele>1089</ele>
        <time>2015-08-05T06:10:23Z</time>
      </trkpt>
      <trkpt lat="45.99068" lon="3.80882">
        <ele>1089</ele>
        <time>2015-08-05T06:10:25Z</time>
      </trkpt>
      <trkpt lat="45.99068" lon="3.80886">
        <ele>1089</ele>
        <time>2015-08-05T06:10:27Z</time>
      </trkpt>
      <trkpt lat="45.99066" lon="3.80893">
        <ele>1089</ele>
        <time>2015-08-05T06:10:31Z</time>
      </trkpt>
      <trkpt lat="45.99064" lon="3.80901">
        <ele>1089</ele>
        <time>2015-08-05T06:10:35Z</time>
      </trkpt>
      <trkpt lat="45.99064" lon="3.80905">
        <ele>1089</ele>
        <time>2015-08-05T06:10:37Z</time>
      </trkpt>
      <trkpt lat="45.99064" lon="3.80908">
        <ele>1089</ele>
        <time>2015-08-05T06:10:39Z</time>
      </trkpt>
      <trkpt lat="45.99064" lon="3.80912">
        <ele>1089</ele>
        <time>2015-08-05T06:10:41Z</time>
      </trkpt>
      <trkpt lat="45.99063" lon="3.80916">
        <ele>1089</ele>
        <time>2015-08-05T06:10:43Z</time>
      </trkpt>
      <trkpt lat="45.99063" lon="3.80928">
        <ele>1089</ele>
        <time>2015-08-05T06:10:49Z</time>
      </trkpt>
      <trkpt lat="45.99064" lon="3.80932">
        <ele>1089</ele>
        <time>2015-08-05T06:10:51Z</time>
      </trkpt>
      <trkpt lat="45.99064" lon="3.80939">
        <ele>1089</ele>
        <time>2015-08-05T06:10:55Z</time>
      </trkpt>
      <trkpt lat="45.99065" lon="3.80943">
        <ele>1089</ele>
        <time>2015-08-05T06:10:57Z</time>
      </trkpt>
      <trkpt lat="45.99064" lon="3.80946">
        <ele>1089</ele>
        <time>2015-08-05T06:10:59Z</time>
      </trkpt>
      <trkpt lat="45.99064" lon="3.80954">
        <ele>1089</ele>
        <time>2015-08-05T06:11:03Z</time>
      </trkpt>
      <trkpt lat="45.99065" lon="3.80967">
        <ele>1089</ele>
        <time>2015-08-05T06:11:09Z</time>
      </trkpt>
      <trkpt lat="45.99065" lon="3.80971">
        <ele>1089</ele>
        <time>2015-08-05T06:11:11Z</time>
      </trkpt>
      <trkpt lat="45.99065" lon="3.80976">
        <ele>1089</ele>
        <time>2015-08-05T06:11:13Z</time>
      </trkpt>
      <trkpt lat="45.99065" lon="3.8098">
        <ele>1089</ele>
        <time>2015-08-05T06:11:15Z</time>
      </trkpt>
      <trkpt lat="45.99065" lon="3.80984">
        <ele>1089</ele>
        <time>2015-08-05T06:11:17Z</time>
      </trkpt>
      <trkpt lat="45.99064" lon="3.80988">
        <ele>1089</ele>
        <time>2015-08-05T06:11:19Z</time>
      </trkpt>
      <trkpt lat="45.99064" lon="3.80993">
        <ele>1089</ele>
        <time>2015-08-05T06:11:21Z</time>
      </trkpt>
      <trkpt lat="45.99063" lon="3.80997">
        <ele>1090</ele>
        <time>2015-08-05T06:11:24Z</time>
      </trkpt>
      <trkpt lat="45.99062" lon="3.81001">
        <ele>1091</ele>
        <time>2015-08-05T06:11:26Z</time>
      </trkpt>
      <trkpt lat="45.99061" lon="3.81006">
        <ele>1093</ele>
        <time>2015-08-05T06:11:28Z</time>
      </trkpt>
      <trkpt lat="45.9906" lon="3.81014">
        <ele>1095</ele>
        <time>2015-08-05T06:11:32Z</time>
      </trkpt>
      <trkpt lat="45.99056" lon="3.81031">
        <ele>1097</ele>
        <time>2015-08-05T06:11:41Z</time>
      </trkpt>
      <trkpt lat="45.99057" lon="3.81035">
        <ele>1098</ele>
        <time>2015-08-05T06:11:43Z</time>
      </trkpt>
      <trkpt lat="45.99059" lon="3.81043">
        <ele>1098</ele>
        <time>2015-08-05T06:11:48Z</time>
      </trkpt>
      <trkpt lat="45.99062" lon="3.81053">
        <ele>1098</ele>
        <time>2015-08-05T06:11:53Z</time>
      </trkpt>
      <trkpt lat="45.99062" lon="3.81059">
        <ele>1098</ele>
        <time>2015-08-05T06:11:55Z</time>
      </trkpt>
      <trkpt lat="45.99061" lon="3.81063">
        <ele>1098</ele>
        <time>2015-08-05T06:11:58Z</time>
      </trkpt>
      <trkpt lat="45.99062" lon="3.81068">
        <ele>1098</ele>
        <time>2015-08-05T06:12:00Z</time>
      </trkpt>
      <trkpt lat="45.99063" lon="3.81071">
        <ele>1098</ele>
        <time>2015-08-05T06:12:02Z</time>
      </trkpt>
      <trkpt lat="45.99067" lon="3.81086">
        <ele>1098</ele>
        <time>2015-08-05T06:12:10Z</time>
      </trkpt>
      <trkpt lat="45.99068" lon="3.81091">
        <ele>1098</ele>
        <time>2015-08-05T06:12:14Z</time>
      </trkpt>
      <trkpt lat="45.9907" lon="3.81102">
        <ele>1098</ele>
        <time>2015-08-05T06:12:21Z</time>
      </trkpt>
      <trkpt lat="45.99072" lon="3.81106">
        <ele>1098</ele>
        <time>2015-08-05T06:12:23Z</time>
      </trkpt>
      <trkpt lat="45.99075" lon="3.8111">
        <ele>1097</ele>
        <time>2015-08-05T06:12:27Z</time>
      </trkpt>
      <trkpt lat="45.99075" lon="3.81112">
        <ele>1097</ele>
        <time>2015-08-05T06:12:29Z</time>
      </trkpt>
      <trkpt lat="45.99076" lon="3.81108">
        <ele>1097</ele>
        <time>2015-08-05T06:12:31Z</time>
      </trkpt>
      <trkpt lat="45.99076" lon="3.81104">
        <ele>1097</ele>
        <time>2015-08-05T06:12:33Z</time>
      </trkpt>
      <trkpt lat="45.99073" lon="3.81095">
        <ele>1097</ele>
        <time>2015-08-05T06:12:37Z</time>
      </trkpt>
      <trkpt lat="45.99072" lon="3.81092">
        <ele>1097</ele>
        <time>2015-08-05T06:12:39Z</time>
      </trkpt>
      <trkpt lat="45.9907" lon="3.81087">
        <ele>1097</ele>
        <time>2015-08-05T06:12:43Z</time>
      </trkpt>
      <trkpt lat="45.99068" lon="3.81086">
        <ele>1097</ele>
        <time>2015-08-05T06:12:46Z</time>
      </trkpt>
      <trkpt lat="45.99067" lon="3.81088">
        <ele>1097</ele>
        <time>2015-08-05T06:12:48Z</time>
      </trkpt>
      <trkpt lat="45.99067" lon="3.81092">
        <ele>1097</ele>
        <time>2015-08-05T06:12:50Z</time>
      </trkpt>
      <trkpt lat="45.9907" lon="3.81096">
        <ele>1097</ele>
        <time>2015-08-05T06:12:52Z</time>
      </trkpt>
      <trkpt lat="45.99074" lon="3.81104">
        <ele>1097</ele>
        <time>2015-08-05T06:12:57Z</time>
      </trkpt>
      <trkpt lat="45.99076" lon="3.81115">
        <ele>1097</ele>
        <time>2015-08-05T06:13:01Z</time>
      </trkpt>
      <trkpt lat="45.99081" lon="3.81122">
        <ele>1095</ele>
        <time>2015-08-05T06:13:05Z</time>
      </trkpt>
      <trkpt lat="45.99082" lon="3.81126">
        <ele>1095</ele>
        <time>2015-08-05T06:13:07Z</time>
      </trkpt>
      <trkpt lat="45.99083" lon="3.81131">
        <ele>1094</ele>
        <time>2015-08-05T06:13:09Z</time>
      </trkpt>
      <trkpt lat="45.99084" lon="3.81136">
        <ele>1094</ele>
        <time>2015-08-05T06:13:11Z</time>
      </trkpt>
      <trkpt lat="45.99086" lon="3.81145">
        <ele>1093</ele>
        <time>2015-08-05T06:13:16Z</time>
      </trkpt>
      <trkpt lat="45.99086" lon="3.81148">
        <ele>1093</ele>
        <time>2015-08-05T06:13:18Z</time>
      </trkpt>
      <trkpt lat="45.9909" lon="3.81156">
        <ele>1092</ele>
        <time>2015-08-05T06:13:23Z</time>
      </trkpt>
      <trkpt lat="45.99092" lon="3.81158">
        <ele>1092</ele>
        <time>2015-08-05T06:13:25Z</time>
      </trkpt>
      <trkpt lat="45.99094" lon="3.81166">
        <ele>1090</ele>
        <time>2015-08-05T06:13:29Z</time>
      </trkpt>
      <trkpt lat="45.99095" lon="3.81169">
        <ele>1090</ele>
        <time>2015-08-05T06:13:31Z</time>
      </trkpt>
      <trkpt lat="45.99099" lon="3.81177">
        <ele>1089</ele>
        <time>2015-08-05T06:13:35Z</time>
      </trkpt>
      <trkpt lat="45.99099" lon="3.81181">
        <ele>1089</ele>
        <time>2015-08-05T06:13:37Z</time>
      </trkpt>
      <trkpt lat="45.99102" lon="3.81192">
        <ele>1088</ele>
        <time>2015-08-05T06:13:44Z</time>
      </trkpt>
      <trkpt lat="45.99104" lon="3.81199">
        <ele>1088</ele>
        <time>2015-08-05T06:13:48Z</time>
      </trkpt>
      <trkpt lat="45.99105" lon="3.81203">
        <ele>1088</ele>
        <time>2015-08-05T06:13:50Z</time>
      </trkpt>
      <trkpt lat="45.99108" lon="3.81206">
        <ele>1088</ele>
        <time>2015-08-05T06:13:52Z</time>
      </trkpt>
      <trkpt lat="45.99111" lon="3.81209">
        <ele>1087</ele>
        <time>2015-08-05T06:13:54Z</time>
      </trkpt>
      <trkpt lat="45.99113" lon="3.81213">
        <ele>1086</ele>
        <time>2015-08-05T06:13:56Z</time>
      </trkpt>
      <trkpt lat="45.99115" lon="3.81218">
        <ele>1085</ele>
        <time>2015-08-05T06:13:59Z</time>
      </trkpt>
      <trkpt lat="45.99117" lon="3.81222">
        <ele>1084</ele>
        <time>2015-08-05T06:14:01Z</time>
      </trkpt>
      <trkpt lat="45.99125" lon="3.81239">
        <ele>1084</ele>
        <time>2015-08-05T06:14:10Z</time>
      </trkpt>
      <trkpt lat="45.99127" lon="3.81242">
        <ele>1084</ele>
        <time>2015-08-05T06:14:12Z</time>
      </trkpt>
      <trkpt lat="45.9913" lon="3.81244">
        <ele>1084</ele>
        <time>2015-08-05T06:14:14Z</time>
      </trkpt>
      <trkpt lat="45.99132" lon="3.81247">
        <ele>1084</ele>
        <time>2015-08-05T06:14:16Z</time>
      </trkpt>
      <trkpt lat="45.99133" lon="3.81252">
        <ele>1084</ele>
        <time>2015-08-05T06:14:18Z</time>
      </trkpt>
      <trkpt lat="45.99134" lon="3.81257">
        <ele>1084</ele>
        <time>2015-08-05T06:14:21Z</time>
      </trkpt>
      <trkpt lat="45.99135" lon="3.81261">
        <ele>1084</ele>
        <time>2015-08-05T06:14:23Z</time>
      </trkpt>
      <trkpt lat="45.99139" lon="3.81262">
        <ele>1084</ele>
        <time>2015-08-05T06:14:25Z</time>
      </trkpt>
      <trkpt lat="45.9914" lon="3.81266">
        <ele>1083</ele>
        <time>2015-08-05T06:14:27Z</time>
      </trkpt>
      <trkpt lat="45.99142" lon="3.81269">
        <ele>1083</ele>
        <time>2015-08-05T06:14:29Z</time>
      </trkpt>
      <trkpt lat="45.99144" lon="3.81273">
        <ele>1083</ele>
        <time>2015-08-05T06:14:31Z</time>
      </trkpt>
      <trkpt lat="45.99144" lon="3.81279">
        <ele>1083</ele>
        <time>2015-08-05T06:14:34Z</time>
      </trkpt>
      <trkpt lat="45.99146" lon="3.81281">
        <ele>1083</ele>
        <time>2015-08-05T06:14:37Z</time>
      </trkpt>
      <trkpt lat="45.99149" lon="3.81279">
        <ele>1083</ele>
        <time>2015-08-05T06:14:39Z</time>
      </trkpt>
      <trkpt lat="45.9915" lon="3.81281">
        <ele>1083</ele>
        <time>2015-08-05T06:14:42Z</time>
      </trkpt>
      <trkpt lat="45.9915" lon="3.81279">
        <ele>1083</ele>
        <time>2015-08-05T06:14:46Z</time>
      </trkpt>
      <trkpt lat="45.99147" lon="3.81276">
        <ele>1085</ele>
        <time>2015-08-05T06:14:48Z</time>
      </trkpt>
      <trkpt lat="45.99147" lon="3.81273">
        <ele>1086</ele>
        <time>2015-08-05T06:14:50Z</time>
      </trkpt>
      <trkpt lat="45.99149" lon="3.81268">
        <ele>1087</ele>
        <time>2015-08-05T06:14:52Z</time>
      </trkpt>
      <trkpt lat="45.99149" lon="3.81263">
        <ele>1088</ele>
        <time>2015-08-05T06:14:55Z</time>
      </trkpt>
      <trkpt lat="45.99151" lon="3.81261">
        <ele>1089</ele>
        <time>2015-08-05T06:14:59Z</time>
      </trkpt>
      <trkpt lat="45.99151" lon="3.81263">
        <ele>1089</ele>
        <time>2015-08-05T06:15:02Z</time>
      </trkpt>
      <trkpt lat="45.99149" lon="3.81269">
        <ele>1089</ele>
        <time>2015-08-05T06:15:04Z</time>
      </trkpt>
      <trkpt lat="45.99148" lon="3.81272">
        <ele>1089</ele>
        <time>2015-08-05T06:15:06Z</time>
      </trkpt>
      <trkpt lat="45.99147" lon="3.81276">
        <ele>1089</ele>
        <time>2015-08-05T06:15:08Z</time>
      </trkpt>
      <trkpt lat="45.99147" lon="3.81284">
        <ele>1089</ele>
        <time>2015-08-05T06:15:13Z</time>
      </trkpt>
      <trkpt lat="45.99146" lon="3.81286">
        <ele>1089</ele>
        <time>2015-08-05T06:15:15Z</time>
      </trkpt>
      <trkpt lat="45.99149" lon="3.81287">
        <ele>1089</ele>
        <time>2015-08-05T06:15:21Z</time>
      </trkpt>
      <trkpt lat="45.9915" lon="3.81285">
        <ele>1089</ele>
        <time>2015-08-05T06:15:24Z</time>
      </trkpt>
      <trkpt lat="45.9915" lon="3.81287">
        <ele>1089</ele>
        <time>2015-08-05T06:15:28Z</time>
      </trkpt>
      <trkpt lat="45.99147" lon="3.81287">
        <ele>1089</ele>
        <time>2015-08-05T06:15:31Z</time>
      </trkpt>
      <trkpt lat="45.99147" lon="3.81285">
        <ele>1089</ele>
        <time>2015-08-05T06:15:35Z</time>
      </trkpt>
      <trkpt lat="45.99144" lon="3.81286">
        <ele>1089</ele>
        <time>2015-08-05T06:15:37Z</time>
      </trkpt>
      <trkpt lat="45.99146" lon="3.81285">
        <ele>1089</ele>
        <time>2015-08-05T06:15:41Z</time>
      </trkpt>
      <trkpt lat="45.99147" lon="3.81286">
        <ele>1089</ele>
        <time>2015-08-05T06:15:43Z</time>
      </trkpt>
      <trkpt lat="45.99146" lon="3.81289">
        <ele>1089</ele>
        <time>2015-08-05T06:15:46Z</time>
      </trkpt>
      <trkpt lat="45.99143" lon="3.81294">
        <ele>1088</ele>
        <time>2015-08-05T06:15:48Z</time>
      </trkpt>
      <trkpt lat="45.99143" lon="3.81296">
        <ele>1086</ele>
        <time>2015-08-05T06:15:50Z</time>
      </trkpt>
      <trkpt lat="45.9915" lon="3.8129">
        <ele>1083</ele>
        <time>2015-08-05T06:15:53Z</time>
      </trkpt>
      <trkpt lat="45.99155" lon="3.81286">
        <ele>1080</ele>
        <time>2015-08-05T06:15:56Z</time>
      </trkpt>
      <trkpt lat="45.9916" lon="3.81282">
        <ele>1079</ele>
        <time>2015-08-05T06:15:58Z</time>
      </trkpt>
      <trkpt lat="45.99158" lon="3.81284">
        <ele>1079</ele>
        <time>2015-08-05T06:16:02Z</time>
      </trkpt>
      <trkpt lat="45.99157" lon="3.81285">
        <ele>1079</ele>
        <time>2015-08-05T06:16:05Z</time>
      </trkpt>
      <trkpt lat="45.99157" lon="3.81281">
        <ele>1079</ele>
        <time>2015-08-05T06:16:14Z</time>
      </trkpt>
      <trkpt lat="45.99157" lon="3.8128">
        <ele>1081</ele>
        <time>2015-08-05T06:16:20Z</time>
      </trkpt>
      <trkpt lat="45.99154" lon="3.81284">
        <ele>1088</ele>
        <time>2015-08-05T06:16:28Z</time>
      </trkpt>
      <trkpt lat="45.99154" lon="3.8128">
        <ele>1091</ele>
        <time>2015-08-05T06:16:31Z</time>
      </trkpt>
      <trkpt lat="45.99154" lon="3.81275">
        <ele>1095</ele>
        <time>2015-08-05T06:16:35Z</time>
      </trkpt>
      <trkpt lat="45.9915" lon="3.81272">
        <ele>1097</ele>
        <time>2015-08-05T06:16:37Z</time>
      </trkpt>
      <trkpt lat="45.99143" lon="3.81269">
        <ele>1100</ele>
        <time>2015-08-05T06:16:41Z</time>
      </trkpt>
      <trkpt lat="45.99143" lon="3.81265">
        <ele>1100</ele>
        <time>2015-08-05T06:16:45Z</time>
      </trkpt>
      <trkpt lat="45.99143" lon="3.81263">
        <ele>1100</ele>
        <time>2015-08-05T06:16:47Z</time>
      </trkpt>
      <trkpt lat="45.99142" lon="3.81265">
        <ele>1098</ele>
        <time>2015-08-05T06:16:52Z</time>
      </trkpt>
      <trkpt lat="45.99144" lon="3.81264">
        <ele>1096</ele>
        <time>2015-08-05T06:16:57Z</time>
      </trkpt>
      <trkpt lat="45.99143" lon="3.81263">
        <ele>1095</ele>
        <time>2015-08-05T06:16:59Z</time>
      </trkpt>
      <trkpt lat="45.99141" lon="3.81261">
        <ele>1094</ele>
        <time>2015-08-05T06:17:01Z</time>
      </trkpt>
      <trkpt lat="45.9914" lon="3.81257">
        <ele>1093</ele>
        <time>2015-08-05T06:17:04Z</time>
      </trkpt>
      <trkpt lat="45.99141" lon="3.81253">
        <ele>1093</ele>
        <time>2015-08-05T06:17:06Z</time>
      </trkpt>
      <trkpt lat="45.99139" lon="3.81249">
        <ele>1092</ele>
        <time>2015-08-05T06:17:09Z</time>
      </trkpt>
      <trkpt lat="45.99135" lon="3.81244">
        <ele>1091</ele>
        <time>2015-08-05T06:17:13Z</time>
      </trkpt>
      <trkpt lat="45.99134" lon="3.81238">
        <ele>1091</ele>
        <time>2015-08-05T06:17:17Z</time>
      </trkpt>
      <trkpt lat="45.99134" lon="3.81229">
        <ele>1091</ele>
        <time>2015-08-05T06:17:21Z</time>
      </trkpt>
      <trkpt lat="45.99133" lon="3.81226">
        <ele>1091</ele>
        <time>2015-08-05T06:17:23Z</time>
      </trkpt>
      <trkpt lat="45.99128" lon="3.81221">
        <ele>1091</ele>
        <time>2015-08-05T06:17:27Z</time>
      </trkpt>
      <trkpt lat="45.99125" lon="3.81219">
        <ele>1091</ele>
        <time>2015-08-05T06:17:29Z</time>
      </trkpt>
      <trkpt lat="45.99124" lon="3.81217">
        <ele>1091</ele>
        <time>2015-08-05T06:17:31Z</time>
      </trkpt>
      <trkpt lat="45.99125" lon="3.81214">
        <ele>1091</ele>
        <time>2015-08-05T06:17:33Z</time>
      </trkpt>
      <trkpt lat="45.99123" lon="3.81212">
        <ele>1091</ele>
        <time>2015-08-05T06:17:35Z</time>
      </trkpt>
      <trkpt lat="45.99121" lon="3.81209">
        <ele>1091</ele>
        <time>2015-08-05T06:17:37Z</time>
      </trkpt>
      <trkpt lat="45.99119" lon="3.81204">
        <ele>1091</ele>
        <time>2015-08-05T06:17:40Z</time>
      </trkpt>
      <trkpt lat="45.99119" lon="3.812">
        <ele>1091</ele>
        <time>2015-08-05T06:17:42Z</time>
      </trkpt>
      <trkpt lat="45.99117" lon="3.81196">
        <ele>1091</ele>
        <time>2015-08-05T06:17:44Z</time>
      </trkpt>
      <trkpt lat="45.99115" lon="3.81192">
        <ele>1091</ele>
        <time>2015-08-05T06:17:46Z</time>
      </trkpt>
      <trkpt lat="45.99111" lon="3.81187">
        <ele>1091</ele>
        <time>2015-08-05T06:17:49Z</time>
      </trkpt>
      <trkpt lat="45.99105" lon="3.81184">
        <ele>1093</ele>
        <time>2015-08-05T06:17:53Z</time>
      </trkpt>
      <trkpt lat="45.99103" lon="3.81179">
        <ele>1094</ele>
        <time>2015-08-05T06:17:55Z</time>
      </trkpt>
      <trkpt lat="45.99099" lon="3.81171">
        <ele>1096</ele>
        <time>2015-08-05T06:18:00Z</time>
      </trkpt>
      <trkpt lat="45.99097" lon="3.81164">
        <ele>1097</ele>
        <time>2015-08-05T06:18:04Z</time>
      </trkpt>
      <trkpt lat="45.99096" lon="3.8116">
        <ele>1097</ele>
        <time>2015-08-05T06:18:06Z</time>
      </trkpt>
      <trkpt lat="45.99096" lon="3.81158">
        <ele>1097</ele>
        <time>2015-08-05T06:18:08Z</time>
      </trkpt>
      <trkpt lat="45.99093" lon="3.81153">
        <ele>1097</ele>
        <time>2015-08-05T06:18:12Z</time>
      </trkpt>
      <trkpt lat="45.9909" lon="3.81146">
        <ele>1097</ele>
        <time>2015-08-05T06:18:17Z</time>
      </trkpt>
      <trkpt lat="45.99087" lon="3.8114">
        <ele>1096</ele>
        <time>2015-08-05T06:18:21Z</time>
      </trkpt>
      <trkpt lat="45.99086" lon="3.81137">
        <ele>1096</ele>
        <time>2015-08-05T06:18:23Z</time>
      </trkpt>
      <trkpt lat="45.99083" lon="3.81132">
        <ele>1096</ele>
        <time>2015-08-05T06:18:32Z</time>
      </trkpt>
      <trkpt lat="45.99081" lon="3.81125">
        <ele>1096</ele>
        <time>2015-08-05T06:18:36Z</time>
      </trkpt>
      <trkpt lat="45.99078" lon="3.81115">
        <ele>1096</ele>
        <time>2015-08-05T06:18:40Z</time>
      </trkpt>
      <trkpt lat="45.99078" lon="3.8111">
        <ele>1096</ele>
        <time>2015-08-05T06:18:43Z</time>
      </trkpt>
      <trkpt lat="45.99075" lon="3.81104">
        <ele>1096</ele>
        <time>2015-08-05T06:18:48Z</time>
      </trkpt>
      <trkpt lat="45.99075" lon="3.811">
        <ele>1096</ele>
        <time>2015-08-05T06:18:50Z</time>
      </trkpt>
      <trkpt lat="45.99074" lon="3.81096">
        <ele>1096</ele>
        <time>2015-08-05T06:18:52Z</time>
      </trkpt>
      <trkpt lat="45.9907" lon="3.81088">
        <ele>1096</ele>
        <time>2015-08-05T06:18:57Z</time>
      </trkpt>
      <trkpt lat="45.99069" lon="3.81086">
        <ele>1096</ele>
        <time>2015-08-05T06:18:59Z</time>
      </trkpt>
      <trkpt lat="45.99068" lon="3.81085">
        <ele>1096</ele>
        <time>2015-08-05T06:19:01Z</time>
      </trkpt>
      <trkpt lat="45.99068" lon="3.81083">
        <ele>1096</ele>
        <time>2015-08-05T06:19:04Z</time>
      </trkpt>
      <trkpt lat="45.99068" lon="3.81076">
        <ele>1096</ele>
        <time>2015-08-05T06:19:08Z</time>
      </trkpt>
      <trkpt lat="45.99068" lon="3.81071">
        <ele>1096</ele>
        <time>2015-08-05T06:19:10Z</time>
      </trkpt>
      <trkpt lat="45.99069" lon="3.81067">
        <ele>1096</ele>
        <time>2015-08-05T06:19:12Z</time>
      </trkpt>
      <trkpt lat="45.99069" lon="3.81064">
        <ele>1096</ele>
        <time>2015-08-05T06:19:14Z</time>
      </trkpt>
      <trkpt lat="45.99068" lon="3.8106">
        <ele>1096</ele>
        <time>2015-08-05T06:19:18Z</time>
      </trkpt>
      <trkpt lat="45.99067" lon="3.81056">
        <ele>1096</ele>
        <time>2015-08-05T06:19:27Z</time>
      </trkpt>
      <trkpt lat="45.99068" lon="3.81042">
        <ele>1096</ele>
        <time>2015-08-05T06:19:33Z</time>
      </trkpt>
      <trkpt lat="45.99068" lon="3.81035">
        <ele>1096</ele>
        <time>2015-08-05T06:19:35Z</time>
      </trkpt>
      <trkpt lat="45.99068" lon="3.81029">
        <ele>1096</ele>
        <time>2015-08-05T06:19:37Z</time>
      </trkpt>
      <trkpt lat="45.99068" lon="3.81021">
        <ele>1096</ele>
        <time>2015-08-05T06:19:39Z</time>
      </trkpt>
      <trkpt lat="45.99068" lon="3.81013">
        <ele>1096</ele>
        <time>2015-08-05T06:19:41Z</time>
      </trkpt>
      <trkpt lat="45.99069" lon="3.81004">
        <ele>1094</ele>
        <time>2015-08-05T06:19:45Z</time>
      </trkpt>
      <trkpt lat="45.99067" lon="3.81001">
        <ele>1093</ele>
        <time>2015-08-05T06:19:47Z</time>
      </trkpt>
      <trkpt lat="45.99063" lon="3.80995">
        <ele>1092</ele>
        <time>2015-08-05T06:19:49Z</time>
      </trkpt>
      <trkpt lat="45.99062" lon="3.80994">
        <ele>1091</ele>
        <time>2015-08-05T06:19:51Z</time>
      </trkpt>
      <trkpt lat="45.99059" lon="3.80987">
        <ele>1088</ele>
        <time>2015-08-05T06:19:55Z</time>
      </trkpt>
      <trkpt lat="45.99057" lon="3.80983">
        <ele>1087</ele>
        <time>2015-08-05T06:19:57Z</time>
      </trkpt>
      <trkpt lat="45.99056" lon="3.80979">
        <ele>1087</ele>
        <time>2015-08-05T06:20:00Z</time>
      </trkpt>
      <trkpt lat="45.99055" lon="3.80976">
        <ele>1087</ele>
        <time>2015-08-05T06:20:02Z</time>
      </trkpt>
      <trkpt lat="45.99054" lon="3.80975">
        <ele>1087</ele>
        <time>2015-08-05T06:20:04Z</time>
      </trkpt>
      <trkpt lat="45.99054" lon="3.80977">
        <ele>1087</ele>
        <time>2015-08-05T06:20:06Z</time>
      </trkpt>
      <trkpt lat="45.99057" lon="3.80976">
        <ele>1087</ele>
        <time>2015-08-05T06:20:08Z</time>
      </trkpt>
      <trkpt lat="45.9906" lon="3.80974">
        <ele>1087</ele>
        <time>2015-08-05T06:20:10Z</time>
      </trkpt>
      <trkpt lat="45.99063" lon="3.80973">
        <ele>1087</ele>
        <time>2015-08-05T06:20:13Z</time>
      </trkpt>
      <trkpt lat="45.99065" lon="3.80973">
        <ele>1087</ele>
        <time>2015-08-05T06:20:15Z</time>
      </trkpt>
      <trkpt lat="45.99066" lon="3.80976">
        <ele>1087</ele>
        <time>2015-08-05T06:20:17Z</time>
      </trkpt>
      <trkpt lat="45.99063" lon="3.8098">
        <ele>1087</ele>
        <time>2015-08-05T06:20:20Z</time>
      </trkpt>
      <trkpt lat="45.99063" lon="3.80984">
        <ele>1087</ele>
        <time>2015-08-05T06:20:23Z</time>
      </trkpt>
      <trkpt lat="45.99062" lon="3.80989">
        <ele>1088</ele>
        <time>2015-08-05T06:20:25Z</time>
      </trkpt>
      <trkpt lat="45.9906" lon="3.80993">
        <ele>1089</ele>
        <time>2015-08-05T06:20:27Z</time>
      </trkpt>
      <trkpt lat="45.99058" lon="3.81001">
        <ele>1093</ele>
        <time>2015-08-05T06:20:31Z</time>
      </trkpt>
      <trkpt lat="45.99057" lon="3.81006">
        <ele>1094</ele>
        <time>2015-08-05T06:20:33Z</time>
      </trkpt>
      <trkpt lat="45.99057" lon="3.81011">
        <ele>1095</ele>
        <time>2015-08-05T06:20:35Z</time>
      </trkpt>
      <trkpt lat="45.99055" lon="3.8102">
        <ele>1097</ele>
        <time>2015-08-05T06:20:39Z</time>
      </trkpt>
      <trkpt lat="45.99054" lon="3.81028">
        <ele>1099</ele>
        <time>2015-08-05T06:20:43Z</time>
      </trkpt>
      <trkpt lat="45.99054" lon="3.81031">
        <ele>1100</ele>
        <time>2015-08-05T06:20:45Z</time>
      </trkpt>
      <trkpt lat="45.99054" lon="3.81038">
        <ele>1101</ele>
        <time>2015-08-05T06:20:49Z</time>
      </trkpt>
      <trkpt lat="45.99057" lon="3.81048">
        <ele>1101</ele>
        <time>2015-08-05T06:20:53Z</time>
      </trkpt>
      <trkpt lat="45.99058" lon="3.81052">
        <ele>1101</ele>
        <time>2015-08-05T06:20:55Z</time>
      </trkpt>
      <trkpt lat="45.9906" lon="3.81055">
        <ele>1101</ele>
        <time>2015-08-05T06:21:04Z</time>
      </trkpt>
      <trkpt lat="45.99061" lon="3.81056">
        <ele>1100</ele>
        <time>2015-08-05T06:21:07Z</time>
      </trkpt>
      <trkpt lat="45.9906" lon="3.81051">
        <ele>1099</ele>
        <time>2015-08-05T06:21:10Z</time>
      </trkpt>
      <trkpt lat="45.99062" lon="3.81053">
        <ele>1099</ele>
        <time>2015-08-05T06:21:12Z</time>
      </trkpt>
      <trkpt lat="45.99064" lon="3.81056">
        <ele>1099</ele>
        <time>2015-08-05T06:21:19Z</time>
      </trkpt>
      <trkpt lat="45.99066" lon="3.81062">
        <ele>1096</ele>
        <time>2015-08-05T06:21:24Z</time>
      </trkpt>
      <trkpt lat="45.99065" lon="3.81062">
        <ele>1096</ele>
        <time>2015-08-05T06:21:29Z</time>
      </trkpt>
      <trkpt lat="45.99067" lon="3.81065">
        <ele>1096</ele>
        <time>2015-08-05T06:21:32Z</time>
      </trkpt>
      <trkpt lat="45.99068" lon="3.81065">
        <ele>1096</ele>
        <time>2015-08-05T06:21:40Z</time>
      </trkpt>
      <trkpt lat="45.99069" lon="3.81063">
        <ele>1096</ele>
        <time>2015-08-05T06:21:42Z</time>
      </trkpt>
      <trkpt lat="45.99068" lon="3.81063">
        <ele>1097</ele>
        <time>2015-08-05T06:21:45Z</time>
      </trkpt>
      <trkpt lat="45.99067" lon="3.81064">
        <ele>1097</ele>
        <time>2015-08-05T06:21:50Z</time>
      </trkpt>
      <trkpt lat="45.99064" lon="3.81066">
        <ele>1097</ele>
        <time>2015-08-05T06:21:57Z</time>
      </trkpt>
      <trkpt lat="45.99064" lon="3.81067">
        <ele>1098</ele>
        <time>2015-08-05T06:22:04Z</time>
      </trkpt>
      <trkpt lat="45.99064" lon="3.81066">
        <ele>1098</ele>
        <time>2015-08-05T06:22:08Z</time>
      </trkpt>
      <trkpt lat="45.99065" lon="3.81065">
        <ele>1098</ele>
        <time>2015-08-05T06:22:13Z</time>
      </trkpt>
      <trkpt lat="45.99067" lon="3.81066">
        <ele>1098</ele>
        <time>2015-08-05T06:22:15Z</time>
      </trkpt>
      <trkpt lat="45.99068" lon="3.81066">
        <ele>1098</ele>
        <time>2015-08-05T06:22:18Z</time>
      </trkpt>
      <trkpt lat="45.99066" lon="3.81067">
        <ele>1098</ele>
        <time>2015-08-05T06:22:21Z</time>
      </trkpt>
      <trkpt lat="45.99066" lon="3.81069">
        <ele>1098</ele>
        <time>2015-08-05T06:22:23Z</time>
      </trkpt>
      <trkpt lat="45.99066" lon="3.81074">
        <ele>1098</ele>
        <time>2015-08-05T06:22:26Z</time>
      </trkpt>
      <trkpt lat="45.99066" lon="3.81076">
        <ele>1098</ele>
        <time>2015-08-05T06:22:28Z</time>
      </trkpt>
      <trkpt lat="45.99066" lon="3.8109">
        <ele>1098</ele>
        <time>2015-08-05T06:22:37Z</time>
      </trkpt>
      <trkpt lat="45.99066" lon="3.81093">
        <ele>1098</ele>
        <time>2015-08-05T06:22:39Z</time>
      </trkpt>
      <trkpt lat="45.99066" lon="3.81099">
        <ele>1099</ele>
        <time>2015-08-05T06:22:43Z</time>
      </trkpt>
      <trkpt lat="45.99068" lon="3.81104">
        <ele>1099</ele>
        <time>2015-08-05T06:22:46Z</time>
      </trkpt>
      <trkpt lat="45.99069" lon="3.81106">
        <ele>1099</ele>
        <time>2015-08-05T06:22:48Z</time>
      </trkpt>
      <trkpt lat="45.99069" lon="3.81111">
        <ele>1099</ele>
        <time>2015-08-05T06:22:50Z</time>
      </trkpt>
      <trkpt lat="45.9907" lon="3.81116">
        <ele>1099</ele>
        <time>2015-08-05T06:22:52Z</time>
      </trkpt>
      <trkpt lat="45.99073" lon="3.81123">
        <ele>1099</ele>
        <time>2015-08-05T06:22:56Z</time>
      </trkpt>
      <trkpt lat="45.99075" lon="3.81128">
        <ele>1099</ele>
        <time>2015-08-05T06:22:58Z</time>
      </trkpt>
      <trkpt lat="45.99075" lon="3.81134">
        <ele>1099</ele>
        <time>2015-08-05T06:23:00Z</time>
      </trkpt>
      <trkpt lat="45.99077" lon="3.81138">
        <ele>1099</ele>
        <time>2015-08-05T06:23:02Z</time>
      </trkpt>
      <trkpt lat="45.99078" lon="3.81143">
        <ele>1099</ele>
        <time>2015-08-05T06:23:04Z</time>
      </trkpt>
      <trkpt lat="45.99084" lon="3.81158">
        <ele>1099</ele>
        <time>2015-08-05T06:23:11Z</time>
      </trkpt>
      <trkpt lat="45.99086" lon="3.81165">
        <ele>1099</ele>
        <time>2015-08-05T06:23:15Z</time>
      </trkpt>
      <trkpt lat="45.99087" lon="3.81168">
        <ele>1099</ele>
        <time>2015-08-05T06:23:17Z</time>
      </trkpt>
      <trkpt lat="45.99088" lon="3.81173">
        <ele>1099</ele>
        <time>2015-08-05T06:23:21Z</time>
      </trkpt>
      <trkpt lat="45.99088" lon="3.81175">
        <ele>1099</ele>
        <time>2015-08-05T06:23:23Z</time>
      </trkpt>
      <trkpt lat="45.9909" lon="3.81183">
        <ele>1099</ele>
        <time>2015-08-05T06:23:27Z</time>
      </trkpt>
      <trkpt lat="45.99092" lon="3.81187">
        <ele>1098</ele>
        <time>2015-08-05T06:23:29Z</time>
      </trkpt>
      <trkpt lat="45.99095" lon="3.81194">
        <ele>1097</ele>
        <time>2015-08-05T06:23:33Z</time>
      </trkpt>
      <trkpt lat="45.99096" lon="3.81198">
        <ele>1097</ele>
        <time>2015-08-05T06:23:35Z</time>
      </trkpt>
      <trkpt lat="45.99097" lon="3.81202">
        <ele>1096</ele>
        <time>2015-08-05T06:23:37Z</time>
      </trkpt>
      <trkpt lat="45.991" lon="3.81205">
        <ele>1095</ele>
        <time>2015-08-05T06:23:39Z</time>
      </trkpt>
      <trkpt lat="45.991" lon="3.8121">
        <ele>1094</ele>
        <time>2015-08-05T06:23:41Z</time>
      </trkpt>
      <trkpt lat="45.99101" lon="3.81213">
        <ele>1094</ele>
        <time>2015-08-05T06:23:43Z</time>
      </trkpt>
      <trkpt lat="45.99103" lon="3.81217">
        <ele>1092</ele>
        <time>2015-08-05T06:23:45Z</time>
      </trkpt>
      <trkpt lat="45.99105" lon="3.8122">
        <ele>1092</ele>
        <time>2015-08-05T06:23:47Z</time>
      </trkpt>
      <trkpt lat="45.99107" lon="3.81224">
        <ele>1092</ele>
        <time>2015-08-05T06:23:49Z</time>
      </trkpt>
      <trkpt lat="45.99112" lon="3.81233">
        <ele>1092</ele>
        <time>2015-08-05T06:23:53Z</time>
      </trkpt>
      <trkpt lat="45.99114" lon="3.81237">
        <ele>1092</ele>
        <time>2015-08-05T06:23:55Z</time>
      </trkpt>
      <trkpt lat="45.99115" lon="3.81247">
        <ele>1091</ele>
        <time>2015-08-05T06:23:59Z</time>
      </trkpt>
      <trkpt lat="45.99118" lon="3.81257">
        <ele>1090</ele>
        <time>2015-08-05T06:24:03Z</time>
      </trkpt>
      <trkpt lat="45.9912" lon="3.81261">
        <ele>1089</ele>
        <time>2015-08-05T06:24:05Z</time>
      </trkpt>
      <trkpt lat="45.9912" lon="3.81266">
        <ele>1089</ele>
        <time>2015-08-05T06:24:07Z</time>
      </trkpt>
      <trkpt lat="45.99129" lon="3.81277">
        <ele>1088</ele>
        <time>2015-08-05T06:24:14Z</time>
      </trkpt>
      <trkpt lat="45.99131" lon="3.81281">
        <ele>1088</ele>
        <time>2015-08-05T06:24:16Z</time>
      </trkpt>
      <trkpt lat="45.99133" lon="3.81284">
        <ele>1088</ele>
        <time>2015-08-05T06:24:18Z</time>
      </trkpt>
      <trkpt lat="45.99135" lon="3.8129">
        <ele>1088</ele>
        <time>2015-08-05T06:24:20Z</time>
      </trkpt>
      <trkpt lat="45.99136" lon="3.81292">
        <ele>1088</ele>
        <time>2015-08-05T06:24:22Z</time>
      </trkpt>
      <trkpt lat="45.99137" lon="3.81295">
        <ele>1088</ele>
        <time>2015-08-05T06:24:24Z</time>
      </trkpt>
      <trkpt lat="45.99139" lon="3.81296">
        <ele>1088</ele>
        <time>2015-08-05T06:24:26Z</time>
      </trkpt>
      <trkpt lat="45.9914" lon="3.813">
        <ele>1088</ele>
        <time>2015-08-05T06:24:28Z</time>
      </trkpt>
      <trkpt lat="45.99144" lon="3.81305">
        <ele>1088</ele>
        <time>2015-08-05T06:24:32Z</time>
      </trkpt>
      <trkpt lat="45.99145" lon="3.8131">
        <ele>1088</ele>
        <time>2015-08-05T06:24:35Z</time>
      </trkpt>
      <trkpt lat="45.99147" lon="3.81319">
        <ele>1088</ele>
        <time>2015-08-05T06:24:39Z</time>
      </trkpt>
      <trkpt lat="45.99149" lon="3.81323">
        <ele>1088</ele>
        <time>2015-08-05T06:24:41Z</time>
      </trkpt>
      <trkpt lat="45.9915" lon="3.81327">
        <ele>1086</ele>
        <time>2015-08-05T06:24:43Z</time>
      </trkpt>
      <trkpt lat="45.9915" lon="3.81331">
        <ele>1085</ele>
        <time>2015-08-05T06:24:45Z</time>
      </trkpt>
      <trkpt lat="45.9915" lon="3.81335">
        <ele>1084</ele>
        <time>2015-08-05T06:24:47Z</time>
      </trkpt>
      <trkpt lat="45.99149" lon="3.81339">
        <ele>1083</ele>
        <time>2015-08-05T06:24:49Z</time>
      </trkpt>
      <trkpt lat="45.99151" lon="3.8134">
        <ele>1083</ele>
        <time>2015-08-05T06:24:51Z</time>
      </trkpt>
      <trkpt lat="45.99152" lon="3.81344">
        <ele>1083</ele>
        <time>2015-08-05T06:24:53Z</time>
      </trkpt>
      <trkpt lat="45.99154" lon="3.81349">
        <ele>1083</ele>
        <time>2015-08-05T06:24:55Z</time>
      </trkpt>
      <trkpt lat="45.99156" lon="3.81352">
        <ele>1083</ele>
        <time>2015-08-05T06:24:57Z</time>
      </trkpt>
      <trkpt lat="45.99156" lon="3.81355">
        <ele>1083</ele>
        <time>2015-08-05T06:24:59Z</time>
      </trkpt>
      <trkpt lat="45.99159" lon="3.81357">
        <ele>1083</ele>
        <time>2015-08-05T06:25:01Z</time>
      </trkpt>
      <trkpt lat="45.99161" lon="3.8136">
        <ele>1083</ele>
        <time>2015-08-05T06:25:03Z</time>
      </trkpt>
      <trkpt lat="45.99162" lon="3.81364">
        <ele>1083</ele>
        <time>2015-08-05T06:25:05Z</time>
      </trkpt>
      <trkpt lat="45.99165" lon="3.81369">
        <ele>1083</ele>
        <time>2015-08-05T06:25:07Z</time>
      </trkpt>
      <trkpt lat="45.99167" lon="3.81375">
        <ele>1083</ele>
        <time>2015-08-05T06:25:09Z</time>
      </trkpt>
      <trkpt lat="45.9917" lon="3.8138">
        <ele>1083</ele>
        <time>2015-08-05T06:25:11Z</time>
      </trkpt>
      <trkpt lat="45.99172" lon="3.81383">
        <ele>1081</ele>
        <time>2015-08-05T06:25:13Z</time>
      </trkpt>
      <trkpt lat="45.99179" lon="3.81397">
        <ele>1078</ele>
        <time>2015-08-05T06:25:21Z</time>
      </trkpt>
      <trkpt lat="45.99186" lon="3.81409">
        <ele>1077</ele>
        <time>2015-08-05T06:25:28Z</time>
      </trkpt>
      <trkpt lat="45.99187" lon="3.81411">
        <ele>1076</ele>
        <time>2015-08-05T06:25:30Z</time>
      </trkpt>
      <trkpt lat="45.99187" lon="3.81416">
        <ele>1076</ele>
        <time>2015-08-05T06:25:32Z</time>
      </trkpt>
      <trkpt lat="45.99192" lon="3.81428">
        <ele>1076</ele>
        <time>2015-08-05T06:25:38Z</time>
      </trkpt>
      <trkpt lat="45.99193" lon="3.81436">
        <ele>1076</ele>
        <time>2015-08-05T06:25:42Z</time>
      </trkpt>
      <trkpt lat="45.99195" lon="3.8144">
        <ele>1076</ele>
        <time>2015-08-05T06:25:45Z</time>
      </trkpt>
      <trkpt lat="45.99197" lon="3.81444">
        <ele>1076</ele>
        <time>2015-08-05T06:25:47Z</time>
      </trkpt>
      <trkpt lat="45.99199" lon="3.8145">
        <ele>1076</ele>
        <time>2015-08-05T06:25:49Z</time>
      </trkpt>
      <trkpt lat="45.99204" lon="3.81457">
        <ele>1075</ele>
        <time>2015-08-05T06:25:53Z</time>
      </trkpt>
      <trkpt lat="45.99206" lon="3.81462">
        <ele>1074</ele>
        <time>2015-08-05T06:25:55Z</time>
      </trkpt>
      <trkpt lat="45.99209" lon="3.81472">
        <ele>1074</ele>
        <time>2015-08-05T06:26:00Z</time>
      </trkpt>
      <trkpt lat="45.99212" lon="3.81475">
        <ele>1074</ele>
        <time>2015-08-05T06:26:02Z</time>
      </trkpt>
      <trkpt lat="45.99215" lon="3.8148">
        <ele>1074</ele>
        <time>2015-08-05T06:26:04Z</time>
      </trkpt>
      <trkpt lat="45.9922" lon="3.81486">
        <ele>1074</ele>
        <time>2015-08-05T06:26:08Z</time>
      </trkpt>
      <trkpt lat="45.99222" lon="3.81489">
        <ele>1074</ele>
        <time>2015-08-05T06:26:10Z</time>
      </trkpt>
      <trkpt lat="45.99228" lon="3.81493">
        <ele>1074</ele>
        <time>2015-08-05T06:26:14Z</time>
      </trkpt>
      <trkpt lat="45.9923" lon="3.81494">
        <ele>1074</ele>
        <time>2015-08-05T06:26:16Z</time>
      </trkpt>
      <trkpt lat="45.99232" lon="3.81496">
        <ele>1074</ele>
        <time>2015-08-05T06:26:18Z</time>
      </trkpt>
      <trkpt lat="45.99237" lon="3.81497">
        <ele>1074</ele>
        <time>2015-08-05T06:26:20Z</time>
      </trkpt>
      <trkpt lat="45.99244" lon="3.81503">
        <ele>1074</ele>
        <time>2015-08-05T06:26:24Z</time>
      </trkpt>
      <trkpt lat="45.99247" lon="3.81507">
        <ele>1074</ele>
        <time>2015-08-05T06:26:26Z</time>
      </trkpt>
      <trkpt lat="45.99252" lon="3.81509">
        <ele>1075</ele>
        <time>2015-08-05T06:26:28Z</time>
      </trkpt>
      <trkpt lat="45.99258" lon="3.81509">
        <ele>1076</ele>
        <time>2015-08-05T06:26:30Z</time>
      </trkpt>
      <trkpt lat="45.99261" lon="3.81511">
        <ele>1078</ele>
        <time>2015-08-05T06:26:32Z</time>
      </trkpt>
      <trkpt lat="45.99263" lon="3.81515">
        <ele>1080</ele>
        <time>2015-08-05T06:26:34Z</time>
      </trkpt>
      <trkpt lat="45.99263" lon="3.81519">
        <ele>1081</ele>
        <time>2015-08-05T06:26:36Z</time>
      </trkpt>
      <trkpt lat="45.99267" lon="3.81525">
        <ele>1081</ele>
        <time>2015-08-05T06:26:40Z</time>
      </trkpt>
      <trkpt lat="45.9927" lon="3.81525">
        <ele>1081</ele>
        <time>2015-08-05T06:26:42Z</time>
      </trkpt>
      <trkpt lat="45.99272" lon="3.81527">
        <ele>1081</ele>
        <time>2015-08-05T06:26:44Z</time>
      </trkpt>
      <trkpt lat="45.99274" lon="3.81531">
        <ele>1081</ele>
        <time>2015-08-05T06:26:48Z</time>
      </trkpt>
      <trkpt lat="45.99274" lon="3.81535">
        <ele>1080</ele>
        <time>2015-08-05T06:26:50Z</time>
      </trkpt>
      <trkpt lat="45.99275" lon="3.81539">
        <ele>1079</ele>
        <time>2015-08-05T06:26:52Z</time>
      </trkpt>
      <trkpt lat="45.99277" lon="3.81542">
        <ele>1078</ele>
        <time>2015-08-05T06:26:54Z</time>
      </trkpt>
      <trkpt lat="45.99281" lon="3.81548">
        <ele>1077</ele>
        <time>2015-08-05T06:26:58Z</time>
      </trkpt>
      <trkpt lat="45.99282" lon="3.81554">
        <ele>1076</ele>
        <time>2015-08-05T06:27:01Z</time>
      </trkpt>
      <trkpt lat="45.99283" lon="3.81557">
        <ele>1075</ele>
        <time>2015-08-05T06:27:03Z</time>
      </trkpt>
      <trkpt lat="45.99283" lon="3.81564">
        <ele>1074</ele>
        <time>2015-08-05T06:27:07Z</time>
      </trkpt>
      <trkpt lat="45.99284" lon="3.81571">
        <ele>1072</ele>
        <time>2015-08-05T06:27:11Z</time>
      </trkpt>
      <trkpt lat="45.99283" lon="3.81575">
        <ele>1072</ele>
        <time>2015-08-05T06:27:13Z</time>
      </trkpt>
      <trkpt lat="45.99284" lon="3.81586">
        <ele>1069</ele>
        <time>2015-08-05T06:27:19Z</time>
      </trkpt>
      <trkpt lat="45.99286" lon="3.81592">
        <ele>1067</ele>
        <time>2015-08-05T06:27:23Z</time>
      </trkpt>
      <trkpt lat="45.99285" lon="3.81597">
        <ele>1065</ele>
        <time>2015-08-05T06:27:25Z</time>
      </trkpt>
      <trkpt lat="45.99285" lon="3.81601">
        <ele>1064</ele>
        <time>2015-08-05T06:27:27Z</time>
      </trkpt>
      <trkpt lat="45.99286" lon="3.81606">
        <ele>1064</ele>
        <time>2015-08-05T06:27:29Z</time>
      </trkpt>
      <trkpt lat="45.99286" lon="3.81611">
        <ele>1064</ele>
        <time>2015-08-05T06:27:31Z</time>
      </trkpt>
      <trkpt lat="45.99287" lon="3.81614">
        <ele>1064</ele>
        <time>2015-08-05T06:27:33Z</time>
      </trkpt>
      <trkpt lat="45.99288" lon="3.81622">
        <ele>1064</ele>
        <time>2015-08-05T06:27:37Z</time>
      </trkpt>
      <trkpt lat="45.99288" lon="3.81627">
        <ele>1064</ele>
        <time>2015-08-05T06:27:39Z</time>
      </trkpt>
      <trkpt lat="45.99288" lon="3.81632">
        <ele>1064</ele>
        <time>2015-08-05T06:27:41Z</time>
      </trkpt>
      <trkpt lat="45.99287" lon="3.81637">
        <ele>1064</ele>
        <time>2015-08-05T06:27:43Z</time>
      </trkpt>
      <trkpt lat="45.99286" lon="3.81643">
        <ele>1064</ele>
        <time>2015-08-05T06:27:45Z</time>
      </trkpt>
      <trkpt lat="45.99284" lon="3.81656">
        <ele>1064</ele>
        <time>2015-08-05T06:27:49Z</time>
      </trkpt>
      <trkpt lat="45.99281" lon="3.81661">
        <ele>1064</ele>
        <time>2015-08-05T06:27:51Z</time>
      </trkpt>
      <trkpt lat="45.9928" lon="3.81664">
        <ele>1064</ele>
        <time>2015-08-05T06:27:53Z</time>
      </trkpt>
      <trkpt lat="45.99281" lon="3.81669">
        <ele>1065</ele>
        <time>2015-08-05T06:27:57Z</time>
      </trkpt>
      <trkpt lat="45.9928" lon="3.81675">
        <ele>1067</ele>
        <time>2015-08-05T06:28:00Z</time>
      </trkpt>
      <trkpt lat="45.99278" lon="3.81679">
        <ele>1068</ele>
        <time>2015-08-05T06:28:02Z</time>
      </trkpt>
      <trkpt lat="45.99276" lon="3.81685">
        <ele>1071</ele>
        <time>2015-08-05T06:28:06Z</time>
      </trkpt>
      <trkpt lat="45.99275" lon="3.81697">
        <ele>1071</ele>
        <time>2015-08-05T06:28:10Z</time>
      </trkpt>
      <trkpt lat="45.99276" lon="3.81702">
        <ele>1071</ele>
        <time>2015-08-05T06:28:12Z</time>
      </trkpt>
      <trkpt lat="45.99275" lon="3.81706">
        <ele>1071</ele>
        <time>2015-08-05T06:28:14Z</time>
      </trkpt>
      <trkpt lat="45.99273" lon="3.81716">
        <ele>1071</ele>
        <time>2015-08-05T06:28:18Z</time>
      </trkpt>
      <trkpt lat="45.99274" lon="3.8172">
        <ele>1071</ele>
        <time>2015-08-05T06:28:20Z</time>
      </trkpt>
      <trkpt lat="45.99273" lon="3.81723">
        <ele>1071</ele>
        <time>2015-08-05T06:28:22Z</time>
      </trkpt>
      <trkpt lat="45.99272" lon="3.81727">
        <ele>1071</ele>
        <time>2015-08-05T06:28:24Z</time>
      </trkpt>
      <trkpt lat="45.99272" lon="3.81733">
        <ele>1069</ele>
        <time>2015-08-05T06:28:28Z</time>
      </trkpt>
      <trkpt lat="45.99271" lon="3.81738">
        <ele>1067</ele>
        <time>2015-08-05T06:28:30Z</time>
      </trkpt>
      <trkpt lat="45.99271" lon="3.81744">
        <ele>1066</ele>
        <time>2015-08-05T06:28:32Z</time>
      </trkpt>
      <trkpt lat="45.9927" lon="3.81747">
        <ele>1065</ele>
        <time>2015-08-05T06:28:34Z</time>
      </trkpt>
      <trkpt lat="45.99271" lon="3.81756">
        <ele>1064</ele>
        <time>2015-08-05T06:28:38Z</time>
      </trkpt>
      <trkpt lat="45.9927" lon="3.8176">
        <ele>1064</ele>
        <time>2015-08-05T06:28:40Z</time>
      </trkpt>
      <trkpt lat="45.99267" lon="3.81767">
        <ele>1064</ele>
        <time>2015-08-05T06:28:44Z</time>
      </trkpt>
      <trkpt lat="45.99268" lon="3.8177">
        <ele>1064</ele>
        <time>2015-08-05T06:28:46Z</time>
      </trkpt>
      <trkpt lat="45.99268" lon="3.81774">
        <ele>1064</ele>
        <time>2015-08-05T06:28:48Z</time>
      </trkpt>
      <trkpt lat="45.99266" lon="3.81782">
        <ele>1064</ele>
        <time>2015-08-05T06:28:52Z</time>
      </trkpt>
      <trkpt lat="45.99266" lon="3.81785">
        <ele>1064</ele>
        <time>2015-08-05T06:28:54Z</time>
      </trkpt>
      <trkpt lat="45.99265" lon="3.81788">
        <ele>1064</ele>
        <time>2015-08-05T06:28:56Z</time>
      </trkpt>
      <trkpt lat="45.99263" lon="3.81792">
        <ele>1064</ele>
        <time>2015-08-05T06:28:58Z</time>
      </trkpt>
      <trkpt lat="45.99263" lon="3.81795">
        <ele>1064</ele>
        <time>2015-08-05T06:29:00Z</time>
      </trkpt>
      <trkpt lat="45.9926" lon="3.81799">
        <ele>1064</ele>
        <time>2015-08-05T06:29:02Z</time>
      </trkpt>
      <trkpt lat="45.99257" lon="3.81803">
        <ele>1064</ele>
        <time>2015-08-05T06:29:05Z</time>
      </trkpt>
      <trkpt lat="45.99256" lon="3.81806">
        <ele>1064</ele>
        <time>2015-08-05T06:29:07Z</time>
      </trkpt>
      <trkpt lat="45.99255" lon="3.81811">
        <ele>1065</ele>
        <time>2015-08-05T06:29:09Z</time>
      </trkpt>
      <trkpt lat="45.99254" lon="3.81815">
        <ele>1065</ele>
        <time>2015-08-05T06:29:11Z</time>
      </trkpt>
      <trkpt lat="45.99252" lon="3.81819">
        <ele>1065</ele>
        <time>2015-08-05T06:29:13Z</time>
      </trkpt>
      <trkpt lat="45.99251" lon="3.81822">
        <ele>1065</ele>
        <time>2015-08-05T06:29:15Z</time>
      </trkpt>
      <trkpt lat="45.99248" lon="3.81826">
        <ele>1065</ele>
        <time>2015-08-05T06:29:17Z</time>
      </trkpt>
      <trkpt lat="45.99247" lon="3.81829">
        <ele>1065</ele>
        <time>2015-08-05T06:29:19Z</time>
      </trkpt>
      <trkpt lat="45.99245" lon="3.81832">
        <ele>1065</ele>
        <time>2015-08-05T06:29:22Z</time>
      </trkpt>
      <trkpt lat="45.99244" lon="3.81835">
        <ele>1065</ele>
        <time>2015-08-05T06:29:24Z</time>
      </trkpt>
      <trkpt lat="45.99243" lon="3.8184">
        <ele>1065</ele>
        <time>2015-08-05T06:29:28Z</time>
      </trkpt>
      <trkpt lat="45.9924" lon="3.81841">
        <ele>1064</ele>
        <time>2015-08-05T06:29:30Z</time>
      </trkpt>
      <trkpt lat="45.9924" lon="3.81844">
        <ele>1063</ele>
        <time>2015-08-05T06:29:32Z</time>
      </trkpt>
      <trkpt lat="45.99238" lon="3.81846">
        <ele>1063</ele>
        <time>2015-08-05T06:29:34Z</time>
      </trkpt>
      <trkpt lat="45.99235" lon="3.81847">
        <ele>1063</ele>
        <time>2015-08-05T06:29:36Z</time>
      </trkpt>
      <trkpt lat="45.99231" lon="3.81853">
        <ele>1061</ele>
        <time>2015-08-05T06:29:40Z</time>
      </trkpt>
      <trkpt lat="45.99224" lon="3.81858">
        <ele>1057</ele>
        <time>2015-08-05T06:29:46Z</time>
      </trkpt>
      <trkpt lat="45.9922" lon="3.81859">
        <ele>1056</ele>
        <time>2015-08-05T06:29:48Z</time>
      </trkpt>
      <trkpt lat="45.99216" lon="3.81858">
        <ele>1056</ele>
        <time>2015-08-05T06:29:50Z</time>
      </trkpt>
      <trkpt lat="45.9921" lon="3.81859">
        <ele>1056</ele>
        <time>2015-08-05T06:29:56Z</time>
      </trkpt>
      <trkpt lat="45.99198" lon="3.81858">
        <ele>1054</ele>
        <time>2015-08-05T06:30:08Z</time>
      </trkpt>
      <trkpt lat="45.99194" lon="3.81856">
        <ele>1054</ele>
        <time>2015-08-05T06:30:10Z</time>
      </trkpt>
      <trkpt lat="45.99183" lon="3.81854">
        <ele>1054</ele>
        <time>2015-08-05T06:30:16Z</time>
      </trkpt>
      <trkpt lat="45.99177" lon="3.8185">
        <ele>1054</ele>
        <time>2015-08-05T06:30:18Z</time>
      </trkpt>
      <trkpt lat="45.99174" lon="3.81849">
        <ele>1054</ele>
        <time>2015-08-05T06:30:20Z</time>
      </trkpt>
      <trkpt lat="45.99171" lon="3.81846">
        <ele>1054</ele>
        <time>2015-08-05T06:30:23Z</time>
      </trkpt>
      <trkpt lat="45.99165" lon="3.81845">
        <ele>1054</ele>
        <time>2015-08-05T06:30:28Z</time>
      </trkpt>
      <trkpt lat="45.99162" lon="3.81843">
        <ele>1050</ele>
        <time>2015-08-05T06:30:32Z</time>
      </trkpt>
      <trkpt lat="45.99158" lon="3.8184">
        <ele>1048</ele>
        <time>2015-08-05T06:30:34Z</time>
      </trkpt>
      <trkpt lat="45.99155" lon="3.81841">
        <ele>1046</ele>
        <time>2015-08-05T06:30:36Z</time>
      </trkpt>
      <trkpt lat="45.99149" lon="3.81844">
        <ele>1046</ele>
        <time>2015-08-05T06:30:41Z</time>
      </trkpt>
      <trkpt lat="45.99138" lon="3.81851">
        <ele>1043</ele>
        <time>2015-08-05T06:30:49Z</time>
      </trkpt>
      <trkpt lat="45.99133" lon="3.81857">
        <ele>1041</ele>
        <time>2015-08-05T06:30:54Z</time>
      </trkpt>
      <trkpt lat="45.9913" lon="3.81861">
        <ele>1040</ele>
        <time>2015-08-05T06:30:57Z</time>
      </trkpt>
      <trkpt lat="45.99125" lon="3.81867">
        <ele>1040</ele>
        <time>2015-08-05T06:31:01Z</time>
      </trkpt>
      <trkpt lat="45.99123" lon="3.81869">
        <ele>1040</ele>
        <time>2015-08-05T06:31:03Z</time>
      </trkpt>
      <trkpt lat="45.99121" lon="3.81872">
        <ele>1040</ele>
        <time>2015-08-05T06:31:05Z</time>
      </trkpt>
      <trkpt lat="45.99118" lon="3.81872">
        <ele>1040</ele>
        <time>2015-08-05T06:31:07Z</time>
      </trkpt>
      <trkpt lat="45.99114" lon="3.81878">
        <ele>1040</ele>
        <time>2015-08-05T06:31:11Z</time>
      </trkpt>
      <trkpt lat="45.99112" lon="3.8188">
        <ele>1040</ele>
        <time>2015-08-05T06:31:13Z</time>
      </trkpt>
      <trkpt lat="45.9911" lon="3.81886">
        <ele>1040</ele>
        <time>2015-08-05T06:31:17Z</time>
      </trkpt>
      <trkpt lat="45.99107" lon="3.81891">
        <ele>1040</ele>
        <time>2015-08-05T06:31:20Z</time>
      </trkpt>
      <trkpt lat="45.99102" lon="3.81897">
        <ele>1040</ele>
        <time>2015-08-05T06:31:25Z</time>
      </trkpt>
      <trkpt lat="45.99099" lon="3.819">
        <ele>1040</ele>
        <time>2015-08-05T06:31:27Z</time>
      </trkpt>
      <trkpt lat="45.99097" lon="3.81903">
        <ele>1040</ele>
        <time>2015-08-05T06:31:29Z</time>
      </trkpt>
      <trkpt lat="45.99096" lon="3.81908">
        <ele>1040</ele>
        <time>2015-08-05T06:31:32Z</time>
      </trkpt>
      <trkpt lat="45.99094" lon="3.8191">
        <ele>1040</ele>
        <time>2015-08-05T06:31:34Z</time>
      </trkpt>
      <trkpt lat="45.99092" lon="3.81913">
        <ele>1040</ele>
        <time>2015-08-05T06:31:37Z</time>
      </trkpt>
      <trkpt lat="45.9909" lon="3.81916">
        <ele>1040</ele>
        <time>2015-08-05T06:31:39Z</time>
      </trkpt>
      <trkpt lat="45.99083" lon="3.81923">
        <ele>1040</ele>
        <time>2015-08-05T06:31:45Z</time>
      </trkpt>
      <trkpt lat="45.99077" lon="3.81931">
        <ele>1040</ele>
        <time>2015-08-05T06:31:50Z</time>
      </trkpt>
      <trkpt lat="45.99071" lon="3.81937">
        <ele>1043</ele>
        <time>2015-08-05T06:31:55Z</time>
      </trkpt>
      <trkpt lat="45.99069" lon="3.81941">
        <ele>1044</ele>
        <time>2015-08-05T06:31:57Z</time>
      </trkpt>
      <trkpt lat="45.99069" lon="3.81944">
        <ele>1044</ele>
        <time>2015-08-05T06:31:59Z</time>
      </trkpt>
      <trkpt lat="45.99066" lon="3.81946">
        <ele>1044</ele>
        <time>2015-08-05T06:32:01Z</time>
      </trkpt>
      <trkpt lat="45.99063" lon="3.81949">
        <ele>1044</ele>
        <time>2015-08-05T06:32:03Z</time>
      </trkpt>
      <trkpt lat="45.99061" lon="3.81952">
        <ele>1044</ele>
        <time>2015-08-05T06:32:05Z</time>
      </trkpt>
      <trkpt lat="45.99057" lon="3.8196">
        <ele>1044</ele>
        <time>2015-08-05T06:32:10Z</time>
      </trkpt>
      <trkpt lat="45.99053" lon="3.81967">
        <ele>1044</ele>
        <time>2015-08-05T06:32:15Z</time>
      </trkpt>
      <trkpt lat="45.99052" lon="3.81971">
        <ele>1044</ele>
        <time>2015-08-05T06:32:18Z</time>
      </trkpt>
      <trkpt lat="45.99052" lon="3.81974">
        <ele>1044</ele>
        <time>2015-08-05T06:32:20Z</time>
      </trkpt>
      <trkpt lat="45.99051" lon="3.81976">
        <ele>1044</ele>
        <time>2015-08-05T06:32:22Z</time>
      </trkpt>
      <trkpt lat="45.99049" lon="3.81979">
        <ele>1044</ele>
        <time>2015-08-05T06:32:24Z</time>
      </trkpt>
      <trkpt lat="45.99048" lon="3.81982">
        <ele>1044</ele>
        <time>2015-08-05T06:32:26Z</time>
      </trkpt>
      <trkpt lat="45.99047" lon="3.81985">
        <ele>1044</ele>
        <time>2015-08-05T06:32:28Z</time>
      </trkpt>
      <trkpt lat="45.99044" lon="3.81989">
        <ele>1044</ele>
        <time>2015-08-05T06:32:30Z</time>
      </trkpt>
      <trkpt lat="45.99042" lon="3.81993">
        <ele>1044</ele>
        <time>2015-08-05T06:32:32Z</time>
      </trkpt>
      <trkpt lat="45.9904" lon="3.81996">
        <ele>1044</ele>
        <time>2015-08-05T06:32:34Z</time>
      </trkpt>
      <trkpt lat="45.99037" lon="3.82003">
        <ele>1044</ele>
        <time>2015-08-05T06:32:38Z</time>
      </trkpt>
      <trkpt lat="45.99035" lon="3.82006">
        <ele>1044</ele>
        <time>2015-08-05T06:32:40Z</time>
      </trkpt>
      <trkpt lat="45.99033" lon="3.82013">
        <ele>1044</ele>
        <time>2015-08-05T06:32:44Z</time>
      </trkpt>
      <trkpt lat="45.99033" lon="3.82017">
        <ele>1044</ele>
        <time>2015-08-05T06:32:46Z</time>
      </trkpt>
      <trkpt lat="45.99032" lon="3.82019">
        <ele>1043</ele>
        <time>2015-08-05T06:32:48Z</time>
      </trkpt>
      <trkpt lat="45.99032" lon="3.82021">
        <ele>1043</ele>
        <time>2015-08-05T06:32:50Z</time>
      </trkpt>
      <trkpt lat="45.9903" lon="3.82023">
        <ele>1043</ele>
        <time>2015-08-05T06:32:52Z</time>
      </trkpt>
      <trkpt lat="45.99029" lon="3.82025">
        <ele>1043</ele>
        <time>2015-08-05T06:32:54Z</time>
      </trkpt>
      <trkpt lat="45.99026" lon="3.82026">
        <ele>1038</ele>
        <time>2015-08-05T06:33:10Z</time>
      </trkpt>
      <trkpt lat="45.99025" lon="3.82028">
        <ele>1038</ele>
        <time>2015-08-05T06:33:12Z</time>
      </trkpt>
      <trkpt lat="45.99024" lon="3.82029">
        <ele>1038</ele>
        <time>2015-08-05T06:33:24Z</time>
      </trkpt>
      <trkpt lat="45.99025" lon="3.82029">
        <ele>1037</ele>
        <time>2015-08-05T06:33:33Z</time>
      </trkpt>
      <trkpt lat="45.99021" lon="3.82026">
        <ele>1037</ele>
        <time>2015-08-05T06:33:37Z</time>
      </trkpt>
      <trkpt lat="45.99019" lon="3.82026">
        <ele>1037</ele>
        <time>2015-08-05T06:33:48Z</time>
      </trkpt>
      <trkpt lat="45.9902" lon="3.82027">
        <ele>1037</ele>
        <time>2015-08-05T06:33:51Z</time>
      </trkpt>
      <trkpt lat="45.99025" lon="3.82031">
        <ele>1037</ele>
        <time>2015-08-05T06:34:06Z</time>
      </trkpt>
      <trkpt lat="45.99025" lon="3.82029">
        <ele>1037</ele>
        <time>2015-08-05T06:34:10Z</time>
      </trkpt>
      <trkpt lat="45.99024" lon="3.82028">
        <ele>1037</ele>
        <time>2015-08-05T06:34:14Z</time>
      </trkpt>
      <trkpt lat="45.99026" lon="3.82027">
        <ele>1037</ele>
        <time>2015-08-05T06:34:17Z</time>
      </trkpt>
      <trkpt lat="45.99025" lon="3.82026">
        <ele>1038</ele>
        <time>2015-08-05T06:34:21Z</time>
      </trkpt>
      <trkpt lat="45.99023" lon="3.82026">
        <ele>1040</ele>
        <time>2015-08-05T06:34:24Z</time>
      </trkpt>
      <trkpt lat="45.99023" lon="3.82028">
        <ele>1040</ele>
        <time>2015-08-05T06:34:28Z</time>
      </trkpt>
      <trkpt lat="45.99022" lon="3.82025">
        <ele>1040</ele>
        <time>2015-08-05T06:34:36Z</time>
      </trkpt>
      <trkpt lat="45.9902" lon="3.82025">
        <ele>1040</ele>
        <time>2015-08-05T06:34:38Z</time>
      </trkpt>
      <trkpt lat="45.99019" lon="3.82023">
        <ele>1040</ele>
        <time>2015-08-05T06:34:40Z</time>
      </trkpt>
      <trkpt lat="45.99019" lon="3.82027">
        <ele>1040</ele>
        <time>2015-08-05T06:34:53Z</time>
      </trkpt>
      <trkpt lat="45.9902" lon="3.82025">
        <ele>1040</ele>
        <time>2015-08-05T06:34:59Z</time>
      </trkpt>
      <trkpt lat="45.99018" lon="3.82023">
        <ele>1040</ele>
        <time>2015-08-05T06:35:01Z</time>
      </trkpt>
      <trkpt lat="45.99014" lon="3.82019">
        <ele>1040</ele>
        <time>2015-08-05T06:35:05Z</time>
      </trkpt>
      <trkpt lat="45.99011" lon="3.82016">
        <ele>1040</ele>
        <time>2015-08-05T06:35:07Z</time>
      </trkpt>
      <trkpt lat="45.99007" lon="3.82013">
        <ele>1040</ele>
        <time>2015-08-05T06:35:13Z</time>
      </trkpt>
      <trkpt lat="45.99002" lon="3.8201">
        <ele>1040</ele>
        <time>2015-08-05T06:35:18Z</time>
      </trkpt>
      <trkpt lat="45.98999" lon="3.82007">
        <ele>1040</ele>
        <time>2015-08-05T06:35:21Z</time>
      </trkpt>
      <trkpt lat="45.98994" lon="3.82001">
        <ele>1040</ele>
        <time>2015-08-05T06:35:26Z</time>
      </trkpt>
      <trkpt lat="45.98988" lon="3.81999">
        <ele>1040</ele>
        <time>2015-08-05T06:35:30Z</time>
      </trkpt>
      <trkpt lat="45.98986" lon="3.81997">
        <ele>1040</ele>
        <time>2015-08-05T06:35:32Z</time>
      </trkpt>
      <trkpt lat="45.98983" lon="3.81993">
        <ele>1040</ele>
        <time>2015-08-05T06:35:35Z</time>
      </trkpt>
      <trkpt lat="45.9898" lon="3.8199">
        <ele>1040</ele>
        <time>2015-08-05T06:35:37Z</time>
      </trkpt>
      <trkpt lat="45.98977" lon="3.81986">
        <ele>1040</ele>
        <time>2015-08-05T06:35:40Z</time>
      </trkpt>
      <trkpt lat="45.98972" lon="3.81982">
        <ele>1040</ele>
        <time>2015-08-05T06:35:44Z</time>
      </trkpt>
      <trkpt lat="45.98969" lon="3.8198">
        <ele>1040</ele>
        <time>2015-08-05T06:35:47Z</time>
      </trkpt>
      <trkpt lat="45.98965" lon="3.81978">
        <ele>1040</ele>
        <time>2015-08-05T06:35:50Z</time>
      </trkpt>
      <trkpt lat="45.98957" lon="3.81977">
        <ele>1039</ele>
        <time>2015-08-05T06:35:56Z</time>
      </trkpt>
      <trkpt lat="45.98945" lon="3.81975">
        <ele>1036</ele>
        <time>2015-08-05T06:36:04Z</time>
      </trkpt>
      <trkpt lat="45.98941" lon="3.81974">
        <ele>1035</ele>
        <time>2015-08-05T06:36:06Z</time>
      </trkpt>
      <trkpt lat="45.98939" lon="3.81974">
        <ele>1035</ele>
        <time>2015-08-05T06:36:08Z</time>
      </trkpt>
      <trkpt lat="45.98933" lon="3.81974">
        <ele>1035</ele>
        <time>2015-08-05T06:36:12Z</time>
      </trkpt>
      <trkpt lat="45.98925" lon="3.81976">
        <ele>1035</ele>
        <time>2015-08-05T06:36:18Z</time>
      </trkpt>
      <trkpt lat="45.98919" lon="3.81978">
        <ele>1035</ele>
        <time>2015-08-05T06:36:22Z</time>
      </trkpt>
      <trkpt lat="45.98917" lon="3.81979">
        <ele>1035</ele>
        <time>2015-08-05T06:36:24Z</time>
      </trkpt>
      <trkpt lat="45.98911" lon="3.81981">
        <ele>1034</ele>
        <time>2015-08-05T06:36:28Z</time>
      </trkpt>
      <trkpt lat="45.98908" lon="3.81982">
        <ele>1034</ele>
        <time>2015-08-05T06:36:30Z</time>
      </trkpt>
      <trkpt lat="45.98899" lon="3.81986">
        <ele>1033</ele>
        <time>2015-08-05T06:36:36Z</time>
      </trkpt>
      <trkpt lat="45.98888" lon="3.81991">
        <ele>1033</ele>
        <time>2015-08-05T06:36:44Z</time>
      </trkpt>
      <trkpt lat="45.98883" lon="3.81994">
        <ele>1032</ele>
        <time>2015-08-05T06:36:48Z</time>
      </trkpt>
      <trkpt lat="45.9887" lon="3.81998">
        <ele>1032</ele>
        <time>2015-08-05T06:36:56Z</time>
      </trkpt>
      <trkpt lat="45.98867" lon="3.82">
        <ele>1031</ele>
        <time>2015-08-05T06:36:58Z</time>
      </trkpt>
      <trkpt lat="45.98861" lon="3.82001">
        <ele>1030</ele>
        <time>2015-08-05T06:37:02Z</time>
      </trkpt>
      <trkpt lat="45.98855" lon="3.82003">
        <ele>1030</ele>
        <time>2015-08-05T06:37:06Z</time>
      </trkpt>
      <trkpt lat="45.98852" lon="3.82004">
        <ele>1029</ele>
        <time>2015-08-05T06:37:08Z</time>
      </trkpt>
      <trkpt lat="45.98848" lon="3.82007">
        <ele>1028</ele>
        <time>2015-08-05T06:37:11Z</time>
      </trkpt>
      <trkpt lat="45.98837" lon="3.82012">
        <ele>1027</ele>
        <time>2015-08-05T06:37:20Z</time>
      </trkpt>
      <trkpt lat="45.98828" lon="3.82012">
        <ele>1027</ele>
        <time>2015-08-05T06:37:24Z</time>
      </trkpt>
      <trkpt lat="45.98819" lon="3.8201">
        <ele>1027</ele>
        <time>2015-08-05T06:37:28Z</time>
      </trkpt>
      <trkpt lat="45.98815" lon="3.8201">
        <ele>1028</ele>
        <time>2015-08-05T06:37:30Z</time>
      </trkpt>
      <trkpt lat="45.98801" lon="3.82013">
        <ele>1032</ele>
        <time>2015-08-05T06:37:38Z</time>
      </trkpt>
      <trkpt lat="45.98796" lon="3.82015">
        <ele>1033</ele>
        <time>2015-08-05T06:37:42Z</time>
      </trkpt>
      <trkpt lat="45.98793" lon="3.82015">
        <ele>1033</ele>
        <time>2015-08-05T06:37:44Z</time>
      </trkpt>
      <trkpt lat="45.98782" lon="3.82019">
        <ele>1034</ele>
        <time>2015-08-05T06:37:52Z</time>
      </trkpt>
      <trkpt lat="45.98776" lon="3.8202">
        <ele>1034</ele>
        <time>2015-08-05T06:37:56Z</time>
      </trkpt>
      <trkpt lat="45.98769" lon="3.82018">
        <ele>1034</ele>
        <time>2015-08-05T06:38:00Z</time>
      </trkpt>
      <trkpt lat="45.98758" lon="3.82012">
        <ele>1036</ele>
        <time>2015-08-05T06:38:08Z</time>
      </trkpt>
      <trkpt lat="45.98753" lon="3.82008">
        <ele>1038</ele>
        <time>2015-08-05T06:38:12Z</time>
      </trkpt>
      <trkpt lat="45.98747" lon="3.82006">
        <ele>1038</ele>
        <time>2015-08-05T06:38:17Z</time>
      </trkpt>
      <trkpt lat="45.98745" lon="3.82004">
        <ele>1038</ele>
        <time>2015-08-05T06:38:19Z</time>
      </trkpt>
      <trkpt lat="45.98741" lon="3.82001">
        <ele>1038</ele>
        <time>2015-08-05T06:38:22Z</time>
      </trkpt>
      <trkpt lat="45.9874" lon="3.81999">
        <ele>1038</ele>
        <time>2015-08-05T06:38:24Z</time>
      </trkpt>
      <trkpt lat="45.98737" lon="3.81997">
        <ele>1038</ele>
        <time>2015-08-05T06:38:26Z</time>
      </trkpt>
      <trkpt lat="45.98735" lon="3.81996">
        <ele>1037</ele>
        <time>2015-08-05T06:38:28Z</time>
      </trkpt>
      <trkpt lat="45.98734" lon="3.81994">
        <ele>1035</ele>
        <time>2015-08-05T06:38:30Z</time>
      </trkpt>
      <trkpt lat="45.98734" lon="3.81991">
        <ele>1034</ele>
        <time>2015-08-05T06:38:32Z</time>
      </trkpt>
      <trkpt lat="45.98733" lon="3.81989">
        <ele>1032</ele>
        <time>2015-08-05T06:38:34Z</time>
      </trkpt>
      <trkpt lat="45.98729" lon="3.81982">
        <ele>1030</ele>
        <time>2015-08-05T06:38:38Z</time>
      </trkpt>
      <trkpt lat="45.98727" lon="3.81976">
        <ele>1030</ele>
        <time>2015-08-05T06:38:42Z</time>
      </trkpt>
      <trkpt lat="45.98727" lon="3.81972">
        <ele>1030</ele>
        <time>2015-08-05T06:38:44Z</time>
      </trkpt>
      <trkpt lat="45.98725" lon="3.81968">
        <ele>1030</ele>
        <time>2015-08-05T06:38:46Z</time>
      </trkpt>
      <trkpt lat="45.98723" lon="3.81965">
        <ele>1029</ele>
        <time>2015-08-05T06:38:48Z</time>
      </trkpt>
      <trkpt lat="45.98722" lon="3.81962">
        <ele>1028</ele>
        <time>2015-08-05T06:38:50Z</time>
      </trkpt>
      <trkpt lat="45.98719" lon="3.81958">
        <ele>1027</ele>
        <time>2015-08-05T06:38:53Z</time>
      </trkpt>
      <trkpt lat="45.98712" lon="3.81941">
        <ele>1025</ele>
        <time>2015-08-05T06:39:03Z</time>
      </trkpt>
      <trkpt lat="45.9871" lon="3.81937">
        <ele>1025</ele>
        <time>2015-08-05T06:39:05Z</time>
      </trkpt>
      <trkpt lat="45.98707" lon="3.8193">
        <ele>1024</ele>
        <time>2015-08-05T06:39:09Z</time>
      </trkpt>
      <trkpt lat="45.98706" lon="3.81926">
        <ele>1024</ele>
        <time>2015-08-05T06:39:11Z</time>
      </trkpt>
      <trkpt lat="45.98704" lon="3.81922">
        <ele>1024</ele>
        <time>2015-08-05T06:39:13Z</time>
      </trkpt>
      <trkpt lat="45.98703" lon="3.81918">
        <ele>1023</ele>
        <time>2015-08-05T06:39:15Z</time>
      </trkpt>
      <trkpt lat="45.98703" lon="3.81914">
        <ele>1023</ele>
        <time>2015-08-05T06:39:17Z</time>
      </trkpt>
      <trkpt lat="45.987" lon="3.81903">
        <ele>1020</ele>
        <time>2015-08-05T06:39:23Z</time>
      </trkpt>
      <trkpt lat="45.987" lon="3.81899">
        <ele>1020</ele>
        <time>2015-08-05T06:39:25Z</time>
      </trkpt>
      <trkpt lat="45.98698" lon="3.81892">
        <ele>1019</ele>
        <time>2015-08-05T06:39:29Z</time>
      </trkpt>
      <trkpt lat="45.98696" lon="3.81886">
        <ele>1018</ele>
        <time>2015-08-05T06:39:33Z</time>
      </trkpt>
      <trkpt lat="45.98695" lon="3.81878">
        <ele>1017</ele>
        <time>2015-08-05T06:39:37Z</time>
      </trkpt>
      <trkpt lat="45.98695" lon="3.81874">
        <ele>1017</ele>
        <time>2015-08-05T06:39:39Z</time>
      </trkpt>
      <trkpt lat="45.98695" lon="3.8187">
        <ele>1017</ele>
        <time>2015-08-05T06:39:41Z</time>
      </trkpt>
      <trkpt lat="45.98694" lon="3.81866">
        <ele>1017</ele>
        <time>2015-08-05T06:39:43Z</time>
      </trkpt>
      <trkpt lat="45.98693" lon="3.81862">
        <ele>1016</ele>
        <time>2015-08-05T06:39:45Z</time>
      </trkpt>
      <trkpt lat="45.98692" lon="3.81858">
        <ele>1016</ele>
        <time>2015-08-05T06:39:47Z</time>
      </trkpt>
      <trkpt lat="45.98692" lon="3.81854">
        <ele>1015</ele>
        <time>2015-08-05T06:39:49Z</time>
      </trkpt>
      <trkpt lat="45.98693" lon="3.81849">
        <ele>1015</ele>
        <time>2015-08-05T06:39:51Z</time>
      </trkpt>
      <trkpt lat="45.98694" lon="3.81836">
        <ele>1015</ele>
        <time>2015-08-05T06:39:57Z</time>
      </trkpt>
      <trkpt lat="45.98694" lon="3.81827">
        <ele>1015</ele>
        <time>2015-08-05T06:40:01Z</time>
      </trkpt>
      <trkpt lat="45.98694" lon="3.81823">
        <ele>1015</ele>
        <time>2015-08-05T06:40:03Z</time>
      </trkpt>
      <trkpt lat="45.98694" lon="3.81815">
        <ele>1015</ele>
        <time>2015-08-05T06:40:07Z</time>
      </trkpt>
      <trkpt lat="45.98693" lon="3.81811">
        <ele>1015</ele>
        <time>2015-08-05T06:40:09Z</time>
      </trkpt>
      <trkpt lat="45.98693" lon="3.81807">
        <ele>1016</ele>
        <time>2015-08-05T06:40:11Z</time>
      </trkpt>
      <trkpt lat="45.98693" lon="3.81803">
        <ele>1016</ele>
        <time>2015-08-05T06:40:13Z</time>
      </trkpt>
      <trkpt lat="45.98693" lon="3.81795">
        <ele>1016</ele>
        <time>2015-08-05T06:40:17Z</time>
      </trkpt>
      <trkpt lat="45.98693" lon="3.8179">
        <ele>1016</ele>
        <time>2015-08-05T06:40:19Z</time>
      </trkpt>
      <trkpt lat="45.98692" lon="3.81787">
        <ele>1016</ele>
        <time>2015-08-05T06:40:21Z</time>
      </trkpt>
      <trkpt lat="45.98692" lon="3.81782">
        <ele>1016</ele>
        <time>2015-08-05T06:40:23Z</time>
      </trkpt>
      <trkpt lat="45.98692" lon="3.81771">
        <ele>1016</ele>
        <time>2015-08-05T06:40:29Z</time>
      </trkpt>
      <trkpt lat="45.98692" lon="3.81767">
        <ele>1016</ele>
        <time>2015-08-05T06:40:31Z</time>
      </trkpt>
      <trkpt lat="45.98692" lon="3.81762">
        <ele>1016</ele>
        <time>2015-08-05T06:40:33Z</time>
      </trkpt>
      <trkpt lat="45.98691" lon="3.8175">
        <ele>1016</ele>
        <time>2015-08-05T06:40:39Z</time>
      </trkpt>
      <trkpt lat="45.9869" lon="3.81745">
        <ele>1016</ele>
        <time>2015-08-05T06:40:41Z</time>
      </trkpt>
      <trkpt lat="45.98691" lon="3.81739">
        <ele>1016</ele>
        <time>2015-08-05T06:40:43Z</time>
      </trkpt>
      <trkpt lat="45.9869" lon="3.81735">
        <ele>1016</ele>
        <time>2015-08-05T06:40:45Z</time>
      </trkpt>
      <trkpt lat="45.98687" lon="3.81719">
        <ele>1018</ele>
        <time>2015-08-05T06:40:53Z</time>
      </trkpt>
      <trkpt lat="45.98685" lon="3.81714">
        <ele>1018</ele>
        <time>2015-08-05T06:40:57Z</time>
      </trkpt>
      <trkpt lat="45.98684" lon="3.81714">
        <ele>1018</ele>
        <time>2015-08-05T06:41:01Z</time>
      </trkpt>
      <trkpt lat="45.98682" lon="3.81709">
        <ele>1018</ele>
        <time>2015-08-05T06:41:07Z</time>
      </trkpt>
      <trkpt lat="45.98679" lon="3.81699">
        <ele>1017</ele>
        <time>2015-08-05T06:41:13Z</time>
      </trkpt>
      <trkpt lat="45.98678" lon="3.81695">
        <ele>1017</ele>
        <time>2015-08-05T06:41:15Z</time>
      </trkpt>
      <trkpt lat="45.98677" lon="3.81687">
        <ele>1017</ele>
        <time>2015-08-05T06:41:19Z</time>
      </trkpt>
      <trkpt lat="45.98676" lon="3.8168">
        <ele>1017</ele>
        <time>2015-08-05T06:41:23Z</time>
      </trkpt>
      <trkpt lat="45.98674" lon="3.81676">
        <ele>1017</ele>
        <time>2015-08-05T06:41:25Z</time>
      </trkpt>
      <trkpt lat="45.98672" lon="3.81664">
        <ele>1017</ele>
        <time>2015-08-05T06:41:31Z</time>
      </trkpt>
      <trkpt lat="45.98672" lon="3.8166">
        <ele>1017</ele>
        <time>2015-08-05T06:41:33Z</time>
      </trkpt>
      <trkpt lat="45.98672" lon="3.81647">
        <ele>1017</ele>
        <time>2015-08-05T06:41:39Z</time>
      </trkpt>
      <trkpt lat="45.98671" lon="3.81644">
        <ele>1017</ele>
        <time>2015-08-05T06:41:41Z</time>
      </trkpt>
      <trkpt lat="45.98671" lon="3.81632">
        <ele>1017</ele>
        <time>2015-08-05T06:41:47Z</time>
      </trkpt>
      <trkpt lat="45.98679" lon="3.81594">
        <ele>1017</ele>
        <time>2015-08-05T06:42:07Z</time>
      </trkpt>
      <trkpt lat="45.98681" lon="3.81586">
        <ele>1017</ele>
        <time>2015-08-05T06:42:11Z</time>
      </trkpt>
      <trkpt lat="45.98682" lon="3.81582">
        <ele>1017</ele>
        <time>2015-08-05T06:42:13Z</time>
      </trkpt>
      <trkpt lat="45.98683" lon="3.81578">
        <ele>1017</ele>
        <time>2015-08-05T06:42:15Z</time>
      </trkpt>
      <trkpt lat="45.98685" lon="3.81566">
        <ele>1017</ele>
        <time>2015-08-05T06:42:21Z</time>
      </trkpt>
      <trkpt lat="45.98687" lon="3.81558">
        <ele>1017</ele>
        <time>2015-08-05T06:42:25Z</time>
      </trkpt>
      <trkpt lat="45.98691" lon="3.81542">
        <ele>1017</ele>
        <time>2015-08-05T06:42:33Z</time>
      </trkpt>
      <trkpt lat="45.98695" lon="3.8152">
        <ele>1017</ele>
        <time>2015-08-05T06:42:44Z</time>
      </trkpt>
      <trkpt lat="45.98697" lon="3.81516">
        <ele>1017</ele>
        <time>2015-08-05T06:42:46Z</time>
      </trkpt>
      <trkpt lat="45.98697" lon="3.81512">
        <ele>1017</ele>
        <time>2015-08-05T06:42:48Z</time>
      </trkpt>
      <trkpt lat="45.987" lon="3.815">
        <ele>1017</ele>
        <time>2015-08-05T06:42:54Z</time>
      </trkpt>
      <trkpt lat="45.987" lon="3.81492">
        <ele>1017</ele>
        <time>2015-08-05T06:42:58Z</time>
      </trkpt>
      <trkpt lat="45.98706" lon="3.81461">
        <ele>1022</ele>
        <time>2015-08-05T06:43:12Z</time>
      </trkpt>
      <trkpt lat="45.98707" lon="3.8145">
        <ele>1024</ele>
        <time>2015-08-05T06:43:18Z</time>
      </trkpt>
      <trkpt lat="45.98707" lon="3.81447">
        <ele>1024</ele>
        <time>2015-08-05T06:43:20Z</time>
      </trkpt>
      <trkpt lat="45.98708" lon="3.81443">
        <ele>1024</ele>
        <time>2015-08-05T06:43:22Z</time>
      </trkpt>
      <trkpt lat="45.98709" lon="3.81434">
        <ele>1024</ele>
        <time>2015-08-05T06:43:27Z</time>
      </trkpt>
      <trkpt lat="45.98709" lon="3.8143">
        <ele>1024</ele>
        <time>2015-08-05T06:43:29Z</time>
      </trkpt>
      <trkpt lat="45.98711" lon="3.81411">
        <ele>1023</ele>
        <time>2015-08-05T06:43:39Z</time>
      </trkpt>
      <trkpt lat="45.98711" lon="3.81407">
        <ele>1022</ele>
        <time>2015-08-05T06:43:41Z</time>
      </trkpt>
      <trkpt lat="45.98712" lon="3.81396">
        <ele>1020</ele>
        <time>2015-08-05T06:43:47Z</time>
      </trkpt>
      <trkpt lat="45.98713" lon="3.81392">
        <ele>1020</ele>
        <time>2015-08-05T06:43:49Z</time>
      </trkpt>
      <trkpt lat="45.98714" lon="3.8138">
        <ele>1018</ele>
        <time>2015-08-05T06:43:55Z</time>
      </trkpt>
      <trkpt lat="45.98715" lon="3.81376">
        <ele>1018</ele>
        <time>2015-08-05T06:43:57Z</time>
      </trkpt>
      <trkpt lat="45.98716" lon="3.8136">
        <ele>1017</ele>
        <time>2015-08-05T06:44:05Z</time>
      </trkpt>
      <trkpt lat="45.98718" lon="3.8135">
        <ele>1017</ele>
        <time>2015-08-05T06:44:10Z</time>
      </trkpt>
      <trkpt lat="45.98719" lon="3.81338">
        <ele>1017</ele>
        <time>2015-08-05T06:44:16Z</time>
      </trkpt>
      <trkpt lat="45.98719" lon="3.81333">
        <ele>1017</ele>
        <time>2015-08-05T06:44:18Z</time>
      </trkpt>
      <trkpt lat="45.9872" lon="3.81329">
        <ele>1017</ele>
        <time>2015-08-05T06:44:20Z</time>
      </trkpt>
      <trkpt lat="45.98719" lon="3.81319">
        <ele>1016</ele>
        <time>2015-08-05T06:44:27Z</time>
      </trkpt>
      <trkpt lat="45.98721" lon="3.81316">
        <ele>1015</ele>
        <time>2015-08-05T06:44:29Z</time>
      </trkpt>
      <trkpt lat="45.98721" lon="3.81311">
        <ele>1014</ele>
        <time>2015-08-05T06:44:31Z</time>
      </trkpt>
      <trkpt lat="45.98721" lon="3.81304">
        <ele>1013</ele>
        <time>2015-08-05T06:44:34Z</time>
      </trkpt>
      <trkpt lat="45.98721" lon="3.81291">
        <ele>1009</ele>
        <time>2015-08-05T06:44:40Z</time>
      </trkpt>
      <trkpt lat="45.98722" lon="3.81272">
        <ele>1009</ele>
        <time>2015-08-05T06:44:50Z</time>
      </trkpt>
      <trkpt lat="45.98722" lon="3.81267">
        <ele>1008</ele>
        <time>2015-08-05T06:44:52Z</time>
      </trkpt>
      <trkpt lat="45.98722" lon="3.81263">
        <ele>1007</ele>
        <time>2015-08-05T06:44:55Z</time>
      </trkpt>
      <trkpt lat="45.98722" lon="3.81255">
        <ele>1006</ele>
        <time>2015-08-05T06:45:00Z</time>
      </trkpt>
      <trkpt lat="45.98721" lon="3.81251">
        <ele>1005</ele>
        <time>2015-08-05T06:45:02Z</time>
      </trkpt>
      <trkpt lat="45.98721" lon="3.81247">
        <ele>1005</ele>
        <time>2015-08-05T06:45:04Z</time>
      </trkpt>
      <trkpt lat="45.9872" lon="3.81234">
        <ele>1004</ele>
        <time>2015-08-05T06:45:11Z</time>
      </trkpt>
      <trkpt lat="45.98717" lon="3.81228">
        <ele>1004</ele>
        <time>2015-08-05T06:45:14Z</time>
      </trkpt>
      <trkpt lat="45.98717" lon="3.81223">
        <ele>1004</ele>
        <time>2015-08-05T06:45:16Z</time>
      </trkpt>
      <trkpt lat="45.98715" lon="3.81218">
        <ele>1004</ele>
        <time>2015-08-05T06:45:18Z</time>
      </trkpt>
      <trkpt lat="45.98714" lon="3.81211">
        <ele>1004</ele>
        <time>2015-08-05T06:45:21Z</time>
      </trkpt>
      <trkpt lat="45.98714" lon="3.81205">
        <ele>1004</ele>
        <time>2015-08-05T06:45:24Z</time>
      </trkpt>
      <trkpt lat="45.98711" lon="3.81192">
        <ele>1004</ele>
        <time>2015-08-05T06:45:29Z</time>
      </trkpt>
      <trkpt lat="45.98709" lon="3.81188">
        <ele>1004</ele>
        <time>2015-08-05T06:45:31Z</time>
      </trkpt>
      <trkpt lat="45.98708" lon="3.81179">
        <ele>1004</ele>
        <time>2015-08-05T06:45:35Z</time>
      </trkpt>
      <trkpt lat="45.98706" lon="3.8117">
        <ele>1004</ele>
        <time>2015-08-05T06:45:40Z</time>
      </trkpt>
      <trkpt lat="45.98706" lon="3.81166">
        <ele>1004</ele>
        <time>2015-08-05T06:45:42Z</time>
      </trkpt>
      <trkpt lat="45.98706" lon="3.81159">
        <ele>1004</ele>
        <time>2015-08-05T06:45:45Z</time>
      </trkpt>
      <trkpt lat="45.98706" lon="3.81155">
        <ele>1004</ele>
        <time>2015-08-05T06:45:47Z</time>
      </trkpt>
      <trkpt lat="45.98705" lon="3.8115">
        <ele>1004</ele>
        <time>2015-08-05T06:45:50Z</time>
      </trkpt>
      <trkpt lat="45.98703" lon="3.81139">
        <ele>1004</ele>
        <time>2015-08-05T06:45:55Z</time>
      </trkpt>
      <trkpt lat="45.98703" lon="3.81136">
        <ele>1004</ele>
        <time>2015-08-05T06:45:57Z</time>
      </trkpt>
      <trkpt lat="45.98701" lon="3.81125">
        <ele>1004</ele>
        <time>2015-08-05T06:46:02Z</time>
      </trkpt>
      <trkpt lat="45.98699" lon="3.81118">
        <ele>1004</ele>
        <time>2015-08-05T06:46:05Z</time>
      </trkpt>
      <trkpt lat="45.98699" lon="3.81114">
        <ele>1004</ele>
        <time>2015-08-05T06:46:07Z</time>
      </trkpt>
      <trkpt lat="45.98699" lon="3.81108">
        <ele>1004</ele>
        <time>2015-08-05T06:46:10Z</time>
      </trkpt>
      <trkpt lat="45.98698" lon="3.81103">
        <ele>1004</ele>
        <time>2015-08-05T06:46:12Z</time>
      </trkpt>
      <trkpt lat="45.98695" lon="3.81098">
        <ele>1004</ele>
        <time>2015-08-05T06:46:15Z</time>
      </trkpt>
      <trkpt lat="45.98691" lon="3.81094">
        <ele>1004</ele>
        <time>2015-08-05T06:46:17Z</time>
      </trkpt>
      <trkpt lat="45.98687" lon="3.81089">
        <ele>1004</ele>
        <time>2015-08-05T06:46:20Z</time>
      </trkpt>
      <trkpt lat="45.98684" lon="3.81085">
        <ele>1005</ele>
        <time>2015-08-05T06:46:22Z</time>
      </trkpt>
      <trkpt lat="45.98678" lon="3.81075">
        <ele>1007</ele>
        <time>2015-08-05T06:46:27Z</time>
      </trkpt>
      <trkpt lat="45.98675" lon="3.81067">
        <ele>1010</ele>
        <time>2015-08-05T06:46:30Z</time>
      </trkpt>
      <trkpt lat="45.98676" lon="3.81063">
        <ele>1010</ele>
        <time>2015-08-05T06:46:32Z</time>
      </trkpt>
      <trkpt lat="45.98673" lon="3.81058">
        <ele>1010</ele>
        <time>2015-08-05T06:46:35Z</time>
      </trkpt>
      <trkpt lat="45.98671" lon="3.81055">
        <ele>1011</ele>
        <time>2015-08-05T06:46:37Z</time>
      </trkpt>
      <trkpt lat="45.98668" lon="3.81049">
        <ele>1012</ele>
        <time>2015-08-05T06:46:41Z</time>
      </trkpt>
      <trkpt lat="45.98667" lon="3.81046">
        <ele>1012</ele>
        <time>2015-08-05T06:46:43Z</time>
      </trkpt>
      <trkpt lat="45.98665" lon="3.8104">
        <ele>1012</ele>
        <time>2015-08-05T06:46:47Z</time>
      </trkpt>
      <trkpt lat="45.98663" lon="3.81038">
        <ele>1012</ele>
        <time>2015-08-05T06:46:49Z</time>
      </trkpt>
      <trkpt lat="45.98661" lon="3.81033">
        <ele>1009</ele>
        <time>2015-08-05T06:46:52Z</time>
      </trkpt>
      <trkpt lat="45.98658" lon="3.8103">
        <ele>1009</ele>
        <time>2015-08-05T06:46:54Z</time>
      </trkpt>
      <trkpt lat="45.98658" lon="3.81025">
        <ele>1008</ele>
        <time>2015-08-05T06:46:57Z</time>
      </trkpt>
      <trkpt lat="45.98656" lon="3.81021">
        <ele>1007</ele>
        <time>2015-08-05T06:46:59Z</time>
      </trkpt>
      <trkpt lat="45.98653" lon="3.81016">
        <ele>1006</ele>
        <time>2015-08-05T06:47:02Z</time>
      </trkpt>
      <trkpt lat="45.9864" lon="3.8101">
        <ele>1008</ele>
        <time>2015-08-05T06:47:07Z</time>
      </trkpt>
      <trkpt lat="45.98636" lon="3.81002">
        <ele>1013</ele>
        <time>2015-08-05T06:47:12Z</time>
      </trkpt>
      <trkpt lat="45.98631" lon="3.80993">
        <ele>1016</ele>
        <time>2015-08-05T06:47:17Z</time>
      </trkpt>
      <trkpt lat="45.98631" lon="3.80991">
        <ele>1016</ele>
        <time>2015-08-05T06:47:19Z</time>
      </trkpt>
      <trkpt lat="45.98631" lon="3.80986">
        <ele>1015</ele>
        <time>2015-08-05T06:47:23Z</time>
      </trkpt>
      <trkpt lat="45.98629" lon="3.80981">
        <ele>1011</ele>
        <time>2015-08-05T06:47:27Z</time>
      </trkpt>
      <trkpt lat="45.9863" lon="3.80978">
        <ele>1009</ele>
        <time>2015-08-05T06:47:29Z</time>
      </trkpt>
      <trkpt lat="45.9863" lon="3.80974">
        <ele>1006</ele>
        <time>2015-08-05T06:47:32Z</time>
      </trkpt>
      <trkpt lat="45.98628" lon="3.80972">
        <ele>1004</ele>
        <time>2015-08-05T06:47:34Z</time>
      </trkpt>
      <trkpt lat="45.98622" lon="3.80966">
        <ele>1000</ele>
        <time>2015-08-05T06:47:38Z</time>
      </trkpt>
      <trkpt lat="45.98618" lon="3.80963">
        <ele>999</ele>
        <time>2015-08-05T06:47:40Z</time>
      </trkpt>
      <trkpt lat="45.98611" lon="3.80955">
        <ele>999</ele>
        <time>2015-08-05T06:47:46Z</time>
      </trkpt>
      <trkpt lat="45.9861" lon="3.80952">
        <ele>999</ele>
        <time>2015-08-05T06:47:48Z</time>
      </trkpt>
      <trkpt lat="45.9861" lon="3.80949">
        <ele>999</ele>
        <time>2015-08-05T06:47:50Z</time>
      </trkpt>
      <trkpt lat="45.98608" lon="3.80942">
        <ele>999</ele>
        <time>2015-08-05T06:47:54Z</time>
      </trkpt>
      <trkpt lat="45.98604" lon="3.80933">
        <ele>999</ele>
        <time>2015-08-05T06:48:00Z</time>
      </trkpt>
      <trkpt lat="45.98602" lon="3.80928">
        <ele>999</ele>
        <time>2015-08-05T06:48:03Z</time>
      </trkpt>
      <trkpt lat="45.98601" lon="3.80924">
        <ele>999</ele>
        <time>2015-08-05T06:48:05Z</time>
      </trkpt>
      <trkpt lat="45.98598" lon="3.80919">
        <ele>999</ele>
        <time>2015-08-05T06:48:08Z</time>
      </trkpt>
      <trkpt lat="45.98597" lon="3.80915">
        <ele>999</ele>
        <time>2015-08-05T06:48:10Z</time>
      </trkpt>
      <trkpt lat="45.98593" lon="3.8091">
        <ele>999</ele>
        <time>2015-08-05T06:48:13Z</time>
      </trkpt>
      <trkpt lat="45.98589" lon="3.80908">
        <ele>999</ele>
        <time>2015-08-05T06:48:15Z</time>
      </trkpt>
      <trkpt lat="45.98587" lon="3.80904">
        <ele>999</ele>
        <time>2015-08-05T06:48:18Z</time>
      </trkpt>
      <trkpt lat="45.98583" lon="3.80902">
        <ele>999</ele>
        <time>2015-08-05T06:48:20Z</time>
      </trkpt>
      <trkpt lat="45.9858" lon="3.80898">
        <ele>1000</ele>
        <time>2015-08-05T06:48:23Z</time>
      </trkpt>
      <trkpt lat="45.98578" lon="3.80893">
        <ele>1000</ele>
        <time>2015-08-05T06:48:26Z</time>
      </trkpt>
      <trkpt lat="45.98575" lon="3.80889">
        <ele>1000</ele>
        <time>2015-08-05T06:48:29Z</time>
      </trkpt>
      <trkpt lat="45.98572" lon="3.80887">
        <ele>1000</ele>
        <time>2015-08-05T06:48:31Z</time>
      </trkpt>
      <trkpt lat="45.9857" lon="3.80883">
        <ele>1000</ele>
        <time>2015-08-05T06:48:34Z</time>
      </trkpt>
      <trkpt lat="45.98569" lon="3.80876">
        <ele>1000</ele>
        <time>2015-08-05T06:48:39Z</time>
      </trkpt>
      <trkpt lat="45.98568" lon="3.80875">
        <ele>1000</ele>
        <time>2015-08-05T06:48:41Z</time>
      </trkpt>
      <trkpt lat="45.98564" lon="3.80874">
        <ele>1000</ele>
        <time>2015-08-05T06:48:43Z</time>
      </trkpt>
      <trkpt lat="45.9856" lon="3.8087">
        <ele>1000</ele>
        <time>2015-08-05T06:48:47Z</time>
      </trkpt>
      <trkpt lat="45.98557" lon="3.80869">
        <ele>1000</ele>
        <time>2015-08-05T06:48:49Z</time>
      </trkpt>
      <trkpt lat="45.9855" lon="3.80868">
        <ele>1000</ele>
        <time>2015-08-05T06:48:54Z</time>
      </trkpt>
      <trkpt lat="45.98545" lon="3.80866">
        <ele>999</ele>
        <time>2015-08-05T06:48:58Z</time>
      </trkpt>
      <trkpt lat="45.98542" lon="3.80864">
        <ele>996</ele>
        <time>2015-08-05T06:49:02Z</time>
      </trkpt>
      <trkpt lat="45.98539" lon="3.80861">
        <ele>995</ele>
        <time>2015-08-05T06:49:04Z</time>
      </trkpt>
      <trkpt lat="45.98533" lon="3.80853">
        <ele>993</ele>
        <time>2015-08-05T06:49:10Z</time>
      </trkpt>
      <trkpt lat="45.98527" lon="3.8085">
        <ele>992</ele>
        <time>2015-08-05T06:49:15Z</time>
      </trkpt>
      <trkpt lat="45.98524" lon="3.80849">
        <ele>991</ele>
        <time>2015-08-05T06:49:17Z</time>
      </trkpt>
      <trkpt lat="45.98521" lon="3.8085">
        <ele>990</ele>
        <time>2015-08-05T06:49:19Z</time>
      </trkpt>
      <trkpt lat="45.98517" lon="3.80852">
        <ele>988</ele>
        <time>2015-08-05T06:49:22Z</time>
      </trkpt>
      <trkpt lat="45.98515" lon="3.8085">
        <ele>987</ele>
        <time>2015-08-05T06:49:24Z</time>
      </trkpt>
      <trkpt lat="45.98512" lon="3.80848">
        <ele>986</ele>
        <time>2015-08-05T06:49:26Z</time>
      </trkpt>
      <trkpt lat="45.98507" lon="3.80847">
        <ele>986</ele>
        <time>2015-08-05T06:49:28Z</time>
      </trkpt>
      <trkpt lat="45.98502" lon="3.80844">
        <ele>986</ele>
        <time>2015-08-05T06:49:32Z</time>
      </trkpt>
      <trkpt lat="45.98496" lon="3.80838">
        <ele>986</ele>
        <time>2015-08-05T06:49:37Z</time>
      </trkpt>
      <trkpt lat="45.98494" lon="3.80835">
        <ele>986</ele>
        <time>2015-08-05T06:49:39Z</time>
      </trkpt>
      <trkpt lat="45.98493" lon="3.8083">
        <ele>986</ele>
        <time>2015-08-05T06:49:41Z</time>
      </trkpt>
      <trkpt lat="45.98491" lon="3.80827">
        <ele>986</ele>
        <time>2015-08-05T06:49:43Z</time>
      </trkpt>
      <trkpt lat="45.98487" lon="3.80824">
        <ele>986</ele>
        <time>2015-08-05T06:49:45Z</time>
      </trkpt>
      <trkpt lat="45.98486" lon="3.80821">
        <ele>987</ele>
        <time>2015-08-05T06:49:47Z</time>
      </trkpt>
      <trkpt lat="45.98483" lon="3.80818">
        <ele>988</ele>
        <time>2015-08-05T06:49:49Z</time>
      </trkpt>
      <trkpt lat="45.98478" lon="3.80813">
        <ele>989</ele>
        <time>2015-08-05T06:49:53Z</time>
      </trkpt>
      <trkpt lat="45.98474" lon="3.80806">
        <ele>989</ele>
        <time>2015-08-05T06:49:58Z</time>
      </trkpt>
      <trkpt lat="45.98473" lon="3.80803">
        <ele>989</ele>
        <time>2015-08-05T06:50:00Z</time>
      </trkpt>
      <trkpt lat="45.98471" lon="3.808">
        <ele>989</ele>
        <time>2015-08-05T06:50:02Z</time>
      </trkpt>
      <trkpt lat="45.9847" lon="3.80795">
        <ele>989</ele>
        <time>2015-08-05T06:50:06Z</time>
      </trkpt>
      <trkpt lat="45.9847" lon="3.8079">
        <ele>988</ele>
        <time>2015-08-05T06:50:09Z</time>
      </trkpt>
      <trkpt lat="45.98469" lon="3.80784">
        <ele>987</ele>
        <time>2015-08-05T06:50:13Z</time>
      </trkpt>
      <trkpt lat="45.98469" lon="3.80777">
        <ele>987</ele>
        <time>2015-08-05T06:50:17Z</time>
      </trkpt>
      <trkpt lat="45.98469" lon="3.80774">
        <ele>987</ele>
        <time>2015-08-05T06:50:19Z</time>
      </trkpt>
      <trkpt lat="45.98468" lon="3.80764">
        <ele>987</ele>
        <time>2015-08-05T06:50:23Z</time>
      </trkpt>
      <trkpt lat="45.98468" lon="3.80759">
        <ele>987</ele>
        <time>2015-08-05T06:50:25Z</time>
      </trkpt>
      <trkpt lat="45.98468" lon="3.80754">
        <ele>987</ele>
        <time>2015-08-05T06:50:27Z</time>
      </trkpt>
      <trkpt lat="45.98466" lon="3.80747">
        <ele>987</ele>
        <time>2015-08-05T06:50:30Z</time>
      </trkpt>
      <trkpt lat="45.98466" lon="3.80742">
        <ele>987</ele>
        <time>2015-08-05T06:50:32Z</time>
      </trkpt>
      <trkpt lat="45.98465" lon="3.80735">
        <ele>987</ele>
        <time>2015-08-05T06:50:36Z</time>
      </trkpt>
      <trkpt lat="45.98464" lon="3.80727">
        <ele>987</ele>
        <time>2015-08-05T06:50:40Z</time>
      </trkpt>
      <trkpt lat="45.98463" lon="3.80724">
        <ele>987</ele>
        <time>2015-08-05T06:50:42Z</time>
      </trkpt>
      <trkpt lat="45.98463" lon="3.80718">
        <ele>986</ele>
        <time>2015-08-05T06:50:45Z</time>
      </trkpt>
      <trkpt lat="45.9846" lon="3.80705">
        <ele>983</ele>
        <time>2015-08-05T06:50:53Z</time>
      </trkpt>
      <trkpt lat="45.98459" lon="3.80702">
        <ele>982</ele>
        <time>2015-08-05T06:50:55Z</time>
      </trkpt>
      <trkpt lat="45.98457" lon="3.80696">
        <ele>981</ele>
        <time>2015-08-05T06:50:59Z</time>
      </trkpt>
      <trkpt lat="45.98457" lon="3.80692">
        <ele>980</ele>
        <time>2015-08-05T06:51:01Z</time>
      </trkpt>
      <trkpt lat="45.98455" lon="3.80683">
        <ele>978</ele>
        <time>2015-08-05T06:51:06Z</time>
      </trkpt>
      <trkpt lat="45.98453" lon="3.8068">
        <ele>978</ele>
        <time>2015-08-05T06:51:08Z</time>
      </trkpt>
      <trkpt lat="45.98451" lon="3.80673">
        <ele>978</ele>
        <time>2015-08-05T06:51:12Z</time>
      </trkpt>
      <trkpt lat="45.9845" lon="3.80669">
        <ele>977</ele>
        <time>2015-08-05T06:51:14Z</time>
      </trkpt>
      <trkpt lat="45.98449" lon="3.80666">
        <ele>977</ele>
        <time>2015-08-05T06:51:16Z</time>
      </trkpt>
      <trkpt lat="45.98446" lon="3.80648">
        <ele>976</ele>
        <time>2015-08-05T06:51:25Z</time>
      </trkpt>
      <trkpt lat="45.98445" lon="3.8064">
        <ele>976</ele>
        <time>2015-08-05T06:51:29Z</time>
      </trkpt>
      <trkpt lat="45.98445" lon="3.80636">
        <ele>976</ele>
        <time>2015-08-05T06:51:31Z</time>
      </trkpt>
      <trkpt lat="45.98444" lon="3.80632">
        <ele>976</ele>
        <time>2015-08-05T06:51:33Z</time>
      </trkpt>
      <trkpt lat="45.98444" lon="3.80614">
        <ele>976</ele>
        <time>2015-08-05T06:51:41Z</time>
      </trkpt>
      <trkpt lat="45.98447" lon="3.80587">
        <ele>976</ele>
        <time>2015-08-05T06:51:53Z</time>
      </trkpt>
      <trkpt lat="45.98447" lon="3.80575">
        <ele>976</ele>
        <time>2015-08-05T06:51:59Z</time>
      </trkpt>
      <trkpt lat="45.98447" lon="3.80572">
        <ele>976</ele>
        <time>2015-08-05T06:52:01Z</time>
      </trkpt>
      <trkpt lat="45.98447" lon="3.80563">
        <ele>976</ele>
        <time>2015-08-05T06:52:05Z</time>
      </trkpt>
      <trkpt lat="45.98448" lon="3.80559">
        <ele>976</ele>
        <time>2015-08-05T06:52:07Z</time>
      </trkpt>
      <trkpt lat="45.98448" lon="3.80551">
        <ele>976</ele>
        <time>2015-08-05T06:52:11Z</time>
      </trkpt>
      <trkpt lat="45.98449" lon="3.80547">
        <ele>976</ele>
        <time>2015-08-05T06:52:13Z</time>
      </trkpt>
      <trkpt lat="45.98449" lon="3.80532">
        <ele>976</ele>
        <time>2015-08-05T06:52:19Z</time>
      </trkpt>
      <trkpt lat="45.98448" lon="3.80529">
        <ele>976</ele>
        <time>2015-08-05T06:52:21Z</time>
      </trkpt>
      <trkpt lat="45.98448" lon="3.80519">
        <ele>976</ele>
        <time>2015-08-05T06:52:27Z</time>
      </trkpt>
      <trkpt lat="45.98448" lon="3.80516">
        <ele>976</ele>
        <time>2015-08-05T06:52:29Z</time>
      </trkpt>
      <trkpt lat="45.98447" lon="3.80507">
        <ele>975</ele>
        <time>2015-08-05T06:52:33Z</time>
      </trkpt>
      <trkpt lat="45.98446" lon="3.80499">
        <ele>974</ele>
        <time>2015-08-05T06:52:37Z</time>
      </trkpt>
      <trkpt lat="45.98446" lon="3.80494">
        <ele>974</ele>
        <time>2015-08-05T06:52:39Z</time>
      </trkpt>
      <trkpt lat="45.98444" lon="3.80479">
        <ele>970</ele>
        <time>2015-08-05T06:52:48Z</time>
      </trkpt>
      <trkpt lat="45.98444" lon="3.80453">
        <ele>966</ele>
        <time>2015-08-05T06:53:00Z</time>
      </trkpt>
      <trkpt lat="45.98445" lon="3.8045">
        <ele>965</ele>
        <time>2015-08-05T06:53:02Z</time>
      </trkpt>
      <trkpt lat="45.98445" lon="3.80442">
        <ele>965</ele>
        <time>2015-08-05T06:53:06Z</time>
      </trkpt>
      <trkpt lat="45.98446" lon="3.80438">
        <ele>964</ele>
        <time>2015-08-05T06:53:08Z</time>
      </trkpt>
      <trkpt lat="45.98447" lon="3.80435">
        <ele>963</ele>
        <time>2015-08-05T06:53:10Z</time>
      </trkpt>
      <trkpt lat="45.98448" lon="3.80426">
        <ele>961</ele>
        <time>2015-08-05T06:53:14Z</time>
      </trkpt>
      <trkpt lat="45.98448" lon="3.80421">
        <ele>961</ele>
        <time>2015-08-05T06:53:16Z</time>
      </trkpt>
      <trkpt lat="45.9845" lon="3.8041">
        <ele>961</ele>
        <time>2015-08-05T06:53:21Z</time>
      </trkpt>
      <trkpt lat="45.9845" lon="3.80401">
        <ele>961</ele>
        <time>2015-08-05T06:53:25Z</time>
      </trkpt>
      <trkpt lat="45.9845" lon="3.80395">
        <ele>961</ele>
        <time>2015-08-05T06:53:27Z</time>
      </trkpt>
      <trkpt lat="45.98451" lon="3.80391">
        <ele>961</ele>
        <time>2015-08-05T06:53:29Z</time>
      </trkpt>
      <trkpt lat="45.9845" lon="3.80382">
        <ele>961</ele>
        <time>2015-08-05T06:53:33Z</time>
      </trkpt>
      <trkpt lat="45.9845" lon="3.80377">
        <ele>961</ele>
        <time>2015-08-05T06:53:35Z</time>
      </trkpt>
      <trkpt lat="45.9845" lon="3.80373">
        <ele>961</ele>
        <time>2015-08-05T06:53:37Z</time>
      </trkpt>
      <trkpt lat="45.9845" lon="3.80361">
        <ele>961</ele>
        <time>2015-08-05T06:53:43Z</time>
      </trkpt>
      <trkpt lat="45.98451" lon="3.80357">
        <ele>961</ele>
        <time>2015-08-05T06:53:45Z</time>
      </trkpt>
      <trkpt lat="45.98451" lon="3.80348">
        <ele>961</ele>
        <time>2015-08-05T06:53:49Z</time>
      </trkpt>
      <trkpt lat="45.98451" lon="3.80343">
        <ele>961</ele>
        <time>2015-08-05T06:53:51Z</time>
      </trkpt>
      <trkpt lat="45.98451" lon="3.80324">
        <ele>961</ele>
        <time>2015-08-05T06:53:59Z</time>
      </trkpt>
      <trkpt lat="45.98451" lon="3.8032">
        <ele>961</ele>
        <time>2015-08-05T06:54:01Z</time>
      </trkpt>
      <trkpt lat="45.98451" lon="3.80312">
        <ele>961</ele>
        <time>2015-08-05T06:54:05Z</time>
      </trkpt>
      <trkpt lat="45.98451" lon="3.80309">
        <ele>961</ele>
        <time>2015-08-05T06:54:07Z</time>
      </trkpt>
      <trkpt lat="45.98451" lon="3.80296">
        <ele>961</ele>
        <time>2015-08-05T06:54:13Z</time>
      </trkpt>
      <trkpt lat="45.98452" lon="3.80293">
        <ele>961</ele>
        <time>2015-08-05T06:54:15Z</time>
      </trkpt>
      <trkpt lat="45.98454" lon="3.80289">
        <ele>961</ele>
        <time>2015-08-05T06:54:19Z</time>
      </trkpt>
      <trkpt lat="45.98455" lon="3.80286">
        <ele>960</ele>
        <time>2015-08-05T06:54:21Z</time>
      </trkpt>
      <trkpt lat="45.98456" lon="3.80278">
        <ele>960</ele>
        <time>2015-08-05T06:54:25Z</time>
      </trkpt>
      <trkpt lat="45.98457" lon="3.80275">
        <ele>960</ele>
        <time>2015-08-05T06:54:27Z</time>
      </trkpt>
      <trkpt lat="45.98459" lon="3.80272">
        <ele>960</ele>
        <time>2015-08-05T06:54:29Z</time>
      </trkpt>
      <trkpt lat="45.9846" lon="3.80268">
        <ele>959</ele>
        <time>2015-08-05T06:54:31Z</time>
      </trkpt>
      <trkpt lat="45.98461" lon="3.80259">
        <ele>959</ele>
        <time>2015-08-05T06:54:35Z</time>
      </trkpt>
      <trkpt lat="45.98462" lon="3.80255">
        <ele>959</ele>
        <time>2015-08-05T06:54:38Z</time>
      </trkpt>
      <trkpt lat="45.98463" lon="3.80251">
        <ele>959</ele>
        <time>2015-08-05T06:54:40Z</time>
      </trkpt>
      <trkpt lat="45.98463" lon="3.80246">
        <ele>958</ele>
        <time>2015-08-05T06:54:43Z</time>
      </trkpt>
      <trkpt lat="45.98463" lon="3.80242">
        <ele>958</ele>
        <time>2015-08-05T06:54:45Z</time>
      </trkpt>
      <trkpt lat="45.98465" lon="3.80239">
        <ele>957</ele>
        <time>2015-08-05T06:54:47Z</time>
      </trkpt>
      <trkpt lat="45.98468" lon="3.80234">
        <ele>955</ele>
        <time>2015-08-05T06:54:51Z</time>
      </trkpt>
      <trkpt lat="45.98469" lon="3.80229">
        <ele>954</ele>
        <time>2015-08-05T06:54:53Z</time>
      </trkpt>
      <trkpt lat="45.98473" lon="3.80218">
        <ele>951</ele>
        <time>2015-08-05T06:55:00Z</time>
      </trkpt>
      <trkpt lat="45.98473" lon="3.80214">
        <ele>951</ele>
        <time>2015-08-05T06:55:02Z</time>
      </trkpt>
      <trkpt lat="45.98474" lon="3.80206">
        <ele>951</ele>
        <time>2015-08-05T06:55:06Z</time>
      </trkpt>
      <trkpt lat="45.98475" lon="3.80203">
        <ele>951</ele>
        <time>2015-08-05T06:55:08Z</time>
      </trkpt>
      <trkpt lat="45.98477" lon="3.80201">
        <ele>950</ele>
        <time>2015-08-05T06:55:10Z</time>
      </trkpt>
      <trkpt lat="45.98479" lon="3.80194">
        <ele>949</ele>
        <time>2015-08-05T06:55:13Z</time>
      </trkpt>
      <trkpt lat="45.9848" lon="3.80189">
        <ele>949</ele>
        <time>2015-08-05T06:55:15Z</time>
      </trkpt>
      <trkpt lat="45.98483" lon="3.8018">
        <ele>949</ele>
        <time>2015-08-05T06:55:19Z</time>
      </trkpt>
      <trkpt lat="45.98484" lon="3.80176">
        <ele>949</ele>
        <time>2015-08-05T06:55:21Z</time>
      </trkpt>
      <trkpt lat="45.98486" lon="3.80169">
        <ele>949</ele>
        <time>2015-08-05T06:55:25Z</time>
      </trkpt>
      <trkpt lat="45.98488" lon="3.80166">
        <ele>949</ele>
        <time>2015-08-05T06:55:27Z</time>
      </trkpt>
      <trkpt lat="45.98492" lon="3.80165">
        <ele>949</ele>
        <time>2015-08-05T06:55:29Z</time>
      </trkpt>
      <trkpt lat="45.98493" lon="3.80162">
        <ele>949</ele>
        <time>2015-08-05T06:55:31Z</time>
      </trkpt>
      <trkpt lat="45.98494" lon="3.80158">
        <ele>949</ele>
        <time>2015-08-05T06:55:33Z</time>
      </trkpt>
      <trkpt lat="45.98497" lon="3.80157">
        <ele>949</ele>
        <time>2015-08-05T06:55:35Z</time>
      </trkpt>
      <trkpt lat="45.98505" lon="3.80154">
        <ele>949</ele>
        <time>2015-08-05T06:55:39Z</time>
      </trkpt>
      <trkpt lat="45.9851" lon="3.80147">
        <ele>949</ele>
        <time>2015-08-05T06:55:44Z</time>
      </trkpt>
      <trkpt lat="45.98512" lon="3.80145">
        <ele>949</ele>
        <time>2015-08-05T06:55:46Z</time>
      </trkpt>
      <trkpt lat="45.98514" lon="3.80142">
        <ele>949</ele>
        <time>2015-08-05T06:55:48Z</time>
      </trkpt>
      <trkpt lat="45.98519" lon="3.80137">
        <ele>949</ele>
        <time>2015-08-05T06:55:52Z</time>
      </trkpt>
      <trkpt lat="45.98524" lon="3.80131">
        <ele>949</ele>
        <time>2015-08-05T06:55:56Z</time>
      </trkpt>
      <trkpt lat="45.98528" lon="3.80131">
        <ele>949</ele>
        <time>2015-08-05T06:55:58Z</time>
      </trkpt>
      <trkpt lat="45.98534" lon="3.80123">
        <ele>949</ele>
        <time>2015-08-05T06:56:04Z</time>
      </trkpt>
      <trkpt lat="45.98537" lon="3.80121">
        <ele>950</ele>
        <time>2015-08-05T06:56:06Z</time>
      </trkpt>
      <trkpt lat="45.98542" lon="3.80116">
        <ele>950</ele>
        <time>2015-08-05T06:56:11Z</time>
      </trkpt>
      <trkpt lat="45.98544" lon="3.80111">
        <ele>951</ele>
        <time>2015-08-05T06:56:15Z</time>
      </trkpt>
      <trkpt lat="45.98547" lon="3.8011">
        <ele>951</ele>
        <time>2015-08-05T06:56:19Z</time>
      </trkpt>
      <trkpt lat="45.98548" lon="3.80106">
        <ele>951</ele>
        <time>2015-08-05T06:56:21Z</time>
      </trkpt>
      <trkpt lat="45.9855" lon="3.80103">
        <ele>951</ele>
        <time>2015-08-05T06:56:23Z</time>
      </trkpt>
      <trkpt lat="45.98549" lon="3.80098">
        <ele>951</ele>
        <time>2015-08-05T06:56:25Z</time>
      </trkpt>
      <trkpt lat="45.9855" lon="3.80094">
        <ele>953</ele>
        <time>2015-08-05T06:56:27Z</time>
      </trkpt>
      <trkpt lat="45.98555" lon="3.80088">
        <ele>957</ele>
        <time>2015-08-05T06:56:31Z</time>
      </trkpt>
      <trkpt lat="45.98557" lon="3.8008">
        <ele>959</ele>
        <time>2015-08-05T06:56:35Z</time>
      </trkpt>
      <trkpt lat="45.98559" lon="3.80076">
        <ele>960</ele>
        <time>2015-08-05T06:56:37Z</time>
      </trkpt>
      <trkpt lat="45.98562" lon="3.80073">
        <ele>961</ele>
        <time>2015-08-05T06:56:40Z</time>
      </trkpt>
      <trkpt lat="45.98568" lon="3.8007">
        <ele>961</ele>
        <time>2015-08-05T06:56:44Z</time>
      </trkpt>
      <trkpt lat="45.98575" lon="3.80068">
        <ele>961</ele>
        <time>2015-08-05T06:56:48Z</time>
      </trkpt>
      <trkpt lat="45.98578" lon="3.80064">
        <ele>961</ele>
        <time>2015-08-05T06:56:51Z</time>
      </trkpt>
      <trkpt lat="45.98581" lon="3.80062">
        <ele>961</ele>
        <time>2015-08-05T06:56:53Z</time>
      </trkpt>
      <trkpt lat="45.98586" lon="3.80055">
        <ele>961</ele>
        <time>2015-08-05T06:56:59Z</time>
      </trkpt>
      <trkpt lat="45.98588" lon="3.80053">
        <ele>961</ele>
        <time>2015-08-05T06:57:01Z</time>
      </trkpt>
      <trkpt lat="45.98601" lon="3.80038">
        <ele>961</ele>
        <time>2015-08-05T06:57:13Z</time>
      </trkpt>
      <trkpt lat="45.98606" lon="3.8003">
        <ele>962</ele>
        <time>2015-08-05T06:57:18Z</time>
      </trkpt>
      <trkpt lat="45.98611" lon="3.80017">
        <ele>963</ele>
        <time>2015-08-05T06:57:25Z</time>
      </trkpt>
      <trkpt lat="45.98617" lon="3.8">
        <ele>962</ele>
        <time>2015-08-05T06:57:36Z</time>
      </trkpt>
      <trkpt lat="45.98619" lon="3.79993">
        <ele>962</ele>
        <time>2015-08-05T06:57:40Z</time>
      </trkpt>
      <trkpt lat="45.98621" lon="3.79985">
        <ele>961</ele>
        <time>2015-08-05T06:57:44Z</time>
      </trkpt>
      <trkpt lat="45.98623" lon="3.79971">
        <ele>958</ele>
        <time>2015-08-05T06:57:52Z</time>
      </trkpt>
      <trkpt lat="45.98624" lon="3.79964">
        <ele>957</ele>
        <time>2015-08-05T06:57:56Z</time>
      </trkpt>
      <trkpt lat="45.98624" lon="3.79958">
        <ele>955</ele>
        <time>2015-08-05T06:58:00Z</time>
      </trkpt>
      <trkpt lat="45.98625" lon="3.79949">
        <ele>954</ele>
        <time>2015-08-05T06:58:07Z</time>
      </trkpt>
      <trkpt lat="45.98625" lon="3.79938">
        <ele>954</ele>
        <time>2015-08-05T06:58:13Z</time>
      </trkpt>
      <trkpt lat="45.98624" lon="3.79923">
        <ele>954</ele>
        <time>2015-08-05T06:58:21Z</time>
      </trkpt>
      <trkpt lat="45.98623" lon="3.7992">
        <ele>954</ele>
        <time>2015-08-05T06:58:23Z</time>
      </trkpt>
      <trkpt lat="45.98622" lon="3.79911">
        <ele>952</ele>
        <time>2015-08-05T06:58:27Z</time>
      </trkpt>
      <trkpt lat="45.98621" lon="3.79906">
        <ele>951</ele>
        <time>2015-08-05T06:58:29Z</time>
      </trkpt>
      <trkpt lat="45.98615" lon="3.7989">
        <ele>947</ele>
        <time>2015-08-05T06:58:40Z</time>
      </trkpt>
      <trkpt lat="45.98607" lon="3.79873">
        <ele>944</ele>
        <time>2015-08-05T06:58:51Z</time>
      </trkpt>
      <trkpt lat="45.98605" lon="3.7987">
        <ele>943</ele>
        <time>2015-08-05T06:58:53Z</time>
      </trkpt>
      <trkpt lat="45.98603" lon="3.79867">
        <ele>943</ele>
        <time>2015-08-05T06:58:55Z</time>
      </trkpt>
      <trkpt lat="45.98601" lon="3.79864">
        <ele>943</ele>
        <time>2015-08-05T06:58:57Z</time>
      </trkpt>
      <trkpt lat="45.98594" lon="3.79857">
        <ele>941</ele>
        <time>2015-08-05T06:59:03Z</time>
      </trkpt>
      <trkpt lat="45.98592" lon="3.79855">
        <ele>940</ele>
        <time>2015-08-05T06:59:05Z</time>
      </trkpt>
      <trkpt lat="45.9859" lon="3.79851">
        <ele>940</ele>
        <time>2015-08-05T06:59:07Z</time>
      </trkpt>
      <trkpt lat="45.98588" lon="3.79849">
        <ele>940</ele>
        <time>2015-08-05T06:59:09Z</time>
      </trkpt>
      <trkpt lat="45.98586" lon="3.79846">
        <ele>940</ele>
        <time>2015-08-05T06:59:11Z</time>
      </trkpt>
      <trkpt lat="45.98581" lon="3.79843">
        <ele>939</ele>
        <time>2015-08-05T06:59:15Z</time>
      </trkpt>
      <trkpt lat="45.98575" lon="3.79839">
        <ele>936</ele>
        <time>2015-08-05T06:59:21Z</time>
      </trkpt>
      <trkpt lat="45.98573" lon="3.79837">
        <ele>936</ele>
        <time>2015-08-05T06:59:23Z</time>
      </trkpt>
      <trkpt lat="45.98571" lon="3.79833">
        <ele>936</ele>
        <time>2015-08-05T06:59:25Z</time>
      </trkpt>
      <trkpt lat="45.98568" lon="3.7983">
        <ele>936</ele>
        <time>2015-08-05T06:59:27Z</time>
      </trkpt>
      <trkpt lat="45.98564" lon="3.79829">
        <ele>936</ele>
        <time>2015-08-05T06:59:29Z</time>
      </trkpt>
      <trkpt lat="45.9855" lon="3.79823">
        <ele>942</ele>
        <time>2015-08-05T06:59:36Z</time>
      </trkpt>
      <trkpt lat="45.98546" lon="3.7982">
        <ele>944</ele>
        <time>2015-08-05T06:59:38Z</time>
      </trkpt>
      <trkpt lat="45.98544" lon="3.7982">
        <ele>946</ele>
        <time>2015-08-05T06:59:40Z</time>
      </trkpt>
      <trkpt lat="45.98526" lon="3.79807">
        <ele>955</ele>
        <time>2015-08-05T06:59:49Z</time>
      </trkpt>
      <trkpt lat="45.98516" lon="3.79802">
        <ele>959</ele>
        <time>2015-08-05T06:59:53Z</time>
      </trkpt>
      <trkpt lat="45.98513" lon="3.79801">
        <ele>963</ele>
        <time>2015-08-05T06:59:57Z</time>
      </trkpt>
      <trkpt lat="45.98508" lon="3.79798">
        <ele>967</ele>
        <time>2015-08-05T07:00:01Z</time>
      </trkpt>
      <trkpt lat="45.98504" lon="3.79791">
        <ele>968</ele>
        <time>2015-08-05T07:00:06Z</time>
      </trkpt>
      <trkpt lat="45.98502" lon="3.79788">
        <ele>968</ele>
        <time>2015-08-05T07:00:08Z</time>
      </trkpt>
      <trkpt lat="45.98498" lon="3.79786">
        <ele>968</ele>
        <time>2015-08-05T07:00:11Z</time>
      </trkpt>
      <trkpt lat="45.98493" lon="3.79782">
        <ele>964</ele>
        <time>2015-08-05T07:00:18Z</time>
      </trkpt>
      <trkpt lat="45.98491" lon="3.79777">
        <ele>961</ele>
        <time>2015-08-05T07:00:21Z</time>
      </trkpt>
      <trkpt lat="45.98488" lon="3.79773">
        <ele>957</ele>
        <time>2015-08-05T07:00:25Z</time>
      </trkpt>
      <trkpt lat="45.98484" lon="3.7977">
        <ele>955</ele>
        <time>2015-08-05T07:00:27Z</time>
      </trkpt>
      <trkpt lat="45.98482" lon="3.79767">
        <ele>955</ele>
        <time>2015-08-05T07:00:29Z</time>
      </trkpt>
      <trkpt lat="45.9848" lon="3.79761">
        <ele>952</ele>
        <time>2015-08-05T07:00:34Z</time>
      </trkpt>
      <trkpt lat="45.98476" lon="3.79758">
        <ele>952</ele>
        <time>2015-08-05T07:00:36Z</time>
      </trkpt>
      <trkpt lat="45.98473" lon="3.79756">
        <ele>952</ele>
        <time>2015-08-05T07:00:38Z</time>
      </trkpt>
      <trkpt lat="45.98469" lon="3.79752">
        <ele>952</ele>
        <time>2015-08-05T07:00:41Z</time>
      </trkpt>
      <trkpt lat="45.98465" lon="3.79747">
        <ele>953</ele>
        <time>2015-08-05T07:00:43Z</time>
      </trkpt>
      <trkpt lat="45.98463" lon="3.79743">
        <ele>955</ele>
        <time>2015-08-05T07:00:45Z</time>
      </trkpt>
      <trkpt lat="45.9846" lon="3.79741">
        <ele>957</ele>
        <time>2015-08-05T07:00:48Z</time>
      </trkpt>
      <trkpt lat="45.98455" lon="3.79738">
        <ele>959</ele>
        <time>2015-08-05T07:00:50Z</time>
      </trkpt>
      <trkpt lat="45.98453" lon="3.79735">
        <ele>961</ele>
        <time>2015-08-05T07:00:52Z</time>
      </trkpt>
      <trkpt lat="45.98449" lon="3.79727">
        <ele>965</ele>
        <time>2015-08-05T07:00:58Z</time>
      </trkpt>
      <trkpt lat="45.98447" lon="3.79724">
        <ele>965</ele>
        <time>2015-08-05T07:01:00Z</time>
      </trkpt>
      <trkpt lat="45.98443" lon="3.79721">
        <ele>965</ele>
        <time>2015-08-05T07:01:02Z</time>
      </trkpt>
      <trkpt lat="45.98441" lon="3.79718">
        <ele>966</ele>
        <time>2015-08-05T07:01:04Z</time>
      </trkpt>
      <trkpt lat="45.9844" lon="3.79711">
        <ele>967</ele>
        <time>2015-08-05T07:01:09Z</time>
      </trkpt>
      <trkpt lat="45.9844" lon="3.79709">
        <ele>967</ele>
        <time>2015-08-05T07:01:11Z</time>
      </trkpt>
      <trkpt lat="45.9844" lon="3.79706">
        <ele>964</ele>
        <time>2015-08-05T07:01:14Z</time>
      </trkpt>
      <trkpt lat="45.98441" lon="3.79702">
        <ele>962</ele>
        <time>2015-08-05T07:01:16Z</time>
      </trkpt>
      <trkpt lat="45.9844" lon="3.79699">
        <ele>960</ele>
        <time>2015-08-05T07:01:18Z</time>
      </trkpt>
      <trkpt lat="45.98436" lon="3.79687">
        <ele>953</ele>
        <time>2015-08-05T07:01:25Z</time>
      </trkpt>
      <trkpt lat="45.98433" lon="3.79681">
        <ele>949</ele>
        <time>2015-08-05T07:01:29Z</time>
      </trkpt>
      <trkpt lat="45.9843" lon="3.79677">
        <ele>946</ele>
        <time>2015-08-05T07:01:32Z</time>
      </trkpt>
      <trkpt lat="45.98425" lon="3.7967">
        <ele>944</ele>
        <time>2015-08-05T07:01:38Z</time>
      </trkpt>
      <trkpt lat="45.98423" lon="3.79666">
        <ele>943</ele>
        <time>2015-08-05T07:01:40Z</time>
      </trkpt>
      <trkpt lat="45.98418" lon="3.79662">
        <ele>942</ele>
        <time>2015-08-05T07:01:45Z</time>
      </trkpt>
      <trkpt lat="45.98414" lon="3.79657">
        <ele>940</ele>
        <time>2015-08-05T07:01:50Z</time>
      </trkpt>
      <trkpt lat="45.98411" lon="3.79656">
        <ele>939</ele>
        <time>2015-08-05T07:01:52Z</time>
      </trkpt>
      <trkpt lat="45.9841" lon="3.79653">
        <ele>938</ele>
        <time>2015-08-05T07:01:54Z</time>
      </trkpt>
      <trkpt lat="45.98404" lon="3.79648">
        <ele>937</ele>
        <time>2015-08-05T07:01:59Z</time>
      </trkpt>
      <trkpt lat="45.98395" lon="3.79643">
        <ele>932</ele>
        <time>2015-08-05T07:02:08Z</time>
      </trkpt>
      <trkpt lat="45.98392" lon="3.79641">
        <ele>932</ele>
        <time>2015-08-05T07:02:10Z</time>
      </trkpt>
      <trkpt lat="45.98386" lon="3.79637">
        <ele>932</ele>
        <time>2015-08-05T07:02:14Z</time>
      </trkpt>
      <trkpt lat="45.98385" lon="3.79635">
        <ele>932</ele>
        <time>2015-08-05T07:02:16Z</time>
      </trkpt>
      <trkpt lat="45.98375" lon="3.79631">
        <ele>932</ele>
        <time>2015-08-05T07:02:21Z</time>
      </trkpt>
      <trkpt lat="45.9837" lon="3.79628">
        <ele>933</ele>
        <time>2015-08-05T07:02:23Z</time>
      </trkpt>
      <trkpt lat="45.98367" lon="3.79625">
        <ele>936</ele>
        <time>2015-08-05T07:02:26Z</time>
      </trkpt>
      <trkpt lat="45.98362" lon="3.79622">
        <ele>938</ele>
        <time>2015-08-05T07:02:28Z</time>
      </trkpt>
      <trkpt lat="45.9836" lon="3.79617">
        <ele>941</ele>
        <time>2015-08-05T07:02:31Z</time>
      </trkpt>
      <trkpt lat="45.98346" lon="3.79608">
        <ele>947</ele>
        <time>2015-08-05T07:02:39Z</time>
      </trkpt>
      <trkpt lat="45.98341" lon="3.79606">
        <ele>949</ele>
        <time>2015-08-05T07:02:41Z</time>
      </trkpt>
      <trkpt lat="45.98335" lon="3.79604">
        <ele>951</ele>
        <time>2015-08-05T07:02:43Z</time>
      </trkpt>
      <trkpt lat="45.98328" lon="3.79602">
        <ele>953</ele>
        <time>2015-08-05T07:02:45Z</time>
      </trkpt>
      <trkpt lat="45.98325" lon="3.796">
        <ele>958</ele>
        <time>2015-08-05T07:02:48Z</time>
      </trkpt>
      <trkpt lat="45.98321" lon="3.796">
        <ele>961</ele>
        <time>2015-08-05T07:02:51Z</time>
      </trkpt>
      <trkpt lat="45.98317" lon="3.79598">
        <ele>962</ele>
        <time>2015-08-05T07:02:53Z</time>
      </trkpt>
      <trkpt lat="45.98312" lon="3.79597">
        <ele>963</ele>
        <time>2015-08-05T07:02:55Z</time>
      </trkpt>
      <trkpt lat="45.98304" lon="3.79594">
        <ele>968</ele>
        <time>2015-08-05T07:03:00Z</time>
      </trkpt>
      <trkpt lat="45.98295" lon="3.79592">
        <ele>972</ele>
        <time>2015-08-05T07:03:04Z</time>
      </trkpt>
      <trkpt lat="45.98295" lon="3.7959">
        <ele>975</ele>
        <time>2015-08-05T07:03:09Z</time>
      </trkpt>
      <trkpt lat="45.98293" lon="3.79585">
        <ele>971</ele>
        <time>2015-08-05T07:03:14Z</time>
      </trkpt>
      <trkpt lat="45.9829" lon="3.79581">
        <ele>970</ele>
        <time>2015-08-05T07:03:16Z</time>
      </trkpt>
      <trkpt lat="45.98286" lon="3.79576">
        <ele>970</ele>
        <time>2015-08-05T07:03:18Z</time>
      </trkpt>
      <trkpt lat="45.98282" lon="3.79571">
        <ele>970</ele>
        <time>2015-08-05T07:03:22Z</time>
      </trkpt>
      <trkpt lat="45.98283" lon="3.79571">
        <ele>970</ele>
        <time>2015-08-05T07:03:24Z</time>
      </trkpt>
      <trkpt lat="45.98289" lon="3.79564">
        <ele>959</ele>
        <time>2015-08-05T07:03:31Z</time>
      </trkpt>
      <trkpt lat="45.98287" lon="3.79563">
        <ele>953</ele>
        <time>2015-08-05T07:03:33Z</time>
      </trkpt>
      <trkpt lat="45.98286" lon="3.79561">
        <ele>949</ele>
        <time>2015-08-05T07:03:35Z</time>
      </trkpt>
      <trkpt lat="45.98284" lon="3.79558">
        <ele>945</ele>
        <time>2015-08-05T07:03:37Z</time>
      </trkpt>
      <trkpt lat="45.98276" lon="3.79554">
        <ele>940</ele>
        <time>2015-08-05T07:03:41Z</time>
      </trkpt>
      <trkpt lat="45.98274" lon="3.7955">
        <ele>940</ele>
        <time>2015-08-05T07:03:43Z</time>
      </trkpt>
      <trkpt lat="45.98274" lon="3.79548">
        <ele>940</ele>
        <time>2015-08-05T07:03:45Z</time>
      </trkpt>
      <trkpt lat="45.9827" lon="3.79543">
        <ele>940</ele>
        <time>2015-08-05T07:03:47Z</time>
      </trkpt>
      <trkpt lat="45.98267" lon="3.7954">
        <ele>940</ele>
        <time>2015-08-05T07:03:49Z</time>
      </trkpt>
      <trkpt lat="45.98262" lon="3.79533">
        <ele>943</ele>
        <time>2015-08-05T07:03:53Z</time>
      </trkpt>
      <trkpt lat="45.98257" lon="3.79525">
        <ele>945</ele>
        <time>2015-08-05T07:03:57Z</time>
      </trkpt>
      <trkpt lat="45.98253" lon="3.79517">
        <ele>946</ele>
        <time>2015-08-05T07:04:01Z</time>
      </trkpt>
      <trkpt lat="45.98252" lon="3.79514">
        <ele>946</ele>
        <time>2015-08-05T07:04:04Z</time>
      </trkpt>
      <trkpt lat="45.9825" lon="3.79509">
        <ele>946</ele>
        <time>2015-08-05T07:04:06Z</time>
      </trkpt>
      <trkpt lat="45.98249" lon="3.79505">
        <ele>946</ele>
        <time>2015-08-05T07:04:08Z</time>
      </trkpt>
      <trkpt lat="45.98248" lon="3.795">
        <ele>947</ele>
        <time>2015-08-05T07:04:11Z</time>
      </trkpt>
      <trkpt lat="45.98249" lon="3.79497">
        <ele>947</ele>
        <time>2015-08-05T07:04:13Z</time>
      </trkpt>
      <trkpt lat="45.98249" lon="3.79493">
        <ele>946</ele>
        <time>2015-08-05T07:04:15Z</time>
      </trkpt>
      <trkpt lat="45.98243" lon="3.79482">
        <ele>940</ele>
        <time>2015-08-05T07:04:22Z</time>
      </trkpt>
      <trkpt lat="45.98242" lon="3.79477">
        <ele>939</ele>
        <time>2015-08-05T07:04:25Z</time>
      </trkpt>
      <trkpt lat="45.98238" lon="3.79466">
        <ele>936</ele>
        <time>2015-08-05T07:04:31Z</time>
      </trkpt>
      <trkpt lat="45.98236" lon="3.79462">
        <ele>936</ele>
        <time>2015-08-05T07:04:34Z</time>
      </trkpt>
      <trkpt lat="45.98236" lon="3.79457">
        <ele>936</ele>
        <time>2015-08-05T07:04:36Z</time>
      </trkpt>
      <trkpt lat="45.98236" lon="3.79453">
        <ele>936</ele>
        <time>2015-08-05T07:04:38Z</time>
      </trkpt>
      <trkpt lat="45.98238" lon="3.79448">
        <ele>936</ele>
        <time>2015-08-05T07:04:40Z</time>
      </trkpt>
      <trkpt lat="45.98237" lon="3.79445">
        <ele>936</ele>
        <time>2015-08-05T07:04:42Z</time>
      </trkpt>
      <trkpt lat="45.98236" lon="3.79441">
        <ele>936</ele>
        <time>2015-08-05T07:04:44Z</time>
      </trkpt>
      <trkpt lat="45.98236" lon="3.79434">
        <ele>936</ele>
        <time>2015-08-05T07:04:48Z</time>
      </trkpt>
      <trkpt lat="45.98235" lon="3.79431">
        <ele>936</ele>
        <time>2015-08-05T07:04:50Z</time>
      </trkpt>
      <trkpt lat="45.98235" lon="3.79424">
        <ele>934</ele>
        <time>2015-08-05T07:04:54Z</time>
      </trkpt>
      <trkpt lat="45.98235" lon="3.79416">
        <ele>933</ele>
        <time>2015-08-05T07:04:58Z</time>
      </trkpt>
      <trkpt lat="45.98234" lon="3.79413">
        <ele>933</ele>
        <time>2015-08-05T07:05:00Z</time>
      </trkpt>
      <trkpt lat="45.98234" lon="3.79409">
        <ele>933</ele>
        <time>2015-08-05T07:05:02Z</time>
      </trkpt>
      <trkpt lat="45.98233" lon="3.794">
        <ele>931</ele>
        <time>2015-08-05T07:05:06Z</time>
      </trkpt>
      <trkpt lat="45.98232" lon="3.79393">
        <ele>930</ele>
        <time>2015-08-05T07:05:10Z</time>
      </trkpt>
      <trkpt lat="45.98232" lon="3.7939">
        <ele>929</ele>
        <time>2015-08-05T07:05:12Z</time>
      </trkpt>
      <trkpt lat="45.9823" lon="3.79383">
        <ele>928</ele>
        <time>2015-08-05T07:05:16Z</time>
      </trkpt>
      <trkpt lat="45.9823" lon="3.79379">
        <ele>927</ele>
        <time>2015-08-05T07:05:18Z</time>
      </trkpt>
      <trkpt lat="45.98228" lon="3.79368">
        <ele>927</ele>
        <time>2015-08-05T07:05:23Z</time>
      </trkpt>
      <trkpt lat="45.98228" lon="3.79364">
        <ele>927</ele>
        <time>2015-08-05T07:05:25Z</time>
      </trkpt>
      <trkpt lat="45.98225" lon="3.79353">
        <ele>927</ele>
        <time>2015-08-05T07:05:32Z</time>
      </trkpt>
      <trkpt lat="45.98224" lon="3.7935">
        <ele>927</ele>
        <time>2015-08-05T07:05:34Z</time>
      </trkpt>
      <trkpt lat="45.9822" lon="3.79345">
        <ele>927</ele>
        <time>2015-08-05T07:05:40Z</time>
      </trkpt>
      <trkpt lat="45.98218" lon="3.79341">
        <ele>927</ele>
        <time>2015-08-05T07:05:43Z</time>
      </trkpt>
      <trkpt lat="45.98216" lon="3.79339">
        <ele>927</ele>
        <time>2015-08-05T07:05:45Z</time>
      </trkpt>
      <trkpt lat="45.98213" lon="3.79337">
        <ele>926</ele>
        <time>2015-08-05T07:05:47Z</time>
      </trkpt>
      <trkpt lat="45.98211" lon="3.79334">
        <ele>924</ele>
        <time>2015-08-05T07:05:49Z</time>
      </trkpt>
      <trkpt lat="45.98208" lon="3.79332">
        <ele>923</ele>
        <time>2015-08-05T07:05:51Z</time>
      </trkpt>
      <trkpt lat="45.98203" lon="3.7933">
        <ele>920</ele>
        <time>2015-08-05T07:05:55Z</time>
      </trkpt>
      <trkpt lat="45.982" lon="3.79327">
        <ele>919</ele>
        <time>2015-08-05T07:05:57Z</time>
      </trkpt>
      <trkpt lat="45.98198" lon="3.79325">
        <ele>918</ele>
        <time>2015-08-05T07:05:59Z</time>
      </trkpt>
      <trkpt lat="45.98195" lon="3.79325">
        <ele>917</ele>
        <time>2015-08-05T07:06:01Z</time>
      </trkpt>
      <trkpt lat="45.98193" lon="3.79325">
        <ele>916</ele>
        <time>2015-08-05T07:06:03Z</time>
      </trkpt>
      <trkpt lat="45.98187" lon="3.79326">
        <ele>913</ele>
        <time>2015-08-05T07:06:07Z</time>
      </trkpt>
      <trkpt lat="45.98181" lon="3.79327">
        <ele>910</ele>
        <time>2015-08-05T07:06:11Z</time>
      </trkpt>
      <trkpt lat="45.98178" lon="3.79329">
        <ele>909</ele>
        <time>2015-08-05T07:06:13Z</time>
      </trkpt>
      <trkpt lat="45.98172" lon="3.7933">
        <ele>908</ele>
        <time>2015-08-05T07:06:17Z</time>
      </trkpt>
      <trkpt lat="45.9817" lon="3.79332">
        <ele>908</ele>
        <time>2015-08-05T07:06:19Z</time>
      </trkpt>
      <trkpt lat="45.98167" lon="3.79333">
        <ele>908</ele>
        <time>2015-08-05T07:06:21Z</time>
      </trkpt>
      <trkpt lat="45.9816" lon="3.79339">
        <ele>908</ele>
        <time>2015-08-05T07:06:27Z</time>
      </trkpt>
      <trkpt lat="45.98153" lon="3.79342">
        <ele>909</ele>
        <time>2015-08-05T07:06:32Z</time>
      </trkpt>
      <trkpt lat="45.98143" lon="3.79349">
        <ele>914</ele>
        <time>2015-08-05T07:06:39Z</time>
      </trkpt>
      <trkpt lat="45.98142" lon="3.79353">
        <ele>914</ele>
        <time>2015-08-05T07:06:41Z</time>
      </trkpt>
      <trkpt lat="45.98142" lon="3.79357">
        <ele>915</ele>
        <time>2015-08-05T07:06:43Z</time>
      </trkpt>
      <trkpt lat="45.98141" lon="3.7936">
        <ele>917</ele>
        <time>2015-08-05T07:06:45Z</time>
      </trkpt>
      <trkpt lat="45.98138" lon="3.79363">
        <ele>919</ele>
        <time>2015-08-05T07:06:47Z</time>
      </trkpt>
      <trkpt lat="45.98135" lon="3.79369">
        <ele>923</ele>
        <time>2015-08-05T07:06:51Z</time>
      </trkpt>
      <trkpt lat="45.9813" lon="3.79375">
        <ele>925</ele>
        <time>2015-08-05T07:06:55Z</time>
      </trkpt>
      <trkpt lat="45.98129" lon="3.79379">
        <ele>925</ele>
        <time>2015-08-05T07:06:57Z</time>
      </trkpt>
      <trkpt lat="45.98126" lon="3.79382">
        <ele>925</ele>
        <time>2015-08-05T07:06:59Z</time>
      </trkpt>
      <trkpt lat="45.98127" lon="3.79386">
        <ele>925</ele>
        <time>2015-08-05T07:07:01Z</time>
      </trkpt>
      <trkpt lat="45.98125" lon="3.7939">
        <ele>923</ele>
        <time>2015-08-05T07:07:03Z</time>
      </trkpt>
      <trkpt lat="45.98122" lon="3.79392">
        <ele>921</ele>
        <time>2015-08-05T07:07:05Z</time>
      </trkpt>
      <trkpt lat="45.98119" lon="3.79394">
        <ele>919</ele>
        <time>2015-08-05T07:07:07Z</time>
      </trkpt>
      <trkpt lat="45.98115" lon="3.79395">
        <ele>916</ele>
        <time>2015-08-05T07:07:10Z</time>
      </trkpt>
      <trkpt lat="45.98106" lon="3.79399">
        <ele>910</ele>
        <time>2015-08-05T07:07:16Z</time>
      </trkpt>
      <trkpt lat="45.98099" lon="3.79403">
        <ele>905</ele>
        <time>2015-08-05T07:07:21Z</time>
      </trkpt>
      <trkpt lat="45.98095" lon="3.79406">
        <ele>901</ele>
        <time>2015-08-05T07:07:25Z</time>
      </trkpt>
      <trkpt lat="45.98092" lon="3.79407">
        <ele>899</ele>
        <time>2015-08-05T07:07:27Z</time>
      </trkpt>
      <trkpt lat="45.98089" lon="3.79407">
        <ele>899</ele>
        <time>2015-08-05T07:07:29Z</time>
      </trkpt>
      <trkpt lat="45.98086" lon="3.79409">
        <ele>899</ele>
        <time>2015-08-05T07:07:31Z</time>
      </trkpt>
      <trkpt lat="45.98082" lon="3.7941">
        <ele>899</ele>
        <time>2015-08-05T07:07:33Z</time>
      </trkpt>
      <trkpt lat="45.98075" lon="3.79412">
        <ele>899</ele>
        <time>2015-08-05T07:07:37Z</time>
      </trkpt>
      <trkpt lat="45.98064" lon="3.79412">
        <ele>901</ele>
        <time>2015-08-05T07:07:41Z</time>
      </trkpt>
      <trkpt lat="45.98059" lon="3.79413">
        <ele>903</ele>
        <time>2015-08-05T07:07:43Z</time>
      </trkpt>
      <trkpt lat="45.98055" lon="3.79415">
        <ele>906</ele>
        <time>2015-08-05T07:07:46Z</time>
      </trkpt>
      <trkpt lat="45.98053" lon="3.79417">
        <ele>908</ele>
        <time>2015-08-05T07:07:48Z</time>
      </trkpt>
      <trkpt lat="45.9805" lon="3.79418">
        <ele>908</ele>
        <time>2015-08-05T07:07:50Z</time>
      </trkpt>
      <trkpt lat="45.98039" lon="3.79419">
        <ele>908</ele>
        <time>2015-08-05T07:07:54Z</time>
      </trkpt>
      <trkpt lat="45.98031" lon="3.7942">
        <ele>912</ele>
        <time>2015-08-05T07:07:58Z</time>
      </trkpt>
      <trkpt lat="45.98029" lon="3.79422">
        <ele>914</ele>
        <time>2015-08-05T07:08:00Z</time>
      </trkpt>
      <trkpt lat="45.98026" lon="3.79425">
        <ele>915</ele>
        <time>2015-08-05T07:08:04Z</time>
      </trkpt>
      <trkpt lat="45.9802" lon="3.79426">
        <ele>914</ele>
        <time>2015-08-05T07:08:08Z</time>
      </trkpt>
      <trkpt lat="45.98014" lon="3.79426">
        <ele>913</ele>
        <time>2015-08-05T07:08:12Z</time>
      </trkpt>
      <trkpt lat="45.98006" lon="3.79425">
        <ele>913</ele>
        <time>2015-08-05T07:08:17Z</time>
      </trkpt>
      <trkpt lat="45.98003" lon="3.79422">
        <ele>912</ele>
        <time>2015-08-05T07:08:21Z</time>
      </trkpt>
      <trkpt lat="45.98" lon="3.7942">
        <ele>910</ele>
        <time>2015-08-05T07:08:24Z</time>
      </trkpt>
      <trkpt lat="45.97996" lon="3.79418">
        <ele>908</ele>
        <time>2015-08-05T07:08:27Z</time>
      </trkpt>
      <trkpt lat="45.97993" lon="3.79417">
        <ele>907</ele>
        <time>2015-08-05T07:08:30Z</time>
      </trkpt>
      <trkpt lat="45.97983" lon="3.79411">
        <ele>905</ele>
        <time>2015-08-05T07:08:37Z</time>
      </trkpt>
      <trkpt lat="45.9798" lon="3.79409">
        <ele>905</ele>
        <time>2015-08-05T07:08:40Z</time>
      </trkpt>
      <trkpt lat="45.97978" lon="3.79402">
        <ele>905</ele>
        <time>2015-08-05T07:08:44Z</time>
      </trkpt>
      <trkpt lat="45.97974" lon="3.79398">
        <ele>905</ele>
        <time>2015-08-05T07:08:48Z</time>
      </trkpt>
      <trkpt lat="45.97971" lon="3.79396">
        <ele>905</ele>
        <time>2015-08-05T07:08:50Z</time>
      </trkpt>
      <trkpt lat="45.97969" lon="3.79393">
        <ele>905</ele>
        <time>2015-08-05T07:08:52Z</time>
      </trkpt>
      <trkpt lat="45.97956" lon="3.79387">
        <ele>901</ele>
        <time>2015-08-05T07:09:02Z</time>
      </trkpt>
      <trkpt lat="45.9795" lon="3.79384">
        <ele>900</ele>
        <time>2015-08-05T07:09:06Z</time>
      </trkpt>
      <trkpt lat="45.97938" lon="3.7938">
        <ele>900</ele>
        <time>2015-08-05T07:09:12Z</time>
      </trkpt>
      <trkpt lat="45.97929" lon="3.79375">
        <ele>903</ele>
        <time>2015-08-05T07:09:16Z</time>
      </trkpt>
      <trkpt lat="45.97926" lon="3.79373">
        <ele>905</ele>
        <time>2015-08-05T07:09:18Z</time>
      </trkpt>
      <trkpt lat="45.97922" lon="3.79371">
        <ele>908</ele>
        <time>2015-08-05T07:09:21Z</time>
      </trkpt>
      <trkpt lat="45.97919" lon="3.79371">
        <ele>909</ele>
        <time>2015-08-05T07:09:23Z</time>
      </trkpt>
      <trkpt lat="45.97911" lon="3.79368">
        <ele>912</ele>
        <time>2015-08-05T07:09:29Z</time>
      </trkpt>
      <trkpt lat="45.97908" lon="3.79367">
        <ele>912</ele>
        <time>2015-08-05T07:09:33Z</time>
      </trkpt>
      <trkpt lat="45.97902" lon="3.79365">
        <ele>908</ele>
        <time>2015-08-05T07:09:38Z</time>
      </trkpt>
      <trkpt lat="45.979" lon="3.79365">
        <ele>907</ele>
        <time>2015-08-05T07:09:40Z</time>
      </trkpt>
      <trkpt lat="45.97896" lon="3.79364">
        <ele>907</ele>
        <time>2015-08-05T07:09:43Z</time>
      </trkpt>
      <trkpt lat="45.97893" lon="3.79362">
        <ele>907</ele>
        <time>2015-08-05T07:09:45Z</time>
      </trkpt>
      <trkpt lat="45.97877" lon="3.79359">
        <ele>906</ele>
        <time>2015-08-05T07:09:56Z</time>
      </trkpt>
      <trkpt lat="45.97872" lon="3.79357">
        <ele>906</ele>
        <time>2015-08-05T07:09:58Z</time>
      </trkpt>
      <trkpt lat="45.9787" lon="3.79356">
        <ele>906</ele>
        <time>2015-08-05T07:10:00Z</time>
      </trkpt>
      <trkpt lat="45.97861" lon="3.79354">
        <ele>908</ele>
        <time>2015-08-05T07:10:04Z</time>
      </trkpt>
      <trkpt lat="45.97853" lon="3.79351">
        <ele>914</ele>
        <time>2015-08-05T07:10:10Z</time>
      </trkpt>
      <trkpt lat="45.97852" lon="3.79349">
        <ele>914</ele>
        <time>2015-08-05T07:10:14Z</time>
      </trkpt>
      <trkpt lat="45.9785" lon="3.79348">
        <ele>912</ele>
        <time>2015-08-05T07:10:16Z</time>
      </trkpt>
      <trkpt lat="45.97837" lon="3.79345">
        <ele>909</ele>
        <time>2015-08-05T07:10:23Z</time>
      </trkpt>
      <trkpt lat="45.97824" lon="3.7934">
        <ele>910</ele>
        <time>2015-08-05T07:10:30Z</time>
      </trkpt>
      <trkpt lat="45.97816" lon="3.7934">
        <ele>914</ele>
        <time>2015-08-05T07:10:34Z</time>
      </trkpt>
      <trkpt lat="45.97813" lon="3.79338">
        <ele>916</ele>
        <time>2015-08-05T07:10:36Z</time>
      </trkpt>
      <trkpt lat="45.9781" lon="3.79335">
        <ele>919</ele>
        <time>2015-08-05T07:10:39Z</time>
      </trkpt>
      <trkpt lat="45.97806" lon="3.79333">
        <ele>919</ele>
        <time>2015-08-05T07:10:41Z</time>
      </trkpt>
      <trkpt lat="45.97802" lon="3.79333">
        <ele>919</ele>
        <time>2015-08-05T07:10:43Z</time>
      </trkpt>
      <trkpt lat="45.978" lon="3.79332">
        <ele>921</ele>
        <time>2015-08-05T07:10:45Z</time>
      </trkpt>
      <trkpt lat="45.97797" lon="3.79332">
        <ele>921</ele>
        <time>2015-08-05T07:10:47Z</time>
      </trkpt>
      <trkpt lat="45.97784" lon="3.79329">
        <ele>921</ele>
        <time>2015-08-05T07:10:55Z</time>
      </trkpt>
      <trkpt lat="45.9776" lon="3.79323">
        <ele>932</ele>
        <time>2015-08-05T07:11:03Z</time>
      </trkpt>
      <trkpt lat="45.97757" lon="3.79324">
        <ele>936</ele>
        <time>2015-08-05T07:11:05Z</time>
      </trkpt>
      <trkpt lat="45.97751" lon="3.79322">
        <ele>942</ele>
        <time>2015-08-05T07:11:08Z</time>
      </trkpt>
      <trkpt lat="45.97743" lon="3.79322">
        <ele>948</ele>
        <time>2015-08-05T07:11:13Z</time>
      </trkpt>
      <trkpt lat="45.97739" lon="3.79323">
        <ele>951</ele>
        <time>2015-08-05T07:11:18Z</time>
      </trkpt>
      <trkpt lat="45.97722" lon="3.79322">
        <ele>955</ele>
        <time>2015-08-05T07:11:28Z</time>
      </trkpt>
      <trkpt lat="45.97719" lon="3.7932">
        <ele>955</ele>
        <time>2015-08-05T07:11:30Z</time>
      </trkpt>
      <trkpt lat="45.97715" lon="3.7932">
        <ele>955</ele>
        <time>2015-08-05T07:11:33Z</time>
      </trkpt>
      <trkpt lat="45.97712" lon="3.79319">
        <ele>950</ele>
        <time>2015-08-05T07:11:39Z</time>
      </trkpt>
      <trkpt lat="45.97709" lon="3.79319">
        <ele>947</ele>
        <time>2015-08-05T07:11:41Z</time>
      </trkpt>
      <trkpt lat="45.97711" lon="3.7932">
        <ele>943</ele>
        <time>2015-08-05T07:11:43Z</time>
      </trkpt>
      <trkpt lat="45.97712" lon="3.79321">
        <ele>939</ele>
        <time>2015-08-05T07:11:45Z</time>
      </trkpt>
      <trkpt lat="45.97712" lon="3.7932">
        <ele>925</ele>
        <time>2015-08-05T07:11:50Z</time>
      </trkpt>
      <trkpt lat="45.97707" lon="3.7932">
        <ele>909</ele>
        <time>2015-08-05T07:11:56Z</time>
      </trkpt>
      <trkpt lat="45.97703" lon="3.79319">
        <ele>903</ele>
        <time>2015-08-05T07:11:59Z</time>
      </trkpt>
      <trkpt lat="45.97699" lon="3.79317">
        <ele>901</ele>
        <time>2015-08-05T07:12:01Z</time>
      </trkpt>
      <trkpt lat="45.97694" lon="3.79316">
        <ele>900</ele>
        <time>2015-08-05T07:12:03Z</time>
      </trkpt>
      <trkpt lat="45.97688" lon="3.79315">
        <ele>900</ele>
        <time>2015-08-05T07:12:05Z</time>
      </trkpt>
      <trkpt lat="45.97685" lon="3.79313">
        <ele>902</ele>
        <time>2015-08-05T07:12:07Z</time>
      </trkpt>
      <trkpt lat="45.97684" lon="3.7931">
        <ele>904</ele>
        <time>2015-08-05T07:12:09Z</time>
      </trkpt>
      <trkpt lat="45.97675" lon="3.79303">
        <ele>898</ele>
        <time>2015-08-05T07:12:19Z</time>
      </trkpt>
      <trkpt lat="45.97671" lon="3.79299">
        <ele>894</ele>
        <time>2015-08-05T07:12:23Z</time>
      </trkpt>
      <trkpt lat="45.9767" lon="3.79296">
        <ele>893</ele>
        <time>2015-08-05T07:12:25Z</time>
      </trkpt>
      <trkpt lat="45.97664" lon="3.79291">
        <ele>890</ele>
        <time>2015-08-05T07:12:30Z</time>
      </trkpt>
      <trkpt lat="45.97659" lon="3.79284">
        <ele>890</ele>
        <time>2015-08-05T07:12:35Z</time>
      </trkpt>
      <trkpt lat="45.97658" lon="3.79281">
        <ele>889</ele>
        <time>2015-08-05T07:12:37Z</time>
      </trkpt>
      <trkpt lat="45.97657" lon="3.79279">
        <ele>888</ele>
        <time>2015-08-05T07:12:39Z</time>
      </trkpt>
      <trkpt lat="45.97656" lon="3.79276">
        <ele>886</ele>
        <time>2015-08-05T07:12:41Z</time>
      </trkpt>
      <trkpt lat="45.97654" lon="3.79274">
        <ele>884</ele>
        <time>2015-08-05T07:12:43Z</time>
      </trkpt>
      <trkpt lat="45.97654" lon="3.79271">
        <ele>883</ele>
        <time>2015-08-05T07:12:45Z</time>
      </trkpt>
      <trkpt lat="45.97651" lon="3.79263">
        <ele>881</ele>
        <time>2015-08-05T07:12:50Z</time>
      </trkpt>
      <trkpt lat="45.97648" lon="3.79256">
        <ele>879</ele>
        <time>2015-08-05T07:12:54Z</time>
      </trkpt>
      <trkpt lat="45.97644" lon="3.79236">
        <ele>879</ele>
        <time>2015-08-05T07:13:05Z</time>
      </trkpt>
      <trkpt lat="45.97644" lon="3.79227">
        <ele>879</ele>
        <time>2015-08-05T07:13:09Z</time>
      </trkpt>
      <trkpt lat="45.97643" lon="3.79223">
        <ele>879</ele>
        <time>2015-08-05T07:13:11Z</time>
      </trkpt>
      <trkpt lat="45.9764" lon="3.79216">
        <ele>879</ele>
        <time>2015-08-05T07:13:15Z</time>
      </trkpt>
      <trkpt lat="45.97631" lon="3.79197">
        <ele>877</ele>
        <time>2015-08-05T07:13:25Z</time>
      </trkpt>
      <trkpt lat="45.97627" lon="3.79191">
        <ele>876</ele>
        <time>2015-08-05T07:13:29Z</time>
      </trkpt>
      <trkpt lat="45.97625" lon="3.79187">
        <ele>876</ele>
        <time>2015-08-05T07:13:31Z</time>
      </trkpt>
      <trkpt lat="45.97622" lon="3.79184">
        <ele>875</ele>
        <time>2015-08-05T07:13:34Z</time>
      </trkpt>
      <trkpt lat="45.97611" lon="3.79177">
        <ele>872</ele>
        <time>2015-08-05T07:13:44Z</time>
      </trkpt>
      <trkpt lat="45.97603" lon="3.79173">
        <ele>871</ele>
        <time>2015-08-05T07:13:50Z</time>
      </trkpt>
      <trkpt lat="45.9758" lon="3.79165">
        <ele>870</ele>
        <time>2015-08-05T07:14:08Z</time>
      </trkpt>
      <trkpt lat="45.97569" lon="3.79158">
        <ele>869</ele>
        <time>2015-08-05T07:14:17Z</time>
      </trkpt>
      <trkpt lat="45.97565" lon="3.79155">
        <ele>869</ele>
        <time>2015-08-05T07:14:21Z</time>
      </trkpt>
      <trkpt lat="45.97562" lon="3.79151">
        <ele>869</ele>
        <time>2015-08-05T07:14:25Z</time>
      </trkpt>
      <trkpt lat="45.97557" lon="3.79146">
        <ele>869</ele>
        <time>2015-08-05T07:14:29Z</time>
      </trkpt>
      <trkpt lat="45.97554" lon="3.79143">
        <ele>869</ele>
        <time>2015-08-05T07:14:31Z</time>
      </trkpt>
      <trkpt lat="45.97552" lon="3.7914">
        <ele>869</ele>
        <time>2015-08-05T07:14:33Z</time>
      </trkpt>
      <trkpt lat="45.97549" lon="3.79137">
        <ele>869</ele>
        <time>2015-08-05T07:14:35Z</time>
      </trkpt>
      <trkpt lat="45.97545" lon="3.79129">
        <ele>869</ele>
        <time>2015-08-05T07:14:39Z</time>
      </trkpt>
      <trkpt lat="45.97539" lon="3.79123">
        <ele>869</ele>
        <time>2015-08-05T07:14:43Z</time>
      </trkpt>
      <trkpt lat="45.97536" lon="3.79119">
        <ele>869</ele>
        <time>2015-08-05T07:14:46Z</time>
      </trkpt>
      <trkpt lat="45.97526" lon="3.7911">
        <ele>870</ele>
        <time>2015-08-05T07:14:54Z</time>
      </trkpt>
      <trkpt lat="45.97519" lon="3.79102">
        <ele>870</ele>
        <time>2015-08-05T07:15:00Z</time>
      </trkpt>
      <trkpt lat="45.97517" lon="3.79098">
        <ele>870</ele>
        <time>2015-08-05T07:15:02Z</time>
      </trkpt>
      <trkpt lat="45.97514" lon="3.79096">
        <ele>870</ele>
        <time>2015-08-05T07:15:04Z</time>
      </trkpt>
      <trkpt lat="45.97512" lon="3.79094">
        <ele>870</ele>
        <time>2015-08-05T07:15:06Z</time>
      </trkpt>
      <trkpt lat="45.97507" lon="3.7909">
        <ele>870</ele>
        <time>2015-08-05T07:15:10Z</time>
      </trkpt>
      <trkpt lat="45.97504" lon="3.79087">
        <ele>870</ele>
        <time>2015-08-05T07:15:12Z</time>
      </trkpt>
      <trkpt lat="45.97496" lon="3.79083">
        <ele>870</ele>
        <time>2015-08-05T07:15:18Z</time>
      </trkpt>
      <trkpt lat="45.9749" lon="3.79078">
        <ele>870</ele>
        <time>2015-08-05T07:15:23Z</time>
      </trkpt>
      <trkpt lat="45.97482" lon="3.79074">
        <ele>870</ele>
        <time>2015-08-05T07:15:29Z</time>
      </trkpt>
      <trkpt lat="45.97479" lon="3.79073">
        <ele>869</ele>
        <time>2015-08-05T07:15:31Z</time>
      </trkpt>
      <trkpt lat="45.97472" lon="3.79069">
        <ele>868</ele>
        <time>2015-08-05T07:15:37Z</time>
      </trkpt>
      <trkpt lat="45.97464" lon="3.79061">
        <ele>867</ele>
        <time>2015-08-05T07:15:43Z</time>
      </trkpt>
      <trkpt lat="45.97456" lon="3.79056">
        <ele>867</ele>
        <time>2015-08-05T07:15:49Z</time>
      </trkpt>
      <trkpt lat="45.97453" lon="3.79055">
        <ele>866</ele>
        <time>2015-08-05T07:15:51Z</time>
      </trkpt>
      <trkpt lat="45.97447" lon="3.79054">
        <ele>865</ele>
        <time>2015-08-05T07:15:56Z</time>
      </trkpt>
      <trkpt lat="45.97445" lon="3.79052">
        <ele>864</ele>
        <time>2015-08-05T07:15:58Z</time>
      </trkpt>
      <trkpt lat="45.97442" lon="3.79051">
        <ele>864</ele>
        <time>2015-08-05T07:16:00Z</time>
      </trkpt>
      <trkpt lat="45.97424" lon="3.79048">
        <ele>860</ele>
        <time>2015-08-05T07:16:12Z</time>
      </trkpt>
      <trkpt lat="45.97421" lon="3.79048">
        <ele>860</ele>
        <time>2015-08-05T07:16:14Z</time>
      </trkpt>
      <trkpt lat="45.97408" lon="3.79051">
        <ele>857</ele>
        <time>2015-08-05T07:16:24Z</time>
      </trkpt>
      <trkpt lat="45.97401" lon="3.79052">
        <ele>857</ele>
        <time>2015-08-05T07:16:28Z</time>
      </trkpt>
      <trkpt lat="45.97398" lon="3.79053">
        <ele>856</ele>
        <time>2015-08-05T07:16:30Z</time>
      </trkpt>
      <trkpt lat="45.97386" lon="3.79061">
        <ele>855</ele>
        <time>2015-08-05T07:16:40Z</time>
      </trkpt>
      <trkpt lat="45.97378" lon="3.79065">
        <ele>855</ele>
        <time>2015-08-05T07:16:46Z</time>
      </trkpt>
      <trkpt lat="45.97376" lon="3.79067">
        <ele>855</ele>
        <time>2015-08-05T07:16:48Z</time>
      </trkpt>
      <trkpt lat="45.97372" lon="3.79069">
        <ele>855</ele>
        <time>2015-08-05T07:16:50Z</time>
      </trkpt>
      <trkpt lat="45.97364" lon="3.7907">
        <ele>855</ele>
        <time>2015-08-05T07:16:54Z</time>
      </trkpt>
      <trkpt lat="45.9736" lon="3.79071">
        <ele>855</ele>
        <time>2015-08-05T07:16:56Z</time>
      </trkpt>
      <trkpt lat="45.97352" lon="3.79072">
        <ele>858</ele>
        <time>2015-08-05T07:17:00Z</time>
      </trkpt>
      <trkpt lat="45.9735" lon="3.79072">
        <ele>860</ele>
        <time>2015-08-05T07:17:02Z</time>
      </trkpt>
      <trkpt lat="45.9734" lon="3.79071">
        <ele>863</ele>
        <time>2015-08-05T07:17:06Z</time>
      </trkpt>
      <trkpt lat="45.97334" lon="3.79069">
        <ele>866</ele>
        <time>2015-08-05T07:17:10Z</time>
      </trkpt>
      <trkpt lat="45.97331" lon="3.79069">
        <ele>866</ele>
        <time>2015-08-05T07:17:13Z</time>
      </trkpt>
      <trkpt lat="45.97324" lon="3.79063">
        <ele>862</ele>
        <time>2015-08-05T07:17:20Z</time>
      </trkpt>
      <trkpt lat="45.97319" lon="3.7906">
        <ele>861</ele>
        <time>2015-08-05T07:17:24Z</time>
      </trkpt>
      <trkpt lat="45.97317" lon="3.79058">
        <ele>861</ele>
        <time>2015-08-05T07:17:26Z</time>
      </trkpt>
      <trkpt lat="45.97313" lon="3.79055">
        <ele>860</ele>
        <time>2015-08-05T07:17:30Z</time>
      </trkpt>
      <trkpt lat="45.97309" lon="3.79054">
        <ele>860</ele>
        <time>2015-08-05T07:17:32Z</time>
      </trkpt>
      <trkpt lat="45.97306" lon="3.79053">
        <ele>860</ele>
        <time>2015-08-05T07:17:34Z</time>
      </trkpt>
      <trkpt lat="45.97297" lon="3.79048">
        <ele>860</ele>
        <time>2015-08-05T07:17:41Z</time>
      </trkpt>
      <trkpt lat="45.97296" lon="3.79047">
        <ele>860</ele>
        <time>2015-08-05T07:17:43Z</time>
      </trkpt>
      <trkpt lat="45.97286" lon="3.79044">
        <ele>860</ele>
        <time>2015-08-05T07:17:47Z</time>
      </trkpt>
      <trkpt lat="45.97283" lon="3.79043">
        <ele>862</ele>
        <time>2015-08-05T07:17:49Z</time>
      </trkpt>
      <trkpt lat="45.97275" lon="3.79037">
        <ele>867</ele>
        <time>2015-08-05T07:17:55Z</time>
      </trkpt>
      <trkpt lat="45.97268" lon="3.7903">
        <ele>868</ele>
        <time>2015-08-05T07:18:02Z</time>
      </trkpt>
      <trkpt lat="45.97266" lon="3.79028">
        <ele>868</ele>
        <time>2015-08-05T07:18:04Z</time>
      </trkpt>
      <trkpt lat="45.97263" lon="3.79023">
        <ele>864</ele>
        <time>2015-08-05T07:18:09Z</time>
      </trkpt>
      <trkpt lat="45.97251" lon="3.79012">
        <ele>852</ele>
        <time>2015-08-05T07:18:22Z</time>
      </trkpt>
      <trkpt lat="45.97249" lon="3.79009">
        <ele>852</ele>
        <time>2015-08-05T07:18:24Z</time>
      </trkpt>
      <trkpt lat="45.97242" lon="3.79002">
        <ele>846</ele>
        <time>2015-08-05T07:18:32Z</time>
      </trkpt>
      <trkpt lat="45.97233" lon="3.78995">
        <ele>843</ele>
        <time>2015-08-05T07:18:40Z</time>
      </trkpt>
      <trkpt lat="45.97227" lon="3.78984">
        <ele>841</ele>
        <time>2015-08-05T07:18:47Z</time>
      </trkpt>
      <trkpt lat="45.97218" lon="3.78966">
        <ele>839</ele>
        <time>2015-08-05T07:18:58Z</time>
      </trkpt>
      <trkpt lat="45.97214" lon="3.78958">
        <ele>839</ele>
        <time>2015-08-05T07:19:03Z</time>
      </trkpt>
      <trkpt lat="45.97213" lon="3.78955">
        <ele>839</ele>
        <time>2015-08-05T07:19:05Z</time>
      </trkpt>
      <trkpt lat="45.97205" lon="3.78932">
        <ele>838</ele>
        <time>2015-08-05T07:19:17Z</time>
      </trkpt>
      <trkpt lat="45.97204" lon="3.78928">
        <ele>838</ele>
        <time>2015-08-05T07:19:19Z</time>
      </trkpt>
      <trkpt lat="45.97201" lon="3.78919">
        <ele>838</ele>
        <time>2015-08-05T07:19:24Z</time>
      </trkpt>
      <trkpt lat="45.97198" lon="3.78898">
        <ele>838</ele>
        <time>2015-08-05T07:19:34Z</time>
      </trkpt>
      <trkpt lat="45.97198" lon="3.78893">
        <ele>838</ele>
        <time>2015-08-05T07:19:36Z</time>
      </trkpt>
      <trkpt lat="45.97198" lon="3.78887">
        <ele>838</ele>
        <time>2015-08-05T07:19:38Z</time>
      </trkpt>
      <trkpt lat="45.972" lon="3.78881">
        <ele>838</ele>
        <time>2015-08-05T07:19:40Z</time>
      </trkpt>
      <trkpt lat="45.972" lon="3.78877">
        <ele>838</ele>
        <time>2015-08-05T07:19:42Z</time>
      </trkpt>
      <trkpt lat="45.97199" lon="3.78875">
        <ele>838</ele>
        <time>2015-08-05T07:19:44Z</time>
      </trkpt>
      <trkpt lat="45.97199" lon="3.78867">
        <ele>838</ele>
        <time>2015-08-05T07:19:48Z</time>
      </trkpt>
      <trkpt lat="45.97199" lon="3.78861">
        <ele>838</ele>
        <time>2015-08-05T07:19:50Z</time>
      </trkpt>
      <trkpt lat="45.97199" lon="3.78854">
        <ele>838</ele>
        <time>2015-08-05T07:19:54Z</time>
      </trkpt>
      <trkpt lat="45.972" lon="3.78845">
        <ele>838</ele>
        <time>2015-08-05T07:19:58Z</time>
      </trkpt>
      <trkpt lat="45.97202" lon="3.78842">
        <ele>838</ele>
        <time>2015-08-05T07:20:01Z</time>
      </trkpt>
      <trkpt lat="45.97205" lon="3.7884">
        <ele>838</ele>
        <time>2015-08-05T07:20:03Z</time>
      </trkpt>
      <trkpt lat="45.97206" lon="3.78837">
        <ele>838</ele>
        <time>2015-08-05T07:20:05Z</time>
      </trkpt>
      <trkpt lat="45.97206" lon="3.78839">
        <ele>838</ele>
        <time>2015-08-05T07:20:11Z</time>
      </trkpt>
      <trkpt lat="45.97206" lon="3.78841">
        <ele>838</ele>
        <time>2015-08-05T07:20:15Z</time>
      </trkpt>
      <trkpt lat="45.97208" lon="3.78839">
        <ele>838</ele>
        <time>2015-08-05T07:20:18Z</time>
      </trkpt>
      <trkpt lat="45.97209" lon="3.78837">
        <ele>838</ele>
        <time>2015-08-05T07:20:20Z</time>
      </trkpt>
      <trkpt lat="45.9721" lon="3.78835">
        <ele>838</ele>
        <time>2015-08-05T07:20:22Z</time>
      </trkpt>
      <trkpt lat="45.97211" lon="3.78833">
        <ele>838</ele>
        <time>2015-08-05T07:20:24Z</time>
      </trkpt>
      <trkpt lat="45.97214" lon="3.78832">
        <ele>838</ele>
        <time>2015-08-05T07:20:26Z</time>
      </trkpt>
      <trkpt lat="45.97215" lon="3.7883">
        <ele>838</ele>
        <time>2015-08-05T07:20:28Z</time>
      </trkpt>
      <trkpt lat="45.97214" lon="3.78831">
        <ele>838</ele>
        <time>2015-08-05T07:20:37Z</time>
      </trkpt>
      <trkpt lat="45.97212" lon="3.78834">
        <ele>838</ele>
        <time>2015-08-05T07:20:39Z</time>
      </trkpt>
      <trkpt lat="45.97212" lon="3.78837">
        <ele>838</ele>
        <time>2015-08-05T07:20:41Z</time>
      </trkpt>
      <trkpt lat="45.9721" lon="3.78837">
        <ele>839</ele>
        <time>2015-08-05T07:20:43Z</time>
      </trkpt>
      <trkpt lat="45.97212" lon="3.78842">
        <ele>845</ele>
        <time>2015-08-05T07:20:53Z</time>
      </trkpt>
      <trkpt lat="45.97214" lon="3.78846">
        <ele>844</ele>
        <time>2015-08-05T07:20:56Z</time>
      </trkpt>
      <trkpt lat="45.97214" lon="3.78848">
        <ele>842</ele>
        <time>2015-08-05T07:20:58Z</time>
      </trkpt>
      <trkpt lat="45.97217" lon="3.78848">
        <ele>838</ele>
        <time>2015-08-05T07:21:02Z</time>
      </trkpt>
      <trkpt lat="45.97221" lon="3.78846">
        <ele>827</ele>
        <time>2015-08-05T07:21:08Z</time>
      </trkpt>
      <trkpt lat="45.97223" lon="3.78844">
        <ele>824</ele>
        <time>2015-08-05T07:21:10Z</time>
      </trkpt>
      <trkpt lat="45.97224" lon="3.78841">
        <ele>819</ele>
        <time>2015-08-05T07:21:15Z</time>
      </trkpt>
      <trkpt lat="45.97222" lon="3.78841">
        <ele>812</ele>
        <time>2015-08-05T07:21:25Z</time>
      </trkpt>
      <trkpt lat="45.97218" lon="3.78837">
        <ele>818</ele>
        <time>2015-08-05T07:21:36Z</time>
      </trkpt>
      <trkpt lat="45.97216" lon="3.78837">
        <ele>819</ele>
        <time>2015-08-05T07:21:39Z</time>
      </trkpt>
      <trkpt lat="45.97215" lon="3.78838">
        <ele>820</ele>
        <time>2015-08-05T07:21:41Z</time>
      </trkpt>
      <trkpt lat="45.97212" lon="3.78839">
        <ele>824</ele>
        <time>2015-08-05T07:21:48Z</time>
      </trkpt>
      <trkpt lat="45.97211" lon="3.78838">
        <ele>825</ele>
        <time>2015-08-05T07:21:53Z</time>
      </trkpt>
      <trkpt lat="45.97212" lon="3.78838">
        <ele>826</ele>
        <time>2015-08-05T07:21:56Z</time>
      </trkpt>
      <trkpt lat="45.97211" lon="3.78838">
        <ele>827</ele>
        <time>2015-08-05T07:22:03Z</time>
      </trkpt>
      <trkpt lat="45.97206" lon="3.78841">
        <ele>828</ele>
        <time>2015-08-05T07:22:14Z</time>
      </trkpt>
      <trkpt lat="45.97203" lon="3.7884">
        <ele>828</ele>
        <time>2015-08-05T07:22:16Z</time>
      </trkpt>
      <trkpt lat="45.97201" lon="3.78837">
        <ele>828</ele>
        <time>2015-08-05T07:22:18Z</time>
      </trkpt>
      <trkpt lat="45.97199" lon="3.78834">
        <ele>828</ele>
        <time>2015-08-05T07:22:20Z</time>
      </trkpt>
      <trkpt lat="45.97196" lon="3.78826">
        <ele>828</ele>
        <time>2015-08-05T07:22:24Z</time>
      </trkpt>
      <trkpt lat="45.97196" lon="3.78821">
        <ele>828</ele>
        <time>2015-08-05T07:22:26Z</time>
      </trkpt>
      <trkpt lat="45.97196" lon="3.78807">
        <ele>828</ele>
        <time>2015-08-05T07:22:32Z</time>
      </trkpt>
      <trkpt lat="45.97196" lon="3.78802">
        <ele>828</ele>
        <time>2015-08-05T07:22:34Z</time>
      </trkpt>
      <trkpt lat="45.97196" lon="3.78797">
        <ele>828</ele>
        <time>2015-08-05T07:22:36Z</time>
      </trkpt>
      <trkpt lat="45.97195" lon="3.78796">
        <ele>828</ele>
        <time>2015-08-05T07:22:39Z</time>
      </trkpt>
      <trkpt lat="45.97195" lon="3.78788">
        <ele>828</ele>
        <time>2015-08-05T07:22:43Z</time>
      </trkpt>
      <trkpt lat="45.97195" lon="3.78774">
        <ele>828</ele>
        <time>2015-08-05T07:22:49Z</time>
      </trkpt>
      <trkpt lat="45.97194" lon="3.78752">
        <ele>828</ele>
        <time>2015-08-05T07:22:59Z</time>
      </trkpt>
      <trkpt lat="45.97194" lon="3.78746">
        <ele>828</ele>
        <time>2015-08-05T07:23:01Z</time>
      </trkpt>
      <trkpt lat="45.97193" lon="3.7874">
        <ele>828</ele>
        <time>2015-08-05T07:23:03Z</time>
      </trkpt>
      <trkpt lat="45.9719" lon="3.78722">
        <ele>828</ele>
        <time>2015-08-05T07:23:11Z</time>
      </trkpt>
      <trkpt lat="45.97188" lon="3.78713">
        <ele>828</ele>
        <time>2015-08-05T07:23:15Z</time>
      </trkpt>
      <trkpt lat="45.97184" lon="3.787">
        <ele>828</ele>
        <time>2015-08-05T07:23:21Z</time>
      </trkpt>
      <trkpt lat="45.97181" lon="3.78694">
        <ele>828</ele>
        <time>2015-08-05T07:23:25Z</time>
      </trkpt>
      <trkpt lat="45.97177" lon="3.78684">
        <ele>828</ele>
        <time>2015-08-05T07:23:29Z</time>
      </trkpt>
      <trkpt lat="45.97175" lon="3.78681">
        <ele>828</ele>
        <time>2015-08-05T07:23:31Z</time>
      </trkpt>
      <trkpt lat="45.9717" lon="3.78677">
        <ele>828</ele>
        <time>2015-08-05T07:23:35Z</time>
      </trkpt>
      <trkpt lat="45.97168" lon="3.78675">
        <ele>829</ele>
        <time>2015-08-05T07:23:37Z</time>
      </trkpt>
      <trkpt lat="45.97163" lon="3.7867">
        <ele>830</ele>
        <time>2015-08-05T07:23:41Z</time>
      </trkpt>
      <trkpt lat="45.9716" lon="3.78667">
        <ele>831</ele>
        <time>2015-08-05T07:23:43Z</time>
      </trkpt>
      <trkpt lat="45.97154" lon="3.7866">
        <ele>831</ele>
        <time>2015-08-05T07:23:47Z</time>
      </trkpt>
      <trkpt lat="45.97146" lon="3.78653">
        <ele>832</ele>
        <time>2015-08-05T07:23:53Z</time>
      </trkpt>
      <trkpt lat="45.97139" lon="3.78644">
        <ele>832</ele>
        <time>2015-08-05T07:23:59Z</time>
      </trkpt>
      <trkpt lat="45.97136" lon="3.78642">
        <ele>832</ele>
        <time>2015-08-05T07:24:01Z</time>
      </trkpt>
      <trkpt lat="45.97133" lon="3.78641">
        <ele>832</ele>
        <time>2015-08-05T07:24:03Z</time>
      </trkpt>
      <trkpt lat="45.9713" lon="3.78639">
        <ele>832</ele>
        <time>2015-08-05T07:24:05Z</time>
      </trkpt>
      <trkpt lat="45.97119" lon="3.78632">
        <ele>832</ele>
        <time>2015-08-05T07:24:13Z</time>
      </trkpt>
      <trkpt lat="45.97113" lon="3.7863">
        <ele>832</ele>
        <time>2015-08-05T07:24:17Z</time>
      </trkpt>
      <trkpt lat="45.97111" lon="3.78628">
        <ele>832</ele>
        <time>2015-08-05T07:24:19Z</time>
      </trkpt>
      <trkpt lat="45.97105" lon="3.78623">
        <ele>832</ele>
        <time>2015-08-05T07:24:23Z</time>
      </trkpt>
      <trkpt lat="45.97095" lon="3.78623">
        <ele>832</ele>
        <time>2015-08-05T07:24:29Z</time>
      </trkpt>
      <trkpt lat="45.97091" lon="3.78622">
        <ele>833</ele>
        <time>2015-08-05T07:24:31Z</time>
      </trkpt>
      <trkpt lat="45.97086" lon="3.78621">
        <ele>835</ele>
        <time>2015-08-05T07:24:33Z</time>
      </trkpt>
      <trkpt lat="45.97075" lon="3.78619">
        <ele>841</ele>
        <time>2015-08-05T07:24:39Z</time>
      </trkpt>
      <trkpt lat="45.97072" lon="3.78616">
        <ele>843</ele>
        <time>2015-08-05T07:24:41Z</time>
      </trkpt>
      <trkpt lat="45.97068" lon="3.78616">
        <ele>846</ele>
        <time>2015-08-05T07:24:44Z</time>
      </trkpt>
      <trkpt lat="45.97061" lon="3.78614">
        <ele>848</ele>
        <time>2015-08-05T07:24:48Z</time>
      </trkpt>
      <trkpt lat="45.97056" lon="3.78607">
        <ele>849</ele>
        <time>2015-08-05T07:24:52Z</time>
      </trkpt>
      <trkpt lat="45.97054" lon="3.78604">
        <ele>849</ele>
        <time>2015-08-05T07:24:54Z</time>
      </trkpt>
      <trkpt lat="45.97052" lon="3.78602">
        <ele>849</ele>
        <time>2015-08-05T07:24:56Z</time>
      </trkpt>
      <trkpt lat="45.97049" lon="3.786">
        <ele>849</ele>
        <time>2015-08-05T07:24:58Z</time>
      </trkpt>
      <trkpt lat="45.97046" lon="3.78596">
        <ele>849</ele>
        <time>2015-08-05T07:25:01Z</time>
      </trkpt>
      <trkpt lat="45.97042" lon="3.78592">
        <ele>850</ele>
        <time>2015-08-05T07:25:05Z</time>
      </trkpt>
      <trkpt lat="45.97037" lon="3.78588">
        <ele>850</ele>
        <time>2015-08-05T07:25:09Z</time>
      </trkpt>
      <trkpt lat="45.97035" lon="3.78586">
        <ele>850</ele>
        <time>2015-08-05T07:25:11Z</time>
      </trkpt>
      <trkpt lat="45.97029" lon="3.78574">
        <ele>850</ele>
        <time>2015-08-05T07:25:19Z</time>
      </trkpt>
      <trkpt lat="45.97027" lon="3.78572">
        <ele>850</ele>
        <time>2015-08-05T07:25:21Z</time>
      </trkpt>
      <trkpt lat="45.97025" lon="3.7857">
        <ele>850</ele>
        <time>2015-08-05T07:25:23Z</time>
      </trkpt>
      <trkpt lat="45.97016" lon="3.78558">
        <ele>846</ele>
        <time>2015-08-05T07:25:32Z</time>
      </trkpt>
      <trkpt lat="45.97013" lon="3.78552">
        <ele>845</ele>
        <time>2015-08-05T07:25:36Z</time>
      </trkpt>
      <trkpt lat="45.97012" lon="3.78549">
        <ele>844</ele>
        <time>2015-08-05T07:25:38Z</time>
      </trkpt>
      <trkpt lat="45.97007" lon="3.78544">
        <ele>843</ele>
        <time>2015-08-05T07:25:42Z</time>
      </trkpt>
      <trkpt lat="45.97003" lon="3.78539">
        <ele>843</ele>
        <time>2015-08-05T07:25:46Z</time>
      </trkpt>
      <trkpt lat="45.96999" lon="3.78531">
        <ele>841</ele>
        <time>2015-08-05T07:25:51Z</time>
      </trkpt>
      <trkpt lat="45.96998" lon="3.78528">
        <ele>840</ele>
        <time>2015-08-05T07:25:53Z</time>
      </trkpt>
      <trkpt lat="45.96997" lon="3.78523">
        <ele>839</ele>
        <time>2015-08-05T07:25:57Z</time>
      </trkpt>
      <trkpt lat="45.96997" lon="3.78521">
        <ele>838</ele>
        <time>2015-08-05T07:25:59Z</time>
      </trkpt>
      <trkpt lat="45.96994" lon="3.78524">
        <ele>836</ele>
        <time>2015-08-05T07:26:14Z</time>
      </trkpt>
      <trkpt lat="45.96994" lon="3.7852">
        <ele>836</ele>
        <time>2015-08-05T07:26:19Z</time>
      </trkpt>
      <trkpt lat="45.96992" lon="3.78517">
        <ele>836</ele>
        <time>2015-08-05T07:26:21Z</time>
      </trkpt>
      <trkpt lat="45.9699" lon="3.7851">
        <ele>837</ele>
        <time>2015-08-05T07:26:25Z</time>
      </trkpt>
      <trkpt lat="45.96986" lon="3.78501">
        <ele>837</ele>
        <time>2015-08-05T07:26:31Z</time>
      </trkpt>
      <trkpt lat="45.96984" lon="3.78497">
        <ele>837</ele>
        <time>2015-08-05T07:26:35Z</time>
      </trkpt>
      <trkpt lat="45.96983" lon="3.78495">
        <ele>837</ele>
        <time>2015-08-05T07:26:37Z</time>
      </trkpt>
      <trkpt lat="45.9698" lon="3.78485">
        <ele>837</ele>
        <time>2015-08-05T07:26:43Z</time>
      </trkpt>
      <trkpt lat="45.96977" lon="3.7848">
        <ele>836</ele>
        <time>2015-08-05T07:26:47Z</time>
      </trkpt>
      <trkpt lat="45.96975" lon="3.78473">
        <ele>836</ele>
        <time>2015-08-05T07:26:51Z</time>
      </trkpt>
      <trkpt lat="45.96974" lon="3.7847">
        <ele>836</ele>
        <time>2015-08-05T07:26:53Z</time>
      </trkpt>
      <trkpt lat="45.96973" lon="3.78464">
        <ele>836</ele>
        <time>2015-08-05T07:26:58Z</time>
      </trkpt>
      <trkpt lat="45.96971" lon="3.78461">
        <ele>836</ele>
        <time>2015-08-05T07:27:00Z</time>
      </trkpt>
      <trkpt lat="45.96967" lon="3.78448">
        <ele>836</ele>
        <time>2015-08-05T07:27:08Z</time>
      </trkpt>
      <trkpt lat="45.96967" lon="3.78444">
        <ele>835</ele>
        <time>2015-08-05T07:27:10Z</time>
      </trkpt>
      <trkpt lat="45.96966" lon="3.78438">
        <ele>835</ele>
        <time>2015-08-05T07:27:14Z</time>
      </trkpt>
      <trkpt lat="45.96964" lon="3.78427">
        <ele>833</ele>
        <time>2015-08-05T07:27:21Z</time>
      </trkpt>
      <trkpt lat="45.96961" lon="3.78419">
        <ele>832</ele>
        <time>2015-08-05T07:27:26Z</time>
      </trkpt>
      <trkpt lat="45.96959" lon="3.78415">
        <ele>832</ele>
        <time>2015-08-05T07:27:28Z</time>
      </trkpt>
      <trkpt lat="45.96957" lon="3.78412">
        <ele>832</ele>
        <time>2015-08-05T07:27:30Z</time>
      </trkpt>
      <trkpt lat="45.96956" lon="3.78407">
        <ele>832</ele>
        <time>2015-08-05T07:27:32Z</time>
      </trkpt>
      <trkpt lat="45.96954" lon="3.78403">
        <ele>832</ele>
        <time>2015-08-05T07:27:34Z</time>
      </trkpt>
      <trkpt lat="45.9695" lon="3.78399">
        <ele>832</ele>
        <time>2015-08-05T07:27:37Z</time>
      </trkpt>
      <trkpt lat="45.96947" lon="3.78397">
        <ele>832</ele>
        <time>2015-08-05T07:27:40Z</time>
      </trkpt>
      <trkpt lat="45.9694" lon="3.7839">
        <ele>832</ele>
        <time>2015-08-05T07:27:46Z</time>
      </trkpt>
      <trkpt lat="45.96938" lon="3.78389">
        <ele>833</ele>
        <time>2015-08-05T07:27:48Z</time>
      </trkpt>
      <trkpt lat="45.9693" lon="3.78383">
        <ele>834</ele>
        <time>2015-08-05T07:27:54Z</time>
      </trkpt>
      <trkpt lat="45.96927" lon="3.78381">
        <ele>834</ele>
        <time>2015-08-05T07:27:56Z</time>
      </trkpt>
      <trkpt lat="45.9692" lon="3.78377">
        <ele>837</ele>
        <time>2015-08-05T07:28:00Z</time>
      </trkpt>
      <trkpt lat="45.96916" lon="3.78376">
        <ele>839</ele>
        <time>2015-08-05T07:28:02Z</time>
      </trkpt>
      <trkpt lat="45.96913" lon="3.78373">
        <ele>841</ele>
        <time>2015-08-05T07:28:04Z</time>
      </trkpt>
      <trkpt lat="45.96905" lon="3.78369">
        <ele>846</ele>
        <time>2015-08-05T07:28:09Z</time>
      </trkpt>
      <trkpt lat="45.96901" lon="3.78366">
        <ele>849</ele>
        <time>2015-08-05T07:28:12Z</time>
      </trkpt>
      <trkpt lat="45.96898" lon="3.78363">
        <ele>849</ele>
        <time>2015-08-05T07:28:15Z</time>
      </trkpt>
      <trkpt lat="45.96896" lon="3.78361">
        <ele>849</ele>
        <time>2015-08-05T07:28:17Z</time>
      </trkpt>
      <trkpt lat="45.96891" lon="3.78357">
        <ele>849</ele>
        <time>2015-08-05T07:28:21Z</time>
      </trkpt>
      <trkpt lat="45.96888" lon="3.78351">
        <ele>849</ele>
        <time>2015-08-05T07:28:25Z</time>
      </trkpt>
      <trkpt lat="45.96884" lon="3.78347">
        <ele>849</ele>
        <time>2015-08-05T07:28:29Z</time>
      </trkpt>
      <trkpt lat="45.96878" lon="3.7834">
        <ele>849</ele>
        <time>2015-08-05T07:28:34Z</time>
      </trkpt>
      <trkpt lat="45.96876" lon="3.78335">
        <ele>849</ele>
        <time>2015-08-05T07:28:37Z</time>
      </trkpt>
      <trkpt lat="45.9687" lon="3.78327">
        <ele>849</ele>
        <time>2015-08-05T07:28:43Z</time>
      </trkpt>
      <trkpt lat="45.96867" lon="3.78323">
        <ele>849</ele>
        <time>2015-08-05T07:28:46Z</time>
      </trkpt>
      <trkpt lat="45.96863" lon="3.78317">
        <ele>849</ele>
        <time>2015-08-05T07:28:50Z</time>
      </trkpt>
      <trkpt lat="45.96859" lon="3.7831">
        <ele>849</ele>
        <time>2015-08-05T07:28:55Z</time>
      </trkpt>
      <trkpt lat="45.96856" lon="3.78306">
        <ele>848</ele>
        <time>2015-08-05T07:28:58Z</time>
      </trkpt>
      <trkpt lat="45.96849" lon="3.783">
        <ele>847</ele>
        <time>2015-08-05T07:29:05Z</time>
      </trkpt>
      <trkpt lat="45.96845" lon="3.78294">
        <ele>846</ele>
        <time>2015-08-05T07:29:10Z</time>
      </trkpt>
      <trkpt lat="45.96843" lon="3.78289">
        <ele>846</ele>
        <time>2015-08-05T07:29:13Z</time>
      </trkpt>
      <trkpt lat="45.96842" lon="3.78281">
        <ele>846</ele>
        <time>2015-08-05T07:29:17Z</time>
      </trkpt>
      <trkpt lat="45.96842" lon="3.78268">
        <ele>844</ele>
        <time>2015-08-05T07:29:24Z</time>
      </trkpt>
      <trkpt lat="45.96843" lon="3.7826">
        <ele>844</ele>
        <time>2015-08-05T07:29:28Z</time>
      </trkpt>
      <trkpt lat="45.96844" lon="3.7825">
        <ele>843</ele>
        <time>2015-08-05T07:29:33Z</time>
      </trkpt>
      <trkpt lat="45.96846" lon="3.78244">
        <ele>843</ele>
        <time>2015-08-05T07:29:36Z</time>
      </trkpt>
      <trkpt lat="45.96849" lon="3.78241">
        <ele>843</ele>
        <time>2015-08-05T07:29:39Z</time>
      </trkpt>
      <trkpt lat="45.96854" lon="3.78236">
        <ele>842</ele>
        <time>2015-08-05T07:29:44Z</time>
      </trkpt>
      <trkpt lat="45.96853" lon="3.78235">
        <ele>841</ele>
        <time>2015-08-05T07:29:49Z</time>
      </trkpt>
      <trkpt lat="45.96857" lon="3.78231">
        <ele>841</ele>
        <time>2015-08-05T07:29:52Z</time>
      </trkpt>
      <trkpt lat="45.96862" lon="3.78228">
        <ele>840</ele>
        <time>2015-08-05T07:29:56Z</time>
      </trkpt>
      <trkpt lat="45.96865" lon="3.78222">
        <ele>840</ele>
        <time>2015-08-05T07:30:00Z</time>
      </trkpt>
      <trkpt lat="45.96866" lon="3.7822">
        <ele>840</ele>
        <time>2015-08-05T07:30:02Z</time>
      </trkpt>
      <trkpt lat="45.96869" lon="3.78214">
        <ele>839</ele>
        <time>2015-08-05T07:30:06Z</time>
      </trkpt>
      <trkpt lat="45.96872" lon="3.78208">
        <ele>838</ele>
        <time>2015-08-05T07:30:10Z</time>
      </trkpt>
      <trkpt lat="45.96873" lon="3.78204">
        <ele>838</ele>
        <time>2015-08-05T07:30:13Z</time>
      </trkpt>
      <trkpt lat="45.96873" lon="3.78203">
        <ele>838</ele>
        <time>2015-08-05T07:30:15Z</time>
      </trkpt>
      <trkpt lat="45.96877" lon="3.78199">
        <ele>838</ele>
        <time>2015-08-05T07:30:18Z</time>
      </trkpt>
      <trkpt lat="45.96877" lon="3.78196">
        <ele>838</ele>
        <time>2015-08-05T07:30:20Z</time>
      </trkpt>
      <trkpt lat="45.96875" lon="3.7819">
        <ele>838</ele>
        <time>2015-08-05T07:30:24Z</time>
      </trkpt>
      <trkpt lat="45.96878" lon="3.7819">
        <ele>838</ele>
        <time>2015-08-05T07:30:32Z</time>
      </trkpt>
      <trkpt lat="45.96879" lon="3.78187">
        <ele>838</ele>
        <time>2015-08-05T07:30:35Z</time>
      </trkpt>
      <trkpt lat="45.96878" lon="3.78176">
        <ele>838</ele>
        <time>2015-08-05T07:30:40Z</time>
      </trkpt>
      <trkpt lat="45.96879" lon="3.78171">
        <ele>838</ele>
        <time>2015-08-05T07:30:42Z</time>
      </trkpt>
      <trkpt lat="45.96882" lon="3.78169">
        <ele>838</ele>
        <time>2015-08-05T07:30:45Z</time>
      </trkpt>
      <trkpt lat="45.96883" lon="3.78164">
        <ele>838</ele>
        <time>2015-08-05T07:30:47Z</time>
      </trkpt>
      <trkpt lat="45.96883" lon="3.78156">
        <ele>838</ele>
        <time>2015-08-05T07:30:50Z</time>
      </trkpt>
      <trkpt lat="45.96884" lon="3.78143">
        <ele>838</ele>
        <time>2015-08-05T07:30:55Z</time>
      </trkpt>
      <trkpt lat="45.96883" lon="3.78139">
        <ele>838</ele>
        <time>2015-08-05T07:30:57Z</time>
      </trkpt>
      <trkpt lat="45.96884" lon="3.78134">
        <ele>838</ele>
        <time>2015-08-05T07:31:00Z</time>
      </trkpt>
      <trkpt lat="45.96886" lon="3.78133">
        <ele>838</ele>
        <time>2015-08-05T07:31:02Z</time>
      </trkpt>
      <trkpt lat="45.96886" lon="3.78128">
        <ele>838</ele>
        <time>2015-08-05T07:31:05Z</time>
      </trkpt>
      <trkpt lat="45.96886" lon="3.78123">
        <ele>838</ele>
        <time>2015-08-05T07:31:07Z</time>
      </trkpt>
      <trkpt lat="45.96887" lon="3.78112">
        <ele>838</ele>
        <time>2015-08-05T07:31:13Z</time>
      </trkpt>
      <trkpt lat="45.96887" lon="3.78106">
        <ele>838</ele>
        <time>2015-08-05T07:31:16Z</time>
      </trkpt>
      <trkpt lat="45.96887" lon="3.78102">
        <ele>838</ele>
        <time>2015-08-05T07:31:18Z</time>
      </trkpt>
      <trkpt lat="45.9689" lon="3.78096">
        <ele>838</ele>
        <time>2015-08-05T07:31:23Z</time>
      </trkpt>
      <trkpt lat="45.96894" lon="3.78092">
        <ele>838</ele>
        <time>2015-08-05T07:31:28Z</time>
      </trkpt>
      <trkpt lat="45.96895" lon="3.78089">
        <ele>837</ele>
        <time>2015-08-05T07:31:30Z</time>
      </trkpt>
      <trkpt lat="45.96903" lon="3.78084">
        <ele>834</ele>
        <time>2015-08-05T07:31:38Z</time>
      </trkpt>
      <trkpt lat="45.96902" lon="3.78081">
        <ele>833</ele>
        <time>2015-08-05T07:31:42Z</time>
      </trkpt>
      <trkpt lat="45.96899" lon="3.78079">
        <ele>833</ele>
        <time>2015-08-05T07:31:45Z</time>
      </trkpt>
      <trkpt lat="45.969" lon="3.78078">
        <ele>833</ele>
        <time>2015-08-05T07:31:49Z</time>
      </trkpt>
      <trkpt lat="45.96902" lon="3.78079">
        <ele>833</ele>
        <time>2015-08-05T07:31:52Z</time>
      </trkpt>
      <trkpt lat="45.96903" lon="3.78079">
        <ele>833</ele>
        <time>2015-08-05T07:31:59Z</time>
      </trkpt>
      <trkpt lat="45.96906" lon="3.78077">
        <ele>832</ele>
        <time>2015-08-05T07:32:03Z</time>
      </trkpt>
      <trkpt lat="45.9691" lon="3.7807">
        <ele>829</ele>
        <time>2015-08-05T07:32:09Z</time>
      </trkpt>
      <trkpt lat="45.96912" lon="3.78067">
        <ele>829</ele>
        <time>2015-08-05T07:32:11Z</time>
      </trkpt>
      <trkpt lat="45.96917" lon="3.78059">
        <ele>827</ele>
        <time>2015-08-05T07:32:17Z</time>
      </trkpt>
      <trkpt lat="45.96921" lon="3.78051">
        <ele>825</ele>
        <time>2015-08-05T07:32:23Z</time>
      </trkpt>
      <trkpt lat="45.9693" lon="3.78036">
        <ele>823</ele>
        <time>2015-08-05T07:32:34Z</time>
      </trkpt>
      <trkpt lat="45.96934" lon="3.78032">
        <ele>823</ele>
        <time>2015-08-05T07:32:37Z</time>
      </trkpt>
      <trkpt lat="45.96947" lon="3.78021">
        <ele>823</ele>
        <time>2015-08-05T07:32:47Z</time>
      </trkpt>
      <trkpt lat="45.96949" lon="3.78018">
        <ele>823</ele>
        <time>2015-08-05T07:32:49Z</time>
      </trkpt>
      <trkpt lat="45.96953" lon="3.78014">
        <ele>822</ele>
        <time>2015-08-05T07:32:53Z</time>
      </trkpt>
      <trkpt lat="45.96962" lon="3.78008">
        <ele>822</ele>
        <time>2015-08-05T07:33:00Z</time>
      </trkpt>
      <trkpt lat="45.96966" lon="3.78006">
        <ele>822</ele>
        <time>2015-08-05T07:33:03Z</time>
      </trkpt>
      <trkpt lat="45.96973" lon="3.78001">
        <ele>822</ele>
        <time>2015-08-05T07:33:09Z</time>
      </trkpt>
      <trkpt lat="45.96975" lon="3.77997">
        <ele>822</ele>
        <time>2015-08-05T07:33:11Z</time>
      </trkpt>
      <trkpt lat="45.96979" lon="3.77994">
        <ele>822</ele>
        <time>2015-08-05T07:33:14Z</time>
      </trkpt>
      <trkpt lat="45.96984" lon="3.77989">
        <ele>822</ele>
        <time>2015-08-05T07:33:19Z</time>
      </trkpt>
      <trkpt lat="45.96987" lon="3.77986">
        <ele>822</ele>
        <time>2015-08-05T07:33:22Z</time>
      </trkpt>
      <trkpt lat="45.9699" lon="3.77983">
        <ele>822</ele>
        <time>2015-08-05T07:33:25Z</time>
      </trkpt>
      <trkpt lat="45.96992" lon="3.77981">
        <ele>822</ele>
        <time>2015-08-05T07:33:27Z</time>
      </trkpt>
      <trkpt lat="45.96997" lon="3.77982">
        <ele>822</ele>
        <time>2015-08-05T07:33:30Z</time>
      </trkpt>
      <trkpt lat="45.96999" lon="3.7798">
        <ele>821</ele>
        <time>2015-08-05T07:33:32Z</time>
      </trkpt>
      <trkpt lat="45.97007" lon="3.77977">
        <ele>821</ele>
        <time>2015-08-05T07:33:37Z</time>
      </trkpt>
      <trkpt lat="45.97011" lon="3.77975">
        <ele>821</ele>
        <time>2015-08-05T07:33:40Z</time>
      </trkpt>
      <trkpt lat="45.97018" lon="3.77974">
        <ele>821</ele>
        <time>2015-08-05T07:33:45Z</time>
      </trkpt>
      <trkpt lat="45.97019" lon="3.77974">
        <ele>821</ele>
        <time>2015-08-05T07:33:47Z</time>
      </trkpt>
      <trkpt lat="45.97029" lon="3.77973">
        <ele>820</ele>
        <time>2015-08-05T07:33:56Z</time>
      </trkpt>
      <trkpt lat="45.97031" lon="3.77973">
        <ele>819</ele>
        <time>2015-08-05T07:34:06Z</time>
      </trkpt>
      <trkpt lat="45.97034" lon="3.77973">
        <ele>819</ele>
        <time>2015-08-05T07:34:10Z</time>
      </trkpt>
      <trkpt lat="45.97035" lon="3.77971">
        <ele>819</ele>
        <time>2015-08-05T07:34:12Z</time>
      </trkpt>
      <trkpt lat="45.97032" lon="3.77969">
        <ele>819</ele>
        <time>2015-08-05T07:34:17Z</time>
      </trkpt>
      <trkpt lat="45.97033" lon="3.77968">
        <ele>819</ele>
        <time>2015-08-05T07:34:23Z</time>
      </trkpt>
      <trkpt lat="45.97032" lon="3.77969">
        <ele>819</ele>
        <time>2015-08-05T07:34:28Z</time>
      </trkpt>
      <trkpt lat="45.97031" lon="3.77969">
        <ele>819</ele>
        <time>2015-08-05T07:34:35Z</time>
      </trkpt>
      <trkpt lat="45.97029" lon="3.7797">
        <ele>819</ele>
        <time>2015-08-05T07:34:37Z</time>
      </trkpt>
      <trkpt lat="45.97017" lon="3.77974">
        <ele>818</ele>
        <time>2015-08-05T07:34:47Z</time>
      </trkpt>
      <trkpt lat="45.97005" lon="3.77976">
        <ele>818</ele>
        <time>2015-08-05T07:34:51Z</time>
      </trkpt>
      <trkpt lat="45.96992" lon="3.77982">
        <ele>818</ele>
        <time>2015-08-05T07:34:56Z</time>
      </trkpt>
      <trkpt lat="45.96986" lon="3.77986">
        <ele>818</ele>
        <time>2015-08-05T07:34:58Z</time>
      </trkpt>
      <trkpt lat="45.96979" lon="3.77992">
        <ele>818</ele>
        <time>2015-08-05T07:35:01Z</time>
      </trkpt>
      <trkpt lat="45.96974" lon="3.77996">
        <ele>818</ele>
        <time>2015-08-05T07:35:03Z</time>
      </trkpt>
      <trkpt lat="45.96967" lon="3.78002">
        <ele>818</ele>
        <time>2015-08-05T07:35:06Z</time>
      </trkpt>
      <trkpt lat="45.96962" lon="3.78007">
        <ele>818</ele>
        <time>2015-08-05T07:35:08Z</time>
      </trkpt>
      <trkpt lat="45.96955" lon="3.78011">
        <ele>818</ele>
        <time>2015-08-05T07:35:11Z</time>
      </trkpt>
      <trkpt lat="45.96944" lon="3.78022">
        <ele>818</ele>
        <time>2015-08-05T07:35:16Z</time>
      </trkpt>
      <trkpt lat="45.9694" lon="3.78026">
        <ele>818</ele>
        <time>2015-08-05T07:35:18Z</time>
      </trkpt>
      <trkpt lat="45.96932" lon="3.78039">
        <ele>818</ele>
        <time>2015-08-05T07:35:23Z</time>
      </trkpt>
      <trkpt lat="45.96925" lon="3.78048">
        <ele>818</ele>
        <time>2015-08-05T07:35:27Z</time>
      </trkpt>
      <trkpt lat="45.96917" lon="3.78061">
        <ele>818</ele>
        <time>2015-08-05T07:35:34Z</time>
      </trkpt>
      <trkpt lat="45.96909" lon="3.78075">
        <ele>820</ele>
        <time>2015-08-05T07:35:41Z</time>
      </trkpt>
      <trkpt lat="45.96907" lon="3.78078">
        <ele>820</ele>
        <time>2015-08-05T07:35:43Z</time>
      </trkpt>
      <trkpt lat="45.96905" lon="3.78081">
        <ele>820</ele>
        <time>2015-08-05T07:35:45Z</time>
      </trkpt>
      <trkpt lat="45.969" lon="3.78089">
        <ele>820</ele>
        <time>2015-08-05T07:35:49Z</time>
      </trkpt>
      <trkpt lat="45.96893" lon="3.78101">
        <ele>822</ele>
        <time>2015-08-05T07:35:57Z</time>
      </trkpt>
      <trkpt lat="45.96894" lon="3.78102">
        <ele>824</ele>
        <time>2015-08-05T07:36:00Z</time>
      </trkpt>
      <trkpt lat="45.96899" lon="3.78093">
        <ele>824</ele>
        <time>2015-08-05T07:36:06Z</time>
      </trkpt>
      <trkpt lat="45.96903" lon="3.78086">
        <ele>824</ele>
        <time>2015-08-05T07:36:10Z</time>
      </trkpt>
      <trkpt lat="45.96907" lon="3.78081">
        <ele>824</ele>
        <time>2015-08-05T07:36:13Z</time>
      </trkpt>
      <trkpt lat="45.9691" lon="3.78075">
        <ele>824</ele>
        <time>2015-08-05T07:36:17Z</time>
      </trkpt>
      <trkpt lat="45.96912" lon="3.78071">
        <ele>824</ele>
        <time>2015-08-05T07:36:20Z</time>
      </trkpt>
      <trkpt lat="45.96915" lon="3.78068">
        <ele>824</ele>
        <time>2015-08-05T07:36:22Z</time>
      </trkpt>
      <trkpt lat="45.96917" lon="3.78063">
        <ele>824</ele>
        <time>2015-08-05T07:36:24Z</time>
      </trkpt>
      <trkpt lat="45.96919" lon="3.7806">
        <ele>824</ele>
        <time>2015-08-05T07:36:26Z</time>
      </trkpt>
      <trkpt lat="45.96925" lon="3.78055">
        <ele>824</ele>
        <time>2015-08-05T07:36:30Z</time>
      </trkpt>
      <trkpt lat="45.96933" lon="3.78043">
        <ele>822</ele>
        <time>2015-08-05T07:36:37Z</time>
      </trkpt>
      <trkpt lat="45.96936" lon="3.7804">
        <ele>822</ele>
        <time>2015-08-05T07:36:39Z</time>
      </trkpt>
      <trkpt lat="45.96941" lon="3.78034">
        <ele>821</ele>
        <time>2015-08-05T07:36:43Z</time>
      </trkpt>
      <trkpt lat="45.96948" lon="3.78028">
        <ele>819</ele>
        <time>2015-08-05T07:36:48Z</time>
      </trkpt>
      <trkpt lat="45.96951" lon="3.78025">
        <ele>818</ele>
        <time>2015-08-05T07:36:50Z</time>
      </trkpt>
      <trkpt lat="45.96953" lon="3.78022">
        <ele>818</ele>
        <time>2015-08-05T07:36:52Z</time>
      </trkpt>
      <trkpt lat="45.96956" lon="3.78019">
        <ele>818</ele>
        <time>2015-08-05T07:36:54Z</time>
      </trkpt>
      <trkpt lat="45.96962" lon="3.78014">
        <ele>818</ele>
        <time>2015-08-05T07:36:58Z</time>
      </trkpt>
      <trkpt lat="45.96965" lon="3.78013">
        <ele>818</ele>
        <time>2015-08-05T07:37:00Z</time>
      </trkpt>
      <trkpt lat="45.96967" lon="3.78011">
        <ele>818</ele>
        <time>2015-08-05T07:37:02Z</time>
      </trkpt>
      <trkpt lat="45.96972" lon="3.78005">
        <ele>816</ele>
        <time>2015-08-05T07:37:07Z</time>
      </trkpt>
      <trkpt lat="45.96975" lon="3.78004">
        <ele>816</ele>
        <time>2015-08-05T07:37:09Z</time>
      </trkpt>
      <trkpt lat="45.96977" lon="3.78001">
        <ele>816</ele>
        <time>2015-08-05T07:37:11Z</time>
      </trkpt>
      <trkpt lat="45.9698" lon="3.78">
        <ele>816</ele>
        <time>2015-08-05T07:37:13Z</time>
      </trkpt>
      <trkpt lat="45.96986" lon="3.77995">
        <ele>816</ele>
        <time>2015-08-05T07:37:17Z</time>
      </trkpt>
      <trkpt lat="45.96991" lon="3.77987">
        <ele>816</ele>
        <time>2015-08-05T07:37:22Z</time>
      </trkpt>
      <trkpt lat="45.96993" lon="3.77984">
        <ele>816</ele>
        <time>2015-08-05T07:37:24Z</time>
      </trkpt>
      <trkpt lat="45.96996" lon="3.77981">
        <ele>816</ele>
        <time>2015-08-05T07:37:26Z</time>
      </trkpt>
      <trkpt lat="45.96998" lon="3.77975">
        <ele>816</ele>
        <time>2015-08-05T07:37:28Z</time>
      </trkpt>
      <trkpt lat="45.97003" lon="3.77974">
        <ele>816</ele>
        <time>2015-08-05T07:37:30Z</time>
      </trkpt>
      <trkpt lat="45.97009" lon="3.77975">
        <ele>816</ele>
        <time>2015-08-05T07:37:32Z</time>
      </trkpt>
      <trkpt lat="45.97016" lon="3.77973">
        <ele>815</ele>
        <time>2015-08-05T07:37:38Z</time>
      </trkpt>
      <trkpt lat="45.97018" lon="3.77974">
        <ele>815</ele>
        <time>2015-08-05T07:37:40Z</time>
      </trkpt>
      <trkpt lat="45.97024" lon="3.77975">
        <ele>814</ele>
        <time>2015-08-05T07:37:44Z</time>
      </trkpt>
      <trkpt lat="45.97026" lon="3.77973">
        <ele>813</ele>
        <time>2015-08-05T07:37:48Z</time>
      </trkpt>
      <trkpt lat="45.97026" lon="3.7797">
        <ele>813</ele>
        <time>2015-08-05T07:38:20Z</time>
      </trkpt>
      <trkpt lat="45.97026" lon="3.77972">
        <ele>813</ele>
        <time>2015-08-05T07:38:29Z</time>
      </trkpt>
      <trkpt lat="45.97027" lon="3.77974">
        <ele>813</ele>
        <time>2015-08-05T07:38:32Z</time>
      </trkpt>
      <trkpt lat="45.97029" lon="3.77974">
        <ele>813</ele>
        <time>2015-08-05T07:38:34Z</time>
      </trkpt>
      <trkpt lat="45.97032" lon="3.77975">
        <ele>813</ele>
        <time>2015-08-05T07:38:36Z</time>
      </trkpt>
      <trkpt lat="45.97034" lon="3.77976">
        <ele>813</ele>
        <time>2015-08-05T07:38:38Z</time>
      </trkpt>
      <trkpt lat="45.97036" lon="3.77977">
        <ele>813</ele>
        <time>2015-08-05T07:38:40Z</time>
      </trkpt>
      <trkpt lat="45.97039" lon="3.77979">
        <ele>813</ele>
        <time>2015-08-05T07:38:44Z</time>
      </trkpt>
      <trkpt lat="45.9704" lon="3.77981">
        <ele>813</ele>
        <time>2015-08-05T07:38:46Z</time>
      </trkpt>
      <trkpt lat="45.97042" lon="3.77983">
        <ele>813</ele>
        <time>2015-08-05T07:38:50Z</time>
      </trkpt>
      <trkpt lat="45.97044" lon="3.77983">
        <ele>813</ele>
        <time>2015-08-05T07:38:54Z</time>
      </trkpt>
      <trkpt lat="45.97045" lon="3.77981">
        <ele>813</ele>
        <time>2015-08-05T07:38:58Z</time>
      </trkpt>
      <trkpt lat="45.97046" lon="3.77981">
        <ele>813</ele>
        <time>2015-08-05T07:39:03Z</time>
      </trkpt>
      <trkpt lat="45.97046" lon="3.77983">
        <ele>813</ele>
        <time>2015-08-05T07:39:05Z</time>
      </trkpt>
      <trkpt lat="45.97046" lon="3.77985">
        <ele>813</ele>
        <time>2015-08-05T07:39:08Z</time>
      </trkpt>
      <trkpt lat="45.97044" lon="3.77988">
        <ele>813</ele>
        <time>2015-08-05T07:39:47Z</time>
      </trkpt>
      <trkpt lat="45.97046" lon="3.77988">
        <ele>813</ele>
        <time>2015-08-05T07:39:53Z</time>
      </trkpt>
      <trkpt lat="45.97047" lon="3.77987">
        <ele>813</ele>
        <time>2015-08-05T07:39:57Z</time>
      </trkpt>
      <trkpt lat="45.97046" lon="3.77987">
        <ele>813</ele>
        <time>2015-08-05T07:40:01Z</time>
      </trkpt>
      <trkpt lat="45.97044" lon="3.7799">
        <ele>813</ele>
        <time>2015-08-05T07:40:11Z</time>
      </trkpt>
      <trkpt lat="45.97043" lon="3.77991">
        <ele>816</ele>
        <time>2015-08-05T07:40:16Z</time>
      </trkpt>
      <trkpt lat="45.97044" lon="3.77991">
        <ele>819</ele>
        <time>2015-08-05T07:40:19Z</time>
      </trkpt>
      <trkpt lat="45.97048" lon="3.77988">
        <ele>820</ele>
        <time>2015-08-05T07:40:24Z</time>
      </trkpt>
      <trkpt lat="45.97051" lon="3.7799">
        <ele>821</ele>
        <time>2015-08-05T07:40:33Z</time>
      </trkpt>
      <trkpt lat="45.97054" lon="3.7799">
        <ele>821</ele>
        <time>2015-08-05T07:40:35Z</time>
      </trkpt>
      <trkpt lat="45.97055" lon="3.77992">
        <ele>821</ele>
        <time>2015-08-05T07:40:37Z</time>
      </trkpt>
      <trkpt lat="45.97061" lon="3.77999">
        <ele>821</ele>
        <time>2015-08-05T07:40:42Z</time>
      </trkpt>
      <trkpt lat="45.97063" lon="3.78004">
        <ele>821</ele>
        <time>2015-08-05T07:40:44Z</time>
      </trkpt>
      <trkpt lat="45.97065" lon="3.78005">
        <ele>821</ele>
        <time>2015-08-05T07:40:46Z</time>
      </trkpt>
      <trkpt lat="45.97067" lon="3.78005">
        <ele>821</ele>
        <time>2015-08-05T07:40:48Z</time>
      </trkpt>
      <trkpt lat="45.9707" lon="3.78007">
        <ele>821</ele>
        <time>2015-08-05T07:40:50Z</time>
      </trkpt>
      <trkpt lat="45.9707" lon="3.78005">
        <ele>821</ele>
        <time>2015-08-05T07:40:56Z</time>
      </trkpt>
      <trkpt lat="45.9707" lon="3.78004">
        <ele>821</ele>
        <time>2015-08-05T07:41:05Z</time>
      </trkpt>
      <trkpt lat="45.97069" lon="3.78005">
        <ele>821</ele>
        <time>2015-08-05T07:41:12Z</time>
      </trkpt>
      <trkpt lat="45.97068" lon="3.78003">
        <ele>821</ele>
        <time>2015-08-05T07:41:17Z</time>
      </trkpt>
      <trkpt lat="45.97066" lon="3.78001">
        <ele>821</ele>
        <time>2015-08-05T07:41:19Z</time>
      </trkpt>
      <trkpt lat="45.97064" lon="3.77998">
        <ele>821</ele>
        <time>2015-08-05T07:41:21Z</time>
      </trkpt>
      <trkpt lat="45.97062" lon="3.77996">
        <ele>820</ele>
        <time>2015-08-05T07:41:23Z</time>
      </trkpt>
      <trkpt lat="45.97057" lon="3.7799">
        <ele>820</ele>
        <time>2015-08-05T07:41:27Z</time>
      </trkpt>
      <trkpt lat="45.97052" lon="3.77987">
        <ele>819</ele>
        <time>2015-08-05T07:41:32Z</time>
      </trkpt>
      <trkpt lat="45.97049" lon="3.77988">
        <ele>815</ele>
        <time>2015-08-05T07:42:00Z</time>
      </trkpt>
      <trkpt lat="45.97047" lon="3.77988">
        <ele>816</ele>
        <time>2015-08-05T07:42:03Z</time>
      </trkpt>
      <trkpt lat="45.97049" lon="3.77988">
        <ele>821</ele>
        <time>2015-08-05T07:42:18Z</time>
      </trkpt>
      <trkpt lat="45.97047" lon="3.77989">
        <ele>819</ele>
        <time>2015-08-05T07:42:43Z</time>
      </trkpt>
      <trkpt lat="45.97048" lon="3.7799">
        <ele>817</ele>
        <time>2015-08-05T07:43:09Z</time>
      </trkpt>
      <trkpt lat="45.97047" lon="3.7799">
        <ele>817</ele>
        <time>2015-08-05T07:43:19Z</time>
      </trkpt>
      <trkpt lat="45.97048" lon="3.7799">
        <ele>817</ele>
        <time>2015-08-05T07:43:50Z</time>
      </trkpt>
      <trkpt lat="45.97047" lon="3.7799">
        <ele>817</ele>
        <time>2015-08-05T07:43:55Z</time>
      </trkpt>
      <trkpt lat="45.97046" lon="3.77987">
        <ele>823</ele>
        <time>2015-08-05T07:44:22Z</time>
      </trkpt>
      <trkpt lat="45.97047" lon="3.77987">
        <ele>824</ele>
        <time>2015-08-05T07:45:16Z</time>
      </trkpt>
      <trkpt lat="45.97047" lon="3.77989">
        <ele>822</ele>
        <time>2015-08-05T07:45:32Z</time>
      </trkpt>
      <trkpt lat="45.97047" lon="3.7799">
        <ele>816</ele>
        <time>2015-08-05T07:45:54Z</time>
      </trkpt>
      <trkpt lat="45.97048" lon="3.77991">
        <ele>812</ele>
        <time>2015-08-05T07:46:09Z</time>
      </trkpt>
      <trkpt lat="45.97049" lon="3.77989">
        <ele>809</ele>
        <time>2015-08-05T07:46:41Z</time>
      </trkpt>
      <trkpt lat="45.97047" lon="3.77989">
        <ele>813</ele>
        <time>2015-08-05T07:47:27Z</time>
      </trkpt>
      <trkpt lat="45.97046" lon="3.77988">
        <ele>822</ele>
        <time>2015-08-05T07:48:30Z</time>
      </trkpt>
      <trkpt lat="45.97045" lon="3.77989">
        <ele>825</ele>
        <time>2015-08-05T07:48:35Z</time>
      </trkpt>
      <trkpt lat="45.97046" lon="3.77988">
        <ele>827</ele>
        <time>2015-08-05T07:48:43Z</time>
      </trkpt>
      <trkpt lat="45.97047" lon="3.77988">
        <ele>823</ele>
        <time>2015-08-05T07:48:52Z</time>
      </trkpt>
      <trkpt lat="45.97046" lon="3.77988">
        <ele>818</ele>
        <time>2015-08-05T07:49:12Z</time>
      </trkpt>
      <trkpt lat="45.97047" lon="3.77988">
        <ele>818</ele>
        <time>2015-08-05T07:49:37Z</time>
      </trkpt>
      <trkpt lat="45.97048" lon="3.77987">
        <ele>816</ele>
        <time>2015-08-05T07:50:03Z</time>
      </trkpt>
      <trkpt lat="45.97051" lon="3.77983">
        <ele>816</ele>
        <time>2015-08-05T07:50:08Z</time>
      </trkpt>
      <trkpt lat="45.97052" lon="3.7798">
        <ele>816</ele>
        <time>2015-08-05T07:50:10Z</time>
      </trkpt>
      <trkpt lat="45.97052" lon="3.77977">
        <ele>816</ele>
        <time>2015-08-05T07:50:12Z</time>
      </trkpt>
      <trkpt lat="45.97052" lon="3.77974">
        <ele>815</ele>
        <time>2015-08-05T07:50:14Z</time>
      </trkpt>
      <trkpt lat="45.97052" lon="3.7797">
        <ele>815</ele>
        <time>2015-08-05T07:50:17Z</time>
      </trkpt>
      <trkpt lat="45.97052" lon="3.77965">
        <ele>814</ele>
        <time>2015-08-05T07:50:21Z</time>
      </trkpt>
      <trkpt lat="45.9705" lon="3.77962">
        <ele>813</ele>
        <time>2015-08-05T07:50:23Z</time>
      </trkpt>
      <trkpt lat="45.97048" lon="3.77959">
        <ele>813</ele>
        <time>2015-08-05T07:50:26Z</time>
      </trkpt>
      <trkpt lat="45.97046" lon="3.77958">
        <ele>812</ele>
        <time>2015-08-05T07:50:28Z</time>
      </trkpt>
      <trkpt lat="45.97044" lon="3.77958">
        <ele>812</ele>
        <time>2015-08-05T07:50:30Z</time>
      </trkpt>
      <trkpt lat="45.9704" lon="3.77958">
        <ele>810</ele>
        <time>2015-08-05T07:50:34Z</time>
      </trkpt>
      <trkpt lat="45.97037" lon="3.77956">
        <ele>809</ele>
        <time>2015-08-05T07:50:37Z</time>
      </trkpt>
      <trkpt lat="45.97034" lon="3.77955">
        <ele>809</ele>
        <time>2015-08-05T07:50:39Z</time>
      </trkpt>
      <trkpt lat="45.97031" lon="3.77952">
        <ele>808</ele>
        <time>2015-08-05T07:50:42Z</time>
      </trkpt>
      <trkpt lat="45.97029" lon="3.77949">
        <ele>807</ele>
        <time>2015-08-05T07:50:44Z</time>
      </trkpt>
      <trkpt lat="45.97029" lon="3.77945">
        <ele>807</ele>
        <time>2015-08-05T07:50:46Z</time>
      </trkpt>
      <trkpt lat="45.9703" lon="3.77942">
        <ele>807</ele>
        <time>2015-08-05T07:50:48Z</time>
      </trkpt>
      <trkpt lat="45.97029" lon="3.77935">
        <ele>807</ele>
        <time>2015-08-05T07:50:53Z</time>
      </trkpt>
      <trkpt lat="45.9703" lon="3.77932">
        <ele>806</ele>
        <time>2015-08-05T07:50:55Z</time>
      </trkpt>
      <trkpt lat="45.97031" lon="3.77929">
        <ele>806</ele>
        <time>2015-08-05T07:50:57Z</time>
      </trkpt>
      <trkpt lat="45.97034" lon="3.77924">
        <ele>804</ele>
        <time>2015-08-05T07:51:01Z</time>
      </trkpt>
      <trkpt lat="45.97036" lon="3.77922">
        <ele>804</ele>
        <time>2015-08-05T07:51:03Z</time>
      </trkpt>
      <trkpt lat="45.97039" lon="3.77918">
        <ele>804</ele>
        <time>2015-08-05T07:51:07Z</time>
      </trkpt>
      <trkpt lat="45.97039" lon="3.77916">
        <ele>804</ele>
        <time>2015-08-05T07:51:09Z</time>
      </trkpt>
      <trkpt lat="45.97039" lon="3.77915">
        <ele>804</ele>
        <time>2015-08-05T07:51:12Z</time>
      </trkpt>
      <trkpt lat="45.97039" lon="3.77913">
        <ele>804</ele>
        <time>2015-08-05T07:51:16Z</time>
      </trkpt>
      <trkpt lat="45.97041" lon="3.77912">
        <ele>804</ele>
        <time>2015-08-05T07:51:18Z</time>
      </trkpt>
      <trkpt lat="45.97044" lon="3.77909">
        <ele>803</ele>
        <time>2015-08-05T07:51:22Z</time>
      </trkpt>
      <trkpt lat="45.97048" lon="3.77906">
        <ele>802</ele>
        <time>2015-08-05T07:51:26Z</time>
      </trkpt>
      <trkpt lat="45.97052" lon="3.77902">
        <ele>801</ele>
        <time>2015-08-05T07:51:30Z</time>
      </trkpt>
      <trkpt lat="45.97057" lon="3.77898">
        <ele>800</ele>
        <time>2015-08-05T07:51:34Z</time>
      </trkpt>
      <trkpt lat="45.9706" lon="3.77893">
        <ele>799</ele>
        <time>2015-08-05T07:51:38Z</time>
      </trkpt>
      <trkpt lat="45.97066" lon="3.77889">
        <ele>797</ele>
        <time>2015-08-05T07:51:42Z</time>
      </trkpt>
      <trkpt lat="45.97068" lon="3.77886">
        <ele>797</ele>
        <time>2015-08-05T07:51:44Z</time>
      </trkpt>
      <trkpt lat="45.97071" lon="3.77883">
        <ele>796</ele>
        <time>2015-08-05T07:51:47Z</time>
      </trkpt>
      <trkpt lat="45.97079" lon="3.77876">
        <ele>795</ele>
        <time>2015-08-05T07:51:54Z</time>
      </trkpt>
      <trkpt lat="45.97083" lon="3.77871">
        <ele>794</ele>
        <time>2015-08-05T07:51:58Z</time>
      </trkpt>
      <trkpt lat="45.97086" lon="3.7787">
        <ele>794</ele>
        <time>2015-08-05T07:52:01Z</time>
      </trkpt>
      <trkpt lat="45.97095" lon="3.77865">
        <ele>794</ele>
        <time>2015-08-05T07:52:09Z</time>
      </trkpt>
      <trkpt lat="45.97101" lon="3.77863">
        <ele>792</ele>
        <time>2015-08-05T07:52:13Z</time>
      </trkpt>
      <trkpt lat="45.97103" lon="3.77862">
        <ele>792</ele>
        <time>2015-08-05T07:52:15Z</time>
      </trkpt>
      <trkpt lat="45.97104" lon="3.7786">
        <ele>791</ele>
        <time>2015-08-05T07:52:17Z</time>
      </trkpt>
      <trkpt lat="45.97111" lon="3.77855">
        <ele>789</ele>
        <time>2015-08-05T07:52:25Z</time>
      </trkpt>
      <trkpt lat="45.97112" lon="3.77853">
        <ele>788</ele>
        <time>2015-08-05T07:52:27Z</time>
      </trkpt>
      <trkpt lat="45.97114" lon="3.77852">
        <ele>787</ele>
        <time>2015-08-05T07:52:29Z</time>
      </trkpt>
      <trkpt lat="45.97123" lon="3.77849">
        <ele>785</ele>
        <time>2015-08-05T07:52:37Z</time>
      </trkpt>
      <trkpt lat="45.97131" lon="3.77846">
        <ele>785</ele>
        <time>2015-08-05T07:52:43Z</time>
      </trkpt>
      <trkpt lat="45.97135" lon="3.77847">
        <ele>784</ele>
        <time>2015-08-05T07:52:46Z</time>
      </trkpt>
      <trkpt lat="45.97138" lon="3.77845">
        <ele>784</ele>
        <time>2015-08-05T07:52:49Z</time>
      </trkpt>
      <trkpt lat="45.97151" lon="3.77842">
        <ele>782</ele>
        <time>2015-08-05T07:52:59Z</time>
      </trkpt>
      <trkpt lat="45.97154" lon="3.7784">
        <ele>782</ele>
        <time>2015-08-05T07:53:02Z</time>
      </trkpt>
      <trkpt lat="45.9716" lon="3.77837">
        <ele>781</ele>
        <time>2015-08-05T07:53:07Z</time>
      </trkpt>
      <trkpt lat="45.97164" lon="3.77834">
        <ele>780</ele>
        <time>2015-08-05T07:53:10Z</time>
      </trkpt>
      <trkpt lat="45.97168" lon="3.77832">
        <ele>779</ele>
        <time>2015-08-05T07:53:14Z</time>
      </trkpt>
      <trkpt lat="45.97169" lon="3.7783">
        <ele>779</ele>
        <time>2015-08-05T07:53:16Z</time>
      </trkpt>
      <trkpt lat="45.97174" lon="3.77828">
        <ele>779</ele>
        <time>2015-08-05T07:53:20Z</time>
      </trkpt>
      <trkpt lat="45.97176" lon="3.77827">
        <ele>778</ele>
        <time>2015-08-05T07:53:23Z</time>
      </trkpt>
      <trkpt lat="45.97179" lon="3.77826">
        <ele>777</ele>
        <time>2015-08-05T07:53:25Z</time>
      </trkpt>
      <trkpt lat="45.97182" lon="3.77823">
        <ele>777</ele>
        <time>2015-08-05T07:53:27Z</time>
      </trkpt>
      <trkpt lat="45.97187" lon="3.77822">
        <ele>776</ele>
        <time>2015-08-05T07:53:32Z</time>
      </trkpt>
      <trkpt lat="45.9719" lon="3.7782">
        <ele>774</ele>
        <time>2015-08-05T07:53:36Z</time>
      </trkpt>
      <trkpt lat="45.97191" lon="3.77818">
        <ele>773</ele>
        <time>2015-08-05T07:53:38Z</time>
      </trkpt>
      <trkpt lat="45.97195" lon="3.77815">
        <ele>771</ele>
        <time>2015-08-05T07:53:44Z</time>
      </trkpt>
      <trkpt lat="45.97197" lon="3.77814">
        <ele>771</ele>
        <time>2015-08-05T07:53:46Z</time>
      </trkpt>
      <trkpt lat="45.97199" lon="3.77809">
        <ele>770</ele>
        <time>2015-08-05T07:53:52Z</time>
      </trkpt>
      <trkpt lat="45.97199" lon="3.77803">
        <ele>770</ele>
        <time>2015-08-05T07:53:56Z</time>
      </trkpt>
      <trkpt lat="45.97199" lon="3.77799">
        <ele>770</ele>
        <time>2015-08-05T07:53:58Z</time>
      </trkpt>
      <trkpt lat="45.97197" lon="3.77787">
        <ele>767</ele>
        <time>2015-08-05T07:54:05Z</time>
      </trkpt>
      <trkpt lat="45.97195" lon="3.77784">
        <ele>767</ele>
        <time>2015-08-05T07:54:07Z</time>
      </trkpt>
      <trkpt lat="45.97195" lon="3.7778">
        <ele>766</ele>
        <time>2015-08-05T07:54:09Z</time>
      </trkpt>
      <trkpt lat="45.97194" lon="3.77777">
        <ele>766</ele>
        <time>2015-08-05T07:54:11Z</time>
      </trkpt>
      <trkpt lat="45.97193" lon="3.77773">
        <ele>766</ele>
        <time>2015-08-05T07:54:13Z</time>
      </trkpt>
      <trkpt lat="45.97193" lon="3.77769">
        <ele>764</ele>
        <time>2015-08-05T07:54:18Z</time>
      </trkpt>
      <trkpt lat="45.97192" lon="3.77762">
        <ele>764</ele>
        <time>2015-08-05T07:54:22Z</time>
      </trkpt>
      <trkpt lat="45.97189" lon="3.77754">
        <ele>763</ele>
        <time>2015-08-05T07:54:26Z</time>
      </trkpt>
      <trkpt lat="45.97189" lon="3.7775">
        <ele>763</ele>
        <time>2015-08-05T07:54:28Z</time>
      </trkpt>
      <trkpt lat="45.97184" lon="3.7773">
        <ele>761</ele>
        <time>2015-08-05T07:54:40Z</time>
      </trkpt>
      <trkpt lat="45.97184" lon="3.77727">
        <ele>761</ele>
        <time>2015-08-05T07:54:42Z</time>
      </trkpt>
      <trkpt lat="45.9718" lon="3.7771">
        <ele>759</ele>
        <time>2015-08-05T07:54:52Z</time>
      </trkpt>
      <trkpt lat="45.97179" lon="3.77707">
        <ele>759</ele>
        <time>2015-08-05T07:54:54Z</time>
      </trkpt>
      <trkpt lat="45.97178" lon="3.77699">
        <ele>758</ele>
        <time>2015-08-05T07:54:58Z</time>
      </trkpt>
      <trkpt lat="45.97177" lon="3.77695">
        <ele>758</ele>
        <time>2015-08-05T07:55:00Z</time>
      </trkpt>
      <trkpt lat="45.97173" lon="3.77687">
        <ele>758</ele>
        <time>2015-08-05T07:55:06Z</time>
      </trkpt>
      <trkpt lat="45.97171" lon="3.77679">
        <ele>758</ele>
        <time>2015-08-05T07:55:11Z</time>
      </trkpt>
      <trkpt lat="45.9717" lon="3.77676">
        <ele>758</ele>
        <time>2015-08-05T07:55:13Z</time>
      </trkpt>
      <trkpt lat="45.97169" lon="3.77673">
        <ele>758</ele>
        <time>2015-08-05T07:55:15Z</time>
      </trkpt>
      <trkpt lat="45.97168" lon="3.77669">
        <ele>758</ele>
        <time>2015-08-05T07:55:17Z</time>
      </trkpt>
      <trkpt lat="45.97168" lon="3.77665">
        <ele>758</ele>
        <time>2015-08-05T07:55:19Z</time>
      </trkpt>
      <trkpt lat="45.97163" lon="3.77657">
        <ele>758</ele>
        <time>2015-08-05T07:55:24Z</time>
      </trkpt>
      <trkpt lat="45.97163" lon="3.77653">
        <ele>758</ele>
        <time>2015-08-05T07:55:26Z</time>
      </trkpt>
      <trkpt lat="45.9716" lon="3.77647">
        <ele>757</ele>
        <time>2015-08-05T07:55:31Z</time>
      </trkpt>
      <trkpt lat="45.9716" lon="3.77643">
        <ele>757</ele>
        <time>2015-08-05T07:55:33Z</time>
      </trkpt>
      <trkpt lat="45.97158" lon="3.77637">
        <ele>757</ele>
        <time>2015-08-05T07:55:37Z</time>
      </trkpt>
      <trkpt lat="45.97155" lon="3.7763">
        <ele>757</ele>
        <time>2015-08-05T07:55:42Z</time>
      </trkpt>
      <trkpt lat="45.97152" lon="3.77626">
        <ele>757</ele>
        <time>2015-08-05T07:55:45Z</time>
      </trkpt>
      <trkpt lat="45.97143" lon="3.77613">
        <ele>757</ele>
        <time>2015-08-05T07:55:55Z</time>
      </trkpt>
      <trkpt lat="45.9714" lon="3.77607">
        <ele>756</ele>
        <time>2015-08-05T07:55:59Z</time>
      </trkpt>
      <trkpt lat="45.97136" lon="3.776">
        <ele>756</ele>
        <time>2015-08-05T07:56:04Z</time>
      </trkpt>
      <trkpt lat="45.97134" lon="3.77596">
        <ele>756</ele>
        <time>2015-08-05T07:56:06Z</time>
      </trkpt>
      <trkpt lat="45.97124" lon="3.77579">
        <ele>756</ele>
        <time>2015-08-05T07:56:18Z</time>
      </trkpt>
      <trkpt lat="45.9712" lon="3.77576">
        <ele>755</ele>
        <time>2015-08-05T07:56:22Z</time>
      </trkpt>
      <trkpt lat="45.97115" lon="3.77569">
        <ele>755</ele>
        <time>2015-08-05T07:56:27Z</time>
      </trkpt>
      <trkpt lat="45.9711" lon="3.77563">
        <ele>755</ele>
        <time>2015-08-05T07:56:32Z</time>
      </trkpt>
      <trkpt lat="45.97107" lon="3.7756">
        <ele>754</ele>
        <time>2015-08-05T07:56:34Z</time>
      </trkpt>
      <trkpt lat="45.97104" lon="3.77556">
        <ele>754</ele>
        <time>2015-08-05T07:56:38Z</time>
      </trkpt>
      <trkpt lat="45.97099" lon="3.77552">
        <ele>753</ele>
        <time>2015-08-05T07:56:42Z</time>
      </trkpt>
      <trkpt lat="45.97094" lon="3.77547">
        <ele>752</ele>
        <time>2015-08-05T07:56:47Z</time>
      </trkpt>
      <trkpt lat="45.97088" lon="3.77539">
        <ele>751</ele>
        <time>2015-08-05T07:56:53Z</time>
      </trkpt>
      <trkpt lat="45.97078" lon="3.77526">
        <ele>751</ele>
        <time>2015-08-05T07:57:03Z</time>
      </trkpt>
      <trkpt lat="45.97066" lon="3.77512">
        <ele>750</ele>
        <time>2015-08-05T07:57:15Z</time>
      </trkpt>
      <trkpt lat="45.97056" lon="3.775">
        <ele>748</ele>
        <time>2015-08-05T07:57:25Z</time>
      </trkpt>
      <trkpt lat="45.97055" lon="3.77498">
        <ele>748</ele>
        <time>2015-08-05T07:57:27Z</time>
      </trkpt>
      <trkpt lat="45.9705" lon="3.77493">
        <ele>747</ele>
        <time>2015-08-05T07:57:31Z</time>
      </trkpt>
      <trkpt lat="45.9704" lon="3.77485">
        <ele>743</ele>
        <time>2015-08-05T07:57:41Z</time>
      </trkpt>
      <trkpt lat="45.97039" lon="3.77479">
        <ele>741</ele>
        <time>2015-08-05T07:57:46Z</time>
      </trkpt>
      <trkpt lat="45.97039" lon="3.7747">
        <ele>741</ele>
        <time>2015-08-05T07:57:55Z</time>
      </trkpt>
      <trkpt lat="45.97039" lon="3.77468">
        <ele>741</ele>
        <time>2015-08-05T07:57:57Z</time>
      </trkpt>
      <trkpt lat="45.9704" lon="3.77465">
        <ele>741</ele>
        <time>2015-08-05T07:57:59Z</time>
      </trkpt>
      <trkpt lat="45.97042" lon="3.77448">
        <ele>741</ele>
        <time>2015-08-05T07:58:09Z</time>
      </trkpt>
      <trkpt lat="45.97042" lon="3.7743">
        <ele>741</ele>
        <time>2015-08-05T07:58:19Z</time>
      </trkpt>
      <trkpt lat="45.97044" lon="3.7742">
        <ele>740</ele>
        <time>2015-08-05T07:58:25Z</time>
      </trkpt>
      <trkpt lat="45.97046" lon="3.77413">
        <ele>740</ele>
        <time>2015-08-05T07:58:29Z</time>
      </trkpt>
      <trkpt lat="45.97053" lon="3.77397">
        <ele>739</ele>
        <time>2015-08-05T07:58:40Z</time>
      </trkpt>
      <trkpt lat="45.97055" lon="3.77393">
        <ele>738</ele>
        <time>2015-08-05T07:58:43Z</time>
      </trkpt>
      <trkpt lat="45.97057" lon="3.7739">
        <ele>737</ele>
        <time>2015-08-05T07:58:45Z</time>
      </trkpt>
      <trkpt lat="45.97059" lon="3.77387">
        <ele>737</ele>
        <time>2015-08-05T07:58:47Z</time>
      </trkpt>
      <trkpt lat="45.9706" lon="3.77384">
        <ele>736</ele>
        <time>2015-08-05T07:58:49Z</time>
      </trkpt>
      <trkpt lat="45.97064" lon="3.77369">
        <ele>733</ele>
        <time>2015-08-05T07:59:00Z</time>
      </trkpt>
      <trkpt lat="45.97067" lon="3.77362">
        <ele>732</ele>
        <time>2015-08-05T07:59:05Z</time>
      </trkpt>
      <trkpt lat="45.97067" lon="3.77356">
        <ele>732</ele>
        <time>2015-08-05T07:59:09Z</time>
      </trkpt>
      <trkpt lat="45.97067" lon="3.77349">
        <ele>732</ele>
        <time>2015-08-05T07:59:13Z</time>
      </trkpt>
      <trkpt lat="45.97066" lon="3.77346">
        <ele>732</ele>
        <time>2015-08-05T07:59:15Z</time>
      </trkpt>
      <trkpt lat="45.97066" lon="3.77343">
        <ele>731</ele>
        <time>2015-08-05T07:59:17Z</time>
      </trkpt>
      <trkpt lat="45.97065" lon="3.7733">
        <ele>727</ele>
        <time>2015-08-05T07:59:25Z</time>
      </trkpt>
      <trkpt lat="45.97063" lon="3.77324">
        <ele>726</ele>
        <time>2015-08-05T07:59:29Z</time>
      </trkpt>
      <trkpt lat="45.97062" lon="3.77313">
        <ele>724</ele>
        <time>2015-08-05T07:59:36Z</time>
      </trkpt>
      <trkpt lat="45.9706" lon="3.77307">
        <ele>722</ele>
        <time>2015-08-05T07:59:41Z</time>
      </trkpt>
      <trkpt lat="45.97059" lon="3.77304">
        <ele>722</ele>
        <time>2015-08-05T07:59:43Z</time>
      </trkpt>
      <trkpt lat="45.97046" lon="3.7728">
        <ele>715</ele>
        <time>2015-08-05T08:00:07Z</time>
      </trkpt>
      <trkpt lat="45.97043" lon="3.77276">
        <ele>714</ele>
        <time>2015-08-05T08:00:11Z</time>
      </trkpt>
      <trkpt lat="45.9704" lon="3.77269">
        <ele>712</ele>
        <time>2015-08-05T08:00:19Z</time>
      </trkpt>
      <trkpt lat="45.97038" lon="3.77267">
        <ele>711</ele>
        <time>2015-08-05T08:00:21Z</time>
      </trkpt>
      <trkpt lat="45.97035" lon="3.7726">
        <ele>709</ele>
        <time>2015-08-05T08:00:27Z</time>
      </trkpt>
      <trkpt lat="45.97031" lon="3.77254">
        <ele>706</ele>
        <time>2015-08-05T08:00:34Z</time>
      </trkpt>
      <trkpt lat="45.97028" lon="3.77253">
        <ele>706</ele>
        <time>2015-08-05T08:00:36Z</time>
      </trkpt>
      <trkpt lat="45.97026" lon="3.7725">
        <ele>706</ele>
        <time>2015-08-05T08:00:39Z</time>
      </trkpt>
      <trkpt lat="45.97023" lon="3.7725">
        <ele>706</ele>
        <time>2015-08-05T08:00:41Z</time>
      </trkpt>
      <trkpt lat="45.9702" lon="3.7725">
        <ele>706</ele>
        <time>2015-08-05T08:00:44Z</time>
      </trkpt>
      <trkpt lat="45.97017" lon="3.7725">
        <ele>706</ele>
        <time>2015-08-05T08:00:48Z</time>
      </trkpt>
      <trkpt lat="45.97012" lon="3.77252">
        <ele>706</ele>
        <time>2015-08-05T08:00:52Z</time>
      </trkpt>
      <trkpt lat="45.9701" lon="3.77253">
        <ele>705</ele>
        <time>2015-08-05T08:00:54Z</time>
      </trkpt>
      <trkpt lat="45.97006" lon="3.77255">
        <ele>704</ele>
        <time>2015-08-05T08:00:58Z</time>
      </trkpt>
      <trkpt lat="45.96995" lon="3.77263">
        <ele>700</ele>
        <time>2015-08-05T08:01:08Z</time>
      </trkpt>
      <trkpt lat="45.96988" lon="3.77268">
        <ele>700</ele>
        <time>2015-08-05T08:01:14Z</time>
      </trkpt>
      <trkpt lat="45.96982" lon="3.77273">
        <ele>700</ele>
        <time>2015-08-05T08:01:19Z</time>
      </trkpt>
      <trkpt lat="45.96975" lon="3.7728">
        <ele>700</ele>
        <time>2015-08-05T08:01:27Z</time>
      </trkpt>
      <trkpt lat="45.96973" lon="3.77282">
        <ele>700</ele>
        <time>2015-08-05T08:01:29Z</time>
      </trkpt>
      <trkpt lat="45.96964" lon="3.77288">
        <ele>700</ele>
        <time>2015-08-05T08:01:37Z</time>
      </trkpt>
      <trkpt lat="45.96955" lon="3.77296">
        <ele>700</ele>
        <time>2015-08-05T08:01:46Z</time>
      </trkpt>
      <trkpt lat="45.96953" lon="3.77297">
        <ele>700</ele>
        <time>2015-08-05T08:01:48Z</time>
      </trkpt>
      <trkpt lat="45.96947" lon="3.77305">
        <ele>700</ele>
        <time>2015-08-05T08:01:55Z</time>
      </trkpt>
      <trkpt lat="45.96943" lon="3.77307">
        <ele>700</ele>
        <time>2015-08-05T08:01:58Z</time>
      </trkpt>
      <trkpt lat="45.96938" lon="3.77312">
        <ele>700</ele>
        <time>2015-08-05T08:02:04Z</time>
      </trkpt>
      <trkpt lat="45.96928" lon="3.77318">
        <ele>700</ele>
        <time>2015-08-05T08:02:12Z</time>
      </trkpt>
      <trkpt lat="45.9692" lon="3.77326">
        <ele>701</ele>
        <time>2015-08-05T08:02:20Z</time>
      </trkpt>
      <trkpt lat="45.96917" lon="3.77329">
        <ele>701</ele>
        <time>2015-08-05T08:02:24Z</time>
      </trkpt>
      <trkpt lat="45.96914" lon="3.77331">
        <ele>701</ele>
        <time>2015-08-05T08:02:27Z</time>
      </trkpt>
      <trkpt lat="45.96909" lon="3.77333">
        <ele>701</ele>
        <time>2015-08-05T08:02:32Z</time>
      </trkpt>
      <trkpt lat="45.96906" lon="3.77334">
        <ele>701</ele>
        <time>2015-08-05T08:02:34Z</time>
      </trkpt>
      <trkpt lat="45.96896" lon="3.77334">
        <ele>700</ele>
        <time>2015-08-05T08:02:40Z</time>
      </trkpt>
      <trkpt lat="45.9689" lon="3.77331">
        <ele>700</ele>
        <time>2015-08-05T08:02:45Z</time>
      </trkpt>
      <trkpt lat="45.96888" lon="3.77329">
        <ele>700</ele>
        <time>2015-08-05T08:02:47Z</time>
      </trkpt>
      <trkpt lat="45.96884" lon="3.77325">
        <ele>700</ele>
        <time>2015-08-05T08:02:51Z</time>
      </trkpt>
      <trkpt lat="45.96882" lon="3.77323">
        <ele>700</ele>
        <time>2015-08-05T08:02:53Z</time>
      </trkpt>
      <trkpt lat="45.96881" lon="3.77321">
        <ele>700</ele>
        <time>2015-08-05T08:02:55Z</time>
      </trkpt>
      <trkpt lat="45.96879" lon="3.77314">
        <ele>700</ele>
        <time>2015-08-05T08:03:00Z</time>
      </trkpt>
      <trkpt lat="45.96877" lon="3.77304">
        <ele>700</ele>
        <time>2015-08-05T08:03:06Z</time>
      </trkpt>
      <trkpt lat="45.96878" lon="3.77301">
        <ele>700</ele>
        <time>2015-08-05T08:03:08Z</time>
      </trkpt>
      <trkpt lat="45.96876" lon="3.77292">
        <ele>703</ele>
        <time>2015-08-05T08:03:12Z</time>
      </trkpt>
      <trkpt lat="45.96877" lon="3.77285">
        <ele>704</ele>
        <time>2015-08-05T08:03:17Z</time>
      </trkpt>
      <trkpt lat="45.96878" lon="3.77282">
        <ele>704</ele>
        <time>2015-08-05T08:03:19Z</time>
      </trkpt>
      <trkpt lat="45.96879" lon="3.7728">
        <ele>704</ele>
        <time>2015-08-05T08:03:22Z</time>
      </trkpt>
      <trkpt lat="45.9688" lon="3.77278">
        <ele>705</ele>
        <time>2015-08-05T08:03:24Z</time>
      </trkpt>
      <trkpt lat="45.96883" lon="3.77276">
        <ele>705</ele>
        <time>2015-08-05T08:03:26Z</time>
      </trkpt>
      <trkpt lat="45.96889" lon="3.77268">
        <ele>705</ele>
        <time>2015-08-05T08:03:34Z</time>
      </trkpt>
      <trkpt lat="45.96894" lon="3.77264">
        <ele>705</ele>
        <time>2015-08-05T08:03:38Z</time>
      </trkpt>
      <trkpt lat="45.96896" lon="3.77261">
        <ele>705</ele>
        <time>2015-08-05T08:03:40Z</time>
      </trkpt>
      <trkpt lat="45.96899" lon="3.77255">
        <ele>705</ele>
        <time>2015-08-05T08:03:44Z</time>
      </trkpt>
      <trkpt lat="45.96899" lon="3.77253">
        <ele>705</ele>
        <time>2015-08-05T08:03:46Z</time>
      </trkpt>
      <trkpt lat="45.96901" lon="3.77244">
        <ele>705</ele>
        <time>2015-08-05T08:03:52Z</time>
      </trkpt>
      <trkpt lat="45.969" lon="3.77236">
        <ele>706</ele>
        <time>2015-08-05T08:03:58Z</time>
      </trkpt>
      <trkpt lat="45.96898" lon="3.7723">
        <ele>706</ele>
        <time>2015-08-05T08:04:02Z</time>
      </trkpt>
      <trkpt lat="45.96898" lon="3.77227">
        <ele>706</ele>
        <time>2015-08-05T08:04:04Z</time>
      </trkpt>
      <trkpt lat="45.96891" lon="3.77209">
        <ele>707</ele>
        <time>2015-08-05T08:04:17Z</time>
      </trkpt>
      <trkpt lat="45.96888" lon="3.77201">
        <ele>707</ele>
        <time>2015-08-05T08:04:22Z</time>
      </trkpt>
      <trkpt lat="45.96887" lon="3.77198">
        <ele>707</ele>
        <time>2015-08-05T08:04:24Z</time>
      </trkpt>
      <trkpt lat="45.96886" lon="3.77195">
        <ele>707</ele>
        <time>2015-08-05T08:04:26Z</time>
      </trkpt>
      <trkpt lat="45.96884" lon="3.77187">
        <ele>707</ele>
        <time>2015-08-05T08:04:31Z</time>
      </trkpt>
      <trkpt lat="45.96881" lon="3.7718">
        <ele>707</ele>
        <time>2015-08-05T08:04:36Z</time>
      </trkpt>
      <trkpt lat="45.96874" lon="3.77163">
        <ele>707</ele>
        <time>2015-08-05T08:04:48Z</time>
      </trkpt>
      <trkpt lat="45.96873" lon="3.77159">
        <ele>707</ele>
        <time>2015-08-05T08:04:50Z</time>
      </trkpt>
      <trkpt lat="45.96872" lon="3.77156">
        <ele>708</ele>
        <time>2015-08-05T08:04:52Z</time>
      </trkpt>
      <trkpt lat="45.96871" lon="3.77152">
        <ele>709</ele>
        <time>2015-08-05T08:04:54Z</time>
      </trkpt>
      <trkpt lat="45.96871" lon="3.77149">
        <ele>709</ele>
        <time>2015-08-05T08:04:56Z</time>
      </trkpt>
      <trkpt lat="45.9687" lon="3.77146">
        <ele>709</ele>
        <time>2015-08-05T08:04:58Z</time>
      </trkpt>
      <trkpt lat="45.96868" lon="3.7714">
        <ele>710</ele>
        <time>2015-08-05T08:05:02Z</time>
      </trkpt>
      <trkpt lat="45.96868" lon="3.77137">
        <ele>710</ele>
        <time>2015-08-05T08:05:04Z</time>
      </trkpt>
      <trkpt lat="45.96866" lon="3.77133">
        <ele>711</ele>
        <time>2015-08-05T08:05:08Z</time>
      </trkpt>
      <trkpt lat="45.96866" lon="3.7713">
        <ele>711</ele>
        <time>2015-08-05T08:05:10Z</time>
      </trkpt>
      <trkpt lat="45.96864" lon="3.77126">
        <ele>712</ele>
        <time>2015-08-05T08:05:13Z</time>
      </trkpt>
      <trkpt lat="45.96863" lon="3.77117">
        <ele>712</ele>
        <time>2015-08-05T08:05:19Z</time>
      </trkpt>
      <trkpt lat="45.96859" lon="3.77106">
        <ele>712</ele>
        <time>2015-08-05T08:05:27Z</time>
      </trkpt>
      <trkpt lat="45.96855" lon="3.77087">
        <ele>713</ele>
        <time>2015-08-05T08:05:39Z</time>
      </trkpt>
      <trkpt lat="45.96852" lon="3.77082">
        <ele>714</ele>
        <time>2015-08-05T08:05:44Z</time>
      </trkpt>
      <trkpt lat="45.96851" lon="3.77076">
        <ele>714</ele>
        <time>2015-08-05T08:05:48Z</time>
      </trkpt>
      <trkpt lat="45.96849" lon="3.77068">
        <ele>714</ele>
        <time>2015-08-05T08:05:54Z</time>
      </trkpt>
      <trkpt lat="45.96847" lon="3.77065">
        <ele>714</ele>
        <time>2015-08-05T08:05:56Z</time>
      </trkpt>
      <trkpt lat="45.96846" lon="3.77061">
        <ele>714</ele>
        <time>2015-08-05T08:05:59Z</time>
      </trkpt>
      <trkpt lat="45.96841" lon="3.77048">
        <ele>715</ele>
        <time>2015-08-05T08:06:08Z</time>
      </trkpt>
      <trkpt lat="45.96839" lon="3.77045">
        <ele>716</ele>
        <time>2015-08-05T08:06:10Z</time>
      </trkpt>
      <trkpt lat="45.96836" lon="3.77039">
        <ele>716</ele>
        <time>2015-08-05T08:06:14Z</time>
      </trkpt>
      <trkpt lat="45.96833" lon="3.77033">
        <ele>717</ele>
        <time>2015-08-05T08:06:18Z</time>
      </trkpt>
      <trkpt lat="45.9683" lon="3.77025">
        <ele>718</ele>
        <time>2015-08-05T08:06:24Z</time>
      </trkpt>
      <trkpt lat="45.96828" lon="3.77022">
        <ele>718</ele>
        <time>2015-08-05T08:06:26Z</time>
      </trkpt>
      <trkpt lat="45.96827" lon="3.77019">
        <ele>718</ele>
        <time>2015-08-05T08:06:28Z</time>
      </trkpt>
      <trkpt lat="45.96823" lon="3.7701">
        <ele>718</ele>
        <time>2015-08-05T08:06:34Z</time>
      </trkpt>
      <trkpt lat="45.96822" lon="3.77006">
        <ele>718</ele>
        <time>2015-08-05T08:06:36Z</time>
      </trkpt>
      <trkpt lat="45.96821" lon="3.77003">
        <ele>718</ele>
        <time>2015-08-05T08:06:38Z</time>
      </trkpt>
      <trkpt lat="45.96817" lon="3.76993">
        <ele>719</ele>
        <time>2015-08-05T08:06:45Z</time>
      </trkpt>
      <trkpt lat="45.96816" lon="3.7699">
        <ele>719</ele>
        <time>2015-08-05T08:06:47Z</time>
      </trkpt>
      <trkpt lat="45.96814" lon="3.76987">
        <ele>719</ele>
        <time>2015-08-05T08:06:49Z</time>
      </trkpt>
      <trkpt lat="45.9681" lon="3.76974">
        <ele>719</ele>
        <time>2015-08-05T08:06:57Z</time>
      </trkpt>
      <trkpt lat="45.96805" lon="3.76963">
        <ele>719</ele>
        <time>2015-08-05T08:07:05Z</time>
      </trkpt>
      <trkpt lat="45.96803" lon="3.7696">
        <ele>719</ele>
        <time>2015-08-05T08:07:07Z</time>
      </trkpt>
      <trkpt lat="45.96797" lon="3.76947">
        <ele>719</ele>
        <time>2015-08-05T08:07:16Z</time>
      </trkpt>
      <trkpt lat="45.96791" lon="3.76936">
        <ele>720</ele>
        <time>2015-08-05T08:07:24Z</time>
      </trkpt>
      <trkpt lat="45.96784" lon="3.76925">
        <ele>720</ele>
        <time>2015-08-05T08:07:32Z</time>
      </trkpt>
      <trkpt lat="45.96783" lon="3.76922">
        <ele>720</ele>
        <time>2015-08-05T08:07:34Z</time>
      </trkpt>
      <trkpt lat="45.96779" lon="3.76916">
        <ele>720</ele>
        <time>2015-08-05T08:07:38Z</time>
      </trkpt>
      <trkpt lat="45.96776" lon="3.76912">
        <ele>720</ele>
        <time>2015-08-05T08:07:41Z</time>
      </trkpt>
      <trkpt lat="45.96772" lon="3.76906">
        <ele>720</ele>
        <time>2015-08-05T08:07:45Z</time>
      </trkpt>
      <trkpt lat="45.96766" lon="3.76898">
        <ele>720</ele>
        <time>2015-08-05T08:07:52Z</time>
      </trkpt>
      <trkpt lat="45.96742" lon="3.76863">
        <ele>721</ele>
        <time>2015-08-05T08:08:19Z</time>
      </trkpt>
      <trkpt lat="45.9674" lon="3.7686">
        <ele>721</ele>
        <time>2015-08-05T08:08:21Z</time>
      </trkpt>
      <trkpt lat="45.96733" lon="3.76851">
        <ele>721</ele>
        <time>2015-08-05T08:08:28Z</time>
      </trkpt>
      <trkpt lat="45.9673" lon="3.76845">
        <ele>721</ele>
        <time>2015-08-05T08:08:32Z</time>
      </trkpt>
      <trkpt lat="45.96727" lon="3.76842">
        <ele>721</ele>
        <time>2015-08-05T08:08:34Z</time>
      </trkpt>
      <trkpt lat="45.96726" lon="3.76839">
        <ele>721</ele>
        <time>2015-08-05T08:08:36Z</time>
      </trkpt>
      <trkpt lat="45.96723" lon="3.76835">
        <ele>721</ele>
        <time>2015-08-05T08:08:39Z</time>
      </trkpt>
      <trkpt lat="45.96716" lon="3.76824">
        <ele>721</ele>
        <time>2015-08-05T08:08:47Z</time>
      </trkpt>
      <trkpt lat="45.96704" lon="3.76808">
        <ele>721</ele>
        <time>2015-08-05T08:08:59Z</time>
      </trkpt>
      <trkpt lat="45.96702" lon="3.76805">
        <ele>721</ele>
        <time>2015-08-05T08:09:01Z</time>
      </trkpt>
      <trkpt lat="45.96701" lon="3.76803">
        <ele>721</ele>
        <time>2015-08-05T08:09:03Z</time>
      </trkpt>
      <trkpt lat="45.96698" lon="3.76801">
        <ele>721</ele>
        <time>2015-08-05T08:09:05Z</time>
      </trkpt>
      <trkpt lat="45.96697" lon="3.76798">
        <ele>721</ele>
        <time>2015-08-05T08:09:07Z</time>
      </trkpt>
      <trkpt lat="45.96691" lon="3.76792">
        <ele>721</ele>
        <time>2015-08-05T08:09:13Z</time>
      </trkpt>
      <trkpt lat="45.96683" lon="3.7678">
        <ele>721</ele>
        <time>2015-08-05T08:09:23Z</time>
      </trkpt>
      <trkpt lat="45.96681" lon="3.76778">
        <ele>721</ele>
        <time>2015-08-05T08:09:25Z</time>
      </trkpt>
      <trkpt lat="45.96678" lon="3.76773">
        <ele>721</ele>
        <time>2015-08-05T08:09:29Z</time>
      </trkpt>
      <trkpt lat="45.96672" lon="3.76764">
        <ele>721</ele>
        <time>2015-08-05T08:09:36Z</time>
      </trkpt>
      <trkpt lat="45.96669" lon="3.7676">
        <ele>721</ele>
        <time>2015-08-05T08:09:40Z</time>
      </trkpt>
      <trkpt lat="45.96667" lon="3.76758">
        <ele>721</ele>
        <time>2015-08-05T08:09:42Z</time>
      </trkpt>
      <trkpt lat="45.96664" lon="3.76753">
        <ele>721</ele>
        <time>2015-08-05T08:09:46Z</time>
      </trkpt>
      <trkpt lat="45.96661" lon="3.76749">
        <ele>721</ele>
        <time>2015-08-05T08:09:50Z</time>
      </trkpt>
      <trkpt lat="45.96658" lon="3.76744">
        <ele>721</ele>
        <time>2015-08-05T08:09:54Z</time>
      </trkpt>
      <trkpt lat="45.96654" lon="3.76739">
        <ele>721</ele>
        <time>2015-08-05T08:09:58Z</time>
      </trkpt>
      <trkpt lat="45.96653" lon="3.76736">
        <ele>721</ele>
        <time>2015-08-05T08:10:00Z</time>
      </trkpt>
      <trkpt lat="45.96651" lon="3.76733">
        <ele>721</ele>
        <time>2015-08-05T08:10:02Z</time>
      </trkpt>
      <trkpt lat="45.9665" lon="3.7673">
        <ele>721</ele>
        <time>2015-08-05T08:10:04Z</time>
      </trkpt>
      <trkpt lat="45.96648" lon="3.76728">
        <ele>721</ele>
        <time>2015-08-05T08:10:06Z</time>
      </trkpt>
      <trkpt lat="45.96645" lon="3.76722">
        <ele>721</ele>
        <time>2015-08-05T08:10:10Z</time>
      </trkpt>
      <trkpt lat="45.96643" lon="3.7672">
        <ele>721</ele>
        <time>2015-08-05T08:10:12Z</time>
      </trkpt>
      <trkpt lat="45.9664" lon="3.76716">
        <ele>721</ele>
        <time>2015-08-05T08:10:16Z</time>
      </trkpt>
      <trkpt lat="45.96638" lon="3.76714">
        <ele>721</ele>
        <time>2015-08-05T08:10:18Z</time>
      </trkpt>
      <trkpt lat="45.96633" lon="3.76708">
        <ele>721</ele>
        <time>2015-08-05T08:10:24Z</time>
      </trkpt>
      <trkpt lat="45.96628" lon="3.76705">
        <ele>721</ele>
        <time>2015-08-05T08:10:28Z</time>
      </trkpt>
      <trkpt lat="45.96626" lon="3.76704">
        <ele>721</ele>
        <time>2015-08-05T08:10:30Z</time>
      </trkpt>
      <trkpt lat="45.9662" lon="3.76701">
        <ele>721</ele>
        <time>2015-08-05T08:10:36Z</time>
      </trkpt>
      <trkpt lat="45.96615" lon="3.76701">
        <ele>722</ele>
        <time>2015-08-05T08:10:43Z</time>
      </trkpt>
      <trkpt lat="45.966" lon="3.76705">
        <ele>722</ele>
        <time>2015-08-05T08:10:56Z</time>
      </trkpt>
      <trkpt lat="45.96592" lon="3.76706">
        <ele>722</ele>
        <time>2015-08-05T08:11:02Z</time>
      </trkpt>
      <trkpt lat="45.96575" lon="3.76706">
        <ele>722</ele>
        <time>2015-08-05T08:11:15Z</time>
      </trkpt>
      <trkpt lat="45.96568" lon="3.76705">
        <ele>722</ele>
        <time>2015-08-05T08:11:21Z</time>
      </trkpt>
      <trkpt lat="45.96555" lon="3.76702">
        <ele>722</ele>
        <time>2015-08-05T08:11:32Z</time>
      </trkpt>
      <trkpt lat="45.96541" lon="3.76701">
        <ele>722</ele>
        <time>2015-08-05T08:11:44Z</time>
      </trkpt>
      <trkpt lat="45.96533" lon="3.76701">
        <ele>722</ele>
        <time>2015-08-05T08:11:50Z</time>
      </trkpt>
      <trkpt lat="45.96525" lon="3.76699">
        <ele>723</ele>
        <time>2015-08-05T08:11:56Z</time>
      </trkpt>
      <trkpt lat="45.96519" lon="3.76697">
        <ele>725</ele>
        <time>2015-08-05T08:12:02Z</time>
      </trkpt>
      <trkpt lat="45.96515" lon="3.76694">
        <ele>726</ele>
        <time>2015-08-05T08:12:06Z</time>
      </trkpt>
      <trkpt lat="45.96514" lon="3.76693">
        <ele>727</ele>
        <time>2015-08-05T08:12:08Z</time>
      </trkpt>
      <trkpt lat="45.96514" lon="3.76692">
        <ele>727</ele>
        <time>2015-08-05T08:12:10Z</time>
      </trkpt>
      <trkpt lat="45.96511" lon="3.76688">
        <ele>728</ele>
        <time>2015-08-05T08:12:14Z</time>
      </trkpt>
      <trkpt lat="45.9651" lon="3.76683">
        <ele>728</ele>
        <time>2015-08-05T08:12:18Z</time>
      </trkpt>
      <trkpt lat="45.96508" lon="3.76681">
        <ele>728</ele>
        <time>2015-08-05T08:12:20Z</time>
      </trkpt>
      <trkpt lat="45.96507" lon="3.76679">
        <ele>728</ele>
        <time>2015-08-05T08:12:22Z</time>
      </trkpt>
      <trkpt lat="45.96506" lon="3.76677">
        <ele>728</ele>
        <time>2015-08-05T08:12:24Z</time>
      </trkpt>
      <trkpt lat="45.96503" lon="3.76671">
        <ele>729</ele>
        <time>2015-08-05T08:12:28Z</time>
      </trkpt>
      <trkpt lat="45.96502" lon="3.76667">
        <ele>730</ele>
        <time>2015-08-05T08:12:31Z</time>
      </trkpt>
      <trkpt lat="45.96499" lon="3.76663">
        <ele>731</ele>
        <time>2015-08-05T08:12:35Z</time>
      </trkpt>
      <trkpt lat="45.96499" lon="3.7666">
        <ele>732</ele>
        <time>2015-08-05T08:12:37Z</time>
      </trkpt>
      <trkpt lat="45.96495" lon="3.76653">
        <ele>732</ele>
        <time>2015-08-05T08:12:43Z</time>
      </trkpt>
      <trkpt lat="45.96492" lon="3.76649">
        <ele>732</ele>
        <time>2015-08-05T08:12:48Z</time>
      </trkpt>
      <trkpt lat="45.96492" lon="3.76648">
        <ele>732</ele>
        <time>2015-08-05T08:12:50Z</time>
      </trkpt>
      <trkpt lat="45.9649" lon="3.7664">
        <ele>732</ele>
        <time>2015-08-05T08:12:56Z</time>
      </trkpt>
      <trkpt lat="45.96489" lon="3.76637">
        <ele>733</ele>
        <time>2015-08-05T08:12:58Z</time>
      </trkpt>
      <trkpt lat="45.96487" lon="3.76634">
        <ele>733</ele>
        <time>2015-08-05T08:13:00Z</time>
      </trkpt>
      <trkpt lat="45.96485" lon="3.76631">
        <ele>733</ele>
        <time>2015-08-05T08:13:02Z</time>
      </trkpt>
      <trkpt lat="45.96484" lon="3.76627">
        <ele>733</ele>
        <time>2015-08-05T08:13:04Z</time>
      </trkpt>
      <trkpt lat="45.96481" lon="3.7662">
        <ele>733</ele>
        <time>2015-08-05T08:13:10Z</time>
      </trkpt>
      <trkpt lat="45.96479" lon="3.76618">
        <ele>733</ele>
        <time>2015-08-05T08:13:12Z</time>
      </trkpt>
      <trkpt lat="45.96477" lon="3.76614">
        <ele>733</ele>
        <time>2015-08-05T08:13:15Z</time>
      </trkpt>
      <trkpt lat="45.96472" lon="3.76602">
        <ele>733</ele>
        <time>2015-08-05T08:13:24Z</time>
      </trkpt>
      <trkpt lat="45.96471" lon="3.76596">
        <ele>734</ele>
        <time>2015-08-05T08:13:27Z</time>
      </trkpt>
      <trkpt lat="45.96469" lon="3.76593">
        <ele>735</ele>
        <time>2015-08-05T08:13:29Z</time>
      </trkpt>
      <trkpt lat="45.96468" lon="3.7659">
        <ele>735</ele>
        <time>2015-08-05T08:13:31Z</time>
      </trkpt>
      <trkpt lat="45.96466" lon="3.76585">
        <ele>735</ele>
        <time>2015-08-05T08:13:35Z</time>
      </trkpt>
      <trkpt lat="45.96465" lon="3.76583">
        <ele>736</ele>
        <time>2015-08-05T08:13:37Z</time>
      </trkpt>
      <trkpt lat="45.96463" lon="3.76577">
        <ele>737</ele>
        <time>2015-08-05T08:13:41Z</time>
      </trkpt>
      <trkpt lat="45.96458" lon="3.76562">
        <ele>739</ele>
        <time>2015-08-05T08:13:49Z</time>
      </trkpt>
      <trkpt lat="45.96453" lon="3.76551">
        <ele>740</ele>
        <time>2015-08-05T08:13:56Z</time>
      </trkpt>
      <trkpt lat="45.9645" lon="3.76544">
        <ele>742</ele>
        <time>2015-08-05T08:14:00Z</time>
      </trkpt>
      <trkpt lat="45.9645" lon="3.7654">
        <ele>743</ele>
        <time>2015-08-05T08:14:02Z</time>
      </trkpt>
      <trkpt lat="45.96444" lon="3.76527">
        <ele>745</ele>
        <time>2015-08-05T08:14:10Z</time>
      </trkpt>
      <trkpt lat="45.96441" lon="3.7652">
        <ele>747</ele>
        <time>2015-08-05T08:14:14Z</time>
      </trkpt>
      <trkpt lat="45.96434" lon="3.76511">
        <ele>749</ele>
        <time>2015-08-05T08:14:21Z</time>
      </trkpt>
      <trkpt lat="45.9643" lon="3.76501">
        <ele>751</ele>
        <time>2015-08-05T08:14:27Z</time>
      </trkpt>
      <trkpt lat="45.96427" lon="3.76494">
        <ele>752</ele>
        <time>2015-08-05T08:14:31Z</time>
      </trkpt>
      <trkpt lat="45.96426" lon="3.7649">
        <ele>752</ele>
        <time>2015-08-05T08:14:33Z</time>
      </trkpt>
      <trkpt lat="45.96423" lon="3.76484">
        <ele>753</ele>
        <time>2015-08-05T08:14:37Z</time>
      </trkpt>
      <trkpt lat="45.96419" lon="3.76477">
        <ele>753</ele>
        <time>2015-08-05T08:14:42Z</time>
      </trkpt>
      <trkpt lat="45.96413" lon="3.7647">
        <ele>754</ele>
        <time>2015-08-05T08:14:48Z</time>
      </trkpt>
      <trkpt lat="45.96412" lon="3.76469">
        <ele>755</ele>
        <time>2015-08-05T08:15:02Z</time>
      </trkpt>
      <trkpt lat="45.96413" lon="3.76467">
        <ele>755</ele>
        <time>2015-08-05T08:15:20Z</time>
      </trkpt>
      <trkpt lat="45.96413" lon="3.76466">
        <ele>755</ele>
        <time>2015-08-05T08:15:36Z</time>
      </trkpt>
      <trkpt lat="45.96413" lon="3.76464">
        <ele>756</ele>
        <time>2015-08-05T08:15:55Z</time>
      </trkpt>
      <trkpt lat="45.96413" lon="3.76466">
        <ele>756</ele>
        <time>2015-08-05T08:16:02Z</time>
      </trkpt>
      <trkpt lat="45.96413" lon="3.76467">
        <ele>757</ele>
        <time>2015-08-05T08:16:22Z</time>
      </trkpt>
      <trkpt lat="45.96413" lon="3.76469">
        <ele>757</ele>
        <time>2015-08-05T08:17:02Z</time>
      </trkpt>
      <trkpt lat="45.96413" lon="3.76467">
        <ele>757</ele>
        <time>2015-08-05T08:17:26Z</time>
      </trkpt>
      <trkpt lat="45.96413" lon="3.76466">
        <ele>757</ele>
        <time>2015-08-05T08:17:54Z</time>
      </trkpt>
      <trkpt lat="45.96412" lon="3.76465">
        <ele>757</ele>
        <time>2015-08-05T08:18:24Z</time>
      </trkpt>
      <trkpt lat="45.96411" lon="3.76463">
        <ele>757</ele>
        <time>2015-08-05T08:18:27Z</time>
      </trkpt>
      <trkpt lat="45.96408" lon="3.76459">
        <ele>757</ele>
        <time>2015-08-05T08:18:31Z</time>
      </trkpt>
      <trkpt lat="45.96406" lon="3.76456">
        <ele>757</ele>
        <time>2015-08-05T08:18:33Z</time>
      </trkpt>
      <trkpt lat="45.96405" lon="3.76453">
        <ele>757</ele>
        <time>2015-08-05T08:18:35Z</time>
      </trkpt>
      <trkpt lat="45.964" lon="3.76445">
        <ele>757</ele>
        <time>2015-08-05T08:18:41Z</time>
      </trkpt>
      <trkpt lat="45.96388" lon="3.76427">
        <ele>758</ele>
        <time>2015-08-05T08:18:54Z</time>
      </trkpt>
      <trkpt lat="45.96384" lon="3.76421">
        <ele>758</ele>
        <time>2015-08-05T08:18:58Z</time>
      </trkpt>
      <trkpt lat="45.96376" lon="3.7641">
        <ele>758</ele>
        <time>2015-08-05T08:19:06Z</time>
      </trkpt>
      <trkpt lat="45.96372" lon="3.76406">
        <ele>758</ele>
        <time>2015-08-05T08:19:09Z</time>
      </trkpt>
      <trkpt lat="45.96365" lon="3.76395">
        <ele>758</ele>
        <time>2015-08-05T08:19:16Z</time>
      </trkpt>
      <trkpt lat="45.9636" lon="3.76388">
        <ele>758</ele>
        <time>2015-08-05T08:19:21Z</time>
      </trkpt>
      <trkpt lat="45.96356" lon="3.76382">
        <ele>758</ele>
        <time>2015-08-05T08:19:25Z</time>
      </trkpt>
      <trkpt lat="45.96351" lon="3.76376">
        <ele>758</ele>
        <time>2015-08-05T08:19:30Z</time>
      </trkpt>
      <trkpt lat="45.96349" lon="3.76374">
        <ele>758</ele>
        <time>2015-08-05T08:19:32Z</time>
      </trkpt>
      <trkpt lat="45.96336" lon="3.76357">
        <ele>758</ele>
        <time>2015-08-05T08:19:44Z</time>
      </trkpt>
      <trkpt lat="45.96325" lon="3.76346">
        <ele>758</ele>
        <time>2015-08-05T08:19:53Z</time>
      </trkpt>
      <trkpt lat="45.96317" lon="3.76334">
        <ele>758</ele>
        <time>2015-08-05T08:20:01Z</time>
      </trkpt>
      <trkpt lat="45.96309" lon="3.76321">
        <ele>758</ele>
        <time>2015-08-05T08:20:09Z</time>
      </trkpt>
      <trkpt lat="45.96304" lon="3.76313">
        <ele>758</ele>
        <time>2015-08-05T08:20:14Z</time>
      </trkpt>
      <trkpt lat="45.96294" lon="3.76288">
        <ele>758</ele>
        <time>2015-08-05T08:20:28Z</time>
      </trkpt>
      <trkpt lat="45.96291" lon="3.7628">
        <ele>758</ele>
        <time>2015-08-05T08:20:32Z</time>
      </trkpt>
      <trkpt lat="45.96281" lon="3.76255">
        <ele>758</ele>
        <time>2015-08-05T08:20:46Z</time>
      </trkpt>
      <trkpt lat="45.96278" lon="3.7625">
        <ele>758</ele>
        <time>2015-08-05T08:20:49Z</time>
      </trkpt>
      <trkpt lat="45.96271" lon="3.76228">
        <ele>758</ele>
        <time>2015-08-05T08:21:00Z</time>
      </trkpt>
      <trkpt lat="45.9627" lon="3.76224">
        <ele>758</ele>
        <time>2015-08-05T08:21:02Z</time>
      </trkpt>
      <trkpt lat="45.96264" lon="3.76208">
        <ele>758</ele>
        <time>2015-08-05T08:21:10Z</time>
      </trkpt>
      <trkpt lat="45.96263" lon="3.76204">
        <ele>758</ele>
        <time>2015-08-05T08:21:12Z</time>
      </trkpt>
      <trkpt lat="45.9626" lon="3.76198">
        <ele>758</ele>
        <time>2015-08-05T08:21:16Z</time>
      </trkpt>
      <trkpt lat="45.96255" lon="3.76192">
        <ele>759</ele>
        <time>2015-08-05T08:21:21Z</time>
      </trkpt>
      <trkpt lat="45.96246" lon="3.76186">
        <ele>759</ele>
        <time>2015-08-05T08:21:28Z</time>
      </trkpt>
      <trkpt lat="45.96244" lon="3.76184">
        <ele>759</ele>
        <time>2015-08-05T08:21:30Z</time>
      </trkpt>
      <trkpt lat="45.96239" lon="3.76179">
        <ele>759</ele>
        <time>2015-08-05T08:21:34Z</time>
      </trkpt>
      <trkpt lat="45.96236" lon="3.76175">
        <ele>760</ele>
        <time>2015-08-05T08:21:37Z</time>
      </trkpt>
      <trkpt lat="45.96233" lon="3.7617">
        <ele>760</ele>
        <time>2015-08-05T08:21:40Z</time>
      </trkpt>
      <trkpt lat="45.96228" lon="3.76157">
        <ele>761</ele>
        <time>2015-08-05T08:21:47Z</time>
      </trkpt>
      <trkpt lat="45.96226" lon="3.76154">
        <ele>761</ele>
        <time>2015-08-05T08:21:49Z</time>
      </trkpt>
      <trkpt lat="45.96222" lon="3.76145">
        <ele>761</ele>
        <time>2015-08-05T08:21:55Z</time>
      </trkpt>
      <trkpt lat="45.96218" lon="3.76136">
        <ele>761</ele>
        <time>2015-08-05T08:22:00Z</time>
      </trkpt>
      <trkpt lat="45.96215" lon="3.76132">
        <ele>761</ele>
        <time>2015-08-05T08:22:03Z</time>
      </trkpt>
      <trkpt lat="45.96213" lon="3.76129">
        <ele>761</ele>
        <time>2015-08-05T08:22:05Z</time>
      </trkpt>
      <trkpt lat="45.96201" lon="3.7611">
        <ele>762</ele>
        <time>2015-08-05T08:22:18Z</time>
      </trkpt>
      <trkpt lat="45.96191" lon="3.76095">
        <ele>762</ele>
        <time>2015-08-05T08:22:28Z</time>
      </trkpt>
      <trkpt lat="45.96189" lon="3.76092">
        <ele>762</ele>
        <time>2015-08-05T08:22:30Z</time>
      </trkpt>
      <trkpt lat="45.96184" lon="3.76084">
        <ele>762</ele>
        <time>2015-08-05T08:22:35Z</time>
      </trkpt>
      <trkpt lat="45.96179" lon="3.76073">
        <ele>762</ele>
        <time>2015-08-05T08:22:42Z</time>
      </trkpt>
      <trkpt lat="45.96177" lon="3.7607">
        <ele>762</ele>
        <time>2015-08-05T08:22:44Z</time>
      </trkpt>
      <trkpt lat="45.96172" lon="3.76059">
        <ele>763</ele>
        <time>2015-08-05T08:22:51Z</time>
      </trkpt>
      <trkpt lat="45.96166" lon="3.76045">
        <ele>763</ele>
        <time>2015-08-05T08:22:59Z</time>
      </trkpt>
      <trkpt lat="45.96164" lon="3.76039">
        <ele>763</ele>
        <time>2015-08-05T08:23:03Z</time>
      </trkpt>
      <trkpt lat="45.96162" lon="3.76035">
        <ele>763</ele>
        <time>2015-08-05T08:23:05Z</time>
      </trkpt>
      <trkpt lat="45.96156" lon="3.76017">
        <ele>764</ele>
        <time>2015-08-05T08:23:15Z</time>
      </trkpt>
      <trkpt lat="45.96155" lon="3.76013">
        <ele>764</ele>
        <time>2015-08-05T08:23:17Z</time>
      </trkpt>
      <trkpt lat="45.96153" lon="3.76006">
        <ele>764</ele>
        <time>2015-08-05T08:23:21Z</time>
      </trkpt>
      <trkpt lat="45.96151" lon="3.75999">
        <ele>764</ele>
        <time>2015-08-05T08:23:25Z</time>
      </trkpt>
      <trkpt lat="45.96148" lon="3.75988">
        <ele>764</ele>
        <time>2015-08-05T08:23:31Z</time>
      </trkpt>
      <trkpt lat="45.96147" lon="3.75984">
        <ele>764</ele>
        <time>2015-08-05T08:23:33Z</time>
      </trkpt>
      <trkpt lat="45.96142" lon="3.7597">
        <ele>764</ele>
        <time>2015-08-05T08:23:41Z</time>
      </trkpt>
      <trkpt lat="45.96135" lon="3.75954">
        <ele>764</ele>
        <time>2015-08-05T08:23:50Z</time>
      </trkpt>
      <trkpt lat="45.96131" lon="3.75948">
        <ele>764</ele>
        <time>2015-08-05T08:23:54Z</time>
      </trkpt>
      <trkpt lat="45.96129" lon="3.75944">
        <ele>764</ele>
        <time>2015-08-05T08:23:57Z</time>
      </trkpt>
      <trkpt lat="45.96124" lon="3.75937">
        <ele>764</ele>
        <time>2015-08-05T08:24:02Z</time>
      </trkpt>
      <trkpt lat="45.96108" lon="3.75917">
        <ele>764</ele>
        <time>2015-08-05T08:24:18Z</time>
      </trkpt>
      <trkpt lat="45.96105" lon="3.75914">
        <ele>764</ele>
        <time>2015-08-05T08:24:20Z</time>
      </trkpt>
      <trkpt lat="45.9609" lon="3.75899">
        <ele>764</ele>
        <time>2015-08-05T08:24:33Z</time>
      </trkpt>
      <trkpt lat="45.96088" lon="3.75897">
        <ele>764</ele>
        <time>2015-08-05T08:24:35Z</time>
      </trkpt>
      <trkpt lat="45.96072" lon="3.75882">
        <ele>764</ele>
        <time>2015-08-05T08:24:48Z</time>
      </trkpt>
      <trkpt lat="45.96066" lon="3.75877">
        <ele>764</ele>
        <time>2015-08-05T08:24:53Z</time>
      </trkpt>
      <trkpt lat="45.96064" lon="3.75875">
        <ele>764</ele>
        <time>2015-08-05T08:24:55Z</time>
      </trkpt>
      <trkpt lat="45.96051" lon="3.75865">
        <ele>764</ele>
        <time>2015-08-05T08:25:05Z</time>
      </trkpt>
      <trkpt lat="45.96028" lon="3.75849">
        <ele>764</ele>
        <time>2015-08-05T08:25:23Z</time>
      </trkpt>
      <trkpt lat="45.96019" lon="3.75844">
        <ele>764</ele>
        <time>2015-08-05T08:25:30Z</time>
      </trkpt>
      <trkpt lat="45.96006" lon="3.75837">
        <ele>764</ele>
        <time>2015-08-05T08:25:40Z</time>
      </trkpt>
      <trkpt lat="45.95999" lon="3.75834">
        <ele>764</ele>
        <time>2015-08-05T08:25:45Z</time>
      </trkpt>
      <trkpt lat="45.95993" lon="3.75831">
        <ele>763</ele>
        <time>2015-08-05T08:25:50Z</time>
      </trkpt>
      <trkpt lat="45.95972" lon="3.75821">
        <ele>761</ele>
        <time>2015-08-05T08:26:05Z</time>
      </trkpt>
      <trkpt lat="45.95961" lon="3.75814">
        <ele>761</ele>
        <time>2015-08-05T08:26:13Z</time>
      </trkpt>
      <trkpt lat="45.95955" lon="3.75807">
        <ele>760</ele>
        <time>2015-08-05T08:26:19Z</time>
      </trkpt>
      <trkpt lat="45.95951" lon="3.75803">
        <ele>760</ele>
        <time>2015-08-05T08:26:22Z</time>
      </trkpt>
      <trkpt lat="45.95948" lon="3.75796">
        <ele>759</ele>
        <time>2015-08-05T08:26:26Z</time>
      </trkpt>
      <trkpt lat="45.95946" lon="3.75793">
        <ele>759</ele>
        <time>2015-08-05T08:26:28Z</time>
      </trkpt>
      <trkpt lat="45.95937" lon="3.75777">
        <ele>758</ele>
        <time>2015-08-05T08:26:38Z</time>
      </trkpt>
      <trkpt lat="45.95933" lon="3.7577">
        <ele>757</ele>
        <time>2015-08-05T08:26:43Z</time>
      </trkpt>
      <trkpt lat="45.95931" lon="3.75767">
        <ele>757</ele>
        <time>2015-08-05T08:26:45Z</time>
      </trkpt>
      <trkpt lat="45.95927" lon="3.75762">
        <ele>757</ele>
        <time>2015-08-05T08:26:49Z</time>
      </trkpt>
      <trkpt lat="45.95921" lon="3.75757">
        <ele>755</ele>
        <time>2015-08-05T08:26:55Z</time>
      </trkpt>
      <trkpt lat="45.95915" lon="3.75751">
        <ele>753</ele>
        <time>2015-08-05T08:27:00Z</time>
      </trkpt>
      <trkpt lat="45.95911" lon="3.75747">
        <ele>752</ele>
        <time>2015-08-05T08:27:03Z</time>
      </trkpt>
      <trkpt lat="45.95909" lon="3.75746">
        <ele>752</ele>
        <time>2015-08-05T08:27:05Z</time>
      </trkpt>
      <trkpt lat="45.95905" lon="3.75741">
        <ele>750</ele>
        <time>2015-08-05T08:27:09Z</time>
      </trkpt>
      <trkpt lat="45.95903" lon="3.75739">
        <ele>750</ele>
        <time>2015-08-05T08:27:11Z</time>
      </trkpt>
      <trkpt lat="45.95898" lon="3.75734">
        <ele>750</ele>
        <time>2015-08-05T08:27:15Z</time>
      </trkpt>
      <trkpt lat="45.95895" lon="3.75731">
        <ele>750</ele>
        <time>2015-08-05T08:27:18Z</time>
      </trkpt>
      <trkpt lat="45.9589" lon="3.75724">
        <ele>750</ele>
        <time>2015-08-05T08:27:23Z</time>
      </trkpt>
      <trkpt lat="45.95887" lon="3.75717">
        <ele>750</ele>
        <time>2015-08-05T08:27:27Z</time>
      </trkpt>
      <trkpt lat="45.95884" lon="3.7571">
        <ele>750</ele>
        <time>2015-08-05T08:27:31Z</time>
      </trkpt>
      <trkpt lat="45.95884" lon="3.75706">
        <ele>750</ele>
        <time>2015-08-05T08:27:33Z</time>
      </trkpt>
      <trkpt lat="45.95884" lon="3.75698">
        <ele>750</ele>
        <time>2015-08-05T08:27:37Z</time>
      </trkpt>
      <trkpt lat="45.95887" lon="3.75691">
        <ele>750</ele>
        <time>2015-08-05T08:27:41Z</time>
      </trkpt>
      <trkpt lat="45.9589" lon="3.75684">
        <ele>750</ele>
        <time>2015-08-05T08:27:45Z</time>
      </trkpt>
      <trkpt lat="45.95895" lon="3.75674">
        <ele>750</ele>
        <time>2015-08-05T08:27:51Z</time>
      </trkpt>
      <trkpt lat="45.959" lon="3.75669">
        <ele>750</ele>
        <time>2015-08-05T08:27:55Z</time>
      </trkpt>
      <trkpt lat="45.95907" lon="3.75659">
        <ele>751</ele>
        <time>2015-08-05T08:28:02Z</time>
      </trkpt>
      <trkpt lat="45.95908" lon="3.75655">
        <ele>752</ele>
        <time>2015-08-05T08:28:04Z</time>
      </trkpt>
      <trkpt lat="45.95912" lon="3.75648">
        <ele>752</ele>
        <time>2015-08-05T08:28:09Z</time>
      </trkpt>
      <trkpt lat="45.95916" lon="3.75641">
        <ele>752</ele>
        <time>2015-08-05T08:28:15Z</time>
      </trkpt>
      <trkpt lat="45.95917" lon="3.75637">
        <ele>753</ele>
        <time>2015-08-05T08:28:17Z</time>
      </trkpt>
      <trkpt lat="45.95917" lon="3.75633">
        <ele>753</ele>
        <time>2015-08-05T08:28:19Z</time>
      </trkpt>
      <trkpt lat="45.95919" lon="3.75623">
        <ele>753</ele>
        <time>2015-08-05T08:28:24Z</time>
      </trkpt>
      <trkpt lat="45.95919" lon="3.7562">
        <ele>753</ele>
        <time>2015-08-05T08:28:26Z</time>
      </trkpt>
      <trkpt lat="45.95919" lon="3.75616">
        <ele>753</ele>
        <time>2015-08-05T08:28:28Z</time>
      </trkpt>
      <trkpt lat="45.95921" lon="3.75607">
        <ele>753</ele>
        <time>2015-08-05T08:28:33Z</time>
      </trkpt>
      <trkpt lat="45.95924" lon="3.7559">
        <ele>754</ele>
        <time>2015-08-05T08:28:42Z</time>
      </trkpt>
      <trkpt lat="45.95924" lon="3.75586">
        <ele>754</ele>
        <time>2015-08-05T08:28:44Z</time>
      </trkpt>
      <trkpt lat="45.95924" lon="3.75578">
        <ele>754</ele>
        <time>2015-08-05T08:28:48Z</time>
      </trkpt>
      <trkpt lat="45.95924" lon="3.75574">
        <ele>754</ele>
        <time>2015-08-05T08:28:50Z</time>
      </trkpt>
      <trkpt lat="45.95925" lon="3.75567">
        <ele>755</ele>
        <time>2015-08-05T08:28:54Z</time>
      </trkpt>
      <trkpt lat="45.95924" lon="3.75564">
        <ele>755</ele>
        <time>2015-08-05T08:28:56Z</time>
      </trkpt>
      <trkpt lat="45.95924" lon="3.7556">
        <ele>755</ele>
        <time>2015-08-05T08:28:58Z</time>
      </trkpt>
      <trkpt lat="45.95924" lon="3.75552">
        <ele>755</ele>
        <time>2015-08-05T08:29:02Z</time>
      </trkpt>
      <trkpt lat="45.95924" lon="3.75548">
        <ele>755</ele>
        <time>2015-08-05T08:29:04Z</time>
      </trkpt>
      <trkpt lat="45.95923" lon="3.75545">
        <ele>755</ele>
        <time>2015-08-05T08:29:06Z</time>
      </trkpt>
      <trkpt lat="45.95922" lon="3.75539">
        <ele>755</ele>
        <time>2015-08-05T08:29:09Z</time>
      </trkpt>
      <trkpt lat="45.95921" lon="3.7553">
        <ele>755</ele>
        <time>2015-08-05T08:29:14Z</time>
      </trkpt>
      <trkpt lat="45.9592" lon="3.75525">
        <ele>755</ele>
        <time>2015-08-05T08:29:17Z</time>
      </trkpt>
      <trkpt lat="45.95919" lon="3.75518">
        <ele>755</ele>
        <time>2015-08-05T08:29:21Z</time>
      </trkpt>
      <trkpt lat="45.95919" lon="3.75515">
        <ele>755</ele>
        <time>2015-08-05T08:29:23Z</time>
      </trkpt>
      <trkpt lat="45.95918" lon="3.75502">
        <ele>755</ele>
        <time>2015-08-05T08:29:30Z</time>
      </trkpt>
      <trkpt lat="45.95918" lon="3.7549">
        <ele>755</ele>
        <time>2015-08-05T08:29:36Z</time>
      </trkpt>
      <trkpt lat="45.95918" lon="3.75481">
        <ele>755</ele>
        <time>2015-08-05T08:29:41Z</time>
      </trkpt>
      <trkpt lat="45.95919" lon="3.75473">
        <ele>755</ele>
        <time>2015-08-05T08:29:45Z</time>
      </trkpt>
      <trkpt lat="45.95919" lon="3.75455">
        <ele>755</ele>
        <time>2015-08-05T08:29:55Z</time>
      </trkpt>
      <trkpt lat="45.95919" lon="3.75451">
        <ele>755</ele>
        <time>2015-08-05T08:29:57Z</time>
      </trkpt>
      <trkpt lat="45.95919" lon="3.75429">
        <ele>753</ele>
        <time>2015-08-05T08:30:09Z</time>
      </trkpt>
      <trkpt lat="45.95919" lon="3.75423">
        <ele>752</ele>
        <time>2015-08-05T08:30:12Z</time>
      </trkpt>
      <trkpt lat="45.95919" lon="3.7541">
        <ele>752</ele>
        <time>2015-08-05T08:30:18Z</time>
      </trkpt>
      <trkpt lat="45.95918" lon="3.75395">
        <ele>752</ele>
        <time>2015-08-05T08:30:25Z</time>
      </trkpt>
      <trkpt lat="45.95917" lon="3.75375">
        <ele>752</ele>
        <time>2015-08-05T08:30:34Z</time>
      </trkpt>
      <trkpt lat="45.95916" lon="3.75365">
        <ele>751</ele>
        <time>2015-08-05T08:30:39Z</time>
      </trkpt>
      <trkpt lat="45.95916" lon="3.7536">
        <ele>750</ele>
        <time>2015-08-05T08:30:42Z</time>
      </trkpt>
      <trkpt lat="45.95915" lon="3.75342">
        <ele>747</ele>
        <time>2015-08-05T08:30:51Z</time>
      </trkpt>
      <trkpt lat="45.95915" lon="3.75324">
        <ele>745</ele>
        <time>2015-08-05T08:31:00Z</time>
      </trkpt>
      <trkpt lat="45.95914" lon="3.75318">
        <ele>744</ele>
        <time>2015-08-05T08:31:04Z</time>
      </trkpt>
      <trkpt lat="45.95914" lon="3.75312">
        <ele>743</ele>
        <time>2015-08-05T08:31:07Z</time>
      </trkpt>
      <trkpt lat="45.95916" lon="3.75304">
        <ele>743</ele>
        <time>2015-08-05T08:31:12Z</time>
      </trkpt>
      <trkpt lat="45.95918" lon="3.753">
        <ele>743</ele>
        <time>2015-08-05T08:31:14Z</time>
      </trkpt>
      <trkpt lat="45.9592" lon="3.7529">
        <ele>743</ele>
        <time>2015-08-05T08:31:19Z</time>
      </trkpt>
      <trkpt lat="45.95922" lon="3.7527">
        <ele>743</ele>
        <time>2015-08-05T08:31:29Z</time>
      </trkpt>
      <trkpt lat="45.95922" lon="3.75263">
        <ele>743</ele>
        <time>2015-08-05T08:31:32Z</time>
      </trkpt>
      <trkpt lat="45.95923" lon="3.75259">
        <ele>743</ele>
        <time>2015-08-05T08:31:34Z</time>
      </trkpt>
      <trkpt lat="45.95922" lon="3.75249">
        <ele>745</ele>
        <time>2015-08-05T08:31:39Z</time>
      </trkpt>
      <trkpt lat="45.95921" lon="3.75243">
        <ele>745</ele>
        <time>2015-08-05T08:31:42Z</time>
      </trkpt>
      <trkpt lat="45.95919" lon="3.7523">
        <ele>746</ele>
        <time>2015-08-05T08:31:49Z</time>
      </trkpt>
      <trkpt lat="45.95916" lon="3.75221">
        <ele>747</ele>
        <time>2015-08-05T08:31:55Z</time>
      </trkpt>
      <trkpt lat="45.95916" lon="3.75216">
        <ele>747</ele>
        <time>2015-08-05T08:31:59Z</time>
      </trkpt>
      <trkpt lat="45.95916" lon="3.75214">
        <ele>748</ele>
        <time>2015-08-05T08:32:01Z</time>
      </trkpt>
      <trkpt lat="45.95919" lon="3.7521">
        <ele>748</ele>
        <time>2015-08-05T08:32:06Z</time>
      </trkpt>
      <trkpt lat="45.95921" lon="3.75208">
        <ele>748</ele>
        <time>2015-08-05T08:32:09Z</time>
      </trkpt>
      <trkpt lat="45.95922" lon="3.75206">
        <ele>748</ele>
        <time>2015-08-05T08:32:11Z</time>
      </trkpt>
      <trkpt lat="45.95924" lon="3.75205">
        <ele>749</ele>
        <time>2015-08-05T08:32:15Z</time>
      </trkpt>
      <trkpt lat="45.95923" lon="3.75203">
        <ele>752</ele>
        <time>2015-08-05T08:32:23Z</time>
      </trkpt>
      <trkpt lat="45.95922" lon="3.75203">
        <ele>753</ele>
        <time>2015-08-05T08:32:26Z</time>
      </trkpt>
      <trkpt lat="45.95919" lon="3.75206">
        <ele>754</ele>
        <time>2015-08-05T08:32:33Z</time>
      </trkpt>
      <trkpt lat="45.95918" lon="3.75208">
        <ele>754</ele>
        <time>2015-08-05T08:32:35Z</time>
      </trkpt>
      <trkpt lat="45.95919" lon="3.75208">
        <ele>754</ele>
        <time>2015-08-05T08:32:56Z</time>
      </trkpt>
      <trkpt lat="45.9592" lon="3.75207">
        <ele>754</ele>
        <time>2015-08-05T08:32:59Z</time>
      </trkpt>
      <trkpt lat="45.95923" lon="3.75207">
        <ele>754</ele>
        <time>2015-08-05T08:33:20Z</time>
      </trkpt>
      <trkpt lat="45.95923" lon="3.75202">
        <ele>757</ele>
        <time>2015-08-05T08:33:55Z</time>
      </trkpt>
      <trkpt lat="45.95923" lon="3.75201">
        <ele>759</ele>
        <time>2015-08-05T08:33:58Z</time>
      </trkpt>
      <trkpt lat="45.95924" lon="3.75201">
        <ele>759</ele>
        <time>2015-08-05T08:34:06Z</time>
      </trkpt>
      <trkpt lat="45.95925" lon="3.75203">
        <ele>759</ele>
        <time>2015-08-05T08:34:10Z</time>
      </trkpt>
      <trkpt lat="45.95926" lon="3.75204">
        <ele>759</ele>
        <time>2015-08-05T08:34:13Z</time>
      </trkpt>
      <trkpt lat="45.95926" lon="3.75201">
        <ele>759</ele>
        <time>2015-08-05T08:34:19Z</time>
      </trkpt>
      <trkpt lat="45.95924" lon="3.75206">
        <ele>760</ele>
        <time>2015-08-05T08:34:27Z</time>
      </trkpt>
      <trkpt lat="45.95922" lon="3.75207">
        <ele>760</ele>
        <time>2015-08-05T08:34:32Z</time>
      </trkpt>
      <trkpt lat="45.95921" lon="3.75207">
        <ele>760</ele>
        <time>2015-08-05T08:34:37Z</time>
      </trkpt>
      <trkpt lat="45.95924" lon="3.75206">
        <ele>758</ele>
        <time>2015-08-05T08:34:43Z</time>
      </trkpt>
      <trkpt lat="45.95923" lon="3.75208">
        <ele>755</ele>
        <time>2015-08-05T08:34:47Z</time>
      </trkpt>
      <trkpt lat="45.95922" lon="3.7521">
        <ele>754</ele>
        <time>2015-08-05T08:34:49Z</time>
      </trkpt>
      <trkpt lat="45.95923" lon="3.75209">
        <ele>753</ele>
        <time>2015-08-05T08:34:59Z</time>
      </trkpt>
      <trkpt lat="45.95925" lon="3.75204">
        <ele>753</ele>
        <time>2015-08-05T08:35:13Z</time>
      </trkpt>
      <trkpt lat="45.95927" lon="3.75197">
        <ele>761</ele>
        <time>2015-08-05T08:35:29Z</time>
      </trkpt>
      <trkpt lat="45.95926" lon="3.75196">
        <ele>763</ele>
        <time>2015-08-05T08:35:37Z</time>
      </trkpt>
      <trkpt lat="45.95925" lon="3.75198">
        <ele>764</ele>
        <time>2015-08-05T08:35:42Z</time>
      </trkpt>
      <trkpt lat="45.95927" lon="3.752">
        <ele>764</ele>
        <time>2015-08-05T08:35:48Z</time>
      </trkpt>
      <trkpt lat="45.95926" lon="3.75202">
        <ele>764</ele>
        <time>2015-08-05T08:35:50Z</time>
      </trkpt>
      <trkpt lat="45.95925" lon="3.752">
        <ele>763</ele>
        <time>2015-08-05T08:36:00Z</time>
      </trkpt>
      <trkpt lat="45.95925" lon="3.75197">
        <ele>763</ele>
        <time>2015-08-05T08:36:07Z</time>
      </trkpt>
      <trkpt lat="45.95925" lon="3.75199">
        <ele>763</ele>
        <time>2015-08-05T08:36:10Z</time>
      </trkpt>
      <trkpt lat="45.95924" lon="3.75203">
        <ele>763</ele>
        <time>2015-08-05T08:36:17Z</time>
      </trkpt>
      <trkpt lat="45.95924" lon="3.75199">
        <ele>763</ele>
        <time>2015-08-05T08:36:27Z</time>
      </trkpt>
      <trkpt lat="45.95924" lon="3.75198">
        <ele>766</ele>
        <time>2015-08-05T08:36:30Z</time>
      </trkpt>
      <trkpt lat="45.95924" lon="3.752">
        <ele>772</ele>
        <time>2015-08-05T08:36:52Z</time>
      </trkpt>
      <trkpt lat="45.95924" lon="3.75198">
        <ele>772</ele>
        <time>2015-08-05T08:36:55Z</time>
      </trkpt>
      <trkpt lat="45.95924" lon="3.75199">
        <ele>772</ele>
        <time>2015-08-05T08:36:59Z</time>
      </trkpt>
      <trkpt lat="45.95924" lon="3.75201">
        <ele>772</ele>
        <time>2015-08-05T08:37:08Z</time>
      </trkpt>
      <trkpt lat="45.95924" lon="3.75202">
        <ele>771</ele>
        <time>2015-08-05T08:37:12Z</time>
      </trkpt>
      <trkpt lat="45.95923" lon="3.75204">
        <ele>768</ele>
        <time>2015-08-05T08:37:28Z</time>
      </trkpt>
      <trkpt lat="45.95924" lon="3.75203">
        <ele>765</ele>
        <time>2015-08-05T08:37:55Z</time>
      </trkpt>
      <trkpt lat="45.95924" lon="3.75201">
        <ele>764</ele>
        <time>2015-08-05T08:38:13Z</time>
      </trkpt>
      <trkpt lat="45.95926" lon="3.75203">
        <ele>763</ele>
        <time>2015-08-05T08:38:29Z</time>
      </trkpt>
      <trkpt lat="45.95927" lon="3.75202">
        <ele>763</ele>
        <time>2015-08-05T08:38:35Z</time>
      </trkpt>
      <trkpt lat="45.95925" lon="3.75206">
        <ele>763</ele>
        <time>2015-08-05T08:38:49Z</time>
      </trkpt>
      <trkpt lat="45.95924" lon="3.75212">
        <ele>762</ele>
        <time>2015-08-05T08:38:58Z</time>
      </trkpt>
      <trkpt lat="45.95923" lon="3.75208">
        <ele>762</ele>
        <time>2015-08-05T08:39:03Z</time>
      </trkpt>
      <trkpt lat="45.95925" lon="3.75205">
        <ele>761</ele>
        <time>2015-08-05T08:39:15Z</time>
      </trkpt>
      <trkpt lat="45.95926" lon="3.75211">
        <ele>761</ele>
        <time>2015-08-05T08:39:17Z</time>
      </trkpt>
      <trkpt lat="45.95925" lon="3.75214">
        <ele>761</ele>
        <time>2015-08-05T08:39:20Z</time>
      </trkpt>
      <trkpt lat="45.95924" lon="3.75211">
        <ele>756</ele>
        <time>2015-08-05T08:39:26Z</time>
      </trkpt>
      <trkpt lat="45.95924" lon="3.75208">
        <ele>756</ele>
        <time>2015-08-05T08:39:31Z</time>
      </trkpt>
      <trkpt lat="45.95926" lon="3.75207">
        <ele>756</ele>
        <time>2015-08-05T08:39:37Z</time>
      </trkpt>
      <trkpt lat="45.95925" lon="3.75205">
        <ele>756</ele>
        <time>2015-08-05T08:39:42Z</time>
      </trkpt>
      <trkpt lat="45.95925" lon="3.75203">
        <ele>756</ele>
        <time>2015-08-05T08:39:45Z</time>
      </trkpt>
      <trkpt lat="45.95924" lon="3.75202">
        <ele>757</ele>
        <time>2015-08-05T08:39:47Z</time>
      </trkpt>
      <trkpt lat="45.95925" lon="3.752">
        <ele>760</ele>
        <time>2015-08-05T08:39:51Z</time>
      </trkpt>
      <trkpt lat="45.95924" lon="3.75198">
        <ele>762</ele>
        <time>2015-08-05T08:40:03Z</time>
      </trkpt>
      <trkpt lat="45.95923" lon="3.75201">
        <ele>763</ele>
        <time>2015-08-05T08:40:17Z</time>
      </trkpt>
      <trkpt lat="45.95923" lon="3.75203">
        <ele>763</ele>
        <time>2015-08-05T08:40:19Z</time>
      </trkpt>
      <trkpt lat="45.95923" lon="3.75201">
        <ele>763</ele>
        <time>2015-08-05T08:40:29Z</time>
      </trkpt>
      <trkpt lat="45.95924" lon="3.752">
        <ele>763</ele>
        <time>2015-08-05T08:40:33Z</time>
      </trkpt>
      <trkpt lat="45.95923" lon="3.75198">
        <ele>763</ele>
        <time>2015-08-05T08:40:38Z</time>
      </trkpt>
      <trkpt lat="45.95923" lon="3.75202">
        <ele>763</ele>
        <time>2015-08-05T08:40:49Z</time>
      </trkpt>
      <trkpt lat="45.95923" lon="3.752">
        <ele>763</ele>
        <time>2015-08-05T08:40:52Z</time>
      </trkpt>
      <trkpt lat="45.95921" lon="3.752">
        <ele>764</ele>
        <time>2015-08-05T08:40:54Z</time>
      </trkpt>
      <trkpt lat="45.95916" lon="3.75202">
        <ele>764</ele>
        <time>2015-08-05T08:40:58Z</time>
      </trkpt>
      <trkpt lat="45.9591" lon="3.75202">
        <ele>764</ele>
        <time>2015-08-05T08:41:02Z</time>
      </trkpt>
      <trkpt lat="45.959" lon="3.75206">
        <ele>764</ele>
        <time>2015-08-05T08:41:08Z</time>
      </trkpt>
      <trkpt lat="45.95897" lon="3.75207">
        <ele>764</ele>
        <time>2015-08-05T08:41:10Z</time>
      </trkpt>
      <trkpt lat="45.95894" lon="3.75205">
        <ele>764</ele>
        <time>2015-08-05T08:41:12Z</time>
      </trkpt>
      <trkpt lat="45.95881" lon="3.75198">
        <ele>761</ele>
        <time>2015-08-05T08:41:23Z</time>
      </trkpt>
      <trkpt lat="45.95878" lon="3.75198">
        <ele>760</ele>
        <time>2015-08-05T08:41:25Z</time>
      </trkpt>
      <trkpt lat="45.95876" lon="3.75196">
        <ele>760</ele>
        <time>2015-08-05T08:41:27Z</time>
      </trkpt>
      <trkpt lat="45.95871" lon="3.75195">
        <ele>760</ele>
        <time>2015-08-05T08:41:31Z</time>
      </trkpt>
      <trkpt lat="45.95865" lon="3.75191">
        <ele>760</ele>
        <time>2015-08-05T08:41:36Z</time>
      </trkpt>
      <trkpt lat="45.9586" lon="3.75191">
        <ele>760</ele>
        <time>2015-08-05T08:41:40Z</time>
      </trkpt>
      <trkpt lat="45.95857" lon="3.75188">
        <ele>760</ele>
        <time>2015-08-05T08:41:43Z</time>
      </trkpt>
      <trkpt lat="45.95853" lon="3.75188">
        <ele>760</ele>
        <time>2015-08-05T08:41:46Z</time>
      </trkpt>
      <trkpt lat="45.95845" lon="3.75188">
        <ele>760</ele>
        <time>2015-08-05T08:41:52Z</time>
      </trkpt>
      <trkpt lat="45.95827" lon="3.75185">
        <ele>759</ele>
        <time>2015-08-05T08:42:07Z</time>
      </trkpt>
      <trkpt lat="45.95824" lon="3.75185">
        <ele>758</ele>
        <time>2015-08-05T08:42:31Z</time>
      </trkpt>
      <trkpt lat="45.95819" lon="3.75184">
        <ele>757</ele>
        <time>2015-08-05T08:42:35Z</time>
      </trkpt>
      <trkpt lat="45.95813" lon="3.75183">
        <ele>757</ele>
        <time>2015-08-05T08:42:39Z</time>
      </trkpt>
      <trkpt lat="45.95811" lon="3.75182">
        <ele>757</ele>
        <time>2015-08-05T08:42:41Z</time>
      </trkpt>
      <trkpt lat="45.95802" lon="3.75179">
        <ele>757</ele>
        <time>2015-08-05T08:42:47Z</time>
      </trkpt>
      <trkpt lat="45.95794" lon="3.75177">
        <ele>757</ele>
        <time>2015-08-05T08:42:53Z</time>
      </trkpt>
      <trkpt lat="45.95774" lon="3.75173">
        <ele>757</ele>
        <time>2015-08-05T08:43:07Z</time>
      </trkpt>
      <trkpt lat="45.95763" lon="3.75172">
        <ele>757</ele>
        <time>2015-08-05T08:43:15Z</time>
      </trkpt>
      <trkpt lat="45.95739" lon="3.75172">
        <ele>757</ele>
        <time>2015-08-05T08:43:31Z</time>
      </trkpt>
      <trkpt lat="45.95734" lon="3.75173">
        <ele>757</ele>
        <time>2015-08-05T08:43:35Z</time>
      </trkpt>
      <trkpt lat="45.95728" lon="3.75174">
        <ele>757</ele>
        <time>2015-08-05T08:43:39Z</time>
      </trkpt>
      <trkpt lat="45.95716" lon="3.75173">
        <ele>757</ele>
        <time>2015-08-05T08:43:47Z</time>
      </trkpt>
      <trkpt lat="45.95711" lon="3.75175">
        <ele>757</ele>
        <time>2015-08-05T08:43:51Z</time>
      </trkpt>
      <trkpt lat="45.95708" lon="3.75175">
        <ele>757</ele>
        <time>2015-08-05T08:43:53Z</time>
      </trkpt>
      <trkpt lat="45.95706" lon="3.75174">
        <ele>757</ele>
        <time>2015-08-05T08:43:55Z</time>
      </trkpt>
      <trkpt lat="45.95702" lon="3.75173">
        <ele>758</ele>
        <time>2015-08-05T08:43:59Z</time>
      </trkpt>
      <trkpt lat="45.95695" lon="3.75175">
        <ele>759</ele>
        <time>2015-08-05T08:44:04Z</time>
      </trkpt>
      <trkpt lat="45.95692" lon="3.75175">
        <ele>759</ele>
        <time>2015-08-05T08:44:06Z</time>
      </trkpt>
      <trkpt lat="45.95689" lon="3.75175">
        <ele>759</ele>
        <time>2015-08-05T08:44:08Z</time>
      </trkpt>
      <trkpt lat="45.95686" lon="3.75173">
        <ele>759</ele>
        <time>2015-08-05T08:44:11Z</time>
      </trkpt>
      <trkpt lat="45.95682" lon="3.75173">
        <ele>759</ele>
        <time>2015-08-05T08:44:14Z</time>
      </trkpt>
      <trkpt lat="45.9568" lon="3.75171">
        <ele>759</ele>
        <time>2015-08-05T08:44:16Z</time>
      </trkpt>
      <trkpt lat="45.95671" lon="3.75166">
        <ele>759</ele>
        <time>2015-08-05T08:44:23Z</time>
      </trkpt>
      <trkpt lat="45.95668" lon="3.7516">
        <ele>759</ele>
        <time>2015-08-05T08:44:27Z</time>
      </trkpt>
      <trkpt lat="45.95664" lon="3.75151">
        <ele>759</ele>
        <time>2015-08-05T08:44:32Z</time>
      </trkpt>
      <trkpt lat="45.95663" lon="3.75148">
        <ele>759</ele>
        <time>2015-08-05T08:44:34Z</time>
      </trkpt>
      <trkpt lat="45.95659" lon="3.75141">
        <ele>759</ele>
        <time>2015-08-05T08:44:39Z</time>
      </trkpt>
      <trkpt lat="45.95658" lon="3.75137">
        <ele>759</ele>
        <time>2015-08-05T08:44:41Z</time>
      </trkpt>
      <trkpt lat="45.95657" lon="3.75133">
        <ele>759</ele>
        <time>2015-08-05T08:44:43Z</time>
      </trkpt>
      <trkpt lat="45.95655" lon="3.7513">
        <ele>759</ele>
        <time>2015-08-05T08:44:45Z</time>
      </trkpt>
      <trkpt lat="45.95651" lon="3.75119">
        <ele>759</ele>
        <time>2015-08-05T08:44:51Z</time>
      </trkpt>
      <trkpt lat="45.95645" lon="3.75109">
        <ele>759</ele>
        <time>2015-08-05T08:44:58Z</time>
      </trkpt>
      <trkpt lat="45.95642" lon="3.75105">
        <ele>759</ele>
        <time>2015-08-05T08:45:01Z</time>
      </trkpt>
      <trkpt lat="45.95637" lon="3.75101">
        <ele>759</ele>
        <time>2015-08-05T08:45:05Z</time>
      </trkpt>
      <trkpt lat="45.95634" lon="3.75099">
        <ele>759</ele>
        <time>2015-08-05T08:45:08Z</time>
      </trkpt>
      <trkpt lat="45.95632" lon="3.75097">
        <ele>759</ele>
        <time>2015-08-05T08:45:10Z</time>
      </trkpt>
      <trkpt lat="45.95624" lon="3.75092">
        <ele>760</ele>
        <time>2015-08-05T08:45:16Z</time>
      </trkpt>
      <trkpt lat="45.95622" lon="3.75089">
        <ele>761</ele>
        <time>2015-08-05T08:45:18Z</time>
      </trkpt>
      <trkpt lat="45.95616" lon="3.75085">
        <ele>763</ele>
        <time>2015-08-05T08:45:23Z</time>
      </trkpt>
      <trkpt lat="45.95614" lon="3.75084">
        <ele>763</ele>
        <time>2015-08-05T08:45:25Z</time>
      </trkpt>
      <trkpt lat="45.95611" lon="3.75083">
        <ele>763</ele>
        <time>2015-08-05T08:45:27Z</time>
      </trkpt>
      <trkpt lat="45.95609" lon="3.75082">
        <ele>763</ele>
        <time>2015-08-05T08:45:29Z</time>
      </trkpt>
      <trkpt lat="45.95604" lon="3.7508">
        <ele>763</ele>
        <time>2015-08-05T08:45:33Z</time>
      </trkpt>
      <trkpt lat="45.95601" lon="3.75079">
        <ele>764</ele>
        <time>2015-08-05T08:45:37Z</time>
      </trkpt>
      <trkpt lat="45.95598" lon="3.75076">
        <ele>765</ele>
        <time>2015-08-05T08:45:41Z</time>
      </trkpt>
      <trkpt lat="45.95595" lon="3.75075">
        <ele>765</ele>
        <time>2015-08-05T08:45:43Z</time>
      </trkpt>
      <trkpt lat="45.95594" lon="3.75076">
        <ele>766</ele>
        <time>2015-08-05T08:45:45Z</time>
      </trkpt>
      <trkpt lat="45.95592" lon="3.75078">
        <ele>766</ele>
        <time>2015-08-05T08:45:53Z</time>
      </trkpt>
      <trkpt lat="45.95591" lon="3.75078">
        <ele>766</ele>
        <time>2015-08-05T08:45:56Z</time>
      </trkpt>
      <trkpt lat="45.95589" lon="3.75076">
        <ele>766</ele>
        <time>2015-08-05T08:45:58Z</time>
      </trkpt>
      <trkpt lat="45.95587" lon="3.75076">
        <ele>767</ele>
        <time>2015-08-05T08:46:00Z</time>
      </trkpt>
      <trkpt lat="45.95584" lon="3.75076">
        <ele>768</ele>
        <time>2015-08-05T08:46:02Z</time>
      </trkpt>
      <trkpt lat="45.95577" lon="3.75074">
        <ele>768</ele>
        <time>2015-08-05T08:46:08Z</time>
      </trkpt>
      <trkpt lat="45.95574" lon="3.75075">
        <ele>769</ele>
        <time>2015-08-05T08:46:10Z</time>
      </trkpt>
      <trkpt lat="45.95572" lon="3.75074">
        <ele>769</ele>
        <time>2015-08-05T08:46:12Z</time>
      </trkpt>
      <trkpt lat="45.95567" lon="3.75072">
        <ele>769</ele>
        <time>2015-08-05T08:46:17Z</time>
      </trkpt>
      <trkpt lat="45.95564" lon="3.7507">
        <ele>769</ele>
        <time>2015-08-05T08:46:19Z</time>
      </trkpt>
      <trkpt lat="45.95562" lon="3.7507">
        <ele>770</ele>
        <time>2015-08-05T08:46:21Z</time>
      </trkpt>
      <trkpt lat="45.95553" lon="3.75067">
        <ele>772</ele>
        <time>2015-08-05T08:46:27Z</time>
      </trkpt>
      <trkpt lat="45.95548" lon="3.75069">
        <ele>773</ele>
        <time>2015-08-05T08:46:31Z</time>
      </trkpt>
      <trkpt lat="45.9554" lon="3.75069">
        <ele>773</ele>
        <time>2015-08-05T08:46:37Z</time>
      </trkpt>
      <trkpt lat="45.95532" lon="3.75073">
        <ele>773</ele>
        <time>2015-08-05T08:46:44Z</time>
      </trkpt>
      <trkpt lat="45.95528" lon="3.75073">
        <ele>773</ele>
        <time>2015-08-05T08:46:47Z</time>
      </trkpt>
      <trkpt lat="45.95526" lon="3.75074">
        <ele>773</ele>
        <time>2015-08-05T08:46:49Z</time>
      </trkpt>
      <trkpt lat="45.95525" lon="3.75076">
        <ele>774</ele>
        <time>2015-08-05T08:46:51Z</time>
      </trkpt>
      <trkpt lat="45.9552" lon="3.7508">
        <ele>774</ele>
        <time>2015-08-05T08:46:56Z</time>
      </trkpt>
      <trkpt lat="45.95515" lon="3.75079">
        <ele>774</ele>
        <time>2015-08-05T08:47:01Z</time>
      </trkpt>
      <trkpt lat="45.95512" lon="3.75081">
        <ele>775</ele>
        <time>2015-08-05T08:47:04Z</time>
      </trkpt>
      <trkpt lat="45.9551" lon="3.75081">
        <ele>776</ele>
        <time>2015-08-05T08:47:06Z</time>
      </trkpt>
      <trkpt lat="45.95507" lon="3.75083">
        <ele>777</ele>
        <time>2015-08-05T08:47:10Z</time>
      </trkpt>
      <trkpt lat="45.95504" lon="3.75085">
        <ele>777</ele>
        <time>2015-08-05T08:47:12Z</time>
      </trkpt>
      <trkpt lat="45.95503" lon="3.75087">
        <ele>777</ele>
        <time>2015-08-05T08:47:14Z</time>
      </trkpt>
      <trkpt lat="45.955" lon="3.75088">
        <ele>778</ele>
        <time>2015-08-05T08:47:17Z</time>
      </trkpt>
      <trkpt lat="45.95498" lon="3.7509">
        <ele>779</ele>
        <time>2015-08-05T08:47:19Z</time>
      </trkpt>
      <trkpt lat="45.95495" lon="3.75091">
        <ele>780</ele>
        <time>2015-08-05T08:47:23Z</time>
      </trkpt>
      <trkpt lat="45.95494" lon="3.75092">
        <ele>780</ele>
        <time>2015-08-05T08:47:25Z</time>
      </trkpt>
      <trkpt lat="45.95492" lon="3.75095">
        <ele>781</ele>
        <time>2015-08-05T08:47:27Z</time>
      </trkpt>
      <trkpt lat="45.95491" lon="3.75096">
        <ele>781</ele>
        <time>2015-08-05T08:47:29Z</time>
      </trkpt>
      <trkpt lat="45.95487" lon="3.75097">
        <ele>782</ele>
        <time>2015-08-05T08:47:34Z</time>
      </trkpt>
      <trkpt lat="45.95485" lon="3.75098">
        <ele>783</ele>
        <time>2015-08-05T08:47:36Z</time>
      </trkpt>
      <trkpt lat="45.9548" lon="3.75098">
        <ele>784</ele>
        <time>2015-08-05T08:47:41Z</time>
      </trkpt>
      <trkpt lat="45.95478" lon="3.75097">
        <ele>784</ele>
        <time>2015-08-05T08:47:43Z</time>
      </trkpt>
      <trkpt lat="45.95469" lon="3.75095">
        <ele>787</ele>
        <time>2015-08-05T08:47:50Z</time>
      </trkpt>
      <trkpt lat="45.95467" lon="3.75094">
        <ele>788</ele>
        <time>2015-08-05T08:47:53Z</time>
      </trkpt>
      <trkpt lat="45.95465" lon="3.75093">
        <ele>788</ele>
        <time>2015-08-05T08:47:55Z</time>
      </trkpt>
      <trkpt lat="45.95461" lon="3.75094">
        <ele>788</ele>
        <time>2015-08-05T08:47:59Z</time>
      </trkpt>
      <trkpt lat="45.95459" lon="3.75093">
        <ele>789</ele>
        <time>2015-08-05T08:48:02Z</time>
      </trkpt>
      <trkpt lat="45.95456" lon="3.7509">
        <ele>790</ele>
        <time>2015-08-05T08:48:17Z</time>
      </trkpt>
      <trkpt lat="45.95456" lon="3.75092">
        <ele>790</ele>
        <time>2015-08-05T08:48:21Z</time>
      </trkpt>
      <trkpt lat="45.95457" lon="3.75093">
        <ele>790</ele>
        <time>2015-08-05T08:48:23Z</time>
      </trkpt>
      <trkpt lat="45.95458" lon="3.75095">
        <ele>793</ele>
        <time>2015-08-05T08:48:28Z</time>
      </trkpt>
      <trkpt lat="45.95458" lon="3.75093">
        <ele>794</ele>
        <time>2015-08-05T08:48:40Z</time>
      </trkpt>
      <trkpt lat="45.95459" lon="3.75093">
        <ele>796</ele>
        <time>2015-08-05T08:48:45Z</time>
      </trkpt>
      <trkpt lat="45.95457" lon="3.75094">
        <ele>799</ele>
        <time>2015-08-05T08:48:51Z</time>
      </trkpt>
      <trkpt lat="45.95454" lon="3.75093">
        <ele>799</ele>
        <time>2015-08-05T08:48:55Z</time>
      </trkpt>
      <trkpt lat="45.95452" lon="3.75092">
        <ele>799</ele>
        <time>2015-08-05T08:48:57Z</time>
      </trkpt>
      <trkpt lat="45.95447" lon="3.75091">
        <ele>799</ele>
        <time>2015-08-05T08:49:01Z</time>
      </trkpt>
      <trkpt lat="45.95445" lon="3.75091">
        <ele>799</ele>
        <time>2015-08-05T08:49:03Z</time>
      </trkpt>
      <trkpt lat="45.95439" lon="3.75088">
        <ele>799</ele>
        <time>2015-08-05T08:49:10Z</time>
      </trkpt>
      <trkpt lat="45.95437" lon="3.75086">
        <ele>799</ele>
        <time>2015-08-05T08:49:12Z</time>
      </trkpt>
      <trkpt lat="45.95434" lon="3.75084">
        <ele>799</ele>
        <time>2015-08-05T08:49:15Z</time>
      </trkpt>
      <trkpt lat="45.95426" lon="3.75082">
        <ele>799</ele>
        <time>2015-08-05T08:49:22Z</time>
      </trkpt>
      <trkpt lat="45.95423" lon="3.7508">
        <ele>799</ele>
        <time>2015-08-05T08:49:25Z</time>
      </trkpt>
      <trkpt lat="45.9542" lon="3.75077">
        <ele>799</ele>
        <time>2015-08-05T08:49:29Z</time>
      </trkpt>
      <trkpt lat="45.95417" lon="3.75078">
        <ele>799</ele>
        <time>2015-08-05T08:49:31Z</time>
      </trkpt>
      <trkpt lat="45.95414" lon="3.7508">
        <ele>799</ele>
        <time>2015-08-05T08:49:34Z</time>
      </trkpt>
      <trkpt lat="45.9541" lon="3.75079">
        <ele>798</ele>
        <time>2015-08-05T08:49:41Z</time>
      </trkpt>
      <trkpt lat="45.95409" lon="3.75078">
        <ele>798</ele>
        <time>2015-08-05T08:49:43Z</time>
      </trkpt>
      <trkpt lat="45.95406" lon="3.75078">
        <ele>797</ele>
        <time>2015-08-05T08:49:47Z</time>
      </trkpt>
      <trkpt lat="45.95402" lon="3.75077">
        <ele>797</ele>
        <time>2015-08-05T08:49:51Z</time>
      </trkpt>
      <trkpt lat="45.95401" lon="3.75076">
        <ele>797</ele>
        <time>2015-08-05T08:49:53Z</time>
      </trkpt>
      <trkpt lat="45.954" lon="3.75075">
        <ele>797</ele>
        <time>2015-08-05T08:49:55Z</time>
      </trkpt>
      <trkpt lat="45.95395" lon="3.75076">
        <ele>797</ele>
        <time>2015-08-05T08:50:00Z</time>
      </trkpt>
      <trkpt lat="45.95389" lon="3.75075">
        <ele>797</ele>
        <time>2015-08-05T08:50:09Z</time>
      </trkpt>
      <trkpt lat="45.95387" lon="3.75076">
        <ele>797</ele>
        <time>2015-08-05T08:50:11Z</time>
      </trkpt>
      <trkpt lat="45.95384" lon="3.75074">
        <ele>797</ele>
        <time>2015-08-05T08:50:15Z</time>
      </trkpt>
      <trkpt lat="45.95382" lon="3.75074">
        <ele>797</ele>
        <time>2015-08-05T08:50:17Z</time>
      </trkpt>
      <trkpt lat="45.95377" lon="3.75075">
        <ele>797</ele>
        <time>2015-08-05T08:50:22Z</time>
      </trkpt>
      <trkpt lat="45.95375" lon="3.75075">
        <ele>797</ele>
        <time>2015-08-05T08:50:24Z</time>
      </trkpt>
      <trkpt lat="45.95371" lon="3.75073">
        <ele>797</ele>
        <time>2015-08-05T08:50:28Z</time>
      </trkpt>
      <trkpt lat="45.95362" lon="3.75073">
        <ele>797</ele>
        <time>2015-08-05T08:50:36Z</time>
      </trkpt>
      <trkpt lat="45.95359" lon="3.75072">
        <ele>797</ele>
        <time>2015-08-05T08:50:38Z</time>
      </trkpt>
      <trkpt lat="45.95358" lon="3.75073">
        <ele>797</ele>
        <time>2015-08-05T08:50:40Z</time>
      </trkpt>
      <trkpt lat="45.95356" lon="3.75072">
        <ele>797</ele>
        <time>2015-08-05T08:50:42Z</time>
      </trkpt>
      <trkpt lat="45.95354" lon="3.75071">
        <ele>798</ele>
        <time>2015-08-05T08:50:56Z</time>
      </trkpt>
      <trkpt lat="45.95349" lon="3.7507">
        <ele>798</ele>
        <time>2015-08-05T08:51:02Z</time>
      </trkpt>
      <trkpt lat="45.95345" lon="3.75068">
        <ele>799</ele>
        <time>2015-08-05T08:51:06Z</time>
      </trkpt>
      <trkpt lat="45.95343" lon="3.75068">
        <ele>799</ele>
        <time>2015-08-05T08:51:08Z</time>
      </trkpt>
      <trkpt lat="45.95334" lon="3.75064">
        <ele>802</ele>
        <time>2015-08-05T08:51:16Z</time>
      </trkpt>
      <trkpt lat="45.95332" lon="3.75063">
        <ele>802</ele>
        <time>2015-08-05T08:51:18Z</time>
      </trkpt>
      <trkpt lat="45.95325" lon="3.75064">
        <ele>804</ele>
        <time>2015-08-05T08:51:24Z</time>
      </trkpt>
      <trkpt lat="45.95322" lon="3.75064">
        <ele>804</ele>
        <time>2015-08-05T08:51:27Z</time>
      </trkpt>
      <trkpt lat="45.95312" lon="3.75066">
        <ele>804</ele>
        <time>2015-08-05T08:51:35Z</time>
      </trkpt>
      <trkpt lat="45.95309" lon="3.75065">
        <ele>804</ele>
        <time>2015-08-05T08:51:37Z</time>
      </trkpt>
      <trkpt lat="45.95302" lon="3.75066">
        <ele>805</ele>
        <time>2015-08-05T08:51:43Z</time>
      </trkpt>
      <trkpt lat="45.95299" lon="3.75067">
        <ele>806</ele>
        <time>2015-08-05T08:51:47Z</time>
      </trkpt>
      <trkpt lat="45.95292" lon="3.75065">
        <ele>806</ele>
        <time>2015-08-05T08:51:56Z</time>
      </trkpt>
      <trkpt lat="45.95285" lon="3.75061">
        <ele>806</ele>
        <time>2015-08-05T08:52:02Z</time>
      </trkpt>
      <trkpt lat="45.95274" lon="3.75054">
        <ele>806</ele>
        <time>2015-08-05T08:52:12Z</time>
      </trkpt>
      <trkpt lat="45.95268" lon="3.75051">
        <ele>806</ele>
        <time>2015-08-05T08:52:17Z</time>
      </trkpt>
      <trkpt lat="45.95264" lon="3.75048">
        <ele>806</ele>
        <time>2015-08-05T08:52:22Z</time>
      </trkpt>
      <trkpt lat="45.9526" lon="3.75042">
        <ele>808</ele>
        <time>2015-08-05T08:52:36Z</time>
      </trkpt>
      <trkpt lat="45.95256" lon="3.75039">
        <ele>808</ele>
        <time>2015-08-05T08:52:42Z</time>
      </trkpt>
      <trkpt lat="45.9525" lon="3.75036">
        <ele>810</ele>
        <time>2015-08-05T08:52:56Z</time>
      </trkpt>
      <trkpt lat="45.95244" lon="3.75032">
        <ele>811</ele>
        <time>2015-08-05T08:53:02Z</time>
      </trkpt>
      <trkpt lat="45.95243" lon="3.75032">
        <ele>812</ele>
        <time>2015-08-05T08:53:04Z</time>
      </trkpt>
      <trkpt lat="45.95237" lon="3.75029">
        <ele>813</ele>
        <time>2015-08-05T08:53:10Z</time>
      </trkpt>
      <trkpt lat="45.95234" lon="3.75026">
        <ele>813</ele>
        <time>2015-08-05T08:53:13Z</time>
      </trkpt>
      <trkpt lat="45.95233" lon="3.75023">
        <ele>814</ele>
        <time>2015-08-05T08:53:15Z</time>
      </trkpt>
      <trkpt lat="45.95229" lon="3.7502">
        <ele>814</ele>
        <time>2015-08-05T08:53:19Z</time>
      </trkpt>
      <trkpt lat="45.95227" lon="3.75018">
        <ele>814</ele>
        <time>2015-08-05T08:53:21Z</time>
      </trkpt>
      <trkpt lat="45.95223" lon="3.75016">
        <ele>814</ele>
        <time>2015-08-05T08:53:28Z</time>
      </trkpt>
      <trkpt lat="45.9522" lon="3.75012">
        <ele>814</ele>
        <time>2015-08-05T08:53:32Z</time>
      </trkpt>
      <trkpt lat="45.95216" lon="3.7501">
        <ele>815</ele>
        <time>2015-08-05T08:53:36Z</time>
      </trkpt>
      <trkpt lat="45.95214" lon="3.75009">
        <ele>815</ele>
        <time>2015-08-05T08:53:38Z</time>
      </trkpt>
      <trkpt lat="45.95211" lon="3.75007">
        <ele>815</ele>
        <time>2015-08-05T08:53:42Z</time>
      </trkpt>
      <trkpt lat="45.95208" lon="3.75006">
        <ele>815</ele>
        <time>2015-08-05T08:53:44Z</time>
      </trkpt>
      <trkpt lat="45.95201" lon="3.75002">
        <ele>816</ele>
        <time>2015-08-05T08:53:51Z</time>
      </trkpt>
      <trkpt lat="45.95196" lon="3.74998">
        <ele>816</ele>
        <time>2015-08-05T08:53:56Z</time>
      </trkpt>
      <trkpt lat="45.95194" lon="3.74995">
        <ele>816</ele>
        <time>2015-08-05T08:53:58Z</time>
      </trkpt>
      <trkpt lat="45.95192" lon="3.74993">
        <ele>816</ele>
        <time>2015-08-05T08:54:00Z</time>
      </trkpt>
      <trkpt lat="45.9519" lon="3.74992">
        <ele>816</ele>
        <time>2015-08-05T08:54:02Z</time>
      </trkpt>
      <trkpt lat="45.95188" lon="3.7499">
        <ele>816</ele>
        <time>2015-08-05T08:54:04Z</time>
      </trkpt>
      <trkpt lat="45.95177" lon="3.74981">
        <ele>819</ele>
        <time>2015-08-05T08:54:14Z</time>
      </trkpt>
      <trkpt lat="45.95173" lon="3.74979">
        <ele>819</ele>
        <time>2015-08-05T08:54:18Z</time>
      </trkpt>
      <trkpt lat="45.95166" lon="3.74977">
        <ele>821</ele>
        <time>2015-08-05T08:54:24Z</time>
      </trkpt>
      <trkpt lat="45.95161" lon="3.74975">
        <ele>821</ele>
        <time>2015-08-05T08:54:28Z</time>
      </trkpt>
      <trkpt lat="45.95157" lon="3.7497">
        <ele>822</ele>
        <time>2015-08-05T08:54:34Z</time>
      </trkpt>
      <trkpt lat="45.95156" lon="3.74968">
        <ele>823</ele>
        <time>2015-08-05T08:54:47Z</time>
      </trkpt>
      <trkpt lat="45.95155" lon="3.74965">
        <ele>823</ele>
        <time>2015-08-05T08:54:52Z</time>
      </trkpt>
      <trkpt lat="45.95156" lon="3.7496">
        <ele>823</ele>
        <time>2015-08-05T08:55:16Z</time>
      </trkpt>
      <trkpt lat="45.9515" lon="3.74951">
        <ele>826</ele>
        <time>2015-08-05T08:55:28Z</time>
      </trkpt>
      <trkpt lat="45.95149" lon="3.74949">
        <ele>827</ele>
        <time>2015-08-05T08:55:30Z</time>
      </trkpt>
      <trkpt lat="45.95147" lon="3.74945">
        <ele>829</ele>
        <time>2015-08-05T08:55:35Z</time>
      </trkpt>
      <trkpt lat="45.95148" lon="3.74943">
        <ele>829</ele>
        <time>2015-08-05T08:55:37Z</time>
      </trkpt>
      <trkpt lat="45.95145" lon="3.74941">
        <ele>831</ele>
        <time>2015-08-05T08:55:41Z</time>
      </trkpt>
      <trkpt lat="45.95135" lon="3.74931">
        <ele>831</ele>
        <time>2015-08-05T08:55:53Z</time>
      </trkpt>
      <trkpt lat="45.95132" lon="3.7493">
        <ele>831</ele>
        <time>2015-08-05T08:55:55Z</time>
      </trkpt>
      <trkpt lat="45.95131" lon="3.74928">
        <ele>831</ele>
        <time>2015-08-05T08:55:57Z</time>
      </trkpt>
      <trkpt lat="45.9513" lon="3.74926">
        <ele>831</ele>
        <time>2015-08-05T08:55:59Z</time>
      </trkpt>
      <trkpt lat="45.95129" lon="3.74919">
        <ele>831</ele>
        <time>2015-08-05T08:56:05Z</time>
      </trkpt>
      <trkpt lat="45.95127" lon="3.74913">
        <ele>832</ele>
        <time>2015-08-05T08:56:11Z</time>
      </trkpt>
      <trkpt lat="45.95123" lon="3.74901">
        <ele>834</ele>
        <time>2015-08-05T08:56:22Z</time>
      </trkpt>
      <trkpt lat="45.95121" lon="3.74898">
        <ele>834</ele>
        <time>2015-08-05T08:56:24Z</time>
      </trkpt>
      <trkpt lat="45.95118" lon="3.74896">
        <ele>834</ele>
        <time>2015-08-05T08:56:27Z</time>
      </trkpt>
      <trkpt lat="45.95116" lon="3.74892">
        <ele>834</ele>
        <time>2015-08-05T08:56:31Z</time>
      </trkpt>
      <trkpt lat="45.95115" lon="3.7489">
        <ele>834</ele>
        <time>2015-08-05T08:56:33Z</time>
      </trkpt>
      <trkpt lat="45.95115" lon="3.74884">
        <ele>835</ele>
        <time>2015-08-05T08:56:37Z</time>
      </trkpt>
      <trkpt lat="45.95112" lon="3.74873">
        <ele>837</ele>
        <time>2015-08-05T08:56:44Z</time>
      </trkpt>
      <trkpt lat="45.95111" lon="3.74871">
        <ele>838</ele>
        <time>2015-08-05T08:56:46Z</time>
      </trkpt>
      <trkpt lat="45.95107" lon="3.74869">
        <ele>839</ele>
        <time>2015-08-05T08:56:50Z</time>
      </trkpt>
      <trkpt lat="45.95102" lon="3.74862">
        <ele>839</ele>
        <time>2015-08-05T08:56:56Z</time>
      </trkpt>
      <trkpt lat="45.95097" lon="3.74857">
        <ele>841</ele>
        <time>2015-08-05T08:57:01Z</time>
      </trkpt>
      <trkpt lat="45.95094" lon="3.74852">
        <ele>842</ele>
        <time>2015-08-05T08:57:05Z</time>
      </trkpt>
      <trkpt lat="45.9509" lon="3.74845">
        <ele>842</ele>
        <time>2015-08-05T08:57:11Z</time>
      </trkpt>
      <trkpt lat="45.95086" lon="3.74841">
        <ele>842</ele>
        <time>2015-08-05T08:57:15Z</time>
      </trkpt>
      <trkpt lat="45.95083" lon="3.74839">
        <ele>842</ele>
        <time>2015-08-05T08:57:18Z</time>
      </trkpt>
      <trkpt lat="45.9508" lon="3.74834">
        <ele>842</ele>
        <time>2015-08-05T08:57:22Z</time>
      </trkpt>
      <trkpt lat="45.95073" lon="3.74822">
        <ele>842</ele>
        <time>2015-08-05T08:57:31Z</time>
      </trkpt>
      <trkpt lat="45.95071" lon="3.74819">
        <ele>842</ele>
        <time>2015-08-05T08:57:33Z</time>
      </trkpt>
      <trkpt lat="45.95068" lon="3.74815">
        <ele>842</ele>
        <time>2015-08-05T08:57:37Z</time>
      </trkpt>
      <trkpt lat="45.95066" lon="3.74812">
        <ele>842</ele>
        <time>2015-08-05T08:57:39Z</time>
      </trkpt>
      <trkpt lat="45.95059" lon="3.74798">
        <ele>843</ele>
        <time>2015-08-05T08:57:49Z</time>
      </trkpt>
      <trkpt lat="45.95057" lon="3.74794">
        <ele>844</ele>
        <time>2015-08-05T08:57:53Z</time>
      </trkpt>
      <trkpt lat="45.95057" lon="3.74792">
        <ele>844</ele>
        <time>2015-08-05T08:58:21Z</time>
      </trkpt>
      <trkpt lat="45.95056" lon="3.74791">
        <ele>846</ele>
        <time>2015-08-05T08:58:29Z</time>
      </trkpt>
      <trkpt lat="45.95056" lon="3.74792">
        <ele>847</ele>
        <time>2015-08-05T08:59:41Z</time>
      </trkpt>
      <trkpt lat="45.95057" lon="3.74794">
        <ele>847</ele>
        <time>2015-08-05T09:00:15Z</time>
      </trkpt>
      <trkpt lat="45.95057" lon="3.74793">
        <ele>847</ele>
        <time>2015-08-05T09:01:12Z</time>
      </trkpt>
      <trkpt lat="45.9505" lon="3.74785">
        <ele>847</ele>
        <time>2015-08-05T09:01:21Z</time>
      </trkpt>
      <trkpt lat="45.95047" lon="3.74781">
        <ele>847</ele>
        <time>2015-08-05T09:01:25Z</time>
      </trkpt>
      <trkpt lat="45.95045" lon="3.7478">
        <ele>847</ele>
        <time>2015-08-05T09:01:28Z</time>
      </trkpt>
      <trkpt lat="45.95044" lon="3.74777">
        <ele>847</ele>
        <time>2015-08-05T09:01:32Z</time>
      </trkpt>
      <trkpt lat="45.95041" lon="3.74774">
        <ele>847</ele>
        <time>2015-08-05T09:01:36Z</time>
      </trkpt>
      <trkpt lat="45.9504" lon="3.74776">
        <ele>847</ele>
        <time>2015-08-05T09:01:38Z</time>
      </trkpt>
      <trkpt lat="45.95042" lon="3.74778">
        <ele>847</ele>
        <time>2015-08-05T09:01:44Z</time>
      </trkpt>
      <trkpt lat="45.95043" lon="3.74777">
        <ele>847</ele>
        <time>2015-08-05T09:01:51Z</time>
      </trkpt>
      <trkpt lat="45.9504" lon="3.74775">
        <ele>847</ele>
        <time>2015-08-05T09:02:01Z</time>
      </trkpt>
      <trkpt lat="45.95035" lon="3.74773">
        <ele>847</ele>
        <time>2015-08-05T09:02:06Z</time>
      </trkpt>
      <trkpt lat="45.95033" lon="3.74771">
        <ele>847</ele>
        <time>2015-08-05T09:02:08Z</time>
      </trkpt>
      <trkpt lat="45.95029" lon="3.7477">
        <ele>847</ele>
        <time>2015-08-05T09:02:11Z</time>
      </trkpt>
      <trkpt lat="45.95027" lon="3.74768">
        <ele>847</ele>
        <time>2015-08-05T09:02:13Z</time>
      </trkpt>
      <trkpt lat="45.95014" lon="3.74761">
        <ele>848</ele>
        <time>2015-08-05T09:02:23Z</time>
      </trkpt>
      <trkpt lat="45.95011" lon="3.7476">
        <ele>848</ele>
        <time>2015-08-05T09:02:25Z</time>
      </trkpt>
      <trkpt lat="45.95002" lon="3.74754">
        <ele>848</ele>
        <time>2015-08-05T09:02:33Z</time>
      </trkpt>
      <trkpt lat="45.94995" lon="3.7475">
        <ele>848</ele>
        <time>2015-08-05T09:02:39Z</time>
      </trkpt>
      <trkpt lat="45.94992" lon="3.74746">
        <ele>848</ele>
        <time>2015-08-05T09:02:43Z</time>
      </trkpt>
      <trkpt lat="45.94988" lon="3.74744">
        <ele>849</ele>
        <time>2015-08-05T09:02:47Z</time>
      </trkpt>
      <trkpt lat="45.94983" lon="3.74736">
        <ele>852</ele>
        <time>2015-08-05T09:02:53Z</time>
      </trkpt>
      <trkpt lat="45.9498" lon="3.74733">
        <ele>853</ele>
        <time>2015-08-05T09:02:56Z</time>
      </trkpt>
      <trkpt lat="45.94975" lon="3.74725">
        <ele>853</ele>
        <time>2015-08-05T09:03:02Z</time>
      </trkpt>
      <trkpt lat="45.94972" lon="3.74717">
        <ele>853</ele>
        <time>2015-08-05T09:03:08Z</time>
      </trkpt>
      <trkpt lat="45.94964" lon="3.74706">
        <ele>853</ele>
        <time>2015-08-05T09:03:16Z</time>
      </trkpt>
      <trkpt lat="45.94958" lon="3.74691">
        <ele>853</ele>
        <time>2015-08-05T09:03:26Z</time>
      </trkpt>
      <trkpt lat="45.94957" lon="3.74688">
        <ele>853</ele>
        <time>2015-08-05T09:03:28Z</time>
      </trkpt>
      <trkpt lat="45.94955" lon="3.74685">
        <ele>853</ele>
        <time>2015-08-05T09:03:30Z</time>
      </trkpt>
      <trkpt lat="45.94953" lon="3.74681">
        <ele>853</ele>
        <time>2015-08-05T09:03:32Z</time>
      </trkpt>
      <trkpt lat="45.94951" lon="3.74676">
        <ele>853</ele>
        <time>2015-08-05T09:03:35Z</time>
      </trkpt>
      <trkpt lat="45.94949" lon="3.74673">
        <ele>853</ele>
        <time>2015-08-05T09:03:37Z</time>
      </trkpt>
      <trkpt lat="45.94944" lon="3.74663">
        <ele>853</ele>
        <time>2015-08-05T09:03:43Z</time>
      </trkpt>
      <trkpt lat="45.94943" lon="3.7466">
        <ele>853</ele>
        <time>2015-08-05T09:03:45Z</time>
      </trkpt>
      <trkpt lat="45.94938" lon="3.74652">
        <ele>853</ele>
        <time>2015-08-05T09:03:51Z</time>
      </trkpt>
      <trkpt lat="45.94935" lon="3.74647">
        <ele>853</ele>
        <time>2015-08-05T09:03:54Z</time>
      </trkpt>
      <trkpt lat="45.94933" lon="3.74644">
        <ele>853</ele>
        <time>2015-08-05T09:03:56Z</time>
      </trkpt>
      <trkpt lat="45.9493" lon="3.74637">
        <ele>853</ele>
        <time>2015-08-05T09:04:01Z</time>
      </trkpt>
      <trkpt lat="45.94926" lon="3.74631">
        <ele>853</ele>
        <time>2015-08-05T09:04:07Z</time>
      </trkpt>
      <trkpt lat="45.94924" lon="3.74627">
        <ele>853</ele>
        <time>2015-08-05T09:04:11Z</time>
      </trkpt>
      <trkpt lat="45.94923" lon="3.74626">
        <ele>853</ele>
        <time>2015-08-05T09:04:13Z</time>
      </trkpt>
      <trkpt lat="45.94921" lon="3.74622">
        <ele>854</ele>
        <time>2015-08-05T09:04:17Z</time>
      </trkpt>
      <trkpt lat="45.94919" lon="3.74622">
        <ele>854</ele>
        <time>2015-08-05T09:04:19Z</time>
      </trkpt>
      <trkpt lat="45.9492" lon="3.74623">
        <ele>854</ele>
        <time>2015-08-05T09:04:30Z</time>
      </trkpt>
      <trkpt lat="45.94921" lon="3.74624">
        <ele>854</ele>
        <time>2015-08-05T09:04:46Z</time>
      </trkpt>
      <trkpt lat="45.94923" lon="3.74626">
        <ele>854</ele>
        <time>2015-08-05T09:05:08Z</time>
      </trkpt>
      <trkpt lat="45.94925" lon="3.74628">
        <ele>854</ele>
        <time>2015-08-05T09:05:10Z</time>
      </trkpt>
      <trkpt lat="45.94922" lon="3.74628">
        <ele>854</ele>
        <time>2015-08-05T09:05:24Z</time>
      </trkpt>
      <trkpt lat="45.94922" lon="3.74626">
        <ele>854</ele>
        <time>2015-08-05T09:05:29Z</time>
      </trkpt>
      <trkpt lat="45.94923" lon="3.74623">
        <ele>854</ele>
        <time>2015-08-05T09:05:49Z</time>
      </trkpt>
      <trkpt lat="45.94924" lon="3.7462">
        <ele>854</ele>
        <time>2015-08-05T09:05:54Z</time>
      </trkpt>
      <trkpt lat="45.94926" lon="3.74621">
        <ele>855</ele>
        <time>2015-08-05T09:06:02Z</time>
      </trkpt>
      <trkpt lat="45.94926" lon="3.74622">
        <ele>857</ele>
        <time>2015-08-05T09:06:08Z</time>
      </trkpt>
      <trkpt lat="45.94926" lon="3.74621">
        <ele>857</ele>
        <time>2015-08-05T09:06:11Z</time>
      </trkpt>
      <trkpt lat="45.94925" lon="3.74621">
        <ele>859</ele>
        <time>2015-08-05T09:06:14Z</time>
      </trkpt>
      <trkpt lat="45.94926" lon="3.74619">
        <ele>859</ele>
        <time>2015-08-05T09:06:18Z</time>
      </trkpt>
      <trkpt lat="45.94928" lon="3.74621">
        <ele>861</ele>
        <time>2015-08-05T09:06:26Z</time>
      </trkpt>
      <trkpt lat="45.94928" lon="3.74622">
        <ele>861</ele>
        <time>2015-08-05T09:06:36Z</time>
      </trkpt>
      <trkpt lat="45.94926" lon="3.74622">
        <ele>861</ele>
        <time>2015-08-05T09:06:40Z</time>
      </trkpt>
      <trkpt lat="45.94926" lon="3.74619">
        <ele>861</ele>
        <time>2015-08-05T09:06:43Z</time>
      </trkpt>
      <trkpt lat="45.94926" lon="3.74618">
        <ele>863</ele>
        <time>2015-08-05T09:06:50Z</time>
      </trkpt>
      <trkpt lat="45.94928" lon="3.74618">
        <ele>865</ele>
        <time>2015-08-05T09:06:56Z</time>
      </trkpt>
      <trkpt lat="45.94929" lon="3.7462">
        <ele>866</ele>
        <time>2015-08-05T09:06:59Z</time>
      </trkpt>
      <trkpt lat="45.94929" lon="3.74622">
        <ele>866</ele>
        <time>2015-08-05T09:07:07Z</time>
      </trkpt>
      <trkpt lat="45.94929" lon="3.74623">
        <ele>866</ele>
        <time>2015-08-05T09:07:11Z</time>
      </trkpt>
      <trkpt lat="45.94929" lon="3.74625">
        <ele>865</ele>
        <time>2015-08-05T09:07:14Z</time>
      </trkpt>
      <trkpt lat="45.94926" lon="3.74619">
        <ele>862</ele>
        <time>2015-08-05T09:07:37Z</time>
      </trkpt>
      <trkpt lat="45.94924" lon="3.74614">
        <ele>862</ele>
        <time>2015-08-05T09:07:41Z</time>
      </trkpt>
      <trkpt lat="45.94923" lon="3.74611">
        <ele>862</ele>
        <time>2015-08-05T09:07:43Z</time>
      </trkpt>
      <trkpt lat="45.9492" lon="3.74604">
        <ele>862</ele>
        <time>2015-08-05T09:07:49Z</time>
      </trkpt>
      <trkpt lat="45.94916" lon="3.74594">
        <ele>862</ele>
        <time>2015-08-05T09:07:58Z</time>
      </trkpt>
      <trkpt lat="45.94913" lon="3.74582">
        <ele>862</ele>
        <time>2015-08-05T09:08:07Z</time>
      </trkpt>
      <trkpt lat="45.94912" lon="3.74581">
        <ele>862</ele>
        <time>2015-08-05T09:08:09Z</time>
      </trkpt>
      <trkpt lat="45.9491" lon="3.7457">
        <ele>862</ele>
        <time>2015-08-05T09:08:18Z</time>
      </trkpt>
      <trkpt lat="45.9491" lon="3.74566">
        <ele>862</ele>
        <time>2015-08-05T09:08:22Z</time>
      </trkpt>
      <trkpt lat="45.9491" lon="3.74561">
        <ele>862</ele>
        <time>2015-08-05T09:08:26Z</time>
      </trkpt>
      <trkpt lat="45.9491" lon="3.74559">
        <ele>862</ele>
        <time>2015-08-05T09:08:28Z</time>
      </trkpt>
      <trkpt lat="45.94908" lon="3.74557">
        <ele>862</ele>
        <time>2015-08-05T09:08:30Z</time>
      </trkpt>
      <trkpt lat="45.94908" lon="3.74555">
        <ele>862</ele>
        <time>2015-08-05T09:08:32Z</time>
      </trkpt>
      <trkpt lat="45.94904" lon="3.74546">
        <ele>863</ele>
        <time>2015-08-05T09:08:40Z</time>
      </trkpt>
      <trkpt lat="45.94903" lon="3.74538">
        <ele>866</ele>
        <time>2015-08-05T09:08:48Z</time>
      </trkpt>
      <trkpt lat="45.94903" lon="3.74536">
        <ele>867</ele>
        <time>2015-08-05T09:08:50Z</time>
      </trkpt>
      <trkpt lat="45.94901" lon="3.74532">
        <ele>867</ele>
        <time>2015-08-05T09:08:54Z</time>
      </trkpt>
      <trkpt lat="45.94899" lon="3.7453">
        <ele>867</ele>
        <time>2015-08-05T09:08:56Z</time>
      </trkpt>
      <trkpt lat="45.94896" lon="3.74524">
        <ele>867</ele>
        <time>2015-08-05T09:09:01Z</time>
      </trkpt>
      <trkpt lat="45.94893" lon="3.7452">
        <ele>867</ele>
        <time>2015-08-05T09:09:05Z</time>
      </trkpt>
      <trkpt lat="45.94893" lon="3.74517">
        <ele>867</ele>
        <time>2015-08-05T09:09:07Z</time>
      </trkpt>
      <trkpt lat="45.94892" lon="3.74516">
        <ele>867</ele>
        <time>2015-08-05T09:09:09Z</time>
      </trkpt>
      <trkpt lat="45.94891" lon="3.74513">
        <ele>867</ele>
        <time>2015-08-05T09:09:11Z</time>
      </trkpt>
      <trkpt lat="45.94889" lon="3.74509">
        <ele>867</ele>
        <time>2015-08-05T09:09:15Z</time>
      </trkpt>
      <trkpt lat="45.94889" lon="3.74507">
        <ele>867</ele>
        <time>2015-08-05T09:09:19Z</time>
      </trkpt>
      <trkpt lat="45.94887" lon="3.74505">
        <ele>867</ele>
        <time>2015-08-05T09:09:21Z</time>
      </trkpt>
      <trkpt lat="45.94882" lon="3.74496">
        <ele>868</ele>
        <time>2015-08-05T09:09:28Z</time>
      </trkpt>
      <trkpt lat="45.94881" lon="3.74494">
        <ele>868</ele>
        <time>2015-08-05T09:09:30Z</time>
      </trkpt>
      <trkpt lat="45.94878" lon="3.74486">
        <ele>868</ele>
        <time>2015-08-05T09:09:35Z</time>
      </trkpt>
      <trkpt lat="45.94875" lon="3.74478">
        <ele>869</ele>
        <time>2015-08-05T09:09:42Z</time>
      </trkpt>
      <trkpt lat="45.9487" lon="3.7447">
        <ele>871</ele>
        <time>2015-08-05T09:09:50Z</time>
      </trkpt>
      <trkpt lat="45.94865" lon="3.74468">
        <ele>872</ele>
        <time>2015-08-05T09:09:54Z</time>
      </trkpt>
      <trkpt lat="45.94855" lon="3.74462">
        <ele>872</ele>
        <time>2015-08-05T09:10:02Z</time>
      </trkpt>
      <trkpt lat="45.94854" lon="3.7446">
        <ele>872</ele>
        <time>2015-08-05T09:10:04Z</time>
      </trkpt>
      <trkpt lat="45.94851" lon="3.74459">
        <ele>872</ele>
        <time>2015-08-05T09:10:06Z</time>
      </trkpt>
      <trkpt lat="45.94847" lon="3.74456">
        <ele>872</ele>
        <time>2015-08-05T09:10:10Z</time>
      </trkpt>
      <trkpt lat="45.94846" lon="3.74453">
        <ele>872</ele>
        <time>2015-08-05T09:10:12Z</time>
      </trkpt>
      <trkpt lat="45.94843" lon="3.7445">
        <ele>872</ele>
        <time>2015-08-05T09:10:16Z</time>
      </trkpt>
      <trkpt lat="45.94841" lon="3.74448">
        <ele>872</ele>
        <time>2015-08-05T09:10:18Z</time>
      </trkpt>
      <trkpt lat="45.94841" lon="3.74446">
        <ele>872</ele>
        <time>2015-08-05T09:10:20Z</time>
      </trkpt>
      <trkpt lat="45.94834" lon="3.74441">
        <ele>872</ele>
        <time>2015-08-05T09:10:27Z</time>
      </trkpt>
      <trkpt lat="45.94829" lon="3.74431">
        <ele>872</ele>
        <time>2015-08-05T09:10:35Z</time>
      </trkpt>
      <trkpt lat="45.94825" lon="3.74428">
        <ele>872</ele>
        <time>2015-08-05T09:10:38Z</time>
      </trkpt>
      <trkpt lat="45.94824" lon="3.74424">
        <ele>872</ele>
        <time>2015-08-05T09:10:41Z</time>
      </trkpt>
      <trkpt lat="45.94822" lon="3.74422">
        <ele>872</ele>
        <time>2015-08-05T09:10:43Z</time>
      </trkpt>
      <trkpt lat="45.94817" lon="3.74407">
        <ele>872</ele>
        <time>2015-08-05T09:10:52Z</time>
      </trkpt>
      <trkpt lat="45.94811" lon="3.74396">
        <ele>873</ele>
        <time>2015-08-05T09:10:59Z</time>
      </trkpt>
      <trkpt lat="45.94807" lon="3.74393">
        <ele>874</ele>
        <time>2015-08-05T09:11:03Z</time>
      </trkpt>
      <trkpt lat="45.94805" lon="3.7439">
        <ele>875</ele>
        <time>2015-08-05T09:11:05Z</time>
      </trkpt>
      <trkpt lat="45.94802" lon="3.74388">
        <ele>876</ele>
        <time>2015-08-05T09:11:07Z</time>
      </trkpt>
      <trkpt lat="45.94794" lon="3.74379">
        <ele>882</ele>
        <time>2015-08-05T09:11:14Z</time>
      </trkpt>
      <trkpt lat="45.94791" lon="3.74376">
        <ele>884</ele>
        <time>2015-08-05T09:11:17Z</time>
      </trkpt>
      <trkpt lat="45.94789" lon="3.74374">
        <ele>885</ele>
        <time>2015-08-05T09:11:19Z</time>
      </trkpt>
      <trkpt lat="45.94786" lon="3.74374">
        <ele>886</ele>
        <time>2015-08-05T09:11:22Z</time>
      </trkpt>
      <trkpt lat="45.94785" lon="3.74377">
        <ele>887</ele>
        <time>2015-08-05T09:11:24Z</time>
      </trkpt>
      <trkpt lat="45.94783" lon="3.74378">
        <ele>887</ele>
        <time>2015-08-05T09:11:26Z</time>
      </trkpt>
      <trkpt lat="45.94781" lon="3.74377">
        <ele>887</ele>
        <time>2015-08-05T09:11:28Z</time>
      </trkpt>
      <trkpt lat="45.94777" lon="3.74384">
        <ele>887</ele>
        <time>2015-08-05T09:11:34Z</time>
      </trkpt>
      <trkpt lat="45.94775" lon="3.74388">
        <ele>887</ele>
        <time>2015-08-05T09:11:38Z</time>
      </trkpt>
      <trkpt lat="45.94775" lon="3.74391">
        <ele>887</ele>
        <time>2015-08-05T09:11:40Z</time>
      </trkpt>
      <trkpt lat="45.94773" lon="3.74394">
        <ele>887</ele>
        <time>2015-08-05T09:11:43Z</time>
      </trkpt>
      <trkpt lat="45.94771" lon="3.74395">
        <ele>887</ele>
        <time>2015-08-05T09:11:48Z</time>
      </trkpt>
      <trkpt lat="45.94772" lon="3.74395">
        <ele>887</ele>
        <time>2015-08-05T09:11:50Z</time>
      </trkpt>
      <trkpt lat="45.94772" lon="3.74396">
        <ele>887</ele>
        <time>2015-08-05T09:11:58Z</time>
      </trkpt>
      <trkpt lat="45.9477" lon="3.74401">
        <ele>888</ele>
        <time>2015-08-05T09:12:04Z</time>
      </trkpt>
      <trkpt lat="45.94768" lon="3.74402">
        <ele>888</ele>
        <time>2015-08-05T09:12:06Z</time>
      </trkpt>
      <trkpt lat="45.94765" lon="3.74404">
        <ele>888</ele>
        <time>2015-08-05T09:12:09Z</time>
      </trkpt>
      <trkpt lat="45.94764" lon="3.74406">
        <ele>888</ele>
        <time>2015-08-05T09:12:11Z</time>
      </trkpt>
      <trkpt lat="45.94762" lon="3.74408">
        <ele>888</ele>
        <time>2015-08-05T09:12:13Z</time>
      </trkpt>
      <trkpt lat="45.94759" lon="3.74408">
        <ele>888</ele>
        <time>2015-08-05T09:12:16Z</time>
      </trkpt>
      <trkpt lat="45.94757" lon="3.7441">
        <ele>888</ele>
        <time>2015-08-05T09:12:19Z</time>
      </trkpt>
      <trkpt lat="45.94755" lon="3.74411">
        <ele>888</ele>
        <time>2015-08-05T09:12:21Z</time>
      </trkpt>
      <trkpt lat="45.94752" lon="3.74414">
        <ele>888</ele>
        <time>2015-08-05T09:12:25Z</time>
      </trkpt>
      <trkpt lat="45.94749" lon="3.74416">
        <ele>888</ele>
        <time>2015-08-05T09:12:28Z</time>
      </trkpt>
      <trkpt lat="45.94748" lon="3.74416">
        <ele>888</ele>
        <time>2015-08-05T09:12:30Z</time>
      </trkpt>
      <trkpt lat="45.94746" lon="3.74416">
        <ele>888</ele>
        <time>2015-08-05T09:12:32Z</time>
      </trkpt>
      <trkpt lat="45.9474" lon="3.7442">
        <ele>888</ele>
        <time>2015-08-05T09:12:39Z</time>
      </trkpt>
      <trkpt lat="45.94739" lon="3.74422">
        <ele>890</ele>
        <time>2015-08-05T09:12:42Z</time>
      </trkpt>
      <trkpt lat="45.94736" lon="3.74424">
        <ele>892</ele>
        <time>2015-08-05T09:12:47Z</time>
      </trkpt>
      <trkpt lat="45.94732" lon="3.74425">
        <ele>893</ele>
        <time>2015-08-05T09:12:51Z</time>
      </trkpt>
      <trkpt lat="45.9473" lon="3.74425">
        <ele>893</ele>
        <time>2015-08-05T09:12:53Z</time>
      </trkpt>
      <trkpt lat="45.94727" lon="3.74423">
        <ele>893</ele>
        <time>2015-08-05T09:12:57Z</time>
      </trkpt>
      <trkpt lat="45.94725" lon="3.74427">
        <ele>893</ele>
        <time>2015-08-05T09:13:01Z</time>
      </trkpt>
      <trkpt lat="45.94717" lon="3.74432">
        <ele>893</ele>
        <time>2015-08-05T09:13:08Z</time>
      </trkpt>
      <trkpt lat="45.94717" lon="3.74434">
        <ele>894</ele>
        <time>2015-08-05T09:13:10Z</time>
      </trkpt>
      <trkpt lat="45.94716" lon="3.74435">
        <ele>895</ele>
        <time>2015-08-05T09:13:12Z</time>
      </trkpt>
      <trkpt lat="45.94713" lon="3.74436">
        <ele>896</ele>
        <time>2015-08-05T09:13:14Z</time>
      </trkpt>
      <trkpt lat="45.94712" lon="3.74434">
        <ele>897</ele>
        <time>2015-08-05T09:13:16Z</time>
      </trkpt>
      <trkpt lat="45.94709" lon="3.74435">
        <ele>898</ele>
        <time>2015-08-05T09:13:20Z</time>
      </trkpt>
      <trkpt lat="45.94707" lon="3.74438">
        <ele>898</ele>
        <time>2015-08-05T09:13:22Z</time>
      </trkpt>
      <trkpt lat="45.94705" lon="3.7444">
        <ele>898</ele>
        <time>2015-08-05T09:13:24Z</time>
      </trkpt>
      <trkpt lat="45.94702" lon="3.74442">
        <ele>898</ele>
        <time>2015-08-05T09:13:26Z</time>
      </trkpt>
      <trkpt lat="45.94699" lon="3.74447">
        <ele>898</ele>
        <time>2015-08-05T09:13:32Z</time>
      </trkpt>
      <trkpt lat="45.94698" lon="3.74449">
        <ele>898</ele>
        <time>2015-08-05T09:13:34Z</time>
      </trkpt>
      <trkpt lat="45.94696" lon="3.7445">
        <ele>898</ele>
        <time>2015-08-05T09:13:38Z</time>
      </trkpt>
      <trkpt lat="45.94693" lon="3.74452">
        <ele>899</ele>
        <time>2015-08-05T09:13:42Z</time>
      </trkpt>
      <trkpt lat="45.9469" lon="3.74454">
        <ele>899</ele>
        <time>2015-08-05T09:13:45Z</time>
      </trkpt>
      <trkpt lat="45.94689" lon="3.74455">
        <ele>899</ele>
        <time>2015-08-05T09:13:47Z</time>
      </trkpt>
      <trkpt lat="45.94688" lon="3.7446">
        <ele>899</ele>
        <time>2015-08-05T09:13:51Z</time>
      </trkpt>
      <trkpt lat="45.94687" lon="3.74461">
        <ele>899</ele>
        <time>2015-08-05T09:13:53Z</time>
      </trkpt>
      <trkpt lat="45.94686" lon="3.74463">
        <ele>899</ele>
        <time>2015-08-05T09:13:55Z</time>
      </trkpt>
      <trkpt lat="45.94681" lon="3.74472">
        <ele>899</ele>
        <time>2015-08-05T09:14:02Z</time>
      </trkpt>
      <trkpt lat="45.94679" lon="3.74475">
        <ele>899</ele>
        <time>2015-08-05T09:14:04Z</time>
      </trkpt>
      <trkpt lat="45.94678" lon="3.74478">
        <ele>899</ele>
        <time>2015-08-05T09:14:06Z</time>
      </trkpt>
      <trkpt lat="45.94678" lon="3.74482">
        <ele>899</ele>
        <time>2015-08-05T09:14:09Z</time>
      </trkpt>
      <trkpt lat="45.94676" lon="3.74488">
        <ele>899</ele>
        <time>2015-08-05T09:14:14Z</time>
      </trkpt>
      <trkpt lat="45.94675" lon="3.7449">
        <ele>899</ele>
        <time>2015-08-05T09:14:16Z</time>
      </trkpt>
      <trkpt lat="45.94674" lon="3.74497">
        <ele>899</ele>
        <time>2015-08-05T09:14:22Z</time>
      </trkpt>
      <trkpt lat="45.94671" lon="3.74501">
        <ele>899</ele>
        <time>2015-08-05T09:14:26Z</time>
      </trkpt>
      <trkpt lat="45.9467" lon="3.74504">
        <ele>899</ele>
        <time>2015-08-05T09:14:28Z</time>
      </trkpt>
      <trkpt lat="45.94669" lon="3.74506">
        <ele>899</ele>
        <time>2015-08-05T09:14:30Z</time>
      </trkpt>
      <trkpt lat="45.94667" lon="3.74512">
        <ele>899</ele>
        <time>2015-08-05T09:14:34Z</time>
      </trkpt>
      <trkpt lat="45.94664" lon="3.74516">
        <ele>899</ele>
        <time>2015-08-05T09:14:38Z</time>
      </trkpt>
      <trkpt lat="45.94662" lon="3.74519">
        <ele>899</ele>
        <time>2015-08-05T09:14:43Z</time>
      </trkpt>
      <trkpt lat="45.94659" lon="3.74522">
        <ele>899</ele>
        <time>2015-08-05T09:14:47Z</time>
      </trkpt>
      <trkpt lat="45.94658" lon="3.74524">
        <ele>899</ele>
        <time>2015-08-05T09:14:49Z</time>
      </trkpt>
      <trkpt lat="45.94657" lon="3.74526">
        <ele>899</ele>
        <time>2015-08-05T09:14:51Z</time>
      </trkpt>
      <trkpt lat="45.94654" lon="3.7453">
        <ele>899</ele>
        <time>2015-08-05T09:14:55Z</time>
      </trkpt>
      <trkpt lat="45.94648" lon="3.74534">
        <ele>900</ele>
        <time>2015-08-05T09:15:02Z</time>
      </trkpt>
      <trkpt lat="45.94647" lon="3.74535">
        <ele>900</ele>
        <time>2015-08-05T09:15:05Z</time>
      </trkpt>
      <trkpt lat="45.94643" lon="3.74536">
        <ele>903</ele>
        <time>2015-08-05T09:15:11Z</time>
      </trkpt>
      <trkpt lat="45.94641" lon="3.74536">
        <ele>904</ele>
        <time>2015-08-05T09:15:13Z</time>
      </trkpt>
      <trkpt lat="45.9464" lon="3.74535">
        <ele>905</ele>
        <time>2015-08-05T09:15:15Z</time>
      </trkpt>
      <trkpt lat="45.94634" lon="3.74534">
        <ele>907</ele>
        <time>2015-08-05T09:15:20Z</time>
      </trkpt>
      <trkpt lat="45.94634" lon="3.74532">
        <ele>908</ele>
        <time>2015-08-05T09:15:23Z</time>
      </trkpt>
      <trkpt lat="45.94633" lon="3.7453">
        <ele>910</ele>
        <time>2015-08-05T09:15:25Z</time>
      </trkpt>
      <trkpt lat="45.94631" lon="3.74528">
        <ele>914</ele>
        <time>2015-08-05T09:15:31Z</time>
      </trkpt>
      <trkpt lat="45.94624" lon="3.74526">
        <ele>918</ele>
        <time>2015-08-05T09:15:39Z</time>
      </trkpt>
      <trkpt lat="45.94622" lon="3.74526">
        <ele>919</ele>
        <time>2015-08-05T09:15:41Z</time>
      </trkpt>
      <trkpt lat="45.9462" lon="3.74525">
        <ele>921</ele>
        <time>2015-08-05T09:15:44Z</time>
      </trkpt>
      <trkpt lat="45.94617" lon="3.74526">
        <ele>922</ele>
        <time>2015-08-05T09:15:57Z</time>
      </trkpt>
      <trkpt lat="45.94616" lon="3.74527">
        <ele>922</ele>
        <time>2015-08-05T09:16:02Z</time>
      </trkpt>
      <trkpt lat="45.94613" lon="3.74527">
        <ele>922</ele>
        <time>2015-08-05T09:16:05Z</time>
      </trkpt>
      <trkpt lat="45.94611" lon="3.74529">
        <ele>922</ele>
        <time>2015-08-05T09:16:08Z</time>
      </trkpt>
      <trkpt lat="45.94608" lon="3.74535">
        <ele>922</ele>
        <time>2015-08-05T09:16:17Z</time>
      </trkpt>
      <trkpt lat="45.94607" lon="3.74536">
        <ele>922</ele>
        <time>2015-08-05T09:16:19Z</time>
      </trkpt>
      <trkpt lat="45.94603" lon="3.74536">
        <ele>922</ele>
        <time>2015-08-05T09:16:23Z</time>
      </trkpt>
      <trkpt lat="45.94602" lon="3.74538">
        <ele>922</ele>
        <time>2015-08-05T09:16:25Z</time>
      </trkpt>
      <trkpt lat="45.94597" lon="3.74537">
        <ele>922</ele>
        <time>2015-08-05T09:16:30Z</time>
      </trkpt>
      <trkpt lat="45.94595" lon="3.74538">
        <ele>922</ele>
        <time>2015-08-05T09:16:32Z</time>
      </trkpt>
      <trkpt lat="45.94593" lon="3.74539">
        <ele>922</ele>
        <time>2015-08-05T09:16:35Z</time>
      </trkpt>
      <trkpt lat="45.94589" lon="3.74542">
        <ele>922</ele>
        <time>2015-08-05T09:16:41Z</time>
      </trkpt>
      <trkpt lat="45.94588" lon="3.74541">
        <ele>922</ele>
        <time>2015-08-05T09:16:45Z</time>
      </trkpt>
      <trkpt lat="45.9458" lon="3.74543">
        <ele>922</ele>
        <time>2015-08-05T09:16:53Z</time>
      </trkpt>
      <trkpt lat="45.94576" lon="3.74546">
        <ele>922</ele>
        <time>2015-08-05T09:16:59Z</time>
      </trkpt>
      <trkpt lat="45.94572" lon="3.74547">
        <ele>922</ele>
        <time>2015-08-05T09:17:03Z</time>
      </trkpt>
      <trkpt lat="45.94564" lon="3.74546">
        <ele>922</ele>
        <time>2015-08-05T09:17:11Z</time>
      </trkpt>
      <trkpt lat="45.94561" lon="3.74546">
        <ele>922</ele>
        <time>2015-08-05T09:17:14Z</time>
      </trkpt>
      <trkpt lat="45.94555" lon="3.7455">
        <ele>923</ele>
        <time>2015-08-05T09:17:23Z</time>
      </trkpt>
      <trkpt lat="45.94551" lon="3.74552">
        <ele>923</ele>
        <time>2015-08-05T09:17:29Z</time>
      </trkpt>
      <trkpt lat="45.94549" lon="3.74553">
        <ele>924</ele>
        <time>2015-08-05T09:17:31Z</time>
      </trkpt>
      <trkpt lat="45.94547" lon="3.74553">
        <ele>924</ele>
        <time>2015-08-05T09:17:34Z</time>
      </trkpt>
      <trkpt lat="45.94545" lon="3.74554">
        <ele>924</ele>
        <time>2015-08-05T09:17:36Z</time>
      </trkpt>
      <trkpt lat="45.9454" lon="3.74554">
        <ele>925</ele>
        <time>2015-08-05T09:17:42Z</time>
      </trkpt>
      <trkpt lat="45.94537" lon="3.74553">
        <ele>925</ele>
        <time>2015-08-05T09:17:46Z</time>
      </trkpt>
      <trkpt lat="45.94535" lon="3.74553">
        <ele>925</ele>
        <time>2015-08-05T09:17:48Z</time>
      </trkpt>
      <trkpt lat="45.94531" lon="3.74552">
        <ele>925</ele>
        <time>2015-08-05T09:17:52Z</time>
      </trkpt>
      <trkpt lat="45.94529" lon="3.74552">
        <ele>925</ele>
        <time>2015-08-05T09:17:54Z</time>
      </trkpt>
      <trkpt lat="45.94527" lon="3.74552">
        <ele>925</ele>
        <time>2015-08-05T09:17:56Z</time>
      </trkpt>
      <trkpt lat="45.94524" lon="3.74553">
        <ele>925</ele>
        <time>2015-08-05T09:17:58Z</time>
      </trkpt>
      <trkpt lat="45.94512" lon="3.74556">
        <ele>925</ele>
        <time>2015-08-05T09:18:16Z</time>
      </trkpt>
      <trkpt lat="45.94505" lon="3.74557">
        <ele>925</ele>
        <time>2015-08-05T09:18:24Z</time>
      </trkpt>
      <trkpt lat="45.94498" lon="3.74554">
        <ele>925</ele>
        <time>2015-08-05T09:18:33Z</time>
      </trkpt>
      <trkpt lat="45.94494" lon="3.74555">
        <ele>925</ele>
        <time>2015-08-05T09:18:40Z</time>
      </trkpt>
      <trkpt lat="45.94491" lon="3.74555">
        <ele>925</ele>
        <time>2015-08-05T09:18:43Z</time>
      </trkpt>
      <trkpt lat="45.94485" lon="3.74555">
        <ele>925</ele>
        <time>2015-08-05T09:18:51Z</time>
      </trkpt>
      <trkpt lat="45.94484" lon="3.74556">
        <ele>926</ele>
        <time>2015-08-05T09:18:53Z</time>
      </trkpt>
      <trkpt lat="45.94479" lon="3.74556">
        <ele>926</ele>
        <time>2015-08-05T09:18:57Z</time>
      </trkpt>
      <trkpt lat="45.94478" lon="3.74556">
        <ele>926</ele>
        <time>2015-08-05T09:18:59Z</time>
      </trkpt>
      <trkpt lat="45.94476" lon="3.74555">
        <ele>927</ele>
        <time>2015-08-05T09:19:04Z</time>
      </trkpt>
      <trkpt lat="45.94466" lon="3.74553">
        <ele>932</ele>
        <time>2015-08-05T09:19:17Z</time>
      </trkpt>
      <trkpt lat="45.94463" lon="3.74553">
        <ele>933</ele>
        <time>2015-08-05T09:19:22Z</time>
      </trkpt>
      <trkpt lat="45.94456" lon="3.74553">
        <ele>934</ele>
        <time>2015-08-05T09:19:29Z</time>
      </trkpt>
      <trkpt lat="45.94455" lon="3.74552">
        <ele>936</ele>
        <time>2015-08-05T09:19:34Z</time>
      </trkpt>
      <trkpt lat="45.94452" lon="3.74551">
        <ele>936</ele>
        <time>2015-08-05T09:19:36Z</time>
      </trkpt>
      <trkpt lat="45.94451" lon="3.7455">
        <ele>936</ele>
        <time>2015-08-05T09:19:38Z</time>
      </trkpt>
      <trkpt lat="45.9445" lon="3.74548">
        <ele>936</ele>
        <time>2015-08-05T09:19:40Z</time>
      </trkpt>
      <trkpt lat="45.94449" lon="3.74547">
        <ele>936</ele>
        <time>2015-08-05T09:19:42Z</time>
      </trkpt>
      <trkpt lat="45.94442" lon="3.74546">
        <ele>937</ele>
        <time>2015-08-05T09:19:48Z</time>
      </trkpt>
      <trkpt lat="45.9444" lon="3.74545">
        <ele>937</ele>
        <time>2015-08-05T09:19:51Z</time>
      </trkpt>
      <trkpt lat="45.94436" lon="3.74544">
        <ele>937</ele>
        <time>2015-08-05T09:19:55Z</time>
      </trkpt>
      <trkpt lat="45.94435" lon="3.74543">
        <ele>937</ele>
        <time>2015-08-05T09:19:59Z</time>
      </trkpt>
      <trkpt lat="45.94434" lon="3.74541">
        <ele>939</ele>
        <time>2015-08-05T09:20:02Z</time>
      </trkpt>
      <trkpt lat="45.94432" lon="3.7454">
        <ele>943</ele>
        <time>2015-08-05T09:20:07Z</time>
      </trkpt>
      <trkpt lat="45.94428" lon="3.74541">
        <ele>945</ele>
        <time>2015-08-05T09:20:11Z</time>
      </trkpt>
      <trkpt lat="45.94422" lon="3.74539">
        <ele>945</ele>
        <time>2015-08-05T09:20:15Z</time>
      </trkpt>
      <trkpt lat="45.94417" lon="3.74537">
        <ele>945</ele>
        <time>2015-08-05T09:20:20Z</time>
      </trkpt>
      <trkpt lat="45.94415" lon="3.74535">
        <ele>945</ele>
        <time>2015-08-05T09:20:23Z</time>
      </trkpt>
      <trkpt lat="45.94414" lon="3.74534">
        <ele>945</ele>
        <time>2015-08-05T09:20:26Z</time>
      </trkpt>
      <trkpt lat="45.94411" lon="3.74535">
        <ele>945</ele>
        <time>2015-08-05T09:20:28Z</time>
      </trkpt>
      <trkpt lat="45.94407" lon="3.74534">
        <ele>945</ele>
        <time>2015-08-05T09:20:33Z</time>
      </trkpt>
      <trkpt lat="45.94403" lon="3.74531">
        <ele>945</ele>
        <time>2015-08-05T09:20:37Z</time>
      </trkpt>
      <trkpt lat="45.94402" lon="3.7453">
        <ele>945</ele>
        <time>2015-08-05T09:20:40Z</time>
      </trkpt>
      <trkpt lat="45.944" lon="3.74529">
        <ele>945</ele>
        <time>2015-08-05T09:20:42Z</time>
      </trkpt>
      <trkpt lat="45.94399" lon="3.74528">
        <ele>945</ele>
        <time>2015-08-05T09:20:44Z</time>
      </trkpt>
      <trkpt lat="45.94396" lon="3.74526">
        <ele>945</ele>
        <time>2015-08-05T09:20:49Z</time>
      </trkpt>
      <trkpt lat="45.94392" lon="3.74523">
        <ele>947</ele>
        <time>2015-08-05T09:20:56Z</time>
      </trkpt>
      <trkpt lat="45.94388" lon="3.74521">
        <ele>949</ele>
        <time>2015-08-05T09:21:02Z</time>
      </trkpt>
      <trkpt lat="45.94386" lon="3.74519">
        <ele>950</ele>
        <time>2015-08-05T09:21:06Z</time>
      </trkpt>
      <trkpt lat="45.94384" lon="3.74518">
        <ele>950</ele>
        <time>2015-08-05T09:21:10Z</time>
      </trkpt>
      <trkpt lat="45.94383" lon="3.74516">
        <ele>950</ele>
        <time>2015-08-05T09:21:14Z</time>
      </trkpt>
      <trkpt lat="45.94384" lon="3.74515">
        <ele>950</ele>
        <time>2015-08-05T09:21:16Z</time>
      </trkpt>
      <trkpt lat="45.94383" lon="3.74513">
        <ele>950</ele>
        <time>2015-08-05T09:21:19Z</time>
      </trkpt>
      <trkpt lat="45.94381" lon="3.74509">
        <ele>950</ele>
        <time>2015-08-05T09:21:25Z</time>
      </trkpt>
      <trkpt lat="45.94379" lon="3.74506">
        <ele>950</ele>
        <time>2015-08-05T09:21:29Z</time>
      </trkpt>
      <trkpt lat="45.94378" lon="3.74502">
        <ele>951</ele>
        <time>2015-08-05T09:21:35Z</time>
      </trkpt>
      <trkpt lat="45.94376" lon="3.74497">
        <ele>951</ele>
        <time>2015-08-05T09:21:39Z</time>
      </trkpt>
      <trkpt lat="45.94377" lon="3.74493">
        <ele>952</ele>
        <time>2015-08-05T09:21:43Z</time>
      </trkpt>
      <trkpt lat="45.94376" lon="3.74491">
        <ele>953</ele>
        <time>2015-08-05T09:21:45Z</time>
      </trkpt>
      <trkpt lat="45.94377" lon="3.74489">
        <ele>954</ele>
        <time>2015-08-05T09:21:47Z</time>
      </trkpt>
      <trkpt lat="45.94376" lon="3.74487">
        <ele>956</ele>
        <time>2015-08-05T09:21:51Z</time>
      </trkpt>
      <trkpt lat="45.94371" lon="3.74484">
        <ele>957</ele>
        <time>2015-08-05T09:21:57Z</time>
      </trkpt>
      <trkpt lat="45.94373" lon="3.74483">
        <ele>957</ele>
        <time>2015-08-05T09:21:59Z</time>
      </trkpt>
      <trkpt lat="45.94376" lon="3.74483">
        <ele>958</ele>
        <time>2015-08-05T09:22:02Z</time>
      </trkpt>
      <trkpt lat="45.94377" lon="3.74482">
        <ele>960</ele>
        <time>2015-08-05T09:22:06Z</time>
      </trkpt>
      <trkpt lat="45.94376" lon="3.74483">
        <ele>960</ele>
        <time>2015-08-05T09:22:12Z</time>
      </trkpt>
      <trkpt lat="45.94374" lon="3.74482">
        <ele>960</ele>
        <time>2015-08-05T09:22:18Z</time>
      </trkpt>
      <trkpt lat="45.94375" lon="3.74486">
        <ele>960</ele>
        <time>2015-08-05T09:22:23Z</time>
      </trkpt>
      <trkpt lat="45.94374" lon="3.74487">
        <ele>960</ele>
        <time>2015-08-05T09:22:25Z</time>
      </trkpt>
      <trkpt lat="45.94374" lon="3.74488">
        <ele>960</ele>
        <time>2015-08-05T09:22:28Z</time>
      </trkpt>
      <trkpt lat="45.94374" lon="3.7449">
        <ele>960</ele>
        <time>2015-08-05T09:22:32Z</time>
      </trkpt>
      <trkpt lat="45.94372" lon="3.74492">
        <ele>960</ele>
        <time>2015-08-05T09:22:36Z</time>
      </trkpt>
      <trkpt lat="45.94371" lon="3.74493">
        <ele>960</ele>
        <time>2015-08-05T09:22:38Z</time>
      </trkpt>
      <trkpt lat="45.94371" lon="3.74491">
        <ele>960</ele>
        <time>2015-08-05T09:22:41Z</time>
      </trkpt>
      <trkpt lat="45.9437" lon="3.7449">
        <ele>959</ele>
        <time>2015-08-05T09:22:44Z</time>
      </trkpt>
      <trkpt lat="45.94369" lon="3.74488">
        <ele>955</ele>
        <time>2015-08-05T09:22:50Z</time>
      </trkpt>
      <trkpt lat="45.94368" lon="3.74488">
        <ele>955</ele>
        <time>2015-08-05T09:22:54Z</time>
      </trkpt>
      <trkpt lat="45.94369" lon="3.74487">
        <ele>955</ele>
        <time>2015-08-05T09:22:59Z</time>
      </trkpt>
      <trkpt lat="45.94369" lon="3.74482">
        <ele>953</ele>
        <time>2015-08-05T09:23:06Z</time>
      </trkpt>
      <trkpt lat="45.94369" lon="3.74484">
        <ele>953</ele>
        <time>2015-08-05T09:23:18Z</time>
      </trkpt>
      <trkpt lat="45.94368" lon="3.74485">
        <ele>953</ele>
        <time>2015-08-05T09:23:26Z</time>
      </trkpt>
      <trkpt lat="45.94367" lon="3.74487">
        <ele>953</ele>
        <time>2015-08-05T09:23:38Z</time>
      </trkpt>
      <trkpt lat="45.94368" lon="3.74489">
        <ele>953</ele>
        <time>2015-08-05T09:23:43Z</time>
      </trkpt>
      <trkpt lat="45.94369" lon="3.74489">
        <ele>953</ele>
        <time>2015-08-05T09:23:45Z</time>
      </trkpt>
      <trkpt lat="45.94367" lon="3.74487">
        <ele>953</ele>
        <time>2015-08-05T09:23:54Z</time>
      </trkpt>
      <trkpt lat="45.94367" lon="3.74486">
        <ele>953</ele>
        <time>2015-08-05T09:24:00Z</time>
      </trkpt>
      <trkpt lat="45.94369" lon="3.74485">
        <ele>953</ele>
        <time>2015-08-05T09:24:04Z</time>
      </trkpt>
      <trkpt lat="45.9437" lon="3.74485">
        <ele>954</ele>
        <time>2015-08-05T09:24:08Z</time>
      </trkpt>
      <trkpt lat="45.94372" lon="3.74487">
        <ele>957</ele>
        <time>2015-08-05T09:24:12Z</time>
      </trkpt>
      <trkpt lat="45.94371" lon="3.74486">
        <ele>959</ele>
        <time>2015-08-05T09:24:22Z</time>
      </trkpt>
      <trkpt lat="45.94372" lon="3.74487">
        <ele>959</ele>
        <time>2015-08-05T09:24:24Z</time>
      </trkpt>
      <trkpt lat="45.94371" lon="3.74489">
        <ele>959</ele>
        <time>2015-08-05T09:24:27Z</time>
      </trkpt>
      <trkpt lat="45.9437" lon="3.74488">
        <ele>959</ele>
        <time>2015-08-05T09:24:29Z</time>
      </trkpt>
      <trkpt lat="45.9437" lon="3.74487">
        <ele>959</ele>
        <time>2015-08-05T09:24:32Z</time>
      </trkpt>
      <trkpt lat="45.94369" lon="3.74485">
        <ele>959</ele>
        <time>2015-08-05T09:24:36Z</time>
      </trkpt>
      <trkpt lat="45.94367" lon="3.74479">
        <ele>959</ele>
        <time>2015-08-05T09:24:42Z</time>
      </trkpt>
      <trkpt lat="45.94367" lon="3.74477">
        <ele>959</ele>
        <time>2015-08-05T09:24:44Z</time>
      </trkpt>
      <trkpt lat="45.94366" lon="3.74474">
        <ele>959</ele>
        <time>2015-08-05T09:24:46Z</time>
      </trkpt>
      <trkpt lat="45.94365" lon="3.74473">
        <ele>959</ele>
        <time>2015-08-05T09:24:48Z</time>
      </trkpt>
      <trkpt lat="45.94363" lon="3.7447">
        <ele>959</ele>
        <time>2015-08-05T09:24:51Z</time>
      </trkpt>
      <trkpt lat="45.9436" lon="3.74464">
        <ele>962</ele>
        <time>2015-08-05T09:24:59Z</time>
      </trkpt>
      <trkpt lat="45.94358" lon="3.74463">
        <ele>962</ele>
        <time>2015-08-05T09:25:01Z</time>
      </trkpt>
      <trkpt lat="45.94357" lon="3.74461">
        <ele>962</ele>
        <time>2015-08-05T09:25:03Z</time>
      </trkpt>
      <trkpt lat="45.94356" lon="3.7446">
        <ele>962</ele>
        <time>2015-08-05T09:25:06Z</time>
      </trkpt>
      <trkpt lat="45.94355" lon="3.74458">
        <ele>962</ele>
        <time>2015-08-05T09:25:11Z</time>
      </trkpt>
      <trkpt lat="45.94353" lon="3.74457">
        <ele>962</ele>
        <time>2015-08-05T09:25:13Z</time>
      </trkpt>
      <trkpt lat="45.94351" lon="3.74454">
        <ele>963</ele>
        <time>2015-08-05T09:25:16Z</time>
      </trkpt>
      <trkpt lat="45.9435" lon="3.74452">
        <ele>964</ele>
        <time>2015-08-05T09:25:21Z</time>
      </trkpt>
      <trkpt lat="45.94348" lon="3.7445">
        <ele>965</ele>
        <time>2015-08-05T09:25:26Z</time>
      </trkpt>
      <trkpt lat="45.94347" lon="3.74447">
        <ele>966</ele>
        <time>2015-08-05T09:25:31Z</time>
      </trkpt>
      <trkpt lat="45.94346" lon="3.74445">
        <ele>967</ele>
        <time>2015-08-05T09:25:33Z</time>
      </trkpt>
      <trkpt lat="45.94344" lon="3.74444">
        <ele>967</ele>
        <time>2015-08-05T09:25:35Z</time>
      </trkpt>
      <trkpt lat="45.94343" lon="3.74444">
        <ele>967</ele>
        <time>2015-08-05T09:25:37Z</time>
      </trkpt>
      <trkpt lat="45.94342" lon="3.74443">
        <ele>967</ele>
        <time>2015-08-05T09:25:39Z</time>
      </trkpt>
      <trkpt lat="45.94342" lon="3.74441">
        <ele>968</ele>
        <time>2015-08-05T09:25:41Z</time>
      </trkpt>
      <trkpt lat="45.94338" lon="3.74439">
        <ele>970</ele>
        <time>2015-08-05T09:25:46Z</time>
      </trkpt>
      <trkpt lat="45.94337" lon="3.7444">
        <ele>971</ele>
        <time>2015-08-05T09:25:48Z</time>
      </trkpt>
      <trkpt lat="45.94334" lon="3.74437">
        <ele>972</ele>
        <time>2015-08-05T09:25:52Z</time>
      </trkpt>
      <trkpt lat="45.94332" lon="3.74438">
        <ele>972</ele>
        <time>2015-08-05T09:25:54Z</time>
      </trkpt>
      <trkpt lat="45.94329" lon="3.74435">
        <ele>972</ele>
        <time>2015-08-05T09:25:59Z</time>
      </trkpt>
      <trkpt lat="45.94327" lon="3.74434">
        <ele>972</ele>
        <time>2015-08-05T09:26:01Z</time>
      </trkpt>
      <trkpt lat="45.94326" lon="3.74432">
        <ele>972</ele>
        <time>2015-08-05T09:26:03Z</time>
      </trkpt>
      <trkpt lat="45.94326" lon="3.7443">
        <ele>972</ele>
        <time>2015-08-05T09:26:06Z</time>
      </trkpt>
      <trkpt lat="45.94328" lon="3.74429">
        <ele>972</ele>
        <time>2015-08-05T09:26:09Z</time>
      </trkpt>
      <trkpt lat="45.94327" lon="3.74428">
        <ele>972</ele>
        <time>2015-08-05T09:26:12Z</time>
      </trkpt>
      <trkpt lat="45.94322" lon="3.74422">
        <ele>977</ele>
        <time>2015-08-05T09:26:22Z</time>
      </trkpt>
      <trkpt lat="45.94318" lon="3.7442">
        <ele>979</ele>
        <time>2015-08-05T09:26:27Z</time>
      </trkpt>
      <trkpt lat="45.94312" lon="3.74416">
        <ele>979</ele>
        <time>2015-08-05T09:26:32Z</time>
      </trkpt>
      <trkpt lat="45.94305" lon="3.7441">
        <ele>979</ele>
        <time>2015-08-05T09:26:40Z</time>
      </trkpt>
      <trkpt lat="45.94302" lon="3.74409">
        <ele>979</ele>
        <time>2015-08-05T09:26:43Z</time>
      </trkpt>
      <trkpt lat="45.94296" lon="3.74404">
        <ele>977</ele>
        <time>2015-08-05T09:26:51Z</time>
      </trkpt>
      <trkpt lat="45.94292" lon="3.74403">
        <ele>977</ele>
        <time>2015-08-05T09:26:55Z</time>
      </trkpt>
      <trkpt lat="45.9429" lon="3.74401">
        <ele>976</ele>
        <time>2015-08-05T09:26:57Z</time>
      </trkpt>
      <trkpt lat="45.94287" lon="3.74402">
        <ele>975</ele>
        <time>2015-08-05T09:27:03Z</time>
      </trkpt>
      <trkpt lat="45.94284" lon="3.744">
        <ele>975</ele>
        <time>2015-08-05T09:27:10Z</time>
      </trkpt>
      <trkpt lat="45.94283" lon="3.744">
        <ele>975</ele>
        <time>2015-08-05T09:27:16Z</time>
      </trkpt>
      <trkpt lat="45.9428" lon="3.74402">
        <ele>975</ele>
        <time>2015-08-05T09:27:22Z</time>
      </trkpt>
      <trkpt lat="45.94276" lon="3.74403">
        <ele>976</ele>
        <time>2015-08-05T09:27:26Z</time>
      </trkpt>
      <trkpt lat="45.94273" lon="3.74403">
        <ele>979</ele>
        <time>2015-08-05T09:27:30Z</time>
      </trkpt>
      <trkpt lat="45.94272" lon="3.74401">
        <ele>983</ele>
        <time>2015-08-05T09:27:35Z</time>
      </trkpt>
      <trkpt lat="45.9427" lon="3.74402">
        <ele>984</ele>
        <time>2015-08-05T09:27:37Z</time>
      </trkpt>
      <trkpt lat="45.94265" lon="3.74399">
        <ele>985</ele>
        <time>2015-08-05T09:27:47Z</time>
      </trkpt>
      <trkpt lat="45.94263" lon="3.74401">
        <ele>985</ele>
        <time>2015-08-05T09:27:50Z</time>
      </trkpt>
      <trkpt lat="45.94262" lon="3.74402">
        <ele>985</ele>
        <time>2015-08-05T09:27:52Z</time>
      </trkpt>
      <trkpt lat="45.9426" lon="3.74403">
        <ele>985</ele>
        <time>2015-08-05T09:27:55Z</time>
      </trkpt>
      <trkpt lat="45.94256" lon="3.74405">
        <ele>985</ele>
        <time>2015-08-05T09:27:58Z</time>
      </trkpt>
      <trkpt lat="45.94254" lon="3.74408">
        <ele>985</ele>
        <time>2015-08-05T09:28:00Z</time>
      </trkpt>
      <trkpt lat="45.94252" lon="3.74409">
        <ele>985</ele>
        <time>2015-08-05T09:28:02Z</time>
      </trkpt>
      <trkpt lat="45.94247" lon="3.74409">
        <ele>985</ele>
        <time>2015-08-05T09:28:06Z</time>
      </trkpt>
      <trkpt lat="45.94246" lon="3.74409">
        <ele>985</ele>
        <time>2015-08-05T09:28:08Z</time>
      </trkpt>
      <trkpt lat="45.94244" lon="3.74411">
        <ele>985</ele>
        <time>2015-08-05T09:28:11Z</time>
      </trkpt>
      <trkpt lat="45.94241" lon="3.74411">
        <ele>985</ele>
        <time>2015-08-05T09:28:13Z</time>
      </trkpt>
      <trkpt lat="45.9424" lon="3.74414">
        <ele>985</ele>
        <time>2015-08-05T09:28:16Z</time>
      </trkpt>
      <trkpt lat="45.94237" lon="3.74415">
        <ele>985</ele>
        <time>2015-08-05T09:28:18Z</time>
      </trkpt>
      <trkpt lat="45.94235" lon="3.74418">
        <ele>985</ele>
        <time>2015-08-05T09:28:22Z</time>
      </trkpt>
      <trkpt lat="45.94233" lon="3.74419">
        <ele>985</ele>
        <time>2015-08-05T09:28:25Z</time>
      </trkpt>
      <trkpt lat="45.94227" lon="3.7442">
        <ele>985</ele>
        <time>2015-08-05T09:28:29Z</time>
      </trkpt>
      <trkpt lat="45.94225" lon="3.74422">
        <ele>985</ele>
        <time>2015-08-05T09:28:31Z</time>
      </trkpt>
      <trkpt lat="45.94222" lon="3.74423">
        <ele>985</ele>
        <time>2015-08-05T09:28:34Z</time>
      </trkpt>
      <trkpt lat="45.94218" lon="3.74423">
        <ele>985</ele>
        <time>2015-08-05T09:28:37Z</time>
      </trkpt>
      <trkpt lat="45.94214" lon="3.74423">
        <ele>986</ele>
        <time>2015-08-05T09:28:41Z</time>
      </trkpt>
      <trkpt lat="45.9421" lon="3.74423">
        <ele>986</ele>
        <time>2015-08-05T09:28:43Z</time>
      </trkpt>
      <trkpt lat="45.94206" lon="3.74423">
        <ele>987</ele>
        <time>2015-08-05T09:28:46Z</time>
      </trkpt>
      <trkpt lat="45.94203" lon="3.74424">
        <ele>988</ele>
        <time>2015-08-05T09:28:49Z</time>
      </trkpt>
      <trkpt lat="45.94198" lon="3.74424">
        <ele>989</ele>
        <time>2015-08-05T09:28:53Z</time>
      </trkpt>
      <trkpt lat="45.94194" lon="3.74427">
        <ele>990</ele>
        <time>2015-08-05T09:28:59Z</time>
      </trkpt>
      <trkpt lat="45.94189" lon="3.74428">
        <ele>990</ele>
        <time>2015-08-05T09:29:02Z</time>
      </trkpt>
      <trkpt lat="45.94187" lon="3.74427">
        <ele>990</ele>
        <time>2015-08-05T09:29:04Z</time>
      </trkpt>
      <trkpt lat="45.94184" lon="3.74429">
        <ele>990</ele>
        <time>2015-08-05T09:29:09Z</time>
      </trkpt>
      <trkpt lat="45.94178" lon="3.7443">
        <ele>990</ele>
        <time>2015-08-05T09:29:15Z</time>
      </trkpt>
      <trkpt lat="45.94177" lon="3.74428">
        <ele>990</ele>
        <time>2015-08-05T09:29:18Z</time>
      </trkpt>
      <trkpt lat="45.94174" lon="3.74426">
        <ele>991</ele>
        <time>2015-08-05T09:29:22Z</time>
      </trkpt>
      <trkpt lat="45.94172" lon="3.74427">
        <ele>991</ele>
        <time>2015-08-05T09:29:24Z</time>
      </trkpt>
      <trkpt lat="45.94169" lon="3.74425">
        <ele>991</ele>
        <time>2015-08-05T09:29:29Z</time>
      </trkpt>
      <trkpt lat="45.94169" lon="3.74423">
        <ele>991</ele>
        <time>2015-08-05T09:29:32Z</time>
      </trkpt>
      <trkpt lat="45.94169" lon="3.74422">
        <ele>991</ele>
        <time>2015-08-05T09:29:35Z</time>
      </trkpt>
      <trkpt lat="45.94167" lon="3.74418">
        <ele>993</ele>
        <time>2015-08-05T09:29:39Z</time>
      </trkpt>
      <trkpt lat="45.94162" lon="3.74416">
        <ele>996</ele>
        <time>2015-08-05T09:29:43Z</time>
      </trkpt>
      <trkpt lat="45.9416" lon="3.74417">
        <ele>996</ele>
        <time>2015-08-05T09:29:49Z</time>
      </trkpt>
      <trkpt lat="45.94159" lon="3.74415">
        <ele>997</ele>
        <time>2015-08-05T09:29:54Z</time>
      </trkpt>
      <trkpt lat="45.94158" lon="3.74415">
        <ele>998</ele>
        <time>2015-08-05T09:29:57Z</time>
      </trkpt>
      <trkpt lat="45.94154" lon="3.74413">
        <ele>999</ele>
        <time>2015-08-05T09:30:00Z</time>
      </trkpt>
      <trkpt lat="45.94151" lon="3.74411">
        <ele>999</ele>
        <time>2015-08-05T09:30:04Z</time>
      </trkpt>
      <trkpt lat="45.94148" lon="3.74411">
        <ele>999</ele>
        <time>2015-08-05T09:30:08Z</time>
      </trkpt>
      <trkpt lat="45.94146" lon="3.7441">
        <ele>999</ele>
        <time>2015-08-05T09:30:10Z</time>
      </trkpt>
      <trkpt lat="45.94144" lon="3.74408">
        <ele>999</ele>
        <time>2015-08-05T09:30:12Z</time>
      </trkpt>
      <trkpt lat="45.94141" lon="3.74406">
        <ele>999</ele>
        <time>2015-08-05T09:30:22Z</time>
      </trkpt>
      <trkpt lat="45.9414" lon="3.74404">
        <ele>999</ele>
        <time>2015-08-05T09:30:25Z</time>
      </trkpt>
      <trkpt lat="45.94136" lon="3.744">
        <ele>1000</ele>
        <time>2015-08-05T09:30:32Z</time>
      </trkpt>
      <trkpt lat="45.94135" lon="3.744">
        <ele>1001</ele>
        <time>2015-08-05T09:30:34Z</time>
      </trkpt>
      <trkpt lat="45.94133" lon="3.74396">
        <ele>1002</ele>
        <time>2015-08-05T09:30:43Z</time>
      </trkpt>
      <trkpt lat="45.94131" lon="3.74393">
        <ele>1003</ele>
        <time>2015-08-05T09:30:48Z</time>
      </trkpt>
      <trkpt lat="45.94128" lon="3.74391">
        <ele>1004</ele>
        <time>2015-08-05T09:30:51Z</time>
      </trkpt>
      <trkpt lat="45.94128" lon="3.74389">
        <ele>1005</ele>
        <time>2015-08-05T09:30:53Z</time>
      </trkpt>
      <trkpt lat="45.94128" lon="3.74391">
        <ele>1005</ele>
        <time>2015-08-05T09:30:56Z</time>
      </trkpt>
      <trkpt lat="45.94126" lon="3.74391">
        <ele>1006</ele>
        <time>2015-08-05T09:30:59Z</time>
      </trkpt>
      <trkpt lat="45.94125" lon="3.74389">
        <ele>1007</ele>
        <time>2015-08-05T09:31:02Z</time>
      </trkpt>
      <trkpt lat="45.94123" lon="3.74389">
        <ele>1007</ele>
        <time>2015-08-05T09:31:04Z</time>
      </trkpt>
      <trkpt lat="45.94122" lon="3.74388">
        <ele>1008</ele>
        <time>2015-08-05T09:31:08Z</time>
      </trkpt>
      <trkpt lat="45.94118" lon="3.74385">
        <ele>1008</ele>
        <time>2015-08-05T09:31:13Z</time>
      </trkpt>
      <trkpt lat="45.94115" lon="3.74385">
        <ele>1009</ele>
        <time>2015-08-05T09:31:15Z</time>
      </trkpt>
      <trkpt lat="45.94113" lon="3.74382">
        <ele>1009</ele>
        <time>2015-08-05T09:31:18Z</time>
      </trkpt>
      <trkpt lat="45.94112" lon="3.74383">
        <ele>1009</ele>
        <time>2015-08-05T09:31:22Z</time>
      </trkpt>
      <trkpt lat="45.94104" lon="3.7438">
        <ele>1009</ele>
        <time>2015-08-05T09:31:29Z</time>
      </trkpt>
      <trkpt lat="45.94103" lon="3.74378">
        <ele>1010</ele>
        <time>2015-08-05T09:31:34Z</time>
      </trkpt>
      <trkpt lat="45.94094" lon="3.74377">
        <ele>1011</ele>
        <time>2015-08-05T09:31:40Z</time>
      </trkpt>
      <trkpt lat="45.94093" lon="3.74375">
        <ele>1011</ele>
        <time>2015-08-05T09:31:48Z</time>
      </trkpt>
      <trkpt lat="45.94091" lon="3.74374">
        <ele>1011</ele>
        <time>2015-08-05T09:31:51Z</time>
      </trkpt>
      <trkpt lat="45.94089" lon="3.74374">
        <ele>1011</ele>
        <time>2015-08-05T09:31:53Z</time>
      </trkpt>
      <trkpt lat="45.94086" lon="3.74371">
        <ele>1011</ele>
        <time>2015-08-05T09:31:56Z</time>
      </trkpt>
      <trkpt lat="45.94085" lon="3.7437">
        <ele>1011</ele>
        <time>2015-08-05T09:31:58Z</time>
      </trkpt>
      <trkpt lat="45.94084" lon="3.74369">
        <ele>1012</ele>
        <time>2015-08-05T09:32:01Z</time>
      </trkpt>
      <trkpt lat="45.94081" lon="3.74368">
        <ele>1013</ele>
        <time>2015-08-05T09:32:03Z</time>
      </trkpt>
      <trkpt lat="45.9408" lon="3.74366">
        <ele>1013</ele>
        <time>2015-08-05T09:32:08Z</time>
      </trkpt>
      <trkpt lat="45.94078" lon="3.74365">
        <ele>1013</ele>
        <time>2015-08-05T09:32:14Z</time>
      </trkpt>
      <trkpt lat="45.94076" lon="3.74363">
        <ele>1014</ele>
        <time>2015-08-05T09:32:16Z</time>
      </trkpt>
      <trkpt lat="45.94072" lon="3.74362">
        <ele>1015</ele>
        <time>2015-08-05T09:32:21Z</time>
      </trkpt>
      <trkpt lat="45.94066" lon="3.74357">
        <ele>1017</ele>
        <time>2015-08-05T09:32:27Z</time>
      </trkpt>
      <trkpt lat="45.94064" lon="3.74353">
        <ele>1018</ele>
        <time>2015-08-05T09:32:32Z</time>
      </trkpt>
      <trkpt lat="45.94065" lon="3.74352">
        <ele>1019</ele>
        <time>2015-08-05T09:32:35Z</time>
      </trkpt>
      <trkpt lat="45.9406" lon="3.74346">
        <ele>1019</ele>
        <time>2015-08-05T09:32:46Z</time>
      </trkpt>
      <trkpt lat="45.94059" lon="3.74344">
        <ele>1019</ele>
        <time>2015-08-05T09:32:48Z</time>
      </trkpt>
      <trkpt lat="45.94058" lon="3.74344">
        <ele>1019</ele>
        <time>2015-08-05T09:32:50Z</time>
      </trkpt>
      <trkpt lat="45.94054" lon="3.7434">
        <ele>1019</ele>
        <time>2015-08-05T09:32:55Z</time>
      </trkpt>
      <trkpt lat="45.94052" lon="3.74339">
        <ele>1019</ele>
        <time>2015-08-05T09:33:00Z</time>
      </trkpt>
      <trkpt lat="45.94052" lon="3.74337">
        <ele>1019</ele>
        <time>2015-08-05T09:33:06Z</time>
      </trkpt>
      <trkpt lat="45.9405" lon="3.74335">
        <ele>1022</ele>
        <time>2015-08-05T09:33:09Z</time>
      </trkpt>
      <trkpt lat="45.94048" lon="3.74334">
        <ele>1022</ele>
        <time>2015-08-05T09:33:11Z</time>
      </trkpt>
      <trkpt lat="45.94046" lon="3.74331">
        <ele>1023</ele>
        <time>2015-08-05T09:33:16Z</time>
      </trkpt>
      <trkpt lat="45.94041" lon="3.74327">
        <ele>1023</ele>
        <time>2015-08-05T09:33:22Z</time>
      </trkpt>
      <trkpt lat="45.94042" lon="3.74325">
        <ele>1023</ele>
        <time>2015-08-05T09:33:24Z</time>
      </trkpt>
      <trkpt lat="45.94041" lon="3.74324">
        <ele>1023</ele>
        <time>2015-08-05T09:33:27Z</time>
      </trkpt>
      <trkpt lat="45.94037" lon="3.74321">
        <ele>1023</ele>
        <time>2015-08-05T09:33:38Z</time>
      </trkpt>
      <trkpt lat="45.94035" lon="3.7432">
        <ele>1023</ele>
        <time>2015-08-05T09:33:40Z</time>
      </trkpt>
      <trkpt lat="45.94035" lon="3.74316">
        <ele>1024</ele>
        <time>2015-08-05T09:33:48Z</time>
      </trkpt>
      <trkpt lat="45.94033" lon="3.74315">
        <ele>1025</ele>
        <time>2015-08-05T09:33:51Z</time>
      </trkpt>
      <trkpt lat="45.94029" lon="3.74313">
        <ele>1025</ele>
        <time>2015-08-05T09:33:55Z</time>
      </trkpt>
      <trkpt lat="45.94029" lon="3.74317">
        <ele>1028</ele>
        <time>2015-08-05T09:34:02Z</time>
      </trkpt>
      <trkpt lat="45.94024" lon="3.74312">
        <ele>1028</ele>
        <time>2015-08-05T09:34:10Z</time>
      </trkpt>
      <trkpt lat="45.94024" lon="3.74309">
        <ele>1028</ele>
        <time>2015-08-05T09:34:12Z</time>
      </trkpt>
      <trkpt lat="45.94021" lon="3.74307">
        <ele>1028</ele>
        <time>2015-08-05T09:34:14Z</time>
      </trkpt>
      <trkpt lat="45.94014" lon="3.74301">
        <ele>1028</ele>
        <time>2015-08-05T09:34:22Z</time>
      </trkpt>
      <trkpt lat="45.94013" lon="3.74301">
        <ele>1028</ele>
        <time>2015-08-05T09:34:32Z</time>
      </trkpt>
      <trkpt lat="45.94015" lon="3.74301">
        <ele>1028</ele>
        <time>2015-08-05T09:34:45Z</time>
      </trkpt>
      <trkpt lat="45.94016" lon="3.74301">
        <ele>1026</ele>
        <time>2015-08-05T09:34:52Z</time>
      </trkpt>
      <trkpt lat="45.94017" lon="3.74297">
        <ele>1025</ele>
        <time>2015-08-05T09:34:56Z</time>
      </trkpt>
      <trkpt lat="45.94015" lon="3.74294">
        <ele>1024</ele>
        <time>2015-08-05T09:34:59Z</time>
      </trkpt>
      <trkpt lat="45.94013" lon="3.74291">
        <ele>1024</ele>
        <time>2015-08-05T09:35:03Z</time>
      </trkpt>
      <trkpt lat="45.94013" lon="3.74289">
        <ele>1024</ele>
        <time>2015-08-05T09:35:05Z</time>
      </trkpt>
      <trkpt lat="45.94006" lon="3.74284">
        <ele>1024</ele>
        <time>2015-08-05T09:35:12Z</time>
      </trkpt>
      <trkpt lat="45.94005" lon="3.74281">
        <ele>1024</ele>
        <time>2015-08-05T09:35:14Z</time>
      </trkpt>
      <trkpt lat="45.94004" lon="3.74278">
        <ele>1024</ele>
        <time>2015-08-05T09:35:16Z</time>
      </trkpt>
      <trkpt lat="45.94003" lon="3.74275">
        <ele>1024</ele>
        <time>2015-08-05T09:35:18Z</time>
      </trkpt>
      <trkpt lat="45.93998" lon="3.74273">
        <ele>1027</ele>
        <time>2015-08-05T09:35:22Z</time>
      </trkpt>
      <trkpt lat="45.93997" lon="3.74271">
        <ele>1029</ele>
        <time>2015-08-05T09:35:24Z</time>
      </trkpt>
      <trkpt lat="45.93995" lon="3.74267">
        <ele>1031</ele>
        <time>2015-08-05T09:35:27Z</time>
      </trkpt>
      <trkpt lat="45.9399" lon="3.74261">
        <ele>1032</ele>
        <time>2015-08-05T09:35:35Z</time>
      </trkpt>
      <trkpt lat="45.93989" lon="3.74259">
        <ele>1032</ele>
        <time>2015-08-05T09:35:37Z</time>
      </trkpt>
      <trkpt lat="45.93988" lon="3.74258">
        <ele>1032</ele>
        <time>2015-08-05T09:35:40Z</time>
      </trkpt>
      <trkpt lat="45.93987" lon="3.74257">
        <ele>1032</ele>
        <time>2015-08-05T09:35:42Z</time>
      </trkpt>
      <trkpt lat="45.93983" lon="3.74255">
        <ele>1032</ele>
        <time>2015-08-05T09:35:46Z</time>
      </trkpt>
      <trkpt lat="45.93981" lon="3.74253">
        <ele>1032</ele>
        <time>2015-08-05T09:35:48Z</time>
      </trkpt>
      <trkpt lat="45.9398" lon="3.74253">
        <ele>1032</ele>
        <time>2015-08-05T09:35:50Z</time>
      </trkpt>
      <trkpt lat="45.93975" lon="3.74248">
        <ele>1032</ele>
        <time>2015-08-05T09:35:56Z</time>
      </trkpt>
      <trkpt lat="45.9397" lon="3.74244">
        <ele>1032</ele>
        <time>2015-08-05T09:36:02Z</time>
      </trkpt>
      <trkpt lat="45.93969" lon="3.74241">
        <ele>1032</ele>
        <time>2015-08-05T09:36:04Z</time>
      </trkpt>
      <trkpt lat="45.93965" lon="3.74238">
        <ele>1032</ele>
        <time>2015-08-05T09:36:07Z</time>
      </trkpt>
      <trkpt lat="45.93964" lon="3.74236">
        <ele>1033</ele>
        <time>2015-08-05T09:36:09Z</time>
      </trkpt>
      <trkpt lat="45.93963" lon="3.74236">
        <ele>1033</ele>
        <time>2015-08-05T09:36:11Z</time>
      </trkpt>
      <trkpt lat="45.93963" lon="3.74238">
        <ele>1035</ele>
        <time>2015-08-05T09:36:18Z</time>
      </trkpt>
      <trkpt lat="45.93964" lon="3.74241">
        <ele>1037</ele>
        <time>2015-08-05T09:36:23Z</time>
      </trkpt>
      <trkpt lat="45.93962" lon="3.74241">
        <ele>1038</ele>
        <time>2015-08-05T09:36:26Z</time>
      </trkpt>
      <trkpt lat="45.93961" lon="3.74239">
        <ele>1039</ele>
        <time>2015-08-05T09:36:29Z</time>
      </trkpt>
      <trkpt lat="45.93961" lon="3.74242">
        <ele>1039</ele>
        <time>2015-08-05T09:36:44Z</time>
      </trkpt>
      <trkpt lat="45.93961" lon="3.74244">
        <ele>1039</ele>
        <time>2015-08-05T09:37:06Z</time>
      </trkpt>
      <trkpt lat="45.9396" lon="3.74245">
        <ele>1038</ele>
        <time>2015-08-05T09:37:17Z</time>
      </trkpt>
      <trkpt lat="45.93961" lon="3.74245">
        <ele>1038</ele>
        <time>2015-08-05T09:37:23Z</time>
      </trkpt>
      <trkpt lat="45.93962" lon="3.74243">
        <ele>1038</ele>
        <time>2015-08-05T09:37:30Z</time>
      </trkpt>
      <trkpt lat="45.93961" lon="3.74242">
        <ele>1038</ele>
        <time>2015-08-05T09:37:38Z</time>
      </trkpt>
      <trkpt lat="45.93964" lon="3.74243">
        <ele>1038</ele>
        <time>2015-08-05T09:38:06Z</time>
      </trkpt>
      <trkpt lat="45.93968" lon="3.74243">
        <ele>1038</ele>
        <time>2015-08-05T09:38:16Z</time>
      </trkpt>
      <trkpt lat="45.9397" lon="3.74242">
        <ele>1037</ele>
        <time>2015-08-05T09:39:33Z</time>
      </trkpt>
      <trkpt lat="45.9397" lon="3.74244">
        <ele>1037</ele>
        <time>2015-08-05T09:39:44Z</time>
      </trkpt>
      <trkpt lat="45.93969" lon="3.74245">
        <ele>1037</ele>
        <time>2015-08-05T09:39:58Z</time>
      </trkpt>
      <trkpt lat="45.93968" lon="3.74245">
        <ele>1037</ele>
        <time>2015-08-05T09:40:11Z</time>
      </trkpt>
      <trkpt lat="45.93967" lon="3.74244">
        <ele>1037</ele>
        <time>2015-08-05T09:40:19Z</time>
      </trkpt>
      <trkpt lat="45.93966" lon="3.74246">
        <ele>1037</ele>
        <time>2015-08-05T09:40:28Z</time>
      </trkpt>
      <trkpt lat="45.93966" lon="3.74248">
        <ele>1037</ele>
        <time>2015-08-05T09:40:39Z</time>
      </trkpt>
      <trkpt lat="45.93966" lon="3.74246">
        <ele>1037</ele>
        <time>2015-08-05T09:40:59Z</time>
      </trkpt>
      <trkpt lat="45.93965" lon="3.74248">
        <ele>1037</ele>
        <time>2015-08-05T09:41:03Z</time>
      </trkpt>
      <trkpt lat="45.93965" lon="3.74249">
        <ele>1036</ele>
        <time>2015-08-05T09:41:06Z</time>
      </trkpt>
      <trkpt lat="45.93965" lon="3.74248">
        <ele>1035</ele>
        <time>2015-08-05T09:41:14Z</time>
      </trkpt>
      <trkpt lat="45.93964" lon="3.74248">
        <ele>1035</ele>
        <time>2015-08-05T09:41:22Z</time>
      </trkpt>
      <trkpt lat="45.93963" lon="3.74247">
        <ele>1035</ele>
        <time>2015-08-05T09:41:40Z</time>
      </trkpt>
      <trkpt lat="45.93964" lon="3.74247">
        <ele>1035</ele>
        <time>2015-08-05T09:41:43Z</time>
      </trkpt>
      <trkpt lat="45.93964" lon="3.74248">
        <ele>1036</ele>
        <time>2015-08-05T09:41:53Z</time>
      </trkpt>
      <trkpt lat="45.93964" lon="3.74247">
        <ele>1037</ele>
        <time>2015-08-05T09:41:59Z</time>
      </trkpt>
      <trkpt lat="45.93962" lon="3.74243">
        <ele>1037</ele>
        <time>2015-08-05T09:42:06Z</time>
      </trkpt>
      <trkpt lat="45.93959" lon="3.74238">
        <ele>1037</ele>
        <time>2015-08-05T09:42:10Z</time>
      </trkpt>
      <trkpt lat="45.93959" lon="3.74236">
        <ele>1037</ele>
        <time>2015-08-05T09:42:12Z</time>
      </trkpt>
      <trkpt lat="45.93958" lon="3.74234">
        <ele>1037</ele>
        <time>2015-08-05T09:42:14Z</time>
      </trkpt>
      <trkpt lat="45.93956" lon="3.74232">
        <ele>1037</ele>
        <time>2015-08-05T09:42:16Z</time>
      </trkpt>
      <trkpt lat="45.93956" lon="3.7423">
        <ele>1037</ele>
        <time>2015-08-05T09:42:19Z</time>
      </trkpt>
      <trkpt lat="45.93953" lon="3.74227">
        <ele>1037</ele>
        <time>2015-08-05T09:42:23Z</time>
      </trkpt>
      <trkpt lat="45.93953" lon="3.74226">
        <ele>1037</ele>
        <time>2015-08-05T09:42:25Z</time>
      </trkpt>
      <trkpt lat="45.93951" lon="3.74224">
        <ele>1037</ele>
        <time>2015-08-05T09:42:28Z</time>
      </trkpt>
      <trkpt lat="45.93949" lon="3.7422">
        <ele>1037</ele>
        <time>2015-08-05T09:42:33Z</time>
      </trkpt>
      <trkpt lat="45.93948" lon="3.74217">
        <ele>1037</ele>
        <time>2015-08-05T09:42:35Z</time>
      </trkpt>
      <trkpt lat="45.93946" lon="3.74215">
        <ele>1037</ele>
        <time>2015-08-05T09:42:37Z</time>
      </trkpt>
      <trkpt lat="45.93941" lon="3.74209">
        <ele>1037</ele>
        <time>2015-08-05T09:42:43Z</time>
      </trkpt>
      <trkpt lat="45.9394" lon="3.74208">
        <ele>1037</ele>
        <time>2015-08-05T09:42:45Z</time>
      </trkpt>
      <trkpt lat="45.93939" lon="3.74206">
        <ele>1037</ele>
        <time>2015-08-05T09:42:47Z</time>
      </trkpt>
      <trkpt lat="45.93937" lon="3.74203">
        <ele>1036</ele>
        <time>2015-08-05T09:42:49Z</time>
      </trkpt>
      <trkpt lat="45.93936" lon="3.742">
        <ele>1036</ele>
        <time>2015-08-05T09:42:51Z</time>
      </trkpt>
      <trkpt lat="45.93935" lon="3.74197">
        <ele>1035</ele>
        <time>2015-08-05T09:42:55Z</time>
      </trkpt>
      <trkpt lat="45.93934" lon="3.74196">
        <ele>1035</ele>
        <time>2015-08-05T09:42:57Z</time>
      </trkpt>
      <trkpt lat="45.93933" lon="3.74194">
        <ele>1035</ele>
        <time>2015-08-05T09:42:59Z</time>
      </trkpt>
      <trkpt lat="45.93932" lon="3.7419">
        <ele>1035</ele>
        <time>2015-08-05T09:43:01Z</time>
      </trkpt>
      <trkpt lat="45.93931" lon="3.74186">
        <ele>1035</ele>
        <time>2015-08-05T09:43:03Z</time>
      </trkpt>
      <trkpt lat="45.93931" lon="3.74184">
        <ele>1035</ele>
        <time>2015-08-05T09:43:05Z</time>
      </trkpt>
      <trkpt lat="45.93929" lon="3.74181">
        <ele>1035</ele>
        <time>2015-08-05T09:43:07Z</time>
      </trkpt>
      <trkpt lat="45.93928" lon="3.74179">
        <ele>1035</ele>
        <time>2015-08-05T09:43:09Z</time>
      </trkpt>
      <trkpt lat="45.93924" lon="3.74172">
        <ele>1035</ele>
        <time>2015-08-05T09:43:14Z</time>
      </trkpt>
      <trkpt lat="45.93922" lon="3.74169">
        <ele>1035</ele>
        <time>2015-08-05T09:43:17Z</time>
      </trkpt>
      <trkpt lat="45.93921" lon="3.74166">
        <ele>1035</ele>
        <time>2015-08-05T09:43:19Z</time>
      </trkpt>
      <trkpt lat="45.93919" lon="3.74164">
        <ele>1035</ele>
        <time>2015-08-05T09:43:21Z</time>
      </trkpt>
      <trkpt lat="45.93916" lon="3.7416">
        <ele>1035</ele>
        <time>2015-08-05T09:43:25Z</time>
      </trkpt>
      <trkpt lat="45.93912" lon="3.74156">
        <ele>1037</ele>
        <time>2015-08-05T09:43:30Z</time>
      </trkpt>
      <trkpt lat="45.93911" lon="3.74154">
        <ele>1037</ele>
        <time>2015-08-05T09:43:32Z</time>
      </trkpt>
      <trkpt lat="45.93909" lon="3.7415">
        <ele>1038</ele>
        <time>2015-08-05T09:43:35Z</time>
      </trkpt>
      <trkpt lat="45.9391" lon="3.74148">
        <ele>1038</ele>
        <time>2015-08-05T09:43:42Z</time>
      </trkpt>
      <trkpt lat="45.93913" lon="3.74145">
        <ele>1036</ele>
        <time>2015-08-05T09:43:46Z</time>
      </trkpt>
      <trkpt lat="45.93914" lon="3.74145">
        <ele>1036</ele>
        <time>2015-08-05T09:43:49Z</time>
      </trkpt>
      <trkpt lat="45.93909" lon="3.74147">
        <ele>1036</ele>
        <time>2015-08-05T09:43:56Z</time>
      </trkpt>
      <trkpt lat="45.93908" lon="3.74146">
        <ele>1036</ele>
        <time>2015-08-05T09:43:58Z</time>
      </trkpt>
      <trkpt lat="45.93905" lon="3.74147">
        <ele>1036</ele>
        <time>2015-08-05T09:44:03Z</time>
      </trkpt>
      <trkpt lat="45.93907" lon="3.74148">
        <ele>1036</ele>
        <time>2015-08-05T09:44:06Z</time>
      </trkpt>
      <trkpt lat="45.93907" lon="3.74151">
        <ele>1037</ele>
        <time>2015-08-05T09:44:12Z</time>
      </trkpt>
      <trkpt lat="45.93908" lon="3.74151">
        <ele>1038</ele>
        <time>2015-08-05T09:44:15Z</time>
      </trkpt>
      <trkpt lat="45.93911" lon="3.7415">
        <ele>1039</ele>
        <time>2015-08-05T09:44:21Z</time>
      </trkpt>
      <trkpt lat="45.93915" lon="3.7415">
        <ele>1039</ele>
        <time>2015-08-05T09:44:37Z</time>
      </trkpt>
      <trkpt lat="45.93917" lon="3.74149">
        <ele>1040</ele>
        <time>2015-08-05T09:44:42Z</time>
      </trkpt>
      <trkpt lat="45.93916" lon="3.74148">
        <ele>1042</ele>
        <time>2015-08-05T09:44:48Z</time>
      </trkpt>
      <trkpt lat="45.93914" lon="3.74149">
        <ele>1043</ele>
        <time>2015-08-05T09:44:51Z</time>
      </trkpt>
      <trkpt lat="45.93913" lon="3.74148">
        <ele>1043</ele>
        <time>2015-08-05T09:44:54Z</time>
      </trkpt>
      <trkpt lat="45.93911" lon="3.74149">
        <ele>1043</ele>
        <time>2015-08-05T09:44:57Z</time>
      </trkpt>
      <trkpt lat="45.9391" lon="3.7415">
        <ele>1043</ele>
        <time>2015-08-05T09:45:01Z</time>
      </trkpt>
      <trkpt lat="45.93908" lon="3.74149">
        <ele>1043</ele>
        <time>2015-08-05T09:45:05Z</time>
      </trkpt>
      <trkpt lat="45.93908" lon="3.74147">
        <ele>1043</ele>
        <time>2015-08-05T09:45:08Z</time>
      </trkpt>
      <trkpt lat="45.93907" lon="3.74146">
        <ele>1043</ele>
        <time>2015-08-05T09:45:12Z</time>
      </trkpt>
      <trkpt lat="45.93906" lon="3.74146">
        <ele>1043</ele>
        <time>2015-08-05T09:45:14Z</time>
      </trkpt>
      <trkpt lat="45.93907" lon="3.74148">
        <ele>1043</ele>
        <time>2015-08-05T09:45:19Z</time>
      </trkpt>
      <trkpt lat="45.93906" lon="3.7415">
        <ele>1043</ele>
        <time>2015-08-05T09:45:26Z</time>
      </trkpt>
      <trkpt lat="45.93908" lon="3.74151">
        <ele>1043</ele>
        <time>2015-08-05T09:45:32Z</time>
      </trkpt>
      <trkpt lat="45.93909" lon="3.74152">
        <ele>1043</ele>
        <time>2015-08-05T09:45:34Z</time>
      </trkpt>
      <trkpt lat="45.9391" lon="3.7415">
        <ele>1043</ele>
        <time>2015-08-05T09:45:38Z</time>
      </trkpt>
      <trkpt lat="45.93908" lon="3.7415">
        <ele>1043</ele>
        <time>2015-08-05T09:45:41Z</time>
      </trkpt>
      <trkpt lat="45.93907" lon="3.7415">
        <ele>1043</ele>
        <time>2015-08-05T09:45:43Z</time>
      </trkpt>
      <trkpt lat="45.93908" lon="3.74149">
        <ele>1043</ele>
        <time>2015-08-05T09:45:48Z</time>
      </trkpt>
      <trkpt lat="45.93909" lon="3.74152">
        <ele>1045</ele>
        <time>2015-08-05T09:45:51Z</time>
      </trkpt>
      <trkpt lat="45.93908" lon="3.74155">
        <ele>1048</ele>
        <time>2015-08-05T09:45:55Z</time>
      </trkpt>
      <trkpt lat="45.93907" lon="3.74154">
        <ele>1050</ele>
        <time>2015-08-05T09:46:01Z</time>
      </trkpt>
      <trkpt lat="45.93908" lon="3.74152">
        <ele>1050</ele>
        <time>2015-08-05T09:46:05Z</time>
      </trkpt>
      <trkpt lat="45.93906" lon="3.74156">
        <ele>1050</ele>
        <time>2015-08-05T09:46:16Z</time>
      </trkpt>
      <trkpt lat="45.93906" lon="3.7416">
        <ele>1050</ele>
        <time>2015-08-05T09:46:24Z</time>
      </trkpt>
      <trkpt lat="45.93908" lon="3.74159">
        <ele>1050</ele>
        <time>2015-08-05T09:46:30Z</time>
      </trkpt>
      <trkpt lat="45.93908" lon="3.74157">
        <ele>1050</ele>
        <time>2015-08-05T09:46:33Z</time>
      </trkpt>
      <trkpt lat="45.9391" lon="3.74154">
        <ele>1050</ele>
        <time>2015-08-05T09:46:38Z</time>
      </trkpt>
      <trkpt lat="45.93911" lon="3.7415">
        <ele>1050</ele>
        <time>2015-08-05T09:46:42Z</time>
      </trkpt>
      <trkpt lat="45.9391" lon="3.74149">
        <ele>1050</ele>
        <time>2015-08-05T09:46:48Z</time>
      </trkpt>
      <trkpt lat="45.93911" lon="3.74148">
        <ele>1050</ele>
        <time>2015-08-05T09:46:52Z</time>
      </trkpt>
      <trkpt lat="45.93912" lon="3.74148">
        <ele>1050</ele>
        <time>2015-08-05T09:46:54Z</time>
      </trkpt>
      <trkpt lat="45.93912" lon="3.74146">
        <ele>1050</ele>
        <time>2015-08-05T09:46:59Z</time>
      </trkpt>
      <trkpt lat="45.9391" lon="3.74145">
        <ele>1050</ele>
        <time>2015-08-05T09:47:03Z</time>
      </trkpt>
      <trkpt lat="45.93912" lon="3.74146">
        <ele>1050</ele>
        <time>2015-08-05T09:47:09Z</time>
      </trkpt>
      <trkpt lat="45.93911" lon="3.74144">
        <ele>1050</ele>
        <time>2015-08-05T09:47:11Z</time>
      </trkpt>
      <trkpt lat="45.93908" lon="3.74144">
        <ele>1050</ele>
        <time>2015-08-05T09:47:13Z</time>
      </trkpt>
      <trkpt lat="45.93906" lon="3.74139">
        <ele>1050</ele>
        <time>2015-08-05T09:47:16Z</time>
      </trkpt>
      <trkpt lat="45.93905" lon="3.74135">
        <ele>1050</ele>
        <time>2015-08-05T09:47:18Z</time>
      </trkpt>
      <trkpt lat="45.93905" lon="3.74136">
        <ele>1048</ele>
        <time>2015-08-05T09:47:22Z</time>
      </trkpt>
      <trkpt lat="45.93908" lon="3.7414">
        <ele>1047</ele>
        <time>2015-08-05T09:47:25Z</time>
      </trkpt>
      <trkpt lat="45.9391" lon="3.74141">
        <ele>1046</ele>
        <time>2015-08-05T09:47:27Z</time>
      </trkpt>
      <trkpt lat="45.93911" lon="3.74143">
        <ele>1045</ele>
        <time>2015-08-05T09:47:29Z</time>
      </trkpt>
      <trkpt lat="45.93911" lon="3.74148">
        <ele>1045</ele>
        <time>2015-08-05T09:47:37Z</time>
      </trkpt>
      <trkpt lat="45.93912" lon="3.74149">
        <ele>1045</ele>
        <time>2015-08-05T09:47:40Z</time>
      </trkpt>
      <trkpt lat="45.93914" lon="3.74145">
        <ele>1045</ele>
        <time>2015-08-05T09:47:45Z</time>
      </trkpt>
      <trkpt lat="45.93912" lon="3.74145">
        <ele>1045</ele>
        <time>2015-08-05T09:47:47Z</time>
      </trkpt>
      <trkpt lat="45.93911" lon="3.74141">
        <ele>1045</ele>
        <time>2015-08-05T09:47:59Z</time>
      </trkpt>
      <trkpt lat="45.93909" lon="3.74139">
        <ele>1045</ele>
        <time>2015-08-05T09:48:01Z</time>
      </trkpt>
      <trkpt lat="45.93905" lon="3.74134">
        <ele>1045</ele>
        <time>2015-08-05T09:48:05Z</time>
      </trkpt>
      <trkpt lat="45.93901" lon="3.74131">
        <ele>1043</ele>
        <time>2015-08-05T09:48:09Z</time>
      </trkpt>
      <trkpt lat="45.93901" lon="3.74129">
        <ele>1042</ele>
        <time>2015-08-05T09:48:11Z</time>
      </trkpt>
      <trkpt lat="45.93899" lon="3.74126">
        <ele>1042</ele>
        <time>2015-08-05T09:48:13Z</time>
      </trkpt>
      <trkpt lat="45.939" lon="3.74123">
        <ele>1042</ele>
        <time>2015-08-05T09:48:16Z</time>
      </trkpt>
      <trkpt lat="45.939" lon="3.74123">
        <ele>1042</ele>
        <time>2015-08-05T09:48:27Z</time>
      </trkpt>
      <trkpt lat="45.93898" lon="3.74122">
        <ele>1042</ele>
        <time>2015-08-05T09:48:38Z</time>
      </trkpt>
      <trkpt lat="45.93899" lon="3.74123">
        <ele>1042</ele>
        <time>2015-08-05T09:48:41Z</time>
      </trkpt>
      <trkpt lat="45.93898" lon="3.74122">
        <ele>1042</ele>
        <time>2015-08-05T09:48:43Z</time>
      </trkpt>
      <trkpt lat="45.93899" lon="3.74122">
        <ele>1043</ele>
        <time>2015-08-05T09:48:47Z</time>
      </trkpt>
      <trkpt lat="45.93899" lon="3.74124">
        <ele>1043</ele>
        <time>2015-08-05T09:48:53Z</time>
      </trkpt>
      <trkpt lat="45.93898" lon="3.74123">
        <ele>1044</ele>
        <time>2015-08-05T09:49:00Z</time>
      </trkpt>
      <trkpt lat="45.93894" lon="3.74124">
        <ele>1045</ele>
        <time>2015-08-05T09:49:07Z</time>
      </trkpt>
      <trkpt lat="45.93893" lon="3.74125">
        <ele>1045</ele>
        <time>2015-08-05T09:49:12Z</time>
      </trkpt>
      <trkpt lat="45.93892" lon="3.74124">
        <ele>1045</ele>
        <time>2015-08-05T09:49:19Z</time>
      </trkpt>
      <trkpt lat="45.93893" lon="3.74124">
        <ele>1045</ele>
        <time>2015-08-05T09:49:22Z</time>
      </trkpt>
      <trkpt lat="45.93893" lon="3.74123">
        <ele>1045</ele>
        <time>2015-08-05T09:49:28Z</time>
      </trkpt>
      <trkpt lat="45.93892" lon="3.74123">
        <ele>1046</ele>
        <time>2015-08-05T09:49:32Z</time>
      </trkpt>
      <trkpt lat="45.93891" lon="3.74124">
        <ele>1046</ele>
        <time>2015-08-05T09:49:37Z</time>
      </trkpt>
      <trkpt lat="45.9389" lon="3.74126">
        <ele>1046</ele>
        <time>2015-08-05T09:49:42Z</time>
      </trkpt>
      <trkpt lat="45.93889" lon="3.74127">
        <ele>1046</ele>
        <time>2015-08-05T09:49:45Z</time>
      </trkpt>
      <trkpt lat="45.93893" lon="3.74129">
        <ele>1047</ele>
        <time>2015-08-05T09:49:52Z</time>
      </trkpt>
      <trkpt lat="45.93894" lon="3.74129">
        <ele>1048</ele>
        <time>2015-08-05T09:49:54Z</time>
      </trkpt>
      <trkpt lat="45.93895" lon="3.74129">
        <ele>1048</ele>
        <time>2015-08-05T09:49:58Z</time>
      </trkpt>
      <trkpt lat="45.93895" lon="3.74131">
        <ele>1048</ele>
        <time>2015-08-05T09:50:11Z</time>
      </trkpt>
      <trkpt lat="45.93893" lon="3.74132">
        <ele>1048</ele>
        <time>2015-08-05T09:50:15Z</time>
      </trkpt>
      <trkpt lat="45.93893" lon="3.74128">
        <ele>1048</ele>
        <time>2015-08-05T09:50:26Z</time>
      </trkpt>
      <trkpt lat="45.93896" lon="3.74125">
        <ele>1049</ele>
        <time>2015-08-05T09:50:38Z</time>
      </trkpt>
      <trkpt lat="45.93898" lon="3.74124">
        <ele>1049</ele>
        <time>2015-08-05T09:50:45Z</time>
      </trkpt>
      <trkpt lat="45.93898" lon="3.74122">
        <ele>1049</ele>
        <time>2015-08-05T09:50:49Z</time>
      </trkpt>
      <trkpt lat="45.93899" lon="3.74121">
        <ele>1049</ele>
        <time>2015-08-05T09:50:54Z</time>
      </trkpt>
      <trkpt lat="45.93901" lon="3.7412">
        <ele>1053</ele>
        <time>2015-08-05T09:51:02Z</time>
      </trkpt>
      <trkpt lat="45.93901" lon="3.74122">
        <ele>1053</ele>
        <time>2015-08-05T09:51:06Z</time>
      </trkpt>
      <trkpt lat="45.93903" lon="3.74123">
        <ele>1053</ele>
        <time>2015-08-05T09:51:15Z</time>
      </trkpt>
      <trkpt lat="45.93901" lon="3.74123">
        <ele>1053</ele>
        <time>2015-08-05T09:51:23Z</time>
      </trkpt>
      <trkpt lat="45.93903" lon="3.74124">
        <ele>1053</ele>
        <time>2015-08-05T09:51:30Z</time>
      </trkpt>
      <trkpt lat="45.93906" lon="3.74122">
        <ele>1053</ele>
        <time>2015-08-05T09:51:35Z</time>
      </trkpt>
      <trkpt lat="45.93904" lon="3.7412">
        <ele>1053</ele>
        <time>2015-08-05T09:51:50Z</time>
      </trkpt>
      <trkpt lat="45.93907" lon="3.74123">
        <ele>1053</ele>
        <time>2015-08-05T09:51:59Z</time>
      </trkpt>
      <trkpt lat="45.93906" lon="3.74121">
        <ele>1053</ele>
        <time>2015-08-05T09:52:03Z</time>
      </trkpt>
      <trkpt lat="45.93905" lon="3.74121">
        <ele>1053</ele>
        <time>2015-08-05T09:52:07Z</time>
      </trkpt>
      <trkpt lat="45.93907" lon="3.74121">
        <ele>1053</ele>
        <time>2015-08-05T09:52:17Z</time>
      </trkpt>
      <trkpt lat="45.93906" lon="3.74121">
        <ele>1053</ele>
        <time>2015-08-05T09:52:24Z</time>
      </trkpt>
      <trkpt lat="45.93908" lon="3.7412">
        <ele>1053</ele>
        <time>2015-08-05T09:52:29Z</time>
      </trkpt>
      <trkpt lat="45.93907" lon="3.74119">
        <ele>1053</ele>
        <time>2015-08-05T09:52:34Z</time>
      </trkpt>
      <trkpt lat="45.93907" lon="3.74121">
        <ele>1053</ele>
        <time>2015-08-05T09:52:40Z</time>
      </trkpt>
      <trkpt lat="45.93905" lon="3.74121">
        <ele>1053</ele>
        <time>2015-08-05T09:52:46Z</time>
      </trkpt>
      <trkpt lat="45.93904" lon="3.74123">
        <ele>1053</ele>
        <time>2015-08-05T09:52:59Z</time>
      </trkpt>
      <trkpt lat="45.93906" lon="3.74123">
        <ele>1053</ele>
        <time>2015-08-05T09:53:04Z</time>
      </trkpt>
      <trkpt lat="45.93906" lon="3.74125">
        <ele>1053</ele>
        <time>2015-08-05T09:53:11Z</time>
      </trkpt>
      <trkpt lat="45.93906" lon="3.74126">
        <ele>1053</ele>
        <time>2015-08-05T09:53:14Z</time>
      </trkpt>
      <trkpt lat="45.93903" lon="3.74127">
        <ele>1053</ele>
        <time>2015-08-05T09:53:16Z</time>
      </trkpt>
      <trkpt lat="45.93903" lon="3.74129">
        <ele>1053</ele>
        <time>2015-08-05T09:53:20Z</time>
      </trkpt>
      <trkpt lat="45.93902" lon="3.74127">
        <ele>1053</ele>
        <time>2015-08-05T09:53:23Z</time>
      </trkpt>
      <trkpt lat="45.93901" lon="3.74126">
        <ele>1053</ele>
        <time>2015-08-05T09:53:25Z</time>
      </trkpt>
      <trkpt lat="45.93897" lon="3.74125">
        <ele>1053</ele>
        <time>2015-08-05T09:53:27Z</time>
      </trkpt>
      <trkpt lat="45.93899" lon="3.74124">
        <ele>1053</ele>
        <time>2015-08-05T09:53:30Z</time>
      </trkpt>
      <trkpt lat="45.93901" lon="3.74124">
        <ele>1053</ele>
        <time>2015-08-05T09:53:33Z</time>
      </trkpt>
      <trkpt lat="45.939" lon="3.74125">
        <ele>1053</ele>
        <time>2015-08-05T09:53:46Z</time>
      </trkpt>
      <trkpt lat="45.93896" lon="3.74125">
        <ele>1052</ele>
        <time>2015-08-05T09:53:54Z</time>
      </trkpt>
      <trkpt lat="45.93895" lon="3.74124">
        <ele>1051</ele>
        <time>2015-08-05T09:53:57Z</time>
      </trkpt>
      <trkpt lat="45.93896" lon="3.74122">
        <ele>1050</ele>
        <time>2015-08-05T09:53:59Z</time>
      </trkpt>
      <trkpt lat="45.93897" lon="3.74121">
        <ele>1050</ele>
        <time>2015-08-05T09:54:01Z</time>
      </trkpt>
      <trkpt lat="45.939" lon="3.74122">
        <ele>1050</ele>
        <time>2015-08-05T09:54:11Z</time>
      </trkpt>
      <trkpt lat="45.93906" lon="3.74119">
        <ele>1050</ele>
        <time>2015-08-05T09:54:35Z</time>
      </trkpt>
      <trkpt lat="45.93903" lon="3.74121">
        <ele>1050</ele>
        <time>2015-08-05T09:54:42Z</time>
      </trkpt>
      <trkpt lat="45.93902" lon="3.74123">
        <ele>1050</ele>
        <time>2015-08-05T09:54:45Z</time>
      </trkpt>
      <trkpt lat="45.939" lon="3.74124">
        <ele>1050</ele>
        <time>2015-08-05T09:54:47Z</time>
      </trkpt>
      <trkpt lat="45.93904" lon="3.74125">
        <ele>1050</ele>
        <time>2015-08-05T09:54:58Z</time>
      </trkpt>
      <trkpt lat="45.93907" lon="3.74125">
        <ele>1051</ele>
        <time>2015-08-05T09:55:02Z</time>
      </trkpt>
      <trkpt lat="45.93906" lon="3.74124">
        <ele>1051</ele>
        <time>2015-08-05T09:55:04Z</time>
      </trkpt>
      <trkpt lat="45.93905" lon="3.74123">
        <ele>1051</ele>
        <time>2015-08-05T09:55:18Z</time>
      </trkpt>
      <trkpt lat="45.93904" lon="3.74122">
        <ele>1054</ele>
        <time>2015-08-05T09:55:25Z</time>
      </trkpt>
      <trkpt lat="45.93906" lon="3.74122">
        <ele>1058</ele>
        <time>2015-08-05T09:55:34Z</time>
      </trkpt>
      <trkpt lat="45.93907" lon="3.74121">
        <ele>1059</ele>
        <time>2015-08-05T09:55:39Z</time>
      </trkpt>
      <trkpt lat="45.93907" lon="3.74123">
        <ele>1061</ele>
        <time>2015-08-05T09:55:52Z</time>
      </trkpt>
      <trkpt lat="45.93903" lon="3.74125">
        <ele>1061</ele>
        <time>2015-08-05T09:56:00Z</time>
      </trkpt>
      <trkpt lat="45.93903" lon="3.74127">
        <ele>1060</ele>
        <time>2015-08-05T09:56:03Z</time>
      </trkpt>
      <trkpt lat="45.93904" lon="3.74126">
        <ele>1057</ele>
        <time>2015-08-05T09:56:11Z</time>
      </trkpt>
      <trkpt lat="45.93903" lon="3.74125">
        <ele>1057</ele>
        <time>2015-08-05T09:56:16Z</time>
      </trkpt>
      <trkpt lat="45.93903" lon="3.74124">
        <ele>1056</ele>
        <time>2015-08-05T09:56:23Z</time>
      </trkpt>
      <trkpt lat="45.93903" lon="3.74125">
        <ele>1055</ele>
        <time>2015-08-05T09:56:25Z</time>
      </trkpt>
      <trkpt lat="45.93904" lon="3.74126">
        <ele>1054</ele>
        <time>2015-08-05T09:56:27Z</time>
      </trkpt>
      <trkpt lat="45.93903" lon="3.74125">
        <ele>1053</ele>
        <time>2015-08-05T09:56:31Z</time>
      </trkpt>
      <trkpt lat="45.93902" lon="3.74123">
        <ele>1053</ele>
        <time>2015-08-05T09:56:33Z</time>
      </trkpt>
      <trkpt lat="45.939" lon="3.74121">
        <ele>1053</ele>
        <time>2015-08-05T09:56:35Z</time>
      </trkpt>
      <trkpt lat="45.93896" lon="3.74121">
        <ele>1053</ele>
        <time>2015-08-05T09:56:37Z</time>
      </trkpt>
      <trkpt lat="45.93894" lon="3.74121">
        <ele>1053</ele>
        <time>2015-08-05T09:56:47Z</time>
      </trkpt>
      <trkpt lat="45.93895" lon="3.74123">
        <ele>1050</ele>
        <time>2015-08-05T09:56:54Z</time>
      </trkpt>
      <trkpt lat="45.93895" lon="3.74125">
        <ele>1049</ele>
        <time>2015-08-05T09:56:58Z</time>
      </trkpt>
      <trkpt lat="45.93898" lon="3.74125">
        <ele>1049</ele>
        <time>2015-08-05T09:57:00Z</time>
      </trkpt>
      <trkpt lat="45.93898" lon="3.74127">
        <ele>1049</ele>
        <time>2015-08-05T09:57:13Z</time>
      </trkpt>
      <trkpt lat="45.93901" lon="3.74127">
        <ele>1049</ele>
        <time>2015-08-05T09:57:19Z</time>
      </trkpt>
      <trkpt lat="45.93898" lon="3.74126">
        <ele>1049</ele>
        <time>2015-08-05T09:57:31Z</time>
      </trkpt>
      <trkpt lat="45.93902" lon="3.74128">
        <ele>1048</ele>
        <time>2015-08-05T09:57:40Z</time>
      </trkpt>
      <trkpt lat="45.93903" lon="3.74128">
        <ele>1048</ele>
        <time>2015-08-05T09:57:42Z</time>
      </trkpt>
      <trkpt lat="45.93906" lon="3.74126">
        <ele>1048</ele>
        <time>2015-08-05T09:57:46Z</time>
      </trkpt>
      <trkpt lat="45.93902" lon="3.74124">
        <ele>1048</ele>
        <time>2015-08-05T09:57:50Z</time>
      </trkpt>
      <trkpt lat="45.93902" lon="3.74122">
        <ele>1048</ele>
        <time>2015-08-05T09:57:54Z</time>
      </trkpt>
      <trkpt lat="45.93902" lon="3.74121">
        <ele>1048</ele>
        <time>2015-08-05T09:57:58Z</time>
      </trkpt>
      <trkpt lat="45.93903" lon="3.74119">
        <ele>1048</ele>
        <time>2015-08-05T09:58:03Z</time>
      </trkpt>
      <trkpt lat="45.93904" lon="3.74119">
        <ele>1048</ele>
        <time>2015-08-05T09:58:10Z</time>
      </trkpt>
      <trkpt lat="45.93903" lon="3.7412">
        <ele>1048</ele>
        <time>2015-08-05T09:58:18Z</time>
      </trkpt>
      <trkpt lat="45.93901" lon="3.74119">
        <ele>1048</ele>
        <time>2015-08-05T09:58:22Z</time>
      </trkpt>
      <trkpt lat="45.939" lon="3.74121">
        <ele>1048</ele>
        <time>2015-08-05T09:58:39Z</time>
      </trkpt>
      <trkpt lat="45.93899" lon="3.74123">
        <ele>1048</ele>
        <time>2015-08-05T09:58:43Z</time>
      </trkpt>
      <trkpt lat="45.93897" lon="3.74124">
        <ele>1048</ele>
        <time>2015-08-05T09:59:02Z</time>
      </trkpt>
      <trkpt lat="45.93901" lon="3.74125">
        <ele>1048</ele>
        <time>2015-08-05T09:59:10Z</time>
      </trkpt>
      <trkpt lat="45.93907" lon="3.74125">
        <ele>1049</ele>
        <time>2015-08-05T09:59:20Z</time>
      </trkpt>
      <trkpt lat="45.93909" lon="3.74125">
        <ele>1050</ele>
        <time>2015-08-05T09:59:22Z</time>
      </trkpt>
      <trkpt lat="45.93912" lon="3.74125">
        <ele>1051</ele>
        <time>2015-08-05T09:59:28Z</time>
      </trkpt>
      <trkpt lat="45.93911" lon="3.74126">
        <ele>1051</ele>
        <time>2015-08-05T09:59:33Z</time>
      </trkpt>
      <trkpt lat="45.93911" lon="3.74127">
        <ele>1051</ele>
        <time>2015-08-05T09:59:37Z</time>
      </trkpt>
      <trkpt lat="45.9391" lon="3.74128">
        <ele>1051</ele>
        <time>2015-08-05T09:59:39Z</time>
      </trkpt>
      <trkpt lat="45.93908" lon="3.74129">
        <ele>1051</ele>
        <time>2015-08-05T09:59:41Z</time>
      </trkpt>
      <trkpt lat="45.93907" lon="3.7413">
        <ele>1051</ele>
        <time>2015-08-05T09:59:45Z</time>
      </trkpt>
      <trkpt lat="45.93906" lon="3.7413">
        <ele>1051</ele>
        <time>2015-08-05T09:59:48Z</time>
      </trkpt>
      <trkpt lat="45.93907" lon="3.7413">
        <ele>1051</ele>
        <time>2015-08-05T09:59:51Z</time>
      </trkpt>
      <trkpt lat="45.93905" lon="3.7413">
        <ele>1051</ele>
        <time>2015-08-05T09:59:57Z</time>
      </trkpt>
      <trkpt lat="45.93903" lon="3.74131">
        <ele>1051</ele>
        <time>2015-08-05T10:00:02Z</time>
      </trkpt>
      <trkpt lat="45.93902" lon="3.74131">
        <ele>1051</ele>
        <time>2015-08-05T10:00:04Z</time>
      </trkpt>
      <trkpt lat="45.93903" lon="3.74129">
        <ele>1050</ele>
        <time>2015-08-05T10:00:07Z</time>
      </trkpt>
      <trkpt lat="45.93904" lon="3.74127">
        <ele>1049</ele>
        <time>2015-08-05T10:00:09Z</time>
      </trkpt>
      <trkpt lat="45.93903" lon="3.74125">
        <ele>1049</ele>
        <time>2015-08-05T10:00:21Z</time>
      </trkpt>
      <trkpt lat="45.93905" lon="3.74124">
        <ele>1049</ele>
        <time>2015-08-05T10:00:27Z</time>
      </trkpt>
      <trkpt lat="45.93906" lon="3.74124">
        <ele>1049</ele>
        <time>2015-08-05T10:00:35Z</time>
      </trkpt>
      <trkpt lat="45.93901" lon="3.74123">
        <ele>1049</ele>
        <time>2015-08-05T10:00:47Z</time>
      </trkpt>
      <trkpt lat="45.93899" lon="3.74124">
        <ele>1049</ele>
        <time>2015-08-05T10:01:01Z</time>
      </trkpt>
      <trkpt lat="45.939" lon="3.74125">
        <ele>1049</ele>
        <time>2015-08-05T10:01:16Z</time>
      </trkpt>
      <trkpt lat="45.93899" lon="3.74124">
        <ele>1049</ele>
        <time>2015-08-05T10:01:19Z</time>
      </trkpt>
      <trkpt lat="45.939" lon="3.74125">
        <ele>1049</ele>
        <time>2015-08-05T10:01:23Z</time>
      </trkpt>
      <trkpt lat="45.93903" lon="3.74124">
        <ele>1049</ele>
        <time>2015-08-05T10:01:26Z</time>
      </trkpt>
      <trkpt lat="45.93903" lon="3.74122">
        <ele>1049</ele>
        <time>2015-08-05T10:01:32Z</time>
      </trkpt>
      <trkpt lat="45.93901" lon="3.74121">
        <ele>1049</ele>
        <time>2015-08-05T10:01:36Z</time>
      </trkpt>
      <trkpt lat="45.93903" lon="3.7412">
        <ele>1049</ele>
        <time>2015-08-05T10:01:40Z</time>
      </trkpt>
      <trkpt lat="45.93904" lon="3.74119">
        <ele>1049</ele>
        <time>2015-08-05T10:01:45Z</time>
      </trkpt>
      <trkpt lat="45.93903" lon="3.74117">
        <ele>1049</ele>
        <time>2015-08-05T10:01:48Z</time>
      </trkpt>
      <trkpt lat="45.93904" lon="3.74117">
        <ele>1049</ele>
        <time>2015-08-05T10:01:51Z</time>
      </trkpt>
      <trkpt lat="45.93907" lon="3.74117">
        <ele>1051</ele>
        <time>2015-08-05T10:01:56Z</time>
      </trkpt>
      <trkpt lat="45.93906" lon="3.74118">
        <ele>1052</ele>
        <time>2015-08-05T10:02:04Z</time>
      </trkpt>
      <trkpt lat="45.93905" lon="3.74119">
        <ele>1052</ele>
        <time>2015-08-05T10:02:07Z</time>
      </trkpt>
      <trkpt lat="45.93904" lon="3.7412">
        <ele>1052</ele>
        <time>2015-08-05T10:02:09Z</time>
      </trkpt>
      <trkpt lat="45.93901" lon="3.74121">
        <ele>1052</ele>
        <time>2015-08-05T10:02:11Z</time>
      </trkpt>
      <trkpt lat="45.93901" lon="3.74124">
        <ele>1052</ele>
        <time>2015-08-05T10:02:14Z</time>
      </trkpt>
      <trkpt lat="45.93903" lon="3.74123">
        <ele>1052</ele>
        <time>2015-08-05T10:02:23Z</time>
      </trkpt>
      <trkpt lat="45.93901" lon="3.74121">
        <ele>1052</ele>
        <time>2015-08-05T10:02:25Z</time>
      </trkpt>
      <trkpt lat="45.939" lon="3.74121">
        <ele>1052</ele>
        <time>2015-08-05T10:02:27Z</time>
      </trkpt>
      <trkpt lat="45.93899" lon="3.74123">
        <ele>1052</ele>
        <time>2015-08-05T10:02:30Z</time>
      </trkpt>
      <trkpt lat="45.93898" lon="3.74125">
        <ele>1052</ele>
        <time>2015-08-05T10:02:33Z</time>
      </trkpt>
      <trkpt lat="45.93897" lon="3.74125">
        <ele>1051</ele>
        <time>2015-08-05T10:02:37Z</time>
      </trkpt>
      <trkpt lat="45.93903" lon="3.74127">
        <ele>1051</ele>
        <time>2015-08-05T10:02:50Z</time>
      </trkpt>
      <trkpt lat="45.93902" lon="3.74128">
        <ele>1051</ele>
        <time>2015-08-05T10:02:57Z</time>
      </trkpt>
      <trkpt lat="45.93901" lon="3.7413">
        <ele>1049</ele>
        <time>2015-08-05T10:03:02Z</time>
      </trkpt>
      <trkpt lat="45.93899" lon="3.74131">
        <ele>1046</ele>
        <time>2015-08-05T10:03:06Z</time>
      </trkpt>
      <trkpt lat="45.93903" lon="3.74132">
        <ele>1046</ele>
        <time>2015-08-05T10:03:18Z</time>
      </trkpt>
      <trkpt lat="45.93911" lon="3.74135">
        <ele>1046</ele>
        <time>2015-08-05T10:03:29Z</time>
      </trkpt>
      <trkpt lat="45.93908" lon="3.74134">
        <ele>1046</ele>
        <time>2015-08-05T10:03:40Z</time>
      </trkpt>
      <trkpt lat="45.93906" lon="3.74133">
        <ele>1046</ele>
        <time>2015-08-05T10:03:43Z</time>
      </trkpt>
      <trkpt lat="45.93906" lon="3.74131">
        <ele>1046</ele>
        <time>2015-08-05T10:03:47Z</time>
      </trkpt>
      <trkpt lat="45.93907" lon="3.7413">
        <ele>1046</ele>
        <time>2015-08-05T10:03:50Z</time>
      </trkpt>
      <trkpt lat="45.93906" lon="3.74129">
        <ele>1047</ele>
        <time>2015-08-05T10:03:55Z</time>
      </trkpt>
      <trkpt lat="45.93906" lon="3.74127">
        <ele>1049</ele>
        <time>2015-08-05T10:03:58Z</time>
      </trkpt>
      <trkpt lat="45.93904" lon="3.74124">
        <ele>1057</ele>
        <time>2015-08-05T10:04:06Z</time>
      </trkpt>
      <trkpt lat="45.939" lon="3.74122">
        <ele>1058</ele>
        <time>2015-08-05T10:04:16Z</time>
      </trkpt>
      <trkpt lat="45.93895" lon="3.74123">
        <ele>1057</ele>
        <time>2015-08-05T10:04:35Z</time>
      </trkpt>
      <trkpt lat="45.93896" lon="3.74125">
        <ele>1055</ele>
        <time>2015-08-05T10:04:44Z</time>
      </trkpt>
      <trkpt lat="45.93899" lon="3.74124">
        <ele>1055</ele>
        <time>2015-08-05T10:04:56Z</time>
      </trkpt>
      <trkpt lat="45.93899" lon="3.74125">
        <ele>1054</ele>
        <time>2015-08-05T10:05:04Z</time>
      </trkpt>
      <trkpt lat="45.93901" lon="3.74124">
        <ele>1053</ele>
        <time>2015-08-05T10:05:07Z</time>
      </trkpt>
      <trkpt lat="45.93901" lon="3.74122">
        <ele>1053</ele>
        <time>2015-08-05T10:05:09Z</time>
      </trkpt>
      <trkpt lat="45.93901" lon="3.74125">
        <ele>1052</ele>
        <time>2015-08-05T10:05:16Z</time>
      </trkpt>
      <trkpt lat="45.939" lon="3.74127">
        <ele>1052</ele>
        <time>2015-08-05T10:05:18Z</time>
      </trkpt>
      <trkpt lat="45.93901" lon="3.74127">
        <ele>1051</ele>
        <time>2015-08-05T10:05:21Z</time>
      </trkpt>
      <trkpt lat="45.93902" lon="3.74125">
        <ele>1050</ele>
        <time>2015-08-05T10:05:32Z</time>
      </trkpt>
      <trkpt lat="45.93903" lon="3.74124">
        <ele>1050</ele>
        <time>2015-08-05T10:05:35Z</time>
      </trkpt>
      <trkpt lat="45.93908" lon="3.74124">
        <ele>1052</ele>
        <time>2015-08-05T10:05:58Z</time>
      </trkpt>
      <trkpt lat="45.93906" lon="3.74126">
        <ele>1052</ele>
        <time>2015-08-05T10:06:03Z</time>
      </trkpt>
      <trkpt lat="45.93906" lon="3.74128">
        <ele>1052</ele>
        <time>2015-08-05T10:06:06Z</time>
      </trkpt>
      <trkpt lat="45.93904" lon="3.74127">
        <ele>1052</ele>
        <time>2015-08-05T10:06:14Z</time>
      </trkpt>
      <trkpt lat="45.93903" lon="3.74127">
        <ele>1052</ele>
        <time>2015-08-05T10:06:17Z</time>
      </trkpt>
      <trkpt lat="45.93906" lon="3.74125">
        <ele>1052</ele>
        <time>2015-08-05T10:06:24Z</time>
      </trkpt>
      <trkpt lat="45.93904" lon="3.74123">
        <ele>1052</ele>
        <time>2015-08-05T10:06:34Z</time>
      </trkpt>
      <trkpt lat="45.93903" lon="3.74123">
        <ele>1052</ele>
        <time>2015-08-05T10:06:37Z</time>
      </trkpt>
      <trkpt lat="45.93905" lon="3.74123">
        <ele>1052</ele>
        <time>2015-08-05T10:06:40Z</time>
      </trkpt>
      <trkpt lat="45.93903" lon="3.74125">
        <ele>1052</ele>
        <time>2015-08-05T10:06:47Z</time>
      </trkpt>
      <trkpt lat="45.93902" lon="3.74125">
        <ele>1052</ele>
        <time>2015-08-05T10:06:53Z</time>
      </trkpt>
      <trkpt lat="45.93905" lon="3.74124">
        <ele>1052</ele>
        <time>2015-08-05T10:07:05Z</time>
      </trkpt>
      <trkpt lat="45.93909" lon="3.74126">
        <ele>1052</ele>
        <time>2015-08-05T10:07:11Z</time>
      </trkpt>
      <trkpt lat="45.93908" lon="3.74126">
        <ele>1052</ele>
        <time>2015-08-05T10:07:19Z</time>
      </trkpt>
      <trkpt lat="45.93905" lon="3.74123">
        <ele>1052</ele>
        <time>2015-08-05T10:07:38Z</time>
      </trkpt>
      <trkpt lat="45.93905" lon="3.74121">
        <ele>1052</ele>
        <time>2015-08-05T10:07:48Z</time>
      </trkpt>
      <trkpt lat="45.93904" lon="3.74121">
        <ele>1052</ele>
        <time>2015-08-05T10:07:54Z</time>
      </trkpt>
      <trkpt lat="45.93903" lon="3.74121">
        <ele>1052</ele>
        <time>2015-08-05T10:08:00Z</time>
      </trkpt>
      <trkpt lat="45.93903" lon="3.74123">
        <ele>1052</ele>
        <time>2015-08-05T10:08:08Z</time>
      </trkpt>
      <trkpt lat="45.93904" lon="3.74124">
        <ele>1052</ele>
        <time>2015-08-05T10:08:12Z</time>
      </trkpt>
      <trkpt lat="45.93903" lon="3.74125">
        <ele>1052</ele>
        <time>2015-08-05T10:08:19Z</time>
      </trkpt>
      <trkpt lat="45.93904" lon="3.74126">
        <ele>1052</ele>
        <time>2015-08-05T10:08:23Z</time>
      </trkpt>
      <trkpt lat="45.93904" lon="3.74127">
        <ele>1052</ele>
        <time>2015-08-05T10:08:33Z</time>
      </trkpt>
      <trkpt lat="45.93902" lon="3.74128">
        <ele>1052</ele>
        <time>2015-08-05T10:08:37Z</time>
      </trkpt>
      <trkpt lat="45.93905" lon="3.74128">
        <ele>1052</ele>
        <time>2015-08-05T10:08:49Z</time>
      </trkpt>
      <trkpt lat="45.93903" lon="3.74128">
        <ele>1052</ele>
        <time>2015-08-05T10:08:55Z</time>
      </trkpt>
      <trkpt lat="45.93904" lon="3.74127">
        <ele>1052</ele>
        <time>2015-08-05T10:09:01Z</time>
      </trkpt>
      <trkpt lat="45.93901" lon="3.74125">
        <ele>1052</ele>
        <time>2015-08-05T10:09:06Z</time>
      </trkpt>
      <trkpt lat="45.93898" lon="3.74125">
        <ele>1051</ele>
        <time>2015-08-05T10:09:11Z</time>
      </trkpt>
      <trkpt lat="45.93895" lon="3.74123">
        <ele>1050</ele>
        <time>2015-08-05T10:09:23Z</time>
      </trkpt>
      <trkpt lat="45.93894" lon="3.74123">
        <ele>1050</ele>
        <time>2015-08-05T10:09:26Z</time>
      </trkpt>
      <trkpt lat="45.93894" lon="3.74125">
        <ele>1050</ele>
        <time>2015-08-05T10:09:31Z</time>
      </trkpt>
      <trkpt lat="45.93897" lon="3.74125">
        <ele>1050</ele>
        <time>2015-08-05T10:09:36Z</time>
      </trkpt>
      <trkpt lat="45.93897" lon="3.74121">
        <ele>1050</ele>
        <time>2015-08-05T10:09:48Z</time>
      </trkpt>
      <trkpt lat="45.93898" lon="3.74121">
        <ele>1050</ele>
        <time>2015-08-05T10:09:53Z</time>
      </trkpt>
      <trkpt lat="45.93895" lon="3.74123">
        <ele>1050</ele>
        <time>2015-08-05T10:10:19Z</time>
      </trkpt>
      <trkpt lat="45.93896" lon="3.74123">
        <ele>1050</ele>
        <time>2015-08-05T10:10:28Z</time>
      </trkpt>
      <trkpt lat="45.93895" lon="3.74124">
        <ele>1050</ele>
        <time>2015-08-05T10:10:33Z</time>
      </trkpt>
      <trkpt lat="45.93896" lon="3.74123">
        <ele>1050</ele>
        <time>2015-08-05T10:10:45Z</time>
      </trkpt>
      <trkpt lat="45.93895" lon="3.74123">
        <ele>1050</ele>
        <time>2015-08-05T10:10:49Z</time>
      </trkpt>
      <trkpt lat="45.93896" lon="3.74121">
        <ele>1050</ele>
        <time>2015-08-05T10:10:55Z</time>
      </trkpt>
      <trkpt lat="45.93898" lon="3.74121">
        <ele>1049</ele>
        <time>2015-08-05T10:10:59Z</time>
      </trkpt>
      <trkpt lat="45.939" lon="3.74123">
        <ele>1049</ele>
        <time>2015-08-05T10:11:07Z</time>
      </trkpt>
      <trkpt lat="45.93898" lon="3.74124">
        <ele>1049</ele>
        <time>2015-08-05T10:11:17Z</time>
      </trkpt>
      <trkpt lat="45.93899" lon="3.74123">
        <ele>1049</ele>
        <time>2015-08-05T10:11:22Z</time>
      </trkpt>
      <trkpt lat="45.93898" lon="3.74125">
        <ele>1049</ele>
        <time>2015-08-05T10:11:36Z</time>
      </trkpt>
      <trkpt lat="45.939" lon="3.74123">
        <ele>1049</ele>
        <time>2015-08-05T10:11:45Z</time>
      </trkpt>
      <trkpt lat="45.93898" lon="3.74122">
        <ele>1048</ele>
        <time>2015-08-05T10:11:48Z</time>
      </trkpt>
      <trkpt lat="45.939" lon="3.74121">
        <ele>1046</ele>
        <time>2015-08-05T10:11:52Z</time>
      </trkpt>
      <trkpt lat="45.93901" lon="3.7412">
        <ele>1046</ele>
        <time>2015-08-05T10:11:59Z</time>
      </trkpt>
      <trkpt lat="45.93896" lon="3.74125">
        <ele>1045</ele>
        <time>2015-08-05T10:12:16Z</time>
      </trkpt>
      <trkpt lat="45.93895" lon="3.74126">
        <ele>1045</ele>
        <time>2015-08-05T10:12:21Z</time>
      </trkpt>
      <trkpt lat="45.93894" lon="3.74124">
        <ele>1045</ele>
        <time>2015-08-05T10:12:26Z</time>
      </trkpt>
      <trkpt lat="45.93896" lon="3.74124">
        <ele>1045</ele>
        <time>2015-08-05T10:12:41Z</time>
      </trkpt>
      <trkpt lat="45.93898" lon="3.74123">
        <ele>1045</ele>
        <time>2015-08-05T10:12:47Z</time>
      </trkpt>
      <trkpt lat="45.939" lon="3.74121">
        <ele>1045</ele>
        <time>2015-08-05T10:12:50Z</time>
      </trkpt>
      <trkpt lat="45.939" lon="3.74124">
        <ele>1045</ele>
        <time>2015-08-05T10:12:52Z</time>
      </trkpt>
      <trkpt lat="45.93898" lon="3.74128">
        <ele>1045</ele>
        <time>2015-08-05T10:12:57Z</time>
      </trkpt>
      <trkpt lat="45.93897" lon="3.74127">
        <ele>1045</ele>
        <time>2015-08-05T10:13:00Z</time>
      </trkpt>
      <trkpt lat="45.93899" lon="3.74128">
        <ele>1045</ele>
        <time>2015-08-05T10:13:02Z</time>
      </trkpt>
      <trkpt lat="45.93898" lon="3.74127">
        <ele>1045</ele>
        <time>2015-08-05T10:13:05Z</time>
      </trkpt>
      <trkpt lat="45.93898" lon="3.74125">
        <ele>1045</ele>
        <time>2015-08-05T10:13:16Z</time>
      </trkpt>
      <trkpt lat="45.93896" lon="3.74125">
        <ele>1045</ele>
        <time>2015-08-05T10:13:21Z</time>
      </trkpt>
      <trkpt lat="45.93897" lon="3.74125">
        <ele>1045</ele>
        <time>2015-08-05T10:13:24Z</time>
      </trkpt>
      <trkpt lat="45.93897" lon="3.74123">
        <ele>1045</ele>
        <time>2015-08-05T10:13:28Z</time>
      </trkpt>
      <trkpt lat="45.93895" lon="3.74123">
        <ele>1043</ele>
        <time>2015-08-05T10:13:34Z</time>
      </trkpt>
      <trkpt lat="45.93892" lon="3.74121">
        <ele>1041</ele>
        <time>2015-08-05T10:13:39Z</time>
      </trkpt>
      <trkpt lat="45.93893" lon="3.7412">
        <ele>1041</ele>
        <time>2015-08-05T10:13:44Z</time>
      </trkpt>
      <trkpt lat="45.93895" lon="3.74119">
        <ele>1041</ele>
        <time>2015-08-05T10:13:49Z</time>
      </trkpt>
      <trkpt lat="45.93897" lon="3.74119">
        <ele>1041</ele>
        <time>2015-08-05T10:13:53Z</time>
      </trkpt>
      <trkpt lat="45.939" lon="3.7412">
        <ele>1042</ele>
        <time>2015-08-05T10:14:00Z</time>
      </trkpt>
      <trkpt lat="45.93903" lon="3.74121">
        <ele>1044</ele>
        <time>2015-08-05T10:14:08Z</time>
      </trkpt>
      <trkpt lat="45.93904" lon="3.74122">
        <ele>1045</ele>
        <time>2015-08-05T10:14:10Z</time>
      </trkpt>
      <trkpt lat="45.93903" lon="3.7412">
        <ele>1046</ele>
        <time>2015-08-05T10:14:27Z</time>
      </trkpt>
      <trkpt lat="45.93901" lon="3.74121">
        <ele>1046</ele>
        <time>2015-08-05T10:14:33Z</time>
      </trkpt>
      <trkpt lat="45.93902" lon="3.74122">
        <ele>1046</ele>
        <time>2015-08-05T10:14:48Z</time>
      </trkpt>
      <trkpt lat="45.93903" lon="3.74122">
        <ele>1046</ele>
        <time>2015-08-05T10:15:07Z</time>
      </trkpt>
      <trkpt lat="45.93901" lon="3.74121">
        <ele>1047</ele>
        <time>2015-08-05T10:15:18Z</time>
      </trkpt>
      <trkpt lat="45.93898" lon="3.7412">
        <ele>1046</ele>
        <time>2015-08-05T10:15:22Z</time>
      </trkpt>
      <trkpt lat="45.93897" lon="3.74122">
        <ele>1044</ele>
        <time>2015-08-05T10:15:25Z</time>
      </trkpt>
      <trkpt lat="45.93896" lon="3.74122">
        <ele>1044</ele>
        <time>2015-08-05T10:15:31Z</time>
      </trkpt>
      <trkpt lat="45.93897" lon="3.74123">
        <ele>1044</ele>
        <time>2015-08-05T10:15:33Z</time>
      </trkpt>
      <trkpt lat="45.93896" lon="3.74125">
        <ele>1044</ele>
        <time>2015-08-05T10:15:35Z</time>
      </trkpt>
      <trkpt lat="45.93897" lon="3.74125">
        <ele>1044</ele>
        <time>2015-08-05T10:15:40Z</time>
      </trkpt>
      <trkpt lat="45.93897" lon="3.74126">
        <ele>1044</ele>
        <time>2015-08-05T10:15:46Z</time>
      </trkpt>
      <trkpt lat="45.93896" lon="3.74125">
        <ele>1044</ele>
        <time>2015-08-05T10:15:51Z</time>
      </trkpt>
      <trkpt lat="45.93895" lon="3.74122">
        <ele>1044</ele>
        <time>2015-08-05T10:15:56Z</time>
      </trkpt>
      <trkpt lat="45.93893" lon="3.74123">
        <ele>1043</ele>
        <time>2015-08-05T10:15:58Z</time>
      </trkpt>
      <trkpt lat="45.93891" lon="3.74122">
        <ele>1042</ele>
        <time>2015-08-05T10:16:00Z</time>
      </trkpt>
      <trkpt lat="45.93893" lon="3.74119">
        <ele>1040</ele>
        <time>2015-08-05T10:16:08Z</time>
      </trkpt>
      <trkpt lat="45.93892" lon="3.7412">
        <ele>1039</ele>
        <time>2015-08-05T10:16:15Z</time>
      </trkpt>
      <trkpt lat="45.93889" lon="3.74121">
        <ele>1037</ele>
        <time>2015-08-05T10:16:21Z</time>
      </trkpt>
      <trkpt lat="45.93889" lon="3.74123">
        <ele>1036</ele>
        <time>2015-08-05T10:16:27Z</time>
      </trkpt>
      <trkpt lat="45.9389" lon="3.74126">
        <ele>1036</ele>
        <time>2015-08-05T10:16:39Z</time>
      </trkpt>
      <trkpt lat="45.93889" lon="3.7413">
        <ele>1039</ele>
        <time>2015-08-05T10:17:04Z</time>
      </trkpt>
      <trkpt lat="45.9389" lon="3.74131">
        <ele>1040</ele>
        <time>2015-08-05T10:17:07Z</time>
      </trkpt>
      <trkpt lat="45.93892" lon="3.74131">
        <ele>1041</ele>
        <time>2015-08-05T10:17:09Z</time>
      </trkpt>
      <trkpt lat="45.93894" lon="3.74129">
        <ele>1043</ele>
        <time>2015-08-05T10:17:17Z</time>
      </trkpt>
      <trkpt lat="45.93895" lon="3.74128">
        <ele>1044</ele>
        <time>2015-08-05T10:17:22Z</time>
      </trkpt>
      <trkpt lat="45.93897" lon="3.74128">
        <ele>1045</ele>
        <time>2015-08-05T10:17:26Z</time>
      </trkpt>
      <trkpt lat="45.93897" lon="3.7413">
        <ele>1053</ele>
        <time>2015-08-05T10:17:43Z</time>
      </trkpt>
      <trkpt lat="45.93897" lon="3.74131">
        <ele>1053</ele>
        <time>2015-08-05T10:17:52Z</time>
      </trkpt>
      <trkpt lat="45.93897" lon="3.74133">
        <ele>1053</ele>
        <time>2015-08-05T10:17:55Z</time>
      </trkpt>
      <trkpt lat="45.93895" lon="3.74135">
        <ele>1053</ele>
        <time>2015-08-05T10:18:04Z</time>
      </trkpt>
      <trkpt lat="45.93891" lon="3.74132">
        <ele>1049</ele>
        <time>2015-08-05T10:18:08Z</time>
      </trkpt>
      <trkpt lat="45.9389" lon="3.74132">
        <ele>1046</ele>
        <time>2015-08-05T10:18:11Z</time>
      </trkpt>
      <trkpt lat="45.93893" lon="3.74134">
        <ele>1043</ele>
        <time>2015-08-05T10:18:22Z</time>
      </trkpt>
      <trkpt lat="45.93895" lon="3.74133">
        <ele>1043</ele>
        <time>2015-08-05T10:18:25Z</time>
      </trkpt>
      <trkpt lat="45.93893" lon="3.7413">
        <ele>1043</ele>
        <time>2015-08-05T10:18:34Z</time>
      </trkpt>
      <trkpt lat="45.93893" lon="3.74128">
        <ele>1042</ele>
        <time>2015-08-05T10:18:40Z</time>
      </trkpt>
      <trkpt lat="45.93892" lon="3.74127">
        <ele>1041</ele>
        <time>2015-08-05T10:18:44Z</time>
      </trkpt>
      <trkpt lat="45.93889" lon="3.74125">
        <ele>1040</ele>
        <time>2015-08-05T10:18:53Z</time>
      </trkpt>
      <trkpt lat="45.93888" lon="3.74123">
        <ele>1039</ele>
        <time>2015-08-05T10:18:58Z</time>
      </trkpt>
      <trkpt lat="45.93889" lon="3.74121">
        <ele>1038</ele>
        <time>2015-08-05T10:19:00Z</time>
      </trkpt>
      <trkpt lat="45.93891" lon="3.74117">
        <ele>1036</ele>
        <time>2015-08-05T10:19:05Z</time>
      </trkpt>
      <trkpt lat="45.93892" lon="3.7412">
        <ele>1039</ele>
        <time>2015-08-05T10:19:48Z</time>
      </trkpt>
      <trkpt lat="45.93893" lon="3.74118">
        <ele>1041</ele>
        <time>2015-08-05T10:20:04Z</time>
      </trkpt>
      <trkpt lat="45.93893" lon="3.74117">
        <ele>1045</ele>
        <time>2015-08-05T10:20:23Z</time>
      </trkpt>
      <trkpt lat="45.93892" lon="3.7412">
        <ele>1049</ele>
        <time>2015-08-05T10:21:46Z</time>
      </trkpt>
      <trkpt lat="45.93891" lon="3.74122">
        <ele>1049</ele>
        <time>2015-08-05T10:21:51Z</time>
      </trkpt>
      <trkpt lat="45.93893" lon="3.74123">
        <ele>1049</ele>
        <time>2015-08-05T10:21:54Z</time>
      </trkpt>
      <trkpt lat="45.93891" lon="3.74123">
        <ele>1049</ele>
        <time>2015-08-05T10:22:02Z</time>
      </trkpt>
      <trkpt lat="45.93893" lon="3.74124">
        <ele>1046</ele>
        <time>2015-08-05T10:22:18Z</time>
      </trkpt>
      <trkpt lat="45.93896" lon="3.74129">
        <ele>1046</ele>
        <time>2015-08-05T10:22:31Z</time>
      </trkpt>
      <trkpt lat="45.93899" lon="3.74128">
        <ele>1046</ele>
        <time>2015-08-05T10:22:46Z</time>
      </trkpt>
      <trkpt lat="45.939" lon="3.74127">
        <ele>1046</ele>
        <time>2015-08-05T10:22:50Z</time>
      </trkpt>
      <trkpt lat="45.93898" lon="3.74126">
        <ele>1047</ele>
        <time>2015-08-05T10:23:01Z</time>
      </trkpt>
      <trkpt lat="45.93897" lon="3.74127">
        <ele>1048</ele>
        <time>2015-08-05T10:23:06Z</time>
      </trkpt>
      <trkpt lat="45.93898" lon="3.74129">
        <ele>1048</ele>
        <time>2015-08-05T10:23:09Z</time>
      </trkpt>
      <trkpt lat="45.93898" lon="3.74128">
        <ele>1048</ele>
        <time>2015-08-05T10:23:15Z</time>
      </trkpt>
      <trkpt lat="45.93898" lon="3.74126">
        <ele>1048</ele>
        <time>2015-08-05T10:23:17Z</time>
      </trkpt>
      <trkpt lat="45.93894" lon="3.7412">
        <ele>1048</ele>
        <time>2015-08-05T10:23:22Z</time>
      </trkpt>
      <trkpt lat="45.93895" lon="3.74116">
        <ele>1045</ele>
        <time>2015-08-05T10:23:31Z</time>
      </trkpt>
      <trkpt lat="45.93895" lon="3.74115">
        <ele>1044</ele>
        <time>2015-08-05T10:23:34Z</time>
      </trkpt>
      <trkpt lat="45.93893" lon="3.74113">
        <ele>1041</ele>
        <time>2015-08-05T10:23:38Z</time>
      </trkpt>
      <trkpt lat="45.93895" lon="3.74114">
        <ele>1039</ele>
        <time>2015-08-05T10:23:50Z</time>
      </trkpt>
      <trkpt lat="45.93894" lon="3.74116">
        <ele>1039</ele>
        <time>2015-08-05T10:23:53Z</time>
      </trkpt>
      <trkpt lat="45.93894" lon="3.74118">
        <ele>1039</ele>
        <time>2015-08-05T10:23:57Z</time>
      </trkpt>
      <trkpt lat="45.93895" lon="3.74121">
        <ele>1039</ele>
        <time>2015-08-05T10:24:02Z</time>
      </trkpt>
      <trkpt lat="45.93895" lon="3.74126">
        <ele>1039</ele>
        <time>2015-08-05T10:24:07Z</time>
      </trkpt>
      <trkpt lat="45.93895" lon="3.74124">
        <ele>1039</ele>
        <time>2015-08-05T10:24:18Z</time>
      </trkpt>
      <trkpt lat="45.93894" lon="3.74123">
        <ele>1039</ele>
        <time>2015-08-05T10:24:25Z</time>
      </trkpt>
      <trkpt lat="45.93894" lon="3.74125">
        <ele>1038</ele>
        <time>2015-08-05T10:24:36Z</time>
      </trkpt>
      <trkpt lat="45.93893" lon="3.74126">
        <ele>1038</ele>
        <time>2015-08-05T10:24:39Z</time>
      </trkpt>
      <trkpt lat="45.93895" lon="3.74127">
        <ele>1039</ele>
        <time>2015-08-05T10:24:43Z</time>
      </trkpt>
      <trkpt lat="45.93893" lon="3.74127">
        <ele>1040</ele>
        <time>2015-08-05T10:24:45Z</time>
      </trkpt>
      <trkpt lat="45.93892" lon="3.74128">
        <ele>1043</ele>
        <time>2015-08-05T10:24:49Z</time>
      </trkpt>
      <trkpt lat="45.93895" lon="3.74128">
        <ele>1049</ele>
        <time>2015-08-05T10:24:56Z</time>
      </trkpt>
      <trkpt lat="45.93895" lon="3.74129">
        <ele>1051</ele>
        <time>2015-08-05T10:24:58Z</time>
      </trkpt>
      <trkpt lat="45.93895" lon="3.74131">
        <ele>1053</ele>
        <time>2015-08-05T10:25:01Z</time>
      </trkpt>
      <trkpt lat="45.93896" lon="3.74131">
        <ele>1055</ele>
        <time>2015-08-05T10:25:03Z</time>
      </trkpt>
      <trkpt lat="45.93896" lon="3.74129">
        <ele>1057</ele>
        <time>2015-08-05T10:25:10Z</time>
      </trkpt>
      <trkpt lat="45.93895" lon="3.74129">
        <ele>1057</ele>
        <time>2015-08-05T10:25:12Z</time>
      </trkpt>
      <trkpt lat="45.93894" lon="3.74131">
        <ele>1057</ele>
        <time>2015-08-05T10:25:27Z</time>
      </trkpt>
      <trkpt lat="45.93892" lon="3.74132">
        <ele>1064</ele>
        <time>2015-08-05T10:25:40Z</time>
      </trkpt>
      <trkpt lat="45.93891" lon="3.7413">
        <ele>1065</ele>
        <time>2015-08-05T10:25:43Z</time>
      </trkpt>
      <trkpt lat="45.93891" lon="3.74128">
        <ele>1065</ele>
        <time>2015-08-05T10:25:47Z</time>
      </trkpt>
      <trkpt lat="45.93892" lon="3.74128">
        <ele>1063</ele>
        <time>2015-08-05T10:25:51Z</time>
      </trkpt>
      <trkpt lat="45.93894" lon="3.74129">
        <ele>1056</ele>
        <time>2015-08-05T10:26:01Z</time>
      </trkpt>
      <trkpt lat="45.93895" lon="3.74128">
        <ele>1056</ele>
        <time>2015-08-05T10:26:03Z</time>
      </trkpt>
      <trkpt lat="45.93897" lon="3.74129">
        <ele>1056</ele>
        <time>2015-08-05T10:26:07Z</time>
      </trkpt>
      <trkpt lat="45.93897" lon="3.74131">
        <ele>1056</ele>
        <time>2015-08-05T10:26:10Z</time>
      </trkpt>
      <trkpt lat="45.93895" lon="3.74133">
        <ele>1056</ele>
        <time>2015-08-05T10:26:12Z</time>
      </trkpt>
      <trkpt lat="45.93892" lon="3.74134">
        <ele>1059</ele>
        <time>2015-08-05T10:26:18Z</time>
      </trkpt>
      <trkpt lat="45.93891" lon="3.74134">
        <ele>1061</ele>
        <time>2015-08-05T10:26:21Z</time>
      </trkpt>
      <trkpt lat="45.93889" lon="3.74132">
        <ele>1061</ele>
        <time>2015-08-05T10:26:23Z</time>
      </trkpt>
      <trkpt lat="45.93886" lon="3.74128">
        <ele>1059</ele>
        <time>2015-08-05T10:26:29Z</time>
      </trkpt>
      <trkpt lat="45.93885" lon="3.74125">
        <ele>1055</ele>
        <time>2015-08-05T10:26:33Z</time>
      </trkpt>
      <trkpt lat="45.93885" lon="3.74119">
        <ele>1048</ele>
        <time>2015-08-05T10:26:38Z</time>
      </trkpt>
      <trkpt lat="45.93886" lon="3.74118">
        <ele>1045</ele>
        <time>2015-08-05T10:26:40Z</time>
      </trkpt>
      <trkpt lat="45.93888" lon="3.74117">
        <ele>1040</ele>
        <time>2015-08-05T10:26:44Z</time>
      </trkpt>
      <trkpt lat="45.93888" lon="3.74119">
        <ele>1035</ele>
        <time>2015-08-05T10:26:49Z</time>
      </trkpt>
      <trkpt lat="45.9389" lon="3.74119">
        <ele>1033</ele>
        <time>2015-08-05T10:26:51Z</time>
      </trkpt>
      <trkpt lat="45.93891" lon="3.74124">
        <ele>1032</ele>
        <time>2015-08-05T10:26:56Z</time>
      </trkpt>
      <trkpt lat="45.93889" lon="3.74125">
        <ele>1032</ele>
        <time>2015-08-05T10:27:00Z</time>
      </trkpt>
      <trkpt lat="45.93888" lon="3.74125">
        <ele>1030</ele>
        <time>2015-08-05T10:27:02Z</time>
      </trkpt>
      <trkpt lat="45.9389" lon="3.74122">
        <ele>1023</ele>
        <time>2015-08-05T10:27:15Z</time>
      </trkpt>
      <trkpt lat="45.93893" lon="3.74125">
        <ele>1022</ele>
        <time>2015-08-05T10:27:18Z</time>
      </trkpt>
      <trkpt lat="45.93891" lon="3.74124">
        <ele>1022</ele>
        <time>2015-08-05T10:27:21Z</time>
      </trkpt>
      <trkpt lat="45.93891" lon="3.74126">
        <ele>1028</ele>
        <time>2015-08-05T10:27:34Z</time>
      </trkpt>
      <trkpt lat="45.9389" lon="3.74122">
        <ele>1032</ele>
        <time>2015-08-05T10:27:41Z</time>
      </trkpt>
      <trkpt lat="45.9389" lon="3.7412">
        <ele>1032</ele>
        <time>2015-08-05T10:27:46Z</time>
      </trkpt>
      <trkpt lat="45.93889" lon="3.74118">
        <ele>1030</ele>
        <time>2015-08-05T10:27:49Z</time>
      </trkpt>
      <trkpt lat="45.9389" lon="3.74117">
        <ele>1029</ele>
        <time>2015-08-05T10:27:51Z</time>
      </trkpt>
      <trkpt lat="45.93889" lon="3.74115">
        <ele>1027</ele>
        <time>2015-08-05T10:27:57Z</time>
      </trkpt>
      <trkpt lat="45.93888" lon="3.74116">
        <ele>1027</ele>
        <time>2015-08-05T10:28:00Z</time>
      </trkpt>
      <trkpt lat="45.93889" lon="3.74118">
        <ele>1027</ele>
        <time>2015-08-05T10:28:05Z</time>
      </trkpt>
      <trkpt lat="45.93888" lon="3.74115">
        <ele>1027</ele>
        <time>2015-08-05T10:28:07Z</time>
      </trkpt>
      <trkpt lat="45.93887" lon="3.74113">
        <ele>1027</ele>
        <time>2015-08-05T10:28:10Z</time>
      </trkpt>
      <trkpt lat="45.93889" lon="3.74115">
        <ele>1027</ele>
        <time>2015-08-05T10:28:19Z</time>
      </trkpt>
      <trkpt lat="45.9389" lon="3.74119">
        <ele>1032</ele>
        <time>2015-08-05T10:28:25Z</time>
      </trkpt>
      <trkpt lat="45.9389" lon="3.7412">
        <ele>1037</ele>
        <time>2015-08-05T10:28:30Z</time>
      </trkpt>
      <trkpt lat="45.93887" lon="3.74117">
        <ele>1038</ele>
        <time>2015-08-05T10:28:43Z</time>
      </trkpt>
      <trkpt lat="45.93886" lon="3.74116">
        <ele>1034</ele>
        <time>2015-08-05T10:28:47Z</time>
      </trkpt>
      <trkpt lat="45.93885" lon="3.74117">
        <ele>1030</ele>
        <time>2015-08-05T10:28:53Z</time>
      </trkpt>
      <trkpt lat="45.93887" lon="3.74119">
        <ele>1032</ele>
        <time>2015-08-05T10:29:00Z</time>
      </trkpt>
      <trkpt lat="45.93889" lon="3.74119">
        <ele>1036</ele>
        <time>2015-08-05T10:29:04Z</time>
      </trkpt>
      <trkpt lat="45.93891" lon="3.74117">
        <ele>1044</ele>
        <time>2015-08-05T10:29:12Z</time>
      </trkpt>
      <trkpt lat="45.93892" lon="3.74118">
        <ele>1052</ele>
        <time>2015-08-05T10:29:20Z</time>
      </trkpt>
      <trkpt lat="45.93892" lon="3.74117">
        <ele>1056</ele>
        <time>2015-08-05T10:29:31Z</time>
      </trkpt>
      <trkpt lat="45.9389" lon="3.74123">
        <ele>1064</ele>
        <time>2015-08-05T10:29:39Z</time>
      </trkpt>
      <trkpt lat="45.93888" lon="3.74126">
        <ele>1065</ele>
        <time>2015-08-05T10:29:44Z</time>
      </trkpt>
      <trkpt lat="45.93888" lon="3.74128">
        <ele>1065</ele>
        <time>2015-08-05T10:29:48Z</time>
      </trkpt>
      <trkpt lat="45.93887" lon="3.74129">
        <ele>1065</ele>
        <time>2015-08-05T10:29:52Z</time>
      </trkpt>
      <trkpt lat="45.93889" lon="3.74128">
        <ele>1063</ele>
        <time>2015-08-05T10:29:57Z</time>
      </trkpt>
      <trkpt lat="45.93891" lon="3.74128">
        <ele>1063</ele>
        <time>2015-08-05T10:29:59Z</time>
      </trkpt>
      <trkpt lat="45.93893" lon="3.74129">
        <ele>1063</ele>
        <time>2015-08-05T10:30:01Z</time>
      </trkpt>
      <trkpt lat="45.9389" lon="3.74129">
        <ele>1061</ele>
        <time>2015-08-05T10:30:15Z</time>
      </trkpt>
      <trkpt lat="45.93889" lon="3.74129">
        <ele>1057</ele>
        <time>2015-08-05T10:30:20Z</time>
      </trkpt>
      <trkpt lat="45.93888" lon="3.74127">
        <ele>1054</ele>
        <time>2015-08-05T10:30:23Z</time>
      </trkpt>
      <trkpt lat="45.93888" lon="3.74125">
        <ele>1049</ele>
        <time>2015-08-05T10:30:28Z</time>
      </trkpt>
      <trkpt lat="45.93887" lon="3.74121">
        <ele>1040</ele>
        <time>2015-08-05T10:30:35Z</time>
      </trkpt>
      <trkpt lat="45.93886" lon="3.7412">
        <ele>1036</ele>
        <time>2015-08-05T10:30:37Z</time>
      </trkpt>
      <trkpt lat="45.93885" lon="3.7412">
        <ele>1029</ele>
        <time>2015-08-05T10:30:43Z</time>
      </trkpt>
      <trkpt lat="45.93885" lon="3.74119">
        <ele>1026</ele>
        <time>2015-08-05T10:30:57Z</time>
      </trkpt>
      <trkpt lat="45.93885" lon="3.74121">
        <ele>1026</ele>
        <time>2015-08-05T10:31:00Z</time>
      </trkpt>
      <trkpt lat="45.93887" lon="3.74128">
        <ele>1026</ele>
        <time>2015-08-05T10:31:04Z</time>
      </trkpt>
      <trkpt lat="45.93888" lon="3.74134">
        <ele>1026</ele>
        <time>2015-08-05T10:31:06Z</time>
      </trkpt>
      <trkpt lat="45.93888" lon="3.7414">
        <ele>1027</ele>
        <time>2015-08-05T10:31:08Z</time>
      </trkpt>
      <trkpt lat="45.93888" lon="3.74144">
        <ele>1029</ele>
        <time>2015-08-05T10:31:10Z</time>
      </trkpt>
      <trkpt lat="45.93887" lon="3.74146">
        <ele>1031</ele>
        <time>2015-08-05T10:31:13Z</time>
      </trkpt>
      <trkpt lat="45.93885" lon="3.74144">
        <ele>1032</ele>
        <time>2015-08-05T10:31:18Z</time>
      </trkpt>
      <trkpt lat="45.93885" lon="3.74141">
        <ele>1018</ele>
        <time>2015-08-05T10:31:38Z</time>
      </trkpt>
      <trkpt lat="45.93886" lon="3.74143">
        <ele>1017</ele>
        <time>2015-08-05T10:31:45Z</time>
      </trkpt>
      <trkpt lat="45.93885" lon="3.74145">
        <ele>1017</ele>
        <time>2015-08-05T10:31:50Z</time>
      </trkpt>
      <trkpt lat="45.93884" lon="3.74146">
        <ele>1017</ele>
        <time>2015-08-05T10:31:53Z</time>
      </trkpt>
      <trkpt lat="45.93884" lon="3.74148">
        <ele>1018</ele>
        <time>2015-08-05T10:31:56Z</time>
      </trkpt>
      <trkpt lat="45.93885" lon="3.74154">
        <ele>1020</ele>
        <time>2015-08-05T10:31:58Z</time>
      </trkpt>
      <trkpt lat="45.93887" lon="3.74156">
        <ele>1023</ele>
        <time>2015-08-05T10:32:00Z</time>
      </trkpt>
      <trkpt lat="45.9389" lon="3.74153">
        <ele>1027</ele>
        <time>2015-08-05T10:32:02Z</time>
      </trkpt>
      <trkpt lat="45.93891" lon="3.74151">
        <ele>1029</ele>
        <time>2015-08-05T10:32:04Z</time>
      </trkpt>
      <trkpt lat="45.93892" lon="3.74146">
        <ele>1031</ele>
        <time>2015-08-05T10:32:06Z</time>
      </trkpt>
      <trkpt lat="45.93894" lon="3.74129">
        <ele>1035</ele>
        <time>2015-08-05T10:32:14Z</time>
      </trkpt>
      <trkpt lat="45.93894" lon="3.74124">
        <ele>1035</ele>
        <time>2015-08-05T10:32:16Z</time>
      </trkpt>
      <trkpt lat="45.93893" lon="3.74123">
        <ele>1035</ele>
        <time>2015-08-05T10:32:18Z</time>
      </trkpt>
      <trkpt lat="45.93895" lon="3.74121">
        <ele>1035</ele>
        <time>2015-08-05T10:32:23Z</time>
      </trkpt>
      <trkpt lat="45.93893" lon="3.74122">
        <ele>1035</ele>
        <time>2015-08-05T10:32:26Z</time>
      </trkpt>
      <trkpt lat="45.93892" lon="3.74121">
        <ele>1031</ele>
        <time>2015-08-05T10:32:31Z</time>
      </trkpt>
      <trkpt lat="45.93894" lon="3.7412">
        <ele>1028</ele>
        <time>2015-08-05T10:32:35Z</time>
      </trkpt>
      <trkpt lat="45.939" lon="3.74124">
        <ele>1028</ele>
        <time>2015-08-05T10:32:39Z</time>
      </trkpt>
      <trkpt lat="45.939" lon="3.74126">
        <ele>1032</ele>
        <time>2015-08-05T10:32:44Z</time>
      </trkpt>
      <trkpt lat="45.93901" lon="3.74126">
        <ele>1034</ele>
        <time>2015-08-05T10:32:46Z</time>
      </trkpt>
      <trkpt lat="45.93902" lon="3.74128">
        <ele>1037</ele>
        <time>2015-08-05T10:32:49Z</time>
      </trkpt>
      <trkpt lat="45.93902" lon="3.74131">
        <ele>1043</ele>
        <time>2015-08-05T10:33:00Z</time>
      </trkpt>
      <trkpt lat="45.93902" lon="3.74133">
        <ele>1047</ele>
        <time>2015-08-05T10:33:09Z</time>
      </trkpt>
      <trkpt lat="45.93905" lon="3.7413">
        <ele>1047</ele>
        <time>2015-08-05T10:33:18Z</time>
      </trkpt>
      <trkpt lat="45.93905" lon="3.74128">
        <ele>1047</ele>
        <time>2015-08-05T10:33:25Z</time>
      </trkpt>
      <trkpt lat="45.93906" lon="3.7413">
        <ele>1047</ele>
        <time>2015-08-05T10:33:31Z</time>
      </trkpt>
      <trkpt lat="45.93907" lon="3.74129">
        <ele>1047</ele>
        <time>2015-08-05T10:33:33Z</time>
      </trkpt>
      <trkpt lat="45.93906" lon="3.74131">
        <ele>1046</ele>
        <time>2015-08-05T10:33:42Z</time>
      </trkpt>
      <trkpt lat="45.93905" lon="3.74133">
        <ele>1045</ele>
        <time>2015-08-05T10:33:45Z</time>
      </trkpt>
      <trkpt lat="45.93905" lon="3.74131">
        <ele>1044</ele>
        <time>2015-08-05T10:33:51Z</time>
      </trkpt>
      <trkpt lat="45.93905" lon="3.7413">
        <ele>1042</ele>
        <time>2015-08-05T10:33:57Z</time>
      </trkpt>
      <trkpt lat="45.93905" lon="3.74128">
        <ele>1041</ele>
        <time>2015-08-05T10:34:01Z</time>
      </trkpt>
      <trkpt lat="45.93905" lon="3.74127">
        <ele>1041</ele>
        <time>2015-08-05T10:34:08Z</time>
      </trkpt>
      <trkpt lat="45.93903" lon="3.74126">
        <ele>1041</ele>
        <time>2015-08-05T10:34:10Z</time>
      </trkpt>
      <trkpt lat="45.93901" lon="3.74126">
        <ele>1041</ele>
        <time>2015-08-05T10:34:13Z</time>
      </trkpt>
      <trkpt lat="45.93902" lon="3.74124">
        <ele>1041</ele>
        <time>2015-08-05T10:34:15Z</time>
      </trkpt>
      <trkpt lat="45.93898" lon="3.74129">
        <ele>1044</ele>
        <time>2015-08-05T10:34:23Z</time>
      </trkpt>
      <trkpt lat="45.93901" lon="3.74131">
        <ele>1044</ele>
        <time>2015-08-05T10:34:27Z</time>
      </trkpt>
      <trkpt lat="45.93906" lon="3.7413">
        <ele>1044</ele>
        <time>2015-08-05T10:34:32Z</time>
      </trkpt>
      <trkpt lat="45.93908" lon="3.74131">
        <ele>1044</ele>
        <time>2015-08-05T10:34:35Z</time>
      </trkpt>
      <trkpt lat="45.93908" lon="3.74134">
        <ele>1044</ele>
        <time>2015-08-05T10:34:38Z</time>
      </trkpt>
      <trkpt lat="45.93908" lon="3.74135">
        <ele>1044</ele>
        <time>2015-08-05T10:34:40Z</time>
      </trkpt>
      <trkpt lat="45.93904" lon="3.74134">
        <ele>1044</ele>
        <time>2015-08-05T10:34:50Z</time>
      </trkpt>
      <trkpt lat="45.93901" lon="3.7413">
        <ele>1044</ele>
        <time>2015-08-05T10:34:55Z</time>
      </trkpt>
      <trkpt lat="45.93898" lon="3.74124">
        <ele>1043</ele>
        <time>2015-08-05T10:34:59Z</time>
      </trkpt>
      <trkpt lat="45.93897" lon="3.74122">
        <ele>1041</ele>
        <time>2015-08-05T10:35:01Z</time>
      </trkpt>
      <trkpt lat="45.93894" lon="3.74121">
        <ele>1038</ele>
        <time>2015-08-05T10:35:04Z</time>
      </trkpt>
      <trkpt lat="45.93891" lon="3.74122">
        <ele>1037</ele>
        <time>2015-08-05T10:35:09Z</time>
      </trkpt>
      <trkpt lat="45.9389" lon="3.74124">
        <ele>1037</ele>
        <time>2015-08-05T10:35:14Z</time>
      </trkpt>
      <trkpt lat="45.93892" lon="3.74124">
        <ele>1037</ele>
        <time>2015-08-05T10:35:21Z</time>
      </trkpt>
      <trkpt lat="45.93893" lon="3.74125">
        <ele>1037</ele>
        <time>2015-08-05T10:35:24Z</time>
      </trkpt>
      <trkpt lat="45.93892" lon="3.74126">
        <ele>1037</ele>
        <time>2015-08-05T10:35:26Z</time>
      </trkpt>
      <trkpt lat="45.93891" lon="3.74124">
        <ele>1037</ele>
        <time>2015-08-05T10:35:30Z</time>
      </trkpt>
      <trkpt lat="45.9389" lon="3.74122">
        <ele>1037</ele>
        <time>2015-08-05T10:35:33Z</time>
      </trkpt>
      <trkpt lat="45.93893" lon="3.74123">
        <ele>1036</ele>
        <time>2015-08-05T10:35:36Z</time>
      </trkpt>
      <trkpt lat="45.93893" lon="3.74125">
        <ele>1036</ele>
        <time>2015-08-05T10:35:40Z</time>
      </trkpt>
      <trkpt lat="45.93892" lon="3.74125">
        <ele>1036</ele>
        <time>2015-08-05T10:35:45Z</time>
      </trkpt>
      <trkpt lat="45.93891" lon="3.74121">
        <ele>1033</ele>
        <time>2015-08-05T10:35:54Z</time>
      </trkpt>
      <trkpt lat="45.93887" lon="3.74118">
        <ele>1029</ele>
        <time>2015-08-05T10:35:58Z</time>
      </trkpt>
      <trkpt lat="45.93883" lon="3.74121">
        <ele>1024</ele>
        <time>2015-08-05T10:36:06Z</time>
      </trkpt>
      <trkpt lat="45.93882" lon="3.7412">
        <ele>1024</ele>
        <time>2015-08-05T10:36:08Z</time>
      </trkpt>
      <trkpt lat="45.93882" lon="3.74119">
        <ele>1024</ele>
        <time>2015-08-05T10:36:11Z</time>
      </trkpt>
      <trkpt lat="45.93883" lon="3.74118">
        <ele>1019</ele>
        <time>2015-08-05T10:36:18Z</time>
      </trkpt>
      <trkpt lat="45.93882" lon="3.74121">
        <ele>1016</ele>
        <time>2015-08-05T10:36:22Z</time>
      </trkpt>
      <trkpt lat="45.93884" lon="3.74119">
        <ele>1016</ele>
        <time>2015-08-05T10:36:26Z</time>
      </trkpt>
      <trkpt lat="45.93884" lon="3.74118">
        <ele>1015</ele>
        <time>2015-08-05T10:36:28Z</time>
      </trkpt>
      <trkpt lat="45.93885" lon="3.74117">
        <ele>1014</ele>
        <time>2015-08-05T10:36:30Z</time>
      </trkpt>
      <trkpt lat="45.93887" lon="3.74119">
        <ele>1014</ele>
        <time>2015-08-05T10:36:34Z</time>
      </trkpt>
      <trkpt lat="45.93888" lon="3.74117">
        <ele>1017</ele>
        <time>2015-08-05T10:36:38Z</time>
      </trkpt>
      <trkpt lat="45.93888" lon="3.74115">
        <ele>1017</ele>
        <time>2015-08-05T10:36:40Z</time>
      </trkpt>
      <trkpt lat="45.9389" lon="3.74116">
        <ele>1017</ele>
        <time>2015-08-05T10:36:43Z</time>
      </trkpt>
      <trkpt lat="45.93889" lon="3.74118">
        <ele>1019</ele>
        <time>2015-08-05T10:36:47Z</time>
      </trkpt>
      <trkpt lat="45.93886" lon="3.7412">
        <ele>1022</ele>
        <time>2015-08-05T10:36:50Z</time>
      </trkpt>
      <trkpt lat="45.93885" lon="3.74121">
        <ele>1023</ele>
        <time>2015-08-05T10:36:52Z</time>
      </trkpt>
      <trkpt lat="45.93882" lon="3.74124">
        <ele>1024</ele>
        <time>2015-08-05T10:36:56Z</time>
      </trkpt>
      <trkpt lat="45.93881" lon="3.74126">
        <ele>1024</ele>
        <time>2015-08-05T10:36:59Z</time>
      </trkpt>
      <trkpt lat="45.93879" lon="3.74123">
        <ele>1025</ele>
        <time>2015-08-05T10:37:09Z</time>
      </trkpt>
      <trkpt lat="45.93879" lon="3.74121">
        <ele>1025</ele>
        <time>2015-08-05T10:37:11Z</time>
      </trkpt>
      <trkpt lat="45.9388" lon="3.7412">
        <ele>1020</ele>
        <time>2015-08-05T10:37:16Z</time>
      </trkpt>
      <trkpt lat="45.93882" lon="3.74119">
        <ele>1020</ele>
        <time>2015-08-05T10:37:20Z</time>
      </trkpt>
      <trkpt lat="45.93883" lon="3.74121">
        <ele>1021</ele>
        <time>2015-08-05T10:37:22Z</time>
      </trkpt>
      <trkpt lat="45.93882" lon="3.74119">
        <ele>1024</ele>
        <time>2015-08-05T10:37:25Z</time>
      </trkpt>
      <trkpt lat="45.93881" lon="3.74117">
        <ele>1024</ele>
        <time>2015-08-05T10:37:28Z</time>
      </trkpt>
      <trkpt lat="45.93882" lon="3.74115">
        <ele>1022</ele>
        <time>2015-08-05T10:37:33Z</time>
      </trkpt>
      <trkpt lat="45.93882" lon="3.74113">
        <ele>1022</ele>
        <time>2015-08-05T10:37:38Z</time>
      </trkpt>
      <trkpt lat="45.93884" lon="3.74115">
        <ele>1022</ele>
        <time>2015-08-05T10:37:41Z</time>
      </trkpt>
      <trkpt lat="45.93885" lon="3.74118">
        <ele>1027</ele>
        <time>2015-08-05T10:37:47Z</time>
      </trkpt>
      <trkpt lat="45.93887" lon="3.74119">
        <ele>1029</ele>
        <time>2015-08-05T10:37:49Z</time>
      </trkpt>
      <trkpt lat="45.93885" lon="3.74119">
        <ele>1031</ele>
        <time>2015-08-05T10:37:53Z</time>
      </trkpt>
      <trkpt lat="45.93887" lon="3.74123">
        <ele>1033</ele>
        <time>2015-08-05T10:38:01Z</time>
      </trkpt>
      <trkpt lat="45.93889" lon="3.74127">
        <ele>1034</ele>
        <time>2015-08-05T10:38:05Z</time>
      </trkpt>
      <trkpt lat="45.93892" lon="3.74129">
        <ele>1035</ele>
        <time>2015-08-05T10:38:08Z</time>
      </trkpt>
      <trkpt lat="45.93894" lon="3.74131">
        <ele>1036</ele>
        <time>2015-08-05T10:38:12Z</time>
      </trkpt>
      <trkpt lat="45.93896" lon="3.74135">
        <ele>1039</ele>
        <time>2015-08-05T10:38:15Z</time>
      </trkpt>
      <trkpt lat="45.93901" lon="3.74138">
        <ele>1041</ele>
        <time>2015-08-05T10:38:19Z</time>
      </trkpt>
      <trkpt lat="45.93903" lon="3.74137">
        <ele>1041</ele>
        <time>2015-08-05T10:38:21Z</time>
      </trkpt>
      <trkpt lat="45.93912" lon="3.74133">
        <ele>1041</ele>
        <time>2015-08-05T10:38:31Z</time>
      </trkpt>
      <trkpt lat="45.93914" lon="3.74131">
        <ele>1041</ele>
        <time>2015-08-05T10:38:33Z</time>
      </trkpt>
      <trkpt lat="45.93917" lon="3.7413">
        <ele>1041</ele>
        <time>2015-08-05T10:38:36Z</time>
      </trkpt>
      <trkpt lat="45.93919" lon="3.74128">
        <ele>1041</ele>
        <time>2015-08-05T10:38:38Z</time>
      </trkpt>
      <trkpt lat="45.93924" lon="3.74126">
        <ele>1041</ele>
        <time>2015-08-05T10:38:45Z</time>
      </trkpt>
      <trkpt lat="45.93927" lon="3.74124">
        <ele>1041</ele>
        <time>2015-08-05T10:38:49Z</time>
      </trkpt>
      <trkpt lat="45.93931" lon="3.74122">
        <ele>1041</ele>
        <time>2015-08-05T10:38:54Z</time>
      </trkpt>
      <trkpt lat="45.93932" lon="3.7412">
        <ele>1041</ele>
        <time>2015-08-05T10:38:56Z</time>
      </trkpt>
      <trkpt lat="45.93938" lon="3.7411">
        <ele>1041</ele>
        <time>2015-08-05T10:39:08Z</time>
      </trkpt>
      <trkpt lat="45.93943" lon="3.74104">
        <ele>1041</ele>
        <time>2015-08-05T10:39:14Z</time>
      </trkpt>
      <trkpt lat="45.93944" lon="3.74102">
        <ele>1041</ele>
        <time>2015-08-05T10:39:16Z</time>
      </trkpt>
      <trkpt lat="45.93945" lon="3.741">
        <ele>1041</ele>
        <time>2015-08-05T10:39:18Z</time>
      </trkpt>
      <trkpt lat="45.93947" lon="3.74098">
        <ele>1041</ele>
        <time>2015-08-05T10:39:20Z</time>
      </trkpt>
      <trkpt lat="45.93948" lon="3.74096">
        <ele>1041</ele>
        <time>2015-08-05T10:39:22Z</time>
      </trkpt>
      <trkpt lat="45.93951" lon="3.74092">
        <ele>1041</ele>
        <time>2015-08-05T10:39:26Z</time>
      </trkpt>
      <trkpt lat="45.93954" lon="3.74088">
        <ele>1041</ele>
        <time>2015-08-05T10:39:29Z</time>
      </trkpt>
      <trkpt lat="45.93957" lon="3.74083">
        <ele>1041</ele>
        <time>2015-08-05T10:39:33Z</time>
      </trkpt>
      <trkpt lat="45.9396" lon="3.74074">
        <ele>1041</ele>
        <time>2015-08-05T10:39:39Z</time>
      </trkpt>
      <trkpt lat="45.9396" lon="3.74072">
        <ele>1043</ele>
        <time>2015-08-05T10:39:41Z</time>
      </trkpt>
      <trkpt lat="45.93961" lon="3.74067">
        <ele>1045</ele>
        <time>2015-08-05T10:39:45Z</time>
      </trkpt>
      <trkpt lat="45.9396" lon="3.74062">
        <ele>1046</ele>
        <time>2015-08-05T10:39:48Z</time>
      </trkpt>
      <trkpt lat="45.93961" lon="3.74058">
        <ele>1046</ele>
        <time>2015-08-05T10:39:50Z</time>
      </trkpt>
      <trkpt lat="45.93962" lon="3.74055">
        <ele>1046</ele>
        <time>2015-08-05T10:39:52Z</time>
      </trkpt>
      <trkpt lat="45.93962" lon="3.74047">
        <ele>1046</ele>
        <time>2015-08-05T10:39:56Z</time>
      </trkpt>
      <trkpt lat="45.93962" lon="3.74042">
        <ele>1044</ele>
        <time>2015-08-05T10:39:59Z</time>
      </trkpt>
      <trkpt lat="45.93963" lon="3.74039">
        <ele>1043</ele>
        <time>2015-08-05T10:40:01Z</time>
      </trkpt>
      <trkpt lat="45.93964" lon="3.74037">
        <ele>1043</ele>
        <time>2015-08-05T10:40:04Z</time>
      </trkpt>
      <trkpt lat="45.93964" lon="3.74033">
        <ele>1045</ele>
        <time>2015-08-05T10:40:06Z</time>
      </trkpt>
      <trkpt lat="45.93964" lon="3.74029">
        <ele>1047</ele>
        <time>2015-08-05T10:40:08Z</time>
      </trkpt>
      <trkpt lat="45.93963" lon="3.74026">
        <ele>1048</ele>
        <time>2015-08-05T10:40:10Z</time>
      </trkpt>
      <trkpt lat="45.93962" lon="3.74019">
        <ele>1048</ele>
        <time>2015-08-05T10:40:14Z</time>
      </trkpt>
      <trkpt lat="45.93961" lon="3.74016">
        <ele>1046</ele>
        <time>2015-08-05T10:40:16Z</time>
      </trkpt>
      <trkpt lat="45.93962" lon="3.74012">
        <ele>1045</ele>
        <time>2015-08-05T10:40:18Z</time>
      </trkpt>
      <trkpt lat="45.9396" lon="3.74009">
        <ele>1043</ele>
        <time>2015-08-05T10:40:20Z</time>
      </trkpt>
      <trkpt lat="45.9396" lon="3.74005">
        <ele>1041</ele>
        <time>2015-08-05T10:40:22Z</time>
      </trkpt>
      <trkpt lat="45.93958" lon="3.74004">
        <ele>1039</ele>
        <time>2015-08-05T10:40:24Z</time>
      </trkpt>
      <trkpt lat="45.93958" lon="3.74">
        <ele>1038</ele>
        <time>2015-08-05T10:40:26Z</time>
      </trkpt>
      <trkpt lat="45.93956" lon="3.73992">
        <ele>1033</ele>
        <time>2015-08-05T10:40:31Z</time>
      </trkpt>
      <trkpt lat="45.93956" lon="3.73988">
        <ele>1031</ele>
        <time>2015-08-05T10:40:33Z</time>
      </trkpt>
      <trkpt lat="45.93954" lon="3.73984">
        <ele>1028</ele>
        <time>2015-08-05T10:40:36Z</time>
      </trkpt>
      <trkpt lat="45.93954" lon="3.73981">
        <ele>1025</ele>
        <time>2015-08-05T10:40:39Z</time>
      </trkpt>
      <trkpt lat="45.93952" lon="3.73977">
        <ele>1024</ele>
        <time>2015-08-05T10:40:43Z</time>
      </trkpt>
      <trkpt lat="45.93952" lon="3.73973">
        <ele>1024</ele>
        <time>2015-08-05T10:40:45Z</time>
      </trkpt>
      <trkpt lat="45.93952" lon="3.73969">
        <ele>1023</ele>
        <time>2015-08-05T10:40:48Z</time>
      </trkpt>
      <trkpt lat="45.93952" lon="3.73966">
        <ele>1021</ele>
        <time>2015-08-05T10:40:50Z</time>
      </trkpt>
      <trkpt lat="45.93952" lon="3.73961">
        <ele>1019</ele>
        <time>2015-08-05T10:40:52Z</time>
      </trkpt>
      <trkpt lat="45.93954" lon="3.73958">
        <ele>1019</ele>
        <time>2015-08-05T10:40:54Z</time>
      </trkpt>
      <trkpt lat="45.93956" lon="3.7395">
        <ele>1025</ele>
        <time>2015-08-05T10:40:59Z</time>
      </trkpt>
      <trkpt lat="45.93957" lon="3.73949">
        <ele>1029</ele>
        <time>2015-08-05T10:41:01Z</time>
      </trkpt>
      <trkpt lat="45.93958" lon="3.73944">
        <ele>1033</ele>
        <time>2015-08-05T10:41:04Z</time>
      </trkpt>
      <trkpt lat="45.93958" lon="3.73942">
        <ele>1035</ele>
        <time>2015-08-05T10:41:06Z</time>
      </trkpt>
      <trkpt lat="45.93959" lon="3.73939">
        <ele>1036</ele>
        <time>2015-08-05T10:41:08Z</time>
      </trkpt>
      <trkpt lat="45.9396" lon="3.73936">
        <ele>1036</ele>
        <time>2015-08-05T10:41:10Z</time>
      </trkpt>
      <trkpt lat="45.9396" lon="3.73932">
        <ele>1038</ele>
        <time>2015-08-05T10:41:12Z</time>
      </trkpt>
      <trkpt lat="45.93961" lon="3.7393">
        <ele>1040</ele>
        <time>2015-08-05T10:41:14Z</time>
      </trkpt>
      <trkpt lat="45.93962" lon="3.73926">
        <ele>1040</ele>
        <time>2015-08-05T10:41:17Z</time>
      </trkpt>
      <trkpt lat="45.93961" lon="3.73922">
        <ele>1040</ele>
        <time>2015-08-05T10:41:20Z</time>
      </trkpt>
      <trkpt lat="45.93961" lon="3.73918">
        <ele>1040</ele>
        <time>2015-08-05T10:41:24Z</time>
      </trkpt>
      <trkpt lat="45.93961" lon="3.73908">
        <ele>1040</ele>
        <time>2015-08-05T10:41:30Z</time>
      </trkpt>
      <trkpt lat="45.93958" lon="3.73905">
        <ele>1042</ele>
        <time>2015-08-05T10:41:34Z</time>
      </trkpt>
      <trkpt lat="45.93959" lon="3.73897">
        <ele>1044</ele>
        <time>2015-08-05T10:41:40Z</time>
      </trkpt>
      <trkpt lat="45.93958" lon="3.73892">
        <ele>1044</ele>
        <time>2015-08-05T10:41:44Z</time>
      </trkpt>
      <trkpt lat="45.93958" lon="3.73889">
        <ele>1044</ele>
        <time>2015-08-05T10:41:46Z</time>
      </trkpt>
      <trkpt lat="45.93957" lon="3.73886">
        <ele>1044</ele>
        <time>2015-08-05T10:41:48Z</time>
      </trkpt>
      <trkpt lat="45.93954" lon="3.73879">
        <ele>1040</ele>
        <time>2015-08-05T10:41:53Z</time>
      </trkpt>
      <trkpt lat="45.93953" lon="3.73872">
        <ele>1040</ele>
        <time>2015-08-05T10:41:58Z</time>
      </trkpt>
      <trkpt lat="45.93953" lon="3.73869">
        <ele>1040</ele>
        <time>2015-08-05T10:42:00Z</time>
      </trkpt>
      <trkpt lat="45.93951" lon="3.73864">
        <ele>1038</ele>
        <time>2015-08-05T10:42:04Z</time>
      </trkpt>
      <trkpt lat="45.93953" lon="3.73862">
        <ele>1038</ele>
        <time>2015-08-05T10:42:07Z</time>
      </trkpt>
      <trkpt lat="45.93953" lon="3.73859">
        <ele>1037</ele>
        <time>2015-08-05T10:42:09Z</time>
      </trkpt>
      <trkpt lat="45.93953" lon="3.73857">
        <ele>1035</ele>
        <time>2015-08-05T10:42:11Z</time>
      </trkpt>
      <trkpt lat="45.93952" lon="3.73847">
        <ele>1030</ele>
        <time>2015-08-05T10:42:19Z</time>
      </trkpt>
      <trkpt lat="45.93951" lon="3.73845">
        <ele>1029</ele>
        <time>2015-08-05T10:42:21Z</time>
      </trkpt>
      <trkpt lat="45.93952" lon="3.73842">
        <ele>1029</ele>
        <time>2015-08-05T10:42:23Z</time>
      </trkpt>
      <trkpt lat="45.9395" lon="3.73838">
        <ele>1029</ele>
        <time>2015-08-05T10:42:27Z</time>
      </trkpt>
      <trkpt lat="45.93948" lon="3.73834">
        <ele>1027</ele>
        <time>2015-08-05T10:42:31Z</time>
      </trkpt>
      <trkpt lat="45.93945" lon="3.73828">
        <ele>1022</ele>
        <time>2015-08-05T10:42:37Z</time>
      </trkpt>
      <trkpt lat="45.93944" lon="3.73825">
        <ele>1022</ele>
        <time>2015-08-05T10:42:39Z</time>
      </trkpt>
      <trkpt lat="45.93942" lon="3.73823">
        <ele>1022</ele>
        <time>2015-08-05T10:42:41Z</time>
      </trkpt>
      <trkpt lat="45.93939" lon="3.73818">
        <ele>1022</ele>
        <time>2015-08-05T10:42:45Z</time>
      </trkpt>
      <trkpt lat="45.93937" lon="3.73815">
        <ele>1022</ele>
        <time>2015-08-05T10:42:48Z</time>
      </trkpt>
      <trkpt lat="45.93934" lon="3.7381">
        <ele>1019</ele>
        <time>2015-08-05T10:42:55Z</time>
      </trkpt>
      <trkpt lat="45.93933" lon="3.73807">
        <ele>1023</ele>
        <time>2015-08-05T10:42:59Z</time>
      </trkpt>
      <trkpt lat="45.93932" lon="3.73803">
        <ele>1026</ele>
        <time>2015-08-05T10:43:02Z</time>
      </trkpt>
      <trkpt lat="45.93931" lon="3.73801">
        <ele>1030</ele>
        <time>2015-08-05T10:43:04Z</time>
      </trkpt>
      <trkpt lat="45.9393" lon="3.73799">
        <ele>1032</ele>
        <time>2015-08-05T10:43:06Z</time>
      </trkpt>
      <trkpt lat="45.93928" lon="3.73792">
        <ele>1039</ele>
        <time>2015-08-05T10:43:12Z</time>
      </trkpt>
      <trkpt lat="45.93927" lon="3.73791">
        <ele>1043</ele>
        <time>2015-08-05T10:43:14Z</time>
      </trkpt>
      <trkpt lat="45.93927" lon="3.73788">
        <ele>1047</ele>
        <time>2015-08-05T10:43:16Z</time>
      </trkpt>
      <trkpt lat="45.93927" lon="3.73786">
        <ele>1050</ele>
        <time>2015-08-05T10:43:18Z</time>
      </trkpt>
      <trkpt lat="45.93925" lon="3.73784">
        <ele>1052</ele>
        <time>2015-08-05T10:43:20Z</time>
      </trkpt>
      <trkpt lat="45.93922" lon="3.73781">
        <ele>1056</ele>
        <time>2015-08-05T10:43:24Z</time>
      </trkpt>
      <trkpt lat="45.93919" lon="3.73776">
        <ele>1059</ele>
        <time>2015-08-05T10:43:30Z</time>
      </trkpt>
      <trkpt lat="45.93917" lon="3.73774">
        <ele>1059</ele>
        <time>2015-08-05T10:43:32Z</time>
      </trkpt>
      <trkpt lat="45.93916" lon="3.73771">
        <ele>1059</ele>
        <time>2015-08-05T10:43:34Z</time>
      </trkpt>
      <trkpt lat="45.93915" lon="3.73769">
        <ele>1059</ele>
        <time>2015-08-05T10:43:36Z</time>
      </trkpt>
      <trkpt lat="45.9391" lon="3.7376">
        <ele>1053</ele>
        <time>2015-08-05T10:43:43Z</time>
      </trkpt>
      <trkpt lat="45.93908" lon="3.73758">
        <ele>1051</ele>
        <time>2015-08-05T10:43:45Z</time>
      </trkpt>
      <trkpt lat="45.93907" lon="3.73756">
        <ele>1049</ele>
        <time>2015-08-05T10:43:47Z</time>
      </trkpt>
      <trkpt lat="45.93904" lon="3.73752">
        <ele>1044</ele>
        <time>2015-08-05T10:43:51Z</time>
      </trkpt>
      <trkpt lat="45.93903" lon="3.7375">
        <ele>1042</ele>
        <time>2015-08-05T10:43:53Z</time>
      </trkpt>
      <trkpt lat="45.93898" lon="3.73742">
        <ele>1036</ele>
        <time>2015-08-05T10:44:02Z</time>
      </trkpt>
      <trkpt lat="45.93897" lon="3.73738">
        <ele>1036</ele>
        <time>2015-08-05T10:44:04Z</time>
      </trkpt>
      <trkpt lat="45.93896" lon="3.73734">
        <ele>1034</ele>
        <time>2015-08-05T10:44:07Z</time>
      </trkpt>
      <trkpt lat="45.93894" lon="3.73733">
        <ele>1032</ele>
        <time>2015-08-05T10:44:09Z</time>
      </trkpt>
      <trkpt lat="45.9389" lon="3.73728">
        <ele>1031</ele>
        <time>2015-08-05T10:44:14Z</time>
      </trkpt>
      <trkpt lat="45.93888" lon="3.73727">
        <ele>1031</ele>
        <time>2015-08-05T10:44:16Z</time>
      </trkpt>
      <trkpt lat="45.93886" lon="3.73724">
        <ele>1031</ele>
        <time>2015-08-05T10:44:19Z</time>
      </trkpt>
      <trkpt lat="45.93882" lon="3.7372">
        <ele>1029</ele>
        <time>2015-08-05T10:44:24Z</time>
      </trkpt>
      <trkpt lat="45.9388" lon="3.73719">
        <ele>1027</ele>
        <time>2015-08-05T10:44:26Z</time>
      </trkpt>
      <trkpt lat="45.93874" lon="3.73714">
        <ele>1023</ele>
        <time>2015-08-05T10:44:32Z</time>
      </trkpt>
      <trkpt lat="45.93871" lon="3.7371">
        <ele>1020</ele>
        <time>2015-08-05T10:44:36Z</time>
      </trkpt>
      <trkpt lat="45.93867" lon="3.73707">
        <ele>1023</ele>
        <time>2015-08-05T10:44:40Z</time>
      </trkpt>
      <trkpt lat="45.93862" lon="3.73701">
        <ele>1025</ele>
        <time>2015-08-05T10:44:45Z</time>
      </trkpt>
      <trkpt lat="45.93859" lon="3.73698">
        <ele>1025</ele>
        <time>2015-08-05T10:44:49Z</time>
      </trkpt>
      <trkpt lat="45.93852" lon="3.73691">
        <ele>1019</ele>
        <time>2015-08-05T10:44:57Z</time>
      </trkpt>
      <trkpt lat="45.93848" lon="3.73687">
        <ele>1015</ele>
        <time>2015-08-05T10:45:01Z</time>
      </trkpt>
      <trkpt lat="45.93848" lon="3.73686">
        <ele>1016</ele>
        <time>2015-08-05T10:45:05Z</time>
      </trkpt>
      <trkpt lat="45.93844" lon="3.73679">
        <ele>1016</ele>
        <time>2015-08-05T10:45:10Z</time>
      </trkpt>
      <trkpt lat="45.93845" lon="3.73678">
        <ele>1042</ele>
        <time>2015-08-05T10:45:20Z</time>
      </trkpt>
      <trkpt lat="45.93845" lon="3.7368">
        <ele>1051</ele>
        <time>2015-08-05T10:45:27Z</time>
      </trkpt>
      <trkpt lat="45.93844" lon="3.73681">
        <ele>1054</ele>
        <time>2015-08-05T10:45:30Z</time>
      </trkpt>
      <trkpt lat="45.93841" lon="3.73684">
        <ele>1063</ele>
        <time>2015-08-05T10:45:38Z</time>
      </trkpt>
      <trkpt lat="45.9384" lon="3.73684">
        <ele>1066</ele>
        <time>2015-08-05T10:45:41Z</time>
      </trkpt>
      <trkpt lat="45.93841" lon="3.73682">
        <ele>1067</ele>
        <time>2015-08-05T10:45:50Z</time>
      </trkpt>
      <trkpt lat="45.93841" lon="3.7368">
        <ele>1067</ele>
        <time>2015-08-05T10:46:04Z</time>
      </trkpt>
      <trkpt lat="45.93837" lon="3.73675">
        <ele>1065</ele>
        <time>2015-08-05T10:46:12Z</time>
      </trkpt>
      <trkpt lat="45.93834" lon="3.73665">
        <ele>1064</ele>
        <time>2015-08-05T10:46:20Z</time>
      </trkpt>
      <trkpt lat="45.93834" lon="3.73664">
        <ele>1064</ele>
        <time>2015-08-05T10:46:22Z</time>
      </trkpt>
      <trkpt lat="45.93834" lon="3.73662">
        <ele>1064</ele>
        <time>2015-08-05T10:46:29Z</time>
      </trkpt>
      <trkpt lat="45.93832" lon="3.73655">
        <ele>1064</ele>
        <time>2015-08-05T10:46:34Z</time>
      </trkpt>
      <trkpt lat="45.93828" lon="3.73651">
        <ele>1064</ele>
        <time>2015-08-05T10:46:38Z</time>
      </trkpt>
      <trkpt lat="45.93827" lon="3.73648">
        <ele>1064</ele>
        <time>2015-08-05T10:46:40Z</time>
      </trkpt>
      <trkpt lat="45.93825" lon="3.73644">
        <ele>1064</ele>
        <time>2015-08-05T10:46:43Z</time>
      </trkpt>
      <trkpt lat="45.93824" lon="3.73642">
        <ele>1064</ele>
        <time>2015-08-05T10:46:45Z</time>
      </trkpt>
      <trkpt lat="45.93819" lon="3.73634">
        <ele>1062</ele>
        <time>2015-08-05T10:46:51Z</time>
      </trkpt>
      <trkpt lat="45.93819" lon="3.73631">
        <ele>1060</ele>
        <time>2015-08-05T10:46:53Z</time>
      </trkpt>
      <trkpt lat="45.93818" lon="3.73629">
        <ele>1059</ele>
        <time>2015-08-05T10:46:55Z</time>
      </trkpt>
      <trkpt lat="45.93816" lon="3.73627">
        <ele>1059</ele>
        <time>2015-08-05T10:46:57Z</time>
      </trkpt>
      <trkpt lat="45.93811" lon="3.73619">
        <ele>1059</ele>
        <time>2015-08-05T10:47:03Z</time>
      </trkpt>
      <trkpt lat="45.9381" lon="3.73617">
        <ele>1059</ele>
        <time>2015-08-05T10:47:05Z</time>
      </trkpt>
      <trkpt lat="45.9381" lon="3.73614">
        <ele>1059</ele>
        <time>2015-08-05T10:47:07Z</time>
      </trkpt>
      <trkpt lat="45.93808" lon="3.73612">
        <ele>1059</ele>
        <time>2015-08-05T10:47:09Z</time>
      </trkpt>
      <trkpt lat="45.93806" lon="3.73609">
        <ele>1059</ele>
        <time>2015-08-05T10:47:11Z</time>
      </trkpt>
      <trkpt lat="45.93804" lon="3.73605">
        <ele>1058</ele>
        <time>2015-08-05T10:47:15Z</time>
      </trkpt>
      <trkpt lat="45.93802" lon="3.73602">
        <ele>1057</ele>
        <time>2015-08-05T10:47:17Z</time>
      </trkpt>
      <trkpt lat="45.938" lon="3.736">
        <ele>1056</ele>
        <time>2015-08-05T10:47:19Z</time>
      </trkpt>
      <trkpt lat="45.93799" lon="3.73596">
        <ele>1054</ele>
        <time>2015-08-05T10:47:21Z</time>
      </trkpt>
      <trkpt lat="45.93797" lon="3.7359">
        <ele>1054</ele>
        <time>2015-08-05T10:47:26Z</time>
      </trkpt>
      <trkpt lat="45.93793" lon="3.73582">
        <ele>1055</ele>
        <time>2015-08-05T10:47:31Z</time>
      </trkpt>
      <trkpt lat="45.93791" lon="3.73574">
        <ele>1055</ele>
        <time>2015-08-05T10:47:35Z</time>
      </trkpt>
      <trkpt lat="45.93785" lon="3.73568">
        <ele>1055</ele>
        <time>2015-08-05T10:47:40Z</time>
      </trkpt>
      <trkpt lat="45.93786" lon="3.7356">
        <ele>1055</ele>
        <time>2015-08-05T10:47:44Z</time>
      </trkpt>
      <trkpt lat="45.93786" lon="3.73555">
        <ele>1057</ele>
        <time>2015-08-05T10:47:46Z</time>
      </trkpt>
      <trkpt lat="45.93785" lon="3.73551">
        <ele>1061</ele>
        <time>2015-08-05T10:47:49Z</time>
      </trkpt>
      <trkpt lat="45.93784" lon="3.73547">
        <ele>1063</ele>
        <time>2015-08-05T10:47:51Z</time>
      </trkpt>
      <trkpt lat="45.93784" lon="3.73542">
        <ele>1066</ele>
        <time>2015-08-05T10:47:54Z</time>
      </trkpt>
      <trkpt lat="45.93782" lon="3.7354">
        <ele>1067</ele>
        <time>2015-08-05T10:47:56Z</time>
      </trkpt>
      <trkpt lat="45.93781" lon="3.73537">
        <ele>1067</ele>
        <time>2015-08-05T10:47:58Z</time>
      </trkpt>
      <trkpt lat="45.93779" lon="3.73534">
        <ele>1067</ele>
        <time>2015-08-05T10:48:00Z</time>
      </trkpt>
      <trkpt lat="45.93777" lon="3.73533">
        <ele>1066</ele>
        <time>2015-08-05T10:48:02Z</time>
      </trkpt>
      <trkpt lat="45.93776" lon="3.73531">
        <ele>1064</ele>
        <time>2015-08-05T10:48:04Z</time>
      </trkpt>
      <trkpt lat="45.93775" lon="3.73526">
        <ele>1062</ele>
        <time>2015-08-05T10:48:08Z</time>
      </trkpt>
      <trkpt lat="45.9377" lon="3.73518">
        <ele>1058</ele>
        <time>2015-08-05T10:48:14Z</time>
      </trkpt>
      <trkpt lat="45.93769" lon="3.73515">
        <ele>1057</ele>
        <time>2015-08-05T10:48:16Z</time>
      </trkpt>
      <trkpt lat="45.93768" lon="3.73512">
        <ele>1057</ele>
        <time>2015-08-05T10:48:18Z</time>
      </trkpt>
      <trkpt lat="45.93767" lon="3.7351">
        <ele>1056</ele>
        <time>2015-08-05T10:48:20Z</time>
      </trkpt>
      <trkpt lat="45.93766" lon="3.73506">
        <ele>1056</ele>
        <time>2015-08-05T10:48:22Z</time>
      </trkpt>
      <trkpt lat="45.93763" lon="3.73502">
        <ele>1056</ele>
        <time>2015-08-05T10:48:26Z</time>
      </trkpt>
      <trkpt lat="45.93762" lon="3.73497">
        <ele>1056</ele>
        <time>2015-08-05T10:48:28Z</time>
      </trkpt>
      <trkpt lat="45.93762" lon="3.73493">
        <ele>1056</ele>
        <time>2015-08-05T10:48:30Z</time>
      </trkpt>
      <trkpt lat="45.9376" lon="3.73489">
        <ele>1057</ele>
        <time>2015-08-05T10:48:33Z</time>
      </trkpt>
      <trkpt lat="45.93759" lon="3.73486">
        <ele>1058</ele>
        <time>2015-08-05T10:48:35Z</time>
      </trkpt>
      <trkpt lat="45.93758" lon="3.73484">
        <ele>1058</ele>
        <time>2015-08-05T10:48:37Z</time>
      </trkpt>
      <trkpt lat="45.93756" lon="3.73478">
        <ele>1058</ele>
        <time>2015-08-05T10:48:41Z</time>
      </trkpt>
      <trkpt lat="45.93754" lon="3.73467">
        <ele>1058</ele>
        <time>2015-08-05T10:48:48Z</time>
      </trkpt>
      <trkpt lat="45.93753" lon="3.73465">
        <ele>1058</ele>
        <time>2015-08-05T10:48:50Z</time>
      </trkpt>
      <trkpt lat="45.93752" lon="3.73461">
        <ele>1058</ele>
        <time>2015-08-05T10:48:53Z</time>
      </trkpt>
      <trkpt lat="45.93751" lon="3.73457">
        <ele>1058</ele>
        <time>2015-08-05T10:48:55Z</time>
      </trkpt>
      <trkpt lat="45.93751" lon="3.73451">
        <ele>1058</ele>
        <time>2015-08-05T10:48:58Z</time>
      </trkpt>
      <trkpt lat="45.93751" lon="3.73449">
        <ele>1058</ele>
        <time>2015-08-05T10:49:00Z</time>
      </trkpt>
      <trkpt lat="45.93751" lon="3.73445">
        <ele>1058</ele>
        <time>2015-08-05T10:49:03Z</time>
      </trkpt>
      <trkpt lat="45.9375" lon="3.73441">
        <ele>1058</ele>
        <time>2015-08-05T10:49:05Z</time>
      </trkpt>
      <trkpt lat="45.93749" lon="3.73438">
        <ele>1057</ele>
        <time>2015-08-05T10:49:07Z</time>
      </trkpt>
      <trkpt lat="45.9375" lon="3.73433">
        <ele>1056</ele>
        <time>2015-08-05T10:49:09Z</time>
      </trkpt>
      <trkpt lat="45.93749" lon="3.73425">
        <ele>1056</ele>
        <time>2015-08-05T10:49:14Z</time>
      </trkpt>
      <trkpt lat="45.93743" lon="3.73411">
        <ele>1056</ele>
        <time>2015-08-05T10:49:22Z</time>
      </trkpt>
      <trkpt lat="45.93742" lon="3.73407">
        <ele>1056</ele>
        <time>2015-08-05T10:49:24Z</time>
      </trkpt>
      <trkpt lat="45.93739" lon="3.73396">
        <ele>1057</ele>
        <time>2015-08-05T10:49:30Z</time>
      </trkpt>
      <trkpt lat="45.93738" lon="3.73393">
        <ele>1058</ele>
        <time>2015-08-05T10:49:32Z</time>
      </trkpt>
      <trkpt lat="45.93737" lon="3.73386">
        <ele>1058</ele>
        <time>2015-08-05T10:49:36Z</time>
      </trkpt>
      <trkpt lat="45.93735" lon="3.73379">
        <ele>1061</ele>
        <time>2015-08-05T10:49:40Z</time>
      </trkpt>
      <trkpt lat="45.93734" lon="3.73375">
        <ele>1061</ele>
        <time>2015-08-05T10:49:42Z</time>
      </trkpt>
      <trkpt lat="45.93733" lon="3.73372">
        <ele>1062</ele>
        <time>2015-08-05T10:49:44Z</time>
      </trkpt>
      <trkpt lat="45.93729" lon="3.7336">
        <ele>1065</ele>
        <time>2015-08-05T10:49:51Z</time>
      </trkpt>
      <trkpt lat="45.93725" lon="3.73352">
        <ele>1072</ele>
        <time>2015-08-05T10:49:58Z</time>
      </trkpt>
      <trkpt lat="45.93724" lon="3.73349">
        <ele>1072</ele>
        <time>2015-08-05T10:50:00Z</time>
      </trkpt>
      <trkpt lat="45.93721" lon="3.73343">
        <ele>1072</ele>
        <time>2015-08-05T10:50:04Z</time>
      </trkpt>
      <trkpt lat="45.9372" lon="3.7334">
        <ele>1072</ele>
        <time>2015-08-05T10:50:06Z</time>
      </trkpt>
      <trkpt lat="45.93718" lon="3.73336">
        <ele>1071</ele>
        <time>2015-08-05T10:50:09Z</time>
      </trkpt>
      <trkpt lat="45.93716" lon="3.73333">
        <ele>1071</ele>
        <time>2015-08-05T10:50:11Z</time>
      </trkpt>
      <trkpt lat="45.93715" lon="3.73331">
        <ele>1070</ele>
        <time>2015-08-05T10:50:13Z</time>
      </trkpt>
      <trkpt lat="45.93712" lon="3.73324">
        <ele>1070</ele>
        <time>2015-08-05T10:50:18Z</time>
      </trkpt>
      <trkpt lat="45.9371" lon="3.73319">
        <ele>1070</ele>
        <time>2015-08-05T10:50:22Z</time>
      </trkpt>
      <trkpt lat="45.93709" lon="3.73316">
        <ele>1070</ele>
        <time>2015-08-05T10:50:24Z</time>
      </trkpt>
      <trkpt lat="45.93705" lon="3.73308">
        <ele>1070</ele>
        <time>2015-08-05T10:50:30Z</time>
      </trkpt>
      <trkpt lat="45.937" lon="3.733">
        <ele>1069</ele>
        <time>2015-08-05T10:50:36Z</time>
      </trkpt>
      <trkpt lat="45.93697" lon="3.73292">
        <ele>1067</ele>
        <time>2015-08-05T10:50:42Z</time>
      </trkpt>
      <trkpt lat="45.93696" lon="3.73291">
        <ele>1067</ele>
        <time>2015-08-05T10:50:48Z</time>
      </trkpt>
      <trkpt lat="45.93695" lon="3.73291">
        <ele>1067</ele>
        <time>2015-08-05T10:50:51Z</time>
      </trkpt>
      <trkpt lat="45.93692" lon="3.7329">
        <ele>1067</ele>
        <time>2015-08-05T10:51:06Z</time>
      </trkpt>
      <trkpt lat="45.93691" lon="3.73288">
        <ele>1067</ele>
        <time>2015-08-05T10:51:08Z</time>
      </trkpt>
      <trkpt lat="45.93691" lon="3.73284">
        <ele>1067</ele>
        <time>2015-08-05T10:51:12Z</time>
      </trkpt>
      <trkpt lat="45.93689" lon="3.73281">
        <ele>1067</ele>
        <time>2015-08-05T10:51:14Z</time>
      </trkpt>
      <trkpt lat="45.93689" lon="3.73279">
        <ele>1065</ele>
        <time>2015-08-05T10:51:16Z</time>
      </trkpt>
      <trkpt lat="45.93691" lon="3.73277">
        <ele>1067</ele>
        <time>2015-08-05T10:51:29Z</time>
      </trkpt>
      <trkpt lat="45.93693" lon="3.73278">
        <ele>1072</ele>
        <time>2015-08-05T10:51:34Z</time>
      </trkpt>
      <trkpt lat="45.93693" lon="3.73273">
        <ele>1073</ele>
        <time>2015-08-05T10:51:44Z</time>
      </trkpt>
      <trkpt lat="45.9369" lon="3.73271">
        <ele>1073</ele>
        <time>2015-08-05T10:51:52Z</time>
      </trkpt>
      <trkpt lat="45.93687" lon="3.73268">
        <ele>1072</ele>
        <time>2015-08-05T10:51:57Z</time>
      </trkpt>
      <trkpt lat="45.93682" lon="3.73258">
        <ele>1070</ele>
        <time>2015-08-05T10:52:04Z</time>
      </trkpt>
      <trkpt lat="45.93681" lon="3.73255">
        <ele>1069</ele>
        <time>2015-08-05T10:52:06Z</time>
      </trkpt>
      <trkpt lat="45.93678" lon="3.73248">
        <ele>1068</ele>
        <time>2015-08-05T10:52:10Z</time>
      </trkpt>
      <trkpt lat="45.93675" lon="3.73244">
        <ele>1067</ele>
        <time>2015-08-05T10:52:13Z</time>
      </trkpt>
      <trkpt lat="45.93672" lon="3.73238">
        <ele>1065</ele>
        <time>2015-08-05T10:52:17Z</time>
      </trkpt>
      <trkpt lat="45.9367" lon="3.73233">
        <ele>1065</ele>
        <time>2015-08-05T10:52:20Z</time>
      </trkpt>
      <trkpt lat="45.93669" lon="3.7323">
        <ele>1064</ele>
        <time>2015-08-05T10:52:22Z</time>
      </trkpt>
      <trkpt lat="45.93666" lon="3.73226">
        <ele>1063</ele>
        <time>2015-08-05T10:52:25Z</time>
      </trkpt>
      <trkpt lat="45.93664" lon="3.73219">
        <ele>1062</ele>
        <time>2015-08-05T10:52:29Z</time>
      </trkpt>
      <trkpt lat="45.93663" lon="3.73216">
        <ele>1061</ele>
        <time>2015-08-05T10:52:31Z</time>
      </trkpt>
      <trkpt lat="45.93659" lon="3.73201">
        <ele>1059</ele>
        <time>2015-08-05T10:52:39Z</time>
      </trkpt>
      <trkpt lat="45.93655" lon="3.73194">
        <ele>1057</ele>
        <time>2015-08-05T10:52:43Z</time>
      </trkpt>
      <trkpt lat="45.93651" lon="3.73188">
        <ele>1057</ele>
        <time>2015-08-05T10:52:48Z</time>
      </trkpt>
      <trkpt lat="45.93649" lon="3.73185">
        <ele>1057</ele>
        <time>2015-08-05T10:52:50Z</time>
      </trkpt>
      <trkpt lat="45.93647" lon="3.73183">
        <ele>1056</ele>
        <time>2015-08-05T10:52:52Z</time>
      </trkpt>
      <trkpt lat="45.93642" lon="3.73172">
        <ele>1054</ele>
        <time>2015-08-05T10:52:59Z</time>
      </trkpt>
      <trkpt lat="45.93639" lon="3.73168">
        <ele>1054</ele>
        <time>2015-08-05T10:53:03Z</time>
      </trkpt>
      <trkpt lat="45.93635" lon="3.73161">
        <ele>1052</ele>
        <time>2015-08-05T10:53:08Z</time>
      </trkpt>
      <trkpt lat="45.93629" lon="3.73153">
        <ele>1050</ele>
        <time>2015-08-05T10:53:14Z</time>
      </trkpt>
      <trkpt lat="45.93625" lon="3.73145">
        <ele>1046</ele>
        <time>2015-08-05T10:53:20Z</time>
      </trkpt>
      <trkpt lat="45.93623" lon="3.73144">
        <ele>1046</ele>
        <time>2015-08-05T10:53:22Z</time>
      </trkpt>
      <trkpt lat="45.93621" lon="3.73138">
        <ele>1046</ele>
        <time>2015-08-05T10:53:26Z</time>
      </trkpt>
      <trkpt lat="45.93617" lon="3.73121">
        <ele>1046</ele>
        <time>2015-08-05T10:53:36Z</time>
      </trkpt>
      <trkpt lat="45.93615" lon="3.73117">
        <ele>1046</ele>
        <time>2015-08-05T10:53:38Z</time>
      </trkpt>
      <trkpt lat="45.93615" lon="3.73115">
        <ele>1046</ele>
        <time>2015-08-05T10:53:40Z</time>
      </trkpt>
      <trkpt lat="45.93614" lon="3.73112">
        <ele>1046</ele>
        <time>2015-08-05T10:53:42Z</time>
      </trkpt>
      <trkpt lat="45.93615" lon="3.73105">
        <ele>1049</ele>
        <time>2015-08-05T10:53:46Z</time>
      </trkpt>
      <trkpt lat="45.93614" lon="3.73103">
        <ele>1051</ele>
        <time>2015-08-05T10:53:48Z</time>
      </trkpt>
      <trkpt lat="45.93614" lon="3.73102">
        <ele>1057</ele>
        <time>2015-08-05T10:53:54Z</time>
      </trkpt>
      <trkpt lat="45.93613" lon="3.731">
        <ele>1064</ele>
        <time>2015-08-05T10:54:03Z</time>
      </trkpt>
      <trkpt lat="45.93613" lon="3.73098">
        <ele>1064</ele>
        <time>2015-08-05T10:54:08Z</time>
      </trkpt>
      <trkpt lat="45.93612" lon="3.73096">
        <ele>1066</ele>
        <time>2015-08-05T10:54:18Z</time>
      </trkpt>
      <trkpt lat="45.93613" lon="3.73096">
        <ele>1069</ele>
        <time>2015-08-05T10:54:24Z</time>
      </trkpt>
      <trkpt lat="45.93614" lon="3.73095">
        <ele>1072</ele>
        <time>2015-08-05T10:54:32Z</time>
      </trkpt>
      <trkpt lat="45.93615" lon="3.73094">
        <ele>1072</ele>
        <time>2015-08-05T10:54:34Z</time>
      </trkpt>
      <trkpt lat="45.93615" lon="3.73092">
        <ele>1073</ele>
        <time>2015-08-05T10:54:39Z</time>
      </trkpt>
      <trkpt lat="45.93616" lon="3.73088">
        <ele>1073</ele>
        <time>2015-08-05T10:54:43Z</time>
      </trkpt>
      <trkpt lat="45.93617" lon="3.73085">
        <ele>1073</ele>
        <time>2015-08-05T10:54:45Z</time>
      </trkpt>
      <trkpt lat="45.93616" lon="3.73076">
        <ele>1073</ele>
        <time>2015-08-05T10:54:51Z</time>
      </trkpt>
      <trkpt lat="45.93616" lon="3.73072">
        <ele>1073</ele>
        <time>2015-08-05T10:54:53Z</time>
      </trkpt>
      <trkpt lat="45.93617" lon="3.73064">
        <ele>1073</ele>
        <time>2015-08-05T10:54:57Z</time>
      </trkpt>
      <trkpt lat="45.93618" lon="3.73061">
        <ele>1073</ele>
        <time>2015-08-05T10:54:59Z</time>
      </trkpt>
      <trkpt lat="45.93618" lon="3.73058">
        <ele>1073</ele>
        <time>2015-08-05T10:55:01Z</time>
      </trkpt>
      <trkpt lat="45.93618" lon="3.73055">
        <ele>1073</ele>
        <time>2015-08-05T10:55:03Z</time>
      </trkpt>
      <trkpt lat="45.93619" lon="3.73046">
        <ele>1070</ele>
        <time>2015-08-05T10:55:07Z</time>
      </trkpt>
      <trkpt lat="45.93618" lon="3.73035">
        <ele>1068</ele>
        <time>2015-08-05T10:55:13Z</time>
      </trkpt>
      <trkpt lat="45.93617" lon="3.73027">
        <ele>1066</ele>
        <time>2015-08-05T10:55:17Z</time>
      </trkpt>
      <trkpt lat="45.93616" lon="3.73024">
        <ele>1065</ele>
        <time>2015-08-05T10:55:19Z</time>
      </trkpt>
      <trkpt lat="45.93616" lon="3.73019">
        <ele>1065</ele>
        <time>2015-08-05T10:55:22Z</time>
      </trkpt>
      <trkpt lat="45.93618" lon="3.73016">
        <ele>1065</ele>
        <time>2015-08-05T10:55:24Z</time>
      </trkpt>
      <trkpt lat="45.93621" lon="3.73009">
        <ele>1065</ele>
        <time>2015-08-05T10:55:28Z</time>
      </trkpt>
      <trkpt lat="45.93623" lon="3.73005">
        <ele>1065</ele>
        <time>2015-08-05T10:55:30Z</time>
      </trkpt>
      <trkpt lat="45.93623" lon="3.73001">
        <ele>1065</ele>
        <time>2015-08-05T10:55:32Z</time>
      </trkpt>
      <trkpt lat="45.93624" lon="3.72997">
        <ele>1065</ele>
        <time>2015-08-05T10:55:34Z</time>
      </trkpt>
      <trkpt lat="45.93625" lon="3.72993">
        <ele>1065</ele>
        <time>2015-08-05T10:55:36Z</time>
      </trkpt>
      <trkpt lat="45.93626" lon="3.7299">
        <ele>1065</ele>
        <time>2015-08-05T10:55:38Z</time>
      </trkpt>
      <trkpt lat="45.93629" lon="3.72978">
        <ele>1065</ele>
        <time>2015-08-05T10:55:44Z</time>
      </trkpt>
      <trkpt lat="45.93631" lon="3.7297">
        <ele>1065</ele>
        <time>2015-08-05T10:55:48Z</time>
      </trkpt>
      <trkpt lat="45.93631" lon="3.72962">
        <ele>1065</ele>
        <time>2015-08-05T10:55:52Z</time>
      </trkpt>
      <trkpt lat="45.93633" lon="3.72958">
        <ele>1065</ele>
        <time>2015-08-05T10:55:54Z</time>
      </trkpt>
      <trkpt lat="45.93633" lon="3.72946">
        <ele>1065</ele>
        <time>2015-08-05T10:56:00Z</time>
      </trkpt>
      <trkpt lat="45.93632" lon="3.72943">
        <ele>1065</ele>
        <time>2015-08-05T10:56:02Z</time>
      </trkpt>
      <trkpt lat="45.93633" lon="3.72936">
        <ele>1065</ele>
        <time>2015-08-05T10:56:06Z</time>
      </trkpt>
      <trkpt lat="45.93634" lon="3.72931">
        <ele>1065</ele>
        <time>2015-08-05T10:56:08Z</time>
      </trkpt>
      <trkpt lat="45.93636" lon="3.72927">
        <ele>1065</ele>
        <time>2015-08-05T10:56:10Z</time>
      </trkpt>
      <trkpt lat="45.93638" lon="3.72923">
        <ele>1066</ele>
        <time>2015-08-05T10:56:12Z</time>
      </trkpt>
      <trkpt lat="45.93638" lon="3.7292">
        <ele>1067</ele>
        <time>2015-08-05T10:56:14Z</time>
      </trkpt>
      <trkpt lat="45.93637" lon="3.72916">
        <ele>1069</ele>
        <time>2015-08-05T10:56:16Z</time>
      </trkpt>
      <trkpt lat="45.93635" lon="3.72908">
        <ele>1069</ele>
        <time>2015-08-05T10:56:20Z</time>
      </trkpt>
      <trkpt lat="45.93634" lon="3.72901">
        <ele>1069</ele>
        <time>2015-08-05T10:56:24Z</time>
      </trkpt>
      <trkpt lat="45.93634" lon="3.72898">
        <ele>1069</ele>
        <time>2015-08-05T10:56:26Z</time>
      </trkpt>
      <trkpt lat="45.93634" lon="3.72894">
        <ele>1069</ele>
        <time>2015-08-05T10:56:28Z</time>
      </trkpt>
      <trkpt lat="45.93634" lon="3.72891">
        <ele>1069</ele>
        <time>2015-08-05T10:56:30Z</time>
      </trkpt>
      <trkpt lat="45.93632" lon="3.72886">
        <ele>1069</ele>
        <time>2015-08-05T10:56:36Z</time>
      </trkpt>
      <trkpt lat="45.93632" lon="3.72883">
        <ele>1069</ele>
        <time>2015-08-05T10:56:38Z</time>
      </trkpt>
      <trkpt lat="45.93631" lon="3.72879">
        <ele>1069</ele>
        <time>2015-08-05T10:56:40Z</time>
      </trkpt>
      <trkpt lat="45.93629" lon="3.72877">
        <ele>1068</ele>
        <time>2015-08-05T10:56:42Z</time>
      </trkpt>
      <trkpt lat="45.93627" lon="3.72873">
        <ele>1066</ele>
        <time>2015-08-05T10:56:44Z</time>
      </trkpt>
      <trkpt lat="45.93624" lon="3.72866">
        <ele>1063</ele>
        <time>2015-08-05T10:56:48Z</time>
      </trkpt>
      <trkpt lat="45.93623" lon="3.72858">
        <ele>1061</ele>
        <time>2015-08-05T10:56:52Z</time>
      </trkpt>
      <trkpt lat="45.93621" lon="3.72853">
        <ele>1060</ele>
        <time>2015-08-05T10:56:55Z</time>
      </trkpt>
      <trkpt lat="45.9362" lon="3.72842">
        <ele>1058</ele>
        <time>2015-08-05T10:57:01Z</time>
      </trkpt>
      <trkpt lat="45.93619" lon="3.72838">
        <ele>1057</ele>
        <time>2015-08-05T10:57:03Z</time>
      </trkpt>
      <trkpt lat="45.93618" lon="3.72834">
        <ele>1056</ele>
        <time>2015-08-05T10:57:06Z</time>
      </trkpt>
      <trkpt lat="45.93618" lon="3.7283">
        <ele>1056</ele>
        <time>2015-08-05T10:57:08Z</time>
      </trkpt>
      <trkpt lat="45.9362" lon="3.72825">
        <ele>1056</ele>
        <time>2015-08-05T10:57:10Z</time>
      </trkpt>
      <trkpt lat="45.93619" lon="3.7282">
        <ele>1055</ele>
        <time>2015-08-05T10:57:12Z</time>
      </trkpt>
      <trkpt lat="45.93618" lon="3.72816">
        <ele>1054</ele>
        <time>2015-08-05T10:57:14Z</time>
      </trkpt>
      <trkpt lat="45.93618" lon="3.72811">
        <ele>1052</ele>
        <time>2015-08-05T10:57:16Z</time>
      </trkpt>
      <trkpt lat="45.93617" lon="3.72808">
        <ele>1050</ele>
        <time>2015-08-05T10:57:18Z</time>
      </trkpt>
      <trkpt lat="45.93615" lon="3.72807">
        <ele>1048</ele>
        <time>2015-08-05T10:57:20Z</time>
      </trkpt>
      <trkpt lat="45.93615" lon="3.72804">
        <ele>1048</ele>
        <time>2015-08-05T10:57:23Z</time>
      </trkpt>
      <trkpt lat="45.93615" lon="3.72802">
        <ele>1048</ele>
        <time>2015-08-05T10:57:27Z</time>
      </trkpt>
      <trkpt lat="45.93615" lon="3.72799">
        <ele>1048</ele>
        <time>2015-08-05T10:57:29Z</time>
      </trkpt>
      <trkpt lat="45.93616" lon="3.72798">
        <ele>1048</ele>
        <time>2015-08-05T10:57:31Z</time>
      </trkpt>
      <trkpt lat="45.93614" lon="3.72801">
        <ele>1051</ele>
        <time>2015-08-05T10:57:36Z</time>
      </trkpt>
      <trkpt lat="45.9361" lon="3.72799">
        <ele>1059</ele>
        <time>2015-08-05T10:57:43Z</time>
      </trkpt>
      <trkpt lat="45.93603" lon="3.72797">
        <ele>1065</ele>
        <time>2015-08-05T10:57:47Z</time>
      </trkpt>
      <trkpt lat="45.936" lon="3.72797">
        <ele>1076</ele>
        <time>2015-08-05T10:57:58Z</time>
      </trkpt>
      <trkpt lat="45.93602" lon="3.72798">
        <ele>1078</ele>
        <time>2015-08-05T10:58:00Z</time>
      </trkpt>
      <trkpt lat="45.93607" lon="3.72796">
        <ele>1082</ele>
        <time>2015-08-05T10:58:04Z</time>
      </trkpt>
      <trkpt lat="45.93611" lon="3.72796">
        <ele>1082</ele>
        <time>2015-08-05T10:58:06Z</time>
      </trkpt>
      <trkpt lat="45.93614" lon="3.72796">
        <ele>1082</ele>
        <time>2015-08-05T10:58:08Z</time>
      </trkpt>
      <trkpt lat="45.93616" lon="3.72793">
        <ele>1082</ele>
        <time>2015-08-05T10:58:10Z</time>
      </trkpt>
      <trkpt lat="45.93616" lon="3.7279">
        <ele>1082</ele>
        <time>2015-08-05T10:58:12Z</time>
      </trkpt>
      <trkpt lat="45.93616" lon="3.72782">
        <ele>1082</ele>
        <time>2015-08-05T10:58:16Z</time>
      </trkpt>
      <trkpt lat="45.93614" lon="3.72773">
        <ele>1081</ele>
        <time>2015-08-05T10:58:22Z</time>
      </trkpt>
      <trkpt lat="45.93615" lon="3.7277">
        <ele>1080</ele>
        <time>2015-08-05T10:58:24Z</time>
      </trkpt>
      <trkpt lat="45.93615" lon="3.72767">
        <ele>1080</ele>
        <time>2015-08-05T10:58:26Z</time>
      </trkpt>
      <trkpt lat="45.93615" lon="3.72764">
        <ele>1079</ele>
        <time>2015-08-05T10:58:28Z</time>
      </trkpt>
      <trkpt lat="45.93613" lon="3.72757">
        <ele>1079</ele>
        <time>2015-08-05T10:58:33Z</time>
      </trkpt>
      <trkpt lat="45.93611" lon="3.72754">
        <ele>1079</ele>
        <time>2015-08-05T10:58:35Z</time>
      </trkpt>
      <trkpt lat="45.93611" lon="3.72749">
        <ele>1079</ele>
        <time>2015-08-05T10:58:37Z</time>
      </trkpt>
      <trkpt lat="45.93609" lon="3.72743">
        <ele>1079</ele>
        <time>2015-08-05T10:58:41Z</time>
      </trkpt>
      <trkpt lat="45.93609" lon="3.72738">
        <ele>1079</ele>
        <time>2015-08-05T10:58:43Z</time>
      </trkpt>
      <trkpt lat="45.93608" lon="3.72734">
        <ele>1078</ele>
        <time>2015-08-05T10:58:45Z</time>
      </trkpt>
      <trkpt lat="45.93607" lon="3.72731">
        <ele>1076</ele>
        <time>2015-08-05T10:58:47Z</time>
      </trkpt>
      <trkpt lat="45.93602" lon="3.72722">
        <ele>1074</ele>
        <time>2015-08-05T10:58:52Z</time>
      </trkpt>
      <trkpt lat="45.93601" lon="3.72719">
        <ele>1073</ele>
        <time>2015-08-05T10:58:54Z</time>
      </trkpt>
      <trkpt lat="45.936" lon="3.72715">
        <ele>1072</ele>
        <time>2015-08-05T10:58:56Z</time>
      </trkpt>
      <trkpt lat="45.93599" lon="3.72712">
        <ele>1070</ele>
        <time>2015-08-05T10:58:58Z</time>
      </trkpt>
      <trkpt lat="45.93597" lon="3.72704">
        <ele>1066</ele>
        <time>2015-08-05T10:59:02Z</time>
      </trkpt>
      <trkpt lat="45.93596" lon="3.727">
        <ele>1064</ele>
        <time>2015-08-05T10:59:04Z</time>
      </trkpt>
      <trkpt lat="45.93596" lon="3.72696">
        <ele>1064</ele>
        <time>2015-08-05T10:59:06Z</time>
      </trkpt>
      <trkpt lat="45.93595" lon="3.72692">
        <ele>1064</ele>
        <time>2015-08-05T10:59:08Z</time>
      </trkpt>
      <trkpt lat="45.93593" lon="3.72685">
        <ele>1061</ele>
        <time>2015-08-05T10:59:12Z</time>
      </trkpt>
      <trkpt lat="45.93592" lon="3.72683">
        <ele>1060</ele>
        <time>2015-08-05T10:59:14Z</time>
      </trkpt>
      <trkpt lat="45.93593" lon="3.72679">
        <ele>1058</ele>
        <time>2015-08-05T10:59:17Z</time>
      </trkpt>
      <trkpt lat="45.93591" lon="3.72674">
        <ele>1057</ele>
        <time>2015-08-05T10:59:19Z</time>
      </trkpt>
      <trkpt lat="45.93586" lon="3.72663">
        <ele>1056</ele>
        <time>2015-08-05T10:59:27Z</time>
      </trkpt>
      <trkpt lat="45.93585" lon="3.72659">
        <ele>1056</ele>
        <time>2015-08-05T10:59:29Z</time>
      </trkpt>
      <trkpt lat="45.93582" lon="3.72656">
        <ele>1056</ele>
        <time>2015-08-05T10:59:31Z</time>
      </trkpt>
      <trkpt lat="45.93578" lon="3.72649">
        <ele>1056</ele>
        <time>2015-08-05T10:59:35Z</time>
      </trkpt>
      <trkpt lat="45.9357" lon="3.72637">
        <ele>1056</ele>
        <time>2015-08-05T10:59:42Z</time>
      </trkpt>
      <trkpt lat="45.93569" lon="3.72633">
        <ele>1056</ele>
        <time>2015-08-05T10:59:44Z</time>
      </trkpt>
      <trkpt lat="45.93568" lon="3.72631">
        <ele>1056</ele>
        <time>2015-08-05T10:59:46Z</time>
      </trkpt>
      <trkpt lat="45.93568" lon="3.72626">
        <ele>1056</ele>
        <time>2015-08-05T10:59:49Z</time>
      </trkpt>
      <trkpt lat="45.93567" lon="3.72622">
        <ele>1057</ele>
        <time>2015-08-05T10:59:51Z</time>
      </trkpt>
      <trkpt lat="45.93562" lon="3.72609">
        <ele>1057</ele>
        <time>2015-08-05T10:59:58Z</time>
      </trkpt>
      <trkpt lat="45.93554" lon="3.726">
        <ele>1057</ele>
        <time>2015-08-05T11:00:05Z</time>
      </trkpt>
      <trkpt lat="45.9355" lon="3.72596">
        <ele>1057</ele>
        <time>2015-08-05T11:00:09Z</time>
      </trkpt>
      <trkpt lat="45.93549" lon="3.72594">
        <ele>1057</ele>
        <time>2015-08-05T11:00:11Z</time>
      </trkpt>
      <trkpt lat="45.93548" lon="3.72588">
        <ele>1057</ele>
        <time>2015-08-05T11:00:15Z</time>
      </trkpt>
      <trkpt lat="45.93546" lon="3.7258">
        <ele>1057</ele>
        <time>2015-08-05T11:00:19Z</time>
      </trkpt>
      <trkpt lat="45.93543" lon="3.72574">
        <ele>1057</ele>
        <time>2015-08-05T11:00:25Z</time>
      </trkpt>
      <trkpt lat="45.93543" lon="3.72573">
        <ele>1058</ele>
        <time>2015-08-05T11:00:29Z</time>
      </trkpt>
      <trkpt lat="45.93554" lon="3.72572">
        <ele>1066</ele>
        <time>2015-08-05T11:00:37Z</time>
      </trkpt>
      <trkpt lat="45.93555" lon="3.7257">
        <ele>1070</ele>
        <time>2015-08-05T11:00:41Z</time>
      </trkpt>
      <trkpt lat="45.93555" lon="3.72566">
        <ele>1072</ele>
        <time>2015-08-05T11:00:43Z</time>
      </trkpt>
      <trkpt lat="45.93553" lon="3.72562">
        <ele>1074</ele>
        <time>2015-08-05T11:00:45Z</time>
      </trkpt>
      <trkpt lat="45.9355" lon="3.72559">
        <ele>1076</ele>
        <time>2015-08-05T11:00:47Z</time>
      </trkpt>
      <trkpt lat="45.9355" lon="3.72555">
        <ele>1077</ele>
        <time>2015-08-05T11:00:49Z</time>
      </trkpt>
      <trkpt lat="45.93547" lon="3.72544">
        <ele>1077</ele>
        <time>2015-08-05T11:00:55Z</time>
      </trkpt>
      <trkpt lat="45.93547" lon="3.72541">
        <ele>1077</ele>
        <time>2015-08-05T11:00:57Z</time>
      </trkpt>
      <trkpt lat="45.93545" lon="3.72531">
        <ele>1074</ele>
        <time>2015-08-05T11:01:03Z</time>
      </trkpt>
      <trkpt lat="45.93545" lon="3.72528">
        <ele>1072</ele>
        <time>2015-08-05T11:01:05Z</time>
      </trkpt>
      <trkpt lat="45.93545" lon="3.72525">
        <ele>1070</ele>
        <time>2015-08-05T11:01:07Z</time>
      </trkpt>
      <trkpt lat="45.93545" lon="3.72521">
        <ele>1070</ele>
        <time>2015-08-05T11:01:09Z</time>
      </trkpt>
      <trkpt lat="45.93544" lon="3.72518">
        <ele>1069</ele>
        <time>2015-08-05T11:01:11Z</time>
      </trkpt>
      <trkpt lat="45.93543" lon="3.72512">
        <ele>1067</ele>
        <time>2015-08-05T11:01:15Z</time>
      </trkpt>
      <trkpt lat="45.93542" lon="3.72502">
        <ele>1066</ele>
        <time>2015-08-05T11:01:21Z</time>
      </trkpt>
      <trkpt lat="45.93542" lon="3.72493">
        <ele>1065</ele>
        <time>2015-08-05T11:01:27Z</time>
      </trkpt>
      <trkpt lat="45.93542" lon="3.72478">
        <ele>1065</ele>
        <time>2015-08-05T11:01:35Z</time>
      </trkpt>
      <trkpt lat="45.93543" lon="3.7247">
        <ele>1065</ele>
        <time>2015-08-05T11:01:39Z</time>
      </trkpt>
      <trkpt lat="45.93541" lon="3.72462">
        <ele>1065</ele>
        <time>2015-08-05T11:01:43Z</time>
      </trkpt>
      <trkpt lat="45.93541" lon="3.72459">
        <ele>1065</ele>
        <time>2015-08-05T11:01:45Z</time>
      </trkpt>
      <trkpt lat="45.93539" lon="3.72448">
        <ele>1065</ele>
        <time>2015-08-05T11:01:51Z</time>
      </trkpt>
      <trkpt lat="45.93538" lon="3.72444">
        <ele>1065</ele>
        <time>2015-08-05T11:01:53Z</time>
      </trkpt>
      <trkpt lat="45.93538" lon="3.72441">
        <ele>1065</ele>
        <time>2015-08-05T11:01:55Z</time>
      </trkpt>
      <trkpt lat="45.93536" lon="3.72429">
        <ele>1065</ele>
        <time>2015-08-05T11:02:01Z</time>
      </trkpt>
      <trkpt lat="45.93536" lon="3.72421">
        <ele>1065</ele>
        <time>2015-08-05T11:02:05Z</time>
      </trkpt>
      <trkpt lat="45.93535" lon="3.72413">
        <ele>1066</ele>
        <time>2015-08-05T11:02:09Z</time>
      </trkpt>
      <trkpt lat="45.93535" lon="3.72406">
        <ele>1066</ele>
        <time>2015-08-05T11:02:14Z</time>
      </trkpt>
      <trkpt lat="45.93535" lon="3.72403">
        <ele>1066</ele>
        <time>2015-08-05T11:02:16Z</time>
      </trkpt>
      <trkpt lat="45.93535" lon="3.724">
        <ele>1066</ele>
        <time>2015-08-05T11:02:18Z</time>
      </trkpt>
      <trkpt lat="45.93534" lon="3.72386">
        <ele>1066</ele>
        <time>2015-08-05T11:02:26Z</time>
      </trkpt>
      <trkpt lat="45.93535" lon="3.72378">
        <ele>1066</ele>
        <time>2015-08-05T11:02:31Z</time>
      </trkpt>
      <trkpt lat="45.93534" lon="3.72375">
        <ele>1066</ele>
        <time>2015-08-05T11:02:33Z</time>
      </trkpt>
      <trkpt lat="45.93535" lon="3.72371">
        <ele>1066</ele>
        <time>2015-08-05T11:02:35Z</time>
      </trkpt>
      <trkpt lat="45.93535" lon="3.72364">
        <ele>1066</ele>
        <time>2015-08-05T11:02:39Z</time>
      </trkpt>
      <trkpt lat="45.93536" lon="3.72357">
        <ele>1066</ele>
        <time>2015-08-05T11:02:43Z</time>
      </trkpt>
      <trkpt lat="45.93536" lon="3.72353">
        <ele>1066</ele>
        <time>2015-08-05T11:02:45Z</time>
      </trkpt>
      <trkpt lat="45.93537" lon="3.72349">
        <ele>1066</ele>
        <time>2015-08-05T11:02:47Z</time>
      </trkpt>
      <trkpt lat="45.93538" lon="3.72345">
        <ele>1066</ele>
        <time>2015-08-05T11:02:49Z</time>
      </trkpt>
      <trkpt lat="45.93538" lon="3.72341">
        <ele>1066</ele>
        <time>2015-08-05T11:02:51Z</time>
      </trkpt>
      <trkpt lat="45.93537" lon="3.72337">
        <ele>1066</ele>
        <time>2015-08-05T11:02:53Z</time>
      </trkpt>
      <trkpt lat="45.93536" lon="3.72326">
        <ele>1066</ele>
        <time>2015-08-05T11:02:59Z</time>
      </trkpt>
      <trkpt lat="45.93536" lon="3.72323">
        <ele>1066</ele>
        <time>2015-08-05T11:03:01Z</time>
      </trkpt>
      <trkpt lat="45.93536" lon="3.72319">
        <ele>1066</ele>
        <time>2015-08-05T11:03:03Z</time>
      </trkpt>
      <trkpt lat="45.93534" lon="3.72308">
        <ele>1065</ele>
        <time>2015-08-05T11:03:09Z</time>
      </trkpt>
      <trkpt lat="45.93533" lon="3.72304">
        <ele>1065</ele>
        <time>2015-08-05T11:03:11Z</time>
      </trkpt>
      <trkpt lat="45.93533" lon="3.72301">
        <ele>1065</ele>
        <time>2015-08-05T11:03:13Z</time>
      </trkpt>
      <trkpt lat="45.93531" lon="3.72281">
        <ele>1065</ele>
        <time>2015-08-05T11:03:23Z</time>
      </trkpt>
      <trkpt lat="45.93531" lon="3.72278">
        <ele>1065</ele>
        <time>2015-08-05T11:03:25Z</time>
      </trkpt>
      <trkpt lat="45.93528" lon="3.72267">
        <ele>1065</ele>
        <time>2015-08-05T11:03:32Z</time>
      </trkpt>
      <trkpt lat="45.93528" lon="3.72263">
        <ele>1066</ele>
        <time>2015-08-05T11:03:34Z</time>
      </trkpt>
      <trkpt lat="45.93528" lon="3.72259">
        <ele>1067</ele>
        <time>2015-08-05T11:03:36Z</time>
      </trkpt>
      <trkpt lat="45.93528" lon="3.72256">
        <ele>1068</ele>
        <time>2015-08-05T11:03:38Z</time>
      </trkpt>
      <trkpt lat="45.93527" lon="3.72248">
        <ele>1071</ele>
        <time>2015-08-05T11:03:44Z</time>
      </trkpt>
      <trkpt lat="45.93527" lon="3.72245">
        <ele>1072</ele>
        <time>2015-08-05T11:03:46Z</time>
      </trkpt>
      <trkpt lat="45.93523" lon="3.72236">
        <ele>1078</ele>
        <time>2015-08-05T11:03:54Z</time>
      </trkpt>
      <trkpt lat="45.93523" lon="3.72233">
        <ele>1079</ele>
        <time>2015-08-05T11:03:56Z</time>
      </trkpt>
      <trkpt lat="45.93523" lon="3.72229">
        <ele>1079</ele>
        <time>2015-08-05T11:03:58Z</time>
      </trkpt>
      <trkpt lat="45.93525" lon="3.72221">
        <ele>1079</ele>
        <time>2015-08-05T11:04:02Z</time>
      </trkpt>
      <trkpt lat="45.93526" lon="3.72214">
        <ele>1079</ele>
        <time>2015-08-05T11:04:06Z</time>
      </trkpt>
      <trkpt lat="45.93523" lon="3.72205">
        <ele>1079</ele>
        <time>2015-08-05T11:04:10Z</time>
      </trkpt>
      <trkpt lat="45.93521" lon="3.72202">
        <ele>1079</ele>
        <time>2015-08-05T11:04:12Z</time>
      </trkpt>
      <trkpt lat="45.9352" lon="3.72199">
        <ele>1079</ele>
        <time>2015-08-05T11:04:14Z</time>
      </trkpt>
      <trkpt lat="45.9352" lon="3.72197">
        <ele>1079</ele>
        <time>2015-08-05T11:04:16Z</time>
      </trkpt>
      <trkpt lat="45.93519" lon="3.72193">
        <ele>1079</ele>
        <time>2015-08-05T11:04:19Z</time>
      </trkpt>
      <trkpt lat="45.93518" lon="3.7219">
        <ele>1079</ele>
        <time>2015-08-05T11:04:21Z</time>
      </trkpt>
      <trkpt lat="45.93517" lon="3.72186">
        <ele>1079</ele>
        <time>2015-08-05T11:04:24Z</time>
      </trkpt>
      <trkpt lat="45.93516" lon="3.72184">
        <ele>1079</ele>
        <time>2015-08-05T11:04:26Z</time>
      </trkpt>
      <trkpt lat="45.93513" lon="3.72174">
        <ele>1079</ele>
        <time>2015-08-05T11:04:34Z</time>
      </trkpt>
      <trkpt lat="45.93512" lon="3.72172">
        <ele>1078</ele>
        <time>2015-08-05T11:04:36Z</time>
      </trkpt>
      <trkpt lat="45.93512" lon="3.72169">
        <ele>1077</ele>
        <time>2015-08-05T11:04:38Z</time>
      </trkpt>
      <trkpt lat="45.93511" lon="3.72167">
        <ele>1076</ele>
        <time>2015-08-05T11:04:40Z</time>
      </trkpt>
      <trkpt lat="45.93509" lon="3.72161">
        <ele>1075</ele>
        <time>2015-08-05T11:04:44Z</time>
      </trkpt>
      <trkpt lat="45.93507" lon="3.72156">
        <ele>1075</ele>
        <time>2015-08-05T11:04:48Z</time>
      </trkpt>
      <trkpt lat="45.93506" lon="3.72148">
        <ele>1075</ele>
        <time>2015-08-05T11:04:52Z</time>
      </trkpt>
      <trkpt lat="45.93504" lon="3.72145">
        <ele>1075</ele>
        <time>2015-08-05T11:04:54Z</time>
      </trkpt>
      <trkpt lat="45.93504" lon="3.7214">
        <ele>1075</ele>
        <time>2015-08-05T11:04:57Z</time>
      </trkpt>
      <trkpt lat="45.93503" lon="3.72137">
        <ele>1075</ele>
        <time>2015-08-05T11:04:59Z</time>
      </trkpt>
      <trkpt lat="45.93503" lon="3.72133">
        <ele>1075</ele>
        <time>2015-08-05T11:05:02Z</time>
      </trkpt>
      <trkpt lat="45.93502" lon="3.72128">
        <ele>1075</ele>
        <time>2015-08-05T11:05:05Z</time>
      </trkpt>
      <trkpt lat="45.93499" lon="3.72123">
        <ele>1075</ele>
        <time>2015-08-05T11:05:09Z</time>
      </trkpt>
      <trkpt lat="45.93498" lon="3.72119">
        <ele>1076</ele>
        <time>2015-08-05T11:05:11Z</time>
      </trkpt>
      <trkpt lat="45.93495" lon="3.72114">
        <ele>1077</ele>
        <time>2015-08-05T11:05:15Z</time>
      </trkpt>
      <trkpt lat="45.93494" lon="3.7211">
        <ele>1078</ele>
        <time>2015-08-05T11:05:17Z</time>
      </trkpt>
      <trkpt lat="45.93494" lon="3.72107">
        <ele>1078</ele>
        <time>2015-08-05T11:05:19Z</time>
      </trkpt>
      <trkpt lat="45.93492" lon="3.721">
        <ele>1078</ele>
        <time>2015-08-05T11:05:23Z</time>
      </trkpt>
      <trkpt lat="45.93492" lon="3.72098">
        <ele>1078</ele>
        <time>2015-08-05T11:05:25Z</time>
      </trkpt>
      <trkpt lat="45.93492" lon="3.72092">
        <ele>1078</ele>
        <time>2015-08-05T11:05:29Z</time>
      </trkpt>
      <trkpt lat="45.93491" lon="3.7209">
        <ele>1078</ele>
        <time>2015-08-05T11:05:31Z</time>
      </trkpt>
      <trkpt lat="45.93488" lon="3.72088">
        <ele>1076</ele>
        <time>2015-08-05T11:05:33Z</time>
      </trkpt>
      <trkpt lat="45.93485" lon="3.72083">
        <ele>1074</ele>
        <time>2015-08-05T11:05:37Z</time>
      </trkpt>
      <trkpt lat="45.9348" lon="3.72079">
        <ele>1074</ele>
        <time>2015-08-05T11:05:42Z</time>
      </trkpt>
      <trkpt lat="45.93479" lon="3.72077">
        <ele>1074</ele>
        <time>2015-08-05T11:05:44Z</time>
      </trkpt>
      <trkpt lat="45.93478" lon="3.72075">
        <ele>1074</ele>
        <time>2015-08-05T11:05:46Z</time>
      </trkpt>
      <trkpt lat="45.93476" lon="3.72071">
        <ele>1074</ele>
        <time>2015-08-05T11:05:48Z</time>
      </trkpt>
      <trkpt lat="45.93471" lon="3.72062">
        <ele>1076</ele>
        <time>2015-08-05T11:05:55Z</time>
      </trkpt>
      <trkpt lat="45.93466" lon="3.72056">
        <ele>1078</ele>
        <time>2015-08-05T11:06:01Z</time>
      </trkpt>
      <trkpt lat="45.93465" lon="3.72054">
        <ele>1078</ele>
        <time>2015-08-05T11:06:03Z</time>
      </trkpt>
      <trkpt lat="45.93464" lon="3.72052">
        <ele>1079</ele>
        <time>2015-08-05T11:06:05Z</time>
      </trkpt>
      <trkpt lat="45.93459" lon="3.72044">
        <ele>1080</ele>
        <time>2015-08-05T11:06:12Z</time>
      </trkpt>
      <trkpt lat="45.93459" lon="3.72042">
        <ele>1081</ele>
        <time>2015-08-05T11:06:14Z</time>
      </trkpt>
      <trkpt lat="45.93457" lon="3.72038">
        <ele>1082</ele>
        <time>2015-08-05T11:06:17Z</time>
      </trkpt>
      <trkpt lat="45.93455" lon="3.72035">
        <ele>1082</ele>
        <time>2015-08-05T11:06:19Z</time>
      </trkpt>
      <trkpt lat="45.93453" lon="3.72033">
        <ele>1082</ele>
        <time>2015-08-05T11:06:21Z</time>
      </trkpt>
      <trkpt lat="45.9345" lon="3.72031">
        <ele>1082</ele>
        <time>2015-08-05T11:06:24Z</time>
      </trkpt>
      <trkpt lat="45.93448" lon="3.72029">
        <ele>1082</ele>
        <time>2015-08-05T11:06:26Z</time>
      </trkpt>
      <trkpt lat="45.93444" lon="3.72026">
        <ele>1082</ele>
        <time>2015-08-05T11:06:32Z</time>
      </trkpt>
      <trkpt lat="45.93442" lon="3.72022">
        <ele>1082</ele>
        <time>2015-08-05T11:06:36Z</time>
      </trkpt>
      <trkpt lat="45.93435" lon="3.72011">
        <ele>1083</ele>
        <time>2015-08-05T11:06:47Z</time>
      </trkpt>
      <trkpt lat="45.93434" lon="3.72009">
        <ele>1085</ele>
        <time>2015-08-05T11:06:49Z</time>
      </trkpt>
      <trkpt lat="45.93433" lon="3.72009">
        <ele>1087</ele>
        <time>2015-08-05T11:06:51Z</time>
      </trkpt>
      <trkpt lat="45.93432" lon="3.72008">
        <ele>1090</ele>
        <time>2015-08-05T11:06:55Z</time>
      </trkpt>
      <trkpt lat="45.9343" lon="3.72009">
        <ele>1092</ele>
        <time>2015-08-05T11:06:57Z</time>
      </trkpt>
      <trkpt lat="45.9343" lon="3.72007">
        <ele>1097</ele>
        <time>2015-08-05T11:07:08Z</time>
      </trkpt>
      <trkpt lat="45.93429" lon="3.72008">
        <ele>1098</ele>
        <time>2015-08-05T11:07:11Z</time>
      </trkpt>
      <trkpt lat="45.93428" lon="3.7201">
        <ele>1101</ele>
        <time>2015-08-05T11:07:14Z</time>
      </trkpt>
      <trkpt lat="45.93426" lon="3.72011">
        <ele>1102</ele>
        <time>2015-08-05T11:07:16Z</time>
      </trkpt>
      <trkpt lat="45.93422" lon="3.7201">
        <ele>1103</ele>
        <time>2015-08-05T11:07:29Z</time>
      </trkpt>
      <trkpt lat="45.93421" lon="3.72011">
        <ele>1103</ele>
        <time>2015-08-05T11:07:31Z</time>
      </trkpt>
      <trkpt lat="45.93422" lon="3.72011">
        <ele>1100</ele>
        <time>2015-08-05T11:07:38Z</time>
      </trkpt>
      <trkpt lat="45.93422" lon="3.72013">
        <ele>1100</ele>
        <time>2015-08-05T11:07:40Z</time>
      </trkpt>
      <trkpt lat="45.93423" lon="3.72014">
        <ele>1103</ele>
        <time>2015-08-05T11:07:45Z</time>
      </trkpt>
      <trkpt lat="45.93426" lon="3.72009">
        <ele>1109</ele>
        <time>2015-08-05T11:07:57Z</time>
      </trkpt>
      <trkpt lat="45.93428" lon="3.72008">
        <ele>1109</ele>
        <time>2015-08-05T11:07:59Z</time>
      </trkpt>
      <trkpt lat="45.93428" lon="3.72006">
        <ele>1109</ele>
        <time>2015-08-05T11:08:01Z</time>
      </trkpt>
      <trkpt lat="45.93425" lon="3.71996">
        <ele>1109</ele>
        <time>2015-08-05T11:08:07Z</time>
      </trkpt>
      <trkpt lat="45.93423" lon="3.71994">
        <ele>1109</ele>
        <time>2015-08-05T11:08:09Z</time>
      </trkpt>
      <trkpt lat="45.93422" lon="3.71991">
        <ele>1107</ele>
        <time>2015-08-05T11:08:11Z</time>
      </trkpt>
      <trkpt lat="45.9342" lon="3.71987">
        <ele>1106</ele>
        <time>2015-08-05T11:08:14Z</time>
      </trkpt>
      <trkpt lat="45.93419" lon="3.71984">
        <ele>1104</ele>
        <time>2015-08-05T11:08:16Z</time>
      </trkpt>
      <trkpt lat="45.93417" lon="3.71982">
        <ele>1102</ele>
        <time>2015-08-05T11:08:18Z</time>
      </trkpt>
      <trkpt lat="45.93416" lon="3.71978">
        <ele>1100</ele>
        <time>2015-08-05T11:08:20Z</time>
      </trkpt>
      <trkpt lat="45.93412" lon="3.71972">
        <ele>1096</ele>
        <time>2015-08-05T11:08:24Z</time>
      </trkpt>
      <trkpt lat="45.93403" lon="3.7196">
        <ele>1091</ele>
        <time>2015-08-05T11:08:34Z</time>
      </trkpt>
      <trkpt lat="45.93397" lon="3.71955">
        <ele>1091</ele>
        <time>2015-08-05T11:08:40Z</time>
      </trkpt>
      <trkpt lat="45.93394" lon="3.71957">
        <ele>1091</ele>
        <time>2015-08-05T11:08:45Z</time>
      </trkpt>
      <trkpt lat="45.93394" lon="3.71958">
        <ele>1091</ele>
        <time>2015-08-05T11:08:50Z</time>
      </trkpt>
      <trkpt lat="45.93393" lon="3.71958">
        <ele>1092</ele>
        <time>2015-08-05T11:08:53Z</time>
      </trkpt>
      <trkpt lat="45.93394" lon="3.71957">
        <ele>1094</ele>
        <time>2015-08-05T11:08:58Z</time>
      </trkpt>
      <trkpt lat="45.93394" lon="3.71955">
        <ele>1100</ele>
        <time>2015-08-05T11:09:04Z</time>
      </trkpt>
      <trkpt lat="45.93393" lon="3.71956">
        <ele>1103</ele>
        <time>2015-08-05T11:09:08Z</time>
      </trkpt>
      <trkpt lat="45.93391" lon="3.71955">
        <ele>1103</ele>
        <time>2015-08-05T11:09:10Z</time>
      </trkpt>
      <trkpt lat="45.93389" lon="3.7195">
        <ele>1103</ele>
        <time>2015-08-05T11:09:13Z</time>
      </trkpt>
      <trkpt lat="45.93383" lon="3.71942">
        <ele>1103</ele>
        <time>2015-08-05T11:09:19Z</time>
      </trkpt>
      <trkpt lat="45.93382" lon="3.71939">
        <ele>1103</ele>
        <time>2015-08-05T11:09:21Z</time>
      </trkpt>
      <trkpt lat="45.93379" lon="3.71936">
        <ele>1103</ele>
        <time>2015-08-05T11:09:23Z</time>
      </trkpt>
      <trkpt lat="45.93378" lon="3.71932">
        <ele>1103</ele>
        <time>2015-08-05T11:09:25Z</time>
      </trkpt>
      <trkpt lat="45.93376" lon="3.7193">
        <ele>1101</ele>
        <time>2015-08-05T11:09:27Z</time>
      </trkpt>
      <trkpt lat="45.93375" lon="3.71927">
        <ele>1100</ele>
        <time>2015-08-05T11:09:29Z</time>
      </trkpt>
      <trkpt lat="45.93375" lon="3.71923">
        <ele>1099</ele>
        <time>2015-08-05T11:09:31Z</time>
      </trkpt>
      <trkpt lat="45.93373" lon="3.71919">
        <ele>1098</ele>
        <time>2015-08-05T11:09:34Z</time>
      </trkpt>
      <trkpt lat="45.93371" lon="3.71917">
        <ele>1097</ele>
        <time>2015-08-05T11:09:36Z</time>
      </trkpt>
      <trkpt lat="45.9337" lon="3.71913">
        <ele>1097</ele>
        <time>2015-08-05T11:09:38Z</time>
      </trkpt>
      <trkpt lat="45.93369" lon="3.7191">
        <ele>1097</ele>
        <time>2015-08-05T11:09:40Z</time>
      </trkpt>
      <trkpt lat="45.93363" lon="3.71902">
        <ele>1096</ele>
        <time>2015-08-05T11:09:46Z</time>
      </trkpt>
      <trkpt lat="45.9336" lon="3.71895">
        <ele>1095</ele>
        <time>2015-08-05T11:09:50Z</time>
      </trkpt>
      <trkpt lat="45.93358" lon="3.71891">
        <ele>1095</ele>
        <time>2015-08-05T11:09:52Z</time>
      </trkpt>
      <trkpt lat="45.93355" lon="3.71884">
        <ele>1095</ele>
        <time>2015-08-05T11:09:56Z</time>
      </trkpt>
      <trkpt lat="45.93354" lon="3.71879">
        <ele>1095</ele>
        <time>2015-08-05T11:09:58Z</time>
      </trkpt>
      <trkpt lat="45.93353" lon="3.71875">
        <ele>1095</ele>
        <time>2015-08-05T11:10:01Z</time>
      </trkpt>
      <trkpt lat="45.93352" lon="3.71872">
        <ele>1095</ele>
        <time>2015-08-05T11:10:03Z</time>
      </trkpt>
      <trkpt lat="45.93352" lon="3.71859">
        <ele>1095</ele>
        <time>2015-08-05T11:10:10Z</time>
      </trkpt>
      <trkpt lat="45.93351" lon="3.71851">
        <ele>1095</ele>
        <time>2015-08-05T11:10:14Z</time>
      </trkpt>
      <trkpt lat="45.93349" lon="3.71843">
        <ele>1095</ele>
        <time>2015-08-05T11:10:18Z</time>
      </trkpt>
      <trkpt lat="45.93347" lon="3.71839">
        <ele>1095</ele>
        <time>2015-08-05T11:10:21Z</time>
      </trkpt>
      <trkpt lat="45.93346" lon="3.71837">
        <ele>1095</ele>
        <time>2015-08-05T11:10:23Z</time>
      </trkpt>
      <trkpt lat="45.93345" lon="3.71833">
        <ele>1095</ele>
        <time>2015-08-05T11:10:25Z</time>
      </trkpt>
      <trkpt lat="45.93346" lon="3.71829">
        <ele>1095</ele>
        <time>2015-08-05T11:10:27Z</time>
      </trkpt>
      <trkpt lat="45.93346" lon="3.71825">
        <ele>1095</ele>
        <time>2015-08-05T11:10:29Z</time>
      </trkpt>
      <trkpt lat="45.93347" lon="3.7182">
        <ele>1095</ele>
        <time>2015-08-05T11:10:31Z</time>
      </trkpt>
      <trkpt lat="45.93348" lon="3.71816">
        <ele>1095</ele>
        <time>2015-08-05T11:10:33Z</time>
      </trkpt>
      <trkpt lat="45.93349" lon="3.71811">
        <ele>1095</ele>
        <time>2015-08-05T11:10:35Z</time>
      </trkpt>
      <trkpt lat="45.93349" lon="3.71806">
        <ele>1095</ele>
        <time>2015-08-05T11:10:37Z</time>
      </trkpt>
      <trkpt lat="45.93351" lon="3.71792">
        <ele>1095</ele>
        <time>2015-08-05T11:10:43Z</time>
      </trkpt>
      <trkpt lat="45.93351" lon="3.71789">
        <ele>1095</ele>
        <time>2015-08-05T11:10:45Z</time>
      </trkpt>
      <trkpt lat="45.9335" lon="3.71784">
        <ele>1095</ele>
        <time>2015-08-05T11:10:47Z</time>
      </trkpt>
      <trkpt lat="45.93347" lon="3.7178">
        <ele>1095</ele>
        <time>2015-08-05T11:10:50Z</time>
      </trkpt>
      <trkpt lat="45.93346" lon="3.71777">
        <ele>1095</ele>
        <time>2015-08-05T11:10:52Z</time>
      </trkpt>
      <trkpt lat="45.93344" lon="3.71774">
        <ele>1095</ele>
        <time>2015-08-05T11:10:54Z</time>
      </trkpt>
      <trkpt lat="45.93343" lon="3.71765">
        <ele>1095</ele>
        <time>2015-08-05T11:10:58Z</time>
      </trkpt>
      <trkpt lat="45.93343" lon="3.71761">
        <ele>1095</ele>
        <time>2015-08-05T11:11:00Z</time>
      </trkpt>
      <trkpt lat="45.93344" lon="3.71756">
        <ele>1095</ele>
        <time>2015-08-05T11:11:03Z</time>
      </trkpt>
      <trkpt lat="45.93342" lon="3.71752">
        <ele>1095</ele>
        <time>2015-08-05T11:11:06Z</time>
      </trkpt>
      <trkpt lat="45.93341" lon="3.71744">
        <ele>1095</ele>
        <time>2015-08-05T11:11:10Z</time>
      </trkpt>
      <trkpt lat="45.9334" lon="3.71737">
        <ele>1095</ele>
        <time>2015-08-05T11:11:14Z</time>
      </trkpt>
      <trkpt lat="45.93338" lon="3.71733">
        <ele>1095</ele>
        <time>2015-08-05T11:11:16Z</time>
      </trkpt>
      <trkpt lat="45.93338" lon="3.71729">
        <ele>1095</ele>
        <time>2015-08-05T11:11:18Z</time>
      </trkpt>
      <trkpt lat="45.93337" lon="3.71726">
        <ele>1095</ele>
        <time>2015-08-05T11:11:20Z</time>
      </trkpt>
      <trkpt lat="45.93336" lon="3.71722">
        <ele>1095</ele>
        <time>2015-08-05T11:11:22Z</time>
      </trkpt>
      <trkpt lat="45.93336" lon="3.71714">
        <ele>1092</ele>
        <time>2015-08-05T11:11:26Z</time>
      </trkpt>
      <trkpt lat="45.93336" lon="3.7171">
        <ele>1092</ele>
        <time>2015-08-05T11:11:28Z</time>
      </trkpt>
      <trkpt lat="45.93339" lon="3.71694">
        <ele>1092</ele>
        <time>2015-08-05T11:11:36Z</time>
      </trkpt>
      <trkpt lat="45.93344" lon="3.71689">
        <ele>1094</ele>
        <time>2015-08-05T11:11:42Z</time>
      </trkpt>
      <trkpt lat="45.93347" lon="3.71687">
        <ele>1098</ele>
        <time>2015-08-05T11:11:46Z</time>
      </trkpt>
      <trkpt lat="45.93354" lon="3.7169">
        <ele>1105</ele>
        <time>2015-08-05T11:11:53Z</time>
      </trkpt>
      <trkpt lat="45.93355" lon="3.7169">
        <ele>1108</ele>
        <time>2015-08-05T11:11:56Z</time>
      </trkpt>
      <trkpt lat="45.93356" lon="3.71688">
        <ele>1108</ele>
        <time>2015-08-05T11:11:59Z</time>
      </trkpt>
      <trkpt lat="45.93357" lon="3.71685">
        <ele>1108</ele>
        <time>2015-08-05T11:12:03Z</time>
      </trkpt>
      <trkpt lat="45.93354" lon="3.71684">
        <ele>1108</ele>
        <time>2015-08-05T11:12:10Z</time>
      </trkpt>
      <trkpt lat="45.93353" lon="3.71685">
        <ele>1108</ele>
        <time>2015-08-05T11:12:12Z</time>
      </trkpt>
      <trkpt lat="45.93354" lon="3.71687">
        <ele>1108</ele>
        <time>2015-08-05T11:12:14Z</time>
      </trkpt>
      <trkpt lat="45.93354" lon="3.7169">
        <ele>1109</ele>
        <time>2015-08-05T11:12:23Z</time>
      </trkpt>
      <trkpt lat="45.93356" lon="3.7169">
        <ele>1110</ele>
        <time>2015-08-05T11:12:25Z</time>
      </trkpt>
      <trkpt lat="45.9336" lon="3.71691">
        <ele>1110</ele>
        <time>2015-08-05T11:12:29Z</time>
      </trkpt>
      <trkpt lat="45.93359" lon="3.71689">
        <ele>1110</ele>
        <time>2015-08-05T11:12:33Z</time>
      </trkpt>
      <trkpt lat="45.93361" lon="3.71689">
        <ele>1110</ele>
        <time>2015-08-05T11:12:40Z</time>
      </trkpt>
      <trkpt lat="45.93362" lon="3.71689">
        <ele>1110</ele>
        <time>2015-08-05T11:12:42Z</time>
      </trkpt>
      <trkpt lat="45.93361" lon="3.7169">
        <ele>1110</ele>
        <time>2015-08-05T11:12:46Z</time>
      </trkpt>
      <trkpt lat="45.93362" lon="3.71689">
        <ele>1110</ele>
        <time>2015-08-05T11:12:56Z</time>
      </trkpt>
      <trkpt lat="45.93365" lon="3.71689">
        <ele>1110</ele>
        <time>2015-08-05T11:13:00Z</time>
      </trkpt>
      <trkpt lat="45.93361" lon="3.71687">
        <ele>1110</ele>
        <time>2015-08-05T11:13:14Z</time>
      </trkpt>
      <trkpt lat="45.93361" lon="3.71686">
        <ele>1110</ele>
        <time>2015-08-05T11:13:16Z</time>
      </trkpt>
      <trkpt lat="45.93361" lon="3.71684">
        <ele>1110</ele>
        <time>2015-08-05T11:13:18Z</time>
      </trkpt>
      <trkpt lat="45.93362" lon="3.71683">
        <ele>1109</ele>
        <time>2015-08-05T11:13:21Z</time>
      </trkpt>
      <trkpt lat="45.93364" lon="3.71679">
        <ele>1109</ele>
        <time>2015-08-05T11:13:26Z</time>
      </trkpt>
      <trkpt lat="45.93367" lon="3.71674">
        <ele>1109</ele>
        <time>2015-08-05T11:13:33Z</time>
      </trkpt>
      <trkpt lat="45.9337" lon="3.71671">
        <ele>1109</ele>
        <time>2015-08-05T11:13:37Z</time>
      </trkpt>
      <trkpt lat="45.93375" lon="3.71668">
        <ele>1109</ele>
        <time>2015-08-05T11:13:45Z</time>
      </trkpt>
      <trkpt lat="45.93377" lon="3.71663">
        <ele>1109</ele>
        <time>2015-08-05T11:13:49Z</time>
      </trkpt>
      <trkpt lat="45.9338" lon="3.71655">
        <ele>1109</ele>
        <time>2015-08-05T11:13:56Z</time>
      </trkpt>
      <trkpt lat="45.93383" lon="3.71648">
        <ele>1109</ele>
        <time>2015-08-05T11:14:02Z</time>
      </trkpt>
      <trkpt lat="45.93383" lon="3.71646">
        <ele>1110</ele>
        <time>2015-08-05T11:14:04Z</time>
      </trkpt>
      <trkpt lat="45.93385" lon="3.71641">
        <ele>1113</ele>
        <time>2015-08-05T11:14:08Z</time>
      </trkpt>
      <trkpt lat="45.93386" lon="3.71639">
        <ele>1115</ele>
        <time>2015-08-05T11:14:10Z</time>
      </trkpt>
      <trkpt lat="45.93389" lon="3.71634">
        <ele>1117</ele>
        <time>2015-08-05T11:14:13Z</time>
      </trkpt>
      <trkpt lat="45.9339" lon="3.71627">
        <ele>1117</ele>
        <time>2015-08-05T11:14:17Z</time>
      </trkpt>
      <trkpt lat="45.93391" lon="3.71625">
        <ele>1117</ele>
        <time>2015-08-05T11:14:19Z</time>
      </trkpt>
      <trkpt lat="45.93394" lon="3.71621">
        <ele>1117</ele>
        <time>2015-08-05T11:14:22Z</time>
      </trkpt>
      <trkpt lat="45.93397" lon="3.71614">
        <ele>1117</ele>
        <time>2015-08-05T11:14:26Z</time>
      </trkpt>
      <trkpt lat="45.93402" lon="3.71603">
        <ele>1117</ele>
        <time>2015-08-05T11:14:33Z</time>
      </trkpt>
      <trkpt lat="45.93405" lon="3.71596">
        <ele>1117</ele>
        <time>2015-08-05T11:14:38Z</time>
      </trkpt>
      <trkpt lat="45.93404" lon="3.71588">
        <ele>1117</ele>
        <time>2015-08-05T11:14:42Z</time>
      </trkpt>
      <trkpt lat="45.93406" lon="3.7158">
        <ele>1117</ele>
        <time>2015-08-05T11:14:46Z</time>
      </trkpt>
      <trkpt lat="45.93406" lon="3.71567">
        <ele>1117</ele>
        <time>2015-08-05T11:14:53Z</time>
      </trkpt>
      <trkpt lat="45.93403" lon="3.71565">
        <ele>1117</ele>
        <time>2015-08-05T11:14:55Z</time>
      </trkpt>
      <trkpt lat="45.93403" lon="3.71558">
        <ele>1117</ele>
        <time>2015-08-05T11:15:00Z</time>
      </trkpt>
      <trkpt lat="45.93402" lon="3.71553">
        <ele>1114</ele>
        <time>2015-08-05T11:15:03Z</time>
      </trkpt>
      <trkpt lat="45.93403" lon="3.7155">
        <ele>1112</ele>
        <time>2015-08-05T11:15:06Z</time>
      </trkpt>
      <trkpt lat="45.93399" lon="3.71544">
        <ele>1113</ele>
        <time>2015-08-05T11:15:14Z</time>
      </trkpt>
      <trkpt lat="45.93397" lon="3.71541">
        <ele>1114</ele>
        <time>2015-08-05T11:15:19Z</time>
      </trkpt>
      <trkpt lat="45.93397" lon="3.71538">
        <ele>1115</ele>
        <time>2015-08-05T11:15:21Z</time>
      </trkpt>
      <trkpt lat="45.93396" lon="3.71535">
        <ele>1115</ele>
        <time>2015-08-05T11:15:23Z</time>
      </trkpt>
      <trkpt lat="45.93393" lon="3.7153">
        <ele>1115</ele>
        <time>2015-08-05T11:15:27Z</time>
      </trkpt>
      <trkpt lat="45.93392" lon="3.71526">
        <ele>1115</ele>
        <time>2015-08-05T11:15:30Z</time>
      </trkpt>
      <trkpt lat="45.93391" lon="3.71523">
        <ele>1115</ele>
        <time>2015-08-05T11:15:32Z</time>
      </trkpt>
      <trkpt lat="45.93391" lon="3.71519">
        <ele>1115</ele>
        <time>2015-08-05T11:15:34Z</time>
      </trkpt>
      <trkpt lat="45.93391" lon="3.71515">
        <ele>1115</ele>
        <time>2015-08-05T11:15:36Z</time>
      </trkpt>
      <trkpt lat="45.9339" lon="3.71511">
        <ele>1115</ele>
        <time>2015-08-05T11:15:38Z</time>
      </trkpt>
      <trkpt lat="45.93389" lon="3.71507">
        <ele>1115</ele>
        <time>2015-08-05T11:15:41Z</time>
      </trkpt>
      <trkpt lat="45.93389" lon="3.71505">
        <ele>1115</ele>
        <time>2015-08-05T11:15:43Z</time>
      </trkpt>
      <trkpt lat="45.93388" lon="3.71501">
        <ele>1115</ele>
        <time>2015-08-05T11:15:46Z</time>
      </trkpt>
      <trkpt lat="45.93386" lon="3.71497">
        <ele>1115</ele>
        <time>2015-08-05T11:15:49Z</time>
      </trkpt>
      <trkpt lat="45.93384" lon="3.71495">
        <ele>1115</ele>
        <time>2015-08-05T11:15:51Z</time>
      </trkpt>
      <trkpt lat="45.93382" lon="3.71491">
        <ele>1115</ele>
        <time>2015-08-05T11:15:53Z</time>
      </trkpt>
      <trkpt lat="45.9338" lon="3.71488">
        <ele>1115</ele>
        <time>2015-08-05T11:15:56Z</time>
      </trkpt>
      <trkpt lat="45.93374" lon="3.71482">
        <ele>1115</ele>
        <time>2015-08-05T11:16:02Z</time>
      </trkpt>
      <trkpt lat="45.9337" lon="3.71475">
        <ele>1115</ele>
        <time>2015-08-05T11:16:07Z</time>
      </trkpt>
      <trkpt lat="45.93368" lon="3.71472">
        <ele>1114</ele>
        <time>2015-08-05T11:16:09Z</time>
      </trkpt>
      <trkpt lat="45.93366" lon="3.71471">
        <ele>1114</ele>
        <time>2015-08-05T11:16:11Z</time>
      </trkpt>
      <trkpt lat="45.93361" lon="3.71467">
        <ele>1114</ele>
        <time>2015-08-05T11:16:16Z</time>
      </trkpt>
      <trkpt lat="45.93359" lon="3.71463">
        <ele>1114</ele>
        <time>2015-08-05T11:16:19Z</time>
      </trkpt>
      <trkpt lat="45.93354" lon="3.7146">
        <ele>1116</ele>
        <time>2015-08-05T11:16:23Z</time>
      </trkpt>
      <trkpt lat="45.93354" lon="3.71456">
        <ele>1117</ele>
        <time>2015-08-05T11:16:25Z</time>
      </trkpt>
      <trkpt lat="45.93352" lon="3.71453">
        <ele>1118</ele>
        <time>2015-08-05T11:16:28Z</time>
      </trkpt>
      <trkpt lat="45.93349" lon="3.71451">
        <ele>1121</ele>
        <time>2015-08-05T11:16:33Z</time>
      </trkpt>
      <trkpt lat="45.93345" lon="3.71445">
        <ele>1124</ele>
        <time>2015-08-05T11:16:38Z</time>
      </trkpt>
      <trkpt lat="45.93343" lon="3.71444">
        <ele>1124</ele>
        <time>2015-08-05T11:16:40Z</time>
      </trkpt>
      <trkpt lat="45.9334" lon="3.71442">
        <ele>1124</ele>
        <time>2015-08-05T11:16:43Z</time>
      </trkpt>
      <trkpt lat="45.93337" lon="3.71439">
        <ele>1124</ele>
        <time>2015-08-05T11:16:47Z</time>
      </trkpt>
      <trkpt lat="45.93335" lon="3.71435">
        <ele>1124</ele>
        <time>2015-08-05T11:16:50Z</time>
      </trkpt>
      <trkpt lat="45.93334" lon="3.71431">
        <ele>1124</ele>
        <time>2015-08-05T11:16:52Z</time>
      </trkpt>
      <trkpt lat="45.93332" lon="3.71426">
        <ele>1124</ele>
        <time>2015-08-05T11:16:56Z</time>
      </trkpt>
      <trkpt lat="45.9333" lon="3.71426">
        <ele>1124</ele>
        <time>2015-08-05T11:16:59Z</time>
      </trkpt>
      <trkpt lat="45.93325" lon="3.7142">
        <ele>1124</ele>
        <time>2015-08-05T11:17:05Z</time>
      </trkpt>
      <trkpt lat="45.93322" lon="3.71413">
        <ele>1124</ele>
        <time>2015-08-05T11:17:11Z</time>
      </trkpt>
      <trkpt lat="45.93318" lon="3.71409">
        <ele>1124</ele>
        <time>2015-08-05T11:17:15Z</time>
      </trkpt>
      <trkpt lat="45.93315" lon="3.71405">
        <ele>1124</ele>
        <time>2015-08-05T11:17:20Z</time>
      </trkpt>
      <trkpt lat="45.93314" lon="3.71404">
        <ele>1124</ele>
        <time>2015-08-05T11:17:22Z</time>
      </trkpt>
      <trkpt lat="45.93314" lon="3.71399">
        <ele>1124</ele>
        <time>2015-08-05T11:17:25Z</time>
      </trkpt>
      <trkpt lat="45.93314" lon="3.71395">
        <ele>1124</ele>
        <time>2015-08-05T11:17:27Z</time>
      </trkpt>
      <trkpt lat="45.93311" lon="3.71393">
        <ele>1124</ele>
        <time>2015-08-05T11:17:31Z</time>
      </trkpt>
      <trkpt lat="45.93309" lon="3.7139">
        <ele>1125</ele>
        <time>2015-08-05T11:17:33Z</time>
      </trkpt>
      <trkpt lat="45.93306" lon="3.71386">
        <ele>1125</ele>
        <time>2015-08-05T11:17:37Z</time>
      </trkpt>
      <trkpt lat="45.93306" lon="3.71381">
        <ele>1125</ele>
        <time>2015-08-05T11:17:40Z</time>
      </trkpt>
      <trkpt lat="45.93307" lon="3.71376">
        <ele>1127</ele>
        <time>2015-08-05T11:17:43Z</time>
      </trkpt>
      <trkpt lat="45.93307" lon="3.71372">
        <ele>1130</ele>
        <time>2015-08-05T11:17:47Z</time>
      </trkpt>
      <trkpt lat="45.93306" lon="3.71369">
        <ele>1135</ele>
        <time>2015-08-05T11:17:53Z</time>
      </trkpt>
      <trkpt lat="45.93305" lon="3.71367">
        <ele>1135</ele>
        <time>2015-08-05T11:17:55Z</time>
      </trkpt>
      <trkpt lat="45.93304" lon="3.71365">
        <ele>1138</ele>
        <time>2015-08-05T11:18:01Z</time>
      </trkpt>
      <trkpt lat="45.93304" lon="3.71362">
        <ele>1138</ele>
        <time>2015-08-05T11:18:05Z</time>
      </trkpt>
      <trkpt lat="45.93305" lon="3.7136">
        <ele>1138</ele>
        <time>2015-08-05T11:18:08Z</time>
      </trkpt>
      <trkpt lat="45.93305" lon="3.71356">
        <ele>1142</ele>
        <time>2015-08-05T11:18:25Z</time>
      </trkpt>
      <trkpt lat="45.93306" lon="3.7136">
        <ele>1142</ele>
        <time>2015-08-05T11:18:38Z</time>
      </trkpt>
      <trkpt lat="45.93306" lon="3.71357">
        <ele>1142</ele>
        <time>2015-08-05T11:18:40Z</time>
      </trkpt>
      <trkpt lat="45.93306" lon="3.71359">
        <ele>1142</ele>
        <time>2015-08-05T11:18:42Z</time>
      </trkpt>
      <trkpt lat="45.9331" lon="3.71357">
        <ele>1142</ele>
        <time>2015-08-05T11:18:51Z</time>
      </trkpt>
      <trkpt lat="45.93307" lon="3.71354">
        <ele>1141</ele>
        <time>2015-08-05T11:18:54Z</time>
      </trkpt>
      <trkpt lat="45.93305" lon="3.71349">
        <ele>1137</ele>
        <time>2015-08-05T11:18:58Z</time>
      </trkpt>
      <trkpt lat="45.93303" lon="3.71347">
        <ele>1130</ele>
        <time>2015-08-05T11:19:05Z</time>
      </trkpt>
      <trkpt lat="45.933" lon="3.71346">
        <ele>1128</ele>
        <time>2015-08-05T11:19:19Z</time>
      </trkpt>
      <trkpt lat="45.93299" lon="3.71344">
        <ele>1128</ele>
        <time>2015-08-05T11:19:22Z</time>
      </trkpt>
      <trkpt lat="45.93303" lon="3.71344">
        <ele>1134</ele>
        <time>2015-08-05T11:19:32Z</time>
      </trkpt>
      <trkpt lat="45.93305" lon="3.71349">
        <ele>1137</ele>
        <time>2015-08-05T11:19:35Z</time>
      </trkpt>
      <trkpt lat="45.93307" lon="3.71357">
        <ele>1140</ele>
        <time>2015-08-05T11:19:39Z</time>
      </trkpt>
      <trkpt lat="45.93308" lon="3.7136">
        <ele>1143</ele>
        <time>2015-08-05T11:19:42Z</time>
      </trkpt>
      <trkpt lat="45.93309" lon="3.71362">
        <ele>1143</ele>
        <time>2015-08-05T11:19:45Z</time>
      </trkpt>
      <trkpt lat="45.93309" lon="3.71361">
        <ele>1143</ele>
        <time>2015-08-05T11:19:52Z</time>
      </trkpt>
      <trkpt lat="45.9331" lon="3.71359">
        <ele>1145</ele>
        <time>2015-08-05T11:19:58Z</time>
      </trkpt>
      <trkpt lat="45.93309" lon="3.71357">
        <ele>1145</ele>
        <time>2015-08-05T11:20:03Z</time>
      </trkpt>
      <trkpt lat="45.93311" lon="3.71356">
        <ele>1145</ele>
        <time>2015-08-05T11:20:09Z</time>
      </trkpt>
      <trkpt lat="45.93311" lon="3.71355">
        <ele>1145</ele>
        <time>2015-08-05T11:20:15Z</time>
      </trkpt>
      <trkpt lat="45.93311" lon="3.71353">
        <ele>1145</ele>
        <time>2015-08-05T11:20:18Z</time>
      </trkpt>
      <trkpt lat="45.93309" lon="3.71351">
        <ele>1145</ele>
        <time>2015-08-05T11:20:21Z</time>
      </trkpt>
      <trkpt lat="45.93307" lon="3.7135">
        <ele>1145</ele>
        <time>2015-08-05T11:20:28Z</time>
      </trkpt>
      <trkpt lat="45.93304" lon="3.71347">
        <ele>1143</ele>
        <time>2015-08-05T11:20:33Z</time>
      </trkpt>
      <trkpt lat="45.93303" lon="3.71347">
        <ele>1140</ele>
        <time>2015-08-05T11:20:37Z</time>
      </trkpt>
      <trkpt lat="45.93302" lon="3.71345">
        <ele>1136</ele>
        <time>2015-08-05T11:20:41Z</time>
      </trkpt>
      <trkpt lat="45.93302" lon="3.71343">
        <ele>1132</ele>
        <time>2015-08-05T11:20:45Z</time>
      </trkpt>
      <trkpt lat="45.93304" lon="3.71342">
        <ele>1131</ele>
        <time>2015-08-05T11:20:47Z</time>
      </trkpt>
      <trkpt lat="45.93304" lon="3.71341">
        <ele>1131</ele>
        <time>2015-08-05T11:20:53Z</time>
      </trkpt>
      <trkpt lat="45.93305" lon="3.71342">
        <ele>1131</ele>
        <time>2015-08-05T11:21:01Z</time>
      </trkpt>
      <trkpt lat="45.93305" lon="3.7134">
        <ele>1131</ele>
        <time>2015-08-05T11:21:06Z</time>
      </trkpt>
      <trkpt lat="45.93303" lon="3.71339">
        <ele>1130</ele>
        <time>2015-08-05T11:21:09Z</time>
      </trkpt>
      <trkpt lat="45.93302" lon="3.7134">
        <ele>1124</ele>
        <time>2015-08-05T11:21:15Z</time>
      </trkpt>
      <trkpt lat="45.93302" lon="3.71346">
        <ele>1124</ele>
        <time>2015-08-05T11:21:20Z</time>
      </trkpt>
      <trkpt lat="45.93303" lon="3.71349">
        <ele>1124</ele>
        <time>2015-08-05T11:21:24Z</time>
      </trkpt>
      <trkpt lat="45.93303" lon="3.71355">
        <ele>1128</ele>
        <time>2015-08-05T11:21:30Z</time>
      </trkpt>
      <trkpt lat="45.93303" lon="3.71359">
        <ele>1132</ele>
        <time>2015-08-05T11:21:35Z</time>
      </trkpt>
      <trkpt lat="45.93304" lon="3.71361">
        <ele>1134</ele>
        <time>2015-08-05T11:21:38Z</time>
      </trkpt>
      <trkpt lat="45.93307" lon="3.71361">
        <ele>1136</ele>
        <time>2015-08-05T11:21:44Z</time>
      </trkpt>
      <trkpt lat="45.93309" lon="3.71361">
        <ele>1136</ele>
        <time>2015-08-05T11:21:49Z</time>
      </trkpt>
      <trkpt lat="45.93307" lon="3.71361">
        <ele>1136</ele>
        <time>2015-08-05T11:21:52Z</time>
      </trkpt>
      <trkpt lat="45.93308" lon="3.71364">
        <ele>1137</ele>
        <time>2015-08-05T11:22:00Z</time>
      </trkpt>
      <trkpt lat="45.93307" lon="3.71362">
        <ele>1138</ele>
        <time>2015-08-05T11:22:07Z</time>
      </trkpt>
      <trkpt lat="45.93305" lon="3.71362">
        <ele>1138</ele>
        <time>2015-08-05T11:22:12Z</time>
      </trkpt>
      <trkpt lat="45.93304" lon="3.71359">
        <ele>1136</ele>
        <time>2015-08-05T11:22:18Z</time>
      </trkpt>
      <trkpt lat="45.93303" lon="3.71359">
        <ele>1135</ele>
        <time>2015-08-05T11:22:21Z</time>
      </trkpt>
      <trkpt lat="45.93301" lon="3.71355">
        <ele>1134</ele>
        <time>2015-08-05T11:22:24Z</time>
      </trkpt>
      <trkpt lat="45.93298" lon="3.71351">
        <ele>1134</ele>
        <time>2015-08-05T11:22:27Z</time>
      </trkpt>
      <trkpt lat="45.93299" lon="3.71353">
        <ele>1134</ele>
        <time>2015-08-05T11:22:31Z</time>
      </trkpt>
      <trkpt lat="45.93301" lon="3.71354">
        <ele>1134</ele>
        <time>2015-08-05T11:22:34Z</time>
      </trkpt>
      <trkpt lat="45.93302" lon="3.71355">
        <ele>1134</ele>
        <time>2015-08-05T11:22:36Z</time>
      </trkpt>
      <trkpt lat="45.93302" lon="3.71357">
        <ele>1134</ele>
        <time>2015-08-05T11:22:38Z</time>
      </trkpt>
      <trkpt lat="45.93301" lon="3.71358">
        <ele>1134</ele>
        <time>2015-08-05T11:22:42Z</time>
      </trkpt>
      <trkpt lat="45.93304" lon="3.71361">
        <ele>1134</ele>
        <time>2015-08-05T11:22:49Z</time>
      </trkpt>
      <trkpt lat="45.93304" lon="3.71363">
        <ele>1134</ele>
        <time>2015-08-05T11:22:56Z</time>
      </trkpt>
      <trkpt lat="45.93304" lon="3.7136">
        <ele>1134</ele>
        <time>2015-08-05T11:23:00Z</time>
      </trkpt>
      <trkpt lat="45.93304" lon="3.71358">
        <ele>1134</ele>
        <time>2015-08-05T11:23:02Z</time>
      </trkpt>
      <trkpt lat="45.93307" lon="3.71356">
        <ele>1130</ele>
        <time>2015-08-05T11:23:09Z</time>
      </trkpt>
      <trkpt lat="45.93303" lon="3.71354">
        <ele>1130</ele>
        <time>2015-08-05T11:23:12Z</time>
      </trkpt>
      <trkpt lat="45.93299" lon="3.71349">
        <ele>1130</ele>
        <time>2015-08-05T11:23:16Z</time>
      </trkpt>
      <trkpt lat="45.93297" lon="3.71349">
        <ele>1130</ele>
        <time>2015-08-05T11:23:18Z</time>
      </trkpt>
      <trkpt lat="45.93296" lon="3.71345">
        <ele>1130</ele>
        <time>2015-08-05T11:23:20Z</time>
      </trkpt>
      <trkpt lat="45.9329" lon="3.71337">
        <ele>1133</ele>
        <time>2015-08-05T11:23:29Z</time>
      </trkpt>
      <trkpt lat="45.93288" lon="3.71336">
        <ele>1134</ele>
        <time>2015-08-05T11:23:32Z</time>
      </trkpt>
      <trkpt lat="45.93284" lon="3.71335">
        <ele>1134</ele>
        <time>2015-08-05T11:23:36Z</time>
      </trkpt>
      <trkpt lat="45.9328" lon="3.71334">
        <ele>1136</ele>
        <time>2015-08-05T11:23:39Z</time>
      </trkpt>
      <trkpt lat="45.93276" lon="3.7133">
        <ele>1139</ele>
        <time>2015-08-05T11:23:43Z</time>
      </trkpt>
      <trkpt lat="45.93272" lon="3.71328">
        <ele>1141</ele>
        <time>2015-08-05T11:23:46Z</time>
      </trkpt>
      <trkpt lat="45.93272" lon="3.71324">
        <ele>1143</ele>
        <time>2015-08-05T11:23:48Z</time>
      </trkpt>
      <trkpt lat="45.93266" lon="3.71317">
        <ele>1144</ele>
        <time>2015-08-05T11:23:54Z</time>
      </trkpt>
      <trkpt lat="45.93261" lon="3.71307">
        <ele>1144</ele>
        <time>2015-08-05T11:24:00Z</time>
      </trkpt>
      <trkpt lat="45.93258" lon="3.71305">
        <ele>1144</ele>
        <time>2015-08-05T11:24:02Z</time>
      </trkpt>
      <trkpt lat="45.93258" lon="3.713">
        <ele>1144</ele>
        <time>2015-08-05T11:24:05Z</time>
      </trkpt>
      <trkpt lat="45.93257" lon="3.71296">
        <ele>1144</ele>
        <time>2015-08-05T11:24:07Z</time>
      </trkpt>
      <trkpt lat="45.93255" lon="3.71293">
        <ele>1144</ele>
        <time>2015-08-05T11:24:09Z</time>
      </trkpt>
      <trkpt lat="45.93253" lon="3.71288">
        <ele>1144</ele>
        <time>2015-08-05T11:24:12Z</time>
      </trkpt>
      <trkpt lat="45.9325" lon="3.71285">
        <ele>1143</ele>
        <time>2015-08-05T11:24:15Z</time>
      </trkpt>
      <trkpt lat="45.93248" lon="3.7128">
        <ele>1140</ele>
        <time>2015-08-05T11:24:18Z</time>
      </trkpt>
      <trkpt lat="45.93245" lon="3.71278">
        <ele>1137</ele>
        <time>2015-08-05T11:24:21Z</time>
      </trkpt>
      <trkpt lat="45.93243" lon="3.71274">
        <ele>1134</ele>
        <time>2015-08-05T11:24:27Z</time>
      </trkpt>
      <trkpt lat="45.93244" lon="3.71272">
        <ele>1136</ele>
        <time>2015-08-05T11:24:30Z</time>
      </trkpt>
      <trkpt lat="45.93244" lon="3.71273">
        <ele>1140</ele>
        <time>2015-08-05T11:24:34Z</time>
      </trkpt>
      <trkpt lat="45.93242" lon="3.71273">
        <ele>1142</ele>
        <time>2015-08-05T11:24:36Z</time>
      </trkpt>
      <trkpt lat="45.93237" lon="3.71268">
        <ele>1144</ele>
        <time>2015-08-05T11:24:42Z</time>
      </trkpt>
      <trkpt lat="45.93229" lon="3.71259">
        <ele>1144</ele>
        <time>2015-08-05T11:24:50Z</time>
      </trkpt>
      <trkpt lat="45.93226" lon="3.71256">
        <ele>1144</ele>
        <time>2015-08-05T11:24:54Z</time>
      </trkpt>
      <trkpt lat="45.93227" lon="3.71252">
        <ele>1144</ele>
        <time>2015-08-05T11:24:56Z</time>
      </trkpt>
      <trkpt lat="45.93222" lon="3.71247">
        <ele>1143</ele>
        <time>2015-08-05T11:25:01Z</time>
      </trkpt>
      <trkpt lat="45.93214" lon="3.71239">
        <ele>1142</ele>
        <time>2015-08-05T11:25:09Z</time>
      </trkpt>
      <trkpt lat="45.9321" lon="3.71233">
        <ele>1140</ele>
        <time>2015-08-05T11:25:14Z</time>
      </trkpt>
      <trkpt lat="45.93202" lon="3.71224">
        <ele>1138</ele>
        <time>2015-08-05T11:25:22Z</time>
      </trkpt>
      <trkpt lat="45.93197" lon="3.7122">
        <ele>1138</ele>
        <time>2015-08-05T11:25:25Z</time>
      </trkpt>
      <trkpt lat="45.93195" lon="3.71218">
        <ele>1138</ele>
        <time>2015-08-05T11:25:27Z</time>
      </trkpt>
      <trkpt lat="45.93194" lon="3.71217">
        <ele>1138</ele>
        <time>2015-08-05T11:25:29Z</time>
      </trkpt>
      <trkpt lat="45.93187" lon="3.71212">
        <ele>1138</ele>
        <time>2015-08-05T11:25:35Z</time>
      </trkpt>
      <trkpt lat="45.93184" lon="3.71211">
        <ele>1140</ele>
        <time>2015-08-05T11:25:40Z</time>
      </trkpt>
      <trkpt lat="45.93182" lon="3.71208">
        <ele>1141</ele>
        <time>2015-08-05T11:25:43Z</time>
      </trkpt>
      <trkpt lat="45.93179" lon="3.71206">
        <ele>1142</ele>
        <time>2015-08-05T11:25:45Z</time>
      </trkpt>
      <trkpt lat="45.93176" lon="3.71206">
        <ele>1144</ele>
        <time>2015-08-05T11:25:48Z</time>
      </trkpt>
      <trkpt lat="45.93174" lon="3.71207">
        <ele>1145</ele>
        <time>2015-08-05T11:25:50Z</time>
      </trkpt>
      <trkpt lat="45.93172" lon="3.71205">
        <ele>1146</ele>
        <time>2015-08-05T11:25:52Z</time>
      </trkpt>
      <trkpt lat="45.9316" lon="3.712">
        <ele>1146</ele>
        <time>2015-08-05T11:26:01Z</time>
      </trkpt>
      <trkpt lat="45.93157" lon="3.71198">
        <ele>1146</ele>
        <time>2015-08-05T11:26:04Z</time>
      </trkpt>
      <trkpt lat="45.93154" lon="3.71199">
        <ele>1146</ele>
        <time>2015-08-05T11:26:07Z</time>
      </trkpt>
      <trkpt lat="45.93152" lon="3.71198">
        <ele>1146</ele>
        <time>2015-08-05T11:26:09Z</time>
      </trkpt>
      <trkpt lat="45.93148" lon="3.71195">
        <ele>1146</ele>
        <time>2015-08-05T11:26:13Z</time>
      </trkpt>
      <trkpt lat="45.93144" lon="3.71194">
        <ele>1146</ele>
        <time>2015-08-05T11:26:16Z</time>
      </trkpt>
      <trkpt lat="45.93141" lon="3.71194">
        <ele>1147</ele>
        <time>2015-08-05T11:26:18Z</time>
      </trkpt>
      <trkpt lat="45.93135" lon="3.71191">
        <ele>1152</ele>
        <time>2015-08-05T11:26:23Z</time>
      </trkpt>
      <trkpt lat="45.93134" lon="3.71191">
        <ele>1152</ele>
        <time>2015-08-05T11:26:25Z</time>
      </trkpt>
      <trkpt lat="45.93133" lon="3.71191">
        <ele>1152</ele>
        <time>2015-08-05T11:26:27Z</time>
      </trkpt>
      <trkpt lat="45.93131" lon="3.7119">
        <ele>1152</ele>
        <time>2015-08-05T11:26:32Z</time>
      </trkpt>
      <trkpt lat="45.93128" lon="3.71187">
        <ele>1153</ele>
        <time>2015-08-05T11:26:35Z</time>
      </trkpt>
      <trkpt lat="45.93125" lon="3.71186">
        <ele>1153</ele>
        <time>2015-08-05T11:26:37Z</time>
      </trkpt>
      <trkpt lat="45.93128" lon="3.71192">
        <ele>1160</ele>
        <time>2015-08-05T11:26:44Z</time>
      </trkpt>
      <trkpt lat="45.93128" lon="3.71195">
        <ele>1163</ele>
        <time>2015-08-05T11:26:47Z</time>
      </trkpt>
      <trkpt lat="45.93125" lon="3.71196">
        <ele>1167</ele>
        <time>2015-08-05T11:26:51Z</time>
      </trkpt>
      <trkpt lat="45.93126" lon="3.71197">
        <ele>1172</ele>
        <time>2015-08-05T11:26:56Z</time>
      </trkpt>
      <trkpt lat="45.93122" lon="3.71198">
        <ele>1175</ele>
        <time>2015-08-05T11:27:02Z</time>
      </trkpt>
      <trkpt lat="45.93118" lon="3.71197">
        <ele>1175</ele>
        <time>2015-08-05T11:27:05Z</time>
      </trkpt>
      <trkpt lat="45.93115" lon="3.71191">
        <ele>1175</ele>
        <time>2015-08-05T11:27:07Z</time>
      </trkpt>
      <trkpt lat="45.93111" lon="3.71187">
        <ele>1175</ele>
        <time>2015-08-05T11:27:09Z</time>
      </trkpt>
      <trkpt lat="45.93107" lon="3.71185">
        <ele>1171</ele>
        <time>2015-08-05T11:27:13Z</time>
      </trkpt>
      <trkpt lat="45.93098" lon="3.71183">
        <ele>1163</ele>
        <time>2015-08-05T11:27:20Z</time>
      </trkpt>
      <trkpt lat="45.93097" lon="3.71181">
        <ele>1161</ele>
        <time>2015-08-05T11:27:22Z</time>
      </trkpt>
      <trkpt lat="45.9309" lon="3.71179">
        <ele>1155</ele>
        <time>2015-08-05T11:27:28Z</time>
      </trkpt>
      <trkpt lat="45.9309" lon="3.71175">
        <ele>1153</ele>
        <time>2015-08-05T11:27:30Z</time>
      </trkpt>
      <trkpt lat="45.93087" lon="3.71171">
        <ele>1150</ele>
        <time>2015-08-05T11:27:33Z</time>
      </trkpt>
      <trkpt lat="45.93085" lon="3.71171">
        <ele>1149</ele>
        <time>2015-08-05T11:27:35Z</time>
      </trkpt>
      <trkpt lat="45.93083" lon="3.71171">
        <ele>1149</ele>
        <time>2015-08-05T11:27:37Z</time>
      </trkpt>
      <trkpt lat="45.93082" lon="3.71172">
        <ele>1149</ele>
        <time>2015-08-05T11:27:39Z</time>
      </trkpt>
      <trkpt lat="45.93076" lon="3.7117">
        <ele>1149</ele>
        <time>2015-08-05T11:27:44Z</time>
      </trkpt>
      <trkpt lat="45.9307" lon="3.71167">
        <ele>1148</ele>
        <time>2015-08-05T11:27:48Z</time>
      </trkpt>
      <trkpt lat="45.93068" lon="3.71168">
        <ele>1148</ele>
        <time>2015-08-05T11:27:50Z</time>
      </trkpt>
      <trkpt lat="45.93063" lon="3.71163">
        <ele>1148</ele>
        <time>2015-08-05T11:27:54Z</time>
      </trkpt>
      <trkpt lat="45.93058" lon="3.71156">
        <ele>1148</ele>
        <time>2015-08-05T11:28:00Z</time>
      </trkpt>
      <trkpt lat="45.93057" lon="3.71157">
        <ele>1148</ele>
        <time>2015-08-05T11:28:02Z</time>
      </trkpt>
      <trkpt lat="45.93057" lon="3.71154">
        <ele>1148</ele>
        <time>2015-08-05T11:28:04Z</time>
      </trkpt>
      <trkpt lat="45.93053" lon="3.71155">
        <ele>1149</ele>
        <time>2015-08-05T11:28:09Z</time>
      </trkpt>
      <trkpt lat="45.93051" lon="3.71154">
        <ele>1152</ele>
        <time>2015-08-05T11:28:12Z</time>
      </trkpt>
      <trkpt lat="45.93051" lon="3.71157">
        <ele>1155</ele>
        <time>2015-08-05T11:28:15Z</time>
      </trkpt>
      <trkpt lat="45.9305" lon="3.7116">
        <ele>1156</ele>
        <time>2015-08-05T11:28:17Z</time>
      </trkpt>
      <trkpt lat="45.93052" lon="3.71161">
        <ele>1158</ele>
        <time>2015-08-05T11:28:19Z</time>
      </trkpt>
      <trkpt lat="45.93053" lon="3.71158">
        <ele>1159</ele>
        <time>2015-08-05T11:28:25Z</time>
      </trkpt>
      <trkpt lat="45.93052" lon="3.71158">
        <ele>1159</ele>
        <time>2015-08-05T11:28:32Z</time>
      </trkpt>
      <trkpt lat="45.93052" lon="3.71161">
        <ele>1159</ele>
        <time>2015-08-05T11:28:35Z</time>
      </trkpt>
      <trkpt lat="45.93053" lon="3.71161">
        <ele>1159</ele>
        <time>2015-08-05T11:28:37Z</time>
      </trkpt>
      <trkpt lat="45.93053" lon="3.71159">
        <ele>1159</ele>
        <time>2015-08-05T11:28:39Z</time>
      </trkpt>
      <trkpt lat="45.93051" lon="3.71156">
        <ele>1159</ele>
        <time>2015-08-05T11:28:41Z</time>
      </trkpt>
      <trkpt lat="45.9305" lon="3.71153">
        <ele>1157</ele>
        <time>2015-08-05T11:28:43Z</time>
      </trkpt>
      <trkpt lat="45.93049" lon="3.71153">
        <ele>1153</ele>
        <time>2015-08-05T11:28:49Z</time>
      </trkpt>
      <trkpt lat="45.93049" lon="3.71151">
        <ele>1152</ele>
        <time>2015-08-05T11:28:52Z</time>
      </trkpt>
      <trkpt lat="45.93048" lon="3.71147">
        <ele>1151</ele>
        <time>2015-08-05T11:28:57Z</time>
      </trkpt>
      <trkpt lat="45.93046" lon="3.71141">
        <ele>1151</ele>
        <time>2015-08-05T11:28:59Z</time>
      </trkpt>
      <trkpt lat="45.93043" lon="3.71136">
        <ele>1151</ele>
        <time>2015-08-05T11:29:01Z</time>
      </trkpt>
      <trkpt lat="45.93039" lon="3.71141">
        <ele>1151</ele>
        <time>2015-08-05T11:29:10Z</time>
      </trkpt>
      <trkpt lat="45.93041" lon="3.71143">
        <ele>1151</ele>
        <time>2015-08-05T11:29:14Z</time>
      </trkpt>
      <trkpt lat="45.93039" lon="3.71147">
        <ele>1151</ele>
        <time>2015-08-05T11:29:16Z</time>
      </trkpt>
      <trkpt lat="45.9304" lon="3.71144">
        <ele>1151</ele>
        <time>2015-08-05T11:29:18Z</time>
      </trkpt>
      <trkpt lat="45.93038" lon="3.71138">
        <ele>1152</ele>
        <time>2015-08-05T11:29:20Z</time>
      </trkpt>
      <trkpt lat="45.93036" lon="3.71135">
        <ele>1152</ele>
        <time>2015-08-05T11:29:22Z</time>
      </trkpt>
      <trkpt lat="45.93034" lon="3.71134">
        <ele>1152</ele>
        <time>2015-08-05T11:29:24Z</time>
      </trkpt>
      <trkpt lat="45.93032" lon="3.71131">
        <ele>1152</ele>
        <time>2015-08-05T11:29:26Z</time>
      </trkpt>
      <trkpt lat="45.93029" lon="3.71129">
        <ele>1153</ele>
        <time>2015-08-05T11:29:28Z</time>
      </trkpt>
      <trkpt lat="45.93031" lon="3.71129">
        <ele>1155</ele>
        <time>2015-08-05T11:29:31Z</time>
      </trkpt>
      <trkpt lat="45.93032" lon="3.7113">
        <ele>1158</ele>
        <time>2015-08-05T11:29:37Z</time>
      </trkpt>
      <trkpt lat="45.93031" lon="3.71135">
        <ele>1162</ele>
        <time>2015-08-05T11:29:44Z</time>
      </trkpt>
      <trkpt lat="45.93028" lon="3.71135">
        <ele>1164</ele>
        <time>2015-08-05T11:29:48Z</time>
      </trkpt>
      <trkpt lat="45.93026" lon="3.71134">
        <ele>1164</ele>
        <time>2015-08-05T11:29:50Z</time>
      </trkpt>
      <trkpt lat="45.93026" lon="3.7113">
        <ele>1164</ele>
        <time>2015-08-05T11:29:52Z</time>
      </trkpt>
      <trkpt lat="45.93024" lon="3.71127">
        <ele>1164</ele>
        <time>2015-08-05T11:29:56Z</time>
      </trkpt>
      <trkpt lat="45.93026" lon="3.71124">
        <ele>1162</ele>
        <time>2015-08-05T11:30:00Z</time>
      </trkpt>
      <trkpt lat="45.93024" lon="3.71122">
        <ele>1161</ele>
        <time>2015-08-05T11:30:02Z</time>
      </trkpt>
      <trkpt lat="45.93022" lon="3.71121">
        <ele>1160</ele>
        <time>2015-08-05T11:30:05Z</time>
      </trkpt>
      <trkpt lat="45.93017" lon="3.71116">
        <ele>1158</ele>
        <time>2015-08-05T11:30:07Z</time>
      </trkpt>
      <trkpt lat="45.93014" lon="3.71116">
        <ele>1157</ele>
        <time>2015-08-05T11:30:10Z</time>
      </trkpt>
      <trkpt lat="45.93012" lon="3.71116">
        <ele>1157</ele>
        <time>2015-08-05T11:30:12Z</time>
      </trkpt>
      <trkpt lat="45.93008" lon="3.71114">
        <ele>1157</ele>
        <time>2015-08-05T11:30:14Z</time>
      </trkpt>
      <trkpt lat="45.93006" lon="3.71113">
        <ele>1157</ele>
        <time>2015-08-05T11:30:16Z</time>
      </trkpt>
      <trkpt lat="45.93002" lon="3.71114">
        <ele>1157</ele>
        <time>2015-08-05T11:30:19Z</time>
      </trkpt>
      <trkpt lat="45.92999" lon="3.71113">
        <ele>1157</ele>
        <time>2015-08-05T11:30:22Z</time>
      </trkpt>
      <trkpt lat="45.92998" lon="3.71111">
        <ele>1159</ele>
        <time>2015-08-05T11:30:24Z</time>
      </trkpt>
      <trkpt lat="45.92995" lon="3.71108">
        <ele>1163</ele>
        <time>2015-08-05T11:30:28Z</time>
      </trkpt>
      <trkpt lat="45.92991" lon="3.71107">
        <ele>1165</ele>
        <time>2015-08-05T11:30:32Z</time>
      </trkpt>
      <trkpt lat="45.92982" lon="3.71101">
        <ele>1165</ele>
        <time>2015-08-05T11:30:41Z</time>
      </trkpt>
      <trkpt lat="45.92981" lon="3.71101">
        <ele>1165</ele>
        <time>2015-08-05T11:30:43Z</time>
      </trkpt>
      <trkpt lat="45.92979" lon="3.71097">
        <ele>1165</ele>
        <time>2015-08-05T11:30:47Z</time>
      </trkpt>
      <trkpt lat="45.92976" lon="3.71093">
        <ele>1163</ele>
        <time>2015-08-05T11:30:51Z</time>
      </trkpt>
      <trkpt lat="45.92975" lon="3.71091">
        <ele>1162</ele>
        <time>2015-08-05T11:30:53Z</time>
      </trkpt>
      <trkpt lat="45.92966" lon="3.71087">
        <ele>1159</ele>
        <time>2015-08-05T11:31:01Z</time>
      </trkpt>
      <trkpt lat="45.92962" lon="3.71084">
        <ele>1157</ele>
        <time>2015-08-05T11:31:06Z</time>
      </trkpt>
      <trkpt lat="45.9296" lon="3.71084">
        <ele>1156</ele>
        <time>2015-08-05T11:31:08Z</time>
      </trkpt>
      <trkpt lat="45.9295" lon="3.7108">
        <ele>1156</ele>
        <time>2015-08-05T11:31:14Z</time>
      </trkpt>
      <trkpt lat="45.92948" lon="3.71078">
        <ele>1155</ele>
        <time>2015-08-05T11:31:16Z</time>
      </trkpt>
      <trkpt lat="45.92947" lon="3.71076">
        <ele>1154</ele>
        <time>2015-08-05T11:31:18Z</time>
      </trkpt>
      <trkpt lat="45.92941" lon="3.71073">
        <ele>1152</ele>
        <time>2015-08-05T11:31:22Z</time>
      </trkpt>
      <trkpt lat="45.92938" lon="3.71072">
        <ele>1152</ele>
        <time>2015-08-05T11:31:25Z</time>
      </trkpt>
      <trkpt lat="45.92935" lon="3.71073">
        <ele>1152</ele>
        <time>2015-08-05T11:31:28Z</time>
      </trkpt>
      <trkpt lat="45.92932" lon="3.71072">
        <ele>1152</ele>
        <time>2015-08-05T11:31:30Z</time>
      </trkpt>
      <trkpt lat="45.92928" lon="3.71072">
        <ele>1152</ele>
        <time>2015-08-05T11:31:32Z</time>
      </trkpt>
      <trkpt lat="45.92926" lon="3.71073">
        <ele>1153</ele>
        <time>2015-08-05T11:31:34Z</time>
      </trkpt>
      <trkpt lat="45.92921" lon="3.71073">
        <ele>1158</ele>
        <time>2015-08-05T11:31:39Z</time>
      </trkpt>
      <trkpt lat="45.92919" lon="3.71071">
        <ele>1160</ele>
        <time>2015-08-05T11:31:41Z</time>
      </trkpt>
      <trkpt lat="45.92914" lon="3.71073">
        <ele>1163</ele>
        <time>2015-08-05T11:31:44Z</time>
      </trkpt>
      <trkpt lat="45.92911" lon="3.71073">
        <ele>1163</ele>
        <time>2015-08-05T11:31:47Z</time>
      </trkpt>
      <trkpt lat="45.92905" lon="3.71071">
        <ele>1163</ele>
        <time>2015-08-05T11:31:51Z</time>
      </trkpt>
      <trkpt lat="45.92902" lon="3.71069">
        <ele>1163</ele>
        <time>2015-08-05T11:31:53Z</time>
      </trkpt>
      <trkpt lat="45.92899" lon="3.71067">
        <ele>1163</ele>
        <time>2015-08-05T11:31:56Z</time>
      </trkpt>
      <trkpt lat="45.92896" lon="3.71065">
        <ele>1163</ele>
        <time>2015-08-05T11:31:58Z</time>
      </trkpt>
      <trkpt lat="45.92893" lon="3.71065">
        <ele>1163</ele>
        <time>2015-08-05T11:32:00Z</time>
      </trkpt>
      <trkpt lat="45.92883" lon="3.71057">
        <ele>1163</ele>
        <time>2015-08-05T11:32:07Z</time>
      </trkpt>
      <trkpt lat="45.92878" lon="3.71052">
        <ele>1159</ele>
        <time>2015-08-05T11:32:11Z</time>
      </trkpt>
      <trkpt lat="45.92876" lon="3.7105">
        <ele>1158</ele>
        <time>2015-08-05T11:32:13Z</time>
      </trkpt>
      <trkpt lat="45.92873" lon="3.71047">
        <ele>1157</ele>
        <time>2015-08-05T11:32:15Z</time>
      </trkpt>
      <trkpt lat="45.92867" lon="3.71044">
        <ele>1157</ele>
        <time>2015-08-05T11:32:19Z</time>
      </trkpt>
      <trkpt lat="45.92865" lon="3.71041">
        <ele>1157</ele>
        <time>2015-08-05T11:32:21Z</time>
      </trkpt>
      <trkpt lat="45.92863" lon="3.7104">
        <ele>1157</ele>
        <time>2015-08-05T11:32:23Z</time>
      </trkpt>
      <trkpt lat="45.92861" lon="3.71036">
        <ele>1157</ele>
        <time>2015-08-05T11:32:26Z</time>
      </trkpt>
      <trkpt lat="45.9286" lon="3.71035">
        <ele>1157</ele>
        <time>2015-08-05T11:32:28Z</time>
      </trkpt>
      <trkpt lat="45.92855" lon="3.71031">
        <ele>1158</ele>
        <time>2015-08-05T11:32:33Z</time>
      </trkpt>
      <trkpt lat="45.92853" lon="3.71027">
        <ele>1158</ele>
        <time>2015-08-05T11:32:37Z</time>
      </trkpt>
      <trkpt lat="45.92853" lon="3.71023">
        <ele>1158</ele>
        <time>2015-08-05T11:32:39Z</time>
      </trkpt>
      <trkpt lat="45.92852" lon="3.71018">
        <ele>1158</ele>
        <time>2015-08-05T11:32:41Z</time>
      </trkpt>
      <trkpt lat="45.92852" lon="3.71014">
        <ele>1158</ele>
        <time>2015-08-05T11:32:43Z</time>
      </trkpt>
      <trkpt lat="45.92851" lon="3.71008">
        <ele>1158</ele>
        <time>2015-08-05T11:32:48Z</time>
      </trkpt>
      <trkpt lat="45.92851" lon="3.70999">
        <ele>1156</ele>
        <time>2015-08-05T11:32:52Z</time>
      </trkpt>
      <trkpt lat="45.9285" lon="3.70997">
        <ele>1156</ele>
        <time>2015-08-05T11:32:54Z</time>
      </trkpt>
      <trkpt lat="45.92851" lon="3.70994">
        <ele>1156</ele>
        <time>2015-08-05T11:32:56Z</time>
      </trkpt>
      <trkpt lat="45.92853" lon="3.70991">
        <ele>1156</ele>
        <time>2015-08-05T11:32:59Z</time>
      </trkpt>
      <trkpt lat="45.92854" lon="3.70988">
        <ele>1156</ele>
        <time>2015-08-05T11:33:01Z</time>
      </trkpt>
      <trkpt lat="45.92854" lon="3.70984">
        <ele>1156</ele>
        <time>2015-08-05T11:33:07Z</time>
      </trkpt>
      <trkpt lat="45.92856" lon="3.70981">
        <ele>1156</ele>
        <time>2015-08-05T11:33:09Z</time>
      </trkpt>
      <trkpt lat="45.92858" lon="3.70978">
        <ele>1156</ele>
        <time>2015-08-05T11:33:11Z</time>
      </trkpt>
      <trkpt lat="45.9286" lon="3.70975">
        <ele>1156</ele>
        <time>2015-08-05T11:33:13Z</time>
      </trkpt>
      <trkpt lat="45.92861" lon="3.7097">
        <ele>1156</ele>
        <time>2015-08-05T11:33:15Z</time>
      </trkpt>
      <trkpt lat="45.92863" lon="3.70967">
        <ele>1156</ele>
        <time>2015-08-05T11:33:17Z</time>
      </trkpt>
      <trkpt lat="45.92863" lon="3.70963">
        <ele>1156</ele>
        <time>2015-08-05T11:33:19Z</time>
      </trkpt>
      <trkpt lat="45.92865" lon="3.70961">
        <ele>1156</ele>
        <time>2015-08-05T11:33:21Z</time>
      </trkpt>
      <trkpt lat="45.92867" lon="3.70956">
        <ele>1156</ele>
        <time>2015-08-05T11:33:23Z</time>
      </trkpt>
      <trkpt lat="45.92868" lon="3.70953">
        <ele>1156</ele>
        <time>2015-08-05T11:33:25Z</time>
      </trkpt>
      <trkpt lat="45.9287" lon="3.70949">
        <ele>1157</ele>
        <time>2015-08-05T11:33:27Z</time>
      </trkpt>
      <trkpt lat="45.9287" lon="3.70946">
        <ele>1158</ele>
        <time>2015-08-05T11:33:29Z</time>
      </trkpt>
      <trkpt lat="45.9287" lon="3.7094">
        <ele>1160</ele>
        <time>2015-08-05T11:33:33Z</time>
      </trkpt>
      <trkpt lat="45.92871" lon="3.70937">
        <ele>1161</ele>
        <time>2015-08-05T11:33:35Z</time>
      </trkpt>
      <trkpt lat="45.92874" lon="3.70933">
        <ele>1163</ele>
        <time>2015-08-05T11:33:38Z</time>
      </trkpt>
      <trkpt lat="45.92876" lon="3.70929">
        <ele>1165</ele>
        <time>2015-08-05T11:33:40Z</time>
      </trkpt>
      <trkpt lat="45.92874" lon="3.70923">
        <ele>1167</ele>
        <time>2015-08-05T11:33:44Z</time>
      </trkpt>
      <trkpt lat="45.92874" lon="3.7092">
        <ele>1167</ele>
        <time>2015-08-05T11:33:47Z</time>
      </trkpt>
      <trkpt lat="45.92875" lon="3.70916">
        <ele>1167</ele>
        <time>2015-08-05T11:33:49Z</time>
      </trkpt>
      <trkpt lat="45.92875" lon="3.70911">
        <ele>1167</ele>
        <time>2015-08-05T11:33:51Z</time>
      </trkpt>
      <trkpt lat="45.92875" lon="3.70907">
        <ele>1167</ele>
        <time>2015-08-05T11:33:53Z</time>
      </trkpt>
      <trkpt lat="45.92875" lon="3.70903">
        <ele>1167</ele>
        <time>2015-08-05T11:33:56Z</time>
      </trkpt>
      <trkpt lat="45.92876" lon="3.709">
        <ele>1167</ele>
        <time>2015-08-05T11:33:58Z</time>
      </trkpt>
      <trkpt lat="45.92878" lon="3.70896">
        <ele>1167</ele>
        <time>2015-08-05T11:34:00Z</time>
      </trkpt>
      <trkpt lat="45.92882" lon="3.70891">
        <ele>1167</ele>
        <time>2015-08-05T11:34:04Z</time>
      </trkpt>
      <trkpt lat="45.92882" lon="3.70888">
        <ele>1167</ele>
        <time>2015-08-05T11:34:06Z</time>
      </trkpt>
      <trkpt lat="45.92881" lon="3.70884">
        <ele>1167</ele>
        <time>2015-08-05T11:34:08Z</time>
      </trkpt>
      <trkpt lat="45.92883" lon="3.70875">
        <ele>1167</ele>
        <time>2015-08-05T11:34:14Z</time>
      </trkpt>
      <trkpt lat="45.92883" lon="3.70869">
        <ele>1167</ele>
        <time>2015-08-05T11:34:16Z</time>
      </trkpt>
      <trkpt lat="45.92888" lon="3.70857">
        <ele>1167</ele>
        <time>2015-08-05T11:34:25Z</time>
      </trkpt>
      <trkpt lat="45.92888" lon="3.70854">
        <ele>1169</ele>
        <time>2015-08-05T11:34:27Z</time>
      </trkpt>
      <trkpt lat="45.92887" lon="3.7085">
        <ele>1172</ele>
        <time>2015-08-05T11:34:31Z</time>
      </trkpt>
      <trkpt lat="45.92888" lon="3.7085">
        <ele>1172</ele>
        <time>2015-08-05T11:34:34Z</time>
      </trkpt>
      <trkpt lat="45.9289" lon="3.70845">
        <ele>1172</ele>
        <time>2015-08-05T11:34:38Z</time>
      </trkpt>
      <trkpt lat="45.92888" lon="3.70845">
        <ele>1172</ele>
        <time>2015-08-05T11:34:41Z</time>
      </trkpt>
      <trkpt lat="45.92887" lon="3.70845">
        <ele>1172</ele>
        <time>2015-08-05T11:34:45Z</time>
      </trkpt>
      <trkpt lat="45.92886" lon="3.70843">
        <ele>1172</ele>
        <time>2015-08-05T11:34:48Z</time>
      </trkpt>
      <trkpt lat="45.92884" lon="3.70842">
        <ele>1172</ele>
        <time>2015-08-05T11:34:50Z</time>
      </trkpt>
      <trkpt lat="45.92884" lon="3.7084">
        <ele>1172</ele>
        <time>2015-08-05T11:34:55Z</time>
      </trkpt>
      <trkpt lat="45.92884" lon="3.70838">
        <ele>1177</ele>
        <time>2015-08-05T11:35:09Z</time>
      </trkpt>
      <trkpt lat="45.92885" lon="3.70836">
        <ele>1177</ele>
        <time>2015-08-05T11:35:11Z</time>
      </trkpt>
      <trkpt lat="45.92886" lon="3.70838">
        <ele>1177</ele>
        <time>2015-08-05T11:35:14Z</time>
      </trkpt>
      <trkpt lat="45.92886" lon="3.7084">
        <ele>1177</ele>
        <time>2015-08-05T11:35:17Z</time>
      </trkpt>
      <trkpt lat="45.92886" lon="3.70842">
        <ele>1176</ele>
        <time>2015-08-05T11:35:20Z</time>
      </trkpt>
      <trkpt lat="45.92887" lon="3.70844">
        <ele>1175</ele>
        <time>2015-08-05T11:35:22Z</time>
      </trkpt>
      <trkpt lat="45.92889" lon="3.70845">
        <ele>1175</ele>
        <time>2015-08-05T11:35:24Z</time>
      </trkpt>
      <trkpt lat="45.9289" lon="3.70844">
        <ele>1175</ele>
        <time>2015-08-05T11:35:27Z</time>
      </trkpt>
      <trkpt lat="45.92888" lon="3.70842">
        <ele>1176</ele>
        <time>2015-08-05T11:35:42Z</time>
      </trkpt>
      <trkpt lat="45.92887" lon="3.7084">
        <ele>1177</ele>
        <time>2015-08-05T11:35:44Z</time>
      </trkpt>
      <trkpt lat="45.92887" lon="3.70838">
        <ele>1180</ele>
        <time>2015-08-05T11:35:47Z</time>
      </trkpt>
      <trkpt lat="45.92886" lon="3.70835">
        <ele>1180</ele>
        <time>2015-08-05T11:35:49Z</time>
      </trkpt>
      <trkpt lat="45.92886" lon="3.70837">
        <ele>1181</ele>
        <time>2015-08-05T11:35:51Z</time>
      </trkpt>
      <trkpt lat="45.92885" lon="3.70842">
        <ele>1181</ele>
        <time>2015-08-05T11:35:53Z</time>
      </trkpt>
      <trkpt lat="45.92884" lon="3.70845">
        <ele>1181</ele>
        <time>2015-08-05T11:35:55Z</time>
      </trkpt>
      <trkpt lat="45.92883" lon="3.70843">
        <ele>1181</ele>
        <time>2015-08-05T11:35:57Z</time>
      </trkpt>
      <trkpt lat="45.92884" lon="3.7084">
        <ele>1181</ele>
        <time>2015-08-05T11:36:00Z</time>
      </trkpt>
      <trkpt lat="45.92885" lon="3.70843">
        <ele>1182</ele>
        <time>2015-08-05T11:36:11Z</time>
      </trkpt>
      <trkpt lat="45.92885" lon="3.70841">
        <ele>1182</ele>
        <time>2015-08-05T11:36:15Z</time>
      </trkpt>
      <trkpt lat="45.92886" lon="3.7084">
        <ele>1181</ele>
        <time>2015-08-05T11:36:18Z</time>
      </trkpt>
      <trkpt lat="45.92888" lon="3.70837">
        <ele>1179</ele>
        <time>2015-08-05T11:36:20Z</time>
      </trkpt>
      <trkpt lat="45.92887" lon="3.70835">
        <ele>1176</ele>
        <time>2015-08-05T11:36:23Z</time>
      </trkpt>
      <trkpt lat="45.92886" lon="3.70835">
        <ele>1173</ele>
        <time>2015-08-05T11:36:30Z</time>
      </trkpt>
      <trkpt lat="45.92884" lon="3.70837">
        <ele>1173</ele>
        <time>2015-08-05T11:36:33Z</time>
      </trkpt>
      <trkpt lat="45.92884" lon="3.70838">
        <ele>1173</ele>
        <time>2015-08-05T11:36:35Z</time>
      </trkpt>
      <trkpt lat="45.92881" lon="3.70842">
        <ele>1173</ele>
        <time>2015-08-05T11:36:38Z</time>
      </trkpt>
      <trkpt lat="45.92878" lon="3.70846">
        <ele>1176</ele>
        <time>2015-08-05T11:36:41Z</time>
      </trkpt>
      <trkpt lat="45.9288" lon="3.70846">
        <ele>1183</ele>
        <time>2015-08-05T11:36:50Z</time>
      </trkpt>
      <trkpt lat="45.92879" lon="3.70849">
        <ele>1183</ele>
        <time>2015-08-05T11:36:58Z</time>
      </trkpt>
      <trkpt lat="45.92877" lon="3.70852">
        <ele>1187</ele>
        <time>2015-08-05T11:37:02Z</time>
      </trkpt>
      <trkpt lat="45.92876" lon="3.70854">
        <ele>1190</ele>
        <time>2015-08-05T11:37:05Z</time>
      </trkpt>
      <trkpt lat="45.92877" lon="3.70852">
        <ele>1192</ele>
        <time>2015-08-05T11:37:09Z</time>
      </trkpt>
      <trkpt lat="45.92878" lon="3.70851">
        <ele>1192</ele>
        <time>2015-08-05T11:37:13Z</time>
      </trkpt>
      <trkpt lat="45.92878" lon="3.70849">
        <ele>1192</ele>
        <time>2015-08-05T11:37:16Z</time>
      </trkpt>
      <trkpt lat="45.92878" lon="3.70851">
        <ele>1192</ele>
        <time>2015-08-05T11:37:22Z</time>
      </trkpt>
      <trkpt lat="45.92878" lon="3.70852">
        <ele>1192</ele>
        <time>2015-08-05T11:37:26Z</time>
      </trkpt>
      <trkpt lat="45.92875" lon="3.7085">
        <ele>1192</ele>
        <time>2015-08-05T11:37:28Z</time>
      </trkpt>
      <trkpt lat="45.92874" lon="3.70848">
        <ele>1192</ele>
        <time>2015-08-05T11:37:30Z</time>
      </trkpt>
      <trkpt lat="45.9287" lon="3.7085">
        <ele>1192</ele>
        <time>2015-08-05T11:37:33Z</time>
      </trkpt>
      <trkpt lat="45.92873" lon="3.70847">
        <ele>1192</ele>
        <time>2015-08-05T11:37:36Z</time>
      </trkpt>
      <trkpt lat="45.92876" lon="3.70848">
        <ele>1189</ele>
        <time>2015-08-05T11:37:40Z</time>
      </trkpt>
      <trkpt lat="45.92879" lon="3.70849">
        <ele>1186</ele>
        <time>2015-08-05T11:37:46Z</time>
      </trkpt>
      <trkpt lat="45.92883" lon="3.70846">
        <ele>1186</ele>
        <time>2015-08-05T11:37:52Z</time>
      </trkpt>
      <trkpt lat="45.92886" lon="3.70845">
        <ele>1180</ele>
        <time>2015-08-05T11:38:03Z</time>
      </trkpt>
      <trkpt lat="45.92884" lon="3.70846">
        <ele>1177</ele>
        <time>2015-08-05T11:38:07Z</time>
      </trkpt>
      <trkpt lat="45.92883" lon="3.70846">
        <ele>1177</ele>
        <time>2015-08-05T11:38:11Z</time>
      </trkpt>
      <trkpt lat="45.9288" lon="3.70842">
        <ele>1176</ele>
        <time>2015-08-05T11:38:21Z</time>
      </trkpt>
      <trkpt lat="45.9288" lon="3.70844">
        <ele>1174</ele>
        <time>2015-08-05T11:38:29Z</time>
      </trkpt>
      <trkpt lat="45.92882" lon="3.70844">
        <ele>1173</ele>
        <time>2015-08-05T11:38:32Z</time>
      </trkpt>
      <trkpt lat="45.92883" lon="3.7085">
        <ele>1173</ele>
        <time>2015-08-05T11:38:41Z</time>
      </trkpt>
      <trkpt lat="45.92884" lon="3.7085">
        <ele>1173</ele>
        <time>2015-08-05T11:38:44Z</time>
      </trkpt>
      <trkpt lat="45.92884" lon="3.70854">
        <ele>1173</ele>
        <time>2015-08-05T11:38:47Z</time>
      </trkpt>
      <trkpt lat="45.92883" lon="3.70858">
        <ele>1173</ele>
        <time>2015-08-05T11:38:51Z</time>
      </trkpt>
      <trkpt lat="45.92885" lon="3.70861">
        <ele>1174</ele>
        <time>2015-08-05T11:38:54Z</time>
      </trkpt>
      <trkpt lat="45.92889" lon="3.70864">
        <ele>1177</ele>
        <time>2015-08-05T11:38:57Z</time>
      </trkpt>
      <trkpt lat="45.92891" lon="3.70861">
        <ele>1178</ele>
        <time>2015-08-05T11:39:00Z</time>
      </trkpt>
      <trkpt lat="45.92893" lon="3.70858">
        <ele>1178</ele>
        <time>2015-08-05T11:39:04Z</time>
      </trkpt>
      <trkpt lat="45.92896" lon="3.70855">
        <ele>1177</ele>
        <time>2015-08-05T11:39:08Z</time>
      </trkpt>
      <trkpt lat="45.92899" lon="3.70854">
        <ele>1176</ele>
        <time>2015-08-05T11:39:10Z</time>
      </trkpt>
      <trkpt lat="45.92902" lon="3.70852">
        <ele>1176</ele>
        <time>2015-08-05T11:39:12Z</time>
      </trkpt>
      <trkpt lat="45.9291" lon="3.70853">
        <ele>1176</ele>
        <time>2015-08-05T11:39:16Z</time>
      </trkpt>
      <trkpt lat="45.92914" lon="3.70851">
        <ele>1176</ele>
        <time>2015-08-05T11:39:18Z</time>
      </trkpt>
      <trkpt lat="45.92919" lon="3.70848">
        <ele>1176</ele>
        <time>2015-08-05T11:39:25Z</time>
      </trkpt>
      <trkpt lat="45.92917" lon="3.70845">
        <ele>1176</ele>
        <time>2015-08-05T11:39:28Z</time>
      </trkpt>
      <trkpt lat="45.92909" lon="3.70842">
        <ele>1174</ele>
        <time>2015-08-05T11:39:35Z</time>
      </trkpt>
      <trkpt lat="45.92902" lon="3.70842">
        <ele>1173</ele>
        <time>2015-08-05T11:39:41Z</time>
      </trkpt>
      <trkpt lat="45.92901" lon="3.70843">
        <ele>1172</ele>
        <time>2015-08-05T11:39:43Z</time>
      </trkpt>
      <trkpt lat="45.92898" lon="3.70843">
        <ele>1172</ele>
        <time>2015-08-05T11:39:45Z</time>
      </trkpt>
      <trkpt lat="45.92894" lon="3.70844">
        <ele>1172</ele>
        <time>2015-08-05T11:39:48Z</time>
      </trkpt>
      <trkpt lat="45.92891" lon="3.70845">
        <ele>1172</ele>
        <time>2015-08-05T11:39:50Z</time>
      </trkpt>
      <trkpt lat="45.92888" lon="3.70848">
        <ele>1172</ele>
        <time>2015-08-05T11:39:53Z</time>
      </trkpt>
      <trkpt lat="45.92887" lon="3.70851">
        <ele>1172</ele>
        <time>2015-08-05T11:39:55Z</time>
      </trkpt>
      <trkpt lat="45.92883" lon="3.70854">
        <ele>1172</ele>
        <time>2015-08-05T11:39:57Z</time>
      </trkpt>
      <trkpt lat="45.92878" lon="3.70857">
        <ele>1174</ele>
        <time>2015-08-05T11:40:02Z</time>
      </trkpt>
      <trkpt lat="45.92874" lon="3.70857">
        <ele>1174</ele>
        <time>2015-08-05T11:40:05Z</time>
      </trkpt>
      <trkpt lat="45.92872" lon="3.70858">
        <ele>1174</ele>
        <time>2015-08-05T11:40:07Z</time>
      </trkpt>
      <trkpt lat="45.9287" lon="3.70857">
        <ele>1174</ele>
        <time>2015-08-05T11:40:09Z</time>
      </trkpt>
      <trkpt lat="45.92868" lon="3.70859">
        <ele>1174</ele>
        <time>2015-08-05T11:40:11Z</time>
      </trkpt>
      <trkpt lat="45.92866" lon="3.70859">
        <ele>1174</ele>
        <time>2015-08-05T11:40:13Z</time>
      </trkpt>
      <trkpt lat="45.92862" lon="3.70859">
        <ele>1174</ele>
        <time>2015-08-05T11:40:16Z</time>
      </trkpt>
      <trkpt lat="45.92859" lon="3.70859">
        <ele>1174</ele>
        <time>2015-08-05T11:40:18Z</time>
      </trkpt>
      <trkpt lat="45.92855" lon="3.70863">
        <ele>1174</ele>
        <time>2015-08-05T11:40:21Z</time>
      </trkpt>
      <trkpt lat="45.92851" lon="3.70863">
        <ele>1175</ele>
        <time>2015-08-05T11:40:23Z</time>
      </trkpt>
      <trkpt lat="45.92849" lon="3.70864">
        <ele>1175</ele>
        <time>2015-08-05T11:40:25Z</time>
      </trkpt>
      <trkpt lat="45.92848" lon="3.70867">
        <ele>1176</ele>
        <time>2015-08-05T11:40:27Z</time>
      </trkpt>
      <trkpt lat="45.92841" lon="3.70869">
        <ele>1178</ele>
        <time>2015-08-05T11:40:34Z</time>
      </trkpt>
      <trkpt lat="45.92839" lon="3.70871">
        <ele>1178</ele>
        <time>2015-08-05T11:40:36Z</time>
      </trkpt>
      <trkpt lat="45.92829" lon="3.70875">
        <ele>1180</ele>
        <time>2015-08-05T11:40:45Z</time>
      </trkpt>
      <trkpt lat="45.92825" lon="3.70873">
        <ele>1180</ele>
        <time>2015-08-05T11:40:49Z</time>
      </trkpt>
      <trkpt lat="45.92821" lon="3.70875">
        <ele>1180</ele>
        <time>2015-08-05T11:40:53Z</time>
      </trkpt>
      <trkpt lat="45.92818" lon="3.70877">
        <ele>1179</ele>
        <time>2015-08-05T11:40:55Z</time>
      </trkpt>
      <trkpt lat="45.92813" lon="3.70879">
        <ele>1179</ele>
        <time>2015-08-05T11:41:00Z</time>
      </trkpt>
      <trkpt lat="45.9281" lon="3.7088">
        <ele>1179</ele>
        <time>2015-08-05T11:41:03Z</time>
      </trkpt>
      <trkpt lat="45.92807" lon="3.70879">
        <ele>1179</ele>
        <time>2015-08-05T11:41:06Z</time>
      </trkpt>
      <trkpt lat="45.92804" lon="3.70883">
        <ele>1179</ele>
        <time>2015-08-05T11:41:09Z</time>
      </trkpt>
      <trkpt lat="45.92801" lon="3.70884">
        <ele>1179</ele>
        <time>2015-08-05T11:41:12Z</time>
      </trkpt>
      <trkpt lat="45.92795" lon="3.70884">
        <ele>1179</ele>
        <time>2015-08-05T11:41:17Z</time>
      </trkpt>
      <trkpt lat="45.92788" lon="3.70886">
        <ele>1179</ele>
        <time>2015-08-05T11:41:24Z</time>
      </trkpt>
      <trkpt lat="45.92783" lon="3.70892">
        <ele>1179</ele>
        <time>2015-08-05T11:41:27Z</time>
      </trkpt>
      <trkpt lat="45.92778" lon="3.70893">
        <ele>1179</ele>
        <time>2015-08-05T11:41:29Z</time>
      </trkpt>
      <trkpt lat="45.92773" lon="3.7089">
        <ele>1179</ele>
        <time>2015-08-05T11:41:33Z</time>
      </trkpt>
      <trkpt lat="45.9277" lon="3.70891">
        <ele>1179</ele>
        <time>2015-08-05T11:41:35Z</time>
      </trkpt>
      <trkpt lat="45.92767" lon="3.70892">
        <ele>1179</ele>
        <time>2015-08-05T11:41:37Z</time>
      </trkpt>
      <trkpt lat="45.9276" lon="3.70894">
        <ele>1179</ele>
        <time>2015-08-05T11:41:43Z</time>
      </trkpt>
      <trkpt lat="45.92753" lon="3.70894">
        <ele>1179</ele>
        <time>2015-08-05T11:41:48Z</time>
      </trkpt>
      <trkpt lat="45.92752" lon="3.70896">
        <ele>1179</ele>
        <time>2015-08-05T11:41:50Z</time>
      </trkpt>
      <trkpt lat="45.92749" lon="3.70898">
        <ele>1179</ele>
        <time>2015-08-05T11:41:53Z</time>
      </trkpt>
      <trkpt lat="45.92747" lon="3.70897">
        <ele>1178</ele>
        <time>2015-08-05T11:41:56Z</time>
      </trkpt>
      <trkpt lat="45.92741" lon="3.70899">
        <ele>1174</ele>
        <time>2015-08-05T11:42:00Z</time>
      </trkpt>
      <trkpt lat="45.92735" lon="3.709">
        <ele>1171</ele>
        <time>2015-08-05T11:42:03Z</time>
      </trkpt>
      <trkpt lat="45.92731" lon="3.709">
        <ele>1171</ele>
        <time>2015-08-05T11:42:06Z</time>
      </trkpt>
      <trkpt lat="45.92729" lon="3.70898">
        <ele>1171</ele>
        <time>2015-08-05T11:42:08Z</time>
      </trkpt>
      <trkpt lat="45.92725" lon="3.70897">
        <ele>1170</ele>
        <time>2015-08-05T11:42:11Z</time>
      </trkpt>
      <trkpt lat="45.92722" lon="3.70898">
        <ele>1170</ele>
        <time>2015-08-05T11:42:14Z</time>
      </trkpt>
      <trkpt lat="45.92713" lon="3.70904">
        <ele>1170</ele>
        <time>2015-08-05T11:42:21Z</time>
      </trkpt>
      <trkpt lat="45.9271" lon="3.70908">
        <ele>1170</ele>
        <time>2015-08-05T11:42:25Z</time>
      </trkpt>
      <trkpt lat="45.92708" lon="3.70917">
        <ele>1172</ele>
        <time>2015-08-05T11:42:31Z</time>
      </trkpt>
      <trkpt lat="45.92708" lon="3.70921">
        <ele>1175</ele>
        <time>2015-08-05T11:42:34Z</time>
      </trkpt>
      <trkpt lat="45.92707" lon="3.70921">
        <ele>1176</ele>
        <time>2015-08-05T11:42:36Z</time>
      </trkpt>
      <trkpt lat="45.92704" lon="3.70921">
        <ele>1176</ele>
        <time>2015-08-05T11:42:40Z</time>
      </trkpt>
      <trkpt lat="45.92701" lon="3.70921">
        <ele>1176</ele>
        <time>2015-08-05T11:42:42Z</time>
      </trkpt>
      <trkpt lat="45.92692" lon="3.7092">
        <ele>1176</ele>
        <time>2015-08-05T11:42:48Z</time>
      </trkpt>
      <trkpt lat="45.9269" lon="3.70922">
        <ele>1176</ele>
        <time>2015-08-05T11:42:50Z</time>
      </trkpt>
      <trkpt lat="45.92686" lon="3.70926">
        <ele>1176</ele>
        <time>2015-08-05T11:42:54Z</time>
      </trkpt>
      <trkpt lat="45.92684" lon="3.70929">
        <ele>1176</ele>
        <time>2015-08-05T11:42:56Z</time>
      </trkpt>
      <trkpt lat="45.9268" lon="3.70933">
        <ele>1175</ele>
        <time>2015-08-05T11:43:00Z</time>
      </trkpt>
      <trkpt lat="45.92676" lon="3.70944">
        <ele>1172</ele>
        <time>2015-08-05T11:43:08Z</time>
      </trkpt>
      <trkpt lat="45.9267" lon="3.70958">
        <ele>1171</ele>
        <time>2015-08-05T11:43:17Z</time>
      </trkpt>
      <trkpt lat="45.92666" lon="3.70972">
        <ele>1166</ele>
        <time>2015-08-05T11:43:27Z</time>
      </trkpt>
      <trkpt lat="45.92664" lon="3.70975">
        <ele>1166</ele>
        <time>2015-08-05T11:43:29Z</time>
      </trkpt>
      <trkpt lat="45.92659" lon="3.70984">
        <ele>1166</ele>
        <time>2015-08-05T11:43:34Z</time>
      </trkpt>
      <trkpt lat="45.92658" lon="3.70985">
        <ele>1166</ele>
        <time>2015-08-05T11:43:36Z</time>
      </trkpt>
      <trkpt lat="45.9265" lon="3.71002">
        <ele>1167</ele>
        <time>2015-08-05T11:43:45Z</time>
      </trkpt>
      <trkpt lat="45.92648" lon="3.71006">
        <ele>1167</ele>
        <time>2015-08-05T11:43:49Z</time>
      </trkpt>
      <trkpt lat="45.92645" lon="3.71013">
        <ele>1167</ele>
        <time>2015-08-05T11:43:54Z</time>
      </trkpt>
      <trkpt lat="45.92644" lon="3.71016">
        <ele>1167</ele>
        <time>2015-08-05T11:43:56Z</time>
      </trkpt>
      <trkpt lat="45.92637" lon="3.7103">
        <ele>1168</ele>
        <time>2015-08-05T11:44:04Z</time>
      </trkpt>
      <trkpt lat="45.92635" lon="3.71033">
        <ele>1169</ele>
        <time>2015-08-05T11:44:06Z</time>
      </trkpt>
      <trkpt lat="45.92628" lon="3.71046">
        <ele>1170</ele>
        <time>2015-08-05T11:44:15Z</time>
      </trkpt>
      <trkpt lat="45.92622" lon="3.71055">
        <ele>1170</ele>
        <time>2015-08-05T11:44:21Z</time>
      </trkpt>
      <trkpt lat="45.92621" lon="3.71059">
        <ele>1171</ele>
        <time>2015-08-05T11:44:23Z</time>
      </trkpt>
      <trkpt lat="45.92619" lon="3.71061">
        <ele>1171</ele>
        <time>2015-08-05T11:44:25Z</time>
      </trkpt>
      <trkpt lat="45.92617" lon="3.71062">
        <ele>1171</ele>
        <time>2015-08-05T11:44:27Z</time>
      </trkpt>
      <trkpt lat="45.92613" lon="3.71066">
        <ele>1171</ele>
        <time>2015-08-05T11:44:31Z</time>
      </trkpt>
      <trkpt lat="45.92612" lon="3.71068">
        <ele>1171</ele>
        <time>2015-08-05T11:44:33Z</time>
      </trkpt>
      <trkpt lat="45.92607" lon="3.71075">
        <ele>1171</ele>
        <time>2015-08-05T11:44:39Z</time>
      </trkpt>
      <trkpt lat="45.92606" lon="3.71079">
        <ele>1171</ele>
        <time>2015-08-05T11:44:42Z</time>
      </trkpt>
      <trkpt lat="45.92605" lon="3.71081">
        <ele>1171</ele>
        <time>2015-08-05T11:44:44Z</time>
      </trkpt>
      <trkpt lat="45.92604" lon="3.71083">
        <ele>1171</ele>
        <time>2015-08-05T11:44:46Z</time>
      </trkpt>
      <trkpt lat="45.92601" lon="3.71088">
        <ele>1171</ele>
        <time>2015-08-05T11:44:50Z</time>
      </trkpt>
      <trkpt lat="45.92599" lon="3.71091">
        <ele>1171</ele>
        <time>2015-08-05T11:44:52Z</time>
      </trkpt>
      <trkpt lat="45.92599" lon="3.71096">
        <ele>1171</ele>
        <time>2015-08-05T11:44:55Z</time>
      </trkpt>
      <trkpt lat="45.92598" lon="3.71098">
        <ele>1171</ele>
        <time>2015-08-05T11:44:57Z</time>
      </trkpt>
      <trkpt lat="45.92593" lon="3.71105">
        <ele>1171</ele>
        <time>2015-08-05T11:45:03Z</time>
      </trkpt>
      <trkpt lat="45.9259" lon="3.71108">
        <ele>1171</ele>
        <time>2015-08-05T11:45:07Z</time>
      </trkpt>
      <trkpt lat="45.92587" lon="3.71111">
        <ele>1171</ele>
        <time>2015-08-05T11:45:10Z</time>
      </trkpt>
      <trkpt lat="45.92583" lon="3.71118">
        <ele>1171</ele>
        <time>2015-08-05T11:45:15Z</time>
      </trkpt>
      <trkpt lat="45.92581" lon="3.71119">
        <ele>1172</ele>
        <time>2015-08-05T11:45:17Z</time>
      </trkpt>
      <trkpt lat="45.92576" lon="3.71123">
        <ele>1177</ele>
        <time>2015-08-05T11:45:22Z</time>
      </trkpt>
      <trkpt lat="45.92574" lon="3.71126">
        <ele>1178</ele>
        <time>2015-08-05T11:45:24Z</time>
      </trkpt>
      <trkpt lat="45.92574" lon="3.71129">
        <ele>1179</ele>
        <time>2015-08-05T11:45:26Z</time>
      </trkpt>
      <trkpt lat="45.92573" lon="3.71131">
        <ele>1179</ele>
        <time>2015-08-05T11:45:28Z</time>
      </trkpt>
      <trkpt lat="45.92571" lon="3.71135">
        <ele>1180</ele>
        <time>2015-08-05T11:45:32Z</time>
      </trkpt>
      <trkpt lat="45.92567" lon="3.71145">
        <ele>1180</ele>
        <time>2015-08-05T11:45:38Z</time>
      </trkpt>
      <trkpt lat="45.92563" lon="3.71153">
        <ele>1180</ele>
        <time>2015-08-05T11:45:42Z</time>
      </trkpt>
      <trkpt lat="45.92563" lon="3.71158">
        <ele>1180</ele>
        <time>2015-08-05T11:45:44Z</time>
      </trkpt>
      <trkpt lat="45.92561" lon="3.71162">
        <ele>1180</ele>
        <time>2015-08-05T11:45:47Z</time>
      </trkpt>
      <trkpt lat="45.92559" lon="3.71172">
        <ele>1180</ele>
        <time>2015-08-05T11:45:53Z</time>
      </trkpt>
      <trkpt lat="45.92559" lon="3.71176">
        <ele>1180</ele>
        <time>2015-08-05T11:45:55Z</time>
      </trkpt>
      <trkpt lat="45.9256" lon="3.7118">
        <ele>1180</ele>
        <time>2015-08-05T11:45:58Z</time>
      </trkpt>
      <trkpt lat="45.92557" lon="3.71185">
        <ele>1180</ele>
        <time>2015-08-05T11:46:01Z</time>
      </trkpt>
      <trkpt lat="45.92556" lon="3.71189">
        <ele>1180</ele>
        <time>2015-08-05T11:46:03Z</time>
      </trkpt>
      <trkpt lat="45.92555" lon="3.71194">
        <ele>1180</ele>
        <time>2015-08-05T11:46:05Z</time>
      </trkpt>
      <trkpt lat="45.92551" lon="3.71202">
        <ele>1180</ele>
        <time>2015-08-05T11:46:10Z</time>
      </trkpt>
      <trkpt lat="45.92551" lon="3.71207">
        <ele>1180</ele>
        <time>2015-08-05T11:46:12Z</time>
      </trkpt>
      <trkpt lat="45.92553" lon="3.7121">
        <ele>1180</ele>
        <time>2015-08-05T11:46:14Z</time>
      </trkpt>
      <trkpt lat="45.92547" lon="3.71228">
        <ele>1180</ele>
        <time>2015-08-05T11:46:22Z</time>
      </trkpt>
      <trkpt lat="45.92548" lon="3.71232">
        <ele>1180</ele>
        <time>2015-08-05T11:46:24Z</time>
      </trkpt>
      <trkpt lat="45.92545" lon="3.71241">
        <ele>1180</ele>
        <time>2015-08-05T11:46:30Z</time>
      </trkpt>
      <trkpt lat="45.92545" lon="3.71243">
        <ele>1180</ele>
        <time>2015-08-05T11:46:32Z</time>
      </trkpt>
      <trkpt lat="45.92546" lon="3.71244">
        <ele>1180</ele>
        <time>2015-08-05T11:46:34Z</time>
      </trkpt>
      <trkpt lat="45.92546" lon="3.71246">
        <ele>1180</ele>
        <time>2015-08-05T11:46:36Z</time>
      </trkpt>
      <trkpt lat="45.92545" lon="3.71248">
        <ele>1180</ele>
        <time>2015-08-05T11:46:38Z</time>
      </trkpt>
      <trkpt lat="45.9254" lon="3.71261">
        <ele>1180</ele>
        <time>2015-08-05T11:46:45Z</time>
      </trkpt>
      <trkpt lat="45.9254" lon="3.71266">
        <ele>1180</ele>
        <time>2015-08-05T11:46:47Z</time>
      </trkpt>
      <trkpt lat="45.9254" lon="3.7127">
        <ele>1180</ele>
        <time>2015-08-05T11:46:50Z</time>
      </trkpt>
      <trkpt lat="45.9254" lon="3.71274">
        <ele>1180</ele>
        <time>2015-08-05T11:46:52Z</time>
      </trkpt>
      <trkpt lat="45.92539" lon="3.71278">
        <ele>1180</ele>
        <time>2015-08-05T11:46:54Z</time>
      </trkpt>
      <trkpt lat="45.92538" lon="3.71282">
        <ele>1179</ele>
        <time>2015-08-05T11:46:56Z</time>
      </trkpt>
      <trkpt lat="45.92538" lon="3.71286">
        <ele>1178</ele>
        <time>2015-08-05T11:46:59Z</time>
      </trkpt>
      <trkpt lat="45.92537" lon="3.71289">
        <ele>1178</ele>
        <time>2015-08-05T11:47:01Z</time>
      </trkpt>
      <trkpt lat="45.92536" lon="3.71293">
        <ele>1178</ele>
        <time>2015-08-05T11:47:03Z</time>
      </trkpt>
      <trkpt lat="45.92534" lon="3.71296">
        <ele>1178</ele>
        <time>2015-08-05T11:47:05Z</time>
      </trkpt>
      <trkpt lat="45.92532" lon="3.713">
        <ele>1178</ele>
        <time>2015-08-05T11:47:07Z</time>
      </trkpt>
      <trkpt lat="45.92531" lon="3.71304">
        <ele>1178</ele>
        <time>2015-08-05T11:47:09Z</time>
      </trkpt>
      <trkpt lat="45.92531" lon="3.71312">
        <ele>1176</ele>
        <time>2015-08-05T11:47:14Z</time>
      </trkpt>
      <trkpt lat="45.92528" lon="3.71319">
        <ele>1175</ele>
        <time>2015-08-05T11:47:17Z</time>
      </trkpt>
      <trkpt lat="45.92528" lon="3.71324">
        <ele>1175</ele>
        <time>2015-08-05T11:47:20Z</time>
      </trkpt>
      <trkpt lat="45.92529" lon="3.71326">
        <ele>1174</ele>
        <time>2015-08-05T11:47:22Z</time>
      </trkpt>
      <trkpt lat="45.92528" lon="3.7133">
        <ele>1171</ele>
        <time>2015-08-05T11:47:26Z</time>
      </trkpt>
      <trkpt lat="45.92526" lon="3.71336">
        <ele>1171</ele>
        <time>2015-08-05T11:47:29Z</time>
      </trkpt>
      <trkpt lat="45.92524" lon="3.71343">
        <ele>1171</ele>
        <time>2015-08-05T11:47:33Z</time>
      </trkpt>
      <trkpt lat="45.92524" lon="3.71348">
        <ele>1171</ele>
        <time>2015-08-05T11:47:35Z</time>
      </trkpt>
      <trkpt lat="45.92524" lon="3.71352">
        <ele>1171</ele>
        <time>2015-08-05T11:47:37Z</time>
      </trkpt>
      <trkpt lat="45.92522" lon="3.71355">
        <ele>1171</ele>
        <time>2015-08-05T11:47:39Z</time>
      </trkpt>
      <trkpt lat="45.92523" lon="3.71359">
        <ele>1171</ele>
        <time>2015-08-05T11:47:41Z</time>
      </trkpt>
      <trkpt lat="45.92523" lon="3.71363">
        <ele>1171</ele>
        <time>2015-08-05T11:47:43Z</time>
      </trkpt>
      <trkpt lat="45.92522" lon="3.71368">
        <ele>1172</ele>
        <time>2015-08-05T11:47:45Z</time>
      </trkpt>
      <trkpt lat="45.92522" lon="3.71371">
        <ele>1172</ele>
        <time>2015-08-05T11:47:47Z</time>
      </trkpt>
      <trkpt lat="45.92516" lon="3.71385">
        <ele>1172</ele>
        <time>2015-08-05T11:47:56Z</time>
      </trkpt>
      <trkpt lat="45.92515" lon="3.71387">
        <ele>1172</ele>
        <time>2015-08-05T11:47:58Z</time>
      </trkpt>
      <trkpt lat="45.92513" lon="3.71394">
        <ele>1172</ele>
        <time>2015-08-05T11:48:02Z</time>
      </trkpt>
      <trkpt lat="45.92513" lon="3.71396">
        <ele>1172</ele>
        <time>2015-08-05T11:48:04Z</time>
      </trkpt>
      <trkpt lat="45.92512" lon="3.71399">
        <ele>1172</ele>
        <time>2015-08-05T11:48:06Z</time>
      </trkpt>
      <trkpt lat="45.9251" lon="3.7141">
        <ele>1167</ele>
        <time>2015-08-05T11:48:14Z</time>
      </trkpt>
      <trkpt lat="45.9251" lon="3.71412">
        <ele>1165</ele>
        <time>2015-08-05T11:48:16Z</time>
      </trkpt>
      <trkpt lat="45.92508" lon="3.71417">
        <ele>1163</ele>
        <time>2015-08-05T11:48:18Z</time>
      </trkpt>
      <trkpt lat="45.92504" lon="3.71426">
        <ele>1163</ele>
        <time>2015-08-05T11:48:22Z</time>
      </trkpt>
      <trkpt lat="45.92503" lon="3.71429">
        <ele>1163</ele>
        <time>2015-08-05T11:48:24Z</time>
      </trkpt>
      <trkpt lat="45.925" lon="3.71432">
        <ele>1163</ele>
        <time>2015-08-05T11:48:28Z</time>
      </trkpt>
      <trkpt lat="45.92494" lon="3.71442">
        <ele>1163</ele>
        <time>2015-08-05T11:48:37Z</time>
      </trkpt>
      <trkpt lat="45.92493" lon="3.71445">
        <ele>1163</ele>
        <time>2015-08-05T11:48:39Z</time>
      </trkpt>
      <trkpt lat="45.9249" lon="3.71449">
        <ele>1163</ele>
        <time>2015-08-05T11:48:42Z</time>
      </trkpt>
      <trkpt lat="45.92488" lon="3.71452">
        <ele>1163</ele>
        <time>2015-08-05T11:48:44Z</time>
      </trkpt>
      <trkpt lat="45.92485" lon="3.71457">
        <ele>1163</ele>
        <time>2015-08-05T11:48:48Z</time>
      </trkpt>
      <trkpt lat="45.92483" lon="3.71462">
        <ele>1163</ele>
        <time>2015-08-05T11:48:51Z</time>
      </trkpt>
      <trkpt lat="45.92481" lon="3.71464">
        <ele>1163</ele>
        <time>2015-08-05T11:48:53Z</time>
      </trkpt>
      <trkpt lat="45.92477" lon="3.71475">
        <ele>1163</ele>
        <time>2015-08-05T11:49:00Z</time>
      </trkpt>
      <trkpt lat="45.92475" lon="3.71478">
        <ele>1163</ele>
        <time>2015-08-05T11:49:03Z</time>
      </trkpt>
      <trkpt lat="45.92471" lon="3.71486">
        <ele>1163</ele>
        <time>2015-08-05T11:49:10Z</time>
      </trkpt>
      <trkpt lat="45.92467" lon="3.71492">
        <ele>1163</ele>
        <time>2015-08-05T11:49:14Z</time>
      </trkpt>
      <trkpt lat="45.92464" lon="3.71494">
        <ele>1163</ele>
        <time>2015-08-05T11:49:17Z</time>
      </trkpt>
      <trkpt lat="45.92459" lon="3.71503">
        <ele>1162</ele>
        <time>2015-08-05T11:49:23Z</time>
      </trkpt>
      <trkpt lat="45.92455" lon="3.7151">
        <ele>1162</ele>
        <time>2015-08-05T11:49:29Z</time>
      </trkpt>
      <trkpt lat="45.92452" lon="3.71517">
        <ele>1162</ele>
        <time>2015-08-05T11:49:34Z</time>
      </trkpt>
      <trkpt lat="45.9245" lon="3.7152">
        <ele>1161</ele>
        <time>2015-08-05T11:49:36Z</time>
      </trkpt>
      <trkpt lat="45.92448" lon="3.71523">
        <ele>1160</ele>
        <time>2015-08-05T11:49:38Z</time>
      </trkpt>
      <trkpt lat="45.92447" lon="3.71525">
        <ele>1159</ele>
        <time>2015-08-05T11:49:40Z</time>
      </trkpt>
      <trkpt lat="45.92446" lon="3.71528">
        <ele>1158</ele>
        <time>2015-08-05T11:49:42Z</time>
      </trkpt>
      <trkpt lat="45.92442" lon="3.71536">
        <ele>1157</ele>
        <time>2015-08-05T11:49:47Z</time>
      </trkpt>
      <trkpt lat="45.92441" lon="3.71538">
        <ele>1157</ele>
        <time>2015-08-05T11:49:49Z</time>
      </trkpt>
      <trkpt lat="45.92439" lon="3.71543">
        <ele>1156</ele>
        <time>2015-08-05T11:49:51Z</time>
      </trkpt>
      <trkpt lat="45.92437" lon="3.71545">
        <ele>1156</ele>
        <time>2015-08-05T11:49:53Z</time>
      </trkpt>
      <trkpt lat="45.92436" lon="3.71548">
        <ele>1156</ele>
        <time>2015-08-05T11:49:55Z</time>
      </trkpt>
      <trkpt lat="45.92435" lon="3.71553">
        <ele>1156</ele>
        <time>2015-08-05T11:49:57Z</time>
      </trkpt>
      <trkpt lat="45.92423" lon="3.7157">
        <ele>1156</ele>
        <time>2015-08-05T11:50:05Z</time>
      </trkpt>
      <trkpt lat="45.92422" lon="3.71573">
        <ele>1156</ele>
        <time>2015-08-05T11:50:07Z</time>
      </trkpt>
      <trkpt lat="45.92422" lon="3.71578">
        <ele>1157</ele>
        <time>2015-08-05T11:50:09Z</time>
      </trkpt>
      <trkpt lat="45.92423" lon="3.71584">
        <ele>1157</ele>
        <time>2015-08-05T11:50:12Z</time>
      </trkpt>
      <trkpt lat="45.92424" lon="3.71585">
        <ele>1157</ele>
        <time>2015-08-05T11:50:14Z</time>
      </trkpt>
      <trkpt lat="45.92424" lon="3.7159">
        <ele>1155</ele>
        <time>2015-08-05T11:50:17Z</time>
      </trkpt>
      <trkpt lat="45.92423" lon="3.71593">
        <ele>1153</ele>
        <time>2015-08-05T11:50:19Z</time>
      </trkpt>
      <trkpt lat="45.9242" lon="3.716">
        <ele>1152</ele>
        <time>2015-08-05T11:50:22Z</time>
      </trkpt>
      <trkpt lat="45.92418" lon="3.71608">
        <ele>1152</ele>
        <time>2015-08-05T11:50:28Z</time>
      </trkpt>
      <trkpt lat="45.92417" lon="3.71612">
        <ele>1152</ele>
        <time>2015-08-05T11:50:30Z</time>
      </trkpt>
      <trkpt lat="45.92418" lon="3.71617">
        <ele>1152</ele>
        <time>2015-08-05T11:50:34Z</time>
      </trkpt>
      <trkpt lat="45.92417" lon="3.7162">
        <ele>1152</ele>
        <time>2015-08-05T11:50:36Z</time>
      </trkpt>
      <trkpt lat="45.92417" lon="3.71628">
        <ele>1149</ele>
        <time>2015-08-05T11:50:43Z</time>
      </trkpt>
      <trkpt lat="45.92414" lon="3.71634">
        <ele>1149</ele>
        <time>2015-08-05T11:50:46Z</time>
      </trkpt>
      <trkpt lat="45.92411" lon="3.71643">
        <ele>1149</ele>
        <time>2015-08-05T11:50:49Z</time>
      </trkpt>
      <trkpt lat="45.9241" lon="3.71649">
        <ele>1149</ele>
        <time>2015-08-05T11:50:51Z</time>
      </trkpt>
      <trkpt lat="45.92411" lon="3.71651">
        <ele>1149</ele>
        <time>2015-08-05T11:50:54Z</time>
      </trkpt>
      <trkpt lat="45.9241" lon="3.71655">
        <ele>1148</ele>
        <time>2015-08-05T11:50:56Z</time>
      </trkpt>
      <trkpt lat="45.92411" lon="3.71659">
        <ele>1146</ele>
        <time>2015-08-05T11:50:58Z</time>
      </trkpt>
      <trkpt lat="45.92412" lon="3.71662">
        <ele>1145</ele>
        <time>2015-08-05T11:51:00Z</time>
      </trkpt>
      <trkpt lat="45.92412" lon="3.71666">
        <ele>1144</ele>
        <time>2015-08-05T11:51:02Z</time>
      </trkpt>
      <trkpt lat="45.92412" lon="3.71674">
        <ele>1141</ele>
        <time>2015-08-05T11:51:08Z</time>
      </trkpt>
      <trkpt lat="45.92411" lon="3.7168">
        <ele>1141</ele>
        <time>2015-08-05T11:51:10Z</time>
      </trkpt>
      <trkpt lat="45.92412" lon="3.71683">
        <ele>1141</ele>
        <time>2015-08-05T11:51:12Z</time>
      </trkpt>
      <trkpt lat="45.92412" lon="3.71686">
        <ele>1141</ele>
        <time>2015-08-05T11:51:14Z</time>
      </trkpt>
      <trkpt lat="45.92412" lon="3.71702">
        <ele>1141</ele>
        <time>2015-08-05T11:51:24Z</time>
      </trkpt>
      <trkpt lat="45.92413" lon="3.71711">
        <ele>1141</ele>
        <time>2015-08-05T11:51:31Z</time>
      </trkpt>
      <trkpt lat="45.92413" lon="3.71714">
        <ele>1141</ele>
        <time>2015-08-05T11:51:33Z</time>
      </trkpt>
      <trkpt lat="45.92413" lon="3.71717">
        <ele>1141</ele>
        <time>2015-08-05T11:51:35Z</time>
      </trkpt>
      <trkpt lat="45.92413" lon="3.71722">
        <ele>1141</ele>
        <time>2015-08-05T11:51:37Z</time>
      </trkpt>
      <trkpt lat="45.9241" lon="3.71733">
        <ele>1141</ele>
        <time>2015-08-05T11:51:42Z</time>
      </trkpt>
      <trkpt lat="45.9241" lon="3.71737">
        <ele>1141</ele>
        <time>2015-08-05T11:51:44Z</time>
      </trkpt>
      <trkpt lat="45.9241" lon="3.7174">
        <ele>1141</ele>
        <time>2015-08-05T11:51:46Z</time>
      </trkpt>
      <trkpt lat="45.92411" lon="3.71745">
        <ele>1141</ele>
        <time>2015-08-05T11:51:48Z</time>
      </trkpt>
      <trkpt lat="45.92413" lon="3.71749">
        <ele>1141</ele>
        <time>2015-08-05T11:51:50Z</time>
      </trkpt>
      <trkpt lat="45.92413" lon="3.71755">
        <ele>1145</ele>
        <time>2015-08-05T11:51:54Z</time>
      </trkpt>
      <trkpt lat="45.92411" lon="3.71764">
        <ele>1149</ele>
        <time>2015-08-05T11:52:00Z</time>
      </trkpt>
      <trkpt lat="45.92413" lon="3.71769">
        <ele>1149</ele>
        <time>2015-08-05T11:52:02Z</time>
      </trkpt>
      <trkpt lat="45.92415" lon="3.71776">
        <ele>1147</ele>
        <time>2015-08-05T11:52:07Z</time>
      </trkpt>
      <trkpt lat="45.92414" lon="3.71778">
        <ele>1145</ele>
        <time>2015-08-05T11:52:09Z</time>
      </trkpt>
      <trkpt lat="45.92414" lon="3.71782">
        <ele>1143</ele>
        <time>2015-08-05T11:52:11Z</time>
      </trkpt>
      <trkpt lat="45.92414" lon="3.71787">
        <ele>1140</ele>
        <time>2015-08-05T11:52:14Z</time>
      </trkpt>
      <trkpt lat="45.92412" lon="3.71791">
        <ele>1138</ele>
        <time>2015-08-05T11:52:16Z</time>
      </trkpt>
      <trkpt lat="45.9241" lon="3.71796">
        <ele>1138</ele>
        <time>2015-08-05T11:52:19Z</time>
      </trkpt>
      <trkpt lat="45.9241" lon="3.71801">
        <ele>1136</ele>
        <time>2015-08-05T11:52:25Z</time>
      </trkpt>
      <trkpt lat="45.92409" lon="3.71803">
        <ele>1133</ele>
        <time>2015-08-05T11:52:28Z</time>
      </trkpt>
      <trkpt lat="45.92409" lon="3.71806">
        <ele>1133</ele>
        <time>2015-08-05T11:52:30Z</time>
      </trkpt>
      <trkpt lat="45.92408" lon="3.71816">
        <ele>1133</ele>
        <time>2015-08-05T11:52:36Z</time>
      </trkpt>
      <trkpt lat="45.92402" lon="3.71828">
        <ele>1133</ele>
        <time>2015-08-05T11:52:41Z</time>
      </trkpt>
      <trkpt lat="45.92401" lon="3.71832">
        <ele>1133</ele>
        <time>2015-08-05T11:52:43Z</time>
      </trkpt>
      <trkpt lat="45.924" lon="3.71837">
        <ele>1133</ele>
        <time>2015-08-05T11:52:45Z</time>
      </trkpt>
      <trkpt lat="45.924" lon="3.71841">
        <ele>1133</ele>
        <time>2015-08-05T11:52:48Z</time>
      </trkpt>
      <trkpt lat="45.92398" lon="3.71846">
        <ele>1133</ele>
        <time>2015-08-05T11:52:50Z</time>
      </trkpt>
      <trkpt lat="45.92398" lon="3.7185">
        <ele>1133</ele>
        <time>2015-08-05T11:52:52Z</time>
      </trkpt>
      <trkpt lat="45.92397" lon="3.71855">
        <ele>1133</ele>
        <time>2015-08-05T11:52:55Z</time>
      </trkpt>
      <trkpt lat="45.92395" lon="3.71862">
        <ele>1133</ele>
        <time>2015-08-05T11:52:59Z</time>
      </trkpt>
      <trkpt lat="45.92392" lon="3.71873">
        <ele>1133</ele>
        <time>2015-08-05T11:53:03Z</time>
      </trkpt>
      <trkpt lat="45.92391" lon="3.71876">
        <ele>1133</ele>
        <time>2015-08-05T11:53:06Z</time>
      </trkpt>
      <trkpt lat="45.92391" lon="3.71879">
        <ele>1133</ele>
        <time>2015-08-05T11:53:09Z</time>
      </trkpt>
      <trkpt lat="45.92389" lon="3.71884">
        <ele>1133</ele>
        <time>2015-08-05T11:53:13Z</time>
      </trkpt>
      <trkpt lat="45.92388" lon="3.71886">
        <ele>1133</ele>
        <time>2015-08-05T11:53:15Z</time>
      </trkpt>
      <trkpt lat="45.92386" lon="3.71893">
        <ele>1132</ele>
        <time>2015-08-05T11:53:20Z</time>
      </trkpt>
      <trkpt lat="45.92384" lon="3.71894">
        <ele>1132</ele>
        <time>2015-08-05T11:53:22Z</time>
      </trkpt>
      <trkpt lat="45.92381" lon="3.71895">
        <ele>1131</ele>
        <time>2015-08-05T11:53:24Z</time>
      </trkpt>
      <trkpt lat="45.9238" lon="3.71896">
        <ele>1129</ele>
        <time>2015-08-05T11:53:26Z</time>
      </trkpt>
      <trkpt lat="45.92379" lon="3.71899">
        <ele>1128</ele>
        <time>2015-08-05T11:53:28Z</time>
      </trkpt>
      <trkpt lat="45.92377" lon="3.71906">
        <ele>1127</ele>
        <time>2015-08-05T11:53:32Z</time>
      </trkpt>
      <trkpt lat="45.92376" lon="3.7191">
        <ele>1126</ele>
        <time>2015-08-05T11:53:34Z</time>
      </trkpt>
      <trkpt lat="45.92372" lon="3.71918">
        <ele>1126</ele>
        <time>2015-08-05T11:53:39Z</time>
      </trkpt>
      <trkpt lat="45.92371" lon="3.71923">
        <ele>1126</ele>
        <time>2015-08-05T11:53:44Z</time>
      </trkpt>
      <trkpt lat="45.9237" lon="3.71927">
        <ele>1126</ele>
        <time>2015-08-05T11:53:46Z</time>
      </trkpt>
      <trkpt lat="45.92369" lon="3.71932">
        <ele>1125</ele>
        <time>2015-08-05T11:53:48Z</time>
      </trkpt>
      <trkpt lat="45.92369" lon="3.71936">
        <ele>1124</ele>
        <time>2015-08-05T11:53:50Z</time>
      </trkpt>
      <trkpt lat="45.92368" lon="3.7194">
        <ele>1124</ele>
        <time>2015-08-05T11:53:52Z</time>
      </trkpt>
      <trkpt lat="45.92361" lon="3.71951">
        <ele>1124</ele>
        <time>2015-08-05T11:54:00Z</time>
      </trkpt>
      <trkpt lat="45.9236" lon="3.71953">
        <ele>1124</ele>
        <time>2015-08-05T11:54:02Z</time>
      </trkpt>
      <trkpt lat="45.92355" lon="3.71962">
        <ele>1123</ele>
        <time>2015-08-05T11:54:06Z</time>
      </trkpt>
      <trkpt lat="45.92354" lon="3.7197">
        <ele>1123</ele>
        <time>2015-08-05T11:54:11Z</time>
      </trkpt>
      <trkpt lat="45.92351" lon="3.71973">
        <ele>1123</ele>
        <time>2015-08-05T11:54:13Z</time>
      </trkpt>
      <trkpt lat="45.92348" lon="3.71975">
        <ele>1123</ele>
        <time>2015-08-05T11:54:16Z</time>
      </trkpt>
      <trkpt lat="45.92344" lon="3.71985">
        <ele>1123</ele>
        <time>2015-08-05T11:54:22Z</time>
      </trkpt>
      <trkpt lat="45.92343" lon="3.71988">
        <ele>1123</ele>
        <time>2015-08-05T11:54:24Z</time>
      </trkpt>
      <trkpt lat="45.92339" lon="3.71993">
        <ele>1123</ele>
        <time>2015-08-05T11:54:28Z</time>
      </trkpt>
      <trkpt lat="45.92338" lon="3.71994">
        <ele>1123</ele>
        <time>2015-08-05T11:54:30Z</time>
      </trkpt>
      <trkpt lat="45.92336" lon="3.71996">
        <ele>1123</ele>
        <time>2015-08-05T11:54:32Z</time>
      </trkpt>
      <trkpt lat="45.92336" lon="3.72002">
        <ele>1122</ele>
        <time>2015-08-05T11:54:36Z</time>
      </trkpt>
      <trkpt lat="45.92334" lon="3.72006">
        <ele>1121</ele>
        <time>2015-08-05T11:54:39Z</time>
      </trkpt>
      <trkpt lat="45.92334" lon="3.7201">
        <ele>1121</ele>
        <time>2015-08-05T11:54:42Z</time>
      </trkpt>
      <trkpt lat="45.9233" lon="3.72018">
        <ele>1121</ele>
        <time>2015-08-05T11:54:48Z</time>
      </trkpt>
      <trkpt lat="45.92329" lon="3.72026">
        <ele>1121</ele>
        <time>2015-08-05T11:54:52Z</time>
      </trkpt>
      <trkpt lat="45.92329" lon="3.72029">
        <ele>1120</ele>
        <time>2015-08-05T11:54:54Z</time>
      </trkpt>
      <trkpt lat="45.92327" lon="3.72035">
        <ele>1118</ele>
        <time>2015-08-05T11:54:57Z</time>
      </trkpt>
      <trkpt lat="45.92323" lon="3.72046">
        <ele>1117</ele>
        <time>2015-08-05T11:55:03Z</time>
      </trkpt>
      <trkpt lat="45.92322" lon="3.72049">
        <ele>1117</ele>
        <time>2015-08-05T11:55:05Z</time>
      </trkpt>
      <trkpt lat="45.92316" lon="3.72061">
        <ele>1117</ele>
        <time>2015-08-05T11:55:12Z</time>
      </trkpt>
      <trkpt lat="45.92316" lon="3.72064">
        <ele>1117</ele>
        <time>2015-08-05T11:55:14Z</time>
      </trkpt>
      <trkpt lat="45.92312" lon="3.72071">
        <ele>1117</ele>
        <time>2015-08-05T11:55:18Z</time>
      </trkpt>
      <trkpt lat="45.92311" lon="3.72071">
        <ele>1117</ele>
        <time>2015-08-05T11:55:24Z</time>
      </trkpt>
      <trkpt lat="45.9231" lon="3.72072">
        <ele>1117</ele>
        <time>2015-08-05T11:55:27Z</time>
      </trkpt>
      <trkpt lat="45.92308" lon="3.72074">
        <ele>1116</ele>
        <time>2015-08-05T11:55:29Z</time>
      </trkpt>
      <trkpt lat="45.92306" lon="3.72075">
        <ele>1116</ele>
        <time>2015-08-05T11:55:31Z</time>
      </trkpt>
      <trkpt lat="45.92304" lon="3.72075">
        <ele>1116</ele>
        <time>2015-08-05T11:55:33Z</time>
      </trkpt>
      <trkpt lat="45.92301" lon="3.72077">
        <ele>1116</ele>
        <time>2015-08-05T11:55:36Z</time>
      </trkpt>
      <trkpt lat="45.923" lon="3.72079">
        <ele>1116</ele>
        <time>2015-08-05T11:55:38Z</time>
      </trkpt>
      <trkpt lat="45.92299" lon="3.7208">
        <ele>1116</ele>
        <time>2015-08-05T11:55:41Z</time>
      </trkpt>
      <trkpt lat="45.92297" lon="3.72079">
        <ele>1116</ele>
        <time>2015-08-05T11:55:46Z</time>
      </trkpt>
      <trkpt lat="45.92297" lon="3.72082">
        <ele>1116</ele>
        <time>2015-08-05T11:55:48Z</time>
      </trkpt>
      <trkpt lat="45.92297" lon="3.72085">
        <ele>1116</ele>
        <time>2015-08-05T11:55:50Z</time>
      </trkpt>
      <trkpt lat="45.92297" lon="3.72087">
        <ele>1116</ele>
        <time>2015-08-05T11:55:52Z</time>
      </trkpt>
      <trkpt lat="45.92295" lon="3.72094">
        <ele>1113</ele>
        <time>2015-08-05T11:55:56Z</time>
      </trkpt>
      <trkpt lat="45.92292" lon="3.72097">
        <ele>1113</ele>
        <time>2015-08-05T11:56:00Z</time>
      </trkpt>
      <trkpt lat="45.92289" lon="3.721">
        <ele>1113</ele>
        <time>2015-08-05T11:56:02Z</time>
      </trkpt>
      <trkpt lat="45.92288" lon="3.72097">
        <ele>1113</ele>
        <time>2015-08-05T11:56:04Z</time>
      </trkpt>
      <trkpt lat="45.92286" lon="3.72097">
        <ele>1113</ele>
        <time>2015-08-05T11:56:07Z</time>
      </trkpt>
      <trkpt lat="45.92288" lon="3.721">
        <ele>1113</ele>
        <time>2015-08-05T11:56:09Z</time>
      </trkpt>
      <trkpt lat="45.9229" lon="3.721">
        <ele>1113</ele>
        <time>2015-08-05T11:56:11Z</time>
      </trkpt>
      <trkpt lat="45.92292" lon="3.72099">
        <ele>1113</ele>
        <time>2015-08-05T11:56:13Z</time>
      </trkpt>
      <trkpt lat="45.92293" lon="3.72097">
        <ele>1113</ele>
        <time>2015-08-05T11:56:16Z</time>
      </trkpt>
      <trkpt lat="45.92292" lon="3.72096">
        <ele>1113</ele>
        <time>2015-08-05T11:56:18Z</time>
      </trkpt>
      <trkpt lat="45.92292" lon="3.72094">
        <ele>1113</ele>
        <time>2015-08-05T11:56:20Z</time>
      </trkpt>
      <trkpt lat="45.92291" lon="3.72092">
        <ele>1113</ele>
        <time>2015-08-05T11:56:22Z</time>
      </trkpt>
      <trkpt lat="45.92289" lon="3.72091">
        <ele>1113</ele>
        <time>2015-08-05T11:56:25Z</time>
      </trkpt>
      <trkpt lat="45.92288" lon="3.7209">
        <ele>1114</ele>
        <time>2015-08-05T11:56:27Z</time>
      </trkpt>
      <trkpt lat="45.92288" lon="3.72085">
        <ele>1118</ele>
        <time>2015-08-05T11:56:31Z</time>
      </trkpt>
      <trkpt lat="45.92289" lon="3.72077">
        <ele>1118</ele>
        <time>2015-08-05T11:56:35Z</time>
      </trkpt>
      <trkpt lat="45.92291" lon="3.7207">
        <ele>1118</ele>
        <time>2015-08-05T11:56:40Z</time>
      </trkpt>
      <trkpt lat="45.92292" lon="3.72065">
        <ele>1118</ele>
        <time>2015-08-05T11:56:43Z</time>
      </trkpt>
      <trkpt lat="45.92294" lon="3.72058">
        <ele>1118</ele>
        <time>2015-08-05T11:56:47Z</time>
      </trkpt>
      <trkpt lat="45.92294" lon="3.72054">
        <ele>1118</ele>
        <time>2015-08-05T11:56:49Z</time>
      </trkpt>
      <trkpt lat="45.92294" lon="3.72045">
        <ele>1120</ele>
        <time>2015-08-05T11:56:53Z</time>
      </trkpt>
      <trkpt lat="45.92296" lon="3.72043">
        <ele>1122</ele>
        <time>2015-08-05T11:56:55Z</time>
      </trkpt>
      <trkpt lat="45.923" lon="3.72038">
        <ele>1124</ele>
        <time>2015-08-05T11:56:59Z</time>
      </trkpt>
      <trkpt lat="45.92302" lon="3.72036">
        <ele>1124</ele>
        <time>2015-08-05T11:57:01Z</time>
      </trkpt>
      <trkpt lat="45.92302" lon="3.72029">
        <ele>1124</ele>
        <time>2015-08-05T11:57:05Z</time>
      </trkpt>
      <trkpt lat="45.92303" lon="3.72025">
        <ele>1124</ele>
        <time>2015-08-05T11:57:07Z</time>
      </trkpt>
      <trkpt lat="45.92305" lon="3.72021">
        <ele>1124</ele>
        <time>2015-08-05T11:57:09Z</time>
      </trkpt>
      <trkpt lat="45.92304" lon="3.72015">
        <ele>1125</ele>
        <time>2015-08-05T11:57:15Z</time>
      </trkpt>
      <trkpt lat="45.92303" lon="3.72012">
        <ele>1126</ele>
        <time>2015-08-05T11:57:17Z</time>
      </trkpt>
      <trkpt lat="45.92303" lon="3.72009">
        <ele>1126</ele>
        <time>2015-08-05T11:57:19Z</time>
      </trkpt>
      <trkpt lat="45.923" lon="3.7201">
        <ele>1129</ele>
        <time>2015-08-05T11:57:23Z</time>
      </trkpt>
      <trkpt lat="45.92302" lon="3.72006">
        <ele>1132</ele>
        <time>2015-08-05T11:57:26Z</time>
      </trkpt>
      <trkpt lat="45.92305" lon="3.72003">
        <ele>1137</ele>
        <time>2015-08-05T11:57:31Z</time>
      </trkpt>
      <trkpt lat="45.92304" lon="3.72002">
        <ele>1138</ele>
        <time>2015-08-05T11:57:33Z</time>
      </trkpt>
      <trkpt lat="45.92303" lon="3.71997">
        <ele>1138</ele>
        <time>2015-08-05T11:57:35Z</time>
      </trkpt>
      <trkpt lat="45.92305" lon="3.71994">
        <ele>1138</ele>
        <time>2015-08-05T11:57:37Z</time>
      </trkpt>
      <trkpt lat="45.92304" lon="3.71991">
        <ele>1137</ele>
        <time>2015-08-05T11:57:39Z</time>
      </trkpt>
      <trkpt lat="45.92304" lon="3.71987">
        <ele>1135</ele>
        <time>2015-08-05T11:57:42Z</time>
      </trkpt>
      <trkpt lat="45.92302" lon="3.71986">
        <ele>1134</ele>
        <time>2015-08-05T11:57:47Z</time>
      </trkpt>
      <trkpt lat="45.92301" lon="3.71987">
        <ele>1134</ele>
        <time>2015-08-05T11:57:51Z</time>
      </trkpt>
      <trkpt lat="45.92299" lon="3.71985">
        <ele>1136</ele>
        <time>2015-08-05T11:57:53Z</time>
      </trkpt>
      <trkpt lat="45.92298" lon="3.71985">
        <ele>1141</ele>
        <time>2015-08-05T11:57:58Z</time>
      </trkpt>
      <trkpt lat="45.92299" lon="3.71985">
        <ele>1144</ele>
        <time>2015-08-05T11:58:04Z</time>
      </trkpt>
      <trkpt lat="45.92302" lon="3.71986">
        <ele>1142</ele>
        <time>2015-08-05T11:58:08Z</time>
      </trkpt>
      <trkpt lat="45.92303" lon="3.71989">
        <ele>1140</ele>
        <time>2015-08-05T11:58:10Z</time>
      </trkpt>
      <trkpt lat="45.92307" lon="3.71993">
        <ele>1136</ele>
        <time>2015-08-05T11:58:16Z</time>
      </trkpt>
      <trkpt lat="45.9231" lon="3.71994">
        <ele>1136</ele>
        <time>2015-08-05T11:58:18Z</time>
      </trkpt>
      <trkpt lat="45.92312" lon="3.71997">
        <ele>1136</ele>
        <time>2015-08-05T11:58:23Z</time>
      </trkpt>
      <trkpt lat="45.92312" lon="3.71993">
        <ele>1136</ele>
        <time>2015-08-05T11:58:25Z</time>
      </trkpt>
      <trkpt lat="45.9231" lon="3.71989">
        <ele>1134</ele>
        <time>2015-08-05T11:58:29Z</time>
      </trkpt>
      <trkpt lat="45.92304" lon="3.71989">
        <ele>1126</ele>
        <time>2015-08-05T11:58:35Z</time>
      </trkpt>
      <trkpt lat="45.92301" lon="3.71987">
        <ele>1117</ele>
        <time>2015-08-05T11:58:45Z</time>
      </trkpt>
      <trkpt lat="45.92302" lon="3.71988">
        <ele>1117</ele>
        <time>2015-08-05T11:58:47Z</time>
      </trkpt>
      <trkpt lat="45.92302" lon="3.71986">
        <ele>1115</ele>
        <time>2015-08-05T11:58:51Z</time>
      </trkpt>
      <trkpt lat="45.92301" lon="3.71984">
        <ele>1115</ele>
        <time>2015-08-05T11:58:53Z</time>
      </trkpt>
      <trkpt lat="45.923" lon="3.71983">
        <ele>1116</ele>
        <time>2015-08-05T11:59:00Z</time>
      </trkpt>
      <trkpt lat="45.92302" lon="3.71982">
        <ele>1117</ele>
        <time>2015-08-05T11:59:03Z</time>
      </trkpt>
      <trkpt lat="45.92306" lon="3.71978">
        <ele>1117</ele>
        <time>2015-08-05T11:59:11Z</time>
      </trkpt>
      <trkpt lat="45.92307" lon="3.71976">
        <ele>1117</ele>
        <time>2015-08-05T11:59:16Z</time>
      </trkpt>
      <trkpt lat="45.92305" lon="3.71975">
        <ele>1117</ele>
        <time>2015-08-05T11:59:21Z</time>
      </trkpt>
      <trkpt lat="45.92305" lon="3.71974">
        <ele>1121</ele>
        <time>2015-08-05T11:59:27Z</time>
      </trkpt>
      <trkpt lat="45.92303" lon="3.71973">
        <ele>1124</ele>
        <time>2015-08-05T11:59:32Z</time>
      </trkpt>
      <trkpt lat="45.923" lon="3.71971">
        <ele>1126</ele>
        <time>2015-08-05T11:59:37Z</time>
      </trkpt>
      <trkpt lat="45.92299" lon="3.71972">
        <ele>1127</ele>
        <time>2015-08-05T11:59:40Z</time>
      </trkpt>
      <trkpt lat="45.92298" lon="3.71974">
        <ele>1127</ele>
        <time>2015-08-05T11:59:43Z</time>
      </trkpt>
      <trkpt lat="45.92296" lon="3.71974">
        <ele>1127</ele>
        <time>2015-08-05T11:59:45Z</time>
      </trkpt>
      <trkpt lat="45.92294" lon="3.71974">
        <ele>1127</ele>
        <time>2015-08-05T11:59:48Z</time>
      </trkpt>
      <trkpt lat="45.92294" lon="3.71976">
        <ele>1130</ele>
        <time>2015-08-05T11:59:52Z</time>
      </trkpt>
      <trkpt lat="45.92294" lon="3.71977">
        <ele>1132</ele>
        <time>2015-08-05T11:59:54Z</time>
      </trkpt>
      <trkpt lat="45.92295" lon="3.71978">
        <ele>1133</ele>
        <time>2015-08-05T11:59:56Z</time>
      </trkpt>
      <trkpt lat="45.92296" lon="3.7198">
        <ele>1134</ele>
        <time>2015-08-05T11:59:59Z</time>
      </trkpt>
      <trkpt lat="45.923" lon="3.71984">
        <ele>1131</ele>
        <time>2015-08-05T12:00:08Z</time>
      </trkpt>
      <trkpt lat="45.92303" lon="3.71984">
        <ele>1127</ele>
        <time>2015-08-05T12:00:12Z</time>
      </trkpt>
      <trkpt lat="45.92302" lon="3.71984">
        <ele>1125</ele>
        <time>2015-08-05T12:00:29Z</time>
      </trkpt>
      <trkpt lat="45.92301" lon="3.71982">
        <ele>1125</ele>
        <time>2015-08-05T12:00:32Z</time>
      </trkpt>
      <trkpt lat="45.92301" lon="3.7198">
        <ele>1125</ele>
        <time>2015-08-05T12:00:35Z</time>
      </trkpt>
      <trkpt lat="45.92303" lon="3.71981">
        <ele>1125</ele>
        <time>2015-08-05T12:00:39Z</time>
      </trkpt>
      <trkpt lat="45.92304" lon="3.71985">
        <ele>1125</ele>
        <time>2015-08-05T12:00:44Z</time>
      </trkpt>
      <trkpt lat="45.92304" lon="3.71982">
        <ele>1125</ele>
        <time>2015-08-05T12:00:47Z</time>
      </trkpt>
      <trkpt lat="45.92309" lon="3.71982">
        <ele>1126</ele>
        <time>2015-08-05T12:00:49Z</time>
      </trkpt>
      <trkpt lat="45.92311" lon="3.7198">
        <ele>1126</ele>
        <time>2015-08-05T12:00:55Z</time>
      </trkpt>
      <trkpt lat="45.92312" lon="3.7198">
        <ele>1126</ele>
        <time>2015-08-05T12:01:01Z</time>
      </trkpt>
      <trkpt lat="45.9231" lon="3.7198">
        <ele>1126</ele>
        <time>2015-08-05T12:01:06Z</time>
      </trkpt>
      <trkpt lat="45.92307" lon="3.7198">
        <ele>1126</ele>
        <time>2015-08-05T12:01:09Z</time>
      </trkpt>
      <trkpt lat="45.92306" lon="3.71982">
        <ele>1126</ele>
        <time>2015-08-05T12:01:11Z</time>
      </trkpt>
      <trkpt lat="45.92301" lon="3.71983">
        <ele>1126</ele>
        <time>2015-08-05T12:01:21Z</time>
      </trkpt>
      <trkpt lat="45.923" lon="3.71982">
        <ele>1126</ele>
        <time>2015-08-05T12:01:23Z</time>
      </trkpt>
      <trkpt lat="45.923" lon="3.7198">
        <ele>1125</ele>
        <time>2015-08-05T12:01:30Z</time>
      </trkpt>
      <trkpt lat="45.92301" lon="3.71976">
        <ele>1124</ele>
        <time>2015-08-05T12:01:33Z</time>
      </trkpt>
      <trkpt lat="45.92302" lon="3.71973">
        <ele>1124</ele>
        <time>2015-08-05T12:01:36Z</time>
      </trkpt>
      <trkpt lat="45.92302" lon="3.71971">
        <ele>1124</ele>
        <time>2015-08-05T12:01:38Z</time>
      </trkpt>
      <trkpt lat="45.92301" lon="3.71967">
        <ele>1124</ele>
        <time>2015-08-05T12:01:40Z</time>
      </trkpt>
      <trkpt lat="45.92301" lon="3.71962">
        <ele>1124</ele>
        <time>2015-08-05T12:01:42Z</time>
      </trkpt>
      <trkpt lat="45.923" lon="3.7196">
        <ele>1122</ele>
        <time>2015-08-05T12:01:44Z</time>
      </trkpt>
      <trkpt lat="45.923" lon="3.71953">
        <ele>1119</ele>
        <time>2015-08-05T12:01:49Z</time>
      </trkpt>
      <trkpt lat="45.923" lon="3.7195">
        <ele>1118</ele>
        <time>2015-08-05T12:01:51Z</time>
      </trkpt>
      <trkpt lat="45.92299" lon="3.71943">
        <ele>1117</ele>
        <time>2015-08-05T12:01:55Z</time>
      </trkpt>
      <trkpt lat="45.92297" lon="3.7194">
        <ele>1117</ele>
        <time>2015-08-05T12:01:57Z</time>
      </trkpt>
      <trkpt lat="45.92296" lon="3.71937">
        <ele>1117</ele>
        <time>2015-08-05T12:01:59Z</time>
      </trkpt>
      <trkpt lat="45.92297" lon="3.71932">
        <ele>1117</ele>
        <time>2015-08-05T12:02:02Z</time>
      </trkpt>
      <trkpt lat="45.92298" lon="3.71924">
        <ele>1117</ele>
        <time>2015-08-05T12:02:07Z</time>
      </trkpt>
      <trkpt lat="45.92299" lon="3.7192">
        <ele>1117</ele>
        <time>2015-08-05T12:02:09Z</time>
      </trkpt>
      <trkpt lat="45.92299" lon="3.71917">
        <ele>1117</ele>
        <time>2015-08-05T12:02:11Z</time>
      </trkpt>
      <trkpt lat="45.92296" lon="3.71906">
        <ele>1117</ele>
        <time>2015-08-05T12:02:17Z</time>
      </trkpt>
      <trkpt lat="45.92295" lon="3.71901">
        <ele>1117</ele>
        <time>2015-08-05T12:02:20Z</time>
      </trkpt>
      <trkpt lat="45.92292" lon="3.71895">
        <ele>1117</ele>
        <time>2015-08-05T12:02:24Z</time>
      </trkpt>
      <trkpt lat="45.92289" lon="3.71889">
        <ele>1117</ele>
        <time>2015-08-05T12:02:27Z</time>
      </trkpt>
      <trkpt lat="45.92287" lon="3.71882">
        <ele>1120</ele>
        <time>2015-08-05T12:02:32Z</time>
      </trkpt>
      <trkpt lat="45.92287" lon="3.71872">
        <ele>1121</ele>
        <time>2015-08-05T12:02:38Z</time>
      </trkpt>
      <trkpt lat="45.92285" lon="3.71869">
        <ele>1121</ele>
        <time>2015-08-05T12:02:40Z</time>
      </trkpt>
      <trkpt lat="45.92281" lon="3.71866">
        <ele>1121</ele>
        <time>2015-08-05T12:02:42Z</time>
      </trkpt>
      <trkpt lat="45.92279" lon="3.71859">
        <ele>1121</ele>
        <time>2015-08-05T12:02:46Z</time>
      </trkpt>
      <trkpt lat="45.92279" lon="3.71855">
        <ele>1120</ele>
        <time>2015-08-05T12:02:48Z</time>
      </trkpt>
      <trkpt lat="45.92279" lon="3.7185">
        <ele>1118</ele>
        <time>2015-08-05T12:02:50Z</time>
      </trkpt>
      <trkpt lat="45.92274" lon="3.71837">
        <ele>1113</ele>
        <time>2015-08-05T12:02:58Z</time>
      </trkpt>
      <trkpt lat="45.92273" lon="3.71833">
        <ele>1113</ele>
        <time>2015-08-05T12:03:00Z</time>
      </trkpt>
      <trkpt lat="45.92272" lon="3.71826">
        <ele>1113</ele>
        <time>2015-08-05T12:03:04Z</time>
      </trkpt>
      <trkpt lat="45.9227" lon="3.71821">
        <ele>1113</ele>
        <time>2015-08-05T12:03:08Z</time>
      </trkpt>
      <trkpt lat="45.92268" lon="3.71819">
        <ele>1113</ele>
        <time>2015-08-05T12:03:10Z</time>
      </trkpt>
      <trkpt lat="45.92268" lon="3.71816">
        <ele>1113</ele>
        <time>2015-08-05T12:03:12Z</time>
      </trkpt>
      <trkpt lat="45.92268" lon="3.71812">
        <ele>1113</ele>
        <time>2015-08-05T12:03:14Z</time>
      </trkpt>
      <trkpt lat="45.92267" lon="3.71809">
        <ele>1113</ele>
        <time>2015-08-05T12:03:16Z</time>
      </trkpt>
      <trkpt lat="45.92265" lon="3.71804">
        <ele>1115</ele>
        <time>2015-08-05T12:03:18Z</time>
      </trkpt>
      <trkpt lat="45.92265" lon="3.718">
        <ele>1115</ele>
        <time>2015-08-05T12:03:20Z</time>
      </trkpt>
      <trkpt lat="45.92265" lon="3.71797">
        <ele>1115</ele>
        <time>2015-08-05T12:03:22Z</time>
      </trkpt>
      <trkpt lat="45.92266" lon="3.71792">
        <ele>1115</ele>
        <time>2015-08-05T12:03:24Z</time>
      </trkpt>
      <trkpt lat="45.92266" lon="3.71788">
        <ele>1115</ele>
        <time>2015-08-05T12:03:26Z</time>
      </trkpt>
      <trkpt lat="45.92265" lon="3.71784">
        <ele>1115</ele>
        <time>2015-08-05T12:03:28Z</time>
      </trkpt>
      <trkpt lat="45.92265" lon="3.71773">
        <ele>1115</ele>
        <time>2015-08-05T12:03:34Z</time>
      </trkpt>
      <trkpt lat="45.92266" lon="3.71769">
        <ele>1115</ele>
        <time>2015-08-05T12:03:36Z</time>
      </trkpt>
      <trkpt lat="45.92265" lon="3.71761">
        <ele>1115</ele>
        <time>2015-08-05T12:03:40Z</time>
      </trkpt>
      <trkpt lat="45.92265" lon="3.71757">
        <ele>1115</ele>
        <time>2015-08-05T12:03:43Z</time>
      </trkpt>
      <trkpt lat="45.92264" lon="3.71754">
        <ele>1114</ele>
        <time>2015-08-05T12:03:45Z</time>
      </trkpt>
      <trkpt lat="45.92263" lon="3.71751">
        <ele>1112</ele>
        <time>2015-08-05T12:03:47Z</time>
      </trkpt>
      <trkpt lat="45.92264" lon="3.71746">
        <ele>1112</ele>
        <time>2015-08-05T12:03:49Z</time>
      </trkpt>
      <trkpt lat="45.92263" lon="3.71741">
        <ele>1112</ele>
        <time>2015-08-05T12:03:52Z</time>
      </trkpt>
      <trkpt lat="45.92262" lon="3.71736">
        <ele>1112</ele>
        <time>2015-08-05T12:03:54Z</time>
      </trkpt>
      <trkpt lat="45.92262" lon="3.71731">
        <ele>1112</ele>
        <time>2015-08-05T12:03:57Z</time>
      </trkpt>
      <trkpt lat="45.92262" lon="3.71724">
        <ele>1112</ele>
        <time>2015-08-05T12:04:01Z</time>
      </trkpt>
      <trkpt lat="45.92263" lon="3.7172">
        <ele>1112</ele>
        <time>2015-08-05T12:04:04Z</time>
      </trkpt>
      <trkpt lat="45.92263" lon="3.71714">
        <ele>1112</ele>
        <time>2015-08-05T12:04:09Z</time>
      </trkpt>
      <trkpt lat="45.9226" lon="3.7171">
        <ele>1112</ele>
        <time>2015-08-05T12:04:11Z</time>
      </trkpt>
      <trkpt lat="45.9226" lon="3.71703">
        <ele>1112</ele>
        <time>2015-08-05T12:04:15Z</time>
      </trkpt>
      <trkpt lat="45.92258" lon="3.71699">
        <ele>1112</ele>
        <time>2015-08-05T12:04:17Z</time>
      </trkpt>
      <trkpt lat="45.92257" lon="3.71694">
        <ele>1112</ele>
        <time>2015-08-05T12:04:19Z</time>
      </trkpt>
      <trkpt lat="45.92257" lon="3.7169">
        <ele>1112</ele>
        <time>2015-08-05T12:04:21Z</time>
      </trkpt>
      <trkpt lat="45.92255" lon="3.71685">
        <ele>1112</ele>
        <time>2015-08-05T12:04:23Z</time>
      </trkpt>
      <trkpt lat="45.92253" lon="3.71682">
        <ele>1112</ele>
        <time>2015-08-05T12:04:25Z</time>
      </trkpt>
      <trkpt lat="45.92251" lon="3.71677">
        <ele>1112</ele>
        <time>2015-08-05T12:04:30Z</time>
      </trkpt>
      <trkpt lat="45.9225" lon="3.71673">
        <ele>1113</ele>
        <time>2015-08-05T12:04:32Z</time>
      </trkpt>
      <trkpt lat="45.92252" lon="3.71674">
        <ele>1115</ele>
        <time>2015-08-05T12:04:35Z</time>
      </trkpt>
      <trkpt lat="45.92253" lon="3.71672">
        <ele>1115</ele>
        <time>2015-08-05T12:04:37Z</time>
      </trkpt>
      <trkpt lat="45.92253" lon="3.71671">
        <ele>1115</ele>
        <time>2015-08-05T12:04:39Z</time>
      </trkpt>
      <trkpt lat="45.92252" lon="3.71669">
        <ele>1115</ele>
        <time>2015-08-05T12:04:41Z</time>
      </trkpt>
      <trkpt lat="45.92252" lon="3.71662">
        <ele>1115</ele>
        <time>2015-08-05T12:04:47Z</time>
      </trkpt>
      <trkpt lat="45.92253" lon="3.7166">
        <ele>1115</ele>
        <time>2015-08-05T12:04:49Z</time>
      </trkpt>
      <trkpt lat="45.92254" lon="3.71655">
        <ele>1115</ele>
        <time>2015-08-05T12:04:52Z</time>
      </trkpt>
      <trkpt lat="45.92251" lon="3.71651">
        <ele>1115</ele>
        <time>2015-08-05T12:04:54Z</time>
      </trkpt>
      <trkpt lat="45.9225" lon="3.71648">
        <ele>1115</ele>
        <time>2015-08-05T12:04:56Z</time>
      </trkpt>
      <trkpt lat="45.9225" lon="3.71645">
        <ele>1115</ele>
        <time>2015-08-05T12:04:58Z</time>
      </trkpt>
      <trkpt lat="45.92249" lon="3.71634">
        <ele>1115</ele>
        <time>2015-08-05T12:05:03Z</time>
      </trkpt>
      <trkpt lat="45.9225" lon="3.7162">
        <ele>1115</ele>
        <time>2015-08-05T12:05:07Z</time>
      </trkpt>
      <trkpt lat="45.92247" lon="3.71618">
        <ele>1115</ele>
        <time>2015-08-05T12:05:09Z</time>
      </trkpt>
      <trkpt lat="45.92247" lon="3.71613">
        <ele>1115</ele>
        <time>2015-08-05T12:05:12Z</time>
      </trkpt>
      <trkpt lat="45.92243" lon="3.71609">
        <ele>1115</ele>
        <time>2015-08-05T12:05:16Z</time>
      </trkpt>
      <trkpt lat="45.92241" lon="3.71598">
        <ele>1113</ele>
        <time>2015-08-05T12:05:18Z</time>
      </trkpt>
      <trkpt lat="45.92238" lon="3.71595">
        <ele>1112</ele>
        <time>2015-08-05T12:05:20Z</time>
      </trkpt>
      <trkpt lat="45.92236" lon="3.7159">
        <ele>1112</ele>
        <time>2015-08-05T12:05:22Z</time>
      </trkpt>
      <trkpt lat="45.92235" lon="3.71586">
        <ele>1112</ele>
        <time>2015-08-05T12:05:24Z</time>
      </trkpt>
      <trkpt lat="45.92236" lon="3.71581">
        <ele>1111</ele>
        <time>2015-08-05T12:05:28Z</time>
      </trkpt>
      <trkpt lat="45.92235" lon="3.71577">
        <ele>1107</ele>
        <time>2015-08-05T12:05:33Z</time>
      </trkpt>
      <trkpt lat="45.92232" lon="3.71575">
        <ele>1106</ele>
        <time>2015-08-05T12:05:35Z</time>
      </trkpt>
      <trkpt lat="45.92224" lon="3.71568">
        <ele>1104</ele>
        <time>2015-08-05T12:05:41Z</time>
      </trkpt>
      <trkpt lat="45.92221" lon="3.71566">
        <ele>1104</ele>
        <time>2015-08-05T12:05:43Z</time>
      </trkpt>
      <trkpt lat="45.92213" lon="3.71564">
        <ele>1104</ele>
        <time>2015-08-05T12:05:48Z</time>
      </trkpt>
      <trkpt lat="45.9221" lon="3.71565">
        <ele>1104</ele>
        <time>2015-08-05T12:05:50Z</time>
      </trkpt>
      <trkpt lat="45.92207" lon="3.71561">
        <ele>1104</ele>
        <time>2015-08-05T12:05:55Z</time>
      </trkpt>
      <trkpt lat="45.92205" lon="3.71561">
        <ele>1104</ele>
        <time>2015-08-05T12:05:57Z</time>
      </trkpt>
      <trkpt lat="45.92201" lon="3.71555">
        <ele>1104</ele>
        <time>2015-08-05T12:06:01Z</time>
      </trkpt>
      <trkpt lat="45.92199" lon="3.71554">
        <ele>1104</ele>
        <time>2015-08-05T12:06:03Z</time>
      </trkpt>
      <trkpt lat="45.92196" lon="3.71548">
        <ele>1104</ele>
        <time>2015-08-05T12:06:08Z</time>
      </trkpt>
      <trkpt lat="45.92196" lon="3.71545">
        <ele>1104</ele>
        <time>2015-08-05T12:06:10Z</time>
      </trkpt>
      <trkpt lat="45.92196" lon="3.71539">
        <ele>1104</ele>
        <time>2015-08-05T12:06:13Z</time>
      </trkpt>
      <trkpt lat="45.92194" lon="3.71535">
        <ele>1101</ele>
        <time>2015-08-05T12:06:16Z</time>
      </trkpt>
      <trkpt lat="45.92195" lon="3.71531">
        <ele>1099</ele>
        <time>2015-08-05T12:06:18Z</time>
      </trkpt>
      <trkpt lat="45.92196" lon="3.71527">
        <ele>1097</ele>
        <time>2015-08-05T12:06:20Z</time>
      </trkpt>
      <trkpt lat="45.92194" lon="3.71522">
        <ele>1096</ele>
        <time>2015-08-05T12:06:22Z</time>
      </trkpt>
      <trkpt lat="45.92192" lon="3.71516">
        <ele>1096</ele>
        <time>2015-08-05T12:06:26Z</time>
      </trkpt>
      <trkpt lat="45.92192" lon="3.71511">
        <ele>1096</ele>
        <time>2015-08-05T12:06:29Z</time>
      </trkpt>
      <trkpt lat="45.92191" lon="3.71509">
        <ele>1096</ele>
        <time>2015-08-05T12:06:31Z</time>
      </trkpt>
      <trkpt lat="45.92189" lon="3.71504">
        <ele>1096</ele>
        <time>2015-08-05T12:06:33Z</time>
      </trkpt>
      <trkpt lat="45.92188" lon="3.71499">
        <ele>1096</ele>
        <time>2015-08-05T12:06:35Z</time>
      </trkpt>
      <trkpt lat="45.92188" lon="3.71494">
        <ele>1096</ele>
        <time>2015-08-05T12:06:38Z</time>
      </trkpt>
      <trkpt lat="45.9219" lon="3.71488">
        <ele>1096</ele>
        <time>2015-08-05T12:06:42Z</time>
      </trkpt>
      <trkpt lat="45.92189" lon="3.71477">
        <ele>1096</ele>
        <time>2015-08-05T12:06:46Z</time>
      </trkpt>
      <trkpt lat="45.92189" lon="3.71471">
        <ele>1096</ele>
        <time>2015-08-05T12:06:48Z</time>
      </trkpt>
      <trkpt lat="45.92187" lon="3.71463">
        <ele>1096</ele>
        <time>2015-08-05T12:06:52Z</time>
      </trkpt>
      <trkpt lat="45.92186" lon="3.7146">
        <ele>1096</ele>
        <time>2015-08-05T12:06:55Z</time>
      </trkpt>
      <trkpt lat="45.92186" lon="3.71456">
        <ele>1098</ele>
        <time>2015-08-05T12:06:57Z</time>
      </trkpt>
      <trkpt lat="45.92186" lon="3.71452">
        <ele>1098</ele>
        <time>2015-08-05T12:06:59Z</time>
      </trkpt>
      <trkpt lat="45.92184" lon="3.71449">
        <ele>1098</ele>
        <time>2015-08-05T12:07:01Z</time>
      </trkpt>
      <trkpt lat="45.92183" lon="3.71442">
        <ele>1098</ele>
        <time>2015-08-05T12:07:05Z</time>
      </trkpt>
      <trkpt lat="45.92184" lon="3.71439">
        <ele>1098</ele>
        <time>2015-08-05T12:07:07Z</time>
      </trkpt>
      <trkpt lat="45.92187" lon="3.71434">
        <ele>1098</ele>
        <time>2015-08-05T12:07:10Z</time>
      </trkpt>
      <trkpt lat="45.92187" lon="3.7143">
        <ele>1098</ele>
        <time>2015-08-05T12:07:12Z</time>
      </trkpt>
      <trkpt lat="45.92188" lon="3.71428">
        <ele>1098</ele>
        <time>2015-08-05T12:07:14Z</time>
      </trkpt>
      <trkpt lat="45.92188" lon="3.71425">
        <ele>1098</ele>
        <time>2015-08-05T12:07:16Z</time>
      </trkpt>
      <trkpt lat="45.92188" lon="3.71421">
        <ele>1098</ele>
        <time>2015-08-05T12:07:18Z</time>
      </trkpt>
      <trkpt lat="45.92189" lon="3.7142">
        <ele>1098</ele>
        <time>2015-08-05T12:07:20Z</time>
      </trkpt>
      <trkpt lat="45.9219" lon="3.71415">
        <ele>1098</ele>
        <time>2015-08-05T12:07:24Z</time>
      </trkpt>
      <trkpt lat="45.92189" lon="3.7141">
        <ele>1098</ele>
        <time>2015-08-05T12:07:27Z</time>
      </trkpt>
      <trkpt lat="45.92188" lon="3.71403">
        <ele>1097</ele>
        <time>2015-08-05T12:07:32Z</time>
      </trkpt>
      <trkpt lat="45.92189" lon="3.714">
        <ele>1097</ele>
        <time>2015-08-05T12:07:34Z</time>
      </trkpt>
      <trkpt lat="45.92187" lon="3.71389">
        <ele>1097</ele>
        <time>2015-08-05T12:07:42Z</time>
      </trkpt>
      <trkpt lat="45.92186" lon="3.71388">
        <ele>1096</ele>
        <time>2015-08-05T12:07:44Z</time>
      </trkpt>
      <trkpt lat="45.92185" lon="3.71386">
        <ele>1095</ele>
        <time>2015-08-05T12:07:47Z</time>
      </trkpt>
      <trkpt lat="45.92185" lon="3.71383">
        <ele>1094</ele>
        <time>2015-08-05T12:07:49Z</time>
      </trkpt>
      <trkpt lat="45.92186" lon="3.71381">
        <ele>1094</ele>
        <time>2015-08-05T12:07:51Z</time>
      </trkpt>
      <trkpt lat="45.92186" lon="3.71379">
        <ele>1093</ele>
        <time>2015-08-05T12:07:53Z</time>
      </trkpt>
      <trkpt lat="45.92184" lon="3.71376">
        <ele>1093</ele>
        <time>2015-08-05T12:07:55Z</time>
      </trkpt>
      <trkpt lat="45.92182" lon="3.71372">
        <ele>1092</ele>
        <time>2015-08-05T12:07:57Z</time>
      </trkpt>
      <trkpt lat="45.92182" lon="3.71369">
        <ele>1092</ele>
        <time>2015-08-05T12:07:59Z</time>
      </trkpt>
      <trkpt lat="45.92183" lon="3.71366">
        <ele>1092</ele>
        <time>2015-08-05T12:08:01Z</time>
      </trkpt>
      <trkpt lat="45.92184" lon="3.71363">
        <ele>1091</ele>
        <time>2015-08-05T12:08:04Z</time>
      </trkpt>
      <trkpt lat="45.92184" lon="3.71359">
        <ele>1091</ele>
        <time>2015-08-05T12:08:06Z</time>
      </trkpt>
      <trkpt lat="45.92185" lon="3.71355">
        <ele>1091</ele>
        <time>2015-08-05T12:08:09Z</time>
      </trkpt>
      <trkpt lat="45.92186" lon="3.71353">
        <ele>1091</ele>
        <time>2015-08-05T12:08:11Z</time>
      </trkpt>
      <trkpt lat="45.92185" lon="3.71348">
        <ele>1091</ele>
        <time>2015-08-05T12:08:13Z</time>
      </trkpt>
      <trkpt lat="45.92186" lon="3.71344">
        <ele>1091</ele>
        <time>2015-08-05T12:08:15Z</time>
      </trkpt>
      <trkpt lat="45.92187" lon="3.7134">
        <ele>1091</ele>
        <time>2015-08-05T12:08:17Z</time>
      </trkpt>
      <trkpt lat="45.92188" lon="3.71337">
        <ele>1091</ele>
        <time>2015-08-05T12:08:20Z</time>
      </trkpt>
      <trkpt lat="45.92189" lon="3.71335">
        <ele>1091</ele>
        <time>2015-08-05T12:08:22Z</time>
      </trkpt>
      <trkpt lat="45.92189" lon="3.71333">
        <ele>1091</ele>
        <time>2015-08-05T12:08:24Z</time>
      </trkpt>
      <trkpt lat="45.92189" lon="3.71328">
        <ele>1091</ele>
        <time>2015-08-05T12:08:26Z</time>
      </trkpt>
      <trkpt lat="45.92187" lon="3.71322">
        <ele>1089</ele>
        <time>2015-08-05T12:08:30Z</time>
      </trkpt>
      <trkpt lat="45.92187" lon="3.71319">
        <ele>1088</ele>
        <time>2015-08-05T12:08:32Z</time>
      </trkpt>
      <trkpt lat="45.92186" lon="3.71316">
        <ele>1088</ele>
        <time>2015-08-05T12:08:34Z</time>
      </trkpt>
      <trkpt lat="45.92186" lon="3.7131">
        <ele>1088</ele>
        <time>2015-08-05T12:08:39Z</time>
      </trkpt>
      <trkpt lat="45.92187" lon="3.71308">
        <ele>1086</ele>
        <time>2015-08-05T12:08:41Z</time>
      </trkpt>
      <trkpt lat="45.92183" lon="3.71301">
        <ele>1085</ele>
        <time>2015-08-05T12:08:45Z</time>
      </trkpt>
      <trkpt lat="45.92182" lon="3.71298">
        <ele>1085</ele>
        <time>2015-08-05T12:08:47Z</time>
      </trkpt>
      <trkpt lat="45.92183" lon="3.71293">
        <ele>1085</ele>
        <time>2015-08-05T12:08:49Z</time>
      </trkpt>
      <trkpt lat="45.92183" lon="3.71289">
        <ele>1085</ele>
        <time>2015-08-05T12:08:51Z</time>
      </trkpt>
      <trkpt lat="45.92181" lon="3.71286">
        <ele>1085</ele>
        <time>2015-08-05T12:08:53Z</time>
      </trkpt>
      <trkpt lat="45.92184" lon="3.71282">
        <ele>1085</ele>
        <time>2015-08-05T12:08:56Z</time>
      </trkpt>
      <trkpt lat="45.92185" lon="3.71275">
        <ele>1083</ele>
        <time>2015-08-05T12:09:00Z</time>
      </trkpt>
      <trkpt lat="45.92186" lon="3.71271">
        <ele>1083</ele>
        <time>2015-08-05T12:09:03Z</time>
      </trkpt>
      <trkpt lat="45.92189" lon="3.71267">
        <ele>1080</ele>
        <time>2015-08-05T12:09:07Z</time>
      </trkpt>
      <trkpt lat="45.9219" lon="3.71264">
        <ele>1078</ele>
        <time>2015-08-05T12:09:10Z</time>
      </trkpt>
      <trkpt lat="45.92191" lon="3.71261">
        <ele>1077</ele>
        <time>2015-08-05T12:09:14Z</time>
      </trkpt>
      <trkpt lat="45.9219" lon="3.71258">
        <ele>1077</ele>
        <time>2015-08-05T12:09:17Z</time>
      </trkpt>
      <trkpt lat="45.9219" lon="3.71254">
        <ele>1075</ele>
        <time>2015-08-05T12:09:19Z</time>
      </trkpt>
      <trkpt lat="45.92188" lon="3.71249">
        <ele>1071</ele>
        <time>2015-08-05T12:09:24Z</time>
      </trkpt>
      <trkpt lat="45.92188" lon="3.71244">
        <ele>1070</ele>
        <time>2015-08-05T12:09:29Z</time>
      </trkpt>
      <trkpt lat="45.92188" lon="3.7124">
        <ele>1069</ele>
        <time>2015-08-05T12:09:31Z</time>
      </trkpt>
      <trkpt lat="45.92187" lon="3.71239">
        <ele>1069</ele>
        <time>2015-08-05T12:09:33Z</time>
      </trkpt>
      <trkpt lat="45.92186" lon="3.71235">
        <ele>1069</ele>
        <time>2015-08-05T12:09:37Z</time>
      </trkpt>
      <trkpt lat="45.92184" lon="3.71233">
        <ele>1068</ele>
        <time>2015-08-05T12:09:39Z</time>
      </trkpt>
      <trkpt lat="45.92185" lon="3.71231">
        <ele>1068</ele>
        <time>2015-08-05T12:09:41Z</time>
      </trkpt>
      <trkpt lat="45.92185" lon="3.71227">
        <ele>1067</ele>
        <time>2015-08-05T12:09:43Z</time>
      </trkpt>
      <trkpt lat="45.92188" lon="3.71223">
        <ele>1067</ele>
        <time>2015-08-05T12:09:46Z</time>
      </trkpt>
      <trkpt lat="45.92188" lon="3.71221">
        <ele>1067</ele>
        <time>2015-08-05T12:09:48Z</time>
      </trkpt>
      <trkpt lat="45.92188" lon="3.71218">
        <ele>1067</ele>
        <time>2015-08-05T12:09:50Z</time>
      </trkpt>
      <trkpt lat="45.92187" lon="3.71215">
        <ele>1067</ele>
        <time>2015-08-05T12:09:52Z</time>
      </trkpt>
      <trkpt lat="45.92186" lon="3.71213">
        <ele>1067</ele>
        <time>2015-08-05T12:09:54Z</time>
      </trkpt>
      <trkpt lat="45.92185" lon="3.7121">
        <ele>1066</ele>
        <time>2015-08-05T12:09:57Z</time>
      </trkpt>
      <trkpt lat="45.92187" lon="3.71206">
        <ele>1065</ele>
        <time>2015-08-05T12:09:59Z</time>
      </trkpt>
      <trkpt lat="45.92186" lon="3.71203">
        <ele>1065</ele>
        <time>2015-08-05T12:10:01Z</time>
      </trkpt>
      <trkpt lat="45.92184" lon="3.71201">
        <ele>1065</ele>
        <time>2015-08-05T12:10:03Z</time>
      </trkpt>
      <trkpt lat="45.92184" lon="3.71196">
        <ele>1065</ele>
        <time>2015-08-05T12:10:06Z</time>
      </trkpt>
      <trkpt lat="45.92184" lon="3.71192">
        <ele>1065</ele>
        <time>2015-08-05T12:10:10Z</time>
      </trkpt>
      <trkpt lat="45.92184" lon="3.71189">
        <ele>1065</ele>
        <time>2015-08-05T12:10:14Z</time>
      </trkpt>
      <trkpt lat="45.92183" lon="3.71186">
        <ele>1065</ele>
        <time>2015-08-05T12:10:16Z</time>
      </trkpt>
      <trkpt lat="45.92184" lon="3.71184">
        <ele>1065</ele>
        <time>2015-08-05T12:10:19Z</time>
      </trkpt>
      <trkpt lat="45.92185" lon="3.71182">
        <ele>1065</ele>
        <time>2015-08-05T12:10:22Z</time>
      </trkpt>
      <trkpt lat="45.92185" lon="3.7118">
        <ele>1065</ele>
        <time>2015-08-05T12:10:24Z</time>
      </trkpt>
      <trkpt lat="45.92184" lon="3.71174">
        <ele>1065</ele>
        <time>2015-08-05T12:10:28Z</time>
      </trkpt>
      <trkpt lat="45.92181" lon="3.71169">
        <ele>1065</ele>
        <time>2015-08-05T12:10:31Z</time>
      </trkpt>
      <trkpt lat="45.9218" lon="3.71165">
        <ele>1066</ele>
        <time>2015-08-05T12:10:34Z</time>
      </trkpt>
      <trkpt lat="45.92177" lon="3.71162">
        <ele>1068</ele>
        <time>2015-08-05T12:10:39Z</time>
      </trkpt>
      <trkpt lat="45.92176" lon="3.7116">
        <ele>1068</ele>
        <time>2015-08-05T12:10:41Z</time>
      </trkpt>
      <trkpt lat="45.92176" lon="3.71156">
        <ele>1068</ele>
        <time>2015-08-05T12:10:47Z</time>
      </trkpt>
      <trkpt lat="45.92178" lon="3.71154">
        <ele>1068</ele>
        <time>2015-08-05T12:10:49Z</time>
      </trkpt>
      <trkpt lat="45.92178" lon="3.71145">
        <ele>1068</ele>
        <time>2015-08-05T12:10:56Z</time>
      </trkpt>
      <trkpt lat="45.92178" lon="3.71144">
        <ele>1066</ele>
        <time>2015-08-05T12:10:58Z</time>
      </trkpt>
      <trkpt lat="45.92179" lon="3.7114">
        <ele>1062</ele>
        <time>2015-08-05T12:11:02Z</time>
      </trkpt>
      <trkpt lat="45.92179" lon="3.71136">
        <ele>1059</ele>
        <time>2015-08-05T12:11:05Z</time>
      </trkpt>
      <trkpt lat="45.92181" lon="3.71135">
        <ele>1057</ele>
        <time>2015-08-05T12:11:08Z</time>
      </trkpt>
      <trkpt lat="45.92179" lon="3.71134">
        <ele>1056</ele>
        <time>2015-08-05T12:11:10Z</time>
      </trkpt>
      <trkpt lat="45.92178" lon="3.71131">
        <ele>1056</ele>
        <time>2015-08-05T12:11:12Z</time>
      </trkpt>
      <trkpt lat="45.92178" lon="3.71127">
        <ele>1056</ele>
        <time>2015-08-05T12:11:14Z</time>
      </trkpt>
      <trkpt lat="45.92176" lon="3.71124">
        <ele>1056</ele>
        <time>2015-08-05T12:11:16Z</time>
      </trkpt>
      <trkpt lat="45.92175" lon="3.71118">
        <ele>1056</ele>
        <time>2015-08-05T12:11:20Z</time>
      </trkpt>
      <trkpt lat="45.9217" lon="3.71112">
        <ele>1056</ele>
        <time>2015-08-05T12:11:25Z</time>
      </trkpt>
      <trkpt lat="45.92168" lon="3.71108">
        <ele>1056</ele>
        <time>2015-08-05T12:11:29Z</time>
      </trkpt>
      <trkpt lat="45.9217" lon="3.71102">
        <ele>1056</ele>
        <time>2015-08-05T12:11:31Z</time>
      </trkpt>
      <trkpt lat="45.92168" lon="3.71095">
        <ele>1057</ele>
        <time>2015-08-05T12:11:35Z</time>
      </trkpt>
      <trkpt lat="45.92167" lon="3.71092">
        <ele>1057</ele>
        <time>2015-08-05T12:11:37Z</time>
      </trkpt>
      <trkpt lat="45.92167" lon="3.71088">
        <ele>1057</ele>
        <time>2015-08-05T12:11:39Z</time>
      </trkpt>
      <trkpt lat="45.92168" lon="3.71084">
        <ele>1057</ele>
        <time>2015-08-05T12:11:44Z</time>
      </trkpt>
      <trkpt lat="45.92168" lon="3.71079">
        <ele>1057</ele>
        <time>2015-08-05T12:11:46Z</time>
      </trkpt>
      <trkpt lat="45.92167" lon="3.7108">
        <ele>1055</ele>
        <time>2015-08-05T12:11:48Z</time>
      </trkpt>
      <trkpt lat="45.92164" lon="3.71075">
        <ele>1055</ele>
        <time>2015-08-05T12:11:53Z</time>
      </trkpt>
      <trkpt lat="45.92162" lon="3.71072">
        <ele>1055</ele>
        <time>2015-08-05T12:11:56Z</time>
      </trkpt>
      <trkpt lat="45.92161" lon="3.71066">
        <ele>1055</ele>
        <time>2015-08-05T12:12:00Z</time>
      </trkpt>
      <trkpt lat="45.92159" lon="3.71062">
        <ele>1054</ele>
        <time>2015-08-05T12:12:03Z</time>
      </trkpt>
      <trkpt lat="45.92159" lon="3.7106">
        <ele>1053</ele>
        <time>2015-08-05T12:12:05Z</time>
      </trkpt>
      <trkpt lat="45.92161" lon="3.71055">
        <ele>1050</ele>
        <time>2015-08-05T12:12:08Z</time>
      </trkpt>
      <trkpt lat="45.9216" lon="3.71053">
        <ele>1048</ele>
        <time>2015-08-05T12:12:11Z</time>
      </trkpt>
      <trkpt lat="45.9216" lon="3.7105">
        <ele>1048</ele>
        <time>2015-08-05T12:12:13Z</time>
      </trkpt>
      <trkpt lat="45.9216" lon="3.71047">
        <ele>1048</ele>
        <time>2015-08-05T12:12:15Z</time>
      </trkpt>
      <trkpt lat="45.92158" lon="3.71045">
        <ele>1048</ele>
        <time>2015-08-05T12:12:17Z</time>
      </trkpt>
      <trkpt lat="45.92157" lon="3.71042">
        <ele>1048</ele>
        <time>2015-08-05T12:12:19Z</time>
      </trkpt>
      <trkpt lat="45.92152" lon="3.71036">
        <ele>1044</ele>
        <time>2015-08-05T12:12:25Z</time>
      </trkpt>
      <trkpt lat="45.9215" lon="3.71033">
        <ele>1044</ele>
        <time>2015-08-05T12:12:27Z</time>
      </trkpt>
      <trkpt lat="45.92148" lon="3.71029">
        <ele>1043</ele>
        <time>2015-08-05T12:12:29Z</time>
      </trkpt>
      <trkpt lat="45.92147" lon="3.71027">
        <ele>1042</ele>
        <time>2015-08-05T12:12:31Z</time>
      </trkpt>
      <trkpt lat="45.92144" lon="3.71025">
        <ele>1042</ele>
        <time>2015-08-05T12:12:35Z</time>
      </trkpt>
      <trkpt lat="45.92142" lon="3.7102">
        <ele>1042</ele>
        <time>2015-08-05T12:12:39Z</time>
      </trkpt>
      <trkpt lat="45.92142" lon="3.71009">
        <ele>1042</ele>
        <time>2015-08-05T12:12:44Z</time>
      </trkpt>
      <trkpt lat="45.92141" lon="3.71003">
        <ele>1042</ele>
        <time>2015-08-05T12:12:46Z</time>
      </trkpt>
      <trkpt lat="45.9214" lon="3.71001">
        <ele>1041</ele>
        <time>2015-08-05T12:12:49Z</time>
      </trkpt>
      <trkpt lat="45.92136" lon="3.70998">
        <ele>1039</ele>
        <time>2015-08-05T12:12:51Z</time>
      </trkpt>
      <trkpt lat="45.92133" lon="3.70991">
        <ele>1035</ele>
        <time>2015-08-05T12:12:56Z</time>
      </trkpt>
      <trkpt lat="45.92133" lon="3.70986">
        <ele>1035</ele>
        <time>2015-08-05T12:12:58Z</time>
      </trkpt>
      <trkpt lat="45.92133" lon="3.70983">
        <ele>1035</ele>
        <time>2015-08-05T12:13:00Z</time>
      </trkpt>
      <trkpt lat="45.92132" lon="3.70981">
        <ele>1034</ele>
        <time>2015-08-05T12:13:02Z</time>
      </trkpt>
      <trkpt lat="45.92132" lon="3.70976">
        <ele>1034</ele>
        <time>2015-08-05T12:13:06Z</time>
      </trkpt>
      <trkpt lat="45.92133" lon="3.7097">
        <ele>1034</ele>
        <time>2015-08-05T12:13:08Z</time>
      </trkpt>
      <trkpt lat="45.92131" lon="3.70966">
        <ele>1034</ele>
        <time>2015-08-05T12:13:11Z</time>
      </trkpt>
      <trkpt lat="45.92131" lon="3.70962">
        <ele>1034</ele>
        <time>2015-08-05T12:13:15Z</time>
      </trkpt>
      <trkpt lat="45.92129" lon="3.70958">
        <ele>1034</ele>
        <time>2015-08-05T12:13:19Z</time>
      </trkpt>
      <trkpt lat="45.92126" lon="3.70953">
        <ele>1034</ele>
        <time>2015-08-05T12:13:21Z</time>
      </trkpt>
      <trkpt lat="45.92123" lon="3.70948">
        <ele>1030</ele>
        <time>2015-08-05T12:13:25Z</time>
      </trkpt>
      <trkpt lat="45.92123" lon="3.70944">
        <ele>1028</ele>
        <time>2015-08-05T12:13:27Z</time>
      </trkpt>
      <trkpt lat="45.92121" lon="3.70942">
        <ele>1027</ele>
        <time>2015-08-05T12:13:29Z</time>
      </trkpt>
      <trkpt lat="45.92118" lon="3.70938">
        <ele>1027</ele>
        <time>2015-08-05T12:13:33Z</time>
      </trkpt>
      <trkpt lat="45.92118" lon="3.7093">
        <ele>1027</ele>
        <time>2015-08-05T12:13:38Z</time>
      </trkpt>
      <trkpt lat="45.92115" lon="3.70928">
        <ele>1027</ele>
        <time>2015-08-05T12:13:41Z</time>
      </trkpt>
      <trkpt lat="45.92114" lon="3.70926">
        <ele>1027</ele>
        <time>2015-08-05T12:13:43Z</time>
      </trkpt>
      <trkpt lat="45.92116" lon="3.70919">
        <ele>1027</ele>
        <time>2015-08-05T12:13:48Z</time>
      </trkpt>
      <trkpt lat="45.92115" lon="3.70917">
        <ele>1025</ele>
        <time>2015-08-05T12:13:50Z</time>
      </trkpt>
      <trkpt lat="45.92113" lon="3.70915">
        <ele>1025</ele>
        <time>2015-08-05T12:13:52Z</time>
      </trkpt>
      <trkpt lat="45.92108" lon="3.70913">
        <ele>1024</ele>
        <time>2015-08-05T12:13:57Z</time>
      </trkpt>
      <trkpt lat="45.92106" lon="3.7091">
        <ele>1024</ele>
        <time>2015-08-05T12:14:00Z</time>
      </trkpt>
      <trkpt lat="45.92105" lon="3.70908">
        <ele>1024</ele>
        <time>2015-08-05T12:14:02Z</time>
      </trkpt>
      <trkpt lat="45.92103" lon="3.70905">
        <ele>1024</ele>
        <time>2015-08-05T12:14:06Z</time>
      </trkpt>
      <trkpt lat="45.92101" lon="3.70905">
        <ele>1024</ele>
        <time>2015-08-05T12:14:08Z</time>
      </trkpt>
      <trkpt lat="45.921" lon="3.70903">
        <ele>1022</ele>
        <time>2015-08-05T12:14:10Z</time>
      </trkpt>
      <trkpt lat="45.92101" lon="3.70901">
        <ele>1020</ele>
        <time>2015-08-05T12:14:12Z</time>
      </trkpt>
      <trkpt lat="45.921" lon="3.70898">
        <ele>1020</ele>
        <time>2015-08-05T12:14:14Z</time>
      </trkpt>
      <trkpt lat="45.92096" lon="3.70894">
        <ele>1020</ele>
        <time>2015-08-05T12:14:18Z</time>
      </trkpt>
      <trkpt lat="45.92096" lon="3.7089">
        <ele>1020</ele>
        <time>2015-08-05T12:14:21Z</time>
      </trkpt>
      <trkpt lat="45.92094" lon="3.70884">
        <ele>1020</ele>
        <time>2015-08-05T12:14:26Z</time>
      </trkpt>
      <trkpt lat="45.92092" lon="3.70883">
        <ele>1020</ele>
        <time>2015-08-05T12:14:28Z</time>
      </trkpt>
      <trkpt lat="45.92091" lon="3.70881">
        <ele>1020</ele>
        <time>2015-08-05T12:14:30Z</time>
      </trkpt>
      <trkpt lat="45.92089" lon="3.70877">
        <ele>1020</ele>
        <time>2015-08-05T12:14:36Z</time>
      </trkpt>
      <trkpt lat="45.92088" lon="3.70869">
        <ele>1020</ele>
        <time>2015-08-05T12:14:42Z</time>
      </trkpt>
      <trkpt lat="45.92086" lon="3.70867">
        <ele>1020</ele>
        <time>2015-08-05T12:14:45Z</time>
      </trkpt>
      <trkpt lat="45.92085" lon="3.70862">
        <ele>1019</ele>
        <time>2015-08-05T12:14:48Z</time>
      </trkpt>
      <trkpt lat="45.92083" lon="3.70856">
        <ele>1015</ele>
        <time>2015-08-05T12:14:52Z</time>
      </trkpt>
      <trkpt lat="45.92082" lon="3.70855">
        <ele>1014</ele>
        <time>2015-08-05T12:14:54Z</time>
      </trkpt>
      <trkpt lat="45.92083" lon="3.70852">
        <ele>1012</ele>
        <time>2015-08-05T12:14:56Z</time>
      </trkpt>
      <trkpt lat="45.92081" lon="3.70851">
        <ele>1008</ele>
        <time>2015-08-05T12:15:00Z</time>
      </trkpt>
      <trkpt lat="45.92083" lon="3.70847">
        <ele>1007</ele>
        <time>2015-08-05T12:15:04Z</time>
      </trkpt>
      <trkpt lat="45.92082" lon="3.70844">
        <ele>1005</ele>
        <time>2015-08-05T12:15:10Z</time>
      </trkpt>
      <trkpt lat="45.92082" lon="3.70839">
        <ele>1004</ele>
        <time>2015-08-05T12:15:14Z</time>
      </trkpt>
      <trkpt lat="45.92085" lon="3.70832">
        <ele>1002</ele>
        <time>2015-08-05T12:15:18Z</time>
      </trkpt>
      <trkpt lat="45.92084" lon="3.7083">
        <ele>1002</ele>
        <time>2015-08-05T12:15:20Z</time>
      </trkpt>
      <trkpt lat="45.92083" lon="3.70826">
        <ele>1002</ele>
        <time>2015-08-05T12:15:22Z</time>
      </trkpt>
      <trkpt lat="45.92081" lon="3.70824">
        <ele>1002</ele>
        <time>2015-08-05T12:15:25Z</time>
      </trkpt>
      <trkpt lat="45.92079" lon="3.70822">
        <ele>1002</ele>
        <time>2015-08-05T12:15:27Z</time>
      </trkpt>
      <trkpt lat="45.92079" lon="3.70821">
        <ele>1004</ele>
        <time>2015-08-05T12:15:29Z</time>
      </trkpt>
      <trkpt lat="45.92078" lon="3.70816">
        <ele>1006</ele>
        <time>2015-08-05T12:15:31Z</time>
      </trkpt>
      <trkpt lat="45.92077" lon="3.70813">
        <ele>1008</ele>
        <time>2015-08-05T12:15:33Z</time>
      </trkpt>
      <trkpt lat="45.92075" lon="3.70812">
        <ele>1009</ele>
        <time>2015-08-05T12:15:35Z</time>
      </trkpt>
      <trkpt lat="45.92074" lon="3.70808">
        <ele>1009</ele>
        <time>2015-08-05T12:15:37Z</time>
      </trkpt>
      <trkpt lat="45.92072" lon="3.70803">
        <ele>1009</ele>
        <time>2015-08-05T12:15:42Z</time>
      </trkpt>
      <trkpt lat="45.92075" lon="3.70794">
        <ele>1009</ele>
        <time>2015-08-05T12:15:44Z</time>
      </trkpt>
      <trkpt lat="45.92076" lon="3.70792">
        <ele>1009</ele>
        <time>2015-08-05T12:15:46Z</time>
      </trkpt>
      <trkpt lat="45.92073" lon="3.7079">
        <ele>1009</ele>
        <time>2015-08-05T12:15:48Z</time>
      </trkpt>
      <trkpt lat="45.92072" lon="3.70786">
        <ele>1009</ele>
        <time>2015-08-05T12:15:50Z</time>
      </trkpt>
      <trkpt lat="45.9207" lon="3.70782">
        <ele>1009</ele>
        <time>2015-08-05T12:15:52Z</time>
      </trkpt>
      <trkpt lat="45.92068" lon="3.70775">
        <ele>1009</ele>
        <time>2015-08-05T12:15:57Z</time>
      </trkpt>
      <trkpt lat="45.92069" lon="3.70773">
        <ele>1009</ele>
        <time>2015-08-05T12:15:59Z</time>
      </trkpt>
      <trkpt lat="45.92067" lon="3.70769">
        <ele>1009</ele>
        <time>2015-08-05T12:16:01Z</time>
      </trkpt>
      <trkpt lat="45.92068" lon="3.70766">
        <ele>1009</ele>
        <time>2015-08-05T12:16:03Z</time>
      </trkpt>
      <trkpt lat="45.92067" lon="3.70762">
        <ele>1007</ele>
        <time>2015-08-05T12:16:07Z</time>
      </trkpt>
      <trkpt lat="45.92067" lon="3.70759">
        <ele>1005</ele>
        <time>2015-08-05T12:16:09Z</time>
      </trkpt>
      <trkpt lat="45.92067" lon="3.70757">
        <ele>1004</ele>
        <time>2015-08-05T12:16:11Z</time>
      </trkpt>
      <trkpt lat="45.92065" lon="3.70754">
        <ele>1004</ele>
        <time>2015-08-05T12:16:13Z</time>
      </trkpt>
      <trkpt lat="45.92066" lon="3.70751">
        <ele>1002</ele>
        <time>2015-08-05T12:16:15Z</time>
      </trkpt>
      <trkpt lat="45.92065" lon="3.70748">
        <ele>1001</ele>
        <time>2015-08-05T12:16:17Z</time>
      </trkpt>
      <trkpt lat="45.92066" lon="3.70743">
        <ele>999</ele>
        <time>2015-08-05T12:16:19Z</time>
      </trkpt>
      <trkpt lat="45.92065" lon="3.7074">
        <ele>997</ele>
        <time>2015-08-05T12:16:22Z</time>
      </trkpt>
      <trkpt lat="45.92065" lon="3.70738">
        <ele>996</ele>
        <time>2015-08-05T12:16:24Z</time>
      </trkpt>
      <trkpt lat="45.92061" lon="3.7073">
        <ele>995</ele>
        <time>2015-08-05T12:16:28Z</time>
      </trkpt>
      <trkpt lat="45.92061" lon="3.70725">
        <ele>995</ele>
        <time>2015-08-05T12:16:30Z</time>
      </trkpt>
      <trkpt lat="45.92061" lon="3.70722">
        <ele>994</ele>
        <time>2015-08-05T12:16:32Z</time>
      </trkpt>
      <trkpt lat="45.9206" lon="3.70721">
        <ele>992</ele>
        <time>2015-08-05T12:16:34Z</time>
      </trkpt>
      <trkpt lat="45.92059" lon="3.70719">
        <ele>992</ele>
        <time>2015-08-05T12:16:36Z</time>
      </trkpt>
      <trkpt lat="45.92057" lon="3.70719">
        <ele>992</ele>
        <time>2015-08-05T12:16:38Z</time>
      </trkpt>
      <trkpt lat="45.92054" lon="3.70715">
        <ele>992</ele>
        <time>2015-08-05T12:16:43Z</time>
      </trkpt>
      <trkpt lat="45.92053" lon="3.70713">
        <ele>992</ele>
        <time>2015-08-05T12:16:45Z</time>
      </trkpt>
      <trkpt lat="45.92054" lon="3.70705">
        <ele>992</ele>
        <time>2015-08-05T12:16:49Z</time>
      </trkpt>
      <trkpt lat="45.92054" lon="3.70702">
        <ele>992</ele>
        <time>2015-08-05T12:16:51Z</time>
      </trkpt>
      <trkpt lat="45.92053" lon="3.70698">
        <ele>991</ele>
        <time>2015-08-05T12:16:53Z</time>
      </trkpt>
      <trkpt lat="45.92053" lon="3.70695">
        <ele>990</ele>
        <time>2015-08-05T12:16:55Z</time>
      </trkpt>
      <trkpt lat="45.92053" lon="3.70692">
        <ele>990</ele>
        <time>2015-08-05T12:16:58Z</time>
      </trkpt>
      <trkpt lat="45.92052" lon="3.7069">
        <ele>990</ele>
        <time>2015-08-05T12:17:00Z</time>
      </trkpt>
      <trkpt lat="45.92051" lon="3.70687">
        <ele>988</ele>
        <time>2015-08-05T12:17:03Z</time>
      </trkpt>
      <trkpt lat="45.9205" lon="3.70686">
        <ele>988</ele>
        <time>2015-08-05T12:17:05Z</time>
      </trkpt>
      <trkpt lat="45.92048" lon="3.70685">
        <ele>988</ele>
        <time>2015-08-05T12:17:09Z</time>
      </trkpt>
      <trkpt lat="45.92048" lon="3.70681">
        <ele>988</ele>
        <time>2015-08-05T12:17:13Z</time>
      </trkpt>
      <trkpt lat="45.92048" lon="3.70679">
        <ele>988</ele>
        <time>2015-08-05T12:17:15Z</time>
      </trkpt>
      <trkpt lat="45.92046" lon="3.70678">
        <ele>987</ele>
        <time>2015-08-05T12:17:17Z</time>
      </trkpt>
      <trkpt lat="45.92046" lon="3.70675">
        <ele>986</ele>
        <time>2015-08-05T12:17:20Z</time>
      </trkpt>
      <trkpt lat="45.92044" lon="3.70672">
        <ele>985</ele>
        <time>2015-08-05T12:17:22Z</time>
      </trkpt>
      <trkpt lat="45.92043" lon="3.7067">
        <ele>984</ele>
        <time>2015-08-05T12:17:24Z</time>
      </trkpt>
      <trkpt lat="45.92041" lon="3.70667">
        <ele>984</ele>
        <time>2015-08-05T12:17:26Z</time>
      </trkpt>
      <trkpt lat="45.92041" lon="3.70665">
        <ele>981</ele>
        <time>2015-08-05T12:17:35Z</time>
      </trkpt>
      <trkpt lat="45.92044" lon="3.70665">
        <ele>980</ele>
        <time>2015-08-05T12:17:37Z</time>
      </trkpt>
      <trkpt lat="45.92042" lon="3.70659">
        <ele>980</ele>
        <time>2015-08-05T12:17:40Z</time>
      </trkpt>
      <trkpt lat="45.92041" lon="3.70657">
        <ele>980</ele>
        <time>2015-08-05T12:17:43Z</time>
      </trkpt>
      <trkpt lat="45.92039" lon="3.70655">
        <ele>980</ele>
        <time>2015-08-05T12:17:49Z</time>
      </trkpt>
      <trkpt lat="45.92038" lon="3.70653">
        <ele>980</ele>
        <time>2015-08-05T12:17:52Z</time>
      </trkpt>
      <trkpt lat="45.92036" lon="3.70652">
        <ele>980</ele>
        <time>2015-08-05T12:17:54Z</time>
      </trkpt>
      <trkpt lat="45.92035" lon="3.70651">
        <ele>980</ele>
        <time>2015-08-05T12:17:56Z</time>
      </trkpt>
      <trkpt lat="45.92033" lon="3.70651">
        <ele>980</ele>
        <time>2015-08-05T12:17:58Z</time>
      </trkpt>
      <trkpt lat="45.92032" lon="3.70649">
        <ele>980</ele>
        <time>2015-08-05T12:18:00Z</time>
      </trkpt>
      <trkpt lat="45.92032" lon="3.70647">
        <ele>980</ele>
        <time>2015-08-05T12:18:03Z</time>
      </trkpt>
      <trkpt lat="45.92029" lon="3.70647">
        <ele>979</ele>
        <time>2015-08-05T12:18:09Z</time>
      </trkpt>
      <trkpt lat="45.92026" lon="3.70645">
        <ele>978</ele>
        <time>2015-08-05T12:18:11Z</time>
      </trkpt>
      <trkpt lat="45.92023" lon="3.70642">
        <ele>976</ele>
        <time>2015-08-05T12:18:13Z</time>
      </trkpt>
      <trkpt lat="45.92022" lon="3.70643">
        <ele>974</ele>
        <time>2015-08-05T12:18:16Z</time>
      </trkpt>
      <trkpt lat="45.92018" lon="3.70637">
        <ele>973</ele>
        <time>2015-08-05T12:18:20Z</time>
      </trkpt>
      <trkpt lat="45.92014" lon="3.70634">
        <ele>972</ele>
        <time>2015-08-05T12:18:24Z</time>
      </trkpt>
      <trkpt lat="45.92014" lon="3.70628">
        <ele>971</ele>
        <time>2015-08-05T12:18:30Z</time>
      </trkpt>
      <trkpt lat="45.92017" lon="3.70622">
        <ele>968</ele>
        <time>2015-08-05T12:18:35Z</time>
      </trkpt>
      <trkpt lat="45.92015" lon="3.7062">
        <ele>965</ele>
        <time>2015-08-05T12:18:40Z</time>
      </trkpt>
      <trkpt lat="45.92012" lon="3.7062">
        <ele>965</ele>
        <time>2015-08-05T12:18:42Z</time>
      </trkpt>
      <trkpt lat="45.92013" lon="3.7062">
        <ele>965</ele>
        <time>2015-08-05T12:18:44Z</time>
      </trkpt>
      <trkpt lat="45.92016" lon="3.7062">
        <ele>964</ele>
        <time>2015-08-05T12:18:49Z</time>
      </trkpt>
      <trkpt lat="45.92014" lon="3.7062">
        <ele>961</ele>
        <time>2015-08-05T12:18:52Z</time>
      </trkpt>
      <trkpt lat="45.92014" lon="3.70621">
        <ele>957</ele>
        <time>2015-08-05T12:18:56Z</time>
      </trkpt>
      <trkpt lat="45.92016" lon="3.70622">
        <ele>955</ele>
        <time>2015-08-05T12:18:59Z</time>
      </trkpt>
      <trkpt lat="45.92015" lon="3.70623">
        <ele>955</ele>
        <time>2015-08-05T12:19:03Z</time>
      </trkpt>
      <trkpt lat="45.92013" lon="3.70626">
        <ele>955</ele>
        <time>2015-08-05T12:19:05Z</time>
      </trkpt>
      <trkpt lat="45.92011" lon="3.70625">
        <ele>955</ele>
        <time>2015-08-05T12:19:11Z</time>
      </trkpt>
      <trkpt lat="45.92012" lon="3.70623">
        <ele>955</ele>
        <time>2015-08-05T12:19:13Z</time>
      </trkpt>
      <trkpt lat="45.92014" lon="3.70625">
        <ele>955</ele>
        <time>2015-08-05T12:19:16Z</time>
      </trkpt>
      <trkpt lat="45.92015" lon="3.70625">
        <ele>954</ele>
        <time>2015-08-05T12:19:18Z</time>
      </trkpt>
      <trkpt lat="45.92017" lon="3.70626">
        <ele>954</ele>
        <time>2015-08-05T12:19:21Z</time>
      </trkpt>
      <trkpt lat="45.92018" lon="3.70626">
        <ele>954</ele>
        <time>2015-08-05T12:19:23Z</time>
      </trkpt>
      <trkpt lat="45.92015" lon="3.70625">
        <ele>954</ele>
        <time>2015-08-05T12:19:28Z</time>
      </trkpt>
      <trkpt lat="45.92018" lon="3.70627">
        <ele>958</ele>
        <time>2015-08-05T12:19:34Z</time>
      </trkpt>
      <trkpt lat="45.92017" lon="3.70628">
        <ele>958</ele>
        <time>2015-08-05T12:19:38Z</time>
      </trkpt>
      <trkpt lat="45.92016" lon="3.70626">
        <ele>958</ele>
        <time>2015-08-05T12:19:41Z</time>
      </trkpt>
      <trkpt lat="45.92016" lon="3.70624">
        <ele>958</ele>
        <time>2015-08-05T12:19:43Z</time>
      </trkpt>
      <trkpt lat="45.92014" lon="3.70632">
        <ele>955</ele>
        <time>2015-08-05T12:19:52Z</time>
      </trkpt>
      <trkpt lat="45.92015" lon="3.70636">
        <ele>955</ele>
        <time>2015-08-05T12:19:56Z</time>
      </trkpt>
      <trkpt lat="45.92014" lon="3.70639">
        <ele>955</ele>
        <time>2015-08-05T12:19:58Z</time>
      </trkpt>
      <trkpt lat="45.92011" lon="3.70644">
        <ele>956</ele>
        <time>2015-08-05T12:20:03Z</time>
      </trkpt>
      <trkpt lat="45.92009" lon="3.70645">
        <ele>959</ele>
        <time>2015-08-05T12:20:06Z</time>
      </trkpt>
      <trkpt lat="45.92006" lon="3.70644">
        <ele>961</ele>
        <time>2015-08-05T12:20:08Z</time>
      </trkpt>
      <trkpt lat="45.92005" lon="3.70645">
        <ele>963</ele>
        <time>2015-08-05T12:20:10Z</time>
      </trkpt>
      <trkpt lat="45.92004" lon="3.70644">
        <ele>969</ele>
        <time>2015-08-05T12:20:13Z</time>
      </trkpt>
      <trkpt lat="45.92005" lon="3.70643">
        <ele>975</ele>
        <time>2015-08-05T12:20:15Z</time>
      </trkpt>
      <trkpt lat="45.92006" lon="3.70643">
        <ele>991</ele>
        <time>2015-08-05T12:20:24Z</time>
      </trkpt>
      <trkpt lat="45.9201" lon="3.70644">
        <ele>1000</ele>
        <time>2015-08-05T12:20:30Z</time>
      </trkpt>
      <trkpt lat="45.92011" lon="3.70643">
        <ele>1001</ele>
        <time>2015-08-05T12:20:35Z</time>
      </trkpt>
      <trkpt lat="45.9201" lon="3.70641">
        <ele>1001</ele>
        <time>2015-08-05T12:20:37Z</time>
      </trkpt>
      <trkpt lat="45.9201" lon="3.70639">
        <ele>999</ele>
        <time>2015-08-05T12:20:39Z</time>
      </trkpt>
      <trkpt lat="45.9201" lon="3.70637">
        <ele>983</ele>
        <time>2015-08-05T12:20:47Z</time>
      </trkpt>
      <trkpt lat="45.92009" lon="3.70639">
        <ele>977</ele>
        <time>2015-08-05T12:20:50Z</time>
      </trkpt>
      <trkpt lat="45.9201" lon="3.70637">
        <ele>965</ele>
        <time>2015-08-05T12:20:56Z</time>
      </trkpt>
      <trkpt lat="45.92012" lon="3.70637">
        <ele>960</ele>
        <time>2015-08-05T12:20:59Z</time>
      </trkpt>
      <trkpt lat="45.92011" lon="3.70635">
        <ele>953</ele>
        <time>2015-08-05T12:21:10Z</time>
      </trkpt>
      <trkpt lat="45.92013" lon="3.70634">
        <ele>953</ele>
        <time>2015-08-05T12:21:13Z</time>
      </trkpt>
      <trkpt lat="45.92013" lon="3.70633">
        <ele>953</ele>
        <time>2015-08-05T12:21:15Z</time>
      </trkpt>
      <trkpt lat="45.92017" lon="3.70635">
        <ele>953</ele>
        <time>2015-08-05T12:21:22Z</time>
      </trkpt>
      <trkpt lat="45.92018" lon="3.70637">
        <ele>953</ele>
        <time>2015-08-05T12:21:25Z</time>
      </trkpt>
      <trkpt lat="45.92011" lon="3.70639">
        <ele>967</ele>
        <time>2015-08-05T12:21:34Z</time>
      </trkpt>
      <trkpt lat="45.9201" lon="3.70638">
        <ele>974</ele>
        <time>2015-08-05T12:21:38Z</time>
      </trkpt>
      <trkpt lat="45.9201" lon="3.70636">
        <ele>978</ele>
        <time>2015-08-05T12:21:42Z</time>
      </trkpt>
      <trkpt lat="45.92011" lon="3.70632">
        <ele>979</ele>
        <time>2015-08-05T12:21:45Z</time>
      </trkpt>
      <trkpt lat="45.92014" lon="3.70631">
        <ele>971</ele>
        <time>2015-08-05T12:21:55Z</time>
      </trkpt>
      <trkpt lat="45.92015" lon="3.70632">
        <ele>967</ele>
        <time>2015-08-05T12:21:59Z</time>
      </trkpt>
      <trkpt lat="45.92013" lon="3.70636">
        <ele>961</ele>
        <time>2015-08-05T12:22:06Z</time>
      </trkpt>
      <trkpt lat="45.92012" lon="3.70637">
        <ele>961</ele>
        <time>2015-08-05T12:22:10Z</time>
      </trkpt>
      <trkpt lat="45.9201" lon="3.70636">
        <ele>961</ele>
        <time>2015-08-05T12:22:13Z</time>
      </trkpt>
      <trkpt lat="45.92009" lon="3.70632">
        <ele>962</ele>
        <time>2015-08-05T12:22:21Z</time>
      </trkpt>
      <trkpt lat="45.92008" lon="3.70631">
        <ele>964</ele>
        <time>2015-08-05T12:22:25Z</time>
      </trkpt>
      <trkpt lat="45.92008" lon="3.70629">
        <ele>965</ele>
        <time>2015-08-05T12:22:27Z</time>
      </trkpt>
      <trkpt lat="45.9201" lon="3.70628">
        <ele>965</ele>
        <time>2015-08-05T12:22:30Z</time>
      </trkpt>
      <trkpt lat="45.92007" lon="3.70628">
        <ele>966</ele>
        <time>2015-08-05T12:22:33Z</time>
      </trkpt>
      <trkpt lat="45.92004" lon="3.70627">
        <ele>967</ele>
        <time>2015-08-05T12:22:38Z</time>
      </trkpt>
      <trkpt lat="45.92004" lon="3.70631">
        <ele>967</ele>
        <time>2015-08-05T12:22:43Z</time>
      </trkpt>
      <trkpt lat="45.92005" lon="3.70632">
        <ele>964</ele>
        <time>2015-08-05T12:22:46Z</time>
      </trkpt>
      <trkpt lat="45.92006" lon="3.70634">
        <ele>962</ele>
        <time>2015-08-05T12:22:48Z</time>
      </trkpt>
      <trkpt lat="45.92007" lon="3.70636">
        <ele>961</ele>
        <time>2015-08-05T12:22:51Z</time>
      </trkpt>
      <trkpt lat="45.92008" lon="3.70637">
        <ele>960</ele>
        <time>2015-08-05T12:22:55Z</time>
      </trkpt>
      <trkpt lat="45.92009" lon="3.70635">
        <ele>962</ele>
        <time>2015-08-05T12:23:07Z</time>
      </trkpt>
      <trkpt lat="45.92015" lon="3.70629">
        <ele>965</ele>
        <time>2015-08-05T12:23:16Z</time>
      </trkpt>
      <trkpt lat="45.92021" lon="3.70618">
        <ele>966</ele>
        <time>2015-08-05T12:23:25Z</time>
      </trkpt>
      <trkpt lat="45.92022" lon="3.70617">
        <ele>966</ele>
        <time>2015-08-05T12:23:27Z</time>
      </trkpt>
      <trkpt lat="45.92023" lon="3.70616">
        <ele>965</ele>
        <time>2015-08-05T12:23:30Z</time>
      </trkpt>
      <trkpt lat="45.92023" lon="3.70614">
        <ele>964</ele>
        <time>2015-08-05T12:23:34Z</time>
      </trkpt>
      <trkpt lat="45.92024" lon="3.70613">
        <ele>964</ele>
        <time>2015-08-05T12:23:41Z</time>
      </trkpt>
      <trkpt lat="45.92025" lon="3.70612">
        <ele>964</ele>
        <time>2015-08-05T12:23:43Z</time>
      </trkpt>
      <trkpt lat="45.92027" lon="3.70613">
        <ele>964</ele>
        <time>2015-08-05T12:23:49Z</time>
      </trkpt>
      <trkpt lat="45.92028" lon="3.70617">
        <ele>959</ele>
        <time>2015-08-05T12:23:54Z</time>
      </trkpt>
      <trkpt lat="45.92028" lon="3.70619">
        <ele>956</ele>
        <time>2015-08-05T12:23:57Z</time>
      </trkpt>
      <trkpt lat="45.92025" lon="3.70621">
        <ele>953</ele>
        <time>2015-08-05T12:24:05Z</time>
      </trkpt>
      <trkpt lat="45.92025" lon="3.70624">
        <ele>951</ele>
        <time>2015-08-05T12:24:13Z</time>
      </trkpt>
      <trkpt lat="45.92025" lon="3.70625">
        <ele>949</ele>
        <time>2015-08-05T12:24:16Z</time>
      </trkpt>
      <trkpt lat="45.92025" lon="3.70627">
        <ele>948</ele>
        <time>2015-08-05T12:24:21Z</time>
      </trkpt>
      <trkpt lat="45.92023" lon="3.70627">
        <ele>948</ele>
        <time>2015-08-05T12:24:23Z</time>
      </trkpt>
      <trkpt lat="45.92022" lon="3.70628">
        <ele>948</ele>
        <time>2015-08-05T12:24:28Z</time>
      </trkpt>
      <trkpt lat="45.92018" lon="3.70626">
        <ele>948</ele>
        <time>2015-08-05T12:24:31Z</time>
      </trkpt>
      <trkpt lat="45.92016" lon="3.70625">
        <ele>950</ele>
        <time>2015-08-05T12:24:33Z</time>
      </trkpt>
      <trkpt lat="45.92016" lon="3.70627">
        <ele>953</ele>
        <time>2015-08-05T12:24:36Z</time>
      </trkpt>
      <trkpt lat="45.92015" lon="3.70627">
        <ele>956</ele>
        <time>2015-08-05T12:24:39Z</time>
      </trkpt>
      <trkpt lat="45.92012" lon="3.70628">
        <ele>959</ele>
        <time>2015-08-05T12:24:42Z</time>
      </trkpt>
      <trkpt lat="45.9201" lon="3.70631">
        <ele>960</ele>
        <time>2015-08-05T12:24:44Z</time>
      </trkpt>
      <trkpt lat="45.92008" lon="3.70632">
        <ele>961</ele>
        <time>2015-08-05T12:24:46Z</time>
      </trkpt>
      <trkpt lat="45.92005" lon="3.7063">
        <ele>963</ele>
        <time>2015-08-05T12:24:50Z</time>
      </trkpt>
      <trkpt lat="45.92008" lon="3.70629">
        <ele>966</ele>
        <time>2015-08-05T12:24:57Z</time>
      </trkpt>
      <trkpt lat="45.92011" lon="3.70625">
        <ele>964</ele>
        <time>2015-08-05T12:25:02Z</time>
      </trkpt>
      <trkpt lat="45.92014" lon="3.70622">
        <ele>959</ele>
        <time>2015-08-05T12:25:07Z</time>
      </trkpt>
      <trkpt lat="45.92017" lon="3.70622">
        <ele>955</ele>
        <time>2015-08-05T12:25:13Z</time>
      </trkpt>
      <trkpt lat="45.92019" lon="3.70622">
        <ele>955</ele>
        <time>2015-08-05T12:25:15Z</time>
      </trkpt>
      <trkpt lat="45.92018" lon="3.7062">
        <ele>955</ele>
        <time>2015-08-05T12:25:19Z</time>
      </trkpt>
      <trkpt lat="45.92016" lon="3.70618">
        <ele>955</ele>
        <time>2015-08-05T12:25:21Z</time>
      </trkpt>
      <trkpt lat="45.92012" lon="3.70612">
        <ele>962</ele>
        <time>2015-08-05T12:25:30Z</time>
      </trkpt>
      <trkpt lat="45.92013" lon="3.70614">
        <ele>962</ele>
        <time>2015-08-05T12:25:36Z</time>
      </trkpt>
      <trkpt lat="45.92014" lon="3.70614">
        <ele>962</ele>
        <time>2015-08-05T12:25:39Z</time>
      </trkpt>
      <trkpt lat="45.92016" lon="3.70613">
        <ele>960</ele>
        <time>2015-08-05T12:25:44Z</time>
      </trkpt>
      <trkpt lat="45.92016" lon="3.70611">
        <ele>955</ele>
        <time>2015-08-05T12:25:48Z</time>
      </trkpt>
      <trkpt lat="45.92017" lon="3.70609">
        <ele>954</ele>
        <time>2015-08-05T12:25:52Z</time>
      </trkpt>
      <trkpt lat="45.92017" lon="3.70605">
        <ele>954</ele>
        <time>2015-08-05T12:25:55Z</time>
      </trkpt>
      <trkpt lat="45.92018" lon="3.70604">
        <ele>954</ele>
        <time>2015-08-05T12:25:57Z</time>
      </trkpt>
      <trkpt lat="45.92019" lon="3.70599">
        <ele>954</ele>
        <time>2015-08-05T12:25:59Z</time>
      </trkpt>
      <trkpt lat="45.9202" lon="3.70594">
        <ele>954</ele>
        <time>2015-08-05T12:26:02Z</time>
      </trkpt>
      <trkpt lat="45.92018" lon="3.70592">
        <ele>954</ele>
        <time>2015-08-05T12:26:05Z</time>
      </trkpt>
      <trkpt lat="45.92017" lon="3.70588">
        <ele>954</ele>
        <time>2015-08-05T12:26:09Z</time>
      </trkpt>
      <trkpt lat="45.92017" lon="3.70582">
        <ele>954</ele>
        <time>2015-08-05T12:26:11Z</time>
      </trkpt>
      <trkpt lat="45.92017" lon="3.70579">
        <ele>954</ele>
        <time>2015-08-05T12:26:14Z</time>
      </trkpt>
      <trkpt lat="45.92017" lon="3.70576">
        <ele>954</ele>
        <time>2015-08-05T12:26:17Z</time>
      </trkpt>
      <trkpt lat="45.92014" lon="3.70567">
        <ele>955</ele>
        <time>2015-08-05T12:26:23Z</time>
      </trkpt>
      <trkpt lat="45.92014" lon="3.70565">
        <ele>955</ele>
        <time>2015-08-05T12:26:26Z</time>
      </trkpt>
      <trkpt lat="45.92012" lon="3.70561">
        <ele>955</ele>
        <time>2015-08-05T12:26:29Z</time>
      </trkpt>
      <trkpt lat="45.92012" lon="3.70557">
        <ele>955</ele>
        <time>2015-08-05T12:26:33Z</time>
      </trkpt>
      <trkpt lat="45.92011" lon="3.70551">
        <ele>955</ele>
        <time>2015-08-05T12:26:35Z</time>
      </trkpt>
      <trkpt lat="45.9201" lon="3.70547">
        <ele>955</ele>
        <time>2015-08-05T12:26:39Z</time>
      </trkpt>
      <trkpt lat="45.92007" lon="3.70542">
        <ele>955</ele>
        <time>2015-08-05T12:26:42Z</time>
      </trkpt>
      <trkpt lat="45.92006" lon="3.70536">
        <ele>955</ele>
        <time>2015-08-05T12:26:47Z</time>
      </trkpt>
      <trkpt lat="45.92004" lon="3.70533">
        <ele>955</ele>
        <time>2015-08-05T12:26:51Z</time>
      </trkpt>
      <trkpt lat="45.91998" lon="3.70523">
        <ele>955</ele>
        <time>2015-08-05T12:26:56Z</time>
      </trkpt>
      <trkpt lat="45.91997" lon="3.70511">
        <ele>955</ele>
        <time>2015-08-05T12:27:03Z</time>
      </trkpt>
      <trkpt lat="45.91998" lon="3.70502">
        <ele>955</ele>
        <time>2015-08-05T12:27:06Z</time>
      </trkpt>
      <trkpt lat="45.91995" lon="3.70495">
        <ele>952</ele>
        <time>2015-08-05T12:27:09Z</time>
      </trkpt>
      <trkpt lat="45.91991" lon="3.70493">
        <ele>950</ele>
        <time>2015-08-05T12:27:13Z</time>
      </trkpt>
      <trkpt lat="45.91983" lon="3.70492">
        <ele>949</ele>
        <time>2015-08-05T12:27:16Z</time>
      </trkpt>
      <trkpt lat="45.9198" lon="3.70493">
        <ele>949</ele>
        <time>2015-08-05T12:27:19Z</time>
      </trkpt>
      <trkpt lat="45.91977" lon="3.70488">
        <ele>943</ele>
        <time>2015-08-05T12:27:25Z</time>
      </trkpt>
      <trkpt lat="45.91974" lon="3.70487">
        <ele>941</ele>
        <time>2015-08-05T12:27:28Z</time>
      </trkpt>
      <trkpt lat="45.91964" lon="3.70486">
        <ele>940</ele>
        <time>2015-08-05T12:27:30Z</time>
      </trkpt>
      <trkpt lat="45.9196" lon="3.70484">
        <ele>940</ele>
        <time>2015-08-05T12:27:33Z</time>
      </trkpt>
      <trkpt lat="45.91957" lon="3.70482">
        <ele>940</ele>
        <time>2015-08-05T12:27:36Z</time>
      </trkpt>
      <trkpt lat="45.91954" lon="3.70478">
        <ele>940</ele>
        <time>2015-08-05T12:27:40Z</time>
      </trkpt>
      <trkpt lat="45.91952" lon="3.70472">
        <ele>942</ele>
        <time>2015-08-05T12:27:42Z</time>
      </trkpt>
      <trkpt lat="45.91953" lon="3.70474">
        <ele>944</ele>
        <time>2015-08-05T12:27:45Z</time>
      </trkpt>
      <trkpt lat="45.91958" lon="3.70476">
        <ele>946</ele>
        <time>2015-08-05T12:27:47Z</time>
      </trkpt>
      <trkpt lat="45.9196" lon="3.70475">
        <ele>948</ele>
        <time>2015-08-05T12:27:50Z</time>
      </trkpt>
      <trkpt lat="45.91961" lon="3.70473">
        <ele>948</ele>
        <time>2015-08-05T12:27:55Z</time>
      </trkpt>
      <trkpt lat="45.91958" lon="3.70471">
        <ele>948</ele>
        <time>2015-08-05T12:28:01Z</time>
      </trkpt>
      <trkpt lat="45.91953" lon="3.70468">
        <ele>948</ele>
        <time>2015-08-05T12:28:06Z</time>
      </trkpt>
      <trkpt lat="45.91948" lon="3.70468">
        <ele>948</ele>
        <time>2015-08-05T12:28:08Z</time>
      </trkpt>
      <trkpt lat="45.91946" lon="3.70469">
        <ele>948</ele>
        <time>2015-08-05T12:28:11Z</time>
      </trkpt>
      <trkpt lat="45.91941" lon="3.70471">
        <ele>948</ele>
        <time>2015-08-05T12:28:13Z</time>
      </trkpt>
      <trkpt lat="45.91935" lon="3.70474">
        <ele>951</ele>
        <time>2015-08-05T12:28:19Z</time>
      </trkpt>
      <trkpt lat="45.91932" lon="3.70473">
        <ele>952</ele>
        <time>2015-08-05T12:28:22Z</time>
      </trkpt>
      <trkpt lat="45.91925" lon="3.70472">
        <ele>952</ele>
        <time>2015-08-05T12:28:29Z</time>
      </trkpt>
      <trkpt lat="45.91922" lon="3.70471">
        <ele>952</ele>
        <time>2015-08-05T12:28:31Z</time>
      </trkpt>
      <trkpt lat="45.9192" lon="3.70471">
        <ele>952</ele>
        <time>2015-08-05T12:28:33Z</time>
      </trkpt>
      <trkpt lat="45.91918" lon="3.70473">
        <ele>952</ele>
        <time>2015-08-05T12:28:37Z</time>
      </trkpt>
      <trkpt lat="45.91913" lon="3.70474">
        <ele>952</ele>
        <time>2015-08-05T12:28:39Z</time>
      </trkpt>
      <trkpt lat="45.91904" lon="3.70474">
        <ele>952</ele>
        <time>2015-08-05T12:28:45Z</time>
      </trkpt>
      <trkpt lat="45.91902" lon="3.70474">
        <ele>952</ele>
        <time>2015-08-05T12:28:48Z</time>
      </trkpt>
      <trkpt lat="45.91896" lon="3.70479">
        <ele>952</ele>
        <time>2015-08-05T12:28:51Z</time>
      </trkpt>
      <trkpt lat="45.91893" lon="3.7048">
        <ele>953</ele>
        <time>2015-08-05T12:28:54Z</time>
      </trkpt>
      <trkpt lat="45.91889" lon="3.70481">
        <ele>956</ele>
        <time>2015-08-05T12:28:57Z</time>
      </trkpt>
      <trkpt lat="45.91885" lon="3.70483">
        <ele>956</ele>
        <time>2015-08-05T12:28:59Z</time>
      </trkpt>
      <trkpt lat="45.91874" lon="3.70484">
        <ele>956</ele>
        <time>2015-08-05T12:29:07Z</time>
      </trkpt>
      <trkpt lat="45.91865" lon="3.70485">
        <ele>956</ele>
        <time>2015-08-05T12:29:12Z</time>
      </trkpt>
      <trkpt lat="45.91862" lon="3.70484">
        <ele>956</ele>
        <time>2015-08-05T12:29:15Z</time>
      </trkpt>
      <trkpt lat="45.91856" lon="3.70483">
        <ele>958</ele>
        <time>2015-08-05T12:29:17Z</time>
      </trkpt>
      <trkpt lat="45.9185" lon="3.70481">
        <ele>958</ele>
        <time>2015-08-05T12:29:22Z</time>
      </trkpt>
      <trkpt lat="45.91847" lon="3.7048">
        <ele>958</ele>
        <time>2015-08-05T12:29:25Z</time>
      </trkpt>
      <trkpt lat="45.91841" lon="3.70478">
        <ele>958</ele>
        <time>2015-08-05T12:29:32Z</time>
      </trkpt>
      <trkpt lat="45.91837" lon="3.70481">
        <ele>957</ele>
        <time>2015-08-05T12:29:35Z</time>
      </trkpt>
      <trkpt lat="45.91834" lon="3.70481">
        <ele>957</ele>
        <time>2015-08-05T12:29:38Z</time>
      </trkpt>
      <trkpt lat="45.91828" lon="3.70479">
        <ele>956</ele>
        <time>2015-08-05T12:29:41Z</time>
      </trkpt>
      <trkpt lat="45.91827" lon="3.7048">
        <ele>955</ele>
        <time>2015-08-05T12:29:44Z</time>
      </trkpt>
      <trkpt lat="45.91825" lon="3.7048">
        <ele>953</ele>
        <time>2015-08-05T12:29:46Z</time>
      </trkpt>
      <trkpt lat="45.91815" lon="3.70478">
        <ele>950</ele>
        <time>2015-08-05T12:29:54Z</time>
      </trkpt>
      <trkpt lat="45.91813" lon="3.70479">
        <ele>949</ele>
        <time>2015-08-05T12:29:56Z</time>
      </trkpt>
      <trkpt lat="45.91806" lon="3.70474">
        <ele>949</ele>
        <time>2015-08-05T12:30:01Z</time>
      </trkpt>
      <trkpt lat="45.91796" lon="3.70469">
        <ele>949</ele>
        <time>2015-08-05T12:30:07Z</time>
      </trkpt>
      <trkpt lat="45.91794" lon="3.70471">
        <ele>948</ele>
        <time>2015-08-05T12:30:10Z</time>
      </trkpt>
      <trkpt lat="45.91791" lon="3.70469">
        <ele>948</ele>
        <time>2015-08-05T12:30:12Z</time>
      </trkpt>
      <trkpt lat="45.91788" lon="3.7047">
        <ele>948</ele>
        <time>2015-08-05T12:30:16Z</time>
      </trkpt>
      <trkpt lat="45.91782" lon="3.7047">
        <ele>948</ele>
        <time>2015-08-05T12:30:21Z</time>
      </trkpt>
      <trkpt lat="45.91779" lon="3.70471">
        <ele>948</ele>
        <time>2015-08-05T12:30:24Z</time>
      </trkpt>
      <trkpt lat="45.91771" lon="3.70469">
        <ele>948</ele>
        <time>2015-08-05T12:30:29Z</time>
      </trkpt>
      <trkpt lat="45.91769" lon="3.7047">
        <ele>948</ele>
        <time>2015-08-05T12:30:32Z</time>
      </trkpt>
      <trkpt lat="45.91765" lon="3.7047">
        <ele>948</ele>
        <time>2015-08-05T12:30:34Z</time>
      </trkpt>
      <trkpt lat="45.91754" lon="3.70463">
        <ele>948</ele>
        <time>2015-08-05T12:30:46Z</time>
      </trkpt>
      <trkpt lat="45.91752" lon="3.70463">
        <ele>948</ele>
        <time>2015-08-05T12:30:48Z</time>
      </trkpt>
      <trkpt lat="45.9175" lon="3.70461">
        <ele>948</ele>
        <time>2015-08-05T12:30:50Z</time>
      </trkpt>
      <trkpt lat="45.91749" lon="3.70457">
        <ele>947</ele>
        <time>2015-08-05T12:30:54Z</time>
      </trkpt>
      <trkpt lat="45.91747" lon="3.70455">
        <ele>945</ele>
        <time>2015-08-05T12:30:56Z</time>
      </trkpt>
      <trkpt lat="45.91741" lon="3.7045">
        <ele>945</ele>
        <time>2015-08-05T12:31:00Z</time>
      </trkpt>
      <trkpt lat="45.91738" lon="3.70446">
        <ele>945</ele>
        <time>2015-08-05T12:31:04Z</time>
      </trkpt>
      <trkpt lat="45.91736" lon="3.70439">
        <ele>945</ele>
        <time>2015-08-05T12:31:06Z</time>
      </trkpt>
      <trkpt lat="45.91733" lon="3.70436">
        <ele>944</ele>
        <time>2015-08-05T12:31:09Z</time>
      </trkpt>
      <trkpt lat="45.91731" lon="3.70431">
        <ele>944</ele>
        <time>2015-08-05T12:31:11Z</time>
      </trkpt>
      <trkpt lat="45.91727" lon="3.70424">
        <ele>944</ele>
        <time>2015-08-05T12:31:16Z</time>
      </trkpt>
      <trkpt lat="45.91724" lon="3.70417">
        <ele>944</ele>
        <time>2015-08-05T12:31:22Z</time>
      </trkpt>
      <trkpt lat="45.91722" lon="3.70414">
        <ele>944</ele>
        <time>2015-08-05T12:31:24Z</time>
      </trkpt>
      <trkpt lat="45.9172" lon="3.70412">
        <ele>944</ele>
        <time>2015-08-05T12:31:26Z</time>
      </trkpt>
      <trkpt lat="45.91719" lon="3.70409">
        <ele>944</ele>
        <time>2015-08-05T12:31:30Z</time>
      </trkpt>
      <trkpt lat="45.91719" lon="3.70401">
        <ele>945</ele>
        <time>2015-08-05T12:31:35Z</time>
      </trkpt>
      <trkpt lat="45.91719" lon="3.70395">
        <ele>945</ele>
        <time>2015-08-05T12:31:37Z</time>
      </trkpt>
      <trkpt lat="45.91716" lon="3.70388">
        <ele>943</ele>
        <time>2015-08-05T12:31:45Z</time>
      </trkpt>
      <trkpt lat="45.91713" lon="3.70375">
        <ele>943</ele>
        <time>2015-08-05T12:31:47Z</time>
      </trkpt>
      <trkpt lat="45.91709" lon="3.70372">
        <ele>943</ele>
        <time>2015-08-05T12:31:49Z</time>
      </trkpt>
      <trkpt lat="45.91708" lon="3.70369">
        <ele>943</ele>
        <time>2015-08-05T12:31:51Z</time>
      </trkpt>
      <trkpt lat="45.917" lon="3.70366">
        <ele>944</ele>
        <time>2015-08-05T12:31:55Z</time>
      </trkpt>
      <trkpt lat="45.91697" lon="3.70363">
        <ele>946</ele>
        <time>2015-08-05T12:31:58Z</time>
      </trkpt>
      <trkpt lat="45.91695" lon="3.70358">
        <ele>947</ele>
        <time>2015-08-05T12:32:00Z</time>
      </trkpt>
      <trkpt lat="45.9169" lon="3.70352">
        <ele>950</ele>
        <time>2015-08-05T12:32:06Z</time>
      </trkpt>
      <trkpt lat="45.91685" lon="3.70349">
        <ele>951</ele>
        <time>2015-08-05T12:32:12Z</time>
      </trkpt>
      <trkpt lat="45.91684" lon="3.70345">
        <ele>951</ele>
        <time>2015-08-05T12:32:14Z</time>
      </trkpt>
      <trkpt lat="45.91683" lon="3.70345">
        <ele>951</ele>
        <time>2015-08-05T12:32:16Z</time>
      </trkpt>
      <trkpt lat="45.91676" lon="3.70345">
        <ele>951</ele>
        <time>2015-08-05T12:32:21Z</time>
      </trkpt>
      <trkpt lat="45.91673" lon="3.70344">
        <ele>951</ele>
        <time>2015-08-05T12:32:23Z</time>
      </trkpt>
      <trkpt lat="45.91669" lon="3.70342">
        <ele>951</ele>
        <time>2015-08-05T12:32:27Z</time>
      </trkpt>
      <trkpt lat="45.91663" lon="3.7034">
        <ele>951</ele>
        <time>2015-08-05T12:32:31Z</time>
      </trkpt>
      <trkpt lat="45.91661" lon="3.70339">
        <ele>950</ele>
        <time>2015-08-05T12:32:33Z</time>
      </trkpt>
      <trkpt lat="45.91659" lon="3.70336">
        <ele>950</ele>
        <time>2015-08-05T12:32:36Z</time>
      </trkpt>
      <trkpt lat="45.91656" lon="3.70333">
        <ele>950</ele>
        <time>2015-08-05T12:32:40Z</time>
      </trkpt>
      <trkpt lat="45.91656" lon="3.70335">
        <ele>950</ele>
        <time>2015-08-05T12:32:42Z</time>
      </trkpt>
      <trkpt lat="45.9165" lon="3.70332">
        <ele>950</ele>
        <time>2015-08-05T12:32:47Z</time>
      </trkpt>
      <trkpt lat="45.91646" lon="3.70332">
        <ele>950</ele>
        <time>2015-08-05T12:32:49Z</time>
      </trkpt>
      <trkpt lat="45.91642" lon="3.70332">
        <ele>950</ele>
        <time>2015-08-05T12:32:52Z</time>
      </trkpt>
      <trkpt lat="45.91637" lon="3.7033">
        <ele>950</ele>
        <time>2015-08-05T12:32:56Z</time>
      </trkpt>
      <trkpt lat="45.91632" lon="3.70327">
        <ele>950</ele>
        <time>2015-08-05T12:32:58Z</time>
      </trkpt>
      <trkpt lat="45.9163" lon="3.70323">
        <ele>950</ele>
        <time>2015-08-05T12:33:00Z</time>
      </trkpt>
      <trkpt lat="45.91626" lon="3.70319">
        <ele>950</ele>
        <time>2015-08-05T12:33:03Z</time>
      </trkpt>
      <trkpt lat="45.91624" lon="3.70316">
        <ele>950</ele>
        <time>2015-08-05T12:33:05Z</time>
      </trkpt>
      <trkpt lat="45.91622" lon="3.70314">
        <ele>949</ele>
        <time>2015-08-05T12:33:07Z</time>
      </trkpt>
      <trkpt lat="45.91618" lon="3.70314">
        <ele>948</ele>
        <time>2015-08-05T12:33:09Z</time>
      </trkpt>
      <trkpt lat="45.91615" lon="3.70313">
        <ele>948</ele>
        <time>2015-08-05T12:33:11Z</time>
      </trkpt>
      <trkpt lat="45.91609" lon="3.70308">
        <ele>948</ele>
        <time>2015-08-05T12:33:15Z</time>
      </trkpt>
      <trkpt lat="45.91606" lon="3.70302">
        <ele>947</ele>
        <time>2015-08-05T12:33:20Z</time>
      </trkpt>
      <trkpt lat="45.91601" lon="3.703">
        <ele>946</ele>
        <time>2015-08-05T12:33:25Z</time>
      </trkpt>
      <trkpt lat="45.91598" lon="3.70295">
        <ele>946</ele>
        <time>2015-08-05T12:33:27Z</time>
      </trkpt>
      <trkpt lat="45.91592" lon="3.70288">
        <ele>946</ele>
        <time>2015-08-05T12:33:31Z</time>
      </trkpt>
      <trkpt lat="45.91587" lon="3.70286">
        <ele>946</ele>
        <time>2015-08-05T12:33:35Z</time>
      </trkpt>
      <trkpt lat="45.91584" lon="3.70284">
        <ele>946</ele>
        <time>2015-08-05T12:33:37Z</time>
      </trkpt>
      <trkpt lat="45.91581" lon="3.70278">
        <ele>947</ele>
        <time>2015-08-05T12:33:42Z</time>
      </trkpt>
      <trkpt lat="45.9158" lon="3.7028">
        <ele>947</ele>
        <time>2015-08-05T12:33:44Z</time>
      </trkpt>
      <trkpt lat="45.91578" lon="3.70278">
        <ele>947</ele>
        <time>2015-08-05T12:33:47Z</time>
      </trkpt>
      <trkpt lat="45.91572" lon="3.70276">
        <ele>947</ele>
        <time>2015-08-05T12:33:51Z</time>
      </trkpt>
      <trkpt lat="45.91569" lon="3.70274">
        <ele>947</ele>
        <time>2015-08-05T12:33:53Z</time>
      </trkpt>
      <trkpt lat="45.91566" lon="3.70274">
        <ele>947</ele>
        <time>2015-08-05T12:33:55Z</time>
      </trkpt>
      <trkpt lat="45.91563" lon="3.70274">
        <ele>947</ele>
        <time>2015-08-05T12:33:57Z</time>
      </trkpt>
      <trkpt lat="45.91561" lon="3.70272">
        <ele>947</ele>
        <time>2015-08-05T12:33:59Z</time>
      </trkpt>
      <trkpt lat="45.91558" lon="3.70271">
        <ele>947</ele>
        <time>2015-08-05T12:34:02Z</time>
      </trkpt>
      <trkpt lat="45.91556" lon="3.70269">
        <ele>948</ele>
        <time>2015-08-05T12:34:05Z</time>
      </trkpt>
      <trkpt lat="45.91553" lon="3.70266">
        <ele>948</ele>
        <time>2015-08-05T12:34:08Z</time>
      </trkpt>
      <trkpt lat="45.9155" lon="3.70261">
        <ele>948</ele>
        <time>2015-08-05T12:34:15Z</time>
      </trkpt>
      <trkpt lat="45.91547" lon="3.70252">
        <ele>948</ele>
        <time>2015-08-05T12:34:19Z</time>
      </trkpt>
      <trkpt lat="45.91543" lon="3.70246">
        <ele>948</ele>
        <time>2015-08-05T12:34:21Z</time>
      </trkpt>
      <trkpt lat="45.91542" lon="3.7024">
        <ele>948</ele>
        <time>2015-08-05T12:34:23Z</time>
      </trkpt>
      <trkpt lat="45.91537" lon="3.70234">
        <ele>948</ele>
        <time>2015-08-05T12:34:25Z</time>
      </trkpt>
      <trkpt lat="45.91538" lon="3.7023">
        <ele>948</ele>
        <time>2015-08-05T12:34:30Z</time>
      </trkpt>
      <trkpt lat="45.91537" lon="3.70227">
        <ele>947</ele>
        <time>2015-08-05T12:34:32Z</time>
      </trkpt>
      <trkpt lat="45.91535" lon="3.70225">
        <ele>945</ele>
        <time>2015-08-05T12:34:34Z</time>
      </trkpt>
      <trkpt lat="45.91528" lon="3.70223">
        <ele>943</ele>
        <time>2015-08-05T12:34:38Z</time>
      </trkpt>
      <trkpt lat="45.91528" lon="3.70222">
        <ele>942</ele>
        <time>2015-08-05T12:34:40Z</time>
      </trkpt>
      <trkpt lat="45.91525" lon="3.70221">
        <ele>941</ele>
        <time>2015-08-05T12:34:44Z</time>
      </trkpt>
      <trkpt lat="45.91522" lon="3.70219">
        <ele>941</ele>
        <time>2015-08-05T12:34:46Z</time>
      </trkpt>
      <trkpt lat="45.9152" lon="3.70214">
        <ele>941</ele>
        <time>2015-08-05T12:34:50Z</time>
      </trkpt>
      <trkpt lat="45.91515" lon="3.7021">
        <ele>941</ele>
        <time>2015-08-05T12:34:52Z</time>
      </trkpt>
      <trkpt lat="45.91512" lon="3.7021">
        <ele>941</ele>
        <time>2015-08-05T12:34:54Z</time>
      </trkpt>
      <trkpt lat="45.91507" lon="3.70207">
        <ele>941</ele>
        <time>2015-08-05T12:34:56Z</time>
      </trkpt>
      <trkpt lat="45.91503" lon="3.70207">
        <ele>944</ele>
        <time>2015-08-05T12:34:59Z</time>
      </trkpt>
      <trkpt lat="45.915" lon="3.70204">
        <ele>946</ele>
        <time>2015-08-05T12:35:01Z</time>
      </trkpt>
      <trkpt lat="45.91498" lon="3.70201">
        <ele>948</ele>
        <time>2015-08-05T12:35:03Z</time>
      </trkpt>
      <trkpt lat="45.91494" lon="3.702">
        <ele>949</ele>
        <time>2015-08-05T12:35:06Z</time>
      </trkpt>
      <trkpt lat="45.91494" lon="3.70198">
        <ele>950</ele>
        <time>2015-08-05T12:35:08Z</time>
      </trkpt>
      <trkpt lat="45.91492" lon="3.70196">
        <ele>950</ele>
        <time>2015-08-05T12:35:10Z</time>
      </trkpt>
      <trkpt lat="45.91489" lon="3.70195">
        <ele>950</ele>
        <time>2015-08-05T12:35:12Z</time>
      </trkpt>
      <trkpt lat="45.91481" lon="3.70193">
        <ele>950</ele>
        <time>2015-08-05T12:35:20Z</time>
      </trkpt>
      <trkpt lat="45.91475" lon="3.70189">
        <ele>950</ele>
        <time>2015-08-05T12:35:22Z</time>
      </trkpt>
      <trkpt lat="45.91471" lon="3.70184">
        <ele>951</ele>
        <time>2015-08-05T12:35:26Z</time>
      </trkpt>
      <trkpt lat="45.91466" lon="3.70178">
        <ele>955</ele>
        <time>2015-08-05T12:35:31Z</time>
      </trkpt>
      <trkpt lat="45.91464" lon="3.70171">
        <ele>954</ele>
        <time>2015-08-05T12:35:35Z</time>
      </trkpt>
      <trkpt lat="45.91462" lon="3.7017">
        <ele>952</ele>
        <time>2015-08-05T12:35:37Z</time>
      </trkpt>
      <trkpt lat="45.9146" lon="3.70169">
        <ele>952</ele>
        <time>2015-08-05T12:35:39Z</time>
      </trkpt>
      <trkpt lat="45.9146" lon="3.70167">
        <ele>952</ele>
        <time>2015-08-05T12:35:42Z</time>
      </trkpt>
      <trkpt lat="45.91458" lon="3.70165">
        <ele>951</ele>
        <time>2015-08-05T12:35:47Z</time>
      </trkpt>
      <trkpt lat="45.91456" lon="3.70157">
        <ele>949</ele>
        <time>2015-08-05T12:35:53Z</time>
      </trkpt>
      <trkpt lat="45.91453" lon="3.70157">
        <ele>948</ele>
        <time>2015-08-05T12:35:55Z</time>
      </trkpt>
      <trkpt lat="45.91444" lon="3.70148">
        <ele>947</ele>
        <time>2015-08-05T12:35:59Z</time>
      </trkpt>
      <trkpt lat="45.91442" lon="3.70145">
        <ele>947</ele>
        <time>2015-08-05T12:36:01Z</time>
      </trkpt>
      <trkpt lat="45.91437" lon="3.70132">
        <ele>951</ele>
        <time>2015-08-05T12:36:11Z</time>
      </trkpt>
      <trkpt lat="45.91433" lon="3.70127">
        <ele>956</ele>
        <time>2015-08-05T12:36:16Z</time>
      </trkpt>
      <trkpt lat="45.91432" lon="3.70125">
        <ele>958</ele>
        <time>2015-08-05T12:36:19Z</time>
      </trkpt>
      <trkpt lat="45.91428" lon="3.70123">
        <ele>961</ele>
        <time>2015-08-05T12:36:22Z</time>
      </trkpt>
      <trkpt lat="45.91428" lon="3.70118">
        <ele>962</ele>
        <time>2015-08-05T12:36:25Z</time>
      </trkpt>
      <trkpt lat="45.91428" lon="3.70111">
        <ele>962</ele>
        <time>2015-08-05T12:36:27Z</time>
      </trkpt>
      <trkpt lat="45.91423" lon="3.70107">
        <ele>962</ele>
        <time>2015-08-05T12:36:31Z</time>
      </trkpt>
      <trkpt lat="45.91423" lon="3.70104">
        <ele>962</ele>
        <time>2015-08-05T12:36:33Z</time>
      </trkpt>
      <trkpt lat="45.91421" lon="3.70101">
        <ele>962</ele>
        <time>2015-08-05T12:36:36Z</time>
      </trkpt>
      <trkpt lat="45.9142" lon="3.70098">
        <ele>962</ele>
        <time>2015-08-05T12:36:38Z</time>
      </trkpt>
      <trkpt lat="45.91418" lon="3.70096">
        <ele>962</ele>
        <time>2015-08-05T12:36:40Z</time>
      </trkpt>
      <trkpt lat="45.91414" lon="3.70081">
        <ele>962</ele>
        <time>2015-08-05T12:36:47Z</time>
      </trkpt>
      <trkpt lat="45.91411" lon="3.70065">
        <ele>962</ele>
        <time>2015-08-05T12:36:51Z</time>
      </trkpt>
      <trkpt lat="45.91414" lon="3.70061">
        <ele>961</ele>
        <time>2015-08-05T12:36:53Z</time>
      </trkpt>
      <trkpt lat="45.91411" lon="3.70056">
        <ele>960</ele>
        <time>2015-08-05T12:36:55Z</time>
      </trkpt>
      <trkpt lat="45.91408" lon="3.70052">
        <ele>960</ele>
        <time>2015-08-05T12:36:59Z</time>
      </trkpt>
      <trkpt lat="45.91406" lon="3.70056">
        <ele>960</ele>
        <time>2015-08-05T12:37:01Z</time>
      </trkpt>
      <trkpt lat="45.91403" lon="3.70053">
        <ele>960</ele>
        <time>2015-08-05T12:37:03Z</time>
      </trkpt>
      <trkpt lat="45.91401" lon="3.70049">
        <ele>960</ele>
        <time>2015-08-05T12:37:06Z</time>
      </trkpt>
      <trkpt lat="45.91401" lon="3.70044">
        <ele>960</ele>
        <time>2015-08-05T12:37:08Z</time>
      </trkpt>
      <trkpt lat="45.91401" lon="3.70041">
        <ele>959</ele>
        <time>2015-08-05T12:37:10Z</time>
      </trkpt>
      <trkpt lat="45.914" lon="3.70037">
        <ele>959</ele>
        <time>2015-08-05T12:37:13Z</time>
      </trkpt>
      <trkpt lat="45.91395" lon="3.70022">
        <ele>959</ele>
        <time>2015-08-05T12:37:21Z</time>
      </trkpt>
      <trkpt lat="45.91393" lon="3.70013">
        <ele>957</ele>
        <time>2015-08-05T12:37:27Z</time>
      </trkpt>
      <trkpt lat="45.91391" lon="3.70003">
        <ele>955</ele>
        <time>2015-08-05T12:37:32Z</time>
      </trkpt>
      <trkpt lat="45.91391" lon="3.7">
        <ele>954</ele>
        <time>2015-08-05T12:37:34Z</time>
      </trkpt>
      <trkpt lat="45.91391" lon="3.69992">
        <ele>952</ele>
        <time>2015-08-05T12:37:39Z</time>
      </trkpt>
      <trkpt lat="45.91389" lon="3.6999">
        <ele>952</ele>
        <time>2015-08-05T12:37:41Z</time>
      </trkpt>
      <trkpt lat="45.91389" lon="3.69984">
        <ele>951</ele>
        <time>2015-08-05T12:37:46Z</time>
      </trkpt>
      <trkpt lat="45.9139" lon="3.6998">
        <ele>951</ele>
        <time>2015-08-05T12:37:50Z</time>
      </trkpt>
      <trkpt lat="45.91388" lon="3.69976">
        <ele>950</ele>
        <time>2015-08-05T12:37:52Z</time>
      </trkpt>
      <trkpt lat="45.91386" lon="3.69972">
        <ele>950</ele>
        <time>2015-08-05T12:37:54Z</time>
      </trkpt>
      <trkpt lat="45.91383" lon="3.69967">
        <ele>950</ele>
        <time>2015-08-05T12:37:56Z</time>
      </trkpt>
      <trkpt lat="45.91381" lon="3.69964">
        <ele>950</ele>
        <time>2015-08-05T12:37:58Z</time>
      </trkpt>
      <trkpt lat="45.91379" lon="3.69961">
        <ele>950</ele>
        <time>2015-08-05T12:38:00Z</time>
      </trkpt>
      <trkpt lat="45.91379" lon="3.69956">
        <ele>950</ele>
        <time>2015-08-05T12:38:02Z</time>
      </trkpt>
      <trkpt lat="45.91376" lon="3.69954">
        <ele>950</ele>
        <time>2015-08-05T12:38:04Z</time>
      </trkpt>
      <trkpt lat="45.91375" lon="3.69949">
        <ele>951</ele>
        <time>2015-08-05T12:38:07Z</time>
      </trkpt>
      <trkpt lat="45.91374" lon="3.69944">
        <ele>951</ele>
        <time>2015-08-05T12:38:09Z</time>
      </trkpt>
      <trkpt lat="45.91373" lon="3.69942">
        <ele>951</ele>
        <time>2015-08-05T12:38:11Z</time>
      </trkpt>
      <trkpt lat="45.91371" lon="3.69937">
        <ele>951</ele>
        <time>2015-08-05T12:38:17Z</time>
      </trkpt>
      <trkpt lat="45.9137" lon="3.69931">
        <ele>951</ele>
        <time>2015-08-05T12:38:19Z</time>
      </trkpt>
      <trkpt lat="45.91373" lon="3.69924">
        <ele>951</ele>
        <time>2015-08-05T12:38:21Z</time>
      </trkpt>
      <trkpt lat="45.91372" lon="3.69918">
        <ele>951</ele>
        <time>2015-08-05T12:38:25Z</time>
      </trkpt>
      <trkpt lat="45.91367" lon="3.69914">
        <ele>951</ele>
        <time>2015-08-05T12:38:30Z</time>
      </trkpt>
      <trkpt lat="45.91367" lon="3.69911">
        <ele>951</ele>
        <time>2015-08-05T12:38:32Z</time>
      </trkpt>
      <trkpt lat="45.91363" lon="3.69906">
        <ele>951</ele>
        <time>2015-08-05T12:38:34Z</time>
      </trkpt>
      <trkpt lat="45.91363" lon="3.69901">
        <ele>950</ele>
        <time>2015-08-05T12:38:36Z</time>
      </trkpt>
      <trkpt lat="45.91361" lon="3.69899">
        <ele>948</ele>
        <time>2015-08-05T12:38:38Z</time>
      </trkpt>
      <trkpt lat="45.91359" lon="3.69895">
        <ele>946</ele>
        <time>2015-08-05T12:38:42Z</time>
      </trkpt>
      <trkpt lat="45.91356" lon="3.69893">
        <ele>946</ele>
        <time>2015-08-05T12:38:46Z</time>
      </trkpt>
      <trkpt lat="45.91354" lon="3.69885">
        <ele>946</ele>
        <time>2015-08-05T12:38:50Z</time>
      </trkpt>
      <trkpt lat="45.91349" lon="3.6988">
        <ele>946</ele>
        <time>2015-08-05T12:38:52Z</time>
      </trkpt>
      <trkpt lat="45.91351" lon="3.69876">
        <ele>946</ele>
        <time>2015-08-05T12:38:55Z</time>
      </trkpt>
      <trkpt lat="45.91354" lon="3.69872">
        <ele>946</ele>
        <time>2015-08-05T12:38:58Z</time>
      </trkpt>
      <trkpt lat="45.91346" lon="3.69869">
        <ele>946</ele>
        <time>2015-08-05T12:39:03Z</time>
      </trkpt>
      <trkpt lat="45.9134" lon="3.69861">
        <ele>948</ele>
        <time>2015-08-05T12:39:05Z</time>
      </trkpt>
      <trkpt lat="45.9133" lon="3.69855">
        <ele>953</ele>
        <time>2015-08-05T12:39:12Z</time>
      </trkpt>
      <trkpt lat="45.91331" lon="3.6985">
        <ele>956</ele>
        <time>2015-08-05T12:39:17Z</time>
      </trkpt>
      <trkpt lat="45.9133" lon="3.69839">
        <ele>957</ele>
        <time>2015-08-05T12:39:19Z</time>
      </trkpt>
      <trkpt lat="45.91328" lon="3.69834">
        <ele>957</ele>
        <time>2015-08-05T12:39:21Z</time>
      </trkpt>
      <trkpt lat="45.91328" lon="3.69829">
        <ele>957</ele>
        <time>2015-08-05T12:39:25Z</time>
      </trkpt>
      <trkpt lat="45.91326" lon="3.69822">
        <ele>957</ele>
        <time>2015-08-05T12:39:27Z</time>
      </trkpt>
      <trkpt lat="45.9133" lon="3.69808">
        <ele>955</ele>
        <time>2015-08-05T12:39:31Z</time>
      </trkpt>
      <trkpt lat="45.91329" lon="3.69801">
        <ele>951</ele>
        <time>2015-08-05T12:39:35Z</time>
      </trkpt>
      <trkpt lat="45.9133" lon="3.69796">
        <ele>946</ele>
        <time>2015-08-05T12:39:40Z</time>
      </trkpt>
      <trkpt lat="45.9133" lon="3.69795">
        <ele>944</ele>
        <time>2015-08-05T12:39:42Z</time>
      </trkpt>
      <trkpt lat="45.91331" lon="3.69791">
        <ele>942</ele>
        <time>2015-08-05T12:39:44Z</time>
      </trkpt>
      <trkpt lat="45.91331" lon="3.69789">
        <ele>940</ele>
        <time>2015-08-05T12:39:46Z</time>
      </trkpt>
      <trkpt lat="45.9133" lon="3.69788">
        <ele>938</ele>
        <time>2015-08-05T12:39:48Z</time>
      </trkpt>
      <trkpt lat="45.9133" lon="3.69786">
        <ele>937</ele>
        <time>2015-08-05T12:39:50Z</time>
      </trkpt>
      <trkpt lat="45.91329" lon="3.69783">
        <ele>936</ele>
        <time>2015-08-05T12:39:52Z</time>
      </trkpt>
      <trkpt lat="45.91326" lon="3.69782">
        <ele>936</ele>
        <time>2015-08-05T12:39:55Z</time>
      </trkpt>
      <trkpt lat="45.91325" lon="3.69779">
        <ele>936</ele>
        <time>2015-08-05T12:39:57Z</time>
      </trkpt>
      <trkpt lat="45.91324" lon="3.69775">
        <ele>936</ele>
        <time>2015-08-05T12:40:00Z</time>
      </trkpt>
      <trkpt lat="45.91324" lon="3.69771">
        <ele>936</ele>
        <time>2015-08-05T12:40:02Z</time>
      </trkpt>
      <trkpt lat="45.91324" lon="3.69766">
        <ele>936</ele>
        <time>2015-08-05T12:40:04Z</time>
      </trkpt>
      <trkpt lat="45.9132" lon="3.69761">
        <ele>936</ele>
        <time>2015-08-05T12:40:08Z</time>
      </trkpt>
      <trkpt lat="45.91319" lon="3.69757">
        <ele>936</ele>
        <time>2015-08-05T12:40:12Z</time>
      </trkpt>
      <trkpt lat="45.91318" lon="3.69753">
        <ele>936</ele>
        <time>2015-08-05T12:40:14Z</time>
      </trkpt>
      <trkpt lat="45.91313" lon="3.69743">
        <ele>935</ele>
        <time>2015-08-05T12:40:19Z</time>
      </trkpt>
      <trkpt lat="45.91308" lon="3.69732">
        <ele>933</ele>
        <time>2015-08-05T12:40:24Z</time>
      </trkpt>
      <trkpt lat="45.91309" lon="3.69731">
        <ele>932</ele>
        <time>2015-08-05T12:40:27Z</time>
      </trkpt>
      <trkpt lat="45.91307" lon="3.69726">
        <ele>931</ele>
        <time>2015-08-05T12:40:29Z</time>
      </trkpt>
      <trkpt lat="45.91303" lon="3.6972">
        <ele>931</ele>
        <time>2015-08-05T12:40:32Z</time>
      </trkpt>
      <trkpt lat="45.91301" lon="3.69715">
        <ele>931</ele>
        <time>2015-08-05T12:40:34Z</time>
      </trkpt>
      <trkpt lat="45.91298" lon="3.69713">
        <ele>931</ele>
        <time>2015-08-05T12:40:36Z</time>
      </trkpt>
      <trkpt lat="45.91293" lon="3.69706">
        <ele>931</ele>
        <time>2015-08-05T12:40:42Z</time>
      </trkpt>
      <trkpt lat="45.91294" lon="3.69704">
        <ele>931</ele>
        <time>2015-08-05T12:40:44Z</time>
      </trkpt>
      <trkpt lat="45.91292" lon="3.69701">
        <ele>931</ele>
        <time>2015-08-05T12:40:46Z</time>
      </trkpt>
      <trkpt lat="45.91291" lon="3.69696">
        <ele>931</ele>
        <time>2015-08-05T12:40:48Z</time>
      </trkpt>
      <trkpt lat="45.91291" lon="3.69691">
        <ele>931</ele>
        <time>2015-08-05T12:40:52Z</time>
      </trkpt>
      <trkpt lat="45.91289" lon="3.69687">
        <ele>931</ele>
        <time>2015-08-05T12:40:54Z</time>
      </trkpt>
      <trkpt lat="45.91287" lon="3.6968">
        <ele>931</ele>
        <time>2015-08-05T12:40:56Z</time>
      </trkpt>
      <trkpt lat="45.91283" lon="3.69674">
        <ele>933</ele>
        <time>2015-08-05T12:41:00Z</time>
      </trkpt>
      <trkpt lat="45.91282" lon="3.69668">
        <ele>933</ele>
        <time>2015-08-05T12:41:03Z</time>
      </trkpt>
      <trkpt lat="45.9128" lon="3.69665">
        <ele>934</ele>
        <time>2015-08-05T12:41:06Z</time>
      </trkpt>
      <trkpt lat="45.91279" lon="3.69662">
        <ele>935</ele>
        <time>2015-08-05T12:41:08Z</time>
      </trkpt>
      <trkpt lat="45.91278" lon="3.69655">
        <ele>936</ele>
        <time>2015-08-05T12:41:15Z</time>
      </trkpt>
      <trkpt lat="45.91276" lon="3.69653">
        <ele>936</ele>
        <time>2015-08-05T12:41:17Z</time>
      </trkpt>
      <trkpt lat="45.91269" lon="3.69642">
        <ele>936</ele>
        <time>2015-08-05T12:41:25Z</time>
      </trkpt>
      <trkpt lat="45.91266" lon="3.69637">
        <ele>936</ele>
        <time>2015-08-05T12:41:27Z</time>
      </trkpt>
      <trkpt lat="45.9126" lon="3.6963">
        <ele>937</ele>
        <time>2015-08-05T12:41:32Z</time>
      </trkpt>
      <trkpt lat="45.91259" lon="3.69626">
        <ele>937</ele>
        <time>2015-08-05T12:41:35Z</time>
      </trkpt>
      <trkpt lat="45.91258" lon="3.69625">
        <ele>937</ele>
        <time>2015-08-05T12:41:37Z</time>
      </trkpt>
      <trkpt lat="45.91257" lon="3.6962">
        <ele>937</ele>
        <time>2015-08-05T12:41:41Z</time>
      </trkpt>
      <trkpt lat="45.91252" lon="3.6961">
        <ele>936</ele>
        <time>2015-08-05T12:41:48Z</time>
      </trkpt>
      <trkpt lat="45.91248" lon="3.69606">
        <ele>936</ele>
        <time>2015-08-05T12:41:51Z</time>
      </trkpt>
      <trkpt lat="45.91246" lon="3.69602">
        <ele>936</ele>
        <time>2015-08-05T12:41:53Z</time>
      </trkpt>
      <trkpt lat="45.91243" lon="3.69596">
        <ele>937</ele>
        <time>2015-08-05T12:41:57Z</time>
      </trkpt>
      <trkpt lat="45.9124" lon="3.69594">
        <ele>937</ele>
        <time>2015-08-05T12:41:59Z</time>
      </trkpt>
      <trkpt lat="45.91236" lon="3.69588">
        <ele>938</ele>
        <time>2015-08-05T12:42:05Z</time>
      </trkpt>
      <trkpt lat="45.91235" lon="3.69583">
        <ele>938</ele>
        <time>2015-08-05T12:42:08Z</time>
      </trkpt>
      <trkpt lat="45.91236" lon="3.69579">
        <ele>938</ele>
        <time>2015-08-05T12:42:10Z</time>
      </trkpt>
      <trkpt lat="45.91235" lon="3.69577">
        <ele>938</ele>
        <time>2015-08-05T12:42:12Z</time>
      </trkpt>
      <trkpt lat="45.91233" lon="3.69573">
        <ele>938</ele>
        <time>2015-08-05T12:42:14Z</time>
      </trkpt>
      <trkpt lat="45.91233" lon="3.69569">
        <ele>936</ele>
        <time>2015-08-05T12:42:17Z</time>
      </trkpt>
      <trkpt lat="45.9123" lon="3.6956">
        <ele>935</ele>
        <time>2015-08-05T12:42:25Z</time>
      </trkpt>
      <trkpt lat="45.91225" lon="3.69551">
        <ele>935</ele>
        <time>2015-08-05T12:42:32Z</time>
      </trkpt>
      <trkpt lat="45.91224" lon="3.69546">
        <ele>935</ele>
        <time>2015-08-05T12:42:34Z</time>
      </trkpt>
      <trkpt lat="45.91221" lon="3.69542">
        <ele>936</ele>
        <time>2015-08-05T12:42:38Z</time>
      </trkpt>
      <trkpt lat="45.91219" lon="3.6954">
        <ele>937</ele>
        <time>2015-08-05T12:42:40Z</time>
      </trkpt>
      <trkpt lat="45.91216" lon="3.69536">
        <ele>938</ele>
        <time>2015-08-05T12:42:42Z</time>
      </trkpt>
      <trkpt lat="45.91214" lon="3.69533">
        <ele>939</ele>
        <time>2015-08-05T12:42:44Z</time>
      </trkpt>
      <trkpt lat="45.91215" lon="3.69531">
        <ele>940</ele>
        <time>2015-08-05T12:42:46Z</time>
      </trkpt>
      <trkpt lat="45.91215" lon="3.69528">
        <ele>940</ele>
        <time>2015-08-05T12:42:48Z</time>
      </trkpt>
      <trkpt lat="45.9121" lon="3.69519">
        <ele>940</ele>
        <time>2015-08-05T12:42:54Z</time>
      </trkpt>
      <trkpt lat="45.91209" lon="3.69517">
        <ele>940</ele>
        <time>2015-08-05T12:42:56Z</time>
      </trkpt>
      <trkpt lat="45.91207" lon="3.69516">
        <ele>940</ele>
        <time>2015-08-05T12:42:59Z</time>
      </trkpt>
      <trkpt lat="45.91204" lon="3.69507">
        <ele>940</ele>
        <time>2015-08-05T12:43:05Z</time>
      </trkpt>
      <trkpt lat="45.91205" lon="3.695">
        <ele>940</ele>
        <time>2015-08-05T12:43:07Z</time>
      </trkpt>
      <trkpt lat="45.91203" lon="3.69491">
        <ele>938</ele>
        <time>2015-08-05T12:43:12Z</time>
      </trkpt>
      <trkpt lat="45.91196" lon="3.69481">
        <ele>937</ele>
        <time>2015-08-05T12:43:19Z</time>
      </trkpt>
      <trkpt lat="45.9119" lon="3.69474">
        <ele>937</ele>
        <time>2015-08-05T12:43:24Z</time>
      </trkpt>
      <trkpt lat="45.91188" lon="3.69462">
        <ele>937</ele>
        <time>2015-08-05T12:43:28Z</time>
      </trkpt>
      <trkpt lat="45.91187" lon="3.69461">
        <ele>937</ele>
        <time>2015-08-05T12:43:30Z</time>
      </trkpt>
      <trkpt lat="45.91185" lon="3.6946">
        <ele>937</ele>
        <time>2015-08-05T12:43:32Z</time>
      </trkpt>
      <trkpt lat="45.91184" lon="3.69456">
        <ele>938</ele>
        <time>2015-08-05T12:43:34Z</time>
      </trkpt>
      <trkpt lat="45.91186" lon="3.69449">
        <ele>938</ele>
        <time>2015-08-05T12:43:39Z</time>
      </trkpt>
      <trkpt lat="45.91185" lon="3.69448">
        <ele>938</ele>
        <time>2015-08-05T12:43:41Z</time>
      </trkpt>
      <trkpt lat="45.91185" lon="3.69442">
        <ele>938</ele>
        <time>2015-08-05T12:43:43Z</time>
      </trkpt>
      <trkpt lat="45.91185" lon="3.69438">
        <ele>938</ele>
        <time>2015-08-05T12:43:45Z</time>
      </trkpt>
      <trkpt lat="45.91187" lon="3.69433">
        <ele>938</ele>
        <time>2015-08-05T12:43:48Z</time>
      </trkpt>
      <trkpt lat="45.91187" lon="3.69429">
        <ele>938</ele>
        <time>2015-08-05T12:43:52Z</time>
      </trkpt>
      <trkpt lat="45.91182" lon="3.69423">
        <ele>937</ele>
        <time>2015-08-05T12:43:54Z</time>
      </trkpt>
      <trkpt lat="45.91182" lon="3.69416">
        <ele>937</ele>
        <time>2015-08-05T12:43:56Z</time>
      </trkpt>
      <trkpt lat="45.91183" lon="3.69411">
        <ele>936</ele>
        <time>2015-08-05T12:43:59Z</time>
      </trkpt>
      <trkpt lat="45.91182" lon="3.69402">
        <ele>935</ele>
        <time>2015-08-05T12:44:03Z</time>
      </trkpt>
      <trkpt lat="45.91185" lon="3.69377">
        <ele>934</ele>
        <time>2015-08-05T12:44:09Z</time>
      </trkpt>
      <trkpt lat="45.91175" lon="3.69371">
        <ele>933</ele>
        <time>2015-08-05T12:44:11Z</time>
      </trkpt>
      <trkpt lat="45.91175" lon="3.69368">
        <ele>935</ele>
        <time>2015-08-05T12:44:19Z</time>
      </trkpt>
      <trkpt lat="45.91176" lon="3.69367">
        <ele>937</ele>
        <time>2015-08-05T12:44:21Z</time>
      </trkpt>
      <trkpt lat="45.91177" lon="3.69366">
        <ele>939</ele>
        <time>2015-08-05T12:44:23Z</time>
      </trkpt>
      <trkpt lat="45.91176" lon="3.69364">
        <ele>941</ele>
        <time>2015-08-05T12:44:26Z</time>
      </trkpt>
      <trkpt lat="45.91177" lon="3.69361">
        <ele>941</ele>
        <time>2015-08-05T12:44:28Z</time>
      </trkpt>
      <trkpt lat="45.91177" lon="3.69356">
        <ele>941</ele>
        <time>2015-08-05T12:44:32Z</time>
      </trkpt>
      <trkpt lat="45.91176" lon="3.69353">
        <ele>942</ele>
        <time>2015-08-05T12:44:34Z</time>
      </trkpt>
      <trkpt lat="45.91177" lon="3.69349">
        <ele>942</ele>
        <time>2015-08-05T12:44:36Z</time>
      </trkpt>
      <trkpt lat="45.91177" lon="3.69343">
        <ele>942</ele>
        <time>2015-08-05T12:44:41Z</time>
      </trkpt>
      <trkpt lat="45.91177" lon="3.6934">
        <ele>942</ele>
        <time>2015-08-05T12:44:43Z</time>
      </trkpt>
      <trkpt lat="45.91177" lon="3.69336">
        <ele>942</ele>
        <time>2015-08-05T12:44:46Z</time>
      </trkpt>
      <trkpt lat="45.91176" lon="3.69333">
        <ele>942</ele>
        <time>2015-08-05T12:44:48Z</time>
      </trkpt>
      <trkpt lat="45.91175" lon="3.69323">
        <ele>944</ele>
        <time>2015-08-05T12:44:54Z</time>
      </trkpt>
      <trkpt lat="45.91172" lon="3.69316">
        <ele>946</ele>
        <time>2015-08-05T12:44:59Z</time>
      </trkpt>
      <trkpt lat="45.91171" lon="3.69313">
        <ele>946</ele>
        <time>2015-08-05T12:45:01Z</time>
      </trkpt>
      <trkpt lat="45.91171" lon="3.69309">
        <ele>946</ele>
        <time>2015-08-05T12:45:03Z</time>
      </trkpt>
      <trkpt lat="45.9117" lon="3.69304">
        <ele>946</ele>
        <time>2015-08-05T12:45:05Z</time>
      </trkpt>
      <trkpt lat="45.91169" lon="3.69301">
        <ele>946</ele>
        <time>2015-08-05T12:45:07Z</time>
      </trkpt>
      <trkpt lat="45.91167" lon="3.69289">
        <ele>946</ele>
        <time>2015-08-05T12:45:15Z</time>
      </trkpt>
      <trkpt lat="45.91166" lon="3.69285">
        <ele>946</ele>
        <time>2015-08-05T12:45:17Z</time>
      </trkpt>
      <trkpt lat="45.91163" lon="3.69279">
        <ele>946</ele>
        <time>2015-08-05T12:45:20Z</time>
      </trkpt>
      <trkpt lat="45.91161" lon="3.69276">
        <ele>946</ele>
        <time>2015-08-05T12:45:22Z</time>
      </trkpt>
      <trkpt lat="45.91159" lon="3.6927">
        <ele>946</ele>
        <time>2015-08-05T12:45:26Z</time>
      </trkpt>
      <trkpt lat="45.91158" lon="3.69266">
        <ele>945</ele>
        <time>2015-08-05T12:45:28Z</time>
      </trkpt>
      <trkpt lat="45.91157" lon="3.69262">
        <ele>944</ele>
        <time>2015-08-05T12:45:30Z</time>
      </trkpt>
      <trkpt lat="45.91154" lon="3.69257">
        <ele>944</ele>
        <time>2015-08-05T12:45:33Z</time>
      </trkpt>
      <trkpt lat="45.91153" lon="3.69254">
        <ele>943</ele>
        <time>2015-08-05T12:45:35Z</time>
      </trkpt>
      <trkpt lat="45.91151" lon="3.69249">
        <ele>943</ele>
        <time>2015-08-05T12:45:37Z</time>
      </trkpt>
      <trkpt lat="45.91149" lon="3.69239">
        <ele>942</ele>
        <time>2015-08-05T12:45:43Z</time>
      </trkpt>
      <trkpt lat="45.91148" lon="3.69234">
        <ele>942</ele>
        <time>2015-08-05T12:45:45Z</time>
      </trkpt>
      <trkpt lat="45.91148" lon="3.6923">
        <ele>942</ele>
        <time>2015-08-05T12:45:47Z</time>
      </trkpt>
      <trkpt lat="45.91146" lon="3.69226">
        <ele>942</ele>
        <time>2015-08-05T12:45:49Z</time>
      </trkpt>
      <trkpt lat="45.91147" lon="3.69223">
        <ele>942</ele>
        <time>2015-08-05T12:45:51Z</time>
      </trkpt>
      <trkpt lat="45.91147" lon="3.69221">
        <ele>942</ele>
        <time>2015-08-05T12:45:53Z</time>
      </trkpt>
      <trkpt lat="45.91146" lon="3.6922">
        <ele>942</ele>
        <time>2015-08-05T12:45:55Z</time>
      </trkpt>
      <trkpt lat="45.91144" lon="3.69213">
        <ele>942</ele>
        <time>2015-08-05T12:46:00Z</time>
      </trkpt>
      <trkpt lat="45.91143" lon="3.6921">
        <ele>941</ele>
        <time>2015-08-05T12:46:02Z</time>
      </trkpt>
      <trkpt lat="45.91139" lon="3.69205">
        <ele>938</ele>
        <time>2015-08-05T12:46:05Z</time>
      </trkpt>
      <trkpt lat="45.91136" lon="3.69195">
        <ele>935</ele>
        <time>2015-08-05T12:46:12Z</time>
      </trkpt>
      <trkpt lat="45.91137" lon="3.69191">
        <ele>935</ele>
        <time>2015-08-05T12:46:15Z</time>
      </trkpt>
      <trkpt lat="45.91136" lon="3.69186">
        <ele>935</ele>
        <time>2015-08-05T12:46:17Z</time>
      </trkpt>
      <trkpt lat="45.91135" lon="3.69182">
        <ele>935</ele>
        <time>2015-08-05T12:46:20Z</time>
      </trkpt>
      <trkpt lat="45.91134" lon="3.69173">
        <ele>933</ele>
        <time>2015-08-05T12:46:25Z</time>
      </trkpt>
      <trkpt lat="45.91133" lon="3.69169">
        <ele>933</ele>
        <time>2015-08-05T12:46:27Z</time>
      </trkpt>
      <trkpt lat="45.91133" lon="3.69165">
        <ele>933</ele>
        <time>2015-08-05T12:46:29Z</time>
      </trkpt>
      <trkpt lat="45.91133" lon="3.69161">
        <ele>932</ele>
        <time>2015-08-05T12:46:31Z</time>
      </trkpt>
      <trkpt lat="45.91133" lon="3.69156">
        <ele>932</ele>
        <time>2015-08-05T12:46:35Z</time>
      </trkpt>
      <trkpt lat="45.91135" lon="3.69154">
        <ele>932</ele>
        <time>2015-08-05T12:46:37Z</time>
      </trkpt>
      <trkpt lat="45.91136" lon="3.69144">
        <ele>932</ele>
        <time>2015-08-05T12:46:45Z</time>
      </trkpt>
      <trkpt lat="45.91135" lon="3.69139">
        <ele>932</ele>
        <time>2015-08-05T12:46:47Z</time>
      </trkpt>
      <trkpt lat="45.91135" lon="3.69134">
        <ele>932</ele>
        <time>2015-08-05T12:46:49Z</time>
      </trkpt>
      <trkpt lat="45.91137" lon="3.69128">
        <ele>932</ele>
        <time>2015-08-05T12:46:53Z</time>
      </trkpt>
      <trkpt lat="45.91138" lon="3.69126">
        <ele>932</ele>
        <time>2015-08-05T12:46:55Z</time>
      </trkpt>
      <trkpt lat="45.91141" lon="3.69121">
        <ele>932</ele>
        <time>2015-08-05T12:46:58Z</time>
      </trkpt>
      <trkpt lat="45.91144" lon="3.69113">
        <ele>933</ele>
        <time>2015-08-05T12:47:03Z</time>
      </trkpt>
      <trkpt lat="45.91144" lon="3.6911">
        <ele>933</ele>
        <time>2015-08-05T12:47:05Z</time>
      </trkpt>
      <trkpt lat="45.91144" lon="3.69106">
        <ele>933</ele>
        <time>2015-08-05T12:47:09Z</time>
      </trkpt>
      <trkpt lat="45.91143" lon="3.69103">
        <ele>933</ele>
        <time>2015-08-05T12:47:11Z</time>
      </trkpt>
      <trkpt lat="45.91143" lon="3.69099">
        <ele>931</ele>
        <time>2015-08-05T12:47:13Z</time>
      </trkpt>
      <trkpt lat="45.91145" lon="3.69096">
        <ele>929</ele>
        <time>2015-08-05T12:47:15Z</time>
      </trkpt>
      <trkpt lat="45.91145" lon="3.69093">
        <ele>928</ele>
        <time>2015-08-05T12:47:17Z</time>
      </trkpt>
      <trkpt lat="45.91146" lon="3.69092">
        <ele>927</ele>
        <time>2015-08-05T12:47:19Z</time>
      </trkpt>
      <trkpt lat="45.91148" lon="3.69085">
        <ele>927</ele>
        <time>2015-08-05T12:47:23Z</time>
      </trkpt>
      <trkpt lat="45.91151" lon="3.69073">
        <ele>928</ele>
        <time>2015-08-05T12:47:30Z</time>
      </trkpt>
      <trkpt lat="45.9115" lon="3.69069">
        <ele>930</ele>
        <time>2015-08-05T12:47:32Z</time>
      </trkpt>
      <trkpt lat="45.91152" lon="3.69068">
        <ele>930</ele>
        <time>2015-08-05T12:47:35Z</time>
      </trkpt>
      <trkpt lat="45.91152" lon="3.69065">
        <ele>930</ele>
        <time>2015-08-05T12:47:37Z</time>
      </trkpt>
      <trkpt lat="45.91153" lon="3.69061">
        <ele>930</ele>
        <time>2015-08-05T12:47:40Z</time>
      </trkpt>
      <trkpt lat="45.91155" lon="3.69059">
        <ele>930</ele>
        <time>2015-08-05T12:47:42Z</time>
      </trkpt>
      <trkpt lat="45.91156" lon="3.69052">
        <ele>930</ele>
        <time>2015-08-05T12:47:46Z</time>
      </trkpt>
      <trkpt lat="45.91159" lon="3.69048">
        <ele>930</ele>
        <time>2015-08-05T12:47:48Z</time>
      </trkpt>
      <trkpt lat="45.91159" lon="3.69046">
        <ele>929</ele>
        <time>2015-08-05T12:47:50Z</time>
      </trkpt>
      <trkpt lat="45.9116" lon="3.69043">
        <ele>928</ele>
        <time>2015-08-05T12:47:52Z</time>
      </trkpt>
      <trkpt lat="45.91162" lon="3.6904">
        <ele>928</ele>
        <time>2015-08-05T12:47:54Z</time>
      </trkpt>
      <trkpt lat="45.91164" lon="3.69032">
        <ele>926</ele>
        <time>2015-08-05T12:47:58Z</time>
      </trkpt>
      <trkpt lat="45.91165" lon="3.69028">
        <ele>924</ele>
        <time>2015-08-05T12:48:00Z</time>
      </trkpt>
      <trkpt lat="45.91167" lon="3.69025">
        <ele>923</ele>
        <time>2015-08-05T12:48:02Z</time>
      </trkpt>
      <trkpt lat="45.9117" lon="3.69021">
        <ele>922</ele>
        <time>2015-08-05T12:48:05Z</time>
      </trkpt>
      <trkpt lat="45.91172" lon="3.69018">
        <ele>922</ele>
        <time>2015-08-05T12:48:07Z</time>
      </trkpt>
      <trkpt lat="45.91172" lon="3.69011">
        <ele>922</ele>
        <time>2015-08-05T12:48:11Z</time>
      </trkpt>
      <trkpt lat="45.91172" lon="3.69007">
        <ele>922</ele>
        <time>2015-08-05T12:48:14Z</time>
      </trkpt>
      <trkpt lat="45.91171" lon="3.69004">
        <ele>924</ele>
        <time>2015-08-05T12:48:16Z</time>
      </trkpt>
      <trkpt lat="45.91171" lon="3.69">
        <ele>925</ele>
        <time>2015-08-05T12:48:19Z</time>
      </trkpt>
      <trkpt lat="45.91175" lon="3.68993">
        <ele>925</ele>
        <time>2015-08-05T12:48:24Z</time>
      </trkpt>
      <trkpt lat="45.91176" lon="3.6899">
        <ele>925</ele>
        <time>2015-08-05T12:48:26Z</time>
      </trkpt>
      <trkpt lat="45.9118" lon="3.68984">
        <ele>925</ele>
        <time>2015-08-05T12:48:31Z</time>
      </trkpt>
      <trkpt lat="45.91184" lon="3.68982">
        <ele>925</ele>
        <time>2015-08-05T12:48:33Z</time>
      </trkpt>
      <trkpt lat="45.91183" lon="3.6898">
        <ele>925</ele>
        <time>2015-08-05T12:48:35Z</time>
      </trkpt>
      <trkpt lat="45.91185" lon="3.68976">
        <ele>923</ele>
        <time>2015-08-05T12:48:38Z</time>
      </trkpt>
      <trkpt lat="45.91185" lon="3.68969">
        <ele>920</ele>
        <time>2015-08-05T12:48:43Z</time>
      </trkpt>
      <trkpt lat="45.91187" lon="3.68968">
        <ele>919</ele>
        <time>2015-08-05T12:48:45Z</time>
      </trkpt>
      <trkpt lat="45.91188" lon="3.68964">
        <ele>919</ele>
        <time>2015-08-05T12:48:47Z</time>
      </trkpt>
      <trkpt lat="45.91189" lon="3.68962">
        <ele>919</ele>
        <time>2015-08-05T12:48:49Z</time>
      </trkpt>
      <trkpt lat="45.9119" lon="3.68959">
        <ele>919</ele>
        <time>2015-08-05T12:48:51Z</time>
      </trkpt>
      <trkpt lat="45.91191" lon="3.68956">
        <ele>919</ele>
        <time>2015-08-05T12:48:53Z</time>
      </trkpt>
      <trkpt lat="45.91189" lon="3.68952">
        <ele>919</ele>
        <time>2015-08-05T12:48:55Z</time>
      </trkpt>
      <trkpt lat="45.9119" lon="3.68947">
        <ele>919</ele>
        <time>2015-08-05T12:48:57Z</time>
      </trkpt>
      <trkpt lat="45.9119" lon="3.68944">
        <ele>919</ele>
        <time>2015-08-05T12:48:59Z</time>
      </trkpt>
      <trkpt lat="45.9119" lon="3.68935">
        <ele>919</ele>
        <time>2015-08-05T12:49:04Z</time>
      </trkpt>
      <trkpt lat="45.91188" lon="3.68932">
        <ele>919</ele>
        <time>2015-08-05T12:49:07Z</time>
      </trkpt>
      <trkpt lat="45.91189" lon="3.6893">
        <ele>919</ele>
        <time>2015-08-05T12:49:09Z</time>
      </trkpt>
      <trkpt lat="45.9119" lon="3.68927">
        <ele>919</ele>
        <time>2015-08-05T12:49:11Z</time>
      </trkpt>
      <trkpt lat="45.91192" lon="3.68925">
        <ele>919</ele>
        <time>2015-08-05T12:49:13Z</time>
      </trkpt>
      <trkpt lat="45.91195" lon="3.68924">
        <ele>919</ele>
        <time>2015-08-05T12:49:16Z</time>
      </trkpt>
      <trkpt lat="45.91193" lon="3.68921">
        <ele>920</ele>
        <time>2015-08-05T12:49:18Z</time>
      </trkpt>
      <trkpt lat="45.91194" lon="3.68912">
        <ele>920</ele>
        <time>2015-08-05T12:49:23Z</time>
      </trkpt>
      <trkpt lat="45.91195" lon="3.6891">
        <ele>920</ele>
        <time>2015-08-05T12:49:25Z</time>
      </trkpt>
      <trkpt lat="45.91195" lon="3.68905">
        <ele>920</ele>
        <time>2015-08-05T12:49:27Z</time>
      </trkpt>
      <trkpt lat="45.91196" lon="3.68901">
        <ele>920</ele>
        <time>2015-08-05T12:49:30Z</time>
      </trkpt>
      <trkpt lat="45.91195" lon="3.68897">
        <ele>920</ele>
        <time>2015-08-05T12:49:33Z</time>
      </trkpt>
      <trkpt lat="45.91196" lon="3.68895">
        <ele>918</ele>
        <time>2015-08-05T12:49:35Z</time>
      </trkpt>
      <trkpt lat="45.91197" lon="3.68892">
        <ele>916</ele>
        <time>2015-08-05T12:49:37Z</time>
      </trkpt>
      <trkpt lat="45.91198" lon="3.6889">
        <ele>914</ele>
        <time>2015-08-05T12:49:39Z</time>
      </trkpt>
      <trkpt lat="45.91199" lon="3.68892">
        <ele>912</ele>
        <time>2015-08-05T12:49:43Z</time>
      </trkpt>
      <trkpt lat="45.91201" lon="3.68892">
        <ele>912</ele>
        <time>2015-08-05T12:49:46Z</time>
      </trkpt>
      <trkpt lat="45.91201" lon="3.68895">
        <ele>912</ele>
        <time>2015-08-05T12:49:49Z</time>
      </trkpt>
      <trkpt lat="45.91201" lon="3.68892">
        <ele>914</ele>
        <time>2015-08-05T12:49:52Z</time>
      </trkpt>
      <trkpt lat="45.91202" lon="3.68889">
        <ele>916</ele>
        <time>2015-08-05T12:49:54Z</time>
      </trkpt>
      <trkpt lat="45.912" lon="3.68886">
        <ele>918</ele>
        <time>2015-08-05T12:49:56Z</time>
      </trkpt>
      <trkpt lat="45.91199" lon="3.68882">
        <ele>919</ele>
        <time>2015-08-05T12:49:58Z</time>
      </trkpt>
      <trkpt lat="45.91201" lon="3.68874">
        <ele>919</ele>
        <time>2015-08-05T12:50:03Z</time>
      </trkpt>
      <trkpt lat="45.912" lon="3.68862">
        <ele>918</ele>
        <time>2015-08-05T12:50:11Z</time>
      </trkpt>
      <trkpt lat="45.91201" lon="3.68856">
        <ele>910</ele>
        <time>2015-08-05T12:50:20Z</time>
      </trkpt>
      <trkpt lat="45.91199" lon="3.68857">
        <ele>910</ele>
        <time>2015-08-05T12:50:22Z</time>
      </trkpt>
      <trkpt lat="45.91199" lon="3.68856">
        <ele>919</ele>
        <time>2015-08-05T12:50:28Z</time>
      </trkpt>
      <trkpt lat="45.912" lon="3.68855">
        <ele>925</ele>
        <time>2015-08-05T12:50:32Z</time>
      </trkpt>
      <trkpt lat="45.91199" lon="3.68855">
        <ele>928</ele>
        <time>2015-08-05T12:50:35Z</time>
      </trkpt>
      <trkpt lat="45.912" lon="3.68856">
        <ele>930</ele>
        <time>2015-08-05T12:50:37Z</time>
      </trkpt>
      <trkpt lat="45.91201" lon="3.68856">
        <ele>933</ele>
        <time>2015-08-05T12:50:40Z</time>
      </trkpt>
      <trkpt lat="45.91203" lon="3.68853">
        <ele>935</ele>
        <time>2015-08-05T12:50:42Z</time>
      </trkpt>
      <trkpt lat="45.91205" lon="3.68852">
        <ele>935</ele>
        <time>2015-08-05T12:50:44Z</time>
      </trkpt>
      <trkpt lat="45.91206" lon="3.68848">
        <ele>935</ele>
        <time>2015-08-05T12:50:46Z</time>
      </trkpt>
      <trkpt lat="45.91208" lon="3.68848">
        <ele>935</ele>
        <time>2015-08-05T12:50:49Z</time>
      </trkpt>
      <trkpt lat="45.91209" lon="3.68847">
        <ele>935</ele>
        <time>2015-08-05T12:50:51Z</time>
      </trkpt>
      <trkpt lat="45.91211" lon="3.68838">
        <ele>930</ele>
        <time>2015-08-05T12:50:56Z</time>
      </trkpt>
      <trkpt lat="45.91213" lon="3.6883">
        <ele>926</ele>
        <time>2015-08-05T12:51:00Z</time>
      </trkpt>
      <trkpt lat="45.91215" lon="3.68822">
        <ele>921</ele>
        <time>2015-08-05T12:51:04Z</time>
      </trkpt>
      <trkpt lat="45.91216" lon="3.68819">
        <ele>919</ele>
        <time>2015-08-05T12:51:06Z</time>
      </trkpt>
      <trkpt lat="45.91215" lon="3.68814">
        <ele>916</ele>
        <time>2015-08-05T12:51:09Z</time>
      </trkpt>
      <trkpt lat="45.91214" lon="3.6881">
        <ele>913</ele>
        <time>2015-08-05T12:51:12Z</time>
      </trkpt>
      <trkpt lat="45.91214" lon="3.68796">
        <ele>913</ele>
        <time>2015-08-05T12:51:22Z</time>
      </trkpt>
      <trkpt lat="45.91213" lon="3.68793">
        <ele>913</ele>
        <time>2015-08-05T12:51:24Z</time>
      </trkpt>
      <trkpt lat="45.91213" lon="3.68787">
        <ele>913</ele>
        <time>2015-08-05T12:51:26Z</time>
      </trkpt>
      <trkpt lat="45.91212" lon="3.68784">
        <ele>913</ele>
        <time>2015-08-05T12:51:28Z</time>
      </trkpt>
      <trkpt lat="45.91208" lon="3.68777">
        <ele>913</ele>
        <time>2015-08-05T12:51:32Z</time>
      </trkpt>
      <trkpt lat="45.91206" lon="3.68773">
        <ele>913</ele>
        <time>2015-08-05T12:51:34Z</time>
      </trkpt>
      <trkpt lat="45.91202" lon="3.68765">
        <ele>915</ele>
        <time>2015-08-05T12:51:38Z</time>
      </trkpt>
      <trkpt lat="45.91198" lon="3.68761">
        <ele>915</ele>
        <time>2015-08-05T12:51:42Z</time>
      </trkpt>
      <trkpt lat="45.91196" lon="3.68758">
        <ele>915</ele>
        <time>2015-08-05T12:51:45Z</time>
      </trkpt>
      <trkpt lat="45.9119" lon="3.68752">
        <ele>915</ele>
        <time>2015-08-05T12:51:51Z</time>
      </trkpt>
      <trkpt lat="45.91189" lon="3.68749">
        <ele>915</ele>
        <time>2015-08-05T12:51:53Z</time>
      </trkpt>
      <trkpt lat="45.91183" lon="3.68744">
        <ele>915</ele>
        <time>2015-08-05T12:51:57Z</time>
      </trkpt>
      <trkpt lat="45.91178" lon="3.68737">
        <ele>915</ele>
        <time>2015-08-05T12:52:03Z</time>
      </trkpt>
      <trkpt lat="45.91175" lon="3.68728">
        <ele>912</ele>
        <time>2015-08-05T12:52:07Z</time>
      </trkpt>
      <trkpt lat="45.91173" lon="3.68725">
        <ele>911</ele>
        <time>2015-08-05T12:52:09Z</time>
      </trkpt>
      <trkpt lat="45.91167" lon="3.68717">
        <ele>909</ele>
        <time>2015-08-05T12:52:14Z</time>
      </trkpt>
      <trkpt lat="45.91164" lon="3.68712">
        <ele>907</ele>
        <time>2015-08-05T12:52:17Z</time>
      </trkpt>
      <trkpt lat="45.91161" lon="3.68709">
        <ele>907</ele>
        <time>2015-08-05T12:52:19Z</time>
      </trkpt>
      <trkpt lat="45.91159" lon="3.68706">
        <ele>907</ele>
        <time>2015-08-05T12:52:22Z</time>
      </trkpt>
      <trkpt lat="45.91156" lon="3.68699">
        <ele>907</ele>
        <time>2015-08-05T12:52:26Z</time>
      </trkpt>
      <trkpt lat="45.91151" lon="3.68694">
        <ele>907</ele>
        <time>2015-08-05T12:52:30Z</time>
      </trkpt>
      <trkpt lat="45.91142" lon="3.68682">
        <ele>907</ele>
        <time>2015-08-05T12:52:40Z</time>
      </trkpt>
      <trkpt lat="45.9114" lon="3.68679">
        <ele>904</ele>
        <time>2015-08-05T12:52:44Z</time>
      </trkpt>
      <trkpt lat="45.9114" lon="3.68676">
        <ele>904</ele>
        <time>2015-08-05T12:52:46Z</time>
      </trkpt>
      <trkpt lat="45.91139" lon="3.68674">
        <ele>904</ele>
        <time>2015-08-05T12:52:48Z</time>
      </trkpt>
      <trkpt lat="45.91131" lon="3.6867">
        <ele>904</ele>
        <time>2015-08-05T12:52:54Z</time>
      </trkpt>
      <trkpt lat="45.91129" lon="3.68668">
        <ele>904</ele>
        <time>2015-08-05T12:52:57Z</time>
      </trkpt>
      <trkpt lat="45.91127" lon="3.68667">
        <ele>904</ele>
        <time>2015-08-05T12:52:59Z</time>
      </trkpt>
      <trkpt lat="45.91122" lon="3.68663">
        <ele>904</ele>
        <time>2015-08-05T12:53:03Z</time>
      </trkpt>
      <trkpt lat="45.91116" lon="3.68661">
        <ele>902</ele>
        <time>2015-08-05T12:53:07Z</time>
      </trkpt>
      <trkpt lat="45.91114" lon="3.68663">
        <ele>900</ele>
        <time>2015-08-05T12:53:09Z</time>
      </trkpt>
      <trkpt lat="45.91111" lon="3.68661">
        <ele>899</ele>
        <time>2015-08-05T12:53:12Z</time>
      </trkpt>
      <trkpt lat="45.91103" lon="3.68656">
        <ele>899</ele>
        <time>2015-08-05T12:53:21Z</time>
      </trkpt>
      <trkpt lat="45.911" lon="3.68656">
        <ele>901</ele>
        <time>2015-08-05T12:53:25Z</time>
      </trkpt>
      <trkpt lat="45.91093" lon="3.6865">
        <ele>903</ele>
        <time>2015-08-05T12:53:29Z</time>
      </trkpt>
      <trkpt lat="45.91086" lon="3.68646">
        <ele>903</ele>
        <time>2015-08-05T12:53:35Z</time>
      </trkpt>
      <trkpt lat="45.91082" lon="3.68643">
        <ele>903</ele>
        <time>2015-08-05T12:53:38Z</time>
      </trkpt>
      <trkpt lat="45.91079" lon="3.68642">
        <ele>903</ele>
        <time>2015-08-05T12:53:40Z</time>
      </trkpt>
      <trkpt lat="45.91075" lon="3.6864">
        <ele>903</ele>
        <time>2015-08-05T12:53:42Z</time>
      </trkpt>
      <trkpt lat="45.91073" lon="3.6864">
        <ele>902</ele>
        <time>2015-08-05T12:53:44Z</time>
      </trkpt>
      <trkpt lat="45.91068" lon="3.68636">
        <ele>901</ele>
        <time>2015-08-05T12:53:48Z</time>
      </trkpt>
      <trkpt lat="45.91065" lon="3.68635">
        <ele>901</ele>
        <time>2015-08-05T12:53:51Z</time>
      </trkpt>
      <trkpt lat="45.91063" lon="3.68633">
        <ele>901</ele>
        <time>2015-08-05T12:53:53Z</time>
      </trkpt>
      <trkpt lat="45.91059" lon="3.6863">
        <ele>901</ele>
        <time>2015-08-05T12:53:56Z</time>
      </trkpt>
      <trkpt lat="45.91056" lon="3.68628">
        <ele>901</ele>
        <time>2015-08-05T12:53:58Z</time>
      </trkpt>
      <trkpt lat="45.91049" lon="3.68626">
        <ele>901</ele>
        <time>2015-08-05T12:54:02Z</time>
      </trkpt>
      <trkpt lat="45.91047" lon="3.68628">
        <ele>901</ele>
        <time>2015-08-05T12:54:04Z</time>
      </trkpt>
      <trkpt lat="45.91044" lon="3.68636">
        <ele>901</ele>
        <time>2015-08-05T12:54:08Z</time>
      </trkpt>
      <trkpt lat="45.91042" lon="3.68645">
        <ele>907</ele>
        <time>2015-08-05T12:54:15Z</time>
      </trkpt>
      <trkpt lat="45.9104" lon="3.68646">
        <ele>909</ele>
        <time>2015-08-05T12:54:17Z</time>
      </trkpt>
      <trkpt lat="45.91042" lon="3.68658">
        <ele>910</ele>
        <time>2015-08-05T12:54:23Z</time>
      </trkpt>
      <trkpt lat="45.91042" lon="3.68666">
        <ele>910</ele>
        <time>2015-08-05T12:54:27Z</time>
      </trkpt>
      <trkpt lat="45.91045" lon="3.6867">
        <ele>912</ele>
        <time>2015-08-05T12:54:30Z</time>
      </trkpt>
      <trkpt lat="45.91044" lon="3.68679">
        <ele>912</ele>
        <time>2015-08-05T12:54:34Z</time>
      </trkpt>
      <trkpt lat="45.91044" lon="3.68688">
        <ele>914</ele>
        <time>2015-08-05T12:54:38Z</time>
      </trkpt>
      <trkpt lat="45.91044" lon="3.68693">
        <ele>916</ele>
        <time>2015-08-05T12:54:40Z</time>
      </trkpt>
      <trkpt lat="45.91046" lon="3.68697">
        <ele>917</ele>
        <time>2015-08-05T12:54:43Z</time>
      </trkpt>
      <trkpt lat="45.91047" lon="3.687">
        <ele>918</ele>
        <time>2015-08-05T12:54:45Z</time>
      </trkpt>
      <trkpt lat="45.91046" lon="3.68706">
        <ele>921</ele>
        <time>2015-08-05T12:54:48Z</time>
      </trkpt>
      <trkpt lat="45.91047" lon="3.68711">
        <ele>921</ele>
        <time>2015-08-05T12:54:50Z</time>
      </trkpt>
      <trkpt lat="45.91047" lon="3.68717">
        <ele>921</ele>
        <time>2015-08-05T12:54:54Z</time>
      </trkpt>
      <trkpt lat="45.91051" lon="3.68732">
        <ele>921</ele>
        <time>2015-08-05T12:55:03Z</time>
      </trkpt>
      <trkpt lat="45.91054" lon="3.68735">
        <ele>921</ele>
        <time>2015-08-05T12:55:05Z</time>
      </trkpt>
      <trkpt lat="45.91054" lon="3.6874">
        <ele>921</ele>
        <time>2015-08-05T12:55:07Z</time>
      </trkpt>
      <trkpt lat="45.91055" lon="3.68744">
        <ele>921</ele>
        <time>2015-08-05T12:55:09Z</time>
      </trkpt>
      <trkpt lat="45.91056" lon="3.68754">
        <ele>922</ele>
        <time>2015-08-05T12:55:15Z</time>
      </trkpt>
      <trkpt lat="45.91058" lon="3.68758">
        <ele>922</ele>
        <time>2015-08-05T12:55:17Z</time>
      </trkpt>
      <trkpt lat="45.9106" lon="3.68762">
        <ele>922</ele>
        <time>2015-08-05T12:55:20Z</time>
      </trkpt>
      <trkpt lat="45.91062" lon="3.68765">
        <ele>922</ele>
        <time>2015-08-05T12:55:22Z</time>
      </trkpt>
      <trkpt lat="45.91069" lon="3.68775">
        <ele>919</ele>
        <time>2015-08-05T12:55:28Z</time>
      </trkpt>
      <trkpt lat="45.91069" lon="3.68779">
        <ele>917</ele>
        <time>2015-08-05T12:55:30Z</time>
      </trkpt>
      <trkpt lat="45.91068" lon="3.68786">
        <ele>914</ele>
        <time>2015-08-05T12:55:33Z</time>
      </trkpt>
      <trkpt lat="45.91068" lon="3.68789">
        <ele>914</ele>
        <time>2015-08-05T12:55:35Z</time>
      </trkpt>
      <trkpt lat="45.91069" lon="3.68794">
        <ele>914</ele>
        <time>2015-08-05T12:55:37Z</time>
      </trkpt>
      <trkpt lat="45.9107" lon="3.68797">
        <ele>914</ele>
        <time>2015-08-05T12:55:39Z</time>
      </trkpt>
      <trkpt lat="45.91071" lon="3.68801">
        <ele>914</ele>
        <time>2015-08-05T12:55:41Z</time>
      </trkpt>
      <trkpt lat="45.9107" lon="3.68806">
        <ele>914</ele>
        <time>2015-08-05T12:55:43Z</time>
      </trkpt>
      <trkpt lat="45.91069" lon="3.68811">
        <ele>916</ele>
        <time>2015-08-05T12:55:45Z</time>
      </trkpt>
      <trkpt lat="45.91068" lon="3.68818">
        <ele>918</ele>
        <time>2015-08-05T12:55:49Z</time>
      </trkpt>
      <trkpt lat="45.91069" lon="3.68822">
        <ele>918</ele>
        <time>2015-08-05T12:55:52Z</time>
      </trkpt>
      <trkpt lat="45.9107" lon="3.68826">
        <ele>918</ele>
        <time>2015-08-05T12:55:56Z</time>
      </trkpt>
      <trkpt lat="45.91071" lon="3.68828">
        <ele>918</ele>
        <time>2015-08-05T12:55:58Z</time>
      </trkpt>
      <trkpt lat="45.91071" lon="3.68834">
        <ele>915</ele>
        <time>2015-08-05T12:56:01Z</time>
      </trkpt>
      <trkpt lat="45.91068" lon="3.68847">
        <ele>910</ele>
        <time>2015-08-05T12:56:09Z</time>
      </trkpt>
      <trkpt lat="45.91067" lon="3.68851">
        <ele>907</ele>
        <time>2015-08-05T12:56:12Z</time>
      </trkpt>
      <trkpt lat="45.91065" lon="3.68853">
        <ele>904</ele>
        <time>2015-08-05T12:56:15Z</time>
      </trkpt>
      <trkpt lat="45.91064" lon="3.68856">
        <ele>903</ele>
        <time>2015-08-05T12:56:17Z</time>
      </trkpt>
      <trkpt lat="45.91062" lon="3.68858">
        <ele>903</ele>
        <time>2015-08-05T12:56:19Z</time>
      </trkpt>
      <trkpt lat="45.91058" lon="3.68863">
        <ele>903</ele>
        <time>2015-08-05T12:56:23Z</time>
      </trkpt>
      <trkpt lat="45.91055" lon="3.68868">
        <ele>903</ele>
        <time>2015-08-05T12:56:27Z</time>
      </trkpt>
      <trkpt lat="45.91051" lon="3.6887">
        <ele>903</ele>
        <time>2015-08-05T12:56:30Z</time>
      </trkpt>
      <trkpt lat="45.91045" lon="3.68876">
        <ele>900</ele>
        <time>2015-08-05T12:56:35Z</time>
      </trkpt>
      <trkpt lat="45.91042" lon="3.68877">
        <ele>898</ele>
        <time>2015-08-05T12:56:37Z</time>
      </trkpt>
      <trkpt lat="45.91039" lon="3.68881">
        <ele>896</ele>
        <time>2015-08-05T12:56:40Z</time>
      </trkpt>
      <trkpt lat="45.91038" lon="3.68886">
        <ele>896</ele>
        <time>2015-08-05T12:56:43Z</time>
      </trkpt>
      <trkpt lat="45.91037" lon="3.68887">
        <ele>896</ele>
        <time>2015-08-05T12:56:45Z</time>
      </trkpt>
      <trkpt lat="45.91035" lon="3.68884">
        <ele>896</ele>
        <time>2015-08-05T12:56:47Z</time>
      </trkpt>
      <trkpt lat="45.91027" lon="3.68887">
        <ele>894</ele>
        <time>2015-08-05T12:56:54Z</time>
      </trkpt>
      <trkpt lat="45.91022" lon="3.68891">
        <ele>894</ele>
        <time>2015-08-05T12:56:59Z</time>
      </trkpt>
      <trkpt lat="45.91017" lon="3.68895">
        <ele>894</ele>
        <time>2015-08-05T12:57:03Z</time>
      </trkpt>
      <trkpt lat="45.91015" lon="3.68895">
        <ele>893</ele>
        <time>2015-08-05T12:57:05Z</time>
      </trkpt>
      <trkpt lat="45.91009" lon="3.68893">
        <ele>889</ele>
        <time>2015-08-05T12:57:09Z</time>
      </trkpt>
      <trkpt lat="45.91005" lon="3.68894">
        <ele>885</ele>
        <time>2015-08-05T12:57:13Z</time>
      </trkpt>
      <trkpt lat="45.90998" lon="3.68893">
        <ele>885</ele>
        <time>2015-08-05T12:57:18Z</time>
      </trkpt>
      <trkpt lat="45.90995" lon="3.68892">
        <ele>885</ele>
        <time>2015-08-05T12:57:21Z</time>
      </trkpt>
      <trkpt lat="45.90992" lon="3.68892">
        <ele>885</ele>
        <time>2015-08-05T12:57:25Z</time>
      </trkpt>
      <trkpt lat="45.90989" lon="3.68888">
        <ele>884</ele>
        <time>2015-08-05T12:57:27Z</time>
      </trkpt>
      <trkpt lat="45.90986" lon="3.68886">
        <ele>882</ele>
        <time>2015-08-05T12:57:29Z</time>
      </trkpt>
      <trkpt lat="45.90983" lon="3.68885">
        <ele>880</ele>
        <time>2015-08-05T12:57:32Z</time>
      </trkpt>
      <trkpt lat="45.90984" lon="3.68887">
        <ele>880</ele>
        <time>2015-08-05T12:57:34Z</time>
      </trkpt>
      <trkpt lat="45.90975" lon="3.68882">
        <ele>885</ele>
        <time>2015-08-05T12:57:48Z</time>
      </trkpt>
      <trkpt lat="45.90972" lon="3.68871">
        <ele>885</ele>
        <time>2015-08-05T12:57:50Z</time>
      </trkpt>
      <trkpt lat="45.90967" lon="3.68865">
        <ele>885</ele>
        <time>2015-08-05T12:57:52Z</time>
      </trkpt>
      <trkpt lat="45.90962" lon="3.68863">
        <ele>885</ele>
        <time>2015-08-05T12:57:58Z</time>
      </trkpt>
      <trkpt lat="45.90957" lon="3.68854">
        <ele>885</ele>
        <time>2015-08-05T12:58:00Z</time>
      </trkpt>
      <trkpt lat="45.90953" lon="3.6885">
        <ele>882</ele>
        <time>2015-08-05T12:58:05Z</time>
      </trkpt>
      <trkpt lat="45.90951" lon="3.68849">
        <ele>881</ele>
        <time>2015-08-05T12:58:07Z</time>
      </trkpt>
      <trkpt lat="45.90947" lon="3.68848">
        <ele>881</ele>
        <time>2015-08-05T12:58:09Z</time>
      </trkpt>
      <trkpt lat="45.90946" lon="3.68845">
        <ele>881</ele>
        <time>2015-08-05T12:58:11Z</time>
      </trkpt>
      <trkpt lat="45.90943" lon="3.68843">
        <ele>881</ele>
        <time>2015-08-05T12:58:14Z</time>
      </trkpt>
      <trkpt lat="45.90939" lon="3.68842">
        <ele>881</ele>
        <time>2015-08-05T12:58:22Z</time>
      </trkpt>
      <trkpt lat="45.90934" lon="3.68838">
        <ele>882</ele>
        <time>2015-08-05T12:58:28Z</time>
      </trkpt>
      <trkpt lat="45.90929" lon="3.68836">
        <ele>882</ele>
        <time>2015-08-05T12:58:32Z</time>
      </trkpt>
      <trkpt lat="45.90926" lon="3.68836">
        <ele>882</ele>
        <time>2015-08-05T12:58:34Z</time>
      </trkpt>
      <trkpt lat="45.90925" lon="3.68837">
        <ele>882</ele>
        <time>2015-08-05T12:58:36Z</time>
      </trkpt>
      <trkpt lat="45.90918" lon="3.68835">
        <ele>882</ele>
        <time>2015-08-05T12:58:41Z</time>
      </trkpt>
      <trkpt lat="45.90916" lon="3.68833">
        <ele>881</ele>
        <time>2015-08-05T12:58:43Z</time>
      </trkpt>
      <trkpt lat="45.90911" lon="3.68833">
        <ele>880</ele>
        <time>2015-08-05T12:58:45Z</time>
      </trkpt>
      <trkpt lat="45.90908" lon="3.68834">
        <ele>880</ele>
        <time>2015-08-05T12:58:47Z</time>
      </trkpt>
      <trkpt lat="45.90905" lon="3.68833">
        <ele>880</ele>
        <time>2015-08-05T12:58:51Z</time>
      </trkpt>
      <trkpt lat="45.90902" lon="3.68835">
        <ele>880</ele>
        <time>2015-08-05T12:58:53Z</time>
      </trkpt>
      <trkpt lat="45.90899" lon="3.68838">
        <ele>880</ele>
        <time>2015-08-05T12:58:56Z</time>
      </trkpt>
      <trkpt lat="45.90897" lon="3.68838">
        <ele>880</ele>
        <time>2015-08-05T12:58:58Z</time>
      </trkpt>
      <trkpt lat="45.90895" lon="3.68837">
        <ele>880</ele>
        <time>2015-08-05T12:59:00Z</time>
      </trkpt>
      <trkpt lat="45.90892" lon="3.68836">
        <ele>879</ele>
        <time>2015-08-05T12:59:02Z</time>
      </trkpt>
      <trkpt lat="45.90889" lon="3.68837">
        <ele>876</ele>
        <time>2015-08-05T12:59:05Z</time>
      </trkpt>
      <trkpt lat="45.90886" lon="3.68837">
        <ele>875</ele>
        <time>2015-08-05T12:59:08Z</time>
      </trkpt>
      <trkpt lat="45.90882" lon="3.68836">
        <ele>874</ele>
        <time>2015-08-05T12:59:11Z</time>
      </trkpt>
      <trkpt lat="45.90879" lon="3.68836">
        <ele>873</ele>
        <time>2015-08-05T12:59:13Z</time>
      </trkpt>
      <trkpt lat="45.90874" lon="3.68833">
        <ele>869</ele>
        <time>2015-08-05T12:59:17Z</time>
      </trkpt>
      <trkpt lat="45.90871" lon="3.68831">
        <ele>867</ele>
        <time>2015-08-05T12:59:19Z</time>
      </trkpt>
      <trkpt lat="45.90867" lon="3.68825">
        <ele>863</ele>
        <time>2015-08-05T12:59:25Z</time>
      </trkpt>
      <trkpt lat="45.90866" lon="3.68823">
        <ele>862</ele>
        <time>2015-08-05T12:59:27Z</time>
      </trkpt>
      <trkpt lat="45.90867" lon="3.68821">
        <ele>861</ele>
        <time>2015-08-05T12:59:29Z</time>
      </trkpt>
      <trkpt lat="45.90866" lon="3.68818">
        <ele>861</ele>
        <time>2015-08-05T12:59:31Z</time>
      </trkpt>
      <trkpt lat="45.90864" lon="3.68816">
        <ele>859</ele>
        <time>2015-08-05T12:59:33Z</time>
      </trkpt>
      <trkpt lat="45.90863" lon="3.68814">
        <ele>858</ele>
        <time>2015-08-05T12:59:36Z</time>
      </trkpt>
      <trkpt lat="45.90863" lon="3.68812">
        <ele>858</ele>
        <time>2015-08-05T12:59:38Z</time>
      </trkpt>
      <trkpt lat="45.90861" lon="3.6881">
        <ele>858</ele>
        <time>2015-08-05T12:59:40Z</time>
      </trkpt>
      <trkpt lat="45.9086" lon="3.68809">
        <ele>858</ele>
        <time>2015-08-05T12:59:42Z</time>
      </trkpt>
      <trkpt lat="45.90858" lon="3.68807">
        <ele>858</ele>
        <time>2015-08-05T12:59:44Z</time>
      </trkpt>
      <trkpt lat="45.90855" lon="3.68805">
        <ele>858</ele>
        <time>2015-08-05T12:59:48Z</time>
      </trkpt>
      <trkpt lat="45.90851" lon="3.68798">
        <ele>856</ele>
        <time>2015-08-05T12:59:53Z</time>
      </trkpt>
      <trkpt lat="45.90847" lon="3.68787">
        <ele>855</ele>
        <time>2015-08-05T13:00:01Z</time>
      </trkpt>
      <trkpt lat="45.90848" lon="3.68784">
        <ele>855</ele>
        <time>2015-08-05T13:00:03Z</time>
      </trkpt>
      <trkpt lat="45.90846" lon="3.68778">
        <ele>855</ele>
        <time>2015-08-05T13:00:05Z</time>
      </trkpt>
      <trkpt lat="45.90844" lon="3.68775">
        <ele>856</ele>
        <time>2015-08-05T13:00:10Z</time>
      </trkpt>
      <trkpt lat="45.90842" lon="3.68771">
        <ele>857</ele>
        <time>2015-08-05T13:00:13Z</time>
      </trkpt>
      <trkpt lat="45.90841" lon="3.68769">
        <ele>857</ele>
        <time>2015-08-05T13:00:15Z</time>
      </trkpt>
      <trkpt lat="45.90841" lon="3.68767">
        <ele>859</ele>
        <time>2015-08-05T13:00:17Z</time>
      </trkpt>
      <trkpt lat="45.9084" lon="3.68757">
        <ele>863</ele>
        <time>2015-08-05T13:00:22Z</time>
      </trkpt>
      <trkpt lat="45.90838" lon="3.68754">
        <ele>863</ele>
        <time>2015-08-05T13:00:24Z</time>
      </trkpt>
      <trkpt lat="45.90839" lon="3.6875">
        <ele>863</ele>
        <time>2015-08-05T13:00:26Z</time>
      </trkpt>
      <trkpt lat="45.90839" lon="3.68745">
        <ele>863</ele>
        <time>2015-08-05T13:00:28Z</time>
      </trkpt>
      <trkpt lat="45.90839" lon="3.68742">
        <ele>865</ele>
        <time>2015-08-05T13:00:30Z</time>
      </trkpt>
      <trkpt lat="45.90836" lon="3.68734">
        <ele>866</ele>
        <time>2015-08-05T13:00:35Z</time>
      </trkpt>
      <trkpt lat="45.90833" lon="3.68725">
        <ele>866</ele>
        <time>2015-08-05T13:00:39Z</time>
      </trkpt>
      <trkpt lat="45.90832" lon="3.68721">
        <ele>866</ele>
        <time>2015-08-05T13:00:42Z</time>
      </trkpt>
      <trkpt lat="45.9083" lon="3.68717">
        <ele>866</ele>
        <time>2015-08-05T13:00:45Z</time>
      </trkpt>
      <trkpt lat="45.90827" lon="3.68711">
        <ele>865</ele>
        <time>2015-08-05T13:00:47Z</time>
      </trkpt>
      <trkpt lat="45.90825" lon="3.68711">
        <ele>863</ele>
        <time>2015-08-05T13:00:49Z</time>
      </trkpt>
      <trkpt lat="45.90825" lon="3.68709">
        <ele>860</ele>
        <time>2015-08-05T13:00:52Z</time>
      </trkpt>
      <trkpt lat="45.90825" lon="3.68707">
        <ele>857</ele>
        <time>2015-08-05T13:00:56Z</time>
      </trkpt>
      <trkpt lat="45.90826" lon="3.68705">
        <ele>857</ele>
        <time>2015-08-05T13:01:00Z</time>
      </trkpt>
      <trkpt lat="45.90827" lon="3.68703">
        <ele>858</ele>
        <time>2015-08-05T13:01:03Z</time>
      </trkpt>
      <trkpt lat="45.90825" lon="3.687">
        <ele>860</ele>
        <time>2015-08-05T13:01:05Z</time>
      </trkpt>
      <trkpt lat="45.90822" lon="3.68695">
        <ele>863</ele>
        <time>2015-08-05T13:01:08Z</time>
      </trkpt>
      <trkpt lat="45.90821" lon="3.68689">
        <ele>863</ele>
        <time>2015-08-05T13:01:10Z</time>
      </trkpt>
      <trkpt lat="45.90818" lon="3.68686">
        <ele>863</ele>
        <time>2015-08-05T13:01:12Z</time>
      </trkpt>
      <trkpt lat="45.90815" lon="3.68684">
        <ele>863</ele>
        <time>2015-08-05T13:01:15Z</time>
      </trkpt>
      <trkpt lat="45.90814" lon="3.6868">
        <ele>864</ele>
        <time>2015-08-05T13:01:17Z</time>
      </trkpt>
      <trkpt lat="45.9081" lon="3.68674">
        <ele>865</ele>
        <time>2015-08-05T13:01:22Z</time>
      </trkpt>
      <trkpt lat="45.90808" lon="3.6867">
        <ele>865</ele>
        <time>2015-08-05T13:01:24Z</time>
      </trkpt>
      <trkpt lat="45.90807" lon="3.68666">
        <ele>865</ele>
        <time>2015-08-05T13:01:26Z</time>
      </trkpt>
      <trkpt lat="45.90803" lon="3.68655">
        <ele>865</ele>
        <time>2015-08-05T13:01:32Z</time>
      </trkpt>
      <trkpt lat="45.90802" lon="3.68653">
        <ele>865</ele>
        <time>2015-08-05T13:01:34Z</time>
      </trkpt>
      <trkpt lat="45.90801" lon="3.6865">
        <ele>865</ele>
        <time>2015-08-05T13:01:36Z</time>
      </trkpt>
      <trkpt lat="45.908" lon="3.68647">
        <ele>865</ele>
        <time>2015-08-05T13:01:38Z</time>
      </trkpt>
      <trkpt lat="45.90798" lon="3.68639">
        <ele>865</ele>
        <time>2015-08-05T13:01:42Z</time>
      </trkpt>
      <trkpt lat="45.90797" lon="3.68636">
        <ele>864</ele>
        <time>2015-08-05T13:01:44Z</time>
      </trkpt>
      <trkpt lat="45.90794" lon="3.68632">
        <ele>863</ele>
        <time>2015-08-05T13:01:46Z</time>
      </trkpt>
      <trkpt lat="45.90792" lon="3.68629">
        <ele>862</ele>
        <time>2015-08-05T13:01:48Z</time>
      </trkpt>
      <trkpt lat="45.9079" lon="3.68625">
        <ele>861</ele>
        <time>2015-08-05T13:01:50Z</time>
      </trkpt>
      <trkpt lat="45.90785" lon="3.68615">
        <ele>856</ele>
        <time>2015-08-05T13:01:58Z</time>
      </trkpt>
      <trkpt lat="45.90781" lon="3.68611">
        <ele>856</ele>
        <time>2015-08-05T13:02:01Z</time>
      </trkpt>
      <trkpt lat="45.90779" lon="3.68601">
        <ele>856</ele>
        <time>2015-08-05T13:02:06Z</time>
      </trkpt>
      <trkpt lat="45.90777" lon="3.68598">
        <ele>856</ele>
        <time>2015-08-05T13:02:08Z</time>
      </trkpt>
      <trkpt lat="45.90777" lon="3.68596">
        <ele>856</ele>
        <time>2015-08-05T13:02:10Z</time>
      </trkpt>
      <trkpt lat="45.90774" lon="3.68592">
        <ele>856</ele>
        <time>2015-08-05T13:02:13Z</time>
      </trkpt>
      <trkpt lat="45.90771" lon="3.68587">
        <ele>856</ele>
        <time>2015-08-05T13:02:16Z</time>
      </trkpt>
      <trkpt lat="45.90768" lon="3.68584">
        <ele>856</ele>
        <time>2015-08-05T13:02:18Z</time>
      </trkpt>
      <trkpt lat="45.90766" lon="3.6858">
        <ele>856</ele>
        <time>2015-08-05T13:02:20Z</time>
      </trkpt>
      <trkpt lat="45.90764" lon="3.68577">
        <ele>856</ele>
        <time>2015-08-05T13:02:22Z</time>
      </trkpt>
      <trkpt lat="45.90761" lon="3.68574">
        <ele>856</ele>
        <time>2015-08-05T13:02:25Z</time>
      </trkpt>
      <trkpt lat="45.90759" lon="3.68567">
        <ele>856</ele>
        <time>2015-08-05T13:02:31Z</time>
      </trkpt>
      <trkpt lat="45.90757" lon="3.68562">
        <ele>854</ele>
        <time>2015-08-05T13:02:34Z</time>
      </trkpt>
      <trkpt lat="45.90756" lon="3.68559">
        <ele>852</ele>
        <time>2015-08-05T13:02:37Z</time>
      </trkpt>
      <trkpt lat="45.90755" lon="3.68558">
        <ele>852</ele>
        <time>2015-08-05T13:02:39Z</time>
      </trkpt>
      <trkpt lat="45.90752" lon="3.68554">
        <ele>852</ele>
        <time>2015-08-05T13:02:41Z</time>
      </trkpt>
      <trkpt lat="45.90747" lon="3.68546">
        <ele>851</ele>
        <time>2015-08-05T13:02:45Z</time>
      </trkpt>
      <trkpt lat="45.90746" lon="3.68543">
        <ele>849</ele>
        <time>2015-08-05T13:02:47Z</time>
      </trkpt>
      <trkpt lat="45.90746" lon="3.68539">
        <ele>847</ele>
        <time>2015-08-05T13:02:49Z</time>
      </trkpt>
      <trkpt lat="45.90743" lon="3.68534">
        <ele>846</ele>
        <time>2015-08-05T13:02:52Z</time>
      </trkpt>
      <trkpt lat="45.9074" lon="3.68531">
        <ele>845</ele>
        <time>2015-08-05T13:02:56Z</time>
      </trkpt>
      <trkpt lat="45.90735" lon="3.68519">
        <ele>845</ele>
        <time>2015-08-05T13:03:03Z</time>
      </trkpt>
      <trkpt lat="45.90731" lon="3.68514">
        <ele>845</ele>
        <time>2015-08-05T13:03:08Z</time>
      </trkpt>
      <trkpt lat="45.90726" lon="3.68513">
        <ele>845</ele>
        <time>2015-08-05T13:03:10Z</time>
      </trkpt>
      <trkpt lat="45.90723" lon="3.6851">
        <ele>845</ele>
        <time>2015-08-05T13:03:12Z</time>
      </trkpt>
      <trkpt lat="45.90715" lon="3.68502">
        <ele>846</ele>
        <time>2015-08-05T13:03:17Z</time>
      </trkpt>
      <trkpt lat="45.90711" lon="3.68504">
        <ele>846</ele>
        <time>2015-08-05T13:03:21Z</time>
      </trkpt>
      <trkpt lat="45.90711" lon="3.68496">
        <ele>846</ele>
        <time>2015-08-05T13:03:25Z</time>
      </trkpt>
      <trkpt lat="45.90705" lon="3.68486">
        <ele>844</ele>
        <time>2015-08-05T13:03:34Z</time>
      </trkpt>
      <trkpt lat="45.90702" lon="3.68481">
        <ele>842</ele>
        <time>2015-08-05T13:03:36Z</time>
      </trkpt>
      <trkpt lat="45.90698" lon="3.6848">
        <ele>839</ele>
        <time>2015-08-05T13:03:39Z</time>
      </trkpt>
      <trkpt lat="45.90694" lon="3.68475">
        <ele>835</ele>
        <time>2015-08-05T13:03:43Z</time>
      </trkpt>
      <trkpt lat="45.90691" lon="3.68473">
        <ele>832</ele>
        <time>2015-08-05T13:03:46Z</time>
      </trkpt>
      <trkpt lat="45.90689" lon="3.68472">
        <ele>830</ele>
        <time>2015-08-05T13:03:48Z</time>
      </trkpt>
      <trkpt lat="45.90687" lon="3.68473">
        <ele>827</ele>
        <time>2015-08-05T13:03:51Z</time>
      </trkpt>
      <trkpt lat="45.90683" lon="3.68471">
        <ele>826</ele>
        <time>2015-08-05T13:03:53Z</time>
      </trkpt>
      <trkpt lat="45.9068" lon="3.68473">
        <ele>826</ele>
        <time>2015-08-05T13:03:56Z</time>
      </trkpt>
      <trkpt lat="45.90679" lon="3.68475">
        <ele>829</ele>
        <time>2015-08-05T13:03:59Z</time>
      </trkpt>
      <trkpt lat="45.90674" lon="3.68476">
        <ele>831</ele>
        <time>2015-08-05T13:04:03Z</time>
      </trkpt>
      <trkpt lat="45.9067" lon="3.68472">
        <ele>832</ele>
        <time>2015-08-05T13:04:05Z</time>
      </trkpt>
      <trkpt lat="45.90668" lon="3.68472">
        <ele>832</ele>
        <time>2015-08-05T13:04:07Z</time>
      </trkpt>
      <trkpt lat="45.90661" lon="3.68467">
        <ele>832</ele>
        <time>2015-08-05T13:04:11Z</time>
      </trkpt>
      <trkpt lat="45.90658" lon="3.68467">
        <ele>832</ele>
        <time>2015-08-05T13:04:13Z</time>
      </trkpt>
      <trkpt lat="45.90656" lon="3.68469">
        <ele>832</ele>
        <time>2015-08-05T13:04:15Z</time>
      </trkpt>
      <trkpt lat="45.90649" lon="3.68473">
        <ele>832</ele>
        <time>2015-08-05T13:04:20Z</time>
      </trkpt>
      <trkpt lat="45.90647" lon="3.68473">
        <ele>831</ele>
        <time>2015-08-05T13:04:22Z</time>
      </trkpt>
      <trkpt lat="45.90644" lon="3.68475">
        <ele>830</ele>
        <time>2015-08-05T13:04:24Z</time>
      </trkpt>
      <trkpt lat="45.90641" lon="3.68479">
        <ele>829</ele>
        <time>2015-08-05T13:04:27Z</time>
      </trkpt>
      <trkpt lat="45.90635" lon="3.68484">
        <ele>828</ele>
        <time>2015-08-05T13:04:33Z</time>
      </trkpt>
      <trkpt lat="45.90633" lon="3.68485">
        <ele>828</ele>
        <time>2015-08-05T13:04:35Z</time>
      </trkpt>
      <trkpt lat="45.9063" lon="3.68485">
        <ele>828</ele>
        <time>2015-08-05T13:04:37Z</time>
      </trkpt>
      <trkpt lat="45.90629" lon="3.68487">
        <ele>828</ele>
        <time>2015-08-05T13:04:39Z</time>
      </trkpt>
      <trkpt lat="45.90626" lon="3.68486">
        <ele>828</ele>
        <time>2015-08-05T13:04:41Z</time>
      </trkpt>
      <trkpt lat="45.90623" lon="3.68485">
        <ele>828</ele>
        <time>2015-08-05T13:04:43Z</time>
      </trkpt>
      <trkpt lat="45.9062" lon="3.68484">
        <ele>827</ele>
        <time>2015-08-05T13:04:45Z</time>
      </trkpt>
      <trkpt lat="45.90619" lon="3.68486">
        <ele>825</ele>
        <time>2015-08-05T13:04:48Z</time>
      </trkpt>
      <trkpt lat="45.90614" lon="3.68489">
        <ele>825</ele>
        <time>2015-08-05T13:04:53Z</time>
      </trkpt>
      <trkpt lat="45.90613" lon="3.68489">
        <ele>825</ele>
        <time>2015-08-05T13:04:55Z</time>
      </trkpt>
      <trkpt lat="45.90607" lon="3.68487">
        <ele>825</ele>
        <time>2015-08-05T13:04:59Z</time>
      </trkpt>
      <trkpt lat="45.90605" lon="3.68489">
        <ele>825</ele>
        <time>2015-08-05T13:05:01Z</time>
      </trkpt>
      <trkpt lat="45.90602" lon="3.6849">
        <ele>824</ele>
        <time>2015-08-05T13:05:03Z</time>
      </trkpt>
      <trkpt lat="45.90598" lon="3.6849">
        <ele>823</ele>
        <time>2015-08-05T13:05:07Z</time>
      </trkpt>
      <trkpt lat="45.90595" lon="3.68491">
        <ele>821</ele>
        <time>2015-08-05T13:05:09Z</time>
      </trkpt>
      <trkpt lat="45.90592" lon="3.6849">
        <ele>819</ele>
        <time>2015-08-05T13:05:11Z</time>
      </trkpt>
      <trkpt lat="45.9059" lon="3.68487">
        <ele>818</ele>
        <time>2015-08-05T13:05:13Z</time>
      </trkpt>
      <trkpt lat="45.90585" lon="3.68486">
        <ele>817</ele>
        <time>2015-08-05T13:05:18Z</time>
      </trkpt>
      <trkpt lat="45.90581" lon="3.68488">
        <ele>817</ele>
        <time>2015-08-05T13:05:20Z</time>
      </trkpt>
      <trkpt lat="45.90579" lon="3.68487">
        <ele>817</ele>
        <time>2015-08-05T13:05:22Z</time>
      </trkpt>
      <trkpt lat="45.90572" lon="3.68488">
        <ele>817</ele>
        <time>2015-08-05T13:05:27Z</time>
      </trkpt>
      <trkpt lat="45.90569" lon="3.6849">
        <ele>817</ele>
        <time>2015-08-05T13:05:29Z</time>
      </trkpt>
      <trkpt lat="45.90567" lon="3.68494">
        <ele>817</ele>
        <time>2015-08-05T13:05:31Z</time>
      </trkpt>
      <trkpt lat="45.90562" lon="3.68493">
        <ele>817</ele>
        <time>2015-08-05T13:05:34Z</time>
      </trkpt>
      <trkpt lat="45.9056" lon="3.68497">
        <ele>817</ele>
        <time>2015-08-05T13:05:36Z</time>
      </trkpt>
      <trkpt lat="45.90556" lon="3.68498">
        <ele>817</ele>
        <time>2015-08-05T13:05:39Z</time>
      </trkpt>
      <trkpt lat="45.90554" lon="3.685">
        <ele>817</ele>
        <time>2015-08-05T13:05:41Z</time>
      </trkpt>
      <trkpt lat="45.90548" lon="3.68497">
        <ele>818</ele>
        <time>2015-08-05T13:05:44Z</time>
      </trkpt>
      <trkpt lat="45.90545" lon="3.68498">
        <ele>818</ele>
        <time>2015-08-05T13:05:46Z</time>
      </trkpt>
      <trkpt lat="45.90543" lon="3.68501">
        <ele>818</ele>
        <time>2015-08-05T13:05:48Z</time>
      </trkpt>
      <trkpt lat="45.90539" lon="3.68501">
        <ele>821</ele>
        <time>2015-08-05T13:05:54Z</time>
      </trkpt>
      <trkpt lat="45.90538" lon="3.68495">
        <ele>821</ele>
        <time>2015-08-05T13:05:57Z</time>
      </trkpt>
      <trkpt lat="45.90535" lon="3.68496">
        <ele>820</ele>
        <time>2015-08-05T13:06:00Z</time>
      </trkpt>
      <trkpt lat="45.90533" lon="3.68501">
        <ele>819</ele>
        <time>2015-08-05T13:06:04Z</time>
      </trkpt>
      <trkpt lat="45.90531" lon="3.68501">
        <ele>819</ele>
        <time>2015-08-05T13:06:07Z</time>
      </trkpt>
      <trkpt lat="45.90527" lon="3.68503">
        <ele>818</ele>
        <time>2015-08-05T13:06:10Z</time>
      </trkpt>
      <trkpt lat="45.90525" lon="3.68505">
        <ele>817</ele>
        <time>2015-08-05T13:06:12Z</time>
      </trkpt>
      <trkpt lat="45.90515" lon="3.68503">
        <ele>816</ele>
        <time>2015-08-05T13:06:18Z</time>
      </trkpt>
      <trkpt lat="45.90511" lon="3.68503">
        <ele>816</ele>
        <time>2015-08-05T13:06:20Z</time>
      </trkpt>
      <trkpt lat="45.90507" lon="3.68501">
        <ele>816</ele>
        <time>2015-08-05T13:06:22Z</time>
      </trkpt>
      <trkpt lat="45.90504" lon="3.68504">
        <ele>815</ele>
        <time>2015-08-05T13:06:25Z</time>
      </trkpt>
      <trkpt lat="45.905" lon="3.68502">
        <ele>814</ele>
        <time>2015-08-05T13:06:27Z</time>
      </trkpt>
      <trkpt lat="45.90498" lon="3.68502">
        <ele>812</ele>
        <time>2015-08-05T13:06:29Z</time>
      </trkpt>
      <trkpt lat="45.90496" lon="3.68505">
        <ele>811</ele>
        <time>2015-08-05T13:06:31Z</time>
      </trkpt>
      <trkpt lat="45.90489" lon="3.68512">
        <ele>809</ele>
        <time>2015-08-05T13:06:38Z</time>
      </trkpt>
      <trkpt lat="45.90488" lon="3.68516">
        <ele>809</ele>
        <time>2015-08-05T13:06:40Z</time>
      </trkpt>
      <trkpt lat="45.90485" lon="3.68519">
        <ele>809</ele>
        <time>2015-08-05T13:06:43Z</time>
      </trkpt>
      <trkpt lat="45.90483" lon="3.68523">
        <ele>809</ele>
        <time>2015-08-05T13:06:45Z</time>
      </trkpt>
      <trkpt lat="45.90477" lon="3.68533">
        <ele>809</ele>
        <time>2015-08-05T13:06:52Z</time>
      </trkpt>
      <trkpt lat="45.90474" lon="3.68535">
        <ele>809</ele>
        <time>2015-08-05T13:06:55Z</time>
      </trkpt>
      <trkpt lat="45.90462" lon="3.68547">
        <ele>807</ele>
        <time>2015-08-05T13:07:05Z</time>
      </trkpt>
      <trkpt lat="45.90457" lon="3.68545">
        <ele>809</ele>
        <time>2015-08-05T13:07:08Z</time>
      </trkpt>
      <trkpt lat="45.90455" lon="3.68545">
        <ele>809</ele>
        <time>2015-08-05T13:07:10Z</time>
      </trkpt>
      <trkpt lat="45.90451" lon="3.68547">
        <ele>809</ele>
        <time>2015-08-05T13:07:13Z</time>
      </trkpt>
      <trkpt lat="45.90447" lon="3.6855">
        <ele>809</ele>
        <time>2015-08-05T13:07:17Z</time>
      </trkpt>
      <trkpt lat="45.90443" lon="3.68551">
        <ele>809</ele>
        <time>2015-08-05T13:07:20Z</time>
      </trkpt>
      <trkpt lat="45.90439" lon="3.68553">
        <ele>807</ele>
        <time>2015-08-05T13:07:23Z</time>
      </trkpt>
      <trkpt lat="45.90437" lon="3.68554">
        <ele>805</ele>
        <time>2015-08-05T13:07:25Z</time>
      </trkpt>
      <trkpt lat="45.90434" lon="3.68556">
        <ele>803</ele>
        <time>2015-08-05T13:07:29Z</time>
      </trkpt>
      <trkpt lat="45.90427" lon="3.6856">
        <ele>801</ele>
        <time>2015-08-05T13:07:34Z</time>
      </trkpt>
      <trkpt lat="45.90424" lon="3.68561">
        <ele>801</ele>
        <time>2015-08-05T13:07:36Z</time>
      </trkpt>
      <trkpt lat="45.90417" lon="3.6856">
        <ele>796</ele>
        <time>2015-08-05T13:07:41Z</time>
      </trkpt>
      <trkpt lat="45.90412" lon="3.68566">
        <ele>796</ele>
        <time>2015-08-05T13:07:47Z</time>
      </trkpt>
      <trkpt lat="45.90408" lon="3.68568">
        <ele>796</ele>
        <time>2015-08-05T13:07:51Z</time>
      </trkpt>
      <trkpt lat="45.90404" lon="3.68568">
        <ele>796</ele>
        <time>2015-08-05T13:07:53Z</time>
      </trkpt>
      <trkpt lat="45.90398" lon="3.68573">
        <ele>796</ele>
        <time>2015-08-05T13:07:57Z</time>
      </trkpt>
      <trkpt lat="45.90393" lon="3.68577">
        <ele>797</ele>
        <time>2015-08-05T13:08:01Z</time>
      </trkpt>
      <trkpt lat="45.90391" lon="3.68578">
        <ele>797</ele>
        <time>2015-08-05T13:08:04Z</time>
      </trkpt>
      <trkpt lat="45.90386" lon="3.68578">
        <ele>797</ele>
        <time>2015-08-05T13:08:08Z</time>
      </trkpt>
      <trkpt lat="45.90385" lon="3.68579">
        <ele>797</ele>
        <time>2015-08-05T13:08:12Z</time>
      </trkpt>
      <trkpt lat="45.90384" lon="3.68581">
        <ele>797</ele>
        <time>2015-08-05T13:08:15Z</time>
      </trkpt>
      <trkpt lat="45.9038" lon="3.68579">
        <ele>797</ele>
        <time>2015-08-05T13:08:18Z</time>
      </trkpt>
      <trkpt lat="45.90377" lon="3.6858">
        <ele>797</ele>
        <time>2015-08-05T13:08:21Z</time>
      </trkpt>
      <trkpt lat="45.90374" lon="3.68583">
        <ele>797</ele>
        <time>2015-08-05T13:08:25Z</time>
      </trkpt>
      <trkpt lat="45.90369" lon="3.68586">
        <ele>797</ele>
        <time>2015-08-05T13:08:31Z</time>
      </trkpt>
      <trkpt lat="45.90365" lon="3.68587">
        <ele>797</ele>
        <time>2015-08-05T13:08:34Z</time>
      </trkpt>
      <trkpt lat="45.90361" lon="3.68587">
        <ele>797</ele>
        <time>2015-08-05T13:08:37Z</time>
      </trkpt>
      <trkpt lat="45.90356" lon="3.68588">
        <ele>799</ele>
        <time>2015-08-05T13:08:40Z</time>
      </trkpt>
      <trkpt lat="45.90354" lon="3.6859">
        <ele>801</ele>
        <time>2015-08-05T13:08:42Z</time>
      </trkpt>
      <trkpt lat="45.9035" lon="3.68591">
        <ele>804</ele>
        <time>2015-08-05T13:08:45Z</time>
      </trkpt>
      <trkpt lat="45.90346" lon="3.68592">
        <ele>806</ele>
        <time>2015-08-05T13:08:47Z</time>
      </trkpt>
      <trkpt lat="45.90343" lon="3.68595">
        <ele>807</ele>
        <time>2015-08-05T13:08:50Z</time>
      </trkpt>
      <trkpt lat="45.90338" lon="3.68595">
        <ele>807</ele>
        <time>2015-08-05T13:08:54Z</time>
      </trkpt>
      <trkpt lat="45.90336" lon="3.68598">
        <ele>807</ele>
        <time>2015-08-05T13:08:56Z</time>
      </trkpt>
      <trkpt lat="45.90332" lon="3.68602">
        <ele>806</ele>
        <time>2015-08-05T13:09:05Z</time>
      </trkpt>
      <trkpt lat="45.9033" lon="3.68601">
        <ele>798</ele>
        <time>2015-08-05T13:09:14Z</time>
      </trkpt>
      <trkpt lat="45.90326" lon="3.68598">
        <ele>794</ele>
        <time>2015-08-05T13:09:20Z</time>
      </trkpt>
      <trkpt lat="45.90322" lon="3.68594">
        <ele>791</ele>
        <time>2015-08-05T13:09:23Z</time>
      </trkpt>
      <trkpt lat="45.90319" lon="3.68596">
        <ele>789</ele>
        <time>2015-08-05T13:09:25Z</time>
      </trkpt>
      <trkpt lat="45.90316" lon="3.68596">
        <ele>786</ele>
        <time>2015-08-05T13:09:28Z</time>
      </trkpt>
      <trkpt lat="45.90313" lon="3.68599">
        <ele>786</ele>
        <time>2015-08-05T13:09:30Z</time>
      </trkpt>
      <trkpt lat="45.90308" lon="3.68598">
        <ele>786</ele>
        <time>2015-08-05T13:09:33Z</time>
      </trkpt>
      <trkpt lat="45.90306" lon="3.686">
        <ele>786</ele>
        <time>2015-08-05T13:09:35Z</time>
      </trkpt>
      <trkpt lat="45.90304" lon="3.68604">
        <ele>786</ele>
        <time>2015-08-05T13:09:38Z</time>
      </trkpt>
      <trkpt lat="45.903" lon="3.68601">
        <ele>786</ele>
        <time>2015-08-05T13:09:40Z</time>
      </trkpt>
      <trkpt lat="45.90295" lon="3.68606">
        <ele>789</ele>
        <time>2015-08-05T13:09:47Z</time>
      </trkpt>
      <trkpt lat="45.90287" lon="3.68612">
        <ele>789</ele>
        <time>2015-08-05T13:09:52Z</time>
      </trkpt>
      <trkpt lat="45.90286" lon="3.68618">
        <ele>789</ele>
        <time>2015-08-05T13:09:55Z</time>
      </trkpt>
      <trkpt lat="45.90284" lon="3.68622">
        <ele>789</ele>
        <time>2015-08-05T13:09:57Z</time>
      </trkpt>
      <trkpt lat="45.90282" lon="3.68625">
        <ele>789</ele>
        <time>2015-08-05T13:10:00Z</time>
      </trkpt>
      <trkpt lat="45.90279" lon="3.68625">
        <ele>789</ele>
        <time>2015-08-05T13:10:02Z</time>
      </trkpt>
      <trkpt lat="45.90271" lon="3.68636">
        <ele>789</ele>
        <time>2015-08-05T13:10:07Z</time>
      </trkpt>
      <trkpt lat="45.90268" lon="3.68637">
        <ele>787</ele>
        <time>2015-08-05T13:10:10Z</time>
      </trkpt>
      <trkpt lat="45.90266" lon="3.6864">
        <ele>786</ele>
        <time>2015-08-05T13:10:12Z</time>
      </trkpt>
      <trkpt lat="45.90263" lon="3.68642">
        <ele>786</ele>
        <time>2015-08-05T13:10:15Z</time>
      </trkpt>
      <trkpt lat="45.90257" lon="3.6865">
        <ele>786</ele>
        <time>2015-08-05T13:10:20Z</time>
      </trkpt>
      <trkpt lat="45.90253" lon="3.68653">
        <ele>786</ele>
        <time>2015-08-05T13:10:23Z</time>
      </trkpt>
      <trkpt lat="45.90249" lon="3.68655">
        <ele>786</ele>
        <time>2015-08-05T13:10:26Z</time>
      </trkpt>
      <trkpt lat="45.90247" lon="3.68657">
        <ele>787</ele>
        <time>2015-08-05T13:10:28Z</time>
      </trkpt>
      <trkpt lat="45.90244" lon="3.68659">
        <ele>787</ele>
        <time>2015-08-05T13:10:31Z</time>
      </trkpt>
      <trkpt lat="45.9024" lon="3.6866">
        <ele>787</ele>
        <time>2015-08-05T13:10:33Z</time>
      </trkpt>
      <trkpt lat="45.90237" lon="3.68661">
        <ele>787</ele>
        <time>2015-08-05T13:10:36Z</time>
      </trkpt>
      <trkpt lat="45.90235" lon="3.68663">
        <ele>787</ele>
        <time>2015-08-05T13:10:38Z</time>
      </trkpt>
      <trkpt lat="45.9023" lon="3.68665">
        <ele>788</ele>
        <time>2015-08-05T13:10:43Z</time>
      </trkpt>
      <trkpt lat="45.90219" lon="3.68667">
        <ele>791</ele>
        <time>2015-08-05T13:10:53Z</time>
      </trkpt>
      <trkpt lat="45.90213" lon="3.68671">
        <ele>796</ele>
        <time>2015-08-05T13:10:58Z</time>
      </trkpt>
      <trkpt lat="45.90208" lon="3.68676">
        <ele>801</ele>
        <time>2015-08-05T13:11:03Z</time>
      </trkpt>
      <trkpt lat="45.90203" lon="3.68676">
        <ele>801</ele>
        <time>2015-08-05T13:11:06Z</time>
      </trkpt>
      <trkpt lat="45.902" lon="3.68674">
        <ele>801</ele>
        <time>2015-08-05T13:11:08Z</time>
      </trkpt>
      <trkpt lat="45.90195" lon="3.68674">
        <ele>801</ele>
        <time>2015-08-05T13:11:11Z</time>
      </trkpt>
      <trkpt lat="45.90191" lon="3.68676">
        <ele>799</ele>
        <time>2015-08-05T13:11:15Z</time>
      </trkpt>
      <trkpt lat="45.90187" lon="3.68675">
        <ele>797</ele>
        <time>2015-08-05T13:11:17Z</time>
      </trkpt>
      <trkpt lat="45.90181" lon="3.68675">
        <ele>792</ele>
        <time>2015-08-05T13:11:22Z</time>
      </trkpt>
      <trkpt lat="45.90178" lon="3.68675">
        <ele>790</ele>
        <time>2015-08-05T13:11:24Z</time>
      </trkpt>
      <trkpt lat="45.90175" lon="3.68677">
        <ele>787</ele>
        <time>2015-08-05T13:11:27Z</time>
      </trkpt>
      <trkpt lat="45.90173" lon="3.68675">
        <ele>786</ele>
        <time>2015-08-05T13:11:29Z</time>
      </trkpt>
      <trkpt lat="45.90168" lon="3.68674">
        <ele>786</ele>
        <time>2015-08-05T13:11:32Z</time>
      </trkpt>
      <trkpt lat="45.90166" lon="3.68675">
        <ele>786</ele>
        <time>2015-08-05T13:11:34Z</time>
      </trkpt>
      <trkpt lat="45.90164" lon="3.68678">
        <ele>786</ele>
        <time>2015-08-05T13:11:37Z</time>
      </trkpt>
      <trkpt lat="45.90162" lon="3.68679">
        <ele>788</ele>
        <time>2015-08-05T13:11:39Z</time>
      </trkpt>
      <trkpt lat="45.90154" lon="3.6868">
        <ele>792</ele>
        <time>2015-08-05T13:11:43Z</time>
      </trkpt>
      <trkpt lat="45.90148" lon="3.68684">
        <ele>795</ele>
        <time>2015-08-05T13:11:47Z</time>
      </trkpt>
      <trkpt lat="45.90146" lon="3.68684">
        <ele>797</ele>
        <time>2015-08-05T13:11:49Z</time>
      </trkpt>
      <trkpt lat="45.90144" lon="3.68683">
        <ele>799</ele>
        <time>2015-08-05T13:11:51Z</time>
      </trkpt>
      <trkpt lat="45.90143" lon="3.68685">
        <ele>801</ele>
        <time>2015-08-05T13:11:53Z</time>
      </trkpt>
      <trkpt lat="45.90141" lon="3.68685">
        <ele>802</ele>
        <time>2015-08-05T13:11:55Z</time>
      </trkpt>
      <trkpt lat="45.90138" lon="3.68683">
        <ele>802</ele>
        <time>2015-08-05T13:11:57Z</time>
      </trkpt>
      <trkpt lat="45.90136" lon="3.68685">
        <ele>802</ele>
        <time>2015-08-05T13:12:00Z</time>
      </trkpt>
      <trkpt lat="45.90133" lon="3.68683">
        <ele>802</ele>
        <time>2015-08-05T13:12:02Z</time>
      </trkpt>
      <trkpt lat="45.90128" lon="3.68682">
        <ele>802</ele>
        <time>2015-08-05T13:12:05Z</time>
      </trkpt>
      <trkpt lat="45.90126" lon="3.68683">
        <ele>800</ele>
        <time>2015-08-05T13:12:07Z</time>
      </trkpt>
      <trkpt lat="45.90121" lon="3.6868">
        <ele>798</ele>
        <time>2015-08-05T13:12:10Z</time>
      </trkpt>
      <trkpt lat="45.90119" lon="3.68682">
        <ele>796</ele>
        <time>2015-08-05T13:12:12Z</time>
      </trkpt>
      <trkpt lat="45.90116" lon="3.68679">
        <ele>793</ele>
        <time>2015-08-05T13:12:15Z</time>
      </trkpt>
      <trkpt lat="45.90109" lon="3.68677">
        <ele>788</ele>
        <time>2015-08-05T13:12:20Z</time>
      </trkpt>
      <trkpt lat="45.90107" lon="3.6868">
        <ele>785</ele>
        <time>2015-08-05T13:12:23Z</time>
      </trkpt>
      <trkpt lat="45.90104" lon="3.68681">
        <ele>783</ele>
        <time>2015-08-05T13:12:26Z</time>
      </trkpt>
      <trkpt lat="45.90096" lon="3.68683">
        <ele>783</ele>
        <time>2015-08-05T13:12:31Z</time>
      </trkpt>
      <trkpt lat="45.90094" lon="3.68686">
        <ele>783</ele>
        <time>2015-08-05T13:12:33Z</time>
      </trkpt>
      <trkpt lat="45.90088" lon="3.68685">
        <ele>785</ele>
        <time>2015-08-05T13:12:36Z</time>
      </trkpt>
      <trkpt lat="45.90081" lon="3.68687">
        <ele>785</ele>
        <time>2015-08-05T13:12:41Z</time>
      </trkpt>
      <trkpt lat="45.90071" lon="3.68688">
        <ele>781</ele>
        <time>2015-08-05T13:12:49Z</time>
      </trkpt>
      <trkpt lat="45.90069" lon="3.68689">
        <ele>780</ele>
        <time>2015-08-05T13:12:51Z</time>
      </trkpt>
      <trkpt lat="45.90067" lon="3.68689">
        <ele>778</ele>
        <time>2015-08-05T13:12:53Z</time>
      </trkpt>
      <trkpt lat="45.90064" lon="3.68692">
        <ele>776</ele>
        <time>2015-08-05T13:12:56Z</time>
      </trkpt>
      <trkpt lat="45.90062" lon="3.6869">
        <ele>776</ele>
        <time>2015-08-05T13:12:58Z</time>
      </trkpt>
      <trkpt lat="45.90061" lon="3.68685">
        <ele>776</ele>
        <time>2015-08-05T13:13:01Z</time>
      </trkpt>
      <trkpt lat="45.90061" lon="3.68681">
        <ele>776</ele>
        <time>2015-08-05T13:13:03Z</time>
      </trkpt>
      <trkpt lat="45.90058" lon="3.68677">
        <ele>774</ele>
        <time>2015-08-05T13:13:06Z</time>
      </trkpt>
      <trkpt lat="45.90055" lon="3.6868">
        <ele>774</ele>
        <time>2015-08-05T13:13:09Z</time>
      </trkpt>
      <trkpt lat="45.90052" lon="3.68679">
        <ele>774</ele>
        <time>2015-08-05T13:13:13Z</time>
      </trkpt>
      <trkpt lat="45.90051" lon="3.68677">
        <ele>771</ele>
        <time>2015-08-05T13:13:16Z</time>
      </trkpt>
      <trkpt lat="45.90052" lon="3.68675">
        <ele>762</ele>
        <time>2015-08-05T13:13:22Z</time>
      </trkpt>
      <trkpt lat="45.90057" lon="3.68678">
        <ele>742</ele>
        <time>2015-08-05T13:13:32Z</time>
      </trkpt>
      <trkpt lat="45.90057" lon="3.68681">
        <ele>740</ele>
        <time>2015-08-05T13:13:34Z</time>
      </trkpt>
      <trkpt lat="45.9006" lon="3.68681">
        <ele>739</ele>
        <time>2015-08-05T13:13:39Z</time>
      </trkpt>
      <trkpt lat="45.90067" lon="3.68688">
        <ele>739</ele>
        <time>2015-08-05T13:13:41Z</time>
      </trkpt>
      <trkpt lat="45.90067" lon="3.68689">
        <ele>741</ele>
        <time>2015-08-05T13:13:43Z</time>
      </trkpt>
      <trkpt lat="45.90065" lon="3.68685">
        <ele>748</ele>
        <time>2015-08-05T13:13:50Z</time>
      </trkpt>
      <trkpt lat="45.90067" lon="3.68685">
        <ele>750</ele>
        <time>2015-08-05T13:13:52Z</time>
      </trkpt>
      <trkpt lat="45.90068" lon="3.68684">
        <ele>750</ele>
        <time>2015-08-05T13:13:54Z</time>
      </trkpt>
      <trkpt lat="45.90066" lon="3.68683">
        <ele>751</ele>
        <time>2015-08-05T13:14:00Z</time>
      </trkpt>
      <trkpt lat="45.90065" lon="3.68679">
        <ele>748</ele>
        <time>2015-08-05T13:14:03Z</time>
      </trkpt>
      <trkpt lat="45.90064" lon="3.68681">
        <ele>745</ele>
        <time>2015-08-05T13:14:08Z</time>
      </trkpt>
      <trkpt lat="45.90062" lon="3.68683">
        <ele>745</ele>
        <time>2015-08-05T13:14:10Z</time>
      </trkpt>
      <trkpt lat="45.90062" lon="3.68687">
        <ele>747</ele>
        <time>2015-08-05T13:14:12Z</time>
      </trkpt>
      <trkpt lat="45.90063" lon="3.68689">
        <ele>754</ele>
        <time>2015-08-05T13:14:16Z</time>
      </trkpt>
      <trkpt lat="45.90063" lon="3.6869">
        <ele>770</ele>
        <time>2015-08-05T13:14:28Z</time>
      </trkpt>
      <trkpt lat="45.90061" lon="3.68706">
        <ele>778</ele>
        <time>2015-08-05T13:14:36Z</time>
      </trkpt>
      <trkpt lat="45.9006" lon="3.68707">
        <ele>781</ele>
        <time>2015-08-05T13:14:38Z</time>
      </trkpt>
      <trkpt lat="45.90058" lon="3.68709">
        <ele>785</ele>
        <time>2015-08-05T13:14:40Z</time>
      </trkpt>
      <trkpt lat="45.90059" lon="3.68706">
        <ele>789</ele>
        <time>2015-08-05T13:14:42Z</time>
      </trkpt>
      <trkpt lat="45.9006" lon="3.68704">
        <ele>795</ele>
        <time>2015-08-05T13:14:45Z</time>
      </trkpt>
      <trkpt lat="45.90059" lon="3.68705">
        <ele>797</ele>
        <time>2015-08-05T13:14:47Z</time>
      </trkpt>
      <trkpt lat="45.90058" lon="3.68705">
        <ele>801</ele>
        <time>2015-08-05T13:14:51Z</time>
      </trkpt>
      <trkpt lat="45.90057" lon="3.68704">
        <ele>802</ele>
        <time>2015-08-05T13:14:53Z</time>
      </trkpt>
      <trkpt lat="45.90057" lon="3.68699">
        <ele>802</ele>
        <time>2015-08-05T13:14:55Z</time>
      </trkpt>
      <trkpt lat="45.90059" lon="3.68694">
        <ele>800</ele>
        <time>2015-08-05T13:14:58Z</time>
      </trkpt>
      <trkpt lat="45.90057" lon="3.68696">
        <ele>796</ele>
        <time>2015-08-05T13:15:02Z</time>
      </trkpt>
      <trkpt lat="45.90057" lon="3.687">
        <ele>795</ele>
        <time>2015-08-05T13:15:04Z</time>
      </trkpt>
      <trkpt lat="45.90057" lon="3.68701">
        <ele>793</ele>
        <time>2015-08-05T13:15:07Z</time>
      </trkpt>
      <trkpt lat="45.90056" lon="3.687">
        <ele>791</ele>
        <time>2015-08-05T13:15:09Z</time>
      </trkpt>
      <trkpt lat="45.90056" lon="3.68698">
        <ele>791</ele>
        <time>2015-08-05T13:15:11Z</time>
      </trkpt>
      <trkpt lat="45.90051" lon="3.68697">
        <ele>788</ele>
        <time>2015-08-05T13:15:16Z</time>
      </trkpt>
      <trkpt lat="45.90049" lon="3.68698">
        <ele>787</ele>
        <time>2015-08-05T13:15:19Z</time>
      </trkpt>
      <trkpt lat="45.90047" lon="3.68698">
        <ele>784</ele>
        <time>2015-08-05T13:15:23Z</time>
      </trkpt>
      <trkpt lat="45.90046" lon="3.68699">
        <ele>781</ele>
        <time>2015-08-05T13:15:26Z</time>
      </trkpt>
      <trkpt lat="45.90043" lon="3.68699">
        <ele>779</ele>
        <time>2015-08-05T13:15:28Z</time>
      </trkpt>
      <trkpt lat="45.9004" lon="3.68698">
        <ele>777</ele>
        <time>2015-08-05T13:15:30Z</time>
      </trkpt>
      <trkpt lat="45.90037" lon="3.687">
        <ele>773</ele>
        <time>2015-08-05T13:15:32Z</time>
      </trkpt>
      <trkpt lat="45.90032" lon="3.687">
        <ele>771</ele>
        <time>2015-08-05T13:15:34Z</time>
      </trkpt>
      <trkpt lat="45.90029" lon="3.68703">
        <ele>768</ele>
        <time>2015-08-05T13:15:37Z</time>
      </trkpt>
      <trkpt lat="45.90028" lon="3.68707">
        <ele>768</ele>
        <time>2015-08-05T13:15:40Z</time>
      </trkpt>
      <trkpt lat="45.90026" lon="3.68705">
        <ele>765</ele>
        <time>2015-08-05T13:15:48Z</time>
      </trkpt>
      <trkpt lat="45.90024" lon="3.68703">
        <ele>765</ele>
        <time>2015-08-05T13:15:50Z</time>
      </trkpt>
      <trkpt lat="45.90022" lon="3.68702">
        <ele>765</ele>
        <time>2015-08-05T13:15:54Z</time>
      </trkpt>
      <trkpt lat="45.9002" lon="3.68703">
        <ele>765</ele>
        <time>2015-08-05T13:15:59Z</time>
      </trkpt>
      <trkpt lat="45.90022" lon="3.68714">
        <ele>771</ele>
        <time>2015-08-05T13:16:07Z</time>
      </trkpt>
      <trkpt lat="45.90022" lon="3.68716">
        <ele>774</ele>
        <time>2015-08-05T13:16:10Z</time>
      </trkpt>
      <trkpt lat="45.90018" lon="3.6872">
        <ele>781</ele>
        <time>2015-08-05T13:16:17Z</time>
      </trkpt>
      <trkpt lat="45.90017" lon="3.68718">
        <ele>782</ele>
        <time>2015-08-05T13:16:22Z</time>
      </trkpt>
      <trkpt lat="45.90017" lon="3.68716">
        <ele>779</ele>
        <time>2015-08-05T13:16:25Z</time>
      </trkpt>
      <trkpt lat="45.90013" lon="3.68704">
        <ele>770</ele>
        <time>2015-08-05T13:16:31Z</time>
      </trkpt>
      <trkpt lat="45.90012" lon="3.68701">
        <ele>758</ele>
        <time>2015-08-05T13:16:38Z</time>
      </trkpt>
      <trkpt lat="45.90014" lon="3.68704">
        <ele>752</ele>
        <time>2015-08-05T13:16:43Z</time>
      </trkpt>
      <trkpt lat="45.90013" lon="3.68706">
        <ele>752</ele>
        <time>2015-08-05T13:16:45Z</time>
      </trkpt>
      <trkpt lat="45.90011" lon="3.68709">
        <ele>752</ele>
        <time>2015-08-05T13:16:48Z</time>
      </trkpt>
      <trkpt lat="45.9001" lon="3.6871">
        <ele>752</ele>
        <time>2015-08-05T13:16:50Z</time>
      </trkpt>
      <trkpt lat="45.9" lon="3.68712">
        <ele>756</ele>
        <time>2015-08-05T13:16:57Z</time>
      </trkpt>
      <trkpt lat="45.89994" lon="3.68712">
        <ele>759</ele>
        <time>2015-08-05T13:17:03Z</time>
      </trkpt>
      <trkpt lat="45.8999" lon="3.68709">
        <ele>759</ele>
        <time>2015-08-05T13:17:06Z</time>
      </trkpt>
      <trkpt lat="45.89987" lon="3.68709">
        <ele>759</ele>
        <time>2015-08-05T13:17:08Z</time>
      </trkpt>
      <trkpt lat="45.89985" lon="3.68711">
        <ele>759</ele>
        <time>2015-08-05T13:17:10Z</time>
      </trkpt>
      <trkpt lat="45.89983" lon="3.68714">
        <ele>759</ele>
        <time>2015-08-05T13:17:12Z</time>
      </trkpt>
      <trkpt lat="45.89977" lon="3.68717">
        <ele>759</ele>
        <time>2015-08-05T13:17:18Z</time>
      </trkpt>
      <trkpt lat="45.89972" lon="3.68715">
        <ele>759</ele>
        <time>2015-08-05T13:17:21Z</time>
      </trkpt>
      <trkpt lat="45.89971" lon="3.68717">
        <ele>758</ele>
        <time>2015-08-05T13:17:23Z</time>
      </trkpt>
      <trkpt lat="45.89967" lon="3.68719">
        <ele>758</ele>
        <time>2015-08-05T13:17:26Z</time>
      </trkpt>
      <trkpt lat="45.89964" lon="3.68722">
        <ele>758</ele>
        <time>2015-08-05T13:17:31Z</time>
      </trkpt>
      <trkpt lat="45.89964" lon="3.68727">
        <ele>758</ele>
        <time>2015-08-05T13:17:35Z</time>
      </trkpt>
      <trkpt lat="45.8996" lon="3.6873">
        <ele>758</ele>
        <time>2015-08-05T13:17:39Z</time>
      </trkpt>
      <trkpt lat="45.89953" lon="3.6873">
        <ele>756</ele>
        <time>2015-08-05T13:17:44Z</time>
      </trkpt>
      <trkpt lat="45.89951" lon="3.68734">
        <ele>754</ele>
        <time>2015-08-05T13:17:46Z</time>
      </trkpt>
      <trkpt lat="45.89947" lon="3.68738">
        <ele>752</ele>
        <time>2015-08-05T13:17:51Z</time>
      </trkpt>
      <trkpt lat="45.89944" lon="3.6874">
        <ele>751</ele>
        <time>2015-08-05T13:17:54Z</time>
      </trkpt>
      <trkpt lat="45.89938" lon="3.68747">
        <ele>745</ele>
        <time>2015-08-05T13:18:01Z</time>
      </trkpt>
      <trkpt lat="45.89935" lon="3.6875">
        <ele>745</ele>
        <time>2015-08-05T13:18:03Z</time>
      </trkpt>
      <trkpt lat="45.89934" lon="3.68752">
        <ele>745</ele>
        <time>2015-08-05T13:18:05Z</time>
      </trkpt>
      <trkpt lat="45.89927" lon="3.68757">
        <ele>745</ele>
        <time>2015-08-05T13:18:12Z</time>
      </trkpt>
      <trkpt lat="45.8992" lon="3.68765">
        <ele>745</ele>
        <time>2015-08-05T13:18:18Z</time>
      </trkpt>
      <trkpt lat="45.89916" lon="3.68768">
        <ele>746</ele>
        <time>2015-08-05T13:18:21Z</time>
      </trkpt>
      <trkpt lat="45.89911" lon="3.68773">
        <ele>747</ele>
        <time>2015-08-05T13:18:25Z</time>
      </trkpt>
      <trkpt lat="45.89909" lon="3.68774">
        <ele>747</ele>
        <time>2015-08-05T13:18:27Z</time>
      </trkpt>
      <trkpt lat="45.89903" lon="3.68779">
        <ele>749</ele>
        <time>2015-08-05T13:18:31Z</time>
      </trkpt>
      <trkpt lat="45.89894" lon="3.68789">
        <ele>751</ele>
        <time>2015-08-05T13:18:43Z</time>
      </trkpt>
      <trkpt lat="45.89891" lon="3.68791">
        <ele>751</ele>
        <time>2015-08-05T13:18:45Z</time>
      </trkpt>
      <trkpt lat="45.89887" lon="3.68794">
        <ele>751</ele>
        <time>2015-08-05T13:18:49Z</time>
      </trkpt>
      <trkpt lat="45.89882" lon="3.68795">
        <ele>751</ele>
        <time>2015-08-05T13:18:55Z</time>
      </trkpt>
      <trkpt lat="45.89882" lon="3.68798">
        <ele>752</ele>
        <time>2015-08-05T13:19:07Z</time>
      </trkpt>
      <trkpt lat="45.89881" lon="3.688">
        <ele>755</ele>
        <time>2015-08-05T13:19:10Z</time>
      </trkpt>
      <trkpt lat="45.89885" lon="3.68797">
        <ele>757</ele>
        <time>2015-08-05T13:19:14Z</time>
      </trkpt>
      <trkpt lat="45.89886" lon="3.68796">
        <ele>757</ele>
        <time>2015-08-05T13:19:16Z</time>
      </trkpt>
      <trkpt lat="45.89887" lon="3.68794">
        <ele>757</ele>
        <time>2015-08-05T13:19:19Z</time>
      </trkpt>
      <trkpt lat="45.89886" lon="3.68796">
        <ele>755</ele>
        <time>2015-08-05T13:19:24Z</time>
      </trkpt>
      <trkpt lat="45.89887" lon="3.688">
        <ele>755</ele>
        <time>2015-08-05T13:19:31Z</time>
      </trkpt>
      <trkpt lat="45.89886" lon="3.68802">
        <ele>755</ele>
        <time>2015-08-05T13:19:33Z</time>
      </trkpt>
      <trkpt lat="45.89885" lon="3.68807">
        <ele>755</ele>
        <time>2015-08-05T13:19:35Z</time>
      </trkpt>
      <trkpt lat="45.89885" lon="3.68808">
        <ele>755</ele>
        <time>2015-08-05T13:19:37Z</time>
      </trkpt>
      <trkpt lat="45.89883" lon="3.68808">
        <ele>757</ele>
        <time>2015-08-05T13:19:41Z</time>
      </trkpt>
      <trkpt lat="45.89883" lon="3.68806">
        <ele>757</ele>
        <time>2015-08-05T13:19:46Z</time>
      </trkpt>
      <trkpt lat="45.89883" lon="3.68805">
        <ele>757</ele>
        <time>2015-08-05T13:19:48Z</time>
      </trkpt>
      <trkpt lat="45.89883" lon="3.68802">
        <ele>757</ele>
        <time>2015-08-05T13:19:52Z</time>
      </trkpt>
      <trkpt lat="45.89882" lon="3.68801">
        <ele>757</ele>
        <time>2015-08-05T13:19:54Z</time>
      </trkpt>
      <trkpt lat="45.89881" lon="3.68799">
        <ele>757</ele>
        <time>2015-08-05T13:19:59Z</time>
      </trkpt>
      <trkpt lat="45.8988" lon="3.68798">
        <ele>768</ele>
        <time>2015-08-05T13:20:11Z</time>
      </trkpt>
      <trkpt lat="45.89878" lon="3.68795">
        <ele>773</ele>
        <time>2015-08-05T13:20:20Z</time>
      </trkpt>
      <trkpt lat="45.89877" lon="3.68795">
        <ele>771</ele>
        <time>2015-08-05T13:20:26Z</time>
      </trkpt>
      <trkpt lat="45.89875" lon="3.68793">
        <ele>769</ele>
        <time>2015-08-05T13:20:28Z</time>
      </trkpt>
      <trkpt lat="45.89875" lon="3.68792">
        <ele>775</ele>
        <time>2015-08-05T13:20:37Z</time>
      </trkpt>
      <trkpt lat="45.89876" lon="3.68794">
        <ele>775</ele>
        <time>2015-08-05T13:20:40Z</time>
      </trkpt>
      <trkpt lat="45.89877" lon="3.68793">
        <ele>773</ele>
        <time>2015-08-05T13:20:43Z</time>
      </trkpt>
      <trkpt lat="45.8988" lon="3.68793">
        <ele>762</ele>
        <time>2015-08-05T13:20:50Z</time>
      </trkpt>
      <trkpt lat="45.8988" lon="3.68795">
        <ele>759</ele>
        <time>2015-08-05T13:20:53Z</time>
      </trkpt>
      <trkpt lat="45.89878" lon="3.68796">
        <ele>758</ele>
        <time>2015-08-05T13:20:56Z</time>
      </trkpt>
      <trkpt lat="45.89877" lon="3.68796">
        <ele>760</ele>
        <time>2015-08-05T13:20:59Z</time>
      </trkpt>
      <trkpt lat="45.89877" lon="3.68798">
        <ele>762</ele>
        <time>2015-08-05T13:21:01Z</time>
      </trkpt>
      <trkpt lat="45.89877" lon="3.68795">
        <ele>763</ele>
        <time>2015-08-05T13:21:07Z</time>
      </trkpt>
      <trkpt lat="45.89877" lon="3.68797">
        <ele>763</ele>
        <time>2015-08-05T13:21:19Z</time>
      </trkpt>
      <trkpt lat="45.89878" lon="3.68798">
        <ele>766</ele>
        <time>2015-08-05T13:21:26Z</time>
      </trkpt>
      <trkpt lat="45.89877" lon="3.68796">
        <ele>772</ele>
        <time>2015-08-05T13:21:47Z</time>
      </trkpt>
      <trkpt lat="45.89878" lon="3.68797">
        <ele>772</ele>
        <time>2015-08-05T13:21:52Z</time>
      </trkpt>
      <trkpt lat="45.8988" lon="3.68797">
        <ele>772</ele>
        <time>2015-08-05T13:21:56Z</time>
      </trkpt>
      <trkpt lat="45.89883" lon="3.68799">
        <ele>766</ele>
        <time>2015-08-05T13:22:17Z</time>
      </trkpt>
      <trkpt lat="45.89883" lon="3.68801">
        <ele>765</ele>
        <time>2015-08-05T13:22:23Z</time>
      </trkpt>
      <trkpt lat="45.89884" lon="3.68805">
        <ele>765</ele>
        <time>2015-08-05T13:22:28Z</time>
      </trkpt>
      <trkpt lat="45.89883" lon="3.68802">
        <ele>767</ele>
        <time>2015-08-05T13:22:35Z</time>
      </trkpt>
      <trkpt lat="45.89883" lon="3.68804">
        <ele>774</ele>
        <time>2015-08-05T13:22:53Z</time>
      </trkpt>
      <trkpt lat="45.89882" lon="3.68803">
        <ele>776</ele>
        <time>2015-08-05T13:23:17Z</time>
      </trkpt>
      <trkpt lat="45.89882" lon="3.68802">
        <ele>774</ele>
        <time>2015-08-05T13:24:01Z</time>
      </trkpt>
      <trkpt lat="45.89881" lon="3.68801">
        <ele>770</ele>
        <time>2015-08-05T13:24:30Z</time>
      </trkpt>
      <trkpt lat="45.89879" lon="3.68798">
        <ele>767</ele>
        <time>2015-08-05T13:24:51Z</time>
      </trkpt>
      <trkpt lat="45.89879" lon="3.68797">
        <ele>766</ele>
        <time>2015-08-05T13:25:05Z</time>
      </trkpt>
      <trkpt lat="45.89878" lon="3.68795">
        <ele>766</ele>
        <time>2015-08-05T13:25:10Z</time>
      </trkpt>
      <trkpt lat="45.89876" lon="3.68792">
        <ele>765</ele>
        <time>2015-08-05T13:25:15Z</time>
      </trkpt>
      <trkpt lat="45.89877" lon="3.68793">
        <ele>760</ele>
        <time>2015-08-05T13:25:22Z</time>
      </trkpt>
      <trkpt lat="45.89878" lon="3.68797">
        <ele>757</ele>
        <time>2015-08-05T13:25:29Z</time>
      </trkpt>
      <trkpt lat="45.89879" lon="3.688">
        <ele>757</ele>
        <time>2015-08-05T13:25:34Z</time>
      </trkpt>
      <trkpt lat="45.89876" lon="3.68795">
        <ele>757</ele>
        <time>2015-08-05T13:25:39Z</time>
      </trkpt>
      <trkpt lat="45.89879" lon="3.68801">
        <ele>757</ele>
        <time>2015-08-05T13:25:53Z</time>
      </trkpt>
      <trkpt lat="45.89878" lon="3.688">
        <ele>757</ele>
        <time>2015-08-05T13:25:59Z</time>
      </trkpt>
      <trkpt lat="45.89883" lon="3.68808">
        <ele>756</ele>
        <time>2015-08-05T13:26:22Z</time>
      </trkpt>
      <trkpt lat="45.89884" lon="3.6881">
        <ele>754</ele>
        <time>2015-08-05T13:26:26Z</time>
      </trkpt>
      <trkpt lat="45.89884" lon="3.68808">
        <ele>752</ele>
        <time>2015-08-05T13:26:30Z</time>
      </trkpt>
      <trkpt lat="45.8988" lon="3.68802">
        <ele>751</ele>
        <time>2015-08-05T13:26:41Z</time>
      </trkpt>
      <trkpt lat="45.89881" lon="3.688">
        <ele>756</ele>
        <time>2015-08-05T13:26:52Z</time>
      </trkpt>
      <trkpt lat="45.89883" lon="3.688">
        <ele>765</ele>
        <time>2015-08-05T13:27:25Z</time>
      </trkpt>
      <trkpt lat="45.89881" lon="3.68796">
        <ele>765</ele>
        <time>2015-08-05T13:27:37Z</time>
      </trkpt>
      <trkpt lat="45.89881" lon="3.68797">
        <ele>765</ele>
        <time>2015-08-05T13:27:47Z</time>
      </trkpt>
      <trkpt lat="45.8988" lon="3.68793">
        <ele>759</ele>
        <time>2015-08-05T13:28:17Z</time>
      </trkpt>
      <trkpt lat="45.89877" lon="3.68787">
        <ele>759</ele>
        <time>2015-08-05T13:28:33Z</time>
      </trkpt>
      <trkpt lat="45.89874" lon="3.68779">
        <ele>760</ele>
        <time>2015-08-05T13:28:54Z</time>
      </trkpt>
      <trkpt lat="45.89873" lon="3.68777">
        <ele>760</ele>
        <time>2015-08-05T13:28:56Z</time>
      </trkpt>
      <trkpt lat="45.8987" lon="3.68769">
        <ele>757</ele>
        <time>2015-08-05T13:29:11Z</time>
      </trkpt>
      <trkpt lat="45.89872" lon="3.68771">
        <ele>752</ele>
        <time>2015-08-05T13:29:19Z</time>
      </trkpt>
      <trkpt lat="45.89873" lon="3.68775">
        <ele>750</ele>
        <time>2015-08-05T13:29:25Z</time>
      </trkpt>
      <trkpt lat="45.89872" lon="3.68776">
        <ele>753</ele>
        <time>2015-08-05T13:29:37Z</time>
      </trkpt>
      <trkpt lat="45.89874" lon="3.68781">
        <ele>756</ele>
        <time>2015-08-05T13:29:42Z</time>
      </trkpt>
      <trkpt lat="45.89874" lon="3.68782">
        <ele>759</ele>
        <time>2015-08-05T13:29:49Z</time>
      </trkpt>
      <trkpt lat="45.89873" lon="3.68781">
        <ele>766</ele>
        <time>2015-08-05T13:30:09Z</time>
      </trkpt>
      <trkpt lat="45.89877" lon="3.6879">
        <ele>769</ele>
        <time>2015-08-05T13:30:42Z</time>
      </trkpt>
      <trkpt lat="45.89875" lon="3.68788">
        <ele>769</ele>
        <time>2015-08-05T13:30:54Z</time>
      </trkpt>
      <trkpt lat="45.89872" lon="3.68786">
        <ele>774</ele>
        <time>2015-08-05T13:31:14Z</time>
      </trkpt>
      <trkpt lat="45.89872" lon="3.68788">
        <ele>778</ele>
        <time>2015-08-05T13:31:40Z</time>
      </trkpt>
      <trkpt lat="45.89875" lon="3.68796">
        <ele>765</ele>
        <time>2015-08-05T13:32:02Z</time>
      </trkpt>
      <trkpt lat="45.89877" lon="3.68797">
        <ele>761</ele>
        <time>2015-08-05T13:32:06Z</time>
      </trkpt>
      <trkpt lat="45.89877" lon="3.68795">
        <ele>760</ele>
        <time>2015-08-05T13:32:11Z</time>
      </trkpt>
      <trkpt lat="45.89874" lon="3.68792">
        <ele>760</ele>
        <time>2015-08-05T13:32:21Z</time>
      </trkpt>
      <trkpt lat="45.89874" lon="3.6879">
        <ele>761</ele>
        <time>2015-08-05T13:32:25Z</time>
      </trkpt>
      <trkpt lat="45.89873" lon="3.68789">
        <ele>763</ele>
        <time>2015-08-05T13:32:29Z</time>
      </trkpt>
      <trkpt lat="45.89873" lon="3.68784">
        <ele>767</ele>
        <time>2015-08-05T13:32:59Z</time>
      </trkpt>
      <trkpt lat="45.89871" lon="3.68781">
        <ele>772</ele>
        <time>2015-08-05T13:33:05Z</time>
      </trkpt>
      <trkpt lat="45.89872" lon="3.6878">
        <ele>774</ele>
        <time>2015-08-05T13:33:17Z</time>
      </trkpt>
      <trkpt lat="45.89871" lon="3.68778">
        <ele>774</ele>
        <time>2015-08-05T13:33:19Z</time>
      </trkpt>
      <trkpt lat="45.89872" lon="3.6878">
        <ele>774</ele>
        <time>2015-08-05T13:33:23Z</time>
      </trkpt>
      <trkpt lat="45.89875" lon="3.68786">
        <ele>773</ele>
        <time>2015-08-05T13:33:44Z</time>
      </trkpt>
      <trkpt lat="45.89872" lon="3.68782">
        <ele>773</ele>
        <time>2015-08-05T13:34:05Z</time>
      </trkpt>
      <trkpt lat="45.89872" lon="3.6878">
        <ele>773</ele>
        <time>2015-08-05T13:34:08Z</time>
      </trkpt>
      <trkpt lat="45.89873" lon="3.68781">
        <ele>773</ele>
        <time>2015-08-05T13:34:18Z</time>
      </trkpt>
      <trkpt lat="45.89873" lon="3.68779">
        <ele>773</ele>
        <time>2015-08-05T13:34:21Z</time>
      </trkpt>
      <trkpt lat="45.89876" lon="3.68787">
        <ele>773</ele>
        <time>2015-08-05T13:34:29Z</time>
      </trkpt>
      <trkpt lat="45.89876" lon="3.68784">
        <ele>772</ele>
        <time>2015-08-05T13:34:38Z</time>
      </trkpt>
      <trkpt lat="45.89877" lon="3.68782">
        <ele>772</ele>
        <time>2015-08-05T13:34:42Z</time>
      </trkpt>
      <trkpt lat="45.89877" lon="3.68785">
        <ele>772</ele>
        <time>2015-08-05T13:34:50Z</time>
      </trkpt>
      <trkpt lat="45.89876" lon="3.68784">
        <ele>772</ele>
        <time>2015-08-05T13:35:04Z</time>
      </trkpt>
      <trkpt lat="45.89875" lon="3.68782">
        <ele>772</ele>
        <time>2015-08-05T13:35:07Z</time>
      </trkpt>
      <trkpt lat="45.89876" lon="3.68779">
        <ele>775</ele>
        <time>2015-08-05T13:35:13Z</time>
      </trkpt>
      <trkpt lat="45.89876" lon="3.68777">
        <ele>777</ele>
        <time>2015-08-05T13:35:17Z</time>
      </trkpt>
      <trkpt lat="45.89875" lon="3.68775">
        <ele>779</ele>
        <time>2015-08-05T13:35:19Z</time>
      </trkpt>
      <trkpt lat="45.89876" lon="3.68777">
        <ele>783</ele>
        <time>2015-08-05T13:35:30Z</time>
      </trkpt>
      <trkpt lat="45.89877" lon="3.6878">
        <ele>783</ele>
        <time>2015-08-05T13:35:35Z</time>
      </trkpt>
      <trkpt lat="45.89876" lon="3.68779">
        <ele>782</ele>
        <time>2015-08-05T13:35:45Z</time>
      </trkpt>
      <trkpt lat="45.89877" lon="3.68783">
        <ele>782</ele>
        <time>2015-08-05T13:35:57Z</time>
      </trkpt>
      <trkpt lat="45.89877" lon="3.68784">
        <ele>781</ele>
        <time>2015-08-05T13:35:59Z</time>
      </trkpt>
      <trkpt lat="45.89878" lon="3.6879">
        <ele>776</ele>
        <time>2015-08-05T13:36:05Z</time>
      </trkpt>
      <trkpt lat="45.8988" lon="3.68794">
        <ele>773</ele>
        <time>2015-08-05T13:36:08Z</time>
      </trkpt>
      <trkpt lat="45.89878" lon="3.68793">
        <ele>771</ele>
        <time>2015-08-05T13:36:18Z</time>
      </trkpt>
      <trkpt lat="45.89872" lon="3.68798">
        <ele>769</ele>
        <time>2015-08-05T13:36:24Z</time>
      </trkpt>
      <trkpt lat="45.89869" lon="3.68802">
        <ele>769</ele>
        <time>2015-08-05T13:36:27Z</time>
      </trkpt>
      <trkpt lat="45.89866" lon="3.68806">
        <ele>768</ele>
        <time>2015-08-05T13:36:30Z</time>
      </trkpt>
      <trkpt lat="45.89865" lon="3.68809">
        <ele>768</ele>
        <time>2015-08-05T13:36:32Z</time>
      </trkpt>
      <trkpt lat="45.89862" lon="3.68814">
        <ele>766</ele>
        <time>2015-08-05T13:36:35Z</time>
      </trkpt>
      <trkpt lat="45.89858" lon="3.68819">
        <ele>763</ele>
        <time>2015-08-05T13:36:39Z</time>
      </trkpt>
      <trkpt lat="45.89856" lon="3.68821">
        <ele>762</ele>
        <time>2015-08-05T13:36:41Z</time>
      </trkpt>
      <trkpt lat="45.89845" lon="3.68835">
        <ele>760</ele>
        <time>2015-08-05T13:36:51Z</time>
      </trkpt>
      <trkpt lat="45.89841" lon="3.68841">
        <ele>759</ele>
        <time>2015-08-05T13:36:55Z</time>
      </trkpt>
      <trkpt lat="45.89838" lon="3.68845">
        <ele>759</ele>
        <time>2015-08-05T13:36:58Z</time>
      </trkpt>
      <trkpt lat="45.89832" lon="3.68855">
        <ele>758</ele>
        <time>2015-08-05T13:37:05Z</time>
      </trkpt>
      <trkpt lat="45.8983" lon="3.68858">
        <ele>757</ele>
        <time>2015-08-05T13:37:07Z</time>
      </trkpt>
      <trkpt lat="45.89824" lon="3.6886">
        <ele>756</ele>
        <time>2015-08-05T13:37:11Z</time>
      </trkpt>
      <trkpt lat="45.89819" lon="3.68865">
        <ele>756</ele>
        <time>2015-08-05T13:37:16Z</time>
      </trkpt>
      <trkpt lat="45.89812" lon="3.68869">
        <ele>756</ele>
        <time>2015-08-05T13:37:22Z</time>
      </trkpt>
      <trkpt lat="45.89807" lon="3.68871">
        <ele>756</ele>
        <time>2015-08-05T13:37:25Z</time>
      </trkpt>
      <trkpt lat="45.89803" lon="3.68874">
        <ele>756</ele>
        <time>2015-08-05T13:37:28Z</time>
      </trkpt>
      <trkpt lat="45.89802" lon="3.68877">
        <ele>756</ele>
        <time>2015-08-05T13:37:30Z</time>
      </trkpt>
      <trkpt lat="45.89796" lon="3.68879">
        <ele>756</ele>
        <time>2015-08-05T13:37:35Z</time>
      </trkpt>
      <trkpt lat="45.89793" lon="3.68881">
        <ele>756</ele>
        <time>2015-08-05T13:37:37Z</time>
      </trkpt>
      <trkpt lat="45.89789" lon="3.68884">
        <ele>756</ele>
        <time>2015-08-05T13:37:40Z</time>
      </trkpt>
      <trkpt lat="45.89783" lon="3.68889">
        <ele>754</ele>
        <time>2015-08-05T13:37:45Z</time>
      </trkpt>
      <trkpt lat="45.89778" lon="3.68891">
        <ele>754</ele>
        <time>2015-08-05T13:37:50Z</time>
      </trkpt>
      <trkpt lat="45.89777" lon="3.68893">
        <ele>754</ele>
        <time>2015-08-05T13:37:52Z</time>
      </trkpt>
      <trkpt lat="45.89773" lon="3.68894">
        <ele>754</ele>
        <time>2015-08-05T13:37:55Z</time>
      </trkpt>
      <trkpt lat="45.89767" lon="3.68895">
        <ele>754</ele>
        <time>2015-08-05T13:38:00Z</time>
      </trkpt>
      <trkpt lat="45.89758" lon="3.689">
        <ele>754</ele>
        <time>2015-08-05T13:38:09Z</time>
      </trkpt>
      <trkpt lat="45.89754" lon="3.68902">
        <ele>754</ele>
        <time>2015-08-05T13:38:13Z</time>
      </trkpt>
      <trkpt lat="45.8975" lon="3.68904">
        <ele>754</ele>
        <time>2015-08-05T13:38:17Z</time>
      </trkpt>
      <trkpt lat="45.89746" lon="3.68904">
        <ele>754</ele>
        <time>2015-08-05T13:38:20Z</time>
      </trkpt>
      <trkpt lat="45.89743" lon="3.68905">
        <ele>754</ele>
        <time>2015-08-05T13:38:23Z</time>
      </trkpt>
      <trkpt lat="45.89738" lon="3.68903">
        <ele>754</ele>
        <time>2015-08-05T13:38:28Z</time>
      </trkpt>
      <trkpt lat="45.89731" lon="3.68905">
        <ele>753</ele>
        <time>2015-08-05T13:38:35Z</time>
      </trkpt>
      <trkpt lat="45.89726" lon="3.68905">
        <ele>751</ele>
        <time>2015-08-05T13:38:39Z</time>
      </trkpt>
      <trkpt lat="45.8972" lon="3.68903">
        <ele>751</ele>
        <time>2015-08-05T13:38:45Z</time>
      </trkpt>
      <trkpt lat="45.89711" lon="3.68903">
        <ele>750</ele>
        <time>2015-08-05T13:38:53Z</time>
      </trkpt>
      <trkpt lat="45.89703" lon="3.68902">
        <ele>750</ele>
        <time>2015-08-05T13:38:59Z</time>
      </trkpt>
      <trkpt lat="45.89698" lon="3.689">
        <ele>749</ele>
        <time>2015-08-05T13:39:03Z</time>
      </trkpt>
      <trkpt lat="45.89692" lon="3.68898">
        <ele>747</ele>
        <time>2015-08-05T13:39:07Z</time>
      </trkpt>
      <trkpt lat="45.89685" lon="3.68897">
        <ele>746</ele>
        <time>2015-08-05T13:39:14Z</time>
      </trkpt>
      <trkpt lat="45.89675" lon="3.68893">
        <ele>745</ele>
        <time>2015-08-05T13:39:22Z</time>
      </trkpt>
      <trkpt lat="45.89669" lon="3.68893">
        <ele>743</ele>
        <time>2015-08-05T13:39:27Z</time>
      </trkpt>
      <trkpt lat="45.89664" lon="3.68892">
        <ele>742</ele>
        <time>2015-08-05T13:39:31Z</time>
      </trkpt>
      <trkpt lat="45.89659" lon="3.68892">
        <ele>741</ele>
        <time>2015-08-05T13:39:35Z</time>
      </trkpt>
      <trkpt lat="45.89654" lon="3.6889">
        <ele>740</ele>
        <time>2015-08-05T13:39:39Z</time>
      </trkpt>
      <trkpt lat="45.89651" lon="3.6889">
        <ele>740</ele>
        <time>2015-08-05T13:39:41Z</time>
      </trkpt>
      <trkpt lat="45.89646" lon="3.68888">
        <ele>740</ele>
        <time>2015-08-05T13:39:45Z</time>
      </trkpt>
      <trkpt lat="45.89641" lon="3.68887">
        <ele>740</ele>
        <time>2015-08-05T13:39:49Z</time>
      </trkpt>
      <trkpt lat="45.89635" lon="3.68882">
        <ele>739</ele>
        <time>2015-08-05T13:39:54Z</time>
      </trkpt>
      <trkpt lat="45.89623" lon="3.68878">
        <ele>739</ele>
        <time>2015-08-05T13:40:04Z</time>
      </trkpt>
      <trkpt lat="45.89618" lon="3.68875">
        <ele>739</ele>
        <time>2015-08-05T13:40:08Z</time>
      </trkpt>
      <trkpt lat="45.89615" lon="3.6887">
        <ele>739</ele>
        <time>2015-08-05T13:40:11Z</time>
      </trkpt>
      <trkpt lat="45.89612" lon="3.68869">
        <ele>739</ele>
        <time>2015-08-05T13:40:13Z</time>
      </trkpt>
      <trkpt lat="45.89609" lon="3.68869">
        <ele>739</ele>
        <time>2015-08-05T13:40:16Z</time>
      </trkpt>
      <trkpt lat="45.896" lon="3.68866">
        <ele>737</ele>
        <time>2015-08-05T13:40:23Z</time>
      </trkpt>
      <trkpt lat="45.89598" lon="3.68865">
        <ele>737</ele>
        <time>2015-08-05T13:40:25Z</time>
      </trkpt>
      <trkpt lat="45.89588" lon="3.68862">
        <ele>735</ele>
        <time>2015-08-05T13:40:34Z</time>
      </trkpt>
      <trkpt lat="45.89585" lon="3.68859">
        <ele>735</ele>
        <time>2015-08-05T13:40:36Z</time>
      </trkpt>
      <trkpt lat="45.89579" lon="3.68853">
        <ele>735</ele>
        <time>2015-08-05T13:40:41Z</time>
      </trkpt>
      <trkpt lat="45.89576" lon="3.68847">
        <ele>735</ele>
        <time>2015-08-05T13:40:45Z</time>
      </trkpt>
      <trkpt lat="45.89574" lon="3.68844">
        <ele>735</ele>
        <time>2015-08-05T13:40:49Z</time>
      </trkpt>
      <trkpt lat="45.89573" lon="3.68844">
        <ele>735</ele>
        <time>2015-08-05T13:40:51Z</time>
      </trkpt>
      <trkpt lat="45.89573" lon="3.68841">
        <ele>738</ele>
        <time>2015-08-05T13:41:02Z</time>
      </trkpt>
      <trkpt lat="45.89571" lon="3.68838">
        <ele>739</ele>
        <time>2015-08-05T13:41:06Z</time>
      </trkpt>
      <trkpt lat="45.89563" lon="3.68836">
        <ele>739</ele>
        <time>2015-08-05T13:41:19Z</time>
      </trkpt>
      <trkpt lat="45.89555" lon="3.68834">
        <ele>737</ele>
        <time>2015-08-05T13:41:26Z</time>
      </trkpt>
      <trkpt lat="45.89547" lon="3.68832">
        <ele>735</ele>
        <time>2015-08-05T13:41:33Z</time>
      </trkpt>
      <trkpt lat="45.89541" lon="3.68828">
        <ele>735</ele>
        <time>2015-08-05T13:41:38Z</time>
      </trkpt>
      <trkpt lat="45.89539" lon="3.68829">
        <ele>735</ele>
        <time>2015-08-05T13:41:40Z</time>
      </trkpt>
      <trkpt lat="45.89537" lon="3.68828">
        <ele>735</ele>
        <time>2015-08-05T13:41:42Z</time>
      </trkpt>
      <trkpt lat="45.89534" lon="3.68826">
        <ele>735</ele>
        <time>2015-08-05T13:41:45Z</time>
      </trkpt>
      <trkpt lat="45.89532" lon="3.68827">
        <ele>735</ele>
        <time>2015-08-05T13:41:47Z</time>
      </trkpt>
      <trkpt lat="45.89531" lon="3.68826">
        <ele>735</ele>
        <time>2015-08-05T13:41:50Z</time>
      </trkpt>
      <trkpt lat="45.89529" lon="3.68825">
        <ele>735</ele>
        <time>2015-08-05T13:41:53Z</time>
      </trkpt>
      <trkpt lat="45.89526" lon="3.68824">
        <ele>735</ele>
        <time>2015-08-05T13:41:57Z</time>
      </trkpt>
      <trkpt lat="45.8952" lon="3.68821">
        <ele>734</ele>
        <time>2015-08-05T13:42:03Z</time>
      </trkpt>
      <trkpt lat="45.89518" lon="3.68819">
        <ele>734</ele>
        <time>2015-08-05T13:42:05Z</time>
      </trkpt>
      <trkpt lat="45.8951" lon="3.68812">
        <ele>734</ele>
        <time>2015-08-05T13:42:10Z</time>
      </trkpt>
      <trkpt lat="45.89503" lon="3.68806">
        <ele>734</ele>
        <time>2015-08-05T13:42:16Z</time>
      </trkpt>
      <trkpt lat="45.89494" lon="3.68799">
        <ele>734</ele>
        <time>2015-08-05T13:42:22Z</time>
      </trkpt>
      <trkpt lat="45.8949" lon="3.68796">
        <ele>734</ele>
        <time>2015-08-05T13:42:25Z</time>
      </trkpt>
      <trkpt lat="45.89486" lon="3.68793">
        <ele>734</ele>
        <time>2015-08-05T13:42:28Z</time>
      </trkpt>
      <trkpt lat="45.89479" lon="3.6879">
        <ele>734</ele>
        <time>2015-08-05T13:42:35Z</time>
      </trkpt>
      <trkpt lat="45.89471" lon="3.68784">
        <ele>734</ele>
        <time>2015-08-05T13:42:41Z</time>
      </trkpt>
      <trkpt lat="45.89465" lon="3.68782">
        <ele>730</ele>
        <time>2015-08-05T13:42:46Z</time>
      </trkpt>
      <trkpt lat="45.8946" lon="3.68779">
        <ele>730</ele>
        <time>2015-08-05T13:42:50Z</time>
      </trkpt>
      <trkpt lat="45.89458" lon="3.68779">
        <ele>730</ele>
        <time>2015-08-05T13:42:52Z</time>
      </trkpt>
      <trkpt lat="45.89455" lon="3.68777">
        <ele>729</ele>
        <time>2015-08-05T13:42:55Z</time>
      </trkpt>
      <trkpt lat="45.89451" lon="3.68777">
        <ele>728</ele>
        <time>2015-08-05T13:43:00Z</time>
      </trkpt>
      <trkpt lat="45.89445" lon="3.68775">
        <ele>728</ele>
        <time>2015-08-05T13:43:06Z</time>
      </trkpt>
      <trkpt lat="45.89439" lon="3.68774">
        <ele>728</ele>
        <time>2015-08-05T13:43:12Z</time>
      </trkpt>
      <trkpt lat="45.89437" lon="3.68773">
        <ele>728</ele>
        <time>2015-08-05T13:43:14Z</time>
      </trkpt>
      <trkpt lat="45.89432" lon="3.68772">
        <ele>728</ele>
        <time>2015-08-05T13:43:20Z</time>
      </trkpt>
      <trkpt lat="45.89426" lon="3.68768">
        <ele>728</ele>
        <time>2015-08-05T13:43:26Z</time>
      </trkpt>
      <trkpt lat="45.89423" lon="3.68769">
        <ele>728</ele>
        <time>2015-08-05T13:43:30Z</time>
      </trkpt>
      <trkpt lat="45.8942" lon="3.68769">
        <ele>728</ele>
        <time>2015-08-05T13:43:33Z</time>
      </trkpt>
      <trkpt lat="45.89414" lon="3.68766">
        <ele>726</ele>
        <time>2015-08-05T13:43:39Z</time>
      </trkpt>
      <trkpt lat="45.89413" lon="3.68766">
        <ele>725</ele>
        <time>2015-08-05T13:43:41Z</time>
      </trkpt>
      <trkpt lat="45.89409" lon="3.68765">
        <ele>724</ele>
        <time>2015-08-05T13:43:45Z</time>
      </trkpt>
      <trkpt lat="45.89406" lon="3.68762">
        <ele>723</ele>
        <time>2015-08-05T13:43:48Z</time>
      </trkpt>
      <trkpt lat="45.89404" lon="3.68762">
        <ele>723</ele>
        <time>2015-08-05T13:43:50Z</time>
      </trkpt>
      <trkpt lat="45.89401" lon="3.68761">
        <ele>723</ele>
        <time>2015-08-05T13:43:52Z</time>
      </trkpt>
      <trkpt lat="45.89397" lon="3.6876">
        <ele>722</ele>
        <time>2015-08-05T13:43:56Z</time>
      </trkpt>
      <trkpt lat="45.89395" lon="3.68759">
        <ele>722</ele>
        <time>2015-08-05T13:43:58Z</time>
      </trkpt>
      <trkpt lat="45.8939" lon="3.68757">
        <ele>722</ele>
        <time>2015-08-05T13:44:02Z</time>
      </trkpt>
      <trkpt lat="45.89388" lon="3.68756">
        <ele>722</ele>
        <time>2015-08-05T13:44:04Z</time>
      </trkpt>
      <trkpt lat="45.89373" lon="3.68753">
        <ele>722</ele>
        <time>2015-08-05T13:44:17Z</time>
      </trkpt>
      <trkpt lat="45.8937" lon="3.68752">
        <ele>722</ele>
        <time>2015-08-05T13:44:20Z</time>
      </trkpt>
      <trkpt lat="45.89367" lon="3.6875">
        <ele>722</ele>
        <time>2015-08-05T13:44:22Z</time>
      </trkpt>
      <trkpt lat="45.89362" lon="3.68748">
        <ele>722</ele>
        <time>2015-08-05T13:44:25Z</time>
      </trkpt>
      <trkpt lat="45.89358" lon="3.68748">
        <ele>722</ele>
        <time>2015-08-05T13:44:28Z</time>
      </trkpt>
      <trkpt lat="45.89349" lon="3.68747">
        <ele>721</ele>
        <time>2015-08-05T13:44:36Z</time>
      </trkpt>
      <trkpt lat="45.89341" lon="3.68737">
        <ele>721</ele>
        <time>2015-08-05T13:44:40Z</time>
      </trkpt>
      <trkpt lat="45.89337" lon="3.68736">
        <ele>721</ele>
        <time>2015-08-05T13:44:44Z</time>
      </trkpt>
      <trkpt lat="45.89332" lon="3.68735">
        <ele>721</ele>
        <time>2015-08-05T13:44:49Z</time>
      </trkpt>
      <trkpt lat="45.89328" lon="3.68734">
        <ele>721</ele>
        <time>2015-08-05T13:44:52Z</time>
      </trkpt>
      <trkpt lat="45.89325" lon="3.68734">
        <ele>721</ele>
        <time>2015-08-05T13:44:55Z</time>
      </trkpt>
      <trkpt lat="45.8932" lon="3.68732">
        <ele>721</ele>
        <time>2015-08-05T13:45:01Z</time>
      </trkpt>
      <trkpt lat="45.89315" lon="3.68728">
        <ele>721</ele>
        <time>2015-08-05T13:45:04Z</time>
      </trkpt>
      <trkpt lat="45.89312" lon="3.68724">
        <ele>723</ele>
        <time>2015-08-05T13:45:07Z</time>
      </trkpt>
      <trkpt lat="45.89297" lon="3.68719">
        <ele>725</ele>
        <time>2015-08-05T13:45:20Z</time>
      </trkpt>
      <trkpt lat="45.89291" lon="3.68718">
        <ele>726</ele>
        <time>2015-08-05T13:45:26Z</time>
      </trkpt>
      <trkpt lat="45.89283" lon="3.68715">
        <ele>726</ele>
        <time>2015-08-05T13:45:33Z</time>
      </trkpt>
      <trkpt lat="45.8928" lon="3.68713">
        <ele>726</ele>
        <time>2015-08-05T13:45:35Z</time>
      </trkpt>
      <trkpt lat="45.89274" lon="3.68712">
        <ele>726</ele>
        <time>2015-08-05T13:45:40Z</time>
      </trkpt>
      <trkpt lat="45.8927" lon="3.68712">
        <ele>726</ele>
        <time>2015-08-05T13:45:44Z</time>
      </trkpt>
      <trkpt lat="45.89268" lon="3.68712">
        <ele>726</ele>
        <time>2015-08-05T13:45:46Z</time>
      </trkpt>
      <trkpt lat="45.8926" lon="3.68711">
        <ele>726</ele>
        <time>2015-08-05T13:45:53Z</time>
      </trkpt>
      <trkpt lat="45.89257" lon="3.6871">
        <ele>726</ele>
        <time>2015-08-05T13:45:55Z</time>
      </trkpt>
      <trkpt lat="45.89245" lon="3.68702">
        <ele>727</ele>
        <time>2015-08-05T13:46:04Z</time>
      </trkpt>
      <trkpt lat="45.89234" lon="3.68697">
        <ele>728</ele>
        <time>2015-08-05T13:46:12Z</time>
      </trkpt>
      <trkpt lat="45.89228" lon="3.68697">
        <ele>728</ele>
        <time>2015-08-05T13:46:17Z</time>
      </trkpt>
      <trkpt lat="45.89224" lon="3.68696">
        <ele>728</ele>
        <time>2015-08-05T13:46:20Z</time>
      </trkpt>
      <trkpt lat="45.89219" lon="3.68697">
        <ele>728</ele>
        <time>2015-08-05T13:46:24Z</time>
      </trkpt>
      <trkpt lat="45.89214" lon="3.68694">
        <ele>728</ele>
        <time>2015-08-05T13:46:29Z</time>
      </trkpt>
      <trkpt lat="45.89205" lon="3.68692">
        <ele>726</ele>
        <time>2015-08-05T13:46:37Z</time>
      </trkpt>
      <trkpt lat="45.89201" lon="3.6869">
        <ele>725</ele>
        <time>2015-08-05T13:46:40Z</time>
      </trkpt>
      <trkpt lat="45.89195" lon="3.68689">
        <ele>722</ele>
        <time>2015-08-05T13:46:45Z</time>
      </trkpt>
      <trkpt lat="45.89189" lon="3.68686">
        <ele>719</ele>
        <time>2015-08-05T13:46:50Z</time>
      </trkpt>
      <trkpt lat="45.89182" lon="3.68685">
        <ele>717</ele>
        <time>2015-08-05T13:46:56Z</time>
      </trkpt>
      <trkpt lat="45.89178" lon="3.68684">
        <ele>716</ele>
        <time>2015-08-05T13:46:59Z</time>
      </trkpt>
      <trkpt lat="45.89175" lon="3.68685">
        <ele>715</ele>
        <time>2015-08-05T13:47:01Z</time>
      </trkpt>
      <trkpt lat="45.89172" lon="3.68685">
        <ele>715</ele>
        <time>2015-08-05T13:47:04Z</time>
      </trkpt>
      <trkpt lat="45.89169" lon="3.68685">
        <ele>715</ele>
        <time>2015-08-05T13:47:07Z</time>
      </trkpt>
      <trkpt lat="45.89165" lon="3.68687">
        <ele>715</ele>
        <time>2015-08-05T13:47:10Z</time>
      </trkpt>
      <trkpt lat="45.89164" lon="3.68688">
        <ele>716</ele>
        <time>2015-08-05T13:47:12Z</time>
      </trkpt>
      <trkpt lat="45.8916" lon="3.68688">
        <ele>719</ele>
        <time>2015-08-05T13:47:15Z</time>
      </trkpt>
      <trkpt lat="45.89156" lon="3.68688">
        <ele>722</ele>
        <time>2015-08-05T13:47:18Z</time>
      </trkpt>
      <trkpt lat="45.89154" lon="3.68688">
        <ele>723</ele>
        <time>2015-08-05T13:47:20Z</time>
      </trkpt>
      <trkpt lat="45.8915" lon="3.68688">
        <ele>724</ele>
        <time>2015-08-05T13:47:23Z</time>
      </trkpt>
      <trkpt lat="45.89146" lon="3.68689">
        <ele>726</ele>
        <time>2015-08-05T13:47:26Z</time>
      </trkpt>
      <trkpt lat="45.89143" lon="3.6869">
        <ele>727</ele>
        <time>2015-08-05T13:47:28Z</time>
      </trkpt>
      <trkpt lat="45.89138" lon="3.68692">
        <ele>727</ele>
        <time>2015-08-05T13:47:33Z</time>
      </trkpt>
      <trkpt lat="45.89136" lon="3.68694">
        <ele>727</ele>
        <time>2015-08-05T13:47:35Z</time>
      </trkpt>
      <trkpt lat="45.89134" lon="3.68696">
        <ele>727</ele>
        <time>2015-08-05T13:47:37Z</time>
      </trkpt>
      <trkpt lat="45.8913" lon="3.68699">
        <ele>727</ele>
        <time>2015-08-05T13:47:40Z</time>
      </trkpt>
      <trkpt lat="45.89128" lon="3.68702">
        <ele>727</ele>
        <time>2015-08-05T13:47:42Z</time>
      </trkpt>
      <trkpt lat="45.8912" lon="3.68706">
        <ele>727</ele>
        <time>2015-08-05T13:47:49Z</time>
      </trkpt>
      <trkpt lat="45.89115" lon="3.68711">
        <ele>727</ele>
        <time>2015-08-05T13:47:54Z</time>
      </trkpt>
      <trkpt lat="45.89112" lon="3.68713">
        <ele>727</ele>
        <time>2015-08-05T13:47:56Z</time>
      </trkpt>
      <trkpt lat="45.89106" lon="3.68718">
        <ele>727</ele>
        <time>2015-08-05T13:48:02Z</time>
      </trkpt>
      <trkpt lat="45.89104" lon="3.68719">
        <ele>727</ele>
        <time>2015-08-05T13:48:04Z</time>
      </trkpt>
      <trkpt lat="45.89093" lon="3.68726">
        <ele>729</ele>
        <time>2015-08-05T13:48:14Z</time>
      </trkpt>
      <trkpt lat="45.89086" lon="3.68733">
        <ele>730</ele>
        <time>2015-08-05T13:48:22Z</time>
      </trkpt>
      <trkpt lat="45.89075" lon="3.6874">
        <ele>732</ele>
        <time>2015-08-05T13:48:32Z</time>
      </trkpt>
      <trkpt lat="45.89071" lon="3.68742">
        <ele>733</ele>
        <time>2015-08-05T13:48:36Z</time>
      </trkpt>
      <trkpt lat="45.89066" lon="3.68747">
        <ele>733</ele>
        <time>2015-08-05T13:48:41Z</time>
      </trkpt>
      <trkpt lat="45.89056" lon="3.68754">
        <ele>733</ele>
        <time>2015-08-05T13:48:49Z</time>
      </trkpt>
      <trkpt lat="45.89052" lon="3.68759">
        <ele>734</ele>
        <time>2015-08-05T13:48:53Z</time>
      </trkpt>
      <trkpt lat="45.89049" lon="3.68762">
        <ele>734</ele>
        <time>2015-08-05T13:48:56Z</time>
      </trkpt>
      <trkpt lat="45.89048" lon="3.68765">
        <ele>734</ele>
        <time>2015-08-05T13:48:58Z</time>
      </trkpt>
      <trkpt lat="45.89046" lon="3.68779">
        <ele>734</ele>
        <time>2015-08-05T13:49:21Z</time>
      </trkpt>
      <trkpt lat="45.89046" lon="3.68784">
        <ele>734</ele>
        <time>2015-08-05T13:49:24Z</time>
      </trkpt>
      <trkpt lat="45.89047" lon="3.68785">
        <ele>734</ele>
        <time>2015-08-05T13:49:30Z</time>
      </trkpt>
      <trkpt lat="45.89048" lon="3.68789">
        <ele>734</ele>
        <time>2015-08-05T13:49:33Z</time>
      </trkpt>
      <trkpt lat="45.89047" lon="3.68792">
        <ele>734</ele>
        <time>2015-08-05T13:49:35Z</time>
      </trkpt>
      <trkpt lat="45.89048" lon="3.68796">
        <ele>734</ele>
        <time>2015-08-05T13:49:37Z</time>
      </trkpt>
      <trkpt lat="45.89046" lon="3.68807">
        <ele>734</ele>
        <time>2015-08-05T13:49:44Z</time>
      </trkpt>
      <trkpt lat="45.89043" lon="3.68818">
        <ele>731</ele>
        <time>2015-08-05T13:49:53Z</time>
      </trkpt>
      <trkpt lat="45.89043" lon="3.68823">
        <ele>730</ele>
        <time>2015-08-05T13:49:56Z</time>
      </trkpt>
      <trkpt lat="45.89043" lon="3.68828">
        <ele>728</ele>
        <time>2015-08-05T13:50:00Z</time>
      </trkpt>
      <trkpt lat="45.89045" lon="3.68845">
        <ele>725</ele>
        <time>2015-08-05T13:50:16Z</time>
      </trkpt>
      <trkpt lat="45.89044" lon="3.68851">
        <ele>725</ele>
        <time>2015-08-05T13:50:20Z</time>
      </trkpt>
      <trkpt lat="45.89044" lon="3.68855">
        <ele>725</ele>
        <time>2015-08-05T13:50:22Z</time>
      </trkpt>
      <trkpt lat="45.89043" lon="3.68858">
        <ele>725</ele>
        <time>2015-08-05T13:50:24Z</time>
      </trkpt>
      <trkpt lat="45.89037" lon="3.68868">
        <ele>725</ele>
        <time>2015-08-05T13:50:30Z</time>
      </trkpt>
      <trkpt lat="45.8903" lon="3.68872">
        <ele>724</ele>
        <time>2015-08-05T13:50:35Z</time>
      </trkpt>
      <trkpt lat="45.89026" lon="3.68874">
        <ele>721</ele>
        <time>2015-08-05T13:50:38Z</time>
      </trkpt>
      <trkpt lat="45.89021" lon="3.68873">
        <ele>719</ele>
        <time>2015-08-05T13:50:41Z</time>
      </trkpt>
      <trkpt lat="45.89008" lon="3.68871">
        <ele>715</ele>
        <time>2015-08-05T13:50:50Z</time>
      </trkpt>
      <trkpt lat="45.89" lon="3.68872">
        <ele>714</ele>
        <time>2015-08-05T13:50:57Z</time>
      </trkpt>
      <trkpt lat="45.88995" lon="3.6887">
        <ele>711</ele>
        <time>2015-08-05T13:51:01Z</time>
      </trkpt>
      <trkpt lat="45.88992" lon="3.68868">
        <ele>711</ele>
        <time>2015-08-05T13:51:04Z</time>
      </trkpt>
      <trkpt lat="45.88986" lon="3.68868">
        <ele>711</ele>
        <time>2015-08-05T13:51:10Z</time>
      </trkpt>
      <trkpt lat="45.88982" lon="3.68868">
        <ele>711</ele>
        <time>2015-08-05T13:51:13Z</time>
      </trkpt>
      <trkpt lat="45.88969" lon="3.68871">
        <ele>708</ele>
        <time>2015-08-05T13:51:23Z</time>
      </trkpt>
      <trkpt lat="45.88959" lon="3.6887">
        <ele>708</ele>
        <time>2015-08-05T13:51:29Z</time>
      </trkpt>
      <trkpt lat="45.88956" lon="3.68871">
        <ele>708</ele>
        <time>2015-08-05T13:51:31Z</time>
      </trkpt>
      <trkpt lat="45.88954" lon="3.68872">
        <ele>708</ele>
        <time>2015-08-05T13:51:33Z</time>
      </trkpt>
      <trkpt lat="45.8894" lon="3.6888">
        <ele>704</ele>
        <time>2015-08-05T13:51:44Z</time>
      </trkpt>
      <trkpt lat="45.88924" lon="3.68886">
        <ele>704</ele>
        <time>2015-08-05T13:51:55Z</time>
      </trkpt>
      <trkpt lat="45.88921" lon="3.68888">
        <ele>704</ele>
        <time>2015-08-05T13:51:58Z</time>
      </trkpt>
      <trkpt lat="45.88919" lon="3.68891">
        <ele>704</ele>
        <time>2015-08-05T13:52:00Z</time>
      </trkpt>
      <trkpt lat="45.88916" lon="3.68896">
        <ele>704</ele>
        <time>2015-08-05T13:52:04Z</time>
      </trkpt>
      <trkpt lat="45.88912" lon="3.689">
        <ele>703</ele>
        <time>2015-08-05T13:52:08Z</time>
      </trkpt>
      <trkpt lat="45.88909" lon="3.68903">
        <ele>703</ele>
        <time>2015-08-05T13:52:11Z</time>
      </trkpt>
      <trkpt lat="45.88907" lon="3.68905">
        <ele>701</ele>
        <time>2015-08-05T13:52:13Z</time>
      </trkpt>
      <trkpt lat="45.88905" lon="3.68907">
        <ele>701</ele>
        <time>2015-08-05T13:52:15Z</time>
      </trkpt>
      <trkpt lat="45.88894" lon="3.68918">
        <ele>695</ele>
        <time>2015-08-05T13:52:26Z</time>
      </trkpt>
      <trkpt lat="45.8889" lon="3.68922">
        <ele>693</ele>
        <time>2015-08-05T13:52:29Z</time>
      </trkpt>
      <trkpt lat="45.88882" lon="3.68932">
        <ele>690</ele>
        <time>2015-08-05T13:52:41Z</time>
      </trkpt>
      <trkpt lat="45.88882" lon="3.6893">
        <ele>693</ele>
        <time>2015-08-05T13:52:49Z</time>
      </trkpt>
      <trkpt lat="45.88883" lon="3.68931">
        <ele>699</ele>
        <time>2015-08-05T13:53:01Z</time>
      </trkpt>
      <trkpt lat="45.88884" lon="3.68932">
        <ele>699</ele>
        <time>2015-08-05T13:53:15Z</time>
      </trkpt>
      <trkpt lat="45.88884" lon="3.68933">
        <ele>700</ele>
        <time>2015-08-05T13:53:17Z</time>
      </trkpt>
      <trkpt lat="45.88881" lon="3.68937">
        <ele>700</ele>
        <time>2015-08-05T13:53:21Z</time>
      </trkpt>
      <trkpt lat="45.88878" lon="3.68941">
        <ele>700</ele>
        <time>2015-08-05T13:53:25Z</time>
      </trkpt>
      <trkpt lat="45.88869" lon="3.68948">
        <ele>700</ele>
        <time>2015-08-05T13:53:33Z</time>
      </trkpt>
      <trkpt lat="45.88864" lon="3.68954">
        <ele>700</ele>
        <time>2015-08-05T13:53:39Z</time>
      </trkpt>
      <trkpt lat="45.88859" lon="3.68958">
        <ele>700</ele>
        <time>2015-08-05T13:53:43Z</time>
      </trkpt>
      <trkpt lat="45.88851" lon="3.68966">
        <ele>700</ele>
        <time>2015-08-05T13:53:50Z</time>
      </trkpt>
      <trkpt lat="45.88841" lon="3.68973">
        <ele>695</ele>
        <time>2015-08-05T13:53:57Z</time>
      </trkpt>
      <trkpt lat="45.88838" lon="3.68975">
        <ele>695</ele>
        <time>2015-08-05T13:54:00Z</time>
      </trkpt>
      <trkpt lat="45.88834" lon="3.68979">
        <ele>695</ele>
        <time>2015-08-05T13:54:03Z</time>
      </trkpt>
      <trkpt lat="45.88823" lon="3.68985">
        <ele>695</ele>
        <time>2015-08-05T13:54:12Z</time>
      </trkpt>
      <trkpt lat="45.88814" lon="3.68993">
        <ele>694</ele>
        <time>2015-08-05T13:54:20Z</time>
      </trkpt>
      <trkpt lat="45.88812" lon="3.68995">
        <ele>693</ele>
        <time>2015-08-05T13:54:22Z</time>
      </trkpt>
      <trkpt lat="45.88805" lon="3.69001">
        <ele>692</ele>
        <time>2015-08-05T13:54:27Z</time>
      </trkpt>
      <trkpt lat="45.88799" lon="3.6901">
        <ele>692</ele>
        <time>2015-08-05T13:54:34Z</time>
      </trkpt>
      <trkpt lat="45.88795" lon="3.69016">
        <ele>692</ele>
        <time>2015-08-05T13:54:38Z</time>
      </trkpt>
      <trkpt lat="45.88792" lon="3.69025">
        <ele>692</ele>
        <time>2015-08-05T13:54:44Z</time>
      </trkpt>
      <trkpt lat="45.88787" lon="3.69035">
        <ele>690</ele>
        <time>2015-08-05T13:54:51Z</time>
      </trkpt>
      <trkpt lat="45.88786" lon="3.6904">
        <ele>690</ele>
        <time>2015-08-05T13:54:55Z</time>
      </trkpt>
      <trkpt lat="45.88784" lon="3.69043">
        <ele>690</ele>
        <time>2015-08-05T13:54:57Z</time>
      </trkpt>
      <trkpt lat="45.88784" lon="3.69047">
        <ele>690</ele>
        <time>2015-08-05T13:54:59Z</time>
      </trkpt>
      <trkpt lat="45.88779" lon="3.69056">
        <ele>690</ele>
        <time>2015-08-05T13:55:05Z</time>
      </trkpt>
      <trkpt lat="45.88778" lon="3.69062">
        <ele>690</ele>
        <time>2015-08-05T13:55:08Z</time>
      </trkpt>
      <trkpt lat="45.88777" lon="3.69068">
        <ele>690</ele>
        <time>2015-08-05T13:55:11Z</time>
      </trkpt>
      <trkpt lat="45.88774" lon="3.69075">
        <ele>690</ele>
        <time>2015-08-05T13:55:15Z</time>
      </trkpt>
      <trkpt lat="45.88773" lon="3.6908">
        <ele>690</ele>
        <time>2015-08-05T13:55:18Z</time>
      </trkpt>
      <trkpt lat="45.88771" lon="3.69085">
        <ele>690</ele>
        <time>2015-08-05T13:55:21Z</time>
      </trkpt>
      <trkpt lat="45.88768" lon="3.69092">
        <ele>690</ele>
        <time>2015-08-05T13:55:25Z</time>
      </trkpt>
      <trkpt lat="45.88766" lon="3.691">
        <ele>690</ele>
        <time>2015-08-05T13:55:29Z</time>
      </trkpt>
      <trkpt lat="45.88764" lon="3.69105">
        <ele>690</ele>
        <time>2015-08-05T13:55:32Z</time>
      </trkpt>
      <trkpt lat="45.88762" lon="3.6911">
        <ele>689</ele>
        <time>2015-08-05T13:55:35Z</time>
      </trkpt>
      <trkpt lat="45.88761" lon="3.69114">
        <ele>689</ele>
        <time>2015-08-05T13:55:37Z</time>
      </trkpt>
      <trkpt lat="45.88758" lon="3.69121">
        <ele>688</ele>
        <time>2015-08-05T13:55:41Z</time>
      </trkpt>
      <trkpt lat="45.88757" lon="3.69126">
        <ele>687</ele>
        <time>2015-08-05T13:55:44Z</time>
      </trkpt>
      <trkpt lat="45.88753" lon="3.69133">
        <ele>685</ele>
        <time>2015-08-05T13:55:48Z</time>
      </trkpt>
      <trkpt lat="45.88748" lon="3.69144">
        <ele>682</ele>
        <time>2015-08-05T13:55:54Z</time>
      </trkpt>
      <trkpt lat="45.88743" lon="3.69163">
        <ele>679</ele>
        <time>2015-08-05T13:56:05Z</time>
      </trkpt>
      <trkpt lat="45.88735" lon="3.69182">
        <ele>679</ele>
        <time>2015-08-05T13:56:17Z</time>
      </trkpt>
      <trkpt lat="45.88732" lon="3.69187">
        <ele>679</ele>
        <time>2015-08-05T13:56:20Z</time>
      </trkpt>
      <trkpt lat="45.8873" lon="3.69191">
        <ele>679</ele>
        <time>2015-08-05T13:56:22Z</time>
      </trkpt>
      <trkpt lat="45.88721" lon="3.69202">
        <ele>678</ele>
        <time>2015-08-05T13:56:30Z</time>
      </trkpt>
      <trkpt lat="45.88712" lon="3.69208">
        <ele>678</ele>
        <time>2015-08-05T13:56:37Z</time>
      </trkpt>
      <trkpt lat="45.8871" lon="3.6921">
        <ele>678</ele>
        <time>2015-08-05T13:56:39Z</time>
      </trkpt>
      <trkpt lat="45.88701" lon="3.69215">
        <ele>678</ele>
        <time>2015-08-05T13:56:46Z</time>
      </trkpt>
      <trkpt lat="45.88698" lon="3.69216">
        <ele>678</ele>
        <time>2015-08-05T13:56:48Z</time>
      </trkpt>
      <trkpt lat="45.88696" lon="3.69218">
        <ele>678</ele>
        <time>2015-08-05T13:56:50Z</time>
      </trkpt>
      <trkpt lat="45.88689" lon="3.69221">
        <ele>678</ele>
        <time>2015-08-05T13:56:55Z</time>
      </trkpt>
      <trkpt lat="45.88684" lon="3.69222">
        <ele>678</ele>
        <time>2015-08-05T13:56:58Z</time>
      </trkpt>
      <trkpt lat="45.88681" lon="3.69224">
        <ele>677</ele>
        <time>2015-08-05T13:57:00Z</time>
      </trkpt>
      <trkpt lat="45.88672" lon="3.69226">
        <ele>676</ele>
        <time>2015-08-05T13:57:06Z</time>
      </trkpt>
      <trkpt lat="45.88665" lon="3.69228">
        <ele>675</ele>
        <time>2015-08-05T13:57:11Z</time>
      </trkpt>
      <trkpt lat="45.88655" lon="3.69232">
        <ele>672</ele>
        <time>2015-08-05T13:57:18Z</time>
      </trkpt>
      <trkpt lat="45.88647" lon="3.69234">
        <ele>670</ele>
        <time>2015-08-05T13:57:24Z</time>
      </trkpt>
      <trkpt lat="45.88644" lon="3.69235">
        <ele>670</ele>
        <time>2015-08-05T13:57:26Z</time>
      </trkpt>
      <trkpt lat="45.8864" lon="3.69236">
        <ele>670</ele>
        <time>2015-08-05T13:57:29Z</time>
      </trkpt>
      <trkpt lat="45.88625" lon="3.6924">
        <ele>668</ele>
        <time>2015-08-05T13:57:41Z</time>
      </trkpt>
      <trkpt lat="45.88617" lon="3.69243">
        <ele>668</ele>
        <time>2015-08-05T13:57:47Z</time>
      </trkpt>
      <trkpt lat="45.88612" lon="3.69244">
        <ele>667</ele>
        <time>2015-08-05T13:57:50Z</time>
      </trkpt>
      <trkpt lat="45.88601" lon="3.69245">
        <ele>667</ele>
        <time>2015-08-05T13:57:58Z</time>
      </trkpt>
      <trkpt lat="45.88591" lon="3.69248">
        <ele>667</ele>
        <time>2015-08-05T13:58:05Z</time>
      </trkpt>
      <trkpt lat="45.88588" lon="3.6925">
        <ele>667</ele>
        <time>2015-08-05T13:58:08Z</time>
      </trkpt>
      <trkpt lat="45.88585" lon="3.6925">
        <ele>667</ele>
        <time>2015-08-05T13:58:10Z</time>
      </trkpt>
      <trkpt lat="45.88572" lon="3.69255">
        <ele>665</ele>
        <time>2015-08-05T13:58:20Z</time>
      </trkpt>
      <trkpt lat="45.88552" lon="3.69262">
        <ele>665</ele>
        <time>2015-08-05T13:58:35Z</time>
      </trkpt>
      <trkpt lat="45.88548" lon="3.69263">
        <ele>665</ele>
        <time>2015-08-05T13:58:38Z</time>
      </trkpt>
      <trkpt lat="45.88541" lon="3.69263">
        <ele>665</ele>
        <time>2015-08-05T13:58:43Z</time>
      </trkpt>
      <trkpt lat="45.88535" lon="3.69265">
        <ele>665</ele>
        <time>2015-08-05T13:58:48Z</time>
      </trkpt>
      <trkpt lat="45.88532" lon="3.69267">
        <ele>665</ele>
        <time>2015-08-05T13:58:51Z</time>
      </trkpt>
      <trkpt lat="45.88528" lon="3.69266">
        <ele>665</ele>
        <time>2015-08-05T13:58:54Z</time>
      </trkpt>
      <trkpt lat="45.88525" lon="3.69267">
        <ele>665</ele>
        <time>2015-08-05T13:58:56Z</time>
      </trkpt>
      <trkpt lat="45.88517" lon="3.69267">
        <ele>663</ele>
        <time>2015-08-05T13:59:03Z</time>
      </trkpt>
      <trkpt lat="45.88514" lon="3.69265">
        <ele>663</ele>
        <time>2015-08-05T13:59:06Z</time>
      </trkpt>
      <trkpt lat="45.8851" lon="3.69261">
        <ele>663</ele>
        <time>2015-08-05T13:59:16Z</time>
      </trkpt>
      <trkpt lat="45.8851" lon="3.69259">
        <ele>663</ele>
        <time>2015-08-05T13:59:22Z</time>
      </trkpt>
      <trkpt lat="45.8851" lon="3.69258">
        <ele>663</ele>
        <time>2015-08-05T13:59:25Z</time>
      </trkpt>
      <trkpt lat="45.88509" lon="3.69257">
        <ele>663</ele>
        <time>2015-08-05T13:59:36Z</time>
      </trkpt>
      <trkpt lat="45.88511" lon="3.69256">
        <ele>664</ele>
        <time>2015-08-05T13:59:43Z</time>
      </trkpt>
      <trkpt lat="45.88512" lon="3.69258">
        <ele>664</ele>
        <time>2015-08-05T13:59:49Z</time>
      </trkpt>
      <trkpt lat="45.88511" lon="3.69259">
        <ele>664</ele>
        <time>2015-08-05T13:59:53Z</time>
      </trkpt>
      <trkpt lat="45.88508" lon="3.6926">
        <ele>664</ele>
        <time>2015-08-05T13:59:59Z</time>
      </trkpt>
      <trkpt lat="45.88509" lon="3.69261">
        <ele>664</ele>
        <time>2015-08-05T14:00:11Z</time>
      </trkpt>
      <trkpt lat="45.88512" lon="3.69259">
        <ele>664</ele>
        <time>2015-08-05T14:00:16Z</time>
      </trkpt>
      <trkpt lat="45.88511" lon="3.69261">
        <ele>664</ele>
        <time>2015-08-05T14:00:25Z</time>
      </trkpt>
      <trkpt lat="45.88511" lon="3.69263">
        <ele>664</ele>
        <time>2015-08-05T14:00:30Z</time>
      </trkpt>
      <trkpt lat="45.8851" lon="3.6926">
        <ele>665</ele>
        <time>2015-08-05T14:00:54Z</time>
      </trkpt>
      <trkpt lat="45.88512" lon="3.69261">
        <ele>668</ele>
        <time>2015-08-05T14:01:03Z</time>
      </trkpt>
      <trkpt lat="45.88513" lon="3.69264">
        <ele>668</ele>
        <time>2015-08-05T14:01:07Z</time>
      </trkpt>
      <trkpt lat="45.88514" lon="3.69263">
        <ele>668</ele>
        <time>2015-08-05T14:01:11Z</time>
      </trkpt>
      <trkpt lat="45.88513" lon="3.69261">
        <ele>668</ele>
        <time>2015-08-05T14:01:16Z</time>
      </trkpt>
      <trkpt lat="45.88512" lon="3.6926">
        <ele>668</ele>
        <time>2015-08-05T14:01:21Z</time>
      </trkpt>
      <trkpt lat="45.88511" lon="3.69261">
        <ele>668</ele>
        <time>2015-08-05T14:01:27Z</time>
      </trkpt>
      <trkpt lat="45.88509" lon="3.6926">
        <ele>668</ele>
        <time>2015-08-05T14:01:33Z</time>
      </trkpt>
      <trkpt lat="45.8851" lon="3.69258">
        <ele>666</ele>
        <time>2015-08-05T14:01:49Z</time>
      </trkpt>
      <trkpt lat="45.8851" lon="3.69256">
        <ele>661</ele>
        <time>2015-08-05T14:02:01Z</time>
      </trkpt>
      <trkpt lat="45.88509" lon="3.69254">
        <ele>659</ele>
        <time>2015-08-05T14:02:12Z</time>
      </trkpt>
      <trkpt lat="45.8851" lon="3.69257">
        <ele>660</ele>
        <time>2015-08-05T14:02:25Z</time>
      </trkpt>
      <trkpt lat="45.88509" lon="3.69258">
        <ele>664</ele>
        <time>2015-08-05T14:02:40Z</time>
      </trkpt>
      <trkpt lat="45.8851" lon="3.6926">
        <ele>664</ele>
        <time>2015-08-05T14:02:43Z</time>
      </trkpt>
      <trkpt lat="45.88509" lon="3.6926">
        <ele>664</ele>
        <time>2015-08-05T14:02:53Z</time>
      </trkpt>
      <trkpt lat="45.88508" lon="3.69262">
        <ele>664</ele>
        <time>2015-08-05T14:03:00Z</time>
      </trkpt>
      <trkpt lat="45.88509" lon="3.69261">
        <ele>665</ele>
        <time>2015-08-05T14:03:18Z</time>
      </trkpt>
      <trkpt lat="45.88508" lon="3.6926">
        <ele>668</ele>
        <time>2015-08-05T14:03:23Z</time>
      </trkpt>
      <trkpt lat="45.88505" lon="3.69261">
        <ele>668</ele>
        <time>2015-08-05T14:03:26Z</time>
      </trkpt>
      <trkpt lat="45.88503" lon="3.69262">
        <ele>668</ele>
        <time>2015-08-05T14:03:28Z</time>
      </trkpt>
      <trkpt lat="45.88496" lon="3.69264">
        <ele>668</ele>
        <time>2015-08-05T14:03:33Z</time>
      </trkpt>
      <trkpt lat="45.8849" lon="3.69267">
        <ele>668</ele>
        <time>2015-08-05T14:03:38Z</time>
      </trkpt>
      <trkpt lat="45.88477" lon="3.69278">
        <ele>667</ele>
        <time>2015-08-05T14:03:49Z</time>
      </trkpt>
      <trkpt lat="45.88462" lon="3.69285">
        <ele>663</ele>
        <time>2015-08-05T14:04:01Z</time>
      </trkpt>
      <trkpt lat="45.88459" lon="3.69285">
        <ele>662</ele>
        <time>2015-08-05T14:04:03Z</time>
      </trkpt>
      <trkpt lat="45.88442" lon="3.69291">
        <ele>658</ele>
        <time>2015-08-05T14:04:17Z</time>
      </trkpt>
      <trkpt lat="45.88437" lon="3.69292">
        <ele>657</ele>
        <time>2015-08-05T14:04:21Z</time>
      </trkpt>
      <trkpt lat="45.88429" lon="3.69291">
        <ele>656</ele>
        <time>2015-08-05T14:04:27Z</time>
      </trkpt>
      <trkpt lat="45.88423" lon="3.69289">
        <ele>654</ele>
        <time>2015-08-05T14:04:32Z</time>
      </trkpt>
      <trkpt lat="45.88417" lon="3.69286">
        <ele>653</ele>
        <time>2015-08-05T14:04:37Z</time>
      </trkpt>
      <trkpt lat="45.88406" lon="3.69285">
        <ele>652</ele>
        <time>2015-08-05T14:04:47Z</time>
      </trkpt>
      <trkpt lat="45.88398" lon="3.69286">
        <ele>652</ele>
        <time>2015-08-05T14:04:53Z</time>
      </trkpt>
      <trkpt lat="45.88388" lon="3.69289">
        <ele>652</ele>
        <time>2015-08-05T14:05:00Z</time>
      </trkpt>
      <trkpt lat="45.88385" lon="3.6929">
        <ele>652</ele>
        <time>2015-08-05T14:05:02Z</time>
      </trkpt>
      <trkpt lat="45.8838" lon="3.69291">
        <ele>651</ele>
        <time>2015-08-05T14:05:05Z</time>
      </trkpt>
      <trkpt lat="45.88375" lon="3.69296">
        <ele>651</ele>
        <time>2015-08-05T14:05:10Z</time>
      </trkpt>
      <trkpt lat="45.88366" lon="3.693">
        <ele>651</ele>
        <time>2015-08-05T14:05:18Z</time>
      </trkpt>
      <trkpt lat="45.88361" lon="3.69303">
        <ele>651</ele>
        <time>2015-08-05T14:05:22Z</time>
      </trkpt>
      <trkpt lat="45.88358" lon="3.69305">
        <ele>651</ele>
        <time>2015-08-05T14:05:24Z</time>
      </trkpt>
      <trkpt lat="45.88351" lon="3.69309">
        <ele>650</ele>
        <time>2015-08-05T14:05:31Z</time>
      </trkpt>
      <trkpt lat="45.88349" lon="3.69311">
        <ele>650</ele>
        <time>2015-08-05T14:05:33Z</time>
      </trkpt>
      <trkpt lat="45.88343" lon="3.69314">
        <ele>650</ele>
        <time>2015-08-05T14:05:38Z</time>
      </trkpt>
      <trkpt lat="45.8833" lon="3.69321">
        <ele>650</ele>
        <time>2015-08-05T14:05:49Z</time>
      </trkpt>
      <trkpt lat="45.88325" lon="3.69326">
        <ele>650</ele>
        <time>2015-08-05T14:05:54Z</time>
      </trkpt>
      <trkpt lat="45.88321" lon="3.69328">
        <ele>650</ele>
        <time>2015-08-05T14:05:57Z</time>
      </trkpt>
      <trkpt lat="45.88319" lon="3.69329">
        <ele>650</ele>
        <time>2015-08-05T14:05:59Z</time>
      </trkpt>
      <trkpt lat="45.8831" lon="3.69336">
        <ele>650</ele>
        <time>2015-08-05T14:06:07Z</time>
      </trkpt>
      <trkpt lat="45.88307" lon="3.6934">
        <ele>650</ele>
        <time>2015-08-05T14:06:11Z</time>
      </trkpt>
      <trkpt lat="45.88302" lon="3.69343">
        <ele>650</ele>
        <time>2015-08-05T14:06:17Z</time>
      </trkpt>
      <trkpt lat="45.88293" lon="3.69353">
        <ele>650</ele>
        <time>2015-08-05T14:06:26Z</time>
      </trkpt>
      <trkpt lat="45.88285" lon="3.69359">
        <ele>650</ele>
        <time>2015-08-05T14:06:34Z</time>
      </trkpt>
      <trkpt lat="45.88278" lon="3.69364">
        <ele>649</ele>
        <time>2015-08-05T14:06:39Z</time>
      </trkpt>
      <trkpt lat="45.88271" lon="3.6937">
        <ele>646</ele>
        <time>2015-08-05T14:06:44Z</time>
      </trkpt>
      <trkpt lat="45.88265" lon="3.69374">
        <ele>645</ele>
        <time>2015-08-05T14:06:49Z</time>
      </trkpt>
      <trkpt lat="45.88257" lon="3.6938">
        <ele>645</ele>
        <time>2015-08-05T14:06:57Z</time>
      </trkpt>
      <trkpt lat="45.88253" lon="3.69384">
        <ele>644</ele>
        <time>2015-08-05T14:07:01Z</time>
      </trkpt>
      <trkpt lat="45.8825" lon="3.69385">
        <ele>644</ele>
        <time>2015-08-05T14:07:05Z</time>
      </trkpt>
      <trkpt lat="45.88249" lon="3.69387">
        <ele>644</ele>
        <time>2015-08-05T14:07:08Z</time>
      </trkpt>
      <trkpt lat="45.88248" lon="3.69387">
        <ele>644</ele>
        <time>2015-08-05T14:07:13Z</time>
      </trkpt>
      <trkpt lat="45.88244" lon="3.69392">
        <ele>646</ele>
        <time>2015-08-05T14:07:17Z</time>
      </trkpt>
      <trkpt lat="45.88243" lon="3.69394">
        <ele>647</ele>
        <time>2015-08-05T14:07:19Z</time>
      </trkpt>
      <trkpt lat="45.88244" lon="3.69397">
        <ele>655</ele>
        <time>2015-08-05T14:07:29Z</time>
      </trkpt>
      <trkpt lat="45.88243" lon="3.69398">
        <ele>657</ele>
        <time>2015-08-05T14:07:32Z</time>
      </trkpt>
      <trkpt lat="45.88243" lon="3.69396">
        <ele>660</ele>
        <time>2015-08-05T14:07:36Z</time>
      </trkpt>
      <trkpt lat="45.88244" lon="3.69393">
        <ele>661</ele>
        <time>2015-08-05T14:07:42Z</time>
      </trkpt>
      <trkpt lat="45.88245" lon="3.69394">
        <ele>664</ele>
        <time>2015-08-05T14:07:47Z</time>
      </trkpt>
      <trkpt lat="45.88242" lon="3.69401">
        <ele>675</ele>
        <time>2015-08-05T14:08:01Z</time>
      </trkpt>
      <trkpt lat="45.8824" lon="3.69405">
        <ele>676</ele>
        <time>2015-08-05T14:08:10Z</time>
      </trkpt>
      <trkpt lat="45.88239" lon="3.69405">
        <ele>676</ele>
        <time>2015-08-05T14:08:14Z</time>
      </trkpt>
      <trkpt lat="45.88239" lon="3.69403">
        <ele>677</ele>
        <time>2015-08-05T14:08:16Z</time>
      </trkpt>
      <trkpt lat="45.88239" lon="3.69401">
        <ele>678</ele>
        <time>2015-08-05T14:08:18Z</time>
      </trkpt>
      <trkpt lat="45.88238" lon="3.69403">
        <ele>677</ele>
        <time>2015-08-05T14:08:26Z</time>
      </trkpt>
      <trkpt lat="45.88237" lon="3.69404">
        <ele>674</ele>
        <time>2015-08-05T14:08:29Z</time>
      </trkpt>
      <trkpt lat="45.88238" lon="3.694">
        <ele>673</ele>
        <time>2015-08-05T14:08:33Z</time>
      </trkpt>
      <trkpt lat="45.88238" lon="3.69398">
        <ele>673</ele>
        <time>2015-08-05T14:08:37Z</time>
      </trkpt>
      <trkpt lat="45.8824" lon="3.69397">
        <ele>672</ele>
        <time>2015-08-05T14:08:40Z</time>
      </trkpt>
      <trkpt lat="45.88241" lon="3.69396">
        <ele>670</ele>
        <time>2015-08-05T14:08:47Z</time>
      </trkpt>
      <trkpt lat="45.88242" lon="3.69395">
        <ele>669</ele>
        <time>2015-08-05T14:08:50Z</time>
      </trkpt>
      <trkpt lat="45.88247" lon="3.69396">
        <ele>668</ele>
        <time>2015-08-05T14:08:56Z</time>
      </trkpt>
      <trkpt lat="45.88245" lon="3.69396">
        <ele>668</ele>
        <time>2015-08-05T14:09:01Z</time>
      </trkpt>
      <trkpt lat="45.88243" lon="3.69396">
        <ele>668</ele>
        <time>2015-08-05T14:09:03Z</time>
      </trkpt>
      <trkpt lat="45.88238" lon="3.69397">
        <ele>668</ele>
        <time>2015-08-05T14:09:18Z</time>
      </trkpt>
      <trkpt lat="45.88236" lon="3.69399">
        <ele>668</ele>
        <time>2015-08-05T14:09:23Z</time>
      </trkpt>
      <trkpt lat="45.88231" lon="3.69401">
        <ele>665</ele>
        <time>2015-08-05T14:09:28Z</time>
      </trkpt>
      <trkpt lat="45.88227" lon="3.69404">
        <ele>663</ele>
        <time>2015-08-05T14:09:32Z</time>
      </trkpt>
      <trkpt lat="45.88223" lon="3.69405">
        <ele>660</ele>
        <time>2015-08-05T14:09:36Z</time>
      </trkpt>
      <trkpt lat="45.8822" lon="3.69408">
        <ele>656</ele>
        <time>2015-08-05T14:09:40Z</time>
      </trkpt>
      <trkpt lat="45.88211" lon="3.69408">
        <ele>652</ele>
        <time>2015-08-05T14:09:46Z</time>
      </trkpt>
      <trkpt lat="45.88206" lon="3.69411">
        <ele>652</ele>
        <time>2015-08-05T14:09:50Z</time>
      </trkpt>
      <trkpt lat="45.88197" lon="3.69415">
        <ele>649</ele>
        <time>2015-08-05T14:09:58Z</time>
      </trkpt>
      <trkpt lat="45.88187" lon="3.69416">
        <ele>645</ele>
        <time>2015-08-05T14:10:05Z</time>
      </trkpt>
      <trkpt lat="45.88177" lon="3.69416">
        <ele>643</ele>
        <time>2015-08-05T14:10:14Z</time>
      </trkpt>
      <trkpt lat="45.88174" lon="3.69418">
        <ele>642</ele>
        <time>2015-08-05T14:10:17Z</time>
      </trkpt>
      <trkpt lat="45.8817" lon="3.69416">
        <ele>641</ele>
        <time>2015-08-05T14:10:19Z</time>
      </trkpt>
      <trkpt lat="45.88168" lon="3.69417">
        <ele>641</ele>
        <time>2015-08-05T14:10:21Z</time>
      </trkpt>
      <trkpt lat="45.88155" lon="3.6942">
        <ele>639</ele>
        <time>2015-08-05T14:10:31Z</time>
      </trkpt>
      <trkpt lat="45.88147" lon="3.69419">
        <ele>637</ele>
        <time>2015-08-05T14:10:37Z</time>
      </trkpt>
      <trkpt lat="45.88141" lon="3.6942">
        <ele>636</ele>
        <time>2015-08-05T14:10:42Z</time>
      </trkpt>
      <trkpt lat="45.88136" lon="3.69421">
        <ele>635</ele>
        <time>2015-08-05T14:10:46Z</time>
      </trkpt>
      <trkpt lat="45.8813" lon="3.69421">
        <ele>634</ele>
        <time>2015-08-05T14:10:51Z</time>
      </trkpt>
      <trkpt lat="45.88125" lon="3.6942">
        <ele>634</ele>
        <time>2015-08-05T14:10:54Z</time>
      </trkpt>
      <trkpt lat="45.88122" lon="3.6942">
        <ele>633</ele>
        <time>2015-08-05T14:10:57Z</time>
      </trkpt>
      <trkpt lat="45.8812" lon="3.69422">
        <ele>633</ele>
        <time>2015-08-05T14:10:59Z</time>
      </trkpt>
      <trkpt lat="45.88117" lon="3.69423">
        <ele>633</ele>
        <time>2015-08-05T14:11:01Z</time>
      </trkpt>
      <trkpt lat="45.88111" lon="3.69423">
        <ele>633</ele>
        <time>2015-08-05T14:11:05Z</time>
      </trkpt>
      <trkpt lat="45.88108" lon="3.69424">
        <ele>632</ele>
        <time>2015-08-05T14:11:08Z</time>
      </trkpt>
      <trkpt lat="45.881" lon="3.69425">
        <ele>632</ele>
        <time>2015-08-05T14:11:13Z</time>
      </trkpt>
      <trkpt lat="45.88097" lon="3.69425">
        <ele>632</ele>
        <time>2015-08-05T14:11:15Z</time>
      </trkpt>
      <trkpt lat="45.8809" lon="3.69426">
        <ele>632</ele>
        <time>2015-08-05T14:11:21Z</time>
      </trkpt>
      <trkpt lat="45.88083" lon="3.69426">
        <ele>632</ele>
        <time>2015-08-05T14:11:26Z</time>
      </trkpt>
      <trkpt lat="45.8807" lon="3.6943">
        <ele>628</ele>
        <time>2015-08-05T14:11:37Z</time>
      </trkpt>
      <trkpt lat="45.88067" lon="3.69431">
        <ele>627</ele>
        <time>2015-08-05T14:11:40Z</time>
      </trkpt>
      <trkpt lat="45.88058" lon="3.69434">
        <ele>625</ele>
        <time>2015-08-05T14:11:47Z</time>
      </trkpt>
      <trkpt lat="45.88055" lon="3.69433">
        <ele>625</ele>
        <time>2015-08-05T14:11:49Z</time>
      </trkpt>
      <trkpt lat="45.8805" lon="3.69433">
        <ele>625</ele>
        <time>2015-08-05T14:11:54Z</time>
      </trkpt>
      <trkpt lat="45.88045" lon="3.69433">
        <ele>623</ele>
        <time>2015-08-05T14:11:59Z</time>
      </trkpt>
      <trkpt lat="45.88039" lon="3.6943">
        <ele>623</ele>
        <time>2015-08-05T14:12:03Z</time>
      </trkpt>
      <trkpt lat="45.88031" lon="3.69427">
        <ele>623</ele>
        <time>2015-08-05T14:12:09Z</time>
      </trkpt>
      <trkpt lat="45.88028" lon="3.69425">
        <ele>623</ele>
        <time>2015-08-05T14:12:12Z</time>
      </trkpt>
      <trkpt lat="45.88027" lon="3.69424">
        <ele>623</ele>
        <time>2015-08-05T14:12:16Z</time>
      </trkpt>
      <trkpt lat="45.88025" lon="3.69423">
        <ele>623</ele>
        <time>2015-08-05T14:12:23Z</time>
      </trkpt>
      <trkpt lat="45.88023" lon="3.69422">
        <ele>623</ele>
        <time>2015-08-05T14:12:25Z</time>
      </trkpt>
      <trkpt lat="45.88021" lon="3.69423">
        <ele>623</ele>
        <time>2015-08-05T14:12:27Z</time>
      </trkpt>
      <trkpt lat="45.88013" lon="3.69422">
        <ele>623</ele>
        <time>2015-08-05T14:12:34Z</time>
      </trkpt>
      <trkpt lat="45.88012" lon="3.69421">
        <ele>623</ele>
        <time>2015-08-05T14:12:36Z</time>
      </trkpt>
      <trkpt lat="45.88008" lon="3.6942">
        <ele>623</ele>
        <time>2015-08-05T14:12:40Z</time>
      </trkpt>
      <trkpt lat="45.88005" lon="3.6942">
        <ele>623</ele>
        <time>2015-08-05T14:12:42Z</time>
      </trkpt>
      <trkpt lat="45.87997" lon="3.69419">
        <ele>619</ele>
        <time>2015-08-05T14:12:49Z</time>
      </trkpt>
      <trkpt lat="45.87991" lon="3.69416">
        <ele>617</ele>
        <time>2015-08-05T14:12:54Z</time>
      </trkpt>
      <trkpt lat="45.87984" lon="3.69414">
        <ele>615</ele>
        <time>2015-08-05T14:13:00Z</time>
      </trkpt>
      <trkpt lat="45.8798" lon="3.69411">
        <ele>614</ele>
        <time>2015-08-05T14:13:03Z</time>
      </trkpt>
      <trkpt lat="45.87976" lon="3.69411">
        <ele>613</ele>
        <time>2015-08-05T14:13:06Z</time>
      </trkpt>
      <trkpt lat="45.87974" lon="3.69412">
        <ele>612</ele>
        <time>2015-08-05T14:13:08Z</time>
      </trkpt>
      <trkpt lat="45.87958" lon="3.69408">
        <ele>612</ele>
        <time>2015-08-05T14:13:21Z</time>
      </trkpt>
      <trkpt lat="45.87953" lon="3.69407">
        <ele>611</ele>
        <time>2015-08-05T14:13:25Z</time>
      </trkpt>
      <trkpt lat="45.87943" lon="3.69401">
        <ele>611</ele>
        <time>2015-08-05T14:13:33Z</time>
      </trkpt>
      <trkpt lat="45.87939" lon="3.69406">
        <ele>611</ele>
        <time>2015-08-05T14:13:39Z</time>
      </trkpt>
      <trkpt lat="45.87937" lon="3.69411">
        <ele>611</ele>
        <time>2015-08-05T14:13:43Z</time>
      </trkpt>
      <trkpt lat="45.87937" lon="3.69413">
        <ele>611</ele>
        <time>2015-08-05T14:13:45Z</time>
      </trkpt>
      <trkpt lat="45.87937" lon="3.69415">
        <ele>611</ele>
        <time>2015-08-05T14:13:47Z</time>
      </trkpt>
      <trkpt lat="45.87936" lon="3.69415">
        <ele>611</ele>
        <time>2015-08-05T14:13:51Z</time>
      </trkpt>
      <trkpt lat="45.87933" lon="3.69414">
        <ele>611</ele>
        <time>2015-08-05T14:13:54Z</time>
      </trkpt>
      <trkpt lat="45.8793" lon="3.69412">
        <ele>611</ele>
        <time>2015-08-05T14:13:58Z</time>
      </trkpt>
      <trkpt lat="45.87927" lon="3.69408">
        <ele>611</ele>
        <time>2015-08-05T14:14:02Z</time>
      </trkpt>
      <trkpt lat="45.8792" lon="3.69406">
        <ele>612</ele>
        <time>2015-08-05T14:14:13Z</time>
      </trkpt>
      <trkpt lat="45.87919" lon="3.69406">
        <ele>613</ele>
        <time>2015-08-05T14:14:15Z</time>
      </trkpt>
      <trkpt lat="45.8792" lon="3.69408">
        <ele>616</ele>
        <time>2015-08-05T14:14:25Z</time>
      </trkpt>
      <trkpt lat="45.8792" lon="3.69409">
        <ele>618</ele>
        <time>2015-08-05T14:14:29Z</time>
      </trkpt>
      <trkpt lat="45.87918" lon="3.69409">
        <ele>618</ele>
        <time>2015-08-05T14:14:32Z</time>
      </trkpt>
      <trkpt lat="45.87917" lon="3.69409">
        <ele>619</ele>
        <time>2015-08-05T14:14:35Z</time>
      </trkpt>
      <trkpt lat="45.87915" lon="3.69412">
        <ele>622</ele>
        <time>2015-08-05T14:14:48Z</time>
      </trkpt>
      <trkpt lat="45.87914" lon="3.69413">
        <ele>622</ele>
        <time>2015-08-05T14:14:52Z</time>
      </trkpt>
      <trkpt lat="45.87916" lon="3.69412">
        <ele>622</ele>
        <time>2015-08-05T14:14:57Z</time>
      </trkpt>
      <trkpt lat="45.87917" lon="3.6941">
        <ele>623</ele>
        <time>2015-08-05T14:15:03Z</time>
      </trkpt>
      <trkpt lat="45.87918" lon="3.6941">
        <ele>623</ele>
        <time>2015-08-05T14:15:06Z</time>
      </trkpt>
      <trkpt lat="45.8792" lon="3.69412">
        <ele>623</ele>
        <time>2015-08-05T14:15:14Z</time>
      </trkpt>
      <trkpt lat="45.8792" lon="3.69414">
        <ele>623</ele>
        <time>2015-08-05T14:15:17Z</time>
      </trkpt>
      <trkpt lat="45.87922" lon="3.69412">
        <ele>621</ele>
        <time>2015-08-05T14:15:34Z</time>
      </trkpt>
      <trkpt lat="45.87921" lon="3.69409">
        <ele>621</ele>
        <time>2015-08-05T14:15:47Z</time>
      </trkpt>
      <trkpt lat="45.8792" lon="3.69413">
        <ele>621</ele>
        <time>2015-08-05T14:16:01Z</time>
      </trkpt>
      <trkpt lat="45.87917" lon="3.69412">
        <ele>621</ele>
        <time>2015-08-05T14:16:04Z</time>
      </trkpt>
      <trkpt lat="45.87916" lon="3.69413">
        <ele>621</ele>
        <time>2015-08-05T14:16:06Z</time>
      </trkpt>
      <trkpt lat="45.87916" lon="3.69415">
        <ele>621</ele>
        <time>2015-08-05T14:16:11Z</time>
      </trkpt>
      <trkpt lat="45.87918" lon="3.69416">
        <ele>621</ele>
        <time>2015-08-05T14:16:16Z</time>
      </trkpt>
      <trkpt lat="45.87919" lon="3.69418">
        <ele>620</ele>
        <time>2015-08-05T14:16:24Z</time>
      </trkpt>
      <trkpt lat="45.87919" lon="3.69415">
        <ele>619</ele>
        <time>2015-08-05T14:16:32Z</time>
      </trkpt>
      <trkpt lat="45.87921" lon="3.69411">
        <ele>619</ele>
        <time>2015-08-05T14:16:36Z</time>
      </trkpt>
      <trkpt lat="45.87923" lon="3.69409">
        <ele>621</ele>
        <time>2015-08-05T14:16:40Z</time>
      </trkpt>
      <trkpt lat="45.87922" lon="3.69407">
        <ele>623</ele>
        <time>2015-08-05T14:16:44Z</time>
      </trkpt>
      <trkpt lat="45.8792" lon="3.69405">
        <ele>623</ele>
        <time>2015-08-05T14:16:46Z</time>
      </trkpt>
      <trkpt lat="45.87919" lon="3.69405">
        <ele>623</ele>
        <time>2015-08-05T14:16:49Z</time>
      </trkpt>
      <trkpt lat="45.87918" lon="3.69406">
        <ele>623</ele>
        <time>2015-08-05T14:16:59Z</time>
      </trkpt>
      <trkpt lat="45.87917" lon="3.69407">
        <ele>623</ele>
        <time>2015-08-05T14:17:03Z</time>
      </trkpt>
      <trkpt lat="45.87919" lon="3.69407">
        <ele>623</ele>
        <time>2015-08-05T14:17:07Z</time>
      </trkpt>
      <trkpt lat="45.8792" lon="3.6941">
        <ele>623</ele>
        <time>2015-08-05T14:17:20Z</time>
      </trkpt>
      <trkpt lat="45.87917" lon="3.6941">
        <ele>623</ele>
        <time>2015-08-05T14:17:24Z</time>
      </trkpt>
      <trkpt lat="45.87916" lon="3.69412">
        <ele>623</ele>
        <time>2015-08-05T14:17:28Z</time>
      </trkpt>
      <trkpt lat="45.87917" lon="3.69414">
        <ele>622</ele>
        <time>2015-08-05T14:17:49Z</time>
      </trkpt>
      <trkpt lat="45.87917" lon="3.69412">
        <ele>621</ele>
        <time>2015-08-05T14:18:07Z</time>
      </trkpt>
      <trkpt lat="45.87916" lon="3.69409">
        <ele>623</ele>
        <time>2015-08-05T14:18:13Z</time>
      </trkpt>
      <trkpt lat="45.87915" lon="3.69408">
        <ele>623</ele>
        <time>2015-08-05T14:18:25Z</time>
      </trkpt>
      <trkpt lat="45.87914" lon="3.69407">
        <ele>623</ele>
        <time>2015-08-05T14:18:31Z</time>
      </trkpt>
      <trkpt lat="45.87914" lon="3.69408">
        <ele>623</ele>
        <time>2015-08-05T14:18:36Z</time>
      </trkpt>
      <trkpt lat="45.87915" lon="3.6941">
        <ele>623</ele>
        <time>2015-08-05T14:18:38Z</time>
      </trkpt>
      <trkpt lat="45.87915" lon="3.69412">
        <ele>623</ele>
        <time>2015-08-05T14:18:42Z</time>
      </trkpt>
      <trkpt lat="45.87914" lon="3.69411">
        <ele>623</ele>
        <time>2015-08-05T14:18:46Z</time>
      </trkpt>
      <trkpt lat="45.87913" lon="3.69408">
        <ele>623</ele>
        <time>2015-08-05T14:19:00Z</time>
      </trkpt>
      <trkpt lat="45.87915" lon="3.69409">
        <ele>623</ele>
        <time>2015-08-05T14:19:09Z</time>
      </trkpt>
      <trkpt lat="45.87915" lon="3.6941">
        <ele>623</ele>
        <time>2015-08-05T14:19:13Z</time>
      </trkpt>
      <trkpt lat="45.87919" lon="3.69412">
        <ele>623</ele>
        <time>2015-08-05T14:19:20Z</time>
      </trkpt>
      <trkpt lat="45.8792" lon="3.69411">
        <ele>623</ele>
        <time>2015-08-05T14:19:31Z</time>
      </trkpt>
      <trkpt lat="45.87917" lon="3.6941">
        <ele>623</ele>
        <time>2015-08-05T14:19:45Z</time>
      </trkpt>
      <trkpt lat="45.87917" lon="3.69409">
        <ele>622</ele>
        <time>2015-08-05T14:20:41Z</time>
      </trkpt>
      <trkpt lat="45.87917" lon="3.69407">
        <ele>622</ele>
        <time>2015-08-05T14:20:51Z</time>
      </trkpt>
      <trkpt lat="45.87917" lon="3.69403">
        <ele>622</ele>
        <time>2015-08-05T14:20:57Z</time>
      </trkpt>
      <trkpt lat="45.87915" lon="3.69403">
        <ele>627</ele>
        <time>2015-08-05T14:21:08Z</time>
      </trkpt>
      <trkpt lat="45.87914" lon="3.69405">
        <ele>635</ele>
        <time>2015-08-05T14:21:18Z</time>
      </trkpt>
      <trkpt lat="45.87914" lon="3.69408">
        <ele>636</ele>
        <time>2015-08-05T14:21:22Z</time>
      </trkpt>
      <trkpt lat="45.87912" lon="3.69408">
        <ele>636</ele>
        <time>2015-08-05T14:21:28Z</time>
      </trkpt>
      <trkpt lat="45.87911" lon="3.69407">
        <ele>636</ele>
        <time>2015-08-05T14:21:33Z</time>
      </trkpt>
      <trkpt lat="45.87909" lon="3.69409">
        <ele>635</ele>
        <time>2015-08-05T14:21:36Z</time>
      </trkpt>
      <trkpt lat="45.87908" lon="3.6941">
        <ele>635</ele>
        <time>2015-08-05T14:21:38Z</time>
      </trkpt>
      <trkpt lat="45.87908" lon="3.69412">
        <ele>633</ele>
        <time>2015-08-05T14:21:41Z</time>
      </trkpt>
      <trkpt lat="45.87907" lon="3.69414">
        <ele>631</ele>
        <time>2015-08-05T14:21:43Z</time>
      </trkpt>
      <trkpt lat="45.87904" lon="3.69416">
        <ele>629</ele>
        <time>2015-08-05T14:21:46Z</time>
      </trkpt>
      <trkpt lat="45.87902" lon="3.69419">
        <ele>629</ele>
        <time>2015-08-05T14:21:49Z</time>
      </trkpt>
      <trkpt lat="45.87891" lon="3.69425">
        <ele>627</ele>
        <time>2015-08-05T14:21:58Z</time>
      </trkpt>
      <trkpt lat="45.87885" lon="3.69429">
        <ele>627</ele>
        <time>2015-08-05T14:22:03Z</time>
      </trkpt>
      <trkpt lat="45.8788" lon="3.69435">
        <ele>626</ele>
        <time>2015-08-05T14:22:08Z</time>
      </trkpt>
      <trkpt lat="45.87878" lon="3.69438">
        <ele>625</ele>
        <time>2015-08-05T14:22:11Z</time>
      </trkpt>
      <trkpt lat="45.87876" lon="3.69437">
        <ele>624</ele>
        <time>2015-08-05T14:22:13Z</time>
      </trkpt>
      <trkpt lat="45.87875" lon="3.69435">
        <ele>624</ele>
        <time>2015-08-05T14:22:15Z</time>
      </trkpt>
      <trkpt lat="45.87875" lon="3.69433">
        <ele>623</ele>
        <time>2015-08-05T14:22:17Z</time>
      </trkpt>
      <trkpt lat="45.87883" lon="3.69429">
        <ele>621</ele>
        <time>2015-08-05T14:22:23Z</time>
      </trkpt>
      <trkpt lat="45.87889" lon="3.69425">
        <ele>621</ele>
        <time>2015-08-05T14:22:29Z</time>
      </trkpt>
      <trkpt lat="45.8789" lon="3.69425">
        <ele>621</ele>
        <time>2015-08-05T14:22:37Z</time>
      </trkpt>
      <trkpt lat="45.87889" lon="3.69427">
        <ele>620</ele>
        <time>2015-08-05T14:22:43Z</time>
      </trkpt>
      <trkpt lat="45.87888" lon="3.69428">
        <ele>616</ele>
        <time>2015-08-05T14:22:49Z</time>
      </trkpt>
      <trkpt lat="45.87886" lon="3.69429">
        <ele>616</ele>
        <time>2015-08-05T14:22:51Z</time>
      </trkpt>
      <trkpt lat="45.87883" lon="3.69431">
        <ele>616</ele>
        <time>2015-08-05T14:22:54Z</time>
      </trkpt>
      <trkpt lat="45.87879" lon="3.69433">
        <ele>615</ele>
        <time>2015-08-05T14:22:58Z</time>
      </trkpt>
      <trkpt lat="45.87875" lon="3.69436">
        <ele>615</ele>
        <time>2015-08-05T14:23:01Z</time>
      </trkpt>
      <trkpt lat="45.87873" lon="3.69436">
        <ele>615</ele>
        <time>2015-08-05T14:23:04Z</time>
      </trkpt>
      <trkpt lat="45.87862" lon="3.69443">
        <ele>615</ele>
        <time>2015-08-05T14:23:13Z</time>
      </trkpt>
      <trkpt lat="45.87858" lon="3.69445">
        <ele>615</ele>
        <time>2015-08-05T14:23:16Z</time>
      </trkpt>
      <trkpt lat="45.87856" lon="3.69447">
        <ele>615</ele>
        <time>2015-08-05T14:23:18Z</time>
      </trkpt>
      <trkpt lat="45.87853" lon="3.69449">
        <ele>615</ele>
        <time>2015-08-05T14:23:21Z</time>
      </trkpt>
      <trkpt lat="45.8785" lon="3.6945">
        <ele>615</ele>
        <time>2015-08-05T14:23:24Z</time>
      </trkpt>
      <trkpt lat="45.87848" lon="3.6945">
        <ele>615</ele>
        <time>2015-08-05T14:23:26Z</time>
      </trkpt>
      <trkpt lat="45.87843" lon="3.69448">
        <ele>615</ele>
        <time>2015-08-05T14:23:32Z</time>
      </trkpt>
      <trkpt lat="45.87841" lon="3.69441">
        <ele>615</ele>
        <time>2015-08-05T14:23:38Z</time>
      </trkpt>
      <trkpt lat="45.87839" lon="3.69441">
        <ele>615</ele>
        <time>2015-08-05T14:23:42Z</time>
      </trkpt>
      <trkpt lat="45.87838" lon="3.69427">
        <ele>615</ele>
        <time>2015-08-05T14:23:51Z</time>
      </trkpt>
      <trkpt lat="45.87832" lon="3.69408">
        <ele>616</ele>
        <time>2015-08-05T14:24:01Z</time>
      </trkpt>
      <trkpt lat="45.87827" lon="3.69394">
        <ele>617</ele>
        <time>2015-08-05T14:24:08Z</time>
      </trkpt>
      <trkpt lat="45.8782" lon="3.69384">
        <ele>617</ele>
        <time>2015-08-05T14:24:15Z</time>
      </trkpt>
      <trkpt lat="45.87809" lon="3.69372">
        <ele>617</ele>
        <time>2015-08-05T14:24:25Z</time>
      </trkpt>
      <trkpt lat="45.87809" lon="3.69368">
        <ele>617</ele>
        <time>2015-08-05T14:24:28Z</time>
      </trkpt>
      <trkpt lat="45.87807" lon="3.69364">
        <ele>617</ele>
        <time>2015-08-05T14:24:31Z</time>
      </trkpt>
      <trkpt lat="45.87804" lon="3.69362">
        <ele>617</ele>
        <time>2015-08-05T14:24:33Z</time>
      </trkpt>
      <trkpt lat="45.87797" lon="3.69359">
        <ele>617</ele>
        <time>2015-08-05T14:24:38Z</time>
      </trkpt>
      <trkpt lat="45.8779" lon="3.69353">
        <ele>617</ele>
        <time>2015-08-05T14:24:45Z</time>
      </trkpt>
      <trkpt lat="45.87783" lon="3.69346">
        <ele>617</ele>
        <time>2015-08-05T14:24:51Z</time>
      </trkpt>
      <trkpt lat="45.87775" lon="3.69335">
        <ele>616</ele>
        <time>2015-08-05T14:24:59Z</time>
      </trkpt>
      <trkpt lat="45.87766" lon="3.6932">
        <ele>615</ele>
        <time>2015-08-05T14:25:09Z</time>
      </trkpt>
      <trkpt lat="45.87763" lon="3.69314">
        <ele>615</ele>
        <time>2015-08-05T14:25:12Z</time>
      </trkpt>
      <trkpt lat="45.87758" lon="3.69304">
        <ele>615</ele>
        <time>2015-08-05T14:25:17Z</time>
      </trkpt>
      <trkpt lat="45.87751" lon="3.69293">
        <ele>615</ele>
        <time>2015-08-05T14:25:24Z</time>
      </trkpt>
      <trkpt lat="45.87749" lon="3.69288">
        <ele>615</ele>
        <time>2015-08-05T14:25:27Z</time>
      </trkpt>
      <trkpt lat="45.87747" lon="3.69285">
        <ele>615</ele>
        <time>2015-08-05T14:25:29Z</time>
      </trkpt>
      <trkpt lat="45.87745" lon="3.69282">
        <ele>615</ele>
        <time>2015-08-05T14:25:31Z</time>
      </trkpt>
      <trkpt lat="45.87738" lon="3.6927">
        <ele>615</ele>
        <time>2015-08-05T14:25:38Z</time>
      </trkpt>
      <trkpt lat="45.87724" lon="3.69248">
        <ele>617</ele>
        <time>2015-08-05T14:25:51Z</time>
      </trkpt>
      <trkpt lat="45.87722" lon="3.69244">
        <ele>618</ele>
        <time>2015-08-05T14:25:53Z</time>
      </trkpt>
      <trkpt lat="45.8772" lon="3.6924">
        <ele>619</ele>
        <time>2015-08-05T14:25:55Z</time>
      </trkpt>
      <trkpt lat="45.87707" lon="3.69218">
        <ele>629</ele>
        <time>2015-08-05T14:26:05Z</time>
      </trkpt>
      <trkpt lat="45.87705" lon="3.69215">
        <ele>632</ele>
        <time>2015-08-05T14:26:08Z</time>
      </trkpt>
      <trkpt lat="45.87705" lon="3.69212">
        <ele>634</ele>
        <time>2015-08-05T14:26:11Z</time>
      </trkpt>
      <trkpt lat="45.87707" lon="3.6921">
        <ele>634</ele>
        <time>2015-08-05T14:26:13Z</time>
      </trkpt>
      <trkpt lat="45.87711" lon="3.69207">
        <ele>634</ele>
        <time>2015-08-05T14:26:17Z</time>
      </trkpt>
      <trkpt lat="45.87714" lon="3.69205">
        <ele>632</ele>
        <time>2015-08-05T14:26:19Z</time>
      </trkpt>
      <trkpt lat="45.87715" lon="3.69202">
        <ele>630</ele>
        <time>2015-08-05T14:26:21Z</time>
      </trkpt>
      <trkpt lat="45.87717" lon="3.69199">
        <ele>628</ele>
        <time>2015-08-05T14:26:23Z</time>
      </trkpt>
      <trkpt lat="45.87719" lon="3.69197">
        <ele>627</ele>
        <time>2015-08-05T14:26:25Z</time>
      </trkpt>
      <trkpt lat="45.87721" lon="3.69193">
        <ele>626</ele>
        <time>2015-08-05T14:26:28Z</time>
      </trkpt>
      <trkpt lat="45.87724" lon="3.69183">
        <ele>626</ele>
        <time>2015-08-05T14:26:33Z</time>
      </trkpt>
      <trkpt lat="45.87725" lon="3.6918">
        <ele>626</ele>
        <time>2015-08-05T14:26:35Z</time>
      </trkpt>
      <trkpt lat="45.87725" lon="3.69177">
        <ele>626</ele>
        <time>2015-08-05T14:26:37Z</time>
      </trkpt>
      <trkpt lat="45.87725" lon="3.69173">
        <ele>626</ele>
        <time>2015-08-05T14:26:39Z</time>
      </trkpt>
      <trkpt lat="45.87729" lon="3.6917">
        <ele>626</ele>
        <time>2015-08-05T14:26:42Z</time>
      </trkpt>
      <trkpt lat="45.87731" lon="3.69164">
        <ele>624</ele>
        <time>2015-08-05T14:26:46Z</time>
      </trkpt>
      <trkpt lat="45.87733" lon="3.69154">
        <ele>623</ele>
        <time>2015-08-05T14:26:52Z</time>
      </trkpt>
      <trkpt lat="45.87732" lon="3.69149">
        <ele>623</ele>
        <time>2015-08-05T14:26:54Z</time>
      </trkpt>
      <trkpt lat="45.87732" lon="3.69145">
        <ele>623</ele>
        <time>2015-08-05T14:26:56Z</time>
      </trkpt>
      <trkpt lat="45.87728" lon="3.69135">
        <ele>623</ele>
        <time>2015-08-05T14:27:01Z</time>
      </trkpt>
      <trkpt lat="45.87729" lon="3.69129">
        <ele>623</ele>
        <time>2015-08-05T14:27:04Z</time>
      </trkpt>
      <trkpt lat="45.8773" lon="3.69126">
        <ele>623</ele>
        <time>2015-08-05T14:27:06Z</time>
      </trkpt>
      <trkpt lat="45.8773" lon="3.6912">
        <ele>623</ele>
        <time>2015-08-05T14:27:09Z</time>
      </trkpt>
      <trkpt lat="45.8773" lon="3.69102">
        <ele>623</ele>
        <time>2015-08-05T14:27:19Z</time>
      </trkpt>
      <trkpt lat="45.87729" lon="3.69098">
        <ele>622</ele>
        <time>2015-08-05T14:27:21Z</time>
      </trkpt>
      <trkpt lat="45.87728" lon="3.69093">
        <ele>622</ele>
        <time>2015-08-05T14:27:24Z</time>
      </trkpt>
      <trkpt lat="45.87727" lon="3.69087">
        <ele>622</ele>
        <time>2015-08-05T14:27:27Z</time>
      </trkpt>
      <trkpt lat="45.87724" lon="3.69076">
        <ele>621</ele>
        <time>2015-08-05T14:27:32Z</time>
      </trkpt>
      <trkpt lat="45.87721" lon="3.6906">
        <ele>619</ele>
        <time>2015-08-05T14:27:40Z</time>
      </trkpt>
      <trkpt lat="45.87719" lon="3.69054">
        <ele>618</ele>
        <time>2015-08-05T14:27:43Z</time>
      </trkpt>
      <trkpt lat="45.8772" lon="3.6905">
        <ele>618</ele>
        <time>2015-08-05T14:27:45Z</time>
      </trkpt>
      <trkpt lat="45.87719" lon="3.69044">
        <ele>618</ele>
        <time>2015-08-05T14:27:48Z</time>
      </trkpt>
      <trkpt lat="45.87717" lon="3.69037">
        <ele>617</ele>
        <time>2015-08-05T14:27:52Z</time>
      </trkpt>
      <trkpt lat="45.87717" lon="3.6903">
        <ele>614</ele>
        <time>2015-08-05T14:27:56Z</time>
      </trkpt>
      <trkpt lat="45.87716" lon="3.69024">
        <ele>614</ele>
        <time>2015-08-05T14:27:58Z</time>
      </trkpt>
      <trkpt lat="45.87713" lon="3.69019">
        <ele>614</ele>
        <time>2015-08-05T14:28:01Z</time>
      </trkpt>
      <trkpt lat="45.8771" lon="3.69016">
        <ele>614</ele>
        <time>2015-08-05T14:28:03Z</time>
      </trkpt>
      <trkpt lat="45.87709" lon="3.69013">
        <ele>614</ele>
        <time>2015-08-05T14:28:05Z</time>
      </trkpt>
      <trkpt lat="45.87705" lon="3.69008">
        <ele>614</ele>
        <time>2015-08-05T14:28:08Z</time>
      </trkpt>
      <trkpt lat="45.87701" lon="3.69004">
        <ele>614</ele>
        <time>2015-08-05T14:28:14Z</time>
      </trkpt>
      <trkpt lat="45.87701" lon="3.69002">
        <ele>614</ele>
        <time>2015-08-05T14:28:19Z</time>
      </trkpt>
      <trkpt lat="45.87702" lon="3.69003">
        <ele>614</ele>
        <time>2015-08-05T14:28:31Z</time>
      </trkpt>
      <trkpt lat="45.87701" lon="3.69002">
        <ele>614</ele>
        <time>2015-08-05T14:28:38Z</time>
      </trkpt>
      <trkpt lat="45.877" lon="3.69002">
        <ele>614</ele>
        <time>2015-08-05T14:28:40Z</time>
      </trkpt>
      <trkpt lat="45.877" lon="3.69004">
        <ele>614</ele>
        <time>2015-08-05T14:28:47Z</time>
      </trkpt>
      <trkpt lat="45.877" lon="3.69001">
        <ele>615</ele>
        <time>2015-08-05T14:28:52Z</time>
      </trkpt>
      <trkpt lat="45.87624" lon="3.69024">
        <ele>616</ele>
        <time>2015-08-05T14:29:34Z</time>
      </trkpt>
      <trkpt lat="45.87623" lon="3.69017">
        <ele>618</ele>
        <time>2015-08-05T14:29:37Z</time>
      </trkpt>
      <trkpt lat="45.87624" lon="3.69009">
        <ele>622</ele>
        <time>2015-08-05T14:29:40Z</time>
      </trkpt>
      <trkpt lat="45.87627" lon="3.69008">
        <ele>626</ele>
        <time>2015-08-05T14:29:42Z</time>
      </trkpt>
      <trkpt lat="45.87632" lon="3.6901">
        <ele>630</ele>
        <time>2015-08-05T14:29:46Z</time>
      </trkpt>
      <trkpt lat="45.87633" lon="3.69003">
        <ele>632</ele>
        <time>2015-08-05T14:29:52Z</time>
      </trkpt>
      <trkpt lat="45.87634" lon="3.69002">
        <ele>633</ele>
        <time>2015-08-05T14:29:57Z</time>
      </trkpt>
      <trkpt lat="45.87632" lon="3.69001">
        <ele>633</ele>
        <time>2015-08-05T14:30:07Z</time>
      </trkpt>
      <trkpt lat="45.87631" lon="3.68999">
        <ele>633</ele>
        <time>2015-08-05T14:30:12Z</time>
      </trkpt>
      <trkpt lat="45.87632" lon="3.68996">
        <ele>633</ele>
        <time>2015-08-05T14:30:15Z</time>
      </trkpt>
      <trkpt lat="45.87635" lon="3.68993">
        <ele>633</ele>
        <time>2015-08-05T14:30:19Z</time>
      </trkpt>
      <trkpt lat="45.87635" lon="3.6899">
        <ele>633</ele>
        <time>2015-08-05T14:30:21Z</time>
      </trkpt>
      <trkpt lat="45.87637" lon="3.68984">
        <ele>633</ele>
        <time>2015-08-05T14:30:26Z</time>
      </trkpt>
      <trkpt lat="45.87638" lon="3.68981">
        <ele>633</ele>
        <time>2015-08-05T14:30:28Z</time>
      </trkpt>
      <trkpt lat="45.87638" lon="3.68979">
        <ele>633</ele>
        <time>2015-08-05T14:30:30Z</time>
      </trkpt>
      <trkpt lat="45.87639" lon="3.6898">
        <ele>633</ele>
        <time>2015-08-05T14:30:37Z</time>
      </trkpt>
      <trkpt lat="45.87635" lon="3.68976">
        <ele>635</ele>
        <time>2015-08-05T14:30:46Z</time>
      </trkpt>
      <trkpt lat="45.87632" lon="3.68972">
        <ele>638</ele>
        <time>2015-08-05T14:30:51Z</time>
      </trkpt>
      <trkpt lat="45.87632" lon="3.6897">
        <ele>641</ele>
        <time>2015-08-05T14:30:57Z</time>
      </trkpt>
      <trkpt lat="45.87633" lon="3.68969">
        <ele>641</ele>
        <time>2015-08-05T14:31:00Z</time>
      </trkpt>
      <trkpt lat="45.87635" lon="3.68964">
        <ele>641</ele>
        <time>2015-08-05T14:31:04Z</time>
      </trkpt>
      <trkpt lat="45.87638" lon="3.68953">
        <ele>641</ele>
        <time>2015-08-05T14:31:12Z</time>
      </trkpt>
      <trkpt lat="45.87641" lon="3.68948">
        <ele>640</ele>
        <time>2015-08-05T14:31:16Z</time>
      </trkpt>
      <trkpt lat="45.87643" lon="3.68945">
        <ele>640</ele>
        <time>2015-08-05T14:31:18Z</time>
      </trkpt>
      <trkpt lat="45.87644" lon="3.68941">
        <ele>640</ele>
        <time>2015-08-05T14:31:21Z</time>
      </trkpt>
      <trkpt lat="45.87645" lon="3.68938">
        <ele>639</ele>
        <time>2015-08-05T14:31:23Z</time>
      </trkpt>
      <trkpt lat="45.87646" lon="3.68931">
        <ele>637</ele>
        <time>2015-08-05T14:31:28Z</time>
      </trkpt>
      <trkpt lat="45.87647" lon="3.68924">
        <ele>635</ele>
        <time>2015-08-05T14:31:33Z</time>
      </trkpt>
      <trkpt lat="45.87645" lon="3.68916">
        <ele>635</ele>
        <time>2015-08-05T14:31:37Z</time>
      </trkpt>
      <trkpt lat="45.87644" lon="3.68906">
        <ele>634</ele>
        <time>2015-08-05T14:31:42Z</time>
      </trkpt>
      <trkpt lat="45.87644" lon="3.68902">
        <ele>634</ele>
        <time>2015-08-05T14:31:44Z</time>
      </trkpt>
      <trkpt lat="45.87644" lon="3.68898">
        <ele>634</ele>
        <time>2015-08-05T14:31:46Z</time>
      </trkpt>
      <trkpt lat="45.87643" lon="3.68892">
        <ele>634</ele>
        <time>2015-08-05T14:31:49Z</time>
      </trkpt>
      <trkpt lat="45.87641" lon="3.68889">
        <ele>634</ele>
        <time>2015-08-05T14:31:51Z</time>
      </trkpt>
      <trkpt lat="45.87635" lon="3.68883">
        <ele>634</ele>
        <time>2015-08-05T14:31:55Z</time>
      </trkpt>
      <trkpt lat="45.87632" lon="3.68882">
        <ele>634</ele>
        <time>2015-08-05T14:31:57Z</time>
      </trkpt>
      <trkpt lat="45.87616" lon="3.68869">
        <ele>634</ele>
        <time>2015-08-05T14:32:10Z</time>
      </trkpt>
      <trkpt lat="45.87614" lon="3.68869">
        <ele>634</ele>
        <time>2015-08-05T14:32:12Z</time>
      </trkpt>
      <trkpt lat="45.87613" lon="3.68868">
        <ele>634</ele>
        <time>2015-08-05T14:32:14Z</time>
      </trkpt>
      <trkpt lat="45.87611" lon="3.68867">
        <ele>633</ele>
        <time>2015-08-05T14:32:16Z</time>
      </trkpt>
      <trkpt lat="45.8761" lon="3.68866">
        <ele>633</ele>
        <time>2015-08-05T14:32:18Z</time>
      </trkpt>
      <trkpt lat="45.87608" lon="3.68864">
        <ele>633</ele>
        <time>2015-08-05T14:32:21Z</time>
      </trkpt>
      <trkpt lat="45.87605" lon="3.68859">
        <ele>633</ele>
        <time>2015-08-05T14:32:23Z</time>
      </trkpt>
      <trkpt lat="45.87605" lon="3.68855">
        <ele>633</ele>
        <time>2015-08-05T14:32:26Z</time>
      </trkpt>
      <trkpt lat="45.87603" lon="3.68846">
        <ele>633</ele>
        <time>2015-08-05T14:32:30Z</time>
      </trkpt>
      <trkpt lat="45.87602" lon="3.68843">
        <ele>633</ele>
        <time>2015-08-05T14:32:33Z</time>
      </trkpt>
      <trkpt lat="45.87602" lon="3.6884">
        <ele>633</ele>
        <time>2015-08-05T14:32:38Z</time>
      </trkpt>
      <trkpt lat="45.87605" lon="3.68826">
        <ele>633</ele>
        <time>2015-08-05T14:32:48Z</time>
      </trkpt>
      <trkpt lat="45.87604" lon="3.68823">
        <ele>633</ele>
        <time>2015-08-05T14:32:50Z</time>
      </trkpt>
      <trkpt lat="45.87604" lon="3.68818">
        <ele>633</ele>
        <time>2015-08-05T14:32:53Z</time>
      </trkpt>
      <trkpt lat="45.87607" lon="3.68811">
        <ele>633</ele>
        <time>2015-08-05T14:32:58Z</time>
      </trkpt>
      <trkpt lat="45.8761" lon="3.68807">
        <ele>633</ele>
        <time>2015-08-05T14:33:01Z</time>
      </trkpt>
      <trkpt lat="45.87614" lon="3.68804">
        <ele>633</ele>
        <time>2015-08-05T14:33:06Z</time>
      </trkpt>
      <trkpt lat="45.87616" lon="3.68802">
        <ele>633</ele>
        <time>2015-08-05T14:33:08Z</time>
      </trkpt>
      <trkpt lat="45.87621" lon="3.68798">
        <ele>634</ele>
        <time>2015-08-05T14:33:12Z</time>
      </trkpt>
      <trkpt lat="45.87623" lon="3.68795">
        <ele>635</ele>
        <time>2015-08-05T14:33:14Z</time>
      </trkpt>
      <trkpt lat="45.87624" lon="3.68792">
        <ele>635</ele>
        <time>2015-08-05T14:33:17Z</time>
      </trkpt>
      <trkpt lat="45.87624" lon="3.68788">
        <ele>635</ele>
        <time>2015-08-05T14:33:19Z</time>
      </trkpt>
      <trkpt lat="45.87623" lon="3.68784">
        <ele>635</ele>
        <time>2015-08-05T14:33:21Z</time>
      </trkpt>
      <trkpt lat="45.87624" lon="3.68778">
        <ele>635</ele>
        <time>2015-08-05T14:33:24Z</time>
      </trkpt>
      <trkpt lat="45.87624" lon="3.68774">
        <ele>635</ele>
        <time>2015-08-05T14:33:26Z</time>
      </trkpt>
      <trkpt lat="45.87626" lon="3.6877">
        <ele>636</ele>
        <time>2015-08-05T14:33:29Z</time>
      </trkpt>
      <trkpt lat="45.87627" lon="3.68764">
        <ele>637</ele>
        <time>2015-08-05T14:33:34Z</time>
      </trkpt>
      <trkpt lat="45.87628" lon="3.6876">
        <ele>639</ele>
        <time>2015-08-05T14:33:37Z</time>
      </trkpt>
      <trkpt lat="45.87628" lon="3.68756">
        <ele>640</ele>
        <time>2015-08-05T14:33:40Z</time>
      </trkpt>
      <trkpt lat="45.8763" lon="3.68746">
        <ele>643</ele>
        <time>2015-08-05T14:33:45Z</time>
      </trkpt>
      <trkpt lat="45.87629" lon="3.68736">
        <ele>644</ele>
        <time>2015-08-05T14:33:52Z</time>
      </trkpt>
      <trkpt lat="45.87627" lon="3.6873">
        <ele>644</ele>
        <time>2015-08-05T14:33:57Z</time>
      </trkpt>
      <trkpt lat="45.87624" lon="3.68725">
        <ele>644</ele>
        <time>2015-08-05T14:34:00Z</time>
      </trkpt>
      <trkpt lat="45.87622" lon="3.68717">
        <ele>644</ele>
        <time>2015-08-05T14:34:06Z</time>
      </trkpt>
      <trkpt lat="45.87621" lon="3.6871">
        <ele>644</ele>
        <time>2015-08-05T14:34:10Z</time>
      </trkpt>
      <trkpt lat="45.87622" lon="3.68708">
        <ele>644</ele>
        <time>2015-08-05T14:34:12Z</time>
      </trkpt>
      <trkpt lat="45.87622" lon="3.68705">
        <ele>644</ele>
        <time>2015-08-05T14:34:14Z</time>
      </trkpt>
      <trkpt lat="45.87621" lon="3.68702">
        <ele>644</ele>
        <time>2015-08-05T14:34:16Z</time>
      </trkpt>
      <trkpt lat="45.87619" lon="3.68696">
        <ele>644</ele>
        <time>2015-08-05T14:34:20Z</time>
      </trkpt>
      <trkpt lat="45.87617" lon="3.68689">
        <ele>644</ele>
        <time>2015-08-05T14:34:25Z</time>
      </trkpt>
      <trkpt lat="45.87615" lon="3.68677">
        <ele>647</ele>
        <time>2015-08-05T14:34:37Z</time>
      </trkpt>
      <trkpt lat="45.87615" lon="3.6867">
        <ele>648</ele>
        <time>2015-08-05T14:34:42Z</time>
      </trkpt>
      <trkpt lat="45.87614" lon="3.68667">
        <ele>648</ele>
        <time>2015-08-05T14:34:44Z</time>
      </trkpt>
      <trkpt lat="45.87614" lon="3.68656">
        <ele>648</ele>
        <time>2015-08-05T14:34:50Z</time>
      </trkpt>
      <trkpt lat="45.87613" lon="3.68654">
        <ele>648</ele>
        <time>2015-08-05T14:34:52Z</time>
      </trkpt>
      <trkpt lat="45.87609" lon="3.68644">
        <ele>648</ele>
        <time>2015-08-05T14:34:59Z</time>
      </trkpt>
      <trkpt lat="45.87608" lon="3.68632">
        <ele>648</ele>
        <time>2015-08-05T14:35:06Z</time>
      </trkpt>
      <trkpt lat="45.87607" lon="3.68629">
        <ele>648</ele>
        <time>2015-08-05T14:35:08Z</time>
      </trkpt>
      <trkpt lat="45.87609" lon="3.68625">
        <ele>648</ele>
        <time>2015-08-05T14:35:10Z</time>
      </trkpt>
      <trkpt lat="45.8761" lon="3.68617">
        <ele>648</ele>
        <time>2015-08-05T14:35:14Z</time>
      </trkpt>
      <trkpt lat="45.87609" lon="3.68611">
        <ele>648</ele>
        <time>2015-08-05T14:35:16Z</time>
      </trkpt>
      <trkpt lat="45.87609" lon="3.68606">
        <ele>648</ele>
        <time>2015-08-05T14:35:18Z</time>
      </trkpt>
      <trkpt lat="45.87609" lon="3.68602">
        <ele>648</ele>
        <time>2015-08-05T14:35:21Z</time>
      </trkpt>
      <trkpt lat="45.87608" lon="3.68598">
        <ele>648</ele>
        <time>2015-08-05T14:35:23Z</time>
      </trkpt>
      <trkpt lat="45.87606" lon="3.68589">
        <ele>648</ele>
        <time>2015-08-05T14:35:27Z</time>
      </trkpt>
      <trkpt lat="45.87606" lon="3.68585">
        <ele>648</ele>
        <time>2015-08-05T14:35:30Z</time>
      </trkpt>
      <trkpt lat="45.87606" lon="3.68581">
        <ele>648</ele>
        <time>2015-08-05T14:35:32Z</time>
      </trkpt>
      <trkpt lat="45.87606" lon="3.68576">
        <ele>648</ele>
        <time>2015-08-05T14:35:35Z</time>
      </trkpt>
      <trkpt lat="45.87606" lon="3.68571">
        <ele>648</ele>
        <time>2015-08-05T14:35:38Z</time>
      </trkpt>
      <trkpt lat="45.87606" lon="3.68568">
        <ele>647</ele>
        <time>2015-08-05T14:35:40Z</time>
      </trkpt>
      <trkpt lat="45.87603" lon="3.68561">
        <ele>646</ele>
        <time>2015-08-05T14:35:43Z</time>
      </trkpt>
      <trkpt lat="45.876" lon="3.68551">
        <ele>646</ele>
        <time>2015-08-05T14:35:47Z</time>
      </trkpt>
      <trkpt lat="45.87598" lon="3.6855">
        <ele>646</ele>
        <time>2015-08-05T14:35:49Z</time>
      </trkpt>
      <trkpt lat="45.87595" lon="3.6854">
        <ele>646</ele>
        <time>2015-08-05T14:35:56Z</time>
      </trkpt>
      <trkpt lat="45.87592" lon="3.68538">
        <ele>646</ele>
        <time>2015-08-05T14:35:59Z</time>
      </trkpt>
      <trkpt lat="45.87591" lon="3.68533">
        <ele>645</ele>
        <time>2015-08-05T14:36:01Z</time>
      </trkpt>
      <trkpt lat="45.8759" lon="3.68529">
        <ele>644</ele>
        <time>2015-08-05T14:36:03Z</time>
      </trkpt>
      <trkpt lat="45.87588" lon="3.68525">
        <ele>642</ele>
        <time>2015-08-05T14:36:06Z</time>
      </trkpt>
      <trkpt lat="45.87587" lon="3.68521">
        <ele>640</ele>
        <time>2015-08-05T14:36:08Z</time>
      </trkpt>
      <trkpt lat="45.87585" lon="3.68518">
        <ele>639</ele>
        <time>2015-08-05T14:36:10Z</time>
      </trkpt>
      <trkpt lat="45.87582" lon="3.68515">
        <ele>638</ele>
        <time>2015-08-05T14:36:12Z</time>
      </trkpt>
      <trkpt lat="45.87577" lon="3.68506">
        <ele>638</ele>
        <time>2015-08-05T14:36:17Z</time>
      </trkpt>
      <trkpt lat="45.87572" lon="3.685">
        <ele>638</ele>
        <time>2015-08-05T14:36:20Z</time>
      </trkpt>
      <trkpt lat="45.87569" lon="3.68495">
        <ele>638</ele>
        <time>2015-08-05T14:36:23Z</time>
      </trkpt>
      <trkpt lat="45.87568" lon="3.68493">
        <ele>638</ele>
        <time>2015-08-05T14:36:25Z</time>
      </trkpt>
      <trkpt lat="45.87567" lon="3.6849">
        <ele>638</ele>
        <time>2015-08-05T14:36:27Z</time>
      </trkpt>
      <trkpt lat="45.87565" lon="3.68485">
        <ele>638</ele>
        <time>2015-08-05T14:36:29Z</time>
      </trkpt>
      <trkpt lat="45.87564" lon="3.68481">
        <ele>638</ele>
        <time>2015-08-05T14:36:31Z</time>
      </trkpt>
      <trkpt lat="45.87563" lon="3.68475">
        <ele>638</ele>
        <time>2015-08-05T14:36:33Z</time>
      </trkpt>
      <trkpt lat="45.87562" lon="3.68472">
        <ele>638</ele>
        <time>2015-08-05T14:36:35Z</time>
      </trkpt>
      <trkpt lat="45.87561" lon="3.68465">
        <ele>639</ele>
        <time>2015-08-05T14:36:38Z</time>
      </trkpt>
      <trkpt lat="45.87559" lon="3.6846">
        <ele>639</ele>
        <time>2015-08-05T14:36:40Z</time>
      </trkpt>
      <trkpt lat="45.87558" lon="3.68456">
        <ele>641</ele>
        <time>2015-08-05T14:36:42Z</time>
      </trkpt>
      <trkpt lat="45.87559" lon="3.68443">
        <ele>642</ele>
        <time>2015-08-05T14:36:51Z</time>
      </trkpt>
      <trkpt lat="45.87558" lon="3.6844">
        <ele>642</ele>
        <time>2015-08-05T14:36:53Z</time>
      </trkpt>
      <trkpt lat="45.8756" lon="3.68438">
        <ele>642</ele>
        <time>2015-08-05T14:36:55Z</time>
      </trkpt>
      <trkpt lat="45.87562" lon="3.68429">
        <ele>638</ele>
        <time>2015-08-05T14:37:03Z</time>
      </trkpt>
      <trkpt lat="45.87563" lon="3.68426">
        <ele>637</ele>
        <time>2015-08-05T14:37:05Z</time>
      </trkpt>
      <trkpt lat="45.87562" lon="3.68418">
        <ele>634</ele>
        <time>2015-08-05T14:37:10Z</time>
      </trkpt>
      <trkpt lat="45.87561" lon="3.68408">
        <ele>633</ele>
        <time>2015-08-05T14:37:15Z</time>
      </trkpt>
      <trkpt lat="45.87561" lon="3.68403">
        <ele>633</ele>
        <time>2015-08-05T14:37:17Z</time>
      </trkpt>
      <trkpt lat="45.87562" lon="3.68397">
        <ele>633</ele>
        <time>2015-08-05T14:37:20Z</time>
      </trkpt>
      <trkpt lat="45.87563" lon="3.68392">
        <ele>633</ele>
        <time>2015-08-05T14:37:26Z</time>
      </trkpt>
      <trkpt lat="45.87563" lon="3.6839">
        <ele>633</ele>
        <time>2015-08-05T14:37:28Z</time>
      </trkpt>
      <trkpt lat="45.87563" lon="3.68386">
        <ele>633</ele>
        <time>2015-08-05T14:37:30Z</time>
      </trkpt>
      <trkpt lat="45.87566" lon="3.6838">
        <ele>633</ele>
        <time>2015-08-05T14:37:36Z</time>
      </trkpt>
      <trkpt lat="45.87567" lon="3.68375">
        <ele>633</ele>
        <time>2015-08-05T14:37:41Z</time>
      </trkpt>
      <trkpt lat="45.87574" lon="3.68366">
        <ele>633</ele>
        <time>2015-08-05T14:37:46Z</time>
      </trkpt>
      <trkpt lat="45.87577" lon="3.68361">
        <ele>633</ele>
        <time>2015-08-05T14:37:49Z</time>
      </trkpt>
      <trkpt lat="45.8758" lon="3.68359">
        <ele>633</ele>
        <time>2015-08-05T14:37:52Z</time>
      </trkpt>
      <trkpt lat="45.8758" lon="3.68356">
        <ele>633</ele>
        <time>2015-08-05T14:37:54Z</time>
      </trkpt>
      <trkpt lat="45.87581" lon="3.68347">
        <ele>633</ele>
        <time>2015-08-05T14:37:59Z</time>
      </trkpt>
      <trkpt lat="45.87582" lon="3.68342">
        <ele>633</ele>
        <time>2015-08-05T14:38:02Z</time>
      </trkpt>
      <trkpt lat="45.87582" lon="3.68338">
        <ele>632</ele>
        <time>2015-08-05T14:38:04Z</time>
      </trkpt>
      <trkpt lat="45.87581" lon="3.68323">
        <ele>631</ele>
        <time>2015-08-05T14:38:11Z</time>
      </trkpt>
      <trkpt lat="45.87582" lon="3.68314">
        <ele>631</ele>
        <time>2015-08-05T14:38:15Z</time>
      </trkpt>
      <trkpt lat="45.87579" lon="3.68307">
        <ele>631</ele>
        <time>2015-08-05T14:38:19Z</time>
      </trkpt>
      <trkpt lat="45.87579" lon="3.68302">
        <ele>631</ele>
        <time>2015-08-05T14:38:22Z</time>
      </trkpt>
      <trkpt lat="45.87581" lon="3.68297">
        <ele>631</ele>
        <time>2015-08-05T14:38:29Z</time>
      </trkpt>
      <trkpt lat="45.87582" lon="3.68295">
        <ele>631</ele>
        <time>2015-08-05T14:38:43Z</time>
      </trkpt>
      <trkpt lat="45.8758" lon="3.68294">
        <ele>631</ele>
        <time>2015-08-05T14:38:47Z</time>
      </trkpt>
      <trkpt lat="45.87576" lon="3.68291">
        <ele>632</ele>
        <time>2015-08-05T14:38:50Z</time>
      </trkpt>
      <trkpt lat="45.87574" lon="3.68287">
        <ele>632</ele>
        <time>2015-08-05T14:38:53Z</time>
      </trkpt>
      <trkpt lat="45.87571" lon="3.68284">
        <ele>632</ele>
        <time>2015-08-05T14:38:55Z</time>
      </trkpt>
      <trkpt lat="45.87568" lon="3.68279">
        <ele>632</ele>
        <time>2015-08-05T14:38:58Z</time>
      </trkpt>
      <trkpt lat="45.87564" lon="3.68273">
        <ele>632</ele>
        <time>2015-08-05T14:39:03Z</time>
      </trkpt>
      <trkpt lat="45.87564" lon="3.68272">
        <ele>632</ele>
        <time>2015-08-05T14:39:05Z</time>
      </trkpt>
      <trkpt lat="45.87558" lon="3.68261">
        <ele>632</ele>
        <time>2015-08-05T14:39:12Z</time>
      </trkpt>
      <trkpt lat="45.87553" lon="3.68253">
        <ele>631</ele>
        <time>2015-08-05T14:39:17Z</time>
      </trkpt>
      <trkpt lat="45.87553" lon="3.6825">
        <ele>630</ele>
        <time>2015-08-05T14:39:19Z</time>
      </trkpt>
      <trkpt lat="45.87552" lon="3.68245">
        <ele>627</ele>
        <time>2015-08-05T14:39:22Z</time>
      </trkpt>
      <trkpt lat="45.87543" lon="3.68218">
        <ele>626</ele>
        <time>2015-08-05T14:39:35Z</time>
      </trkpt>
      <trkpt lat="45.87543" lon="3.68214">
        <ele>626</ele>
        <time>2015-08-05T14:39:37Z</time>
      </trkpt>
      <trkpt lat="45.87541" lon="3.6821">
        <ele>626</ele>
        <time>2015-08-05T14:39:40Z</time>
      </trkpt>
      <trkpt lat="45.87538" lon="3.68204">
        <ele>625</ele>
        <time>2015-08-05T14:39:44Z</time>
      </trkpt>
      <trkpt lat="45.87535" lon="3.68202">
        <ele>624</ele>
        <time>2015-08-05T14:39:46Z</time>
      </trkpt>
      <trkpt lat="45.87529" lon="3.68196">
        <ele>621</ele>
        <time>2015-08-05T14:39:52Z</time>
      </trkpt>
      <trkpt lat="45.87526" lon="3.68194">
        <ele>619</ele>
        <time>2015-08-05T14:39:55Z</time>
      </trkpt>
      <trkpt lat="45.87523" lon="3.68194">
        <ele>618</ele>
        <time>2015-08-05T14:39:57Z</time>
      </trkpt>
      <trkpt lat="45.87511" lon="3.68185">
        <ele>616</ele>
        <time>2015-08-05T14:40:06Z</time>
      </trkpt>
      <trkpt lat="45.87506" lon="3.68185">
        <ele>615</ele>
        <time>2015-08-05T14:40:10Z</time>
      </trkpt>
      <trkpt lat="45.87501" lon="3.68184">
        <ele>613</ele>
        <time>2015-08-05T14:40:14Z</time>
      </trkpt>
      <trkpt lat="45.87493" lon="3.6818">
        <ele>612</ele>
        <time>2015-08-05T14:40:20Z</time>
      </trkpt>
      <trkpt lat="45.87491" lon="3.68179">
        <ele>612</ele>
        <time>2015-08-05T14:40:22Z</time>
      </trkpt>
      <trkpt lat="45.87485" lon="3.68181">
        <ele>608</ele>
        <time>2015-08-05T14:40:27Z</time>
      </trkpt>
      <trkpt lat="45.87482" lon="3.68181">
        <ele>606</ele>
        <time>2015-08-05T14:40:29Z</time>
      </trkpt>
      <trkpt lat="45.87479" lon="3.6818">
        <ele>606</ele>
        <time>2015-08-05T14:40:31Z</time>
      </trkpt>
      <trkpt lat="45.87477" lon="3.6818">
        <ele>606</ele>
        <time>2015-08-05T14:40:33Z</time>
      </trkpt>
      <trkpt lat="45.87471" lon="3.68177">
        <ele>605</ele>
        <time>2015-08-05T14:40:38Z</time>
      </trkpt>
      <trkpt lat="45.87462" lon="3.68172">
        <ele>605</ele>
        <time>2015-08-05T14:40:44Z</time>
      </trkpt>
      <trkpt lat="45.87458" lon="3.68169">
        <ele>605</ele>
        <time>2015-08-05T14:40:48Z</time>
      </trkpt>
      <trkpt lat="45.87456" lon="3.68168">
        <ele>605</ele>
        <time>2015-08-05T14:40:50Z</time>
      </trkpt>
      <trkpt lat="45.87452" lon="3.68165">
        <ele>605</ele>
        <time>2015-08-05T14:40:53Z</time>
      </trkpt>
      <trkpt lat="45.87449" lon="3.68161">
        <ele>605</ele>
        <time>2015-08-05T14:40:56Z</time>
      </trkpt>
      <trkpt lat="45.8744" lon="3.68144">
        <ele>605</ele>
        <time>2015-08-05T14:41:05Z</time>
      </trkpt>
      <trkpt lat="45.87424" lon="3.68132">
        <ele>608</ele>
        <time>2015-08-05T14:41:17Z</time>
      </trkpt>
      <trkpt lat="45.87415" lon="3.68129">
        <ele>609</ele>
        <time>2015-08-05T14:41:23Z</time>
      </trkpt>
      <trkpt lat="45.87402" lon="3.68127">
        <ele>612</ele>
        <time>2015-08-05T14:41:32Z</time>
      </trkpt>
      <trkpt lat="45.87395" lon="3.68124">
        <ele>613</ele>
        <time>2015-08-05T14:41:37Z</time>
      </trkpt>
      <trkpt lat="45.87389" lon="3.68124">
        <ele>614</ele>
        <time>2015-08-05T14:41:41Z</time>
      </trkpt>
      <trkpt lat="45.87365" lon="3.6812">
        <ele>616</ele>
        <time>2015-08-05T14:41:59Z</time>
      </trkpt>
      <trkpt lat="45.87344" lon="3.68117">
        <ele>616</ele>
        <time>2015-08-05T14:42:14Z</time>
      </trkpt>
      <trkpt lat="45.87333" lon="3.68117">
        <ele>617</ele>
        <time>2015-08-05T14:42:22Z</time>
      </trkpt>
      <trkpt lat="45.87331" lon="3.68118">
        <ele>617</ele>
        <time>2015-08-05T14:42:24Z</time>
      </trkpt>
      <trkpt lat="45.8732" lon="3.68118">
        <ele>617</ele>
        <time>2015-08-05T14:42:33Z</time>
      </trkpt>
      <trkpt lat="45.87315" lon="3.68119">
        <ele>617</ele>
        <time>2015-08-05T14:42:38Z</time>
      </trkpt>
      <trkpt lat="45.87307" lon="3.6812">
        <ele>618</ele>
        <time>2015-08-05T14:42:44Z</time>
      </trkpt>
      <trkpt lat="45.87289" lon="3.68127">
        <ele>619</ele>
        <time>2015-08-05T14:42:59Z</time>
      </trkpt>
      <trkpt lat="45.87283" lon="3.6813">
        <ele>619</ele>
        <time>2015-08-05T14:43:04Z</time>
      </trkpt>
      <trkpt lat="45.87279" lon="3.68133">
        <ele>619</ele>
        <time>2015-08-05T14:43:08Z</time>
      </trkpt>
      <trkpt lat="45.87273" lon="3.68136">
        <ele>619</ele>
        <time>2015-08-05T14:43:13Z</time>
      </trkpt>
      <trkpt lat="45.87268" lon="3.68137">
        <ele>619</ele>
        <time>2015-08-05T14:43:17Z</time>
      </trkpt>
      <trkpt lat="45.87246" lon="3.68147">
        <ele>620</ele>
        <time>2015-08-05T14:43:34Z</time>
      </trkpt>
      <trkpt lat="45.87242" lon="3.68146">
        <ele>620</ele>
        <time>2015-08-05T14:43:38Z</time>
      </trkpt>
      <trkpt lat="45.87237" lon="3.68148">
        <ele>621</ele>
        <time>2015-08-05T14:43:42Z</time>
      </trkpt>
      <trkpt lat="45.87227" lon="3.68149">
        <ele>621</ele>
        <time>2015-08-05T14:43:49Z</time>
      </trkpt>
      <trkpt lat="45.8722" lon="3.68149">
        <ele>621</ele>
        <time>2015-08-05T14:43:54Z</time>
      </trkpt>
      <trkpt lat="45.87217" lon="3.68151">
        <ele>621</ele>
        <time>2015-08-05T14:43:57Z</time>
      </trkpt>
      <trkpt lat="45.87214" lon="3.68151">
        <ele>621</ele>
        <time>2015-08-05T14:43:59Z</time>
      </trkpt>
      <trkpt lat="45.87209" lon="3.68149">
        <ele>621</ele>
        <time>2015-08-05T14:44:03Z</time>
      </trkpt>
      <trkpt lat="45.87206" lon="3.6815">
        <ele>621</ele>
        <time>2015-08-05T14:44:05Z</time>
      </trkpt>
      <trkpt lat="45.87195" lon="3.68148">
        <ele>621</ele>
        <time>2015-08-05T14:44:14Z</time>
      </trkpt>
      <trkpt lat="45.87191" lon="3.68146">
        <ele>621</ele>
        <time>2015-08-05T14:44:17Z</time>
      </trkpt>
      <trkpt lat="45.87189" lon="3.68143">
        <ele>621</ele>
        <time>2015-08-05T14:44:19Z</time>
      </trkpt>
      <trkpt lat="45.87179" lon="3.6813">
        <ele>621</ele>
        <time>2015-08-05T14:44:30Z</time>
      </trkpt>
      <trkpt lat="45.87177" lon="3.68126">
        <ele>621</ele>
        <time>2015-08-05T14:44:33Z</time>
      </trkpt>
      <trkpt lat="45.87175" lon="3.68124">
        <ele>621</ele>
        <time>2015-08-05T14:44:35Z</time>
      </trkpt>
      <trkpt lat="45.87168" lon="3.68116">
        <ele>620</ele>
        <time>2015-08-05T14:44:41Z</time>
      </trkpt>
      <trkpt lat="45.87165" lon="3.68111">
        <ele>620</ele>
        <time>2015-08-05T14:44:45Z</time>
      </trkpt>
      <trkpt lat="45.87162" lon="3.68107">
        <ele>619</ele>
        <time>2015-08-05T14:44:48Z</time>
      </trkpt>
      <trkpt lat="45.87156" lon="3.68101">
        <ele>619</ele>
        <time>2015-08-05T14:44:53Z</time>
      </trkpt>
      <trkpt lat="45.87147" lon="3.68086">
        <ele>618</ele>
        <time>2015-08-05T14:45:04Z</time>
      </trkpt>
      <trkpt lat="45.87141" lon="3.68078">
        <ele>617</ele>
        <time>2015-08-05T14:45:10Z</time>
      </trkpt>
      <trkpt lat="45.87138" lon="3.68074">
        <ele>617</ele>
        <time>2015-08-05T14:45:12Z</time>
      </trkpt>
      <trkpt lat="45.87136" lon="3.68073">
        <ele>617</ele>
        <time>2015-08-05T14:45:14Z</time>
      </trkpt>
      <trkpt lat="45.87133" lon="3.68072">
        <ele>617</ele>
        <time>2015-08-05T14:45:16Z</time>
      </trkpt>
      <trkpt lat="45.8713" lon="3.68069">
        <ele>617</ele>
        <time>2015-08-05T14:45:19Z</time>
      </trkpt>
      <trkpt lat="45.87126" lon="3.68063">
        <ele>617</ele>
        <time>2015-08-05T14:45:23Z</time>
      </trkpt>
      <trkpt lat="45.87122" lon="3.68059">
        <ele>617</ele>
        <time>2015-08-05T14:45:27Z</time>
      </trkpt>
      <trkpt lat="45.8712" lon="3.68058">
        <ele>617</ele>
        <time>2015-08-05T14:45:29Z</time>
      </trkpt>
      <trkpt lat="45.87118" lon="3.68055">
        <ele>617</ele>
        <time>2015-08-05T14:45:33Z</time>
      </trkpt>
      <trkpt lat="45.87116" lon="3.68055">
        <ele>617</ele>
        <time>2015-08-05T14:45:36Z</time>
      </trkpt>
      <trkpt lat="45.87116" lon="3.68052">
        <ele>617</ele>
        <time>2015-08-05T14:45:42Z</time>
      </trkpt>
      <trkpt lat="45.87117" lon="3.68051">
        <ele>617</ele>
        <time>2015-08-05T14:45:45Z</time>
      </trkpt>
      <trkpt lat="45.87119" lon="3.68049">
        <ele>617</ele>
        <time>2015-08-05T14:45:47Z</time>
      </trkpt>
      <trkpt lat="45.87119" lon="3.68047">
        <ele>617</ele>
        <time>2015-08-05T14:45:49Z</time>
      </trkpt>
      <trkpt lat="45.87119" lon="3.6804">
        <ele>617</ele>
        <time>2015-08-05T14:45:54Z</time>
      </trkpt>
      <trkpt lat="45.8712" lon="3.68036">
        <ele>617</ele>
        <time>2015-08-05T14:45:58Z</time>
      </trkpt>
      <trkpt lat="45.87119" lon="3.68034">
        <ele>617</ele>
        <time>2015-08-05T14:46:00Z</time>
      </trkpt>
      <trkpt lat="45.87118" lon="3.68032">
        <ele>617</ele>
        <time>2015-08-05T14:46:04Z</time>
      </trkpt>
      <trkpt lat="45.87119" lon="3.68042">
        <ele>617</ele>
        <time>2015-08-05T14:46:11Z</time>
      </trkpt>
      <trkpt lat="45.87117" lon="3.68051">
        <ele>616</ele>
        <time>2015-08-05T14:46:16Z</time>
      </trkpt>
      <trkpt lat="45.87116" lon="3.68054">
        <ele>616</ele>
        <time>2015-08-05T14:46:18Z</time>
      </trkpt>
      <trkpt lat="45.87114" lon="3.68057">
        <ele>615</ele>
        <time>2015-08-05T14:46:21Z</time>
      </trkpt>
      <trkpt lat="45.87112" lon="3.68058">
        <ele>615</ele>
        <time>2015-08-05T14:46:23Z</time>
      </trkpt>
      <trkpt lat="45.87104" lon="3.68055">
        <ele>615</ele>
        <time>2015-08-05T14:46:32Z</time>
      </trkpt>
      <trkpt lat="45.87103" lon="3.68056">
        <ele>615</ele>
        <time>2015-08-05T14:46:34Z</time>
      </trkpt>
      <trkpt lat="45.87101" lon="3.6806">
        <ele>614</ele>
        <time>2015-08-05T14:46:38Z</time>
      </trkpt>
      <trkpt lat="45.87099" lon="3.68061">
        <ele>614</ele>
        <time>2015-08-05T14:46:40Z</time>
      </trkpt>
      <trkpt lat="45.87097" lon="3.68062">
        <ele>614</ele>
        <time>2015-08-05T14:46:42Z</time>
      </trkpt>
      <trkpt lat="45.87095" lon="3.68063">
        <ele>614</ele>
        <time>2015-08-05T14:46:44Z</time>
      </trkpt>
      <trkpt lat="45.87092" lon="3.68067">
        <ele>614</ele>
        <time>2015-08-05T14:46:48Z</time>
      </trkpt>
      <trkpt lat="45.87086" lon="3.68078">
        <ele>614</ele>
        <time>2015-08-05T14:46:58Z</time>
      </trkpt>
      <trkpt lat="45.87083" lon="3.68084">
        <ele>614</ele>
        <time>2015-08-05T14:47:04Z</time>
      </trkpt>
      <trkpt lat="45.87076" lon="3.68091">
        <ele>614</ele>
        <time>2015-08-05T14:47:12Z</time>
      </trkpt>
      <trkpt lat="45.87071" lon="3.68094">
        <ele>615</ele>
        <time>2015-08-05T14:47:17Z</time>
      </trkpt>
      <trkpt lat="45.87062" lon="3.68104">
        <ele>615</ele>
        <time>2015-08-05T14:47:26Z</time>
      </trkpt>
      <trkpt lat="45.87059" lon="3.68104">
        <ele>615</ele>
        <time>2015-08-05T14:47:28Z</time>
      </trkpt>
      <trkpt lat="45.87056" lon="3.68106">
        <ele>615</ele>
        <time>2015-08-05T14:47:31Z</time>
      </trkpt>
      <trkpt lat="45.87053" lon="3.68106">
        <ele>615</ele>
        <time>2015-08-05T14:47:34Z</time>
      </trkpt>
      <trkpt lat="45.87049" lon="3.68109">
        <ele>616</ele>
        <time>2015-08-05T14:47:38Z</time>
      </trkpt>
      <trkpt lat="45.87046" lon="3.68109">
        <ele>616</ele>
        <time>2015-08-05T14:47:40Z</time>
      </trkpt>
      <trkpt lat="45.87038" lon="3.68109">
        <ele>617</ele>
        <time>2015-08-05T14:47:47Z</time>
      </trkpt>
      <trkpt lat="45.87037" lon="3.68109">
        <ele>618</ele>
        <time>2015-08-05T14:47:49Z</time>
      </trkpt>
      <trkpt lat="45.87034" lon="3.68109">
        <ele>619</ele>
        <time>2015-08-05T14:47:51Z</time>
      </trkpt>
      <trkpt lat="45.87031" lon="3.68109">
        <ele>619</ele>
        <time>2015-08-05T14:47:54Z</time>
      </trkpt>
      <trkpt lat="45.87028" lon="3.68107">
        <ele>621</ele>
        <time>2015-08-05T14:47:57Z</time>
      </trkpt>
      <trkpt lat="45.87025" lon="3.68106">
        <ele>625</ele>
        <time>2015-08-05T14:48:02Z</time>
      </trkpt>
      <trkpt lat="45.87021" lon="3.68103">
        <ele>630</ele>
        <time>2015-08-05T14:48:08Z</time>
      </trkpt>
      <trkpt lat="45.87018" lon="3.68102">
        <ele>631</ele>
        <time>2015-08-05T14:48:12Z</time>
      </trkpt>
      <trkpt lat="45.87016" lon="3.681">
        <ele>631</ele>
        <time>2015-08-05T14:48:14Z</time>
      </trkpt>
      <trkpt lat="45.87016" lon="3.68098">
        <ele>632</ele>
        <time>2015-08-05T14:48:16Z</time>
      </trkpt>
      <trkpt lat="45.87015" lon="3.68098">
        <ele>633</ele>
        <time>2015-08-05T14:48:18Z</time>
      </trkpt>
      <trkpt lat="45.87011" lon="3.68096">
        <ele>634</ele>
        <time>2015-08-05T14:48:22Z</time>
      </trkpt>
      <trkpt lat="45.87009" lon="3.68096">
        <ele>634</ele>
        <time>2015-08-05T14:48:24Z</time>
      </trkpt>
      <trkpt lat="45.87005" lon="3.68094">
        <ele>634</ele>
        <time>2015-08-05T14:48:28Z</time>
      </trkpt>
      <trkpt lat="45.87" lon="3.68092">
        <ele>634</ele>
        <time>2015-08-05T14:48:32Z</time>
      </trkpt>
      <trkpt lat="45.86994" lon="3.68087">
        <ele>634</ele>
        <time>2015-08-05T14:48:38Z</time>
      </trkpt>
      <trkpt lat="45.86992" lon="3.68087">
        <ele>634</ele>
        <time>2015-08-05T14:48:40Z</time>
      </trkpt>
      <trkpt lat="45.8699" lon="3.68086">
        <ele>634</ele>
        <time>2015-08-05T14:48:42Z</time>
      </trkpt>
      <trkpt lat="45.86988" lon="3.68086">
        <ele>634</ele>
        <time>2015-08-05T14:48:44Z</time>
      </trkpt>
      <trkpt lat="45.86986" lon="3.68085">
        <ele>634</ele>
        <time>2015-08-05T14:48:46Z</time>
      </trkpt>
      <trkpt lat="45.86983" lon="3.68086">
        <ele>634</ele>
        <time>2015-08-05T14:48:50Z</time>
      </trkpt>
      <trkpt lat="45.86979" lon="3.68086">
        <ele>634</ele>
        <time>2015-08-05T14:48:56Z</time>
      </trkpt>
      <trkpt lat="45.86977" lon="3.68087">
        <ele>634</ele>
        <time>2015-08-05T14:48:58Z</time>
      </trkpt>
      <trkpt lat="45.86975" lon="3.68088">
        <ele>634</ele>
        <time>2015-08-05T14:49:00Z</time>
      </trkpt>
      <trkpt lat="45.86972" lon="3.68087">
        <ele>634</ele>
        <time>2015-08-05T14:49:03Z</time>
      </trkpt>
      <trkpt lat="45.8697" lon="3.68088">
        <ele>634</ele>
        <time>2015-08-05T14:49:05Z</time>
      </trkpt>
      <trkpt lat="45.86967" lon="3.68088">
        <ele>634</ele>
        <time>2015-08-05T14:49:08Z</time>
      </trkpt>
      <trkpt lat="45.86966" lon="3.68088">
        <ele>635</ele>
        <time>2015-08-05T14:49:10Z</time>
      </trkpt>
      <trkpt lat="45.86963" lon="3.68089">
        <ele>635</ele>
        <time>2015-08-05T14:49:13Z</time>
      </trkpt>
      <trkpt lat="45.86956" lon="3.68088">
        <ele>638</ele>
        <time>2015-08-05T14:49:19Z</time>
      </trkpt>
      <trkpt lat="45.86954" lon="3.68089">
        <ele>639</ele>
        <time>2015-08-05T14:49:21Z</time>
      </trkpt>
      <trkpt lat="45.86952" lon="3.6809">
        <ele>640</ele>
        <time>2015-08-05T14:49:23Z</time>
      </trkpt>
      <trkpt lat="45.86949" lon="3.68092">
        <ele>640</ele>
        <time>2015-08-05T14:49:27Z</time>
      </trkpt>
      <trkpt lat="45.86945" lon="3.68091">
        <ele>641</ele>
        <time>2015-08-05T14:49:31Z</time>
      </trkpt>
      <trkpt lat="45.86941" lon="3.68094">
        <ele>642</ele>
        <time>2015-08-05T14:49:38Z</time>
      </trkpt>
      <trkpt lat="45.86938" lon="3.68093">
        <ele>643</ele>
        <time>2015-08-05T14:49:42Z</time>
      </trkpt>
      <trkpt lat="45.86934" lon="3.68094">
        <ele>648</ele>
        <time>2015-08-05T14:49:47Z</time>
      </trkpt>
      <trkpt lat="45.86931" lon="3.68096">
        <ele>649</ele>
        <time>2015-08-05T14:49:51Z</time>
      </trkpt>
      <trkpt lat="45.86927" lon="3.68098">
        <ele>651</ele>
        <time>2015-08-05T14:49:57Z</time>
      </trkpt>
      <trkpt lat="45.86923" lon="3.681">
        <ele>652</ele>
        <time>2015-08-05T14:50:02Z</time>
      </trkpt>
      <trkpt lat="45.86922" lon="3.68102">
        <ele>652</ele>
        <time>2015-08-05T14:50:05Z</time>
      </trkpt>
      <trkpt lat="45.86919" lon="3.68106">
        <ele>652</ele>
        <time>2015-08-05T14:50:10Z</time>
      </trkpt>
      <trkpt lat="45.86911" lon="3.68113">
        <ele>652</ele>
        <time>2015-08-05T14:50:20Z</time>
      </trkpt>
      <trkpt lat="45.86907" lon="3.68116">
        <ele>652</ele>
        <time>2015-08-05T14:50:26Z</time>
      </trkpt>
      <trkpt lat="45.86906" lon="3.68116">
        <ele>652</ele>
        <time>2015-08-05T14:50:28Z</time>
      </trkpt>
      <trkpt lat="45.86905" lon="3.68117">
        <ele>653</ele>
        <time>2015-08-05T14:50:31Z</time>
      </trkpt>
      <trkpt lat="45.86903" lon="3.68121">
        <ele>653</ele>
        <time>2015-08-05T14:50:35Z</time>
      </trkpt>
      <trkpt lat="45.869" lon="3.68124">
        <ele>653</ele>
        <time>2015-08-05T14:50:37Z</time>
      </trkpt>
      <trkpt lat="45.869" lon="3.68126">
        <ele>653</ele>
        <time>2015-08-05T14:50:39Z</time>
      </trkpt>
      <trkpt lat="45.86898" lon="3.68126">
        <ele>653</ele>
        <time>2015-08-05T14:50:41Z</time>
      </trkpt>
      <trkpt lat="45.86895" lon="3.68125">
        <ele>653</ele>
        <time>2015-08-05T14:50:45Z</time>
      </trkpt>
      <trkpt lat="45.86892" lon="3.68124">
        <ele>653</ele>
        <time>2015-08-05T14:50:47Z</time>
      </trkpt>
      <trkpt lat="45.8689" lon="3.68125">
        <ele>655</ele>
        <time>2015-08-05T14:50:51Z</time>
      </trkpt>
      <trkpt lat="45.86888" lon="3.68128">
        <ele>655</ele>
        <time>2015-08-05T14:50:54Z</time>
      </trkpt>
      <trkpt lat="45.86887" lon="3.68128">
        <ele>655</ele>
        <time>2015-08-05T14:50:56Z</time>
      </trkpt>
      <trkpt lat="45.86884" lon="3.68133">
        <ele>655</ele>
        <time>2015-08-05T14:51:00Z</time>
      </trkpt>
      <trkpt lat="45.8688" lon="3.68137">
        <ele>655</ele>
        <time>2015-08-05T14:51:04Z</time>
      </trkpt>
      <trkpt lat="45.86878" lon="3.68137">
        <ele>655</ele>
        <time>2015-08-05T14:51:06Z</time>
      </trkpt>
      <trkpt lat="45.86875" lon="3.68138">
        <ele>655</ele>
        <time>2015-08-05T14:51:08Z</time>
      </trkpt>
      <trkpt lat="45.8687" lon="3.68136">
        <ele>657</ele>
        <time>2015-08-05T14:51:11Z</time>
      </trkpt>
      <trkpt lat="45.86868" lon="3.68137">
        <ele>659</ele>
        <time>2015-08-05T14:51:13Z</time>
      </trkpt>
      <trkpt lat="45.86865" lon="3.68137">
        <ele>660</ele>
        <time>2015-08-05T14:51:16Z</time>
      </trkpt>
      <trkpt lat="45.86861" lon="3.68139">
        <ele>662</ele>
        <time>2015-08-05T14:51:21Z</time>
      </trkpt>
      <trkpt lat="45.8686" lon="3.68141">
        <ele>663</ele>
        <time>2015-08-05T14:51:23Z</time>
      </trkpt>
      <trkpt lat="45.86857" lon="3.68141">
        <ele>664</ele>
        <time>2015-08-05T14:51:25Z</time>
      </trkpt>
      <trkpt lat="45.86855" lon="3.68141">
        <ele>667</ele>
        <time>2015-08-05T14:51:28Z</time>
      </trkpt>
      <trkpt lat="45.86855" lon="3.68144">
        <ele>668</ele>
        <time>2015-08-05T14:51:30Z</time>
      </trkpt>
      <trkpt lat="45.86854" lon="3.68145">
        <ele>668</ele>
        <time>2015-08-05T14:51:34Z</time>
      </trkpt>
      <trkpt lat="45.86853" lon="3.68147">
        <ele>668</ele>
        <time>2015-08-05T14:51:38Z</time>
      </trkpt>
      <trkpt lat="45.86852" lon="3.68149">
        <ele>668</ele>
        <time>2015-08-05T14:51:40Z</time>
      </trkpt>
      <trkpt lat="45.86852" lon="3.68151">
        <ele>668</ele>
        <time>2015-08-05T14:51:42Z</time>
      </trkpt>
      <trkpt lat="45.86853" lon="3.68152">
        <ele>668</ele>
        <time>2015-08-05T14:51:44Z</time>
      </trkpt>
      <trkpt lat="45.86853" lon="3.68154">
        <ele>668</ele>
        <time>2015-08-05T14:51:47Z</time>
      </trkpt>
      <trkpt lat="45.86854" lon="3.68152">
        <ele>673</ele>
        <time>2015-08-05T14:52:04Z</time>
      </trkpt>
      <trkpt lat="45.86856" lon="3.68152">
        <ele>674</ele>
        <time>2015-08-05T14:52:14Z</time>
      </trkpt>
      <trkpt lat="45.86857" lon="3.68153">
        <ele>675</ele>
        <time>2015-08-05T14:52:20Z</time>
      </trkpt>
      <trkpt lat="45.86858" lon="3.6815">
        <ele>675</ele>
        <time>2015-08-05T14:52:25Z</time>
      </trkpt>
      <trkpt lat="45.86856" lon="3.68149">
        <ele>675</ele>
        <time>2015-08-05T14:52:34Z</time>
      </trkpt>
      <trkpt lat="45.86854" lon="3.6815">
        <ele>675</ele>
        <time>2015-08-05T14:52:40Z</time>
      </trkpt>
      <trkpt lat="45.86851" lon="3.68155">
        <ele>675</ele>
        <time>2015-08-05T14:52:46Z</time>
      </trkpt>
      <trkpt lat="45.86848" lon="3.68155">
        <ele>675</ele>
        <time>2015-08-05T14:52:48Z</time>
      </trkpt>
      <trkpt lat="45.86846" lon="3.68157">
        <ele>675</ele>
        <time>2015-08-05T14:52:50Z</time>
      </trkpt>
      <trkpt lat="45.86842" lon="3.68159">
        <ele>676</ele>
        <time>2015-08-05T14:52:54Z</time>
      </trkpt>
      <trkpt lat="45.86842" lon="3.68161">
        <ele>677</ele>
        <time>2015-08-05T14:52:56Z</time>
      </trkpt>
      <trkpt lat="45.86843" lon="3.68165">
        <ele>677</ele>
        <time>2015-08-05T14:52:58Z</time>
      </trkpt>
      <trkpt lat="45.86842" lon="3.68168">
        <ele>677</ele>
        <time>2015-08-05T14:53:01Z</time>
      </trkpt>
      <trkpt lat="45.86841" lon="3.68169">
        <ele>677</ele>
        <time>2015-08-05T14:53:05Z</time>
      </trkpt>
      <trkpt lat="45.86839" lon="3.6817">
        <ele>677</ele>
        <time>2015-08-05T14:53:07Z</time>
      </trkpt>
      <trkpt lat="45.8684" lon="3.68174">
        <ele>677</ele>
        <time>2015-08-05T14:53:09Z</time>
      </trkpt>
      <trkpt lat="45.86839" lon="3.68177">
        <ele>677</ele>
        <time>2015-08-05T14:53:14Z</time>
      </trkpt>
      <trkpt lat="45.86835" lon="3.6818">
        <ele>677</ele>
        <time>2015-08-05T14:53:18Z</time>
      </trkpt>
      <trkpt lat="45.86834" lon="3.68185">
        <ele>677</ele>
        <time>2015-08-05T14:53:22Z</time>
      </trkpt>
      <trkpt lat="45.86831" lon="3.68186">
        <ele>677</ele>
        <time>2015-08-05T14:53:25Z</time>
      </trkpt>
      <trkpt lat="45.86831" lon="3.68188">
        <ele>677</ele>
        <time>2015-08-05T14:53:27Z</time>
      </trkpt>
      <trkpt lat="45.86829" lon="3.68189">
        <ele>677</ele>
        <time>2015-08-05T14:53:30Z</time>
      </trkpt>
      <trkpt lat="45.86826" lon="3.68189">
        <ele>677</ele>
        <time>2015-08-05T14:53:32Z</time>
      </trkpt>
      <trkpt lat="45.86824" lon="3.68191">
        <ele>680</ele>
        <time>2015-08-05T14:53:35Z</time>
      </trkpt>
      <trkpt lat="45.86821" lon="3.68196">
        <ele>681</ele>
        <time>2015-08-05T14:53:39Z</time>
      </trkpt>
      <trkpt lat="45.8682" lon="3.682">
        <ele>681</ele>
        <time>2015-08-05T14:53:41Z</time>
      </trkpt>
      <trkpt lat="45.86818" lon="3.68201">
        <ele>681</ele>
        <time>2015-08-05T14:53:43Z</time>
      </trkpt>
      <trkpt lat="45.86814" lon="3.68203">
        <ele>681</ele>
        <time>2015-08-05T14:53:48Z</time>
      </trkpt>
      <trkpt lat="45.86812" lon="3.68207">
        <ele>681</ele>
        <time>2015-08-05T14:53:52Z</time>
      </trkpt>
      <trkpt lat="45.86812" lon="3.68213">
        <ele>681</ele>
        <time>2015-08-05T14:53:58Z</time>
      </trkpt>
      <trkpt lat="45.86811" lon="3.68215">
        <ele>681</ele>
        <time>2015-08-05T14:54:01Z</time>
      </trkpt>
      <trkpt lat="45.86809" lon="3.68215">
        <ele>681</ele>
        <time>2015-08-05T14:54:03Z</time>
      </trkpt>
      <trkpt lat="45.86806" lon="3.68219">
        <ele>681</ele>
        <time>2015-08-05T14:54:09Z</time>
      </trkpt>
      <trkpt lat="45.86805" lon="3.68223">
        <ele>682</ele>
        <time>2015-08-05T14:54:11Z</time>
      </trkpt>
      <trkpt lat="45.86804" lon="3.68224">
        <ele>682</ele>
        <time>2015-08-05T14:54:13Z</time>
      </trkpt>
      <trkpt lat="45.86802" lon="3.68229">
        <ele>683</ele>
        <time>2015-08-05T14:54:17Z</time>
      </trkpt>
      <trkpt lat="45.86798" lon="3.68231">
        <ele>685</ele>
        <time>2015-08-05T14:54:23Z</time>
      </trkpt>
      <trkpt lat="45.86797" lon="3.68233">
        <ele>686</ele>
        <time>2015-08-05T14:54:27Z</time>
      </trkpt>
      <trkpt lat="45.86797" lon="3.68235">
        <ele>686</ele>
        <time>2015-08-05T14:54:29Z</time>
      </trkpt>
      <trkpt lat="45.86794" lon="3.6824">
        <ele>688</ele>
        <time>2015-08-05T14:54:35Z</time>
      </trkpt>
      <trkpt lat="45.86794" lon="3.68243">
        <ele>688</ele>
        <time>2015-08-05T14:54:37Z</time>
      </trkpt>
      <trkpt lat="45.86792" lon="3.68248">
        <ele>688</ele>
        <time>2015-08-05T14:54:41Z</time>
      </trkpt>
      <trkpt lat="45.86792" lon="3.68249">
        <ele>689</ele>
        <time>2015-08-05T14:54:43Z</time>
      </trkpt>
      <trkpt lat="45.86789" lon="3.68255">
        <ele>689</ele>
        <time>2015-08-05T14:54:49Z</time>
      </trkpt>
      <trkpt lat="45.86789" lon="3.68257">
        <ele>689</ele>
        <time>2015-08-05T14:54:51Z</time>
      </trkpt>
      <trkpt lat="45.86786" lon="3.68265">
        <ele>689</ele>
        <time>2015-08-05T14:54:58Z</time>
      </trkpt>
      <trkpt lat="45.86785" lon="3.68267">
        <ele>689</ele>
        <time>2015-08-05T14:55:00Z</time>
      </trkpt>
      <trkpt lat="45.86784" lon="3.68269">
        <ele>689</ele>
        <time>2015-08-05T14:55:02Z</time>
      </trkpt>
      <trkpt lat="45.86781" lon="3.68272">
        <ele>692</ele>
        <time>2015-08-05T14:55:09Z</time>
      </trkpt>
      <trkpt lat="45.86777" lon="3.68276">
        <ele>696</ele>
        <time>2015-08-05T14:55:14Z</time>
      </trkpt>
      <trkpt lat="45.86778" lon="3.68282">
        <ele>696</ele>
        <time>2015-08-05T14:55:18Z</time>
      </trkpt>
      <trkpt lat="45.86776" lon="3.68284">
        <ele>696</ele>
        <time>2015-08-05T14:55:21Z</time>
      </trkpt>
      <trkpt lat="45.86774" lon="3.68285">
        <ele>696</ele>
        <time>2015-08-05T14:55:23Z</time>
      </trkpt>
      <trkpt lat="45.86773" lon="3.68285">
        <ele>696</ele>
        <time>2015-08-05T14:55:25Z</time>
      </trkpt>
      <trkpt lat="45.86771" lon="3.68288">
        <ele>696</ele>
        <time>2015-08-05T14:55:28Z</time>
      </trkpt>
      <trkpt lat="45.8677" lon="3.6829">
        <ele>696</ele>
        <time>2015-08-05T14:55:30Z</time>
      </trkpt>
      <trkpt lat="45.86769" lon="3.68298">
        <ele>696</ele>
        <time>2015-08-05T14:55:37Z</time>
      </trkpt>
      <trkpt lat="45.86767" lon="3.683">
        <ele>696</ele>
        <time>2015-08-05T14:55:39Z</time>
      </trkpt>
      <trkpt lat="45.86766" lon="3.68299">
        <ele>696</ele>
        <time>2015-08-05T14:55:41Z</time>
      </trkpt>
      <trkpt lat="45.86766" lon="3.68301">
        <ele>697</ele>
        <time>2015-08-05T14:55:44Z</time>
      </trkpt>
      <trkpt lat="45.86763" lon="3.68306">
        <ele>697</ele>
        <time>2015-08-05T14:55:48Z</time>
      </trkpt>
      <trkpt lat="45.86762" lon="3.68308">
        <ele>697</ele>
        <time>2015-08-05T14:55:50Z</time>
      </trkpt>
      <trkpt lat="45.8676" lon="3.68308">
        <ele>697</ele>
        <time>2015-08-05T14:55:52Z</time>
      </trkpt>
      <trkpt lat="45.86759" lon="3.68309">
        <ele>698</ele>
        <time>2015-08-05T14:55:54Z</time>
      </trkpt>
      <trkpt lat="45.86757" lon="3.68314">
        <ele>699</ele>
        <time>2015-08-05T14:55:57Z</time>
      </trkpt>
      <trkpt lat="45.86757" lon="3.68315">
        <ele>700</ele>
        <time>2015-08-05T14:55:59Z</time>
      </trkpt>
      <trkpt lat="45.86755" lon="3.68318">
        <ele>700</ele>
        <time>2015-08-05T14:56:03Z</time>
      </trkpt>
      <trkpt lat="45.86753" lon="3.6832">
        <ele>700</ele>
        <time>2015-08-05T14:56:05Z</time>
      </trkpt>
      <trkpt lat="45.86749" lon="3.68327">
        <ele>700</ele>
        <time>2015-08-05T14:56:13Z</time>
      </trkpt>
      <trkpt lat="45.86749" lon="3.68328">
        <ele>700</ele>
        <time>2015-08-05T14:56:15Z</time>
      </trkpt>
      <trkpt lat="45.86747" lon="3.68333">
        <ele>700</ele>
        <time>2015-08-05T14:56:18Z</time>
      </trkpt>
      <trkpt lat="45.86746" lon="3.68338">
        <ele>700</ele>
        <time>2015-08-05T14:56:21Z</time>
      </trkpt>
      <trkpt lat="45.86746" lon="3.68339">
        <ele>700</ele>
        <time>2015-08-05T14:56:23Z</time>
      </trkpt>
      <trkpt lat="45.86742" lon="3.68341">
        <ele>700</ele>
        <time>2015-08-05T14:56:27Z</time>
      </trkpt>
      <trkpt lat="45.86742" lon="3.68343">
        <ele>700</ele>
        <time>2015-08-05T14:56:29Z</time>
      </trkpt>
      <trkpt lat="45.86741" lon="3.68344">
        <ele>700</ele>
        <time>2015-08-05T14:56:31Z</time>
      </trkpt>
      <trkpt lat="45.86738" lon="3.68344">
        <ele>700</ele>
        <time>2015-08-05T14:56:34Z</time>
      </trkpt>
      <trkpt lat="45.86736" lon="3.68349">
        <ele>701</ele>
        <time>2015-08-05T14:56:38Z</time>
      </trkpt>
      <trkpt lat="45.86734" lon="3.68351">
        <ele>701</ele>
        <time>2015-08-05T14:56:40Z</time>
      </trkpt>
      <trkpt lat="45.86733" lon="3.68353">
        <ele>701</ele>
        <time>2015-08-05T14:56:43Z</time>
      </trkpt>
      <trkpt lat="45.86728" lon="3.68354">
        <ele>701</ele>
        <time>2015-08-05T14:56:47Z</time>
      </trkpt>
      <trkpt lat="45.86727" lon="3.68355">
        <ele>702</ele>
        <time>2015-08-05T14:56:49Z</time>
      </trkpt>
      <trkpt lat="45.86723" lon="3.68353">
        <ele>704</ele>
        <time>2015-08-05T14:56:51Z</time>
      </trkpt>
      <trkpt lat="45.8672" lon="3.68355">
        <ele>706</ele>
        <time>2015-08-05T14:56:54Z</time>
      </trkpt>
      <trkpt lat="45.86719" lon="3.68358">
        <ele>706</ele>
        <time>2015-08-05T14:56:57Z</time>
      </trkpt>
      <trkpt lat="45.86718" lon="3.68361">
        <ele>706</ele>
        <time>2015-08-05T14:56:59Z</time>
      </trkpt>
      <trkpt lat="45.8672" lon="3.68362">
        <ele>707</ele>
        <time>2015-08-05T14:57:01Z</time>
      </trkpt>
      <trkpt lat="45.86718" lon="3.68365">
        <ele>707</ele>
        <time>2015-08-05T14:57:04Z</time>
      </trkpt>
      <trkpt lat="45.86713" lon="3.68365">
        <ele>707</ele>
        <time>2015-08-05T14:57:09Z</time>
      </trkpt>
      <trkpt lat="45.8671" lon="3.68367">
        <ele>710</ele>
        <time>2015-08-05T14:57:15Z</time>
      </trkpt>
      <trkpt lat="45.86705" lon="3.68373">
        <ele>712</ele>
        <time>2015-08-05T14:57:19Z</time>
      </trkpt>
      <trkpt lat="45.86701" lon="3.68371">
        <ele>713</ele>
        <time>2015-08-05T14:57:23Z</time>
      </trkpt>
      <trkpt lat="45.867" lon="3.68372">
        <ele>714</ele>
        <time>2015-08-05T14:57:25Z</time>
      </trkpt>
      <trkpt lat="45.86692" lon="3.68371">
        <ele>718</ele>
        <time>2015-08-05T14:57:33Z</time>
      </trkpt>
      <trkpt lat="45.86691" lon="3.68372">
        <ele>719</ele>
        <time>2015-08-05T14:57:35Z</time>
      </trkpt>
      <trkpt lat="45.86689" lon="3.68372">
        <ele>719</ele>
        <time>2015-08-05T14:57:37Z</time>
      </trkpt>
      <trkpt lat="45.86684" lon="3.68371">
        <ele>720</ele>
        <time>2015-08-05T14:57:43Z</time>
      </trkpt>
      <trkpt lat="45.86679" lon="3.68373">
        <ele>720</ele>
        <time>2015-08-05T14:57:49Z</time>
      </trkpt>
      <trkpt lat="45.86673" lon="3.68372">
        <ele>720</ele>
        <time>2015-08-05T14:57:58Z</time>
      </trkpt>
      <trkpt lat="45.86669" lon="3.68369">
        <ele>720</ele>
        <time>2015-08-05T14:58:03Z</time>
      </trkpt>
      <trkpt lat="45.86668" lon="3.68368">
        <ele>720</ele>
        <time>2015-08-05T14:58:06Z</time>
      </trkpt>
      <trkpt lat="45.86665" lon="3.6837">
        <ele>721</ele>
        <time>2015-08-05T14:58:12Z</time>
      </trkpt>
      <trkpt lat="45.86665" lon="3.68372">
        <ele>721</ele>
        <time>2015-08-05T14:58:14Z</time>
      </trkpt>
      <trkpt lat="45.86664" lon="3.68374">
        <ele>721</ele>
        <time>2015-08-05T14:58:16Z</time>
      </trkpt>
      <trkpt lat="45.86663" lon="3.68374">
        <ele>721</ele>
        <time>2015-08-05T14:58:18Z</time>
      </trkpt>
      <trkpt lat="45.86661" lon="3.68376">
        <ele>721</ele>
        <time>2015-08-05T14:58:21Z</time>
      </trkpt>
      <trkpt lat="45.86659" lon="3.68377">
        <ele>721</ele>
        <time>2015-08-05T14:58:23Z</time>
      </trkpt>
      <trkpt lat="45.86653" lon="3.68378">
        <ele>721</ele>
        <time>2015-08-05T14:58:29Z</time>
      </trkpt>
      <trkpt lat="45.86645" lon="3.68373">
        <ele>720</ele>
        <time>2015-08-05T14:58:37Z</time>
      </trkpt>
      <trkpt lat="45.86641" lon="3.68374">
        <ele>720</ele>
        <time>2015-08-05T14:58:42Z</time>
      </trkpt>
      <trkpt lat="45.8664" lon="3.68375">
        <ele>720</ele>
        <time>2015-08-05T14:58:44Z</time>
      </trkpt>
      <trkpt lat="45.86637" lon="3.68377">
        <ele>720</ele>
        <time>2015-08-05T14:58:48Z</time>
      </trkpt>
      <trkpt lat="45.86635" lon="3.68377">
        <ele>720</ele>
        <time>2015-08-05T14:58:50Z</time>
      </trkpt>
      <trkpt lat="45.86634" lon="3.68377">
        <ele>720</ele>
        <time>2015-08-05T14:58:52Z</time>
      </trkpt>
      <trkpt lat="45.86631" lon="3.6838">
        <ele>720</ele>
        <time>2015-08-05T14:58:56Z</time>
      </trkpt>
      <trkpt lat="45.86626" lon="3.68382">
        <ele>720</ele>
        <time>2015-08-05T14:59:01Z</time>
      </trkpt>
      <trkpt lat="45.86622" lon="3.68382">
        <ele>720</ele>
        <time>2015-08-05T14:59:06Z</time>
      </trkpt>
      <trkpt lat="45.8662" lon="3.6838">
        <ele>720</ele>
        <time>2015-08-05T14:59:08Z</time>
      </trkpt>
      <trkpt lat="45.86618" lon="3.68381">
        <ele>720</ele>
        <time>2015-08-05T14:59:10Z</time>
      </trkpt>
      <trkpt lat="45.86614" lon="3.68381">
        <ele>720</ele>
        <time>2015-08-05T14:59:13Z</time>
      </trkpt>
      <trkpt lat="45.86613" lon="3.68381">
        <ele>722</ele>
        <time>2015-08-05T14:59:15Z</time>
      </trkpt>
      <trkpt lat="45.8661" lon="3.68379">
        <ele>724</ele>
        <time>2015-08-05T14:59:17Z</time>
      </trkpt>
      <trkpt lat="45.86605" lon="3.6838">
        <ele>728</ele>
        <time>2015-08-05T14:59:21Z</time>
      </trkpt>
      <trkpt lat="45.86603" lon="3.68383">
        <ele>731</ele>
        <time>2015-08-05T14:59:25Z</time>
      </trkpt>
      <trkpt lat="45.86599" lon="3.68383">
        <ele>732</ele>
        <time>2015-08-05T14:59:28Z</time>
      </trkpt>
      <trkpt lat="45.86597" lon="3.68384">
        <ele>733</ele>
        <time>2015-08-05T14:59:30Z</time>
      </trkpt>
      <trkpt lat="45.86596" lon="3.68385">
        <ele>733</ele>
        <time>2015-08-05T14:59:33Z</time>
      </trkpt>
      <trkpt lat="45.86594" lon="3.68386">
        <ele>733</ele>
        <time>2015-08-05T14:59:35Z</time>
      </trkpt>
      <trkpt lat="45.86591" lon="3.68389">
        <ele>733</ele>
        <time>2015-08-05T14:59:38Z</time>
      </trkpt>
      <trkpt lat="45.86591" lon="3.6839">
        <ele>733</ele>
        <time>2015-08-05T14:59:40Z</time>
      </trkpt>
      <trkpt lat="45.86589" lon="3.68392">
        <ele>733</ele>
        <time>2015-08-05T14:59:42Z</time>
      </trkpt>
      <trkpt lat="45.86583" lon="3.68399">
        <ele>733</ele>
        <time>2015-08-05T14:59:51Z</time>
      </trkpt>
      <trkpt lat="45.86582" lon="3.68399">
        <ele>733</ele>
        <time>2015-08-05T14:59:53Z</time>
      </trkpt>
      <trkpt lat="45.8658" lon="3.68403">
        <ele>733</ele>
        <time>2015-08-05T15:00:00Z</time>
      </trkpt>
      <trkpt lat="45.86579" lon="3.68405">
        <ele>733</ele>
        <time>2015-08-05T15:00:02Z</time>
      </trkpt>
      <trkpt lat="45.86576" lon="3.68406">
        <ele>733</ele>
        <time>2015-08-05T15:00:08Z</time>
      </trkpt>
      <trkpt lat="45.86573" lon="3.68407">
        <ele>733</ele>
        <time>2015-08-05T15:00:13Z</time>
      </trkpt>
      <trkpt lat="45.86572" lon="3.68409">
        <ele>733</ele>
        <time>2015-08-05T15:00:15Z</time>
      </trkpt>
      <trkpt lat="45.8657" lon="3.68411">
        <ele>733</ele>
        <time>2015-08-05T15:00:19Z</time>
      </trkpt>
      <trkpt lat="45.86568" lon="3.68412">
        <ele>733</ele>
        <time>2015-08-05T15:00:21Z</time>
      </trkpt>
      <trkpt lat="45.86567" lon="3.68412">
        <ele>733</ele>
        <time>2015-08-05T15:00:23Z</time>
      </trkpt>
      <trkpt lat="45.86565" lon="3.68413">
        <ele>733</ele>
        <time>2015-08-05T15:00:25Z</time>
      </trkpt>
      <trkpt lat="45.86563" lon="3.68413">
        <ele>734</ele>
        <time>2015-08-05T15:00:27Z</time>
      </trkpt>
      <trkpt lat="45.8656" lon="3.68416">
        <ele>735</ele>
        <time>2015-08-05T15:00:31Z</time>
      </trkpt>
      <trkpt lat="45.8656" lon="3.68418">
        <ele>736</ele>
        <time>2015-08-05T15:00:36Z</time>
      </trkpt>
      <trkpt lat="45.86558" lon="3.68418">
        <ele>738</ele>
        <time>2015-08-05T15:00:38Z</time>
      </trkpt>
      <trkpt lat="45.86555" lon="3.6842">
        <ele>738</ele>
        <time>2015-08-05T15:00:41Z</time>
      </trkpt>
      <trkpt lat="45.86551" lon="3.68421">
        <ele>741</ele>
        <time>2015-08-05T15:00:47Z</time>
      </trkpt>
      <trkpt lat="45.86542" lon="3.68428">
        <ele>743</ele>
        <time>2015-08-05T15:00:56Z</time>
      </trkpt>
      <trkpt lat="45.86541" lon="3.68429">
        <ele>743</ele>
        <time>2015-08-05T15:00:58Z</time>
      </trkpt>
      <trkpt lat="45.86536" lon="3.68432">
        <ele>743</ele>
        <time>2015-08-05T15:01:02Z</time>
      </trkpt>
      <trkpt lat="45.86531" lon="3.68435">
        <ele>743</ele>
        <time>2015-08-05T15:01:06Z</time>
      </trkpt>
      <trkpt lat="45.86527" lon="3.68441">
        <ele>740</ele>
        <time>2015-08-05T15:01:12Z</time>
      </trkpt>
      <trkpt lat="45.86523" lon="3.68445">
        <ele>740</ele>
        <time>2015-08-05T15:01:19Z</time>
      </trkpt>
      <trkpt lat="45.86517" lon="3.68448">
        <ele>740</ele>
        <time>2015-08-05T15:01:25Z</time>
      </trkpt>
      <trkpt lat="45.86516" lon="3.68448">
        <ele>740</ele>
        <time>2015-08-05T15:01:28Z</time>
      </trkpt>
      <trkpt lat="45.86513" lon="3.68447">
        <ele>740</ele>
        <time>2015-08-05T15:01:32Z</time>
      </trkpt>
      <trkpt lat="45.86509" lon="3.68448">
        <ele>740</ele>
        <time>2015-08-05T15:01:38Z</time>
      </trkpt>
      <trkpt lat="45.86509" lon="3.6845">
        <ele>740</ele>
        <time>2015-08-05T15:01:40Z</time>
      </trkpt>
      <trkpt lat="45.86507" lon="3.6845">
        <ele>740</ele>
        <time>2015-08-05T15:01:42Z</time>
      </trkpt>
      <trkpt lat="45.86505" lon="3.68453">
        <ele>740</ele>
        <time>2015-08-05T15:01:44Z</time>
      </trkpt>
      <trkpt lat="45.86502" lon="3.68452">
        <ele>742</ele>
        <time>2015-08-05T15:01:46Z</time>
      </trkpt>
      <trkpt lat="45.865" lon="3.68451">
        <ele>744</ele>
        <time>2015-08-05T15:01:48Z</time>
      </trkpt>
      <trkpt lat="45.86498" lon="3.68453">
        <ele>746</ele>
        <time>2015-08-05T15:01:50Z</time>
      </trkpt>
      <trkpt lat="45.86493" lon="3.68453">
        <ele>748</ele>
        <time>2015-08-05T15:01:54Z</time>
      </trkpt>
      <trkpt lat="45.86489" lon="3.68456">
        <ele>749</ele>
        <time>2015-08-05T15:01:57Z</time>
      </trkpt>
      <trkpt lat="45.86485" lon="3.6846">
        <ele>750</ele>
        <time>2015-08-05T15:02:02Z</time>
      </trkpt>
      <trkpt lat="45.86484" lon="3.68462">
        <ele>750</ele>
        <time>2015-08-05T15:02:04Z</time>
      </trkpt>
      <trkpt lat="45.86482" lon="3.68463">
        <ele>750</ele>
        <time>2015-08-05T15:02:06Z</time>
      </trkpt>
      <trkpt lat="45.8648" lon="3.68465">
        <ele>750</ele>
        <time>2015-08-05T15:02:08Z</time>
      </trkpt>
      <trkpt lat="45.86475" lon="3.68466">
        <ele>753</ele>
        <time>2015-08-05T15:02:16Z</time>
      </trkpt>
      <trkpt lat="45.86471" lon="3.68476">
        <ele>753</ele>
        <time>2015-08-05T15:02:26Z</time>
      </trkpt>
      <trkpt lat="45.86469" lon="3.68476">
        <ele>753</ele>
        <time>2015-08-05T15:02:28Z</time>
      </trkpt>
      <trkpt lat="45.86467" lon="3.68476">
        <ele>754</ele>
        <time>2015-08-05T15:02:30Z</time>
      </trkpt>
      <trkpt lat="45.86463" lon="3.68479">
        <ele>755</ele>
        <time>2015-08-05T15:02:32Z</time>
      </trkpt>
      <trkpt lat="45.86457" lon="3.68481">
        <ele>756</ele>
        <time>2015-08-05T15:02:37Z</time>
      </trkpt>
      <trkpt lat="45.86458" lon="3.68479">
        <ele>757</ele>
        <time>2015-08-05T15:02:39Z</time>
      </trkpt>
      <trkpt lat="45.86456" lon="3.6848">
        <ele>757</ele>
        <time>2015-08-05T15:02:42Z</time>
      </trkpt>
      <trkpt lat="45.86454" lon="3.6848">
        <ele>758</ele>
        <time>2015-08-05T15:02:44Z</time>
      </trkpt>
      <trkpt lat="45.86453" lon="3.6848">
        <ele>758</ele>
        <time>2015-08-05T15:02:46Z</time>
      </trkpt>
      <trkpt lat="45.86451" lon="3.68483">
        <ele>758</ele>
        <time>2015-08-05T15:02:49Z</time>
      </trkpt>
      <trkpt lat="45.86449" lon="3.68483">
        <ele>758</ele>
        <time>2015-08-05T15:02:51Z</time>
      </trkpt>
      <trkpt lat="45.86447" lon="3.68486">
        <ele>758</ele>
        <time>2015-08-05T15:02:55Z</time>
      </trkpt>
      <trkpt lat="45.86444" lon="3.68491">
        <ele>758</ele>
        <time>2015-08-05T15:02:59Z</time>
      </trkpt>
      <trkpt lat="45.86436" lon="3.68493">
        <ele>758</ele>
        <time>2015-08-05T15:03:11Z</time>
      </trkpt>
      <trkpt lat="45.86434" lon="3.68494">
        <ele>758</ele>
        <time>2015-08-05T15:03:14Z</time>
      </trkpt>
      <trkpt lat="45.86433" lon="3.68495">
        <ele>758</ele>
        <time>2015-08-05T15:03:17Z</time>
      </trkpt>
      <trkpt lat="45.8643" lon="3.68495">
        <ele>758</ele>
        <time>2015-08-05T15:03:20Z</time>
      </trkpt>
      <trkpt lat="45.86425" lon="3.68499">
        <ele>758</ele>
        <time>2015-08-05T15:03:25Z</time>
      </trkpt>
      <trkpt lat="45.86423" lon="3.68499">
        <ele>758</ele>
        <time>2015-08-05T15:03:27Z</time>
      </trkpt>
      <trkpt lat="45.86421" lon="3.685">
        <ele>758</ele>
        <time>2015-08-05T15:03:29Z</time>
      </trkpt>
      <trkpt lat="45.8642" lon="3.68502">
        <ele>758</ele>
        <time>2015-08-05T15:03:31Z</time>
      </trkpt>
      <trkpt lat="45.86418" lon="3.68502">
        <ele>758</ele>
        <time>2015-08-05T15:03:34Z</time>
      </trkpt>
      <trkpt lat="45.86415" lon="3.68504">
        <ele>758</ele>
        <time>2015-08-05T15:03:38Z</time>
      </trkpt>
      <trkpt lat="45.86414" lon="3.68506">
        <ele>758</ele>
        <time>2015-08-05T15:03:40Z</time>
      </trkpt>
      <trkpt lat="45.86409" lon="3.68508">
        <ele>758</ele>
        <time>2015-08-05T15:03:46Z</time>
      </trkpt>
      <trkpt lat="45.86408" lon="3.6851">
        <ele>758</ele>
        <time>2015-08-05T15:03:48Z</time>
      </trkpt>
      <trkpt lat="45.86405" lon="3.6851">
        <ele>758</ele>
        <time>2015-08-05T15:03:50Z</time>
      </trkpt>
      <trkpt lat="45.864" lon="3.68512">
        <ele>759</ele>
        <time>2015-08-05T15:03:54Z</time>
      </trkpt>
      <trkpt lat="45.86396" lon="3.68513">
        <ele>761</ele>
        <time>2015-08-05T15:03:57Z</time>
      </trkpt>
      <trkpt lat="45.86394" lon="3.68517">
        <ele>762</ele>
        <time>2015-08-05T15:04:00Z</time>
      </trkpt>
      <trkpt lat="45.86389" lon="3.68523">
        <ele>762</ele>
        <time>2015-08-05T15:04:06Z</time>
      </trkpt>
      <trkpt lat="45.86387" lon="3.68524">
        <ele>762</ele>
        <time>2015-08-05T15:04:08Z</time>
      </trkpt>
      <trkpt lat="45.86384" lon="3.68527">
        <ele>762</ele>
        <time>2015-08-05T15:04:11Z</time>
      </trkpt>
      <trkpt lat="45.86383" lon="3.68527">
        <ele>762</ele>
        <time>2015-08-05T15:04:13Z</time>
      </trkpt>
      <trkpt lat="45.8638" lon="3.68528">
        <ele>762</ele>
        <time>2015-08-05T15:04:16Z</time>
      </trkpt>
      <trkpt lat="45.86374" lon="3.68531">
        <ele>762</ele>
        <time>2015-08-05T15:04:20Z</time>
      </trkpt>
      <trkpt lat="45.86368" lon="3.68532">
        <ele>765</ele>
        <time>2015-08-05T15:04:25Z</time>
      </trkpt>
      <trkpt lat="45.86366" lon="3.68534">
        <ele>766</ele>
        <time>2015-08-05T15:04:27Z</time>
      </trkpt>
      <trkpt lat="45.8636" lon="3.68534">
        <ele>768</ele>
        <time>2015-08-05T15:04:32Z</time>
      </trkpt>
      <trkpt lat="45.86356" lon="3.68537">
        <ele>769</ele>
        <time>2015-08-05T15:04:36Z</time>
      </trkpt>
      <trkpt lat="45.86353" lon="3.68539">
        <ele>769</ele>
        <time>2015-08-05T15:04:39Z</time>
      </trkpt>
      <trkpt lat="45.86351" lon="3.68541">
        <ele>769</ele>
        <time>2015-08-05T15:04:41Z</time>
      </trkpt>
      <trkpt lat="45.8635" lon="3.68543">
        <ele>769</ele>
        <time>2015-08-05T15:04:43Z</time>
      </trkpt>
      <trkpt lat="45.86348" lon="3.68544">
        <ele>769</ele>
        <time>2015-08-05T15:04:45Z</time>
      </trkpt>
      <trkpt lat="45.86343" lon="3.68548">
        <ele>769</ele>
        <time>2015-08-05T15:04:50Z</time>
      </trkpt>
      <trkpt lat="45.86341" lon="3.68552">
        <ele>769</ele>
        <time>2015-08-05T15:04:53Z</time>
      </trkpt>
      <trkpt lat="45.86339" lon="3.68554">
        <ele>768</ele>
        <time>2015-08-05T15:04:55Z</time>
      </trkpt>
      <trkpt lat="45.86337" lon="3.68556">
        <ele>767</ele>
        <time>2015-08-05T15:04:57Z</time>
      </trkpt>
      <trkpt lat="45.86335" lon="3.68556">
        <ele>767</ele>
        <time>2015-08-05T15:04:59Z</time>
      </trkpt>
      <trkpt lat="45.86329" lon="3.68563">
        <ele>766</ele>
        <time>2015-08-05T15:05:05Z</time>
      </trkpt>
      <trkpt lat="45.86327" lon="3.68565">
        <ele>765</ele>
        <time>2015-08-05T15:05:07Z</time>
      </trkpt>
      <trkpt lat="45.86322" lon="3.68568">
        <ele>765</ele>
        <time>2015-08-05T15:05:12Z</time>
      </trkpt>
      <trkpt lat="45.86318" lon="3.68573">
        <ele>765</ele>
        <time>2015-08-05T15:05:17Z</time>
      </trkpt>
      <trkpt lat="45.86315" lon="3.68572">
        <ele>764</ele>
        <time>2015-08-05T15:05:19Z</time>
      </trkpt>
      <trkpt lat="45.86314" lon="3.68573">
        <ele>764</ele>
        <time>2015-08-05T15:05:21Z</time>
      </trkpt>
      <trkpt lat="45.86311" lon="3.68577">
        <ele>764</ele>
        <time>2015-08-05T15:05:24Z</time>
      </trkpt>
      <trkpt lat="45.86309" lon="3.68579">
        <ele>764</ele>
        <time>2015-08-05T15:05:26Z</time>
      </trkpt>
      <trkpt lat="45.86306" lon="3.68583">
        <ele>762</ele>
        <time>2015-08-05T15:05:29Z</time>
      </trkpt>
      <trkpt lat="45.86299" lon="3.68592">
        <ele>759</ele>
        <time>2015-08-05T15:05:37Z</time>
      </trkpt>
      <trkpt lat="45.86296" lon="3.68596">
        <ele>756</ele>
        <time>2015-08-05T15:05:40Z</time>
      </trkpt>
      <trkpt lat="45.8629" lon="3.68602">
        <ele>752</ele>
        <time>2015-08-05T15:05:47Z</time>
      </trkpt>
      <trkpt lat="45.86289" lon="3.68605">
        <ele>752</ele>
        <time>2015-08-05T15:05:49Z</time>
      </trkpt>
      <trkpt lat="45.86287" lon="3.68606">
        <ele>752</ele>
        <time>2015-08-05T15:05:51Z</time>
      </trkpt>
      <trkpt lat="45.86285" lon="3.68607">
        <ele>752</ele>
        <time>2015-08-05T15:05:53Z</time>
      </trkpt>
      <trkpt lat="45.86282" lon="3.68608">
        <ele>752</ele>
        <time>2015-08-05T15:05:55Z</time>
      </trkpt>
      <trkpt lat="45.8628" lon="3.68611">
        <ele>752</ele>
        <time>2015-08-05T15:05:57Z</time>
      </trkpt>
      <trkpt lat="45.86277" lon="3.68612">
        <ele>752</ele>
        <time>2015-08-05T15:05:59Z</time>
      </trkpt>
      <trkpt lat="45.86275" lon="3.68613">
        <ele>752</ele>
        <time>2015-08-05T15:06:01Z</time>
      </trkpt>
      <trkpt lat="45.86272" lon="3.68616">
        <ele>751</ele>
        <time>2015-08-05T15:06:04Z</time>
      </trkpt>
      <trkpt lat="45.86265" lon="3.6862">
        <ele>751</ele>
        <time>2015-08-05T15:06:08Z</time>
      </trkpt>
      <trkpt lat="45.8626" lon="3.68624">
        <ele>751</ele>
        <time>2015-08-05T15:06:13Z</time>
      </trkpt>
      <trkpt lat="45.86255" lon="3.68627">
        <ele>752</ele>
        <time>2015-08-05T15:06:17Z</time>
      </trkpt>
      <trkpt lat="45.86252" lon="3.6863">
        <ele>752</ele>
        <time>2015-08-05T15:06:21Z</time>
      </trkpt>
      <trkpt lat="45.86249" lon="3.68631">
        <ele>752</ele>
        <time>2015-08-05T15:06:23Z</time>
      </trkpt>
      <trkpt lat="45.86246" lon="3.68635">
        <ele>752</ele>
        <time>2015-08-05T15:06:27Z</time>
      </trkpt>
      <trkpt lat="45.86242" lon="3.68637">
        <ele>752</ele>
        <time>2015-08-05T15:06:31Z</time>
      </trkpt>
      <trkpt lat="45.86238" lon="3.68637">
        <ele>752</ele>
        <time>2015-08-05T15:06:35Z</time>
      </trkpt>
      <trkpt lat="45.86236" lon="3.68639">
        <ele>752</ele>
        <time>2015-08-05T15:06:37Z</time>
      </trkpt>
      <trkpt lat="45.86232" lon="3.6864">
        <ele>752</ele>
        <time>2015-08-05T15:06:40Z</time>
      </trkpt>
      <trkpt lat="45.8623" lon="3.68641">
        <ele>752</ele>
        <time>2015-08-05T15:06:42Z</time>
      </trkpt>
      <trkpt lat="45.86228" lon="3.68644">
        <ele>752</ele>
        <time>2015-08-05T15:06:45Z</time>
      </trkpt>
      <trkpt lat="45.86222" lon="3.68646">
        <ele>752</ele>
        <time>2015-08-05T15:06:51Z</time>
      </trkpt>
      <trkpt lat="45.8622" lon="3.68647">
        <ele>752</ele>
        <time>2015-08-05T15:06:53Z</time>
      </trkpt>
      <trkpt lat="45.86216" lon="3.68651">
        <ele>752</ele>
        <time>2015-08-05T15:06:57Z</time>
      </trkpt>
      <trkpt lat="45.86214" lon="3.68655">
        <ele>752</ele>
        <time>2015-08-05T15:07:00Z</time>
      </trkpt>
      <trkpt lat="45.86211" lon="3.68656">
        <ele>752</ele>
        <time>2015-08-05T15:07:03Z</time>
      </trkpt>
      <trkpt lat="45.86206" lon="3.68662">
        <ele>752</ele>
        <time>2015-08-05T15:07:09Z</time>
      </trkpt>
      <trkpt lat="45.86199" lon="3.68668">
        <ele>751</ele>
        <time>2015-08-05T15:07:15Z</time>
      </trkpt>
      <trkpt lat="45.86197" lon="3.6867">
        <ele>751</ele>
        <time>2015-08-05T15:07:17Z</time>
      </trkpt>
      <trkpt lat="45.86191" lon="3.68679">
        <ele>749</ele>
        <time>2015-08-05T15:07:24Z</time>
      </trkpt>
      <trkpt lat="45.86184" lon="3.68684">
        <ele>748</ele>
        <time>2015-08-05T15:07:30Z</time>
      </trkpt>
      <trkpt lat="45.86183" lon="3.68685">
        <ele>748</ele>
        <time>2015-08-05T15:07:32Z</time>
      </trkpt>
      <trkpt lat="45.86179" lon="3.68686">
        <ele>748</ele>
        <time>2015-08-05T15:07:34Z</time>
      </trkpt>
      <trkpt lat="45.86175" lon="3.68688">
        <ele>748</ele>
        <time>2015-08-05T15:07:38Z</time>
      </trkpt>
      <trkpt lat="45.86171" lon="3.68691">
        <ele>748</ele>
        <time>2015-08-05T15:07:41Z</time>
      </trkpt>
      <trkpt lat="45.86165" lon="3.68693">
        <ele>748</ele>
        <time>2015-08-05T15:07:46Z</time>
      </trkpt>
      <trkpt lat="45.86159" lon="3.68693">
        <ele>748</ele>
        <time>2015-08-05T15:07:50Z</time>
      </trkpt>
      <trkpt lat="45.86153" lon="3.68695">
        <ele>748</ele>
        <time>2015-08-05T15:07:55Z</time>
      </trkpt>
      <trkpt lat="45.8615" lon="3.68697">
        <ele>748</ele>
        <time>2015-08-05T15:07:58Z</time>
      </trkpt>
      <trkpt lat="45.86145" lon="3.68699">
        <ele>749</ele>
        <time>2015-08-05T15:08:02Z</time>
      </trkpt>
      <trkpt lat="45.86141" lon="3.68698">
        <ele>750</ele>
        <time>2015-08-05T15:08:04Z</time>
      </trkpt>
      <trkpt lat="45.86135" lon="3.68705">
        <ele>750</ele>
        <time>2015-08-05T15:08:10Z</time>
      </trkpt>
      <trkpt lat="45.86133" lon="3.68707">
        <ele>750</ele>
        <time>2015-08-05T15:08:12Z</time>
      </trkpt>
      <trkpt lat="45.86129" lon="3.68712">
        <ele>748</ele>
        <time>2015-08-05T15:08:18Z</time>
      </trkpt>
      <trkpt lat="45.86118" lon="3.68718">
        <ele>740</ele>
        <time>2015-08-05T15:08:28Z</time>
      </trkpt>
      <trkpt lat="45.86115" lon="3.68716">
        <ele>738</ele>
        <time>2015-08-05T15:08:30Z</time>
      </trkpt>
      <trkpt lat="45.86112" lon="3.68717">
        <ele>737</ele>
        <time>2015-08-05T15:08:32Z</time>
      </trkpt>
      <trkpt lat="45.8611" lon="3.68715">
        <ele>737</ele>
        <time>2015-08-05T15:08:34Z</time>
      </trkpt>
      <trkpt lat="45.86107" lon="3.68714">
        <ele>737</ele>
        <time>2015-08-05T15:08:36Z</time>
      </trkpt>
      <trkpt lat="45.86104" lon="3.68717">
        <ele>737</ele>
        <time>2015-08-05T15:08:39Z</time>
      </trkpt>
      <trkpt lat="45.86101" lon="3.68717">
        <ele>737</ele>
        <time>2015-08-05T15:08:41Z</time>
      </trkpt>
      <trkpt lat="45.86097" lon="3.68716">
        <ele>737</ele>
        <time>2015-08-05T15:08:43Z</time>
      </trkpt>
      <trkpt lat="45.86094" lon="3.68717">
        <ele>737</ele>
        <time>2015-08-05T15:08:45Z</time>
      </trkpt>
      <trkpt lat="45.86087" lon="3.68717">
        <ele>737</ele>
        <time>2015-08-05T15:08:49Z</time>
      </trkpt>
      <trkpt lat="45.86084" lon="3.68715">
        <ele>738</ele>
        <time>2015-08-05T15:08:51Z</time>
      </trkpt>
      <trkpt lat="45.86079" lon="3.68719">
        <ele>739</ele>
        <time>2015-08-05T15:08:55Z</time>
      </trkpt>
      <trkpt lat="45.86073" lon="3.68722">
        <ele>740</ele>
        <time>2015-08-05T15:09:00Z</time>
      </trkpt>
      <trkpt lat="45.86071" lon="3.68723">
        <ele>740</ele>
        <time>2015-08-05T15:09:02Z</time>
      </trkpt>
      <trkpt lat="45.86067" lon="3.68724">
        <ele>740</ele>
        <time>2015-08-05T15:09:05Z</time>
      </trkpt>
      <trkpt lat="45.86064" lon="3.68723">
        <ele>740</ele>
        <time>2015-08-05T15:09:07Z</time>
      </trkpt>
      <trkpt lat="45.86061" lon="3.6872">
        <ele>741</ele>
        <time>2015-08-05T15:09:09Z</time>
      </trkpt>
      <trkpt lat="45.8606" lon="3.6872">
        <ele>742</ele>
        <time>2015-08-05T15:09:11Z</time>
      </trkpt>
      <trkpt lat="45.86056" lon="3.68718">
        <ele>744</ele>
        <time>2015-08-05T15:09:14Z</time>
      </trkpt>
      <trkpt lat="45.86052" lon="3.68717">
        <ele>745</ele>
        <time>2015-08-05T15:09:19Z</time>
      </trkpt>
      <trkpt lat="45.86049" lon="3.68717">
        <ele>745</ele>
        <time>2015-08-05T15:09:23Z</time>
      </trkpt>
      <trkpt lat="45.86042" lon="3.68713">
        <ele>745</ele>
        <time>2015-08-05T15:09:28Z</time>
      </trkpt>
      <trkpt lat="45.86039" lon="3.68712">
        <ele>745</ele>
        <time>2015-08-05T15:09:30Z</time>
      </trkpt>
      <trkpt lat="45.86031" lon="3.68708">
        <ele>745</ele>
        <time>2015-08-05T15:09:36Z</time>
      </trkpt>
      <trkpt lat="45.86023" lon="3.68708">
        <ele>745</ele>
        <time>2015-08-05T15:09:42Z</time>
      </trkpt>
      <trkpt lat="45.86022" lon="3.68709">
        <ele>746</ele>
        <time>2015-08-05T15:09:44Z</time>
      </trkpt>
      <trkpt lat="45.8602" lon="3.68708">
        <ele>746</ele>
        <time>2015-08-05T15:09:46Z</time>
      </trkpt>
      <trkpt lat="45.86017" lon="3.68706">
        <ele>749</ele>
        <time>2015-08-05T15:09:49Z</time>
      </trkpt>
      <trkpt lat="45.86015" lon="3.68706">
        <ele>752</ele>
        <time>2015-08-05T15:09:52Z</time>
      </trkpt>
      <trkpt lat="45.86014" lon="3.68705">
        <ele>754</ele>
        <time>2015-08-05T15:09:54Z</time>
      </trkpt>
      <trkpt lat="45.8601" lon="3.68704">
        <ele>755</ele>
        <time>2015-08-05T15:10:09Z</time>
      </trkpt>
      <trkpt lat="45.8601" lon="3.68706">
        <ele>755</ele>
        <time>2015-08-05T15:10:13Z</time>
      </trkpt>
      <trkpt lat="45.86008" lon="3.68704">
        <ele>755</ele>
        <time>2015-08-05T15:10:15Z</time>
      </trkpt>
      <trkpt lat="45.86006" lon="3.68704">
        <ele>755</ele>
        <time>2015-08-05T15:10:21Z</time>
      </trkpt>
      <trkpt lat="45.86" lon="3.68699">
        <ele>767</ele>
        <time>2015-08-05T15:10:37Z</time>
      </trkpt>
      <trkpt lat="45.85997" lon="3.687">
        <ele>767</ele>
        <time>2015-08-05T15:10:40Z</time>
      </trkpt>
      <trkpt lat="45.85995" lon="3.68701">
        <ele>768</ele>
        <time>2015-08-05T15:10:42Z</time>
      </trkpt>
      <trkpt lat="45.85996" lon="3.68704">
        <ele>768</ele>
        <time>2015-08-05T15:10:47Z</time>
      </trkpt>
      <trkpt lat="45.85994" lon="3.68705">
        <ele>768</ele>
        <time>2015-08-05T15:10:51Z</time>
      </trkpt>
      <trkpt lat="45.85993" lon="3.68706">
        <ele>768</ele>
        <time>2015-08-05T15:10:54Z</time>
      </trkpt>
      <trkpt lat="45.85992" lon="3.68707">
        <ele>768</ele>
        <time>2015-08-05T15:10:58Z</time>
      </trkpt>
      <trkpt lat="45.8599" lon="3.68705">
        <ele>768</ele>
        <time>2015-08-05T15:11:01Z</time>
      </trkpt>
      <trkpt lat="45.85989" lon="3.68703">
        <ele>768</ele>
        <time>2015-08-05T15:11:03Z</time>
      </trkpt>
      <trkpt lat="45.85987" lon="3.68702">
        <ele>768</ele>
        <time>2015-08-05T15:11:06Z</time>
      </trkpt>
      <trkpt lat="45.85986" lon="3.68705">
        <ele>768</ele>
        <time>2015-08-05T15:11:09Z</time>
      </trkpt>
      <trkpt lat="45.85984" lon="3.68703">
        <ele>768</ele>
        <time>2015-08-05T15:11:11Z</time>
      </trkpt>
      <trkpt lat="45.85984" lon="3.68701">
        <ele>768</ele>
        <time>2015-08-05T15:11:13Z</time>
      </trkpt>
      <trkpt lat="45.85985" lon="3.68701">
        <ele>768</ele>
        <time>2015-08-05T15:11:15Z</time>
      </trkpt>
      <trkpt lat="45.85986" lon="3.68703">
        <ele>768</ele>
        <time>2015-08-05T15:11:17Z</time>
      </trkpt>
      <trkpt lat="45.85988" lon="3.6871">
        <ele>768</ele>
        <time>2015-08-05T15:11:24Z</time>
      </trkpt>
      <trkpt lat="45.85989" lon="3.68708">
        <ele>767</ele>
        <time>2015-08-05T15:11:27Z</time>
      </trkpt>
      <trkpt lat="45.85993" lon="3.68706">
        <ele>767</ele>
        <time>2015-08-05T15:11:31Z</time>
      </trkpt>
      <trkpt lat="45.85995" lon="3.68708">
        <ele>767</ele>
        <time>2015-08-05T15:11:33Z</time>
      </trkpt>
      <trkpt lat="45.85994" lon="3.68711">
        <ele>766</ele>
        <time>2015-08-05T15:11:39Z</time>
      </trkpt>
      <trkpt lat="45.85987" lon="3.68709">
        <ele>762</ele>
        <time>2015-08-05T15:11:48Z</time>
      </trkpt>
      <trkpt lat="45.85983" lon="3.68704">
        <ele>761</ele>
        <time>2015-08-05T15:11:51Z</time>
      </trkpt>
      <trkpt lat="45.85975" lon="3.6869">
        <ele>767</ele>
        <time>2015-08-05T15:12:00Z</time>
      </trkpt>
      <trkpt lat="45.85973" lon="3.68689">
        <ele>769</ele>
        <time>2015-08-05T15:12:02Z</time>
      </trkpt>
      <trkpt lat="45.85964" lon="3.68684">
        <ele>769</ele>
        <time>2015-08-05T15:12:13Z</time>
      </trkpt>
      <trkpt lat="45.85961" lon="3.68683">
        <ele>769</ele>
        <time>2015-08-05T15:12:15Z</time>
      </trkpt>
      <trkpt lat="45.85959" lon="3.68682">
        <ele>769</ele>
        <time>2015-08-05T15:12:17Z</time>
      </trkpt>
      <trkpt lat="45.85955" lon="3.6868">
        <ele>768</ele>
        <time>2015-08-05T15:12:21Z</time>
      </trkpt>
      <trkpt lat="45.85954" lon="3.68678">
        <ele>767</ele>
        <time>2015-08-05T15:12:23Z</time>
      </trkpt>
      <trkpt lat="45.85951" lon="3.68676">
        <ele>766</ele>
        <time>2015-08-05T15:12:26Z</time>
      </trkpt>
      <trkpt lat="45.85947" lon="3.68675">
        <ele>764</ele>
        <time>2015-08-05T15:12:30Z</time>
      </trkpt>
      <trkpt lat="45.85939" lon="3.68669">
        <ele>763</ele>
        <time>2015-08-05T15:12:36Z</time>
      </trkpt>
      <trkpt lat="45.85935" lon="3.68667">
        <ele>763</ele>
        <time>2015-08-05T15:12:41Z</time>
      </trkpt>
      <trkpt lat="45.85934" lon="3.68666">
        <ele>763</ele>
        <time>2015-08-05T15:12:44Z</time>
      </trkpt>
      <trkpt lat="45.85933" lon="3.68664">
        <ele>763</ele>
        <time>2015-08-05T15:12:47Z</time>
      </trkpt>
      <trkpt lat="45.85931" lon="3.68664">
        <ele>763</ele>
        <time>2015-08-05T15:12:49Z</time>
      </trkpt>
      <trkpt lat="45.85927" lon="3.68661">
        <ele>764</ele>
        <time>2015-08-05T15:12:55Z</time>
      </trkpt>
      <trkpt lat="45.85924" lon="3.68661">
        <ele>769</ele>
        <time>2015-08-05T15:13:00Z</time>
      </trkpt>
      <trkpt lat="45.85922" lon="3.68661">
        <ele>769</ele>
        <time>2015-08-05T15:13:02Z</time>
      </trkpt>
      <trkpt lat="45.85916" lon="3.68655">
        <ele>769</ele>
        <time>2015-08-05T15:13:09Z</time>
      </trkpt>
      <trkpt lat="45.85912" lon="3.68655">
        <ele>769</ele>
        <time>2015-08-05T15:13:13Z</time>
      </trkpt>
      <trkpt lat="45.85911" lon="3.68654">
        <ele>769</ele>
        <time>2015-08-05T15:13:15Z</time>
      </trkpt>
      <trkpt lat="45.85909" lon="3.68654">
        <ele>769</ele>
        <time>2015-08-05T15:13:17Z</time>
      </trkpt>
      <trkpt lat="45.85906" lon="3.68654">
        <ele>769</ele>
        <time>2015-08-05T15:13:20Z</time>
      </trkpt>
      <trkpt lat="45.85902" lon="3.68652">
        <ele>769</ele>
        <time>2015-08-05T15:13:24Z</time>
      </trkpt>
      <trkpt lat="45.85898" lon="3.68649">
        <ele>767</ele>
        <time>2015-08-05T15:13:30Z</time>
      </trkpt>
      <trkpt lat="45.85895" lon="3.68648">
        <ele>767</ele>
        <time>2015-08-05T15:13:33Z</time>
      </trkpt>
      <trkpt lat="45.85893" lon="3.68648">
        <ele>766</ele>
        <time>2015-08-05T15:13:35Z</time>
      </trkpt>
      <trkpt lat="45.85883" lon="3.68641">
        <ele>766</ele>
        <time>2015-08-05T15:13:43Z</time>
      </trkpt>
      <trkpt lat="45.85881" lon="3.68642">
        <ele>766</ele>
        <time>2015-08-05T15:13:45Z</time>
      </trkpt>
      <trkpt lat="45.85875" lon="3.68642">
        <ele>765</ele>
        <time>2015-08-05T15:13:51Z</time>
      </trkpt>
      <trkpt lat="45.85872" lon="3.68642">
        <ele>765</ele>
        <time>2015-08-05T15:13:53Z</time>
      </trkpt>
      <trkpt lat="45.8587" lon="3.68642">
        <ele>765</ele>
        <time>2015-08-05T15:13:55Z</time>
      </trkpt>
      <trkpt lat="45.85864" lon="3.68641">
        <ele>765</ele>
        <time>2015-08-05T15:14:00Z</time>
      </trkpt>
      <trkpt lat="45.8586" lon="3.68639">
        <ele>765</ele>
        <time>2015-08-05T15:14:04Z</time>
      </trkpt>
      <trkpt lat="45.85857" lon="3.68639">
        <ele>765</ele>
        <time>2015-08-05T15:14:06Z</time>
      </trkpt>
      <trkpt lat="45.85848" lon="3.68636">
        <ele>765</ele>
        <time>2015-08-05T15:14:13Z</time>
      </trkpt>
      <trkpt lat="45.85845" lon="3.68635">
        <ele>765</ele>
        <time>2015-08-05T15:14:15Z</time>
      </trkpt>
      <trkpt lat="45.85839" lon="3.68632">
        <ele>765</ele>
        <time>2015-08-05T15:14:20Z</time>
      </trkpt>
      <trkpt lat="45.85837" lon="3.68632">
        <ele>765</ele>
        <time>2015-08-05T15:14:22Z</time>
      </trkpt>
      <trkpt lat="45.85834" lon="3.68631">
        <ele>765</ele>
        <time>2015-08-05T15:14:25Z</time>
      </trkpt>
      <trkpt lat="45.85828" lon="3.6863">
        <ele>765</ele>
        <time>2015-08-05T15:14:31Z</time>
      </trkpt>
      <trkpt lat="45.85826" lon="3.6863">
        <ele>765</ele>
        <time>2015-08-05T15:14:33Z</time>
      </trkpt>
      <trkpt lat="45.85823" lon="3.6863">
        <ele>765</ele>
        <time>2015-08-05T15:14:35Z</time>
      </trkpt>
      <trkpt lat="45.8582" lon="3.68628">
        <ele>765</ele>
        <time>2015-08-05T15:14:37Z</time>
      </trkpt>
      <trkpt lat="45.85818" lon="3.68629">
        <ele>765</ele>
        <time>2015-08-05T15:14:39Z</time>
      </trkpt>
      <trkpt lat="45.85816" lon="3.68629">
        <ele>766</ele>
        <time>2015-08-05T15:14:41Z</time>
      </trkpt>
      <trkpt lat="45.85813" lon="3.68627">
        <ele>766</ele>
        <time>2015-08-05T15:14:43Z</time>
      </trkpt>
      <trkpt lat="45.85806" lon="3.68625">
        <ele>769</ele>
        <time>2015-08-05T15:14:49Z</time>
      </trkpt>
      <trkpt lat="45.85804" lon="3.68625">
        <ele>769</ele>
        <time>2015-08-05T15:14:51Z</time>
      </trkpt>
      <trkpt lat="45.85798" lon="3.68623">
        <ele>769</ele>
        <time>2015-08-05T15:14:55Z</time>
      </trkpt>
      <trkpt lat="45.85796" lon="3.68624">
        <ele>769</ele>
        <time>2015-08-05T15:14:57Z</time>
      </trkpt>
      <trkpt lat="45.85793" lon="3.68623">
        <ele>769</ele>
        <time>2015-08-05T15:14:59Z</time>
      </trkpt>
      <trkpt lat="45.85791" lon="3.68621">
        <ele>770</ele>
        <time>2015-08-05T15:15:01Z</time>
      </trkpt>
      <trkpt lat="45.85786" lon="3.6862">
        <ele>770</ele>
        <time>2015-08-05T15:15:05Z</time>
      </trkpt>
      <trkpt lat="45.85779" lon="3.68623">
        <ele>771</ele>
        <time>2015-08-05T15:15:11Z</time>
      </trkpt>
      <trkpt lat="45.85778" lon="3.68624">
        <ele>771</ele>
        <time>2015-08-05T15:15:13Z</time>
      </trkpt>
      <trkpt lat="45.85774" lon="3.68625">
        <ele>772</ele>
        <time>2015-08-05T15:15:17Z</time>
      </trkpt>
      <trkpt lat="45.8577" lon="3.68626">
        <ele>773</ele>
        <time>2015-08-05T15:15:20Z</time>
      </trkpt>
      <trkpt lat="45.85769" lon="3.68628">
        <ele>773</ele>
        <time>2015-08-05T15:15:22Z</time>
      </trkpt>
      <trkpt lat="45.85768" lon="3.68626">
        <ele>774</ele>
        <time>2015-08-05T15:15:25Z</time>
      </trkpt>
      <trkpt lat="45.85768" lon="3.68623">
        <ele>778</ele>
        <time>2015-08-05T15:15:31Z</time>
      </trkpt>
      <trkpt lat="45.8577" lon="3.68622">
        <ele>779</ele>
        <time>2015-08-05T15:15:33Z</time>
      </trkpt>
      <trkpt lat="45.85773" lon="3.6862">
        <ele>779</ele>
        <time>2015-08-05T15:15:36Z</time>
      </trkpt>
      <trkpt lat="45.85775" lon="3.68618">
        <ele>779</ele>
        <time>2015-08-05T15:15:38Z</time>
      </trkpt>
      <trkpt lat="45.85775" lon="3.68616">
        <ele>779</ele>
        <time>2015-08-05T15:15:40Z</time>
      </trkpt>
      <trkpt lat="45.85777" lon="3.68614">
        <ele>779</ele>
        <time>2015-08-05T15:15:42Z</time>
      </trkpt>
      <trkpt lat="45.8578" lon="3.68611">
        <ele>779</ele>
        <time>2015-08-05T15:15:46Z</time>
      </trkpt>
      <trkpt lat="45.85778" lon="3.68611">
        <ele>779</ele>
        <time>2015-08-05T15:15:49Z</time>
      </trkpt>
      <trkpt lat="45.85775" lon="3.68615">
        <ele>779</ele>
        <time>2015-08-05T15:15:53Z</time>
      </trkpt>
      <trkpt lat="45.85769" lon="3.68623">
        <ele>779</ele>
        <time>2015-08-05T15:16:00Z</time>
      </trkpt>
      <trkpt lat="45.85765" lon="3.68626">
        <ele>779</ele>
        <time>2015-08-05T15:16:03Z</time>
      </trkpt>
      <trkpt lat="45.8576" lon="3.68629">
        <ele>779</ele>
        <time>2015-08-05T15:16:07Z</time>
      </trkpt>
      <trkpt lat="45.85755" lon="3.68633">
        <ele>779</ele>
        <time>2015-08-05T15:16:12Z</time>
      </trkpt>
      <trkpt lat="45.85748" lon="3.68637">
        <ele>779</ele>
        <time>2015-08-05T15:16:18Z</time>
      </trkpt>
      <trkpt lat="45.85741" lon="3.68643">
        <ele>779</ele>
        <time>2015-08-05T15:16:24Z</time>
      </trkpt>
      <trkpt lat="45.85739" lon="3.68645">
        <ele>779</ele>
        <time>2015-08-05T15:16:26Z</time>
      </trkpt>
      <trkpt lat="45.85732" lon="3.68648">
        <ele>779</ele>
        <time>2015-08-05T15:16:32Z</time>
      </trkpt>
      <trkpt lat="45.8573" lon="3.68649">
        <ele>779</ele>
        <time>2015-08-05T15:16:34Z</time>
      </trkpt>
      <trkpt lat="45.85714" lon="3.68656">
        <ele>779</ele>
        <time>2015-08-05T15:16:46Z</time>
      </trkpt>
      <trkpt lat="45.8571" lon="3.68657">
        <ele>779</ele>
        <time>2015-08-05T15:16:48Z</time>
      </trkpt>
      <trkpt lat="45.85705" lon="3.68659">
        <ele>779</ele>
        <time>2015-08-05T15:16:52Z</time>
      </trkpt>
      <trkpt lat="45.85698" lon="3.6866">
        <ele>779</ele>
        <time>2015-08-05T15:16:57Z</time>
      </trkpt>
      <trkpt lat="45.85692" lon="3.68662">
        <ele>779</ele>
        <time>2015-08-05T15:17:02Z</time>
      </trkpt>
      <trkpt lat="45.85689" lon="3.68665">
        <ele>779</ele>
        <time>2015-08-05T15:17:06Z</time>
      </trkpt>
      <trkpt lat="45.85687" lon="3.68667">
        <ele>779</ele>
        <time>2015-08-05T15:17:08Z</time>
      </trkpt>
      <trkpt lat="45.85685" lon="3.68669">
        <ele>779</ele>
        <time>2015-08-05T15:17:10Z</time>
      </trkpt>
      <trkpt lat="45.85682" lon="3.68672">
        <ele>779</ele>
        <time>2015-08-05T15:17:12Z</time>
      </trkpt>
      <trkpt lat="45.85678" lon="3.68675">
        <ele>779</ele>
        <time>2015-08-05T15:17:15Z</time>
      </trkpt>
      <trkpt lat="45.85663" lon="3.68695">
        <ele>779</ele>
        <time>2015-08-05T15:17:31Z</time>
      </trkpt>
      <trkpt lat="45.85661" lon="3.68698">
        <ele>778</ele>
        <time>2015-08-05T15:17:33Z</time>
      </trkpt>
      <trkpt lat="45.85656" lon="3.68708">
        <ele>776</ele>
        <time>2015-08-05T15:17:39Z</time>
      </trkpt>
      <trkpt lat="45.85654" lon="3.68711">
        <ele>776</ele>
        <time>2015-08-05T15:17:41Z</time>
      </trkpt>
      <trkpt lat="45.85652" lon="3.68718">
        <ele>775</ele>
        <time>2015-08-05T15:17:45Z</time>
      </trkpt>
      <trkpt lat="45.85645" lon="3.68731">
        <ele>773</ele>
        <time>2015-08-05T15:17:53Z</time>
      </trkpt>
      <trkpt lat="45.85642" lon="3.6874">
        <ele>773</ele>
        <time>2015-08-05T15:17:59Z</time>
      </trkpt>
      <trkpt lat="45.8564" lon="3.68742">
        <ele>773</ele>
        <time>2015-08-05T15:18:01Z</time>
      </trkpt>
      <trkpt lat="45.85639" lon="3.68746">
        <ele>772</ele>
        <time>2015-08-05T15:18:03Z</time>
      </trkpt>
      <trkpt lat="45.8563" lon="3.68763">
        <ele>770</ele>
        <time>2015-08-05T15:18:17Z</time>
      </trkpt>
      <trkpt lat="45.85627" lon="3.68769">
        <ele>770</ele>
        <time>2015-08-05T15:18:21Z</time>
      </trkpt>
      <trkpt lat="45.85626" lon="3.68772">
        <ele>770</ele>
        <time>2015-08-05T15:18:23Z</time>
      </trkpt>
      <trkpt lat="45.85624" lon="3.68773">
        <ele>769</ele>
        <time>2015-08-05T15:18:25Z</time>
      </trkpt>
      <trkpt lat="45.8562" lon="3.68778">
        <ele>769</ele>
        <time>2015-08-05T15:18:29Z</time>
      </trkpt>
      <trkpt lat="45.8561" lon="3.68789">
        <ele>768</ele>
        <time>2015-08-05T15:18:40Z</time>
      </trkpt>
      <trkpt lat="45.85607" lon="3.68795">
        <ele>768</ele>
        <time>2015-08-05T15:18:45Z</time>
      </trkpt>
      <trkpt lat="45.85603" lon="3.688">
        <ele>768</ele>
        <time>2015-08-05T15:18:49Z</time>
      </trkpt>
      <trkpt lat="45.85602" lon="3.68802">
        <ele>768</ele>
        <time>2015-08-05T15:18:51Z</time>
      </trkpt>
      <trkpt lat="45.85597" lon="3.68808">
        <ele>768</ele>
        <time>2015-08-05T15:18:56Z</time>
      </trkpt>
      <trkpt lat="45.8559" lon="3.68818">
        <ele>768</ele>
        <time>2015-08-05T15:19:05Z</time>
      </trkpt>
      <trkpt lat="45.85589" lon="3.68824">
        <ele>768</ele>
        <time>2015-08-05T15:19:11Z</time>
      </trkpt>
      <trkpt lat="45.85586" lon="3.68827">
        <ele>768</ele>
        <time>2015-08-05T15:19:15Z</time>
      </trkpt>
      <trkpt lat="45.85585" lon="3.68829">
        <ele>768</ele>
        <time>2015-08-05T15:19:17Z</time>
      </trkpt>
      <trkpt lat="45.85586" lon="3.68833">
        <ele>768</ele>
        <time>2015-08-05T15:19:21Z</time>
      </trkpt>
      <trkpt lat="45.85582" lon="3.68834">
        <ele>768</ele>
        <time>2015-08-05T15:19:26Z</time>
      </trkpt>
      <trkpt lat="45.85581" lon="3.68836">
        <ele>768</ele>
        <time>2015-08-05T15:19:28Z</time>
      </trkpt>
      <trkpt lat="45.8558" lon="3.68839">
        <ele>768</ele>
        <time>2015-08-05T15:19:30Z</time>
      </trkpt>
      <trkpt lat="45.85578" lon="3.68846">
        <ele>768</ele>
        <time>2015-08-05T15:19:35Z</time>
      </trkpt>
      <trkpt lat="45.85576" lon="3.68848">
        <ele>768</ele>
        <time>2015-08-05T15:19:37Z</time>
      </trkpt>
      <trkpt lat="45.85574" lon="3.68852">
        <ele>768</ele>
        <time>2015-08-05T15:19:41Z</time>
      </trkpt>
      <trkpt lat="45.85569" lon="3.68861">
        <ele>768</ele>
        <time>2015-08-05T15:19:48Z</time>
      </trkpt>
      <trkpt lat="45.85568" lon="3.68864">
        <ele>768</ele>
        <time>2015-08-05T15:19:50Z</time>
      </trkpt>
      <trkpt lat="45.85564" lon="3.68869">
        <ele>768</ele>
        <time>2015-08-05T15:19:55Z</time>
      </trkpt>
      <trkpt lat="45.85562" lon="3.68869">
        <ele>768</ele>
        <time>2015-08-05T15:19:57Z</time>
      </trkpt>
      <trkpt lat="45.85563" lon="3.68871">
        <ele>768</ele>
        <time>2015-08-05T15:20:00Z</time>
      </trkpt>
      <trkpt lat="45.85566" lon="3.68874">
        <ele>767</ele>
        <time>2015-08-05T15:20:06Z</time>
      </trkpt>
      <trkpt lat="45.85567" lon="3.68872">
        <ele>766</ele>
        <time>2015-08-05T15:20:09Z</time>
      </trkpt>
      <trkpt lat="45.85566" lon="3.68872">
        <ele>766</ele>
        <time>2015-08-05T15:20:11Z</time>
      </trkpt>
      <trkpt lat="45.85563" lon="3.6887">
        <ele>765</ele>
        <time>2015-08-05T15:20:19Z</time>
      </trkpt>
      <trkpt lat="45.85563" lon="3.68868">
        <ele>765</ele>
        <time>2015-08-05T15:20:23Z</time>
      </trkpt>
      <trkpt lat="45.85562" lon="3.68866">
        <ele>768</ele>
        <time>2015-08-05T15:20:28Z</time>
      </trkpt>
      <trkpt lat="45.85561" lon="3.68866">
        <ele>770</ele>
        <time>2015-08-05T15:20:32Z</time>
      </trkpt>
      <trkpt lat="45.8556" lon="3.68865">
        <ele>771</ele>
        <time>2015-08-05T15:20:36Z</time>
      </trkpt>
      <trkpt lat="45.85558" lon="3.68867">
        <ele>771</ele>
        <time>2015-08-05T15:20:43Z</time>
      </trkpt>
      <trkpt lat="45.85556" lon="3.68871">
        <ele>771</ele>
        <time>2015-08-05T15:20:48Z</time>
      </trkpt>
      <trkpt lat="45.85553" lon="3.68872">
        <ele>773</ele>
        <time>2015-08-05T15:20:51Z</time>
      </trkpt>
      <trkpt lat="45.85551" lon="3.68879">
        <ele>776</ele>
        <time>2015-08-05T15:20:57Z</time>
      </trkpt>
      <trkpt lat="45.85549" lon="3.68881">
        <ele>776</ele>
        <time>2015-08-05T15:20:59Z</time>
      </trkpt>
      <trkpt lat="45.85548" lon="3.68883">
        <ele>776</ele>
        <time>2015-08-05T15:21:01Z</time>
      </trkpt>
      <trkpt lat="45.85546" lon="3.68887">
        <ele>778</ele>
        <time>2015-08-05T15:21:06Z</time>
      </trkpt>
      <trkpt lat="45.85545" lon="3.68889">
        <ele>778</ele>
        <time>2015-08-05T15:21:08Z</time>
      </trkpt>
      <trkpt lat="45.85544" lon="3.68891">
        <ele>778</ele>
        <time>2015-08-05T15:21:10Z</time>
      </trkpt>
      <trkpt lat="45.8554" lon="3.68899">
        <ele>778</ele>
        <time>2015-08-05T15:21:16Z</time>
      </trkpt>
      <trkpt lat="45.85538" lon="3.68907">
        <ele>778</ele>
        <time>2015-08-05T15:21:22Z</time>
      </trkpt>
      <trkpt lat="45.85536" lon="3.6891">
        <ele>778</ele>
        <time>2015-08-05T15:21:25Z</time>
      </trkpt>
      <trkpt lat="45.85535" lon="3.68914">
        <ele>778</ele>
        <time>2015-08-05T15:21:27Z</time>
      </trkpt>
      <trkpt lat="45.85533" lon="3.68916">
        <ele>778</ele>
        <time>2015-08-05T15:21:29Z</time>
      </trkpt>
      <trkpt lat="45.85529" lon="3.6892">
        <ele>778</ele>
        <time>2015-08-05T15:21:33Z</time>
      </trkpt>
      <trkpt lat="45.85521" lon="3.6893">
        <ele>778</ele>
        <time>2015-08-05T15:21:42Z</time>
      </trkpt>
      <trkpt lat="45.85518" lon="3.68938">
        <ele>777</ele>
        <time>2015-08-05T15:21:46Z</time>
      </trkpt>
      <trkpt lat="45.85517" lon="3.6894">
        <ele>775</ele>
        <time>2015-08-05T15:21:48Z</time>
      </trkpt>
      <trkpt lat="45.85514" lon="3.6894">
        <ele>774</ele>
        <time>2015-08-05T15:21:57Z</time>
      </trkpt>
      <trkpt lat="45.8551" lon="3.68948">
        <ele>774</ele>
        <time>2015-08-05T15:22:02Z</time>
      </trkpt>
      <trkpt lat="45.85503" lon="3.68959">
        <ele>773</ele>
        <time>2015-08-05T15:22:10Z</time>
      </trkpt>
      <trkpt lat="45.85498" lon="3.68966">
        <ele>772</ele>
        <time>2015-08-05T15:22:15Z</time>
      </trkpt>
      <trkpt lat="45.85496" lon="3.68968">
        <ele>771</ele>
        <time>2015-08-05T15:22:17Z</time>
      </trkpt>
      <trkpt lat="45.85495" lon="3.68973">
        <ele>771</ele>
        <time>2015-08-05T15:22:20Z</time>
      </trkpt>
      <trkpt lat="45.85489" lon="3.68983">
        <ele>769</ele>
        <time>2015-08-05T15:22:27Z</time>
      </trkpt>
      <trkpt lat="45.85486" lon="3.68989">
        <ele>769</ele>
        <time>2015-08-05T15:22:31Z</time>
      </trkpt>
      <trkpt lat="45.85484" lon="3.68992">
        <ele>768</ele>
        <time>2015-08-05T15:22:33Z</time>
      </trkpt>
      <trkpt lat="45.85484" lon="3.68993">
        <ele>768</ele>
        <time>2015-08-05T15:22:37Z</time>
      </trkpt>
      <trkpt lat="45.85485" lon="3.68993">
        <ele>768</ele>
        <time>2015-08-05T15:22:41Z</time>
      </trkpt>
      <trkpt lat="45.85482" lon="3.69002">
        <ele>768</ele>
        <time>2015-08-05T15:22:50Z</time>
      </trkpt>
      <trkpt lat="45.85476" lon="3.69014">
        <ele>768</ele>
        <time>2015-08-05T15:22:58Z</time>
      </trkpt>
      <trkpt lat="45.85472" lon="3.69022">
        <ele>767</ele>
        <time>2015-08-05T15:23:03Z</time>
      </trkpt>
      <trkpt lat="45.8547" lon="3.69026">
        <ele>767</ele>
        <time>2015-08-05T15:23:05Z</time>
      </trkpt>
      <trkpt lat="45.85464" lon="3.69041">
        <ele>767</ele>
        <time>2015-08-05T15:23:14Z</time>
      </trkpt>
      <trkpt lat="45.85461" lon="3.69054">
        <ele>767</ele>
        <time>2015-08-05T15:23:21Z</time>
      </trkpt>
      <trkpt lat="45.85461" lon="3.69061">
        <ele>766</ele>
        <time>2015-08-05T15:23:25Z</time>
      </trkpt>
      <trkpt lat="45.85463" lon="3.69067">
        <ele>765</ele>
        <time>2015-08-05T15:23:28Z</time>
      </trkpt>
      <trkpt lat="45.85464" lon="3.6907">
        <ele>764</ele>
        <time>2015-08-05T15:23:30Z</time>
      </trkpt>
      <trkpt lat="45.85472" lon="3.6908">
        <ele>763</ele>
        <time>2015-08-05T15:23:40Z</time>
      </trkpt>
      <trkpt lat="45.85477" lon="3.69083">
        <ele>763</ele>
        <time>2015-08-05T15:23:44Z</time>
      </trkpt>
      <trkpt lat="45.8548" lon="3.69087">
        <ele>761</ele>
        <time>2015-08-05T15:23:48Z</time>
      </trkpt>
      <trkpt lat="45.85487" lon="3.69094">
        <ele>761</ele>
        <time>2015-08-05T15:23:54Z</time>
      </trkpt>
      <trkpt lat="45.85496" lon="3.69106">
        <ele>760</ele>
        <time>2015-08-05T15:24:04Z</time>
      </trkpt>
      <trkpt lat="45.85499" lon="3.69114">
        <ele>759</ele>
        <time>2015-08-05T15:24:10Z</time>
      </trkpt>
      <trkpt lat="45.85502" lon="3.69119">
        <ele>759</ele>
        <time>2015-08-05T15:24:13Z</time>
      </trkpt>
      <trkpt lat="45.85505" lon="3.69127">
        <ele>759</ele>
        <time>2015-08-05T15:24:18Z</time>
      </trkpt>
      <trkpt lat="45.85506" lon="3.69136">
        <ele>759</ele>
        <time>2015-08-05T15:24:23Z</time>
      </trkpt>
      <trkpt lat="45.85505" lon="3.69141">
        <ele>759</ele>
        <time>2015-08-05T15:24:26Z</time>
      </trkpt>
      <trkpt lat="45.85503" lon="3.69155">
        <ele>759</ele>
        <time>2015-08-05T15:24:34Z</time>
      </trkpt>
      <trkpt lat="45.85503" lon="3.69158">
        <ele>760</ele>
        <time>2015-08-05T15:24:36Z</time>
      </trkpt>
      <trkpt lat="45.85501" lon="3.69164">
        <ele>760</ele>
        <time>2015-08-05T15:24:40Z</time>
      </trkpt>
      <trkpt lat="45.855" lon="3.69171">
        <ele>761</ele>
        <time>2015-08-05T15:24:45Z</time>
      </trkpt>
      <trkpt lat="45.85499" lon="3.69174">
        <ele>761</ele>
        <time>2015-08-05T15:24:47Z</time>
      </trkpt>
      <trkpt lat="45.85496" lon="3.69183">
        <ele>762</ele>
        <time>2015-08-05T15:24:53Z</time>
      </trkpt>
      <trkpt lat="45.85494" lon="3.69197">
        <ele>764</ele>
        <time>2015-08-05T15:25:04Z</time>
      </trkpt>
      <trkpt lat="45.85493" lon="3.69204">
        <ele>764</ele>
        <time>2015-08-05T15:25:09Z</time>
      </trkpt>
      <trkpt lat="45.85492" lon="3.69212">
        <ele>765</ele>
        <time>2015-08-05T15:25:15Z</time>
      </trkpt>
      <trkpt lat="45.85491" lon="3.69219">
        <ele>765</ele>
        <time>2015-08-05T15:25:20Z</time>
      </trkpt>
      <trkpt lat="45.8549" lon="3.69222">
        <ele>765</ele>
        <time>2015-08-05T15:25:22Z</time>
      </trkpt>
      <trkpt lat="45.85488" lon="3.69226">
        <ele>765</ele>
        <time>2015-08-05T15:25:25Z</time>
      </trkpt>
      <trkpt lat="45.85486" lon="3.69232">
        <ele>765</ele>
        <time>2015-08-05T15:25:29Z</time>
      </trkpt>
      <trkpt lat="45.85482" lon="3.6924">
        <ele>766</ele>
        <time>2015-08-05T15:25:34Z</time>
      </trkpt>
      <trkpt lat="45.85477" lon="3.69253">
        <ele>767</ele>
        <time>2015-08-05T15:25:43Z</time>
      </trkpt>
      <trkpt lat="45.85474" lon="3.69259">
        <ele>767</ele>
        <time>2015-08-05T15:25:48Z</time>
      </trkpt>
      <trkpt lat="45.85472" lon="3.69264">
        <ele>767</ele>
        <time>2015-08-05T15:25:52Z</time>
      </trkpt>
      <trkpt lat="45.8547" lon="3.69266">
        <ele>767</ele>
        <time>2015-08-05T15:25:54Z</time>
      </trkpt>
      <trkpt lat="45.85463" lon="3.6928">
        <ele>767</ele>
        <time>2015-08-05T15:26:03Z</time>
      </trkpt>
      <trkpt lat="45.8546" lon="3.69288">
        <ele>768</ele>
        <time>2015-08-05T15:26:08Z</time>
      </trkpt>
      <trkpt lat="45.85458" lon="3.69291">
        <ele>768</ele>
        <time>2015-08-05T15:26:10Z</time>
      </trkpt>
      <trkpt lat="45.85454" lon="3.69309">
        <ele>768</ele>
        <time>2015-08-05T15:26:21Z</time>
      </trkpt>
      <trkpt lat="45.8545" lon="3.69321">
        <ele>769</ele>
        <time>2015-08-05T15:26:28Z</time>
      </trkpt>
      <trkpt lat="45.85449" lon="3.69325">
        <ele>769</ele>
        <time>2015-08-05T15:26:30Z</time>
      </trkpt>
      <trkpt lat="45.85447" lon="3.69329">
        <ele>770</ele>
        <time>2015-08-05T15:26:34Z</time>
      </trkpt>
      <trkpt lat="45.85443" lon="3.69332">
        <ele>770</ele>
        <time>2015-08-05T15:26:38Z</time>
      </trkpt>
      <trkpt lat="45.85441" lon="3.69335">
        <ele>770</ele>
        <time>2015-08-05T15:26:40Z</time>
      </trkpt>
      <trkpt lat="45.85431" lon="3.69341">
        <ele>770</ele>
        <time>2015-08-05T15:26:52Z</time>
      </trkpt>
      <trkpt lat="45.85427" lon="3.69342">
        <ele>771</ele>
        <time>2015-08-05T15:26:54Z</time>
      </trkpt>
      <trkpt lat="45.85424" lon="3.69345">
        <ele>772</ele>
        <time>2015-08-05T15:26:57Z</time>
      </trkpt>
      <trkpt lat="45.85422" lon="3.6935">
        <ele>773</ele>
        <time>2015-08-05T15:27:00Z</time>
      </trkpt>
      <trkpt lat="45.8542" lon="3.69356">
        <ele>774</ele>
        <time>2015-08-05T15:27:04Z</time>
      </trkpt>
      <trkpt lat="45.85419" lon="3.6936">
        <ele>774</ele>
        <time>2015-08-05T15:27:06Z</time>
      </trkpt>
      <trkpt lat="45.85418" lon="3.69363">
        <ele>774</ele>
        <time>2015-08-05T15:27:08Z</time>
      </trkpt>
      <trkpt lat="45.85418" lon="3.69368">
        <ele>774</ele>
        <time>2015-08-05T15:27:10Z</time>
      </trkpt>
      <trkpt lat="45.85417" lon="3.69374">
        <ele>774</ele>
        <time>2015-08-05T15:27:14Z</time>
      </trkpt>
      <trkpt lat="45.85416" lon="3.69385">
        <ele>774</ele>
        <time>2015-08-05T15:27:21Z</time>
      </trkpt>
      <trkpt lat="45.85415" lon="3.6939">
        <ele>774</ele>
        <time>2015-08-05T15:27:24Z</time>
      </trkpt>
      <trkpt lat="45.85412" lon="3.694">
        <ele>774</ele>
        <time>2015-08-05T15:27:30Z</time>
      </trkpt>
      <trkpt lat="45.85409" lon="3.69405">
        <ele>774</ele>
        <time>2015-08-05T15:27:34Z</time>
      </trkpt>
      <trkpt lat="45.85408" lon="3.69408">
        <ele>774</ele>
        <time>2015-08-05T15:27:36Z</time>
      </trkpt>
      <trkpt lat="45.85407" lon="3.69411">
        <ele>775</ele>
        <time>2015-08-05T15:27:38Z</time>
      </trkpt>
      <trkpt lat="45.85403" lon="3.69415">
        <ele>776</ele>
        <time>2015-08-05T15:27:42Z</time>
      </trkpt>
      <trkpt lat="45.85398" lon="3.69424">
        <ele>778</ele>
        <time>2015-08-05T15:27:50Z</time>
      </trkpt>
      <trkpt lat="45.85397" lon="3.69427">
        <ele>778</ele>
        <time>2015-08-05T15:27:53Z</time>
      </trkpt>
      <trkpt lat="45.85394" lon="3.69433">
        <ele>780</ele>
        <time>2015-08-05T15:28:03Z</time>
      </trkpt>
      <trkpt lat="45.85392" lon="3.69435">
        <ele>780</ele>
        <time>2015-08-05T15:28:05Z</time>
      </trkpt>
      <trkpt lat="45.85386" lon="3.6945">
        <ele>781</ele>
        <time>2015-08-05T15:28:15Z</time>
      </trkpt>
      <trkpt lat="45.85384" lon="3.69456">
        <ele>782</ele>
        <time>2015-08-05T15:28:19Z</time>
      </trkpt>
      <trkpt lat="45.85381" lon="3.69466">
        <ele>784</ele>
        <time>2015-08-05T15:28:25Z</time>
      </trkpt>
      <trkpt lat="45.8538" lon="3.69469">
        <ele>784</ele>
        <time>2015-08-05T15:28:27Z</time>
      </trkpt>
      <trkpt lat="45.8538" lon="3.69473">
        <ele>784</ele>
        <time>2015-08-05T15:28:29Z</time>
      </trkpt>
      <trkpt lat="45.85379" lon="3.69476">
        <ele>785</ele>
        <time>2015-08-05T15:28:31Z</time>
      </trkpt>
      <trkpt lat="45.85378" lon="3.69479">
        <ele>785</ele>
        <time>2015-08-05T15:28:33Z</time>
      </trkpt>
      <trkpt lat="45.85374" lon="3.695">
        <ele>788</ele>
        <time>2015-08-05T15:28:45Z</time>
      </trkpt>
      <trkpt lat="45.85373" lon="3.69504">
        <ele>788</ele>
        <time>2015-08-05T15:28:47Z</time>
      </trkpt>
      <trkpt lat="45.85373" lon="3.69507">
        <ele>788</ele>
        <time>2015-08-05T15:28:49Z</time>
      </trkpt>
      <trkpt lat="45.85371" lon="3.6951">
        <ele>789</ele>
        <time>2015-08-05T15:28:51Z</time>
      </trkpt>
      <trkpt lat="45.85369" lon="3.69512">
        <ele>789</ele>
        <time>2015-08-05T15:28:53Z</time>
      </trkpt>
      <trkpt lat="45.85366" lon="3.69514">
        <ele>789</ele>
        <time>2015-08-05T15:28:57Z</time>
      </trkpt>
      <trkpt lat="45.85364" lon="3.69514">
        <ele>789</ele>
        <time>2015-08-05T15:28:59Z</time>
      </trkpt>
      <trkpt lat="45.85361" lon="3.69513">
        <ele>789</ele>
        <time>2015-08-05T15:29:03Z</time>
      </trkpt>
      <trkpt lat="45.85346" lon="3.69508">
        <ele>789</ele>
        <time>2015-08-05T15:29:16Z</time>
      </trkpt>
      <trkpt lat="45.85337" lon="3.69506">
        <ele>789</ele>
        <time>2015-08-05T15:29:23Z</time>
      </trkpt>
      <trkpt lat="45.85332" lon="3.69505">
        <ele>788</ele>
        <time>2015-08-05T15:29:27Z</time>
      </trkpt>
      <trkpt lat="45.85327" lon="3.69503">
        <ele>787</ele>
        <time>2015-08-05T15:29:31Z</time>
      </trkpt>
      <trkpt lat="45.85309" lon="3.69499">
        <ele>785</ele>
        <time>2015-08-05T15:29:44Z</time>
      </trkpt>
      <trkpt lat="45.85303" lon="3.69499">
        <ele>784</ele>
        <time>2015-08-05T15:29:48Z</time>
      </trkpt>
      <trkpt lat="45.85297" lon="3.695">
        <ele>783</ele>
        <time>2015-08-05T15:29:52Z</time>
      </trkpt>
      <trkpt lat="45.85292" lon="3.69502">
        <ele>783</ele>
        <time>2015-08-05T15:29:56Z</time>
      </trkpt>
      <trkpt lat="45.85285" lon="3.69507">
        <ele>782</ele>
        <time>2015-08-05T15:30:02Z</time>
      </trkpt>
      <trkpt lat="45.85281" lon="3.6951">
        <ele>782</ele>
        <time>2015-08-05T15:30:05Z</time>
      </trkpt>
      <trkpt lat="45.85279" lon="3.69513">
        <ele>781</ele>
        <time>2015-08-05T15:30:07Z</time>
      </trkpt>
      <trkpt lat="45.85275" lon="3.69521">
        <ele>781</ele>
        <time>2015-08-05T15:30:13Z</time>
      </trkpt>
      <trkpt lat="45.85271" lon="3.69525">
        <ele>781</ele>
        <time>2015-08-05T15:30:17Z</time>
      </trkpt>
      <trkpt lat="45.85267" lon="3.69526">
        <ele>781</ele>
        <time>2015-08-05T15:30:20Z</time>
      </trkpt>
      <trkpt lat="45.85265" lon="3.69526">
        <ele>780</ele>
        <time>2015-08-05T15:30:22Z</time>
      </trkpt>
      <trkpt lat="45.8526" lon="3.69525">
        <ele>778</ele>
        <time>2015-08-05T15:30:28Z</time>
      </trkpt>
      <trkpt lat="45.85257" lon="3.69523">
        <ele>778</ele>
        <time>2015-08-05T15:30:30Z</time>
      </trkpt>
      <trkpt lat="45.85254" lon="3.69522">
        <ele>778</ele>
        <time>2015-08-05T15:30:32Z</time>
      </trkpt>
      <trkpt lat="45.8525" lon="3.69521">
        <ele>778</ele>
        <time>2015-08-05T15:30:35Z</time>
      </trkpt>
      <trkpt lat="45.85249" lon="3.69522">
        <ele>778</ele>
        <time>2015-08-05T15:30:37Z</time>
      </trkpt>
      <trkpt lat="45.85246" lon="3.69521">
        <ele>777</ele>
        <time>2015-08-05T15:30:39Z</time>
      </trkpt>
      <trkpt lat="45.85244" lon="3.69523">
        <ele>777</ele>
        <time>2015-08-05T15:30:41Z</time>
      </trkpt>
      <trkpt lat="45.85241" lon="3.6953">
        <ele>776</ele>
        <time>2015-08-05T15:30:45Z</time>
      </trkpt>
      <trkpt lat="45.85238" lon="3.69536">
        <ele>774</ele>
        <time>2015-08-05T15:30:49Z</time>
      </trkpt>
      <trkpt lat="45.85237" lon="3.69544">
        <ele>772</ele>
        <time>2015-08-05T15:30:53Z</time>
      </trkpt>
      <trkpt lat="45.85236" lon="3.69548">
        <ele>771</ele>
        <time>2015-08-05T15:30:56Z</time>
      </trkpt>
      <trkpt lat="45.85235" lon="3.69551">
        <ele>771</ele>
        <time>2015-08-05T15:30:58Z</time>
      </trkpt>
      <trkpt lat="45.85234" lon="3.69556">
        <ele>771</ele>
        <time>2015-08-05T15:31:00Z</time>
      </trkpt>
      <trkpt lat="45.85233" lon="3.6956">
        <ele>771</ele>
        <time>2015-08-05T15:31:02Z</time>
      </trkpt>
      <trkpt lat="45.85232" lon="3.69564">
        <ele>771</ele>
        <time>2015-08-05T15:31:04Z</time>
      </trkpt>
      <trkpt lat="45.85231" lon="3.69568">
        <ele>771</ele>
        <time>2015-08-05T15:31:06Z</time>
      </trkpt>
      <trkpt lat="45.8523" lon="3.69568">
        <ele>771</ele>
        <time>2015-08-05T15:31:11Z</time>
      </trkpt>
      <trkpt lat="45.85228" lon="3.69574">
        <ele>772</ele>
        <time>2015-08-05T15:31:15Z</time>
      </trkpt>
      <trkpt lat="45.85228" lon="3.69577">
        <ele>773</ele>
        <time>2015-08-05T15:31:17Z</time>
      </trkpt>
      <trkpt lat="45.85228" lon="3.69581">
        <ele>773</ele>
        <time>2015-08-05T15:31:19Z</time>
      </trkpt>
      <trkpt lat="45.85227" lon="3.69584">
        <ele>773</ele>
        <time>2015-08-05T15:31:21Z</time>
      </trkpt>
      <trkpt lat="45.85226" lon="3.69591">
        <ele>773</ele>
        <time>2015-08-05T15:31:25Z</time>
      </trkpt>
      <trkpt lat="45.85221" lon="3.69597">
        <ele>773</ele>
        <time>2015-08-05T15:31:30Z</time>
      </trkpt>
      <trkpt lat="45.85216" lon="3.69599">
        <ele>773</ele>
        <time>2015-08-05T15:31:34Z</time>
      </trkpt>
      <trkpt lat="45.85213" lon="3.69601">
        <ele>773</ele>
        <time>2015-08-05T15:31:39Z</time>
      </trkpt>
      <trkpt lat="45.85215" lon="3.69603">
        <ele>773</ele>
        <time>2015-08-05T15:31:44Z</time>
      </trkpt>
      <trkpt lat="45.85215" lon="3.69601">
        <ele>773</ele>
        <time>2015-08-05T15:31:52Z</time>
      </trkpt>
      <trkpt lat="45.85209" lon="3.69599">
        <ele>773</ele>
        <time>2015-08-05T15:32:01Z</time>
      </trkpt>
      <trkpt lat="45.85207" lon="3.69597">
        <ele>773</ele>
        <time>2015-08-05T15:32:03Z</time>
      </trkpt>
      <trkpt lat="45.85198" lon="3.69592">
        <ele>769</ele>
        <time>2015-08-05T15:32:13Z</time>
      </trkpt>
      <trkpt lat="45.85193" lon="3.6959">
        <ele>768</ele>
        <time>2015-08-05T15:32:18Z</time>
      </trkpt>
      <trkpt lat="45.85187" lon="3.69587">
        <ele>768</ele>
        <time>2015-08-05T15:32:28Z</time>
      </trkpt>
      <trkpt lat="45.85182" lon="3.69583">
        <ele>767</ele>
        <time>2015-08-05T15:32:34Z</time>
      </trkpt>
      <trkpt lat="45.8518" lon="3.69582">
        <ele>766</ele>
        <time>2015-08-05T15:32:36Z</time>
      </trkpt>
      <trkpt lat="45.85176" lon="3.69579">
        <ele>765</ele>
        <time>2015-08-05T15:32:40Z</time>
      </trkpt>
      <trkpt lat="45.85164" lon="3.69573">
        <ele>763</ele>
        <time>2015-08-05T15:32:50Z</time>
      </trkpt>
      <trkpt lat="45.8515" lon="3.69563">
        <ele>761</ele>
        <time>2015-08-05T15:33:03Z</time>
      </trkpt>
      <trkpt lat="45.85146" lon="3.69561">
        <ele>760</ele>
        <time>2015-08-05T15:33:07Z</time>
      </trkpt>
      <trkpt lat="45.85136" lon="3.69557">
        <ele>757</ele>
        <time>2015-08-05T15:33:15Z</time>
      </trkpt>
      <trkpt lat="45.85132" lon="3.69554">
        <ele>756</ele>
        <time>2015-08-05T15:33:19Z</time>
      </trkpt>
      <trkpt lat="45.85126" lon="3.69551">
        <ele>755</ele>
        <time>2015-08-05T15:33:24Z</time>
      </trkpt>
      <trkpt lat="45.85117" lon="3.69546">
        <ele>753</ele>
        <time>2015-08-05T15:33:33Z</time>
      </trkpt>
      <trkpt lat="45.85114" lon="3.69543">
        <ele>752</ele>
        <time>2015-08-05T15:33:37Z</time>
      </trkpt>
      <trkpt lat="45.85101" lon="3.69534">
        <ele>750</ele>
        <time>2015-08-05T15:33:49Z</time>
      </trkpt>
      <trkpt lat="45.85097" lon="3.69532">
        <ele>749</ele>
        <time>2015-08-05T15:33:53Z</time>
      </trkpt>
      <trkpt lat="45.85096" lon="3.69531">
        <ele>749</ele>
        <time>2015-08-05T15:34:01Z</time>
      </trkpt>
      <trkpt lat="45.85094" lon="3.69531">
        <ele>749</ele>
        <time>2015-08-05T15:34:04Z</time>
      </trkpt>
      <trkpt lat="45.85087" lon="3.69527">
        <ele>749</ele>
        <time>2015-08-05T15:34:10Z</time>
      </trkpt>
      <trkpt lat="45.85082" lon="3.69522">
        <ele>749</ele>
        <time>2015-08-05T15:34:15Z</time>
      </trkpt>
      <trkpt lat="45.85077" lon="3.69519">
        <ele>749</ele>
        <time>2015-08-05T15:34:19Z</time>
      </trkpt>
      <trkpt lat="45.85072" lon="3.69515">
        <ele>748</ele>
        <time>2015-08-05T15:34:23Z</time>
      </trkpt>
      <trkpt lat="45.85065" lon="3.69511">
        <ele>745</ele>
        <time>2015-08-05T15:34:29Z</time>
      </trkpt>
      <trkpt lat="45.85056" lon="3.69503">
        <ele>744</ele>
        <time>2015-08-05T15:34:37Z</time>
      </trkpt>
      <trkpt lat="45.85045" lon="3.69496">
        <ele>743</ele>
        <time>2015-08-05T15:34:46Z</time>
      </trkpt>
      <trkpt lat="45.85042" lon="3.69494">
        <ele>742</ele>
        <time>2015-08-05T15:34:49Z</time>
      </trkpt>
      <trkpt lat="45.85041" lon="3.69492">
        <ele>741</ele>
        <time>2015-08-05T15:34:51Z</time>
      </trkpt>
      <trkpt lat="45.85032" lon="3.69485">
        <ele>739</ele>
        <time>2015-08-05T15:34:59Z</time>
      </trkpt>
      <trkpt lat="45.8503" lon="3.69483">
        <ele>739</ele>
        <time>2015-08-05T15:35:01Z</time>
      </trkpt>
      <trkpt lat="45.85025" lon="3.6948">
        <ele>739</ele>
        <time>2015-08-05T15:35:05Z</time>
      </trkpt>
      <trkpt lat="45.85014" lon="3.69473">
        <ele>739</ele>
        <time>2015-08-05T15:35:15Z</time>
      </trkpt>
      <trkpt lat="45.8501" lon="3.69472">
        <ele>739</ele>
        <time>2015-08-05T15:35:18Z</time>
      </trkpt>
      <trkpt lat="45.85005" lon="3.69466">
        <ele>736</ele>
        <time>2015-08-05T15:35:24Z</time>
      </trkpt>
      <trkpt lat="45.84997" lon="3.69461">
        <ele>734</ele>
        <time>2015-08-05T15:35:31Z</time>
      </trkpt>
      <trkpt lat="45.84992" lon="3.69459">
        <ele>733</ele>
        <time>2015-08-05T15:35:35Z</time>
      </trkpt>
      <trkpt lat="45.84989" lon="3.69457">
        <ele>733</ele>
        <time>2015-08-05T15:35:38Z</time>
      </trkpt>
      <trkpt lat="45.84987" lon="3.69455">
        <ele>733</ele>
        <time>2015-08-05T15:35:40Z</time>
      </trkpt>
      <trkpt lat="45.84981" lon="3.69451">
        <ele>730</ele>
        <time>2015-08-05T15:35:45Z</time>
      </trkpt>
      <trkpt lat="45.84979" lon="3.69449">
        <ele>729</ele>
        <time>2015-08-05T15:35:47Z</time>
      </trkpt>
      <trkpt lat="45.84976" lon="3.69447">
        <ele>728</ele>
        <time>2015-08-05T15:35:49Z</time>
      </trkpt>
      <trkpt lat="45.84971" lon="3.69447">
        <ele>727</ele>
        <time>2015-08-05T15:35:53Z</time>
      </trkpt>
      <trkpt lat="45.8497" lon="3.69444">
        <ele>726</ele>
        <time>2015-08-05T15:35:55Z</time>
      </trkpt>
      <trkpt lat="45.84967" lon="3.69443">
        <ele>724</ele>
        <time>2015-08-05T15:35:57Z</time>
      </trkpt>
      <trkpt lat="45.84964" lon="3.69439">
        <ele>722</ele>
        <time>2015-08-05T15:36:01Z</time>
      </trkpt>
      <trkpt lat="45.84962" lon="3.69438">
        <ele>721</ele>
        <time>2015-08-05T15:36:03Z</time>
      </trkpt>
      <trkpt lat="45.84957" lon="3.69436">
        <ele>721</ele>
        <time>2015-08-05T15:36:08Z</time>
      </trkpt>
      <trkpt lat="45.8495" lon="3.6943">
        <ele>721</ele>
        <time>2015-08-05T15:36:13Z</time>
      </trkpt>
      <trkpt lat="45.84945" lon="3.69425">
        <ele>721</ele>
        <time>2015-08-05T15:36:18Z</time>
      </trkpt>
      <trkpt lat="45.84941" lon="3.69421">
        <ele>721</ele>
        <time>2015-08-05T15:36:21Z</time>
      </trkpt>
      <trkpt lat="45.8494" lon="3.69419">
        <ele>721</ele>
        <time>2015-08-05T15:36:23Z</time>
      </trkpt>
      <trkpt lat="45.84937" lon="3.69418">
        <ele>721</ele>
        <time>2015-08-05T15:36:25Z</time>
      </trkpt>
      <trkpt lat="45.84934" lon="3.69417">
        <ele>721</ele>
        <time>2015-08-05T15:36:27Z</time>
      </trkpt>
      <trkpt lat="45.84926" lon="3.69411">
        <ele>721</ele>
        <time>2015-08-05T15:36:33Z</time>
      </trkpt>
      <trkpt lat="45.84924" lon="3.6941">
        <ele>721</ele>
        <time>2015-08-05T15:36:35Z</time>
      </trkpt>
      <trkpt lat="45.84922" lon="3.69408">
        <ele>721</ele>
        <time>2015-08-05T15:36:37Z</time>
      </trkpt>
      <trkpt lat="45.84919" lon="3.69405">
        <ele>721</ele>
        <time>2015-08-05T15:36:41Z</time>
      </trkpt>
      <trkpt lat="45.84915" lon="3.69405">
        <ele>721</ele>
        <time>2015-08-05T15:36:45Z</time>
      </trkpt>
      <trkpt lat="45.84912" lon="3.69404">
        <ele>721</ele>
        <time>2015-08-05T15:36:48Z</time>
      </trkpt>
      <trkpt lat="45.8491" lon="3.69403">
        <ele>721</ele>
        <time>2015-08-05T15:36:50Z</time>
      </trkpt>
      <trkpt lat="45.84911" lon="3.69402">
        <ele>721</ele>
        <time>2015-08-05T15:36:58Z</time>
      </trkpt>
      <trkpt lat="45.84911" lon="3.694">
        <ele>720</ele>
        <time>2015-08-05T15:37:03Z</time>
      </trkpt>
      <trkpt lat="45.84911" lon="3.69399">
        <ele>720</ele>
        <time>2015-08-05T15:37:08Z</time>
      </trkpt>
      <trkpt lat="45.84909" lon="3.69398">
        <ele>720</ele>
        <time>2015-08-05T15:37:16Z</time>
      </trkpt>
      <trkpt lat="45.84901" lon="3.69388">
        <ele>719</ele>
        <time>2015-08-05T15:37:26Z</time>
      </trkpt>
      <trkpt lat="45.84899" lon="3.69386">
        <ele>719</ele>
        <time>2015-08-05T15:37:28Z</time>
      </trkpt>
      <trkpt lat="45.84897" lon="3.69384">
        <ele>718</ele>
        <time>2015-08-05T15:37:30Z</time>
      </trkpt>
      <trkpt lat="45.84893" lon="3.69379">
        <ele>717</ele>
        <time>2015-08-05T15:37:34Z</time>
      </trkpt>
      <trkpt lat="45.84885" lon="3.69373">
        <ele>717</ele>
        <time>2015-08-05T15:37:41Z</time>
      </trkpt>
      <trkpt lat="45.84881" lon="3.69368">
        <ele>716</ele>
        <time>2015-08-05T15:37:45Z</time>
      </trkpt>
      <trkpt lat="45.84868" lon="3.69355">
        <ele>712</ele>
        <time>2015-08-05T15:37:58Z</time>
      </trkpt>
      <trkpt lat="45.8486" lon="3.69345">
        <ele>712</ele>
        <time>2015-08-05T15:38:06Z</time>
      </trkpt>
      <trkpt lat="45.84858" lon="3.69343">
        <ele>711</ele>
        <time>2015-08-05T15:38:08Z</time>
      </trkpt>
      <trkpt lat="45.84856" lon="3.69341">
        <ele>711</ele>
        <time>2015-08-05T15:38:10Z</time>
      </trkpt>
      <trkpt lat="45.84848" lon="3.69333">
        <ele>711</ele>
        <time>2015-08-05T15:38:16Z</time>
      </trkpt>
      <trkpt lat="45.84847" lon="3.69331">
        <ele>711</ele>
        <time>2015-08-05T15:38:18Z</time>
      </trkpt>
      <trkpt lat="45.84843" lon="3.69326">
        <ele>711</ele>
        <time>2015-08-05T15:38:22Z</time>
      </trkpt>
      <trkpt lat="45.8484" lon="3.69323">
        <ele>711</ele>
        <time>2015-08-05T15:38:25Z</time>
      </trkpt>
      <trkpt lat="45.84838" lon="3.69321">
        <ele>710</ele>
        <time>2015-08-05T15:38:27Z</time>
      </trkpt>
      <trkpt lat="45.84835" lon="3.69318">
        <ele>710</ele>
        <time>2015-08-05T15:38:30Z</time>
      </trkpt>
      <trkpt lat="45.84826" lon="3.69307">
        <ele>709</ele>
        <time>2015-08-05T15:38:39Z</time>
      </trkpt>
      <trkpt lat="45.84825" lon="3.69304">
        <ele>709</ele>
        <time>2015-08-05T15:38:41Z</time>
      </trkpt>
      <trkpt lat="45.84819" lon="3.69297">
        <ele>708</ele>
        <time>2015-08-05T15:38:47Z</time>
      </trkpt>
      <trkpt lat="45.84815" lon="3.6929">
        <ele>706</ele>
        <time>2015-08-05T15:38:53Z</time>
      </trkpt>
      <trkpt lat="45.84814" lon="3.69287">
        <ele>706</ele>
        <time>2015-08-05T15:38:55Z</time>
      </trkpt>
      <trkpt lat="45.84811" lon="3.69285">
        <ele>706</ele>
        <time>2015-08-05T15:38:57Z</time>
      </trkpt>
      <trkpt lat="45.84788" lon="3.69249">
        <ele>706</ele>
        <time>2015-08-05T15:39:22Z</time>
      </trkpt>
      <trkpt lat="45.84786" lon="3.69246">
        <ele>706</ele>
        <time>2015-08-05T15:39:24Z</time>
      </trkpt>
      <trkpt lat="45.84782" lon="3.69239">
        <ele>706</ele>
        <time>2015-08-05T15:39:29Z</time>
      </trkpt>
      <trkpt lat="45.84779" lon="3.69236">
        <ele>706</ele>
        <time>2015-08-05T15:39:31Z</time>
      </trkpt>
      <trkpt lat="45.84772" lon="3.69225">
        <ele>706</ele>
        <time>2015-08-05T15:39:37Z</time>
      </trkpt>
      <trkpt lat="45.84766" lon="3.69219">
        <ele>706</ele>
        <time>2015-08-05T15:39:42Z</time>
      </trkpt>
      <trkpt lat="45.84763" lon="3.69215">
        <ele>706</ele>
        <time>2015-08-05T15:39:44Z</time>
      </trkpt>
      <trkpt lat="45.84759" lon="3.6921">
        <ele>708</ele>
        <time>2015-08-05T15:39:49Z</time>
      </trkpt>
      <trkpt lat="45.84759" lon="3.69208">
        <ele>708</ele>
        <time>2015-08-05T15:39:52Z</time>
      </trkpt>
      <trkpt lat="45.84756" lon="3.69206">
        <ele>710</ele>
        <time>2015-08-05T15:40:03Z</time>
      </trkpt>
      <trkpt lat="45.84756" lon="3.69204">
        <ele>710</ele>
        <time>2015-08-05T15:40:05Z</time>
      </trkpt>
      <trkpt lat="45.84755" lon="3.69204">
        <ele>710</ele>
        <time>2015-08-05T15:40:09Z</time>
      </trkpt>
      <trkpt lat="45.84754" lon="3.69203">
        <ele>710</ele>
        <time>2015-08-05T15:40:11Z</time>
      </trkpt>
      <trkpt lat="45.84749" lon="3.69198">
        <ele>710</ele>
        <time>2015-08-05T15:40:16Z</time>
      </trkpt>
      <trkpt lat="45.84745" lon="3.69192">
        <ele>710</ele>
        <time>2015-08-05T15:40:21Z</time>
      </trkpt>
      <trkpt lat="45.84743" lon="3.69189">
        <ele>710</ele>
        <time>2015-08-05T15:40:23Z</time>
      </trkpt>
      <trkpt lat="45.84742" lon="3.69186">
        <ele>710</ele>
        <time>2015-08-05T15:40:25Z</time>
      </trkpt>
      <trkpt lat="45.8474" lon="3.69178">
        <ele>710</ele>
        <time>2015-08-05T15:40:29Z</time>
      </trkpt>
      <trkpt lat="45.84738" lon="3.6917">
        <ele>710</ele>
        <time>2015-08-05T15:40:34Z</time>
      </trkpt>
      <trkpt lat="45.84739" lon="3.69166">
        <ele>710</ele>
        <time>2015-08-05T15:40:37Z</time>
      </trkpt>
      <trkpt lat="45.8474" lon="3.69161">
        <ele>710</ele>
        <time>2015-08-05T15:40:40Z</time>
      </trkpt>
      <trkpt lat="45.8474" lon="3.69151">
        <ele>710</ele>
        <time>2015-08-05T15:40:46Z</time>
      </trkpt>
      <trkpt lat="45.84741" lon="3.69137">
        <ele>705</ele>
        <time>2015-08-05T15:40:55Z</time>
      </trkpt>
      <trkpt lat="45.84742" lon="3.69133">
        <ele>703</ele>
        <time>2015-08-05T15:40:57Z</time>
      </trkpt>
      <trkpt lat="45.8474" lon="3.69121">
        <ele>703</ele>
        <time>2015-08-05T15:41:03Z</time>
      </trkpt>
      <trkpt lat="45.84739" lon="3.69117">
        <ele>703</ele>
        <time>2015-08-05T15:41:05Z</time>
      </trkpt>
      <trkpt lat="45.84739" lon="3.69114">
        <ele>703</ele>
        <time>2015-08-05T15:41:07Z</time>
      </trkpt>
      <trkpt lat="45.8474" lon="3.69111">
        <ele>703</ele>
        <time>2015-08-05T15:41:09Z</time>
      </trkpt>
      <trkpt lat="45.84742" lon="3.69109">
        <ele>703</ele>
        <time>2015-08-05T15:41:11Z</time>
      </trkpt>
      <trkpt lat="45.84742" lon="3.69107">
        <ele>703</ele>
        <time>2015-08-05T15:41:13Z</time>
      </trkpt>
      <trkpt lat="45.84742" lon="3.69105">
        <ele>703</ele>
        <time>2015-08-05T15:41:15Z</time>
      </trkpt>
      <trkpt lat="45.84739" lon="3.69091">
        <ele>703</ele>
        <time>2015-08-05T15:41:23Z</time>
      </trkpt>
      <trkpt lat="45.8474" lon="3.69088">
        <ele>703</ele>
        <time>2015-08-05T15:41:25Z</time>
      </trkpt>
      <trkpt lat="45.8474" lon="3.69086">
        <ele>703</ele>
        <time>2015-08-05T15:41:27Z</time>
      </trkpt>
      <trkpt lat="45.84741" lon="3.6908">
        <ele>699</ele>
        <time>2015-08-05T15:41:32Z</time>
      </trkpt>
      <trkpt lat="45.8474" lon="3.69075">
        <ele>699</ele>
        <time>2015-08-05T15:41:34Z</time>
      </trkpt>
      <trkpt lat="45.84741" lon="3.69072">
        <ele>699</ele>
        <time>2015-08-05T15:41:36Z</time>
      </trkpt>
      <trkpt lat="45.84741" lon="3.69067">
        <ele>699</ele>
        <time>2015-08-05T15:41:38Z</time>
      </trkpt>
      <trkpt lat="45.84741" lon="3.69064">
        <ele>699</ele>
        <time>2015-08-05T15:41:40Z</time>
      </trkpt>
      <trkpt lat="45.84741" lon="3.69061">
        <ele>698</ele>
        <time>2015-08-05T15:41:42Z</time>
      </trkpt>
      <trkpt lat="45.84741" lon="3.69057">
        <ele>698</ele>
        <time>2015-08-05T15:41:44Z</time>
      </trkpt>
      <trkpt lat="45.84741" lon="3.69054">
        <ele>698</ele>
        <time>2015-08-05T15:41:46Z</time>
      </trkpt>
      <trkpt lat="45.8474" lon="3.69051">
        <ele>697</ele>
        <time>2015-08-05T15:41:49Z</time>
      </trkpt>
      <trkpt lat="45.84739" lon="3.69049">
        <ele>697</ele>
        <time>2015-08-05T15:41:51Z</time>
      </trkpt>
      <trkpt lat="45.84739" lon="3.69047">
        <ele>697</ele>
        <time>2015-08-05T15:41:53Z</time>
      </trkpt>
      <trkpt lat="45.84738" lon="3.69045">
        <ele>697</ele>
        <time>2015-08-05T15:41:55Z</time>
      </trkpt>
      <trkpt lat="45.84737" lon="3.69041">
        <ele>697</ele>
        <time>2015-08-05T15:41:57Z</time>
      </trkpt>
      <trkpt lat="45.84738" lon="3.69038">
        <ele>697</ele>
        <time>2015-08-05T15:41:59Z</time>
      </trkpt>
      <trkpt lat="45.84737" lon="3.6903">
        <ele>696</ele>
        <time>2015-08-05T15:42:03Z</time>
      </trkpt>
      <trkpt lat="45.84737" lon="3.69028">
        <ele>696</ele>
        <time>2015-08-05T15:42:05Z</time>
      </trkpt>
      <trkpt lat="45.84736" lon="3.69024">
        <ele>696</ele>
        <time>2015-08-05T15:42:07Z</time>
      </trkpt>
      <trkpt lat="45.84735" lon="3.6902">
        <ele>696</ele>
        <time>2015-08-05T15:42:09Z</time>
      </trkpt>
      <trkpt lat="45.84734" lon="3.69018">
        <ele>695</ele>
        <time>2015-08-05T15:42:11Z</time>
      </trkpt>
      <trkpt lat="45.84732" lon="3.69014">
        <ele>695</ele>
        <time>2015-08-05T15:42:13Z</time>
      </trkpt>
      <trkpt lat="45.8473" lon="3.69009">
        <ele>695</ele>
        <time>2015-08-05T15:42:15Z</time>
      </trkpt>
      <trkpt lat="45.8473" lon="3.69002">
        <ele>695</ele>
        <time>2015-08-05T15:42:19Z</time>
      </trkpt>
      <trkpt lat="45.84729" lon="3.68998">
        <ele>695</ele>
        <time>2015-08-05T15:42:21Z</time>
      </trkpt>
      <trkpt lat="45.8473" lon="3.68994">
        <ele>695</ele>
        <time>2015-08-05T15:42:23Z</time>
      </trkpt>
      <trkpt lat="45.84724" lon="3.68978">
        <ele>695</ele>
        <time>2015-08-05T15:42:33Z</time>
      </trkpt>
      <trkpt lat="45.84723" lon="3.6897">
        <ele>694</ele>
        <time>2015-08-05T15:42:38Z</time>
      </trkpt>
      <trkpt lat="45.84721" lon="3.68966">
        <ele>694</ele>
        <time>2015-08-05T15:42:40Z</time>
      </trkpt>
      <trkpt lat="45.84721" lon="3.68962">
        <ele>693</ele>
        <time>2015-08-05T15:42:42Z</time>
      </trkpt>
      <trkpt lat="45.84721" lon="3.6896">
        <ele>691</ele>
        <time>2015-08-05T15:42:44Z</time>
      </trkpt>
      <trkpt lat="45.8472" lon="3.68952">
        <ele>689</ele>
        <time>2015-08-05T15:42:48Z</time>
      </trkpt>
      <trkpt lat="45.84719" lon="3.68947">
        <ele>688</ele>
        <time>2015-08-05T15:42:51Z</time>
      </trkpt>
      <trkpt lat="45.84718" lon="3.68941">
        <ele>688</ele>
        <time>2015-08-05T15:42:55Z</time>
      </trkpt>
      <trkpt lat="45.84715" lon="3.68933">
        <ele>688</ele>
        <time>2015-08-05T15:43:00Z</time>
      </trkpt>
      <trkpt lat="45.8471" lon="3.68919">
        <ele>688</ele>
        <time>2015-08-05T15:43:06Z</time>
      </trkpt>
      <trkpt lat="45.84709" lon="3.68916">
        <ele>688</ele>
        <time>2015-08-05T15:43:08Z</time>
      </trkpt>
      <trkpt lat="45.84706" lon="3.68909">
        <ele>689</ele>
        <time>2015-08-05T15:43:10Z</time>
      </trkpt>
      <trkpt lat="45.84705" lon="3.68905">
        <ele>691</ele>
        <time>2015-08-05T15:43:12Z</time>
      </trkpt>
      <trkpt lat="45.84703" lon="3.68897">
        <ele>693</ele>
        <time>2015-08-05T15:43:16Z</time>
      </trkpt>
      <trkpt lat="45.84698" lon="3.68885">
        <ele>695</ele>
        <time>2015-08-05T15:43:21Z</time>
      </trkpt>
      <trkpt lat="45.84696" lon="3.68874">
        <ele>698</ele>
        <time>2015-08-05T15:43:25Z</time>
      </trkpt>
      <trkpt lat="45.84693" lon="3.68863">
        <ele>702</ele>
        <time>2015-08-05T15:43:31Z</time>
      </trkpt>
      <trkpt lat="45.84689" lon="3.68854">
        <ele>702</ele>
        <time>2015-08-05T15:43:37Z</time>
      </trkpt>
      <trkpt lat="45.84681" lon="3.68839">
        <ele>702</ele>
        <time>2015-08-05T15:43:47Z</time>
      </trkpt>
      <trkpt lat="45.84681" lon="3.68835">
        <ele>702</ele>
        <time>2015-08-05T15:43:49Z</time>
      </trkpt>
      <trkpt lat="45.84678" lon="3.68831">
        <ele>702</ele>
        <time>2015-08-05T15:43:51Z</time>
      </trkpt>
      <trkpt lat="45.84677" lon="3.68827">
        <ele>702</ele>
        <time>2015-08-05T15:43:53Z</time>
      </trkpt>
      <trkpt lat="45.84672" lon="3.68815">
        <ele>702</ele>
        <time>2015-08-05T15:44:01Z</time>
      </trkpt>
      <trkpt lat="45.84671" lon="3.68813">
        <ele>702</ele>
        <time>2015-08-05T15:44:03Z</time>
      </trkpt>
      <trkpt lat="45.8467" lon="3.68808">
        <ele>702</ele>
        <time>2015-08-05T15:44:07Z</time>
      </trkpt>
      <trkpt lat="45.84665" lon="3.68796">
        <ele>702</ele>
        <time>2015-08-05T15:44:14Z</time>
      </trkpt>
      <trkpt lat="45.84664" lon="3.68792">
        <ele>702</ele>
        <time>2015-08-05T15:44:16Z</time>
      </trkpt>
      <trkpt lat="45.84663" lon="3.68789">
        <ele>702</ele>
        <time>2015-08-05T15:44:18Z</time>
      </trkpt>
      <trkpt lat="45.8466" lon="3.68781">
        <ele>702</ele>
        <time>2015-08-05T15:44:24Z</time>
      </trkpt>
      <trkpt lat="45.84658" lon="3.68779">
        <ele>702</ele>
        <time>2015-08-05T15:44:26Z</time>
      </trkpt>
      <trkpt lat="45.84656" lon="3.68774">
        <ele>702</ele>
        <time>2015-08-05T15:44:30Z</time>
      </trkpt>
      <trkpt lat="45.84649" lon="3.68761">
        <ele>702</ele>
        <time>2015-08-05T15:44:38Z</time>
      </trkpt>
      <trkpt lat="45.84647" lon="3.68758">
        <ele>702</ele>
        <time>2015-08-05T15:44:40Z</time>
      </trkpt>
      <trkpt lat="45.84644" lon="3.68752">
        <ele>702</ele>
        <time>2015-08-05T15:44:44Z</time>
      </trkpt>
      <trkpt lat="45.84644" lon="3.68749">
        <ele>702</ele>
        <time>2015-08-05T15:44:46Z</time>
      </trkpt>
      <trkpt lat="45.84642" lon="3.68744">
        <ele>702</ele>
        <time>2015-08-05T15:44:49Z</time>
      </trkpt>
      <trkpt lat="45.84632" lon="3.68726">
        <ele>702</ele>
        <time>2015-08-05T15:45:00Z</time>
      </trkpt>
      <trkpt lat="45.84631" lon="3.68724">
        <ele>702</ele>
        <time>2015-08-05T15:45:02Z</time>
      </trkpt>
      <trkpt lat="45.84628" lon="3.68716">
        <ele>702</ele>
        <time>2015-08-05T15:45:06Z</time>
      </trkpt>
      <trkpt lat="45.84625" lon="3.68711">
        <ele>702</ele>
        <time>2015-08-05T15:45:09Z</time>
      </trkpt>
      <trkpt lat="45.84624" lon="3.68709">
        <ele>702</ele>
        <time>2015-08-05T15:45:11Z</time>
      </trkpt>
      <trkpt lat="45.84623" lon="3.68707">
        <ele>702</ele>
        <time>2015-08-05T15:45:13Z</time>
      </trkpt>
      <trkpt lat="45.84621" lon="3.68704">
        <ele>702</ele>
        <time>2015-08-05T15:45:15Z</time>
      </trkpt>
      <trkpt lat="45.84618" lon="3.68702">
        <ele>702</ele>
        <time>2015-08-05T15:45:18Z</time>
      </trkpt>
      <trkpt lat="45.84613" lon="3.68696">
        <ele>702</ele>
        <time>2015-08-05T15:45:24Z</time>
      </trkpt>
      <trkpt lat="45.84603" lon="3.68691">
        <ele>702</ele>
        <time>2015-08-05T15:45:32Z</time>
      </trkpt>
      <trkpt lat="45.84594" lon="3.68688">
        <ele>702</ele>
        <time>2015-08-05T15:45:39Z</time>
      </trkpt>
      <trkpt lat="45.84592" lon="3.68687">
        <ele>702</ele>
        <time>2015-08-05T15:45:41Z</time>
      </trkpt>
      <trkpt lat="45.84586" lon="3.68688">
        <ele>702</ele>
        <time>2015-08-05T15:45:46Z</time>
      </trkpt>
      <trkpt lat="45.84578" lon="3.68688">
        <ele>702</ele>
        <time>2015-08-05T15:45:53Z</time>
      </trkpt>
      <trkpt lat="45.84565" lon="3.68691">
        <ele>703</ele>
        <time>2015-08-05T15:46:03Z</time>
      </trkpt>
      <trkpt lat="45.84559" lon="3.68692">
        <ele>703</ele>
        <time>2015-08-05T15:46:07Z</time>
      </trkpt>
      <trkpt lat="45.84551" lon="3.68694">
        <ele>703</ele>
        <time>2015-08-05T15:46:14Z</time>
      </trkpt>
      <trkpt lat="45.84542" lon="3.68694">
        <ele>704</ele>
        <time>2015-08-05T15:46:20Z</time>
      </trkpt>
      <trkpt lat="45.84539" lon="3.68694">
        <ele>705</ele>
        <time>2015-08-05T15:46:22Z</time>
      </trkpt>
      <trkpt lat="45.84534" lon="3.68696">
        <ele>705</ele>
        <time>2015-08-05T15:46:26Z</time>
      </trkpt>
      <trkpt lat="45.84531" lon="3.68696">
        <ele>705</ele>
        <time>2015-08-05T15:46:28Z</time>
      </trkpt>
      <trkpt lat="45.84526" lon="3.68698">
        <ele>705</ele>
        <time>2015-08-05T15:46:32Z</time>
      </trkpt>
      <trkpt lat="45.84521" lon="3.68699">
        <ele>705</ele>
        <time>2015-08-05T15:46:36Z</time>
      </trkpt>
      <trkpt lat="45.84519" lon="3.687">
        <ele>705</ele>
        <time>2015-08-05T15:46:38Z</time>
      </trkpt>
      <trkpt lat="45.84513" lon="3.68701">
        <ele>705</ele>
        <time>2015-08-05T15:46:42Z</time>
      </trkpt>
      <trkpt lat="45.84501" lon="3.68705">
        <ele>705</ele>
        <time>2015-08-05T15:46:52Z</time>
      </trkpt>
      <trkpt lat="45.84498" lon="3.68706">
        <ele>705</ele>
        <time>2015-08-05T15:46:54Z</time>
      </trkpt>
      <trkpt lat="45.84496" lon="3.68707">
        <ele>705</ele>
        <time>2015-08-05T15:46:56Z</time>
      </trkpt>
      <trkpt lat="45.84483" lon="3.68709">
        <ele>705</ele>
        <time>2015-08-05T15:47:06Z</time>
      </trkpt>
      <trkpt lat="45.84474" lon="3.68712">
        <ele>705</ele>
        <time>2015-08-05T15:47:14Z</time>
      </trkpt>
      <trkpt lat="45.84462" lon="3.68715">
        <ele>705</ele>
        <time>2015-08-05T15:47:23Z</time>
      </trkpt>
      <trkpt lat="45.84459" lon="3.68715">
        <ele>705</ele>
        <time>2015-08-05T15:47:25Z</time>
      </trkpt>
      <trkpt lat="45.84453" lon="3.68712">
        <ele>705</ele>
        <time>2015-08-05T15:47:29Z</time>
      </trkpt>
      <trkpt lat="45.84447" lon="3.68712">
        <ele>705</ele>
        <time>2015-08-05T15:47:33Z</time>
      </trkpt>
      <trkpt lat="45.84442" lon="3.68713">
        <ele>705</ele>
        <time>2015-08-05T15:47:38Z</time>
      </trkpt>
      <trkpt lat="45.84435" lon="3.68714">
        <ele>705</ele>
        <time>2015-08-05T15:47:44Z</time>
      </trkpt>
      <trkpt lat="45.84429" lon="3.68716">
        <ele>705</ele>
        <time>2015-08-05T15:47:49Z</time>
      </trkpt>
      <trkpt lat="45.84422" lon="3.6872">
        <ele>705</ele>
        <time>2015-08-05T15:47:56Z</time>
      </trkpt>
      <trkpt lat="45.84419" lon="3.68721">
        <ele>705</ele>
        <time>2015-08-05T15:47:59Z</time>
      </trkpt>
      <trkpt lat="45.84414" lon="3.68724">
        <ele>705</ele>
        <time>2015-08-05T15:48:03Z</time>
      </trkpt>
      <trkpt lat="45.84404" lon="3.68728">
        <ele>705</ele>
        <time>2015-08-05T15:48:11Z</time>
      </trkpt>
      <trkpt lat="45.844" lon="3.68731">
        <ele>705</ele>
        <time>2015-08-05T15:48:14Z</time>
      </trkpt>
      <trkpt lat="45.84383" lon="3.68737">
        <ele>703</ele>
        <time>2015-08-05T15:48:28Z</time>
      </trkpt>
      <trkpt lat="45.84379" lon="3.68739">
        <ele>702</ele>
        <time>2015-08-05T15:48:32Z</time>
      </trkpt>
      <trkpt lat="45.84376" lon="3.6874">
        <ele>701</ele>
        <time>2015-08-05T15:48:34Z</time>
      </trkpt>
      <trkpt lat="45.84369" lon="3.68743">
        <ele>700</ele>
        <time>2015-08-05T15:48:40Z</time>
      </trkpt>
      <trkpt lat="45.84364" lon="3.68746">
        <ele>699</ele>
        <time>2015-08-05T15:48:44Z</time>
      </trkpt>
      <trkpt lat="45.84359" lon="3.68749">
        <ele>698</ele>
        <time>2015-08-05T15:48:48Z</time>
      </trkpt>
      <trkpt lat="45.84349" lon="3.68751">
        <ele>698</ele>
        <time>2015-08-05T15:48:56Z</time>
      </trkpt>
      <trkpt lat="45.84345" lon="3.68751">
        <ele>697</ele>
        <time>2015-08-05T15:48:59Z</time>
      </trkpt>
      <trkpt lat="45.84337" lon="3.68746">
        <ele>697</ele>
        <time>2015-08-05T15:49:05Z</time>
      </trkpt>
      <trkpt lat="45.84335" lon="3.68744">
        <ele>697</ele>
        <time>2015-08-05T15:49:07Z</time>
      </trkpt>
      <trkpt lat="45.84334" lon="3.68742">
        <ele>697</ele>
        <time>2015-08-05T15:49:09Z</time>
      </trkpt>
      <trkpt lat="45.84327" lon="3.68733">
        <ele>697</ele>
        <time>2015-08-05T15:49:17Z</time>
      </trkpt>
      <trkpt lat="45.84327" lon="3.68731">
        <ele>697</ele>
        <time>2015-08-05T15:49:19Z</time>
      </trkpt>
      <trkpt lat="45.84324" lon="3.68726">
        <ele>697</ele>
        <time>2015-08-05T15:49:22Z</time>
      </trkpt>
      <trkpt lat="45.84322" lon="3.68724">
        <ele>697</ele>
        <time>2015-08-05T15:49:24Z</time>
      </trkpt>
      <trkpt lat="45.8432" lon="3.68722">
        <ele>697</ele>
        <time>2015-08-05T15:49:26Z</time>
      </trkpt>
      <trkpt lat="45.84319" lon="3.68719">
        <ele>697</ele>
        <time>2015-08-05T15:49:28Z</time>
      </trkpt>
      <trkpt lat="45.84317" lon="3.68715">
        <ele>697</ele>
        <time>2015-08-05T15:49:30Z</time>
      </trkpt>
      <trkpt lat="45.84312" lon="3.68702">
        <ele>697</ele>
        <time>2015-08-05T15:49:38Z</time>
      </trkpt>
      <trkpt lat="45.84311" lon="3.68701">
        <ele>697</ele>
        <time>2015-08-05T15:49:40Z</time>
      </trkpt>
      <trkpt lat="45.84311" lon="3.68699">
        <ele>697</ele>
        <time>2015-08-05T15:49:43Z</time>
      </trkpt>
      <trkpt lat="45.84313" lon="3.68695">
        <ele>696</ele>
        <time>2015-08-05T15:49:48Z</time>
      </trkpt>
      <trkpt lat="45.84313" lon="3.68693">
        <ele>696</ele>
        <time>2015-08-05T15:49:52Z</time>
      </trkpt>
      <trkpt lat="45.84312" lon="3.68692">
        <ele>696</ele>
        <time>2015-08-05T15:49:55Z</time>
      </trkpt>
      <trkpt lat="45.8431" lon="3.68694">
        <ele>696</ele>
        <time>2015-08-05T15:49:58Z</time>
      </trkpt>
      <trkpt lat="45.84309" lon="3.68693">
        <ele>696</ele>
        <time>2015-08-05T15:50:04Z</time>
      </trkpt>
      <trkpt lat="45.8431" lon="3.68695">
        <ele>696</ele>
        <time>2015-08-05T15:50:35Z</time>
      </trkpt>
      <trkpt lat="45.84309" lon="3.68699">
        <ele>697</ele>
        <time>2015-08-05T15:50:39Z</time>
      </trkpt>
      <trkpt lat="45.84309" lon="3.687">
        <ele>697</ele>
        <time>2015-08-05T15:50:42Z</time>
      </trkpt>
      <trkpt lat="45.8431" lon="3.68701">
        <ele>697</ele>
        <time>2015-08-05T15:50:43Z</time>
      </trkpt>
    </trkseg>
  </trk>
</gpx>